<?xml version="1.0" encoding="UTF-8" standalone="no" ?>
<gpx xmlns="http://www.topografix.com/GPX/1/1" xmlns:xsi="http://www.w3.org/2001/XMLSchema-instance" xsi:schemaLocation="http://www.topografix.com/GPX/1/1 http://www.topografix.com/GPX/1/1/gpx.xsd" version="1.1" creator="VisuGPX - https://www.visugpx.com">
  <metadata>
    <name>massif de la clap gruissan </name>
    <desc><![CDATA[Trace AlpineQuest 25/09/2021 10:33:07]]></desc>
  </metadata>
  <trk>
    <name><![CDATA[massif de la clap gruissan _1]]></name>
    <trkseg>
      <trkpt lat="43.13052" lon="3.07459">
        <ele>72.602</ele>
        <time>2021-09-25T08:33:07Z</time>
      </trkpt>
      <trkpt lat="43.13044" lon="3.07451">
        <ele>58.335</ele>
        <time>2021-09-25T08:33:10Z</time>
      </trkpt>
      <trkpt lat="43.13046" lon="3.07448">
        <ele>58.612</ele>
        <time>2021-09-25T08:33:12Z</time>
      </trkpt>
      <trkpt lat="43.13047" lon="3.07446">
        <ele>64.101</ele>
        <time>2021-09-25T08:33:14Z</time>
      </trkpt>
      <trkpt lat="43.13045" lon="3.07445">
        <ele>67.857</ele>
        <time>2021-09-25T08:33:16Z</time>
      </trkpt>
      <trkpt lat="43.13045" lon="3.07444">
        <ele>69.941</ele>
        <time>2021-09-25T08:33:18Z</time>
      </trkpt>
      <trkpt lat="43.13045" lon="3.07444">
        <ele>70.265</ele>
        <time>2021-09-25T08:33:20Z</time>
      </trkpt>
      <trkpt lat="43.13046" lon="3.07444">
        <ele>70.086</ele>
        <time>2021-09-25T08:33:22Z</time>
      </trkpt>
      <trkpt lat="43.13048" lon="3.07445">
        <ele>70.546</ele>
        <time>2021-09-25T08:33:24Z</time>
      </trkpt>
      <trkpt lat="43.13049" lon="3.07447">
        <ele>69.398</ele>
        <time>2021-09-25T08:33:26Z</time>
      </trkpt>
      <trkpt lat="43.1305" lon="3.07449">
        <ele>69.578</ele>
        <time>2021-09-25T08:33:28Z</time>
      </trkpt>
      <trkpt lat="43.1305" lon="3.07452">
        <ele>69.359</ele>
        <time>2021-09-25T08:33:30Z</time>
      </trkpt>
      <trkpt lat="43.13051" lon="3.07455">
        <ele>69.007</ele>
        <time>2021-09-25T08:33:32Z</time>
      </trkpt>
      <trkpt lat="43.1305" lon="3.07458">
        <ele>69.332</ele>
        <time>2021-09-25T08:33:34Z</time>
      </trkpt>
      <trkpt lat="43.1305" lon="3.07461">
        <ele>69.561</ele>
        <time>2021-09-25T08:33:36Z</time>
      </trkpt>
      <trkpt lat="43.1305" lon="3.07465">
        <ele>69.974</ele>
        <time>2021-09-25T08:33:38Z</time>
      </trkpt>
      <trkpt lat="43.1305" lon="3.07468">
        <ele>70.494</ele>
        <time>2021-09-25T08:33:40Z</time>
      </trkpt>
      <trkpt lat="43.13049" lon="3.07471">
        <ele>70.851</ele>
        <time>2021-09-25T08:33:42Z</time>
      </trkpt>
      <trkpt lat="43.13049" lon="3.07474">
        <ele>70.909</ele>
        <time>2021-09-25T08:33:44Z</time>
      </trkpt>
      <trkpt lat="43.13048" lon="3.07477">
        <ele>71.401</ele>
        <time>2021-09-25T08:33:46Z</time>
      </trkpt>
      <trkpt lat="43.13048" lon="3.0748">
        <ele>71.532</ele>
        <time>2021-09-25T08:33:48Z</time>
      </trkpt>
      <trkpt lat="43.13047" lon="3.07483">
        <ele>71.045</ele>
        <time>2021-09-25T08:33:50Z</time>
      </trkpt>
      <trkpt lat="43.13046" lon="3.07485">
        <ele>71.062</ele>
        <time>2021-09-25T08:33:52Z</time>
      </trkpt>
      <trkpt lat="43.13045" lon="3.07488">
        <ele>71.188</ele>
        <time>2021-09-25T08:33:54Z</time>
      </trkpt>
      <trkpt lat="43.13043" lon="3.0749">
        <ele>71.122</ele>
        <time>2021-09-25T08:33:56Z</time>
      </trkpt>
      <trkpt lat="43.13043" lon="3.07494">
        <ele>71.682</ele>
        <time>2021-09-25T08:33:58Z</time>
      </trkpt>
      <trkpt lat="43.13043" lon="3.07497">
        <ele>71.317</ele>
        <time>2021-09-25T08:34:00Z</time>
      </trkpt>
      <trkpt lat="43.13043" lon="3.075">
        <ele>70.719</ele>
        <time>2021-09-25T08:34:02Z</time>
      </trkpt>
      <trkpt lat="43.13045" lon="3.07503">
        <ele>70.544</ele>
        <time>2021-09-25T08:34:04Z</time>
      </trkpt>
      <trkpt lat="43.13047" lon="3.07504">
        <ele>70.635</ele>
        <time>2021-09-25T08:34:06Z</time>
      </trkpt>
      <trkpt lat="43.13049" lon="3.07503">
        <ele>71.425</ele>
        <time>2021-09-25T08:34:08Z</time>
      </trkpt>
      <trkpt lat="43.13051" lon="3.07501">
        <ele>72.158</ele>
        <time>2021-09-25T08:34:10Z</time>
      </trkpt>
      <trkpt lat="43.13053" lon="3.075">
        <ele>72.388</ele>
        <time>2021-09-25T08:34:12Z</time>
      </trkpt>
      <trkpt lat="43.13054" lon="3.07499">
        <ele>72.739</ele>
        <time>2021-09-25T08:34:14Z</time>
      </trkpt>
      <trkpt lat="43.13056" lon="3.07499">
        <ele>72.954</ele>
        <time>2021-09-25T08:34:16Z</time>
      </trkpt>
      <trkpt lat="43.13058" lon="3.075">
        <ele>73.414</ele>
        <time>2021-09-25T08:34:18Z</time>
      </trkpt>
      <trkpt lat="43.1306" lon="3.07501">
        <ele>73.668</ele>
        <time>2021-09-25T08:34:20Z</time>
      </trkpt>
      <trkpt lat="43.13062" lon="3.07503">
        <ele>74.383</ele>
        <time>2021-09-25T08:34:22Z</time>
      </trkpt>
      <trkpt lat="43.13064" lon="3.07504">
        <ele>74.615</ele>
        <time>2021-09-25T08:34:24Z</time>
      </trkpt>
      <trkpt lat="43.13065" lon="3.07505">
        <ele>74.72</ele>
        <time>2021-09-25T08:34:26Z</time>
      </trkpt>
      <trkpt lat="43.13067" lon="3.07503">
        <ele>74.256</ele>
        <time>2021-09-25T08:34:28Z</time>
      </trkpt>
      <trkpt lat="43.13069" lon="3.07505">
        <ele>74.304</ele>
        <time>2021-09-25T08:34:30Z</time>
      </trkpt>
      <trkpt lat="43.13071" lon="3.07507">
        <ele>74.405</ele>
        <time>2021-09-25T08:34:32Z</time>
      </trkpt>
      <trkpt lat="43.13073" lon="3.07508">
        <ele>74.384</ele>
        <time>2021-09-25T08:34:34Z</time>
      </trkpt>
      <trkpt lat="43.13075" lon="3.07509">
        <ele>74.399</ele>
        <time>2021-09-25T08:34:36Z</time>
      </trkpt>
      <trkpt lat="43.13077" lon="3.0751">
        <ele>74.89</ele>
        <time>2021-09-25T08:34:38Z</time>
      </trkpt>
      <trkpt lat="43.13078" lon="3.07511">
        <ele>74.184</ele>
        <time>2021-09-25T08:34:40Z</time>
      </trkpt>
      <trkpt lat="43.1308" lon="3.07512">
        <ele>74.304</ele>
        <time>2021-09-25T08:34:42Z</time>
      </trkpt>
      <trkpt lat="43.13082" lon="3.07513">
        <ele>74.296</ele>
        <time>2021-09-25T08:34:44Z</time>
      </trkpt>
      <trkpt lat="43.13084" lon="3.07513">
        <ele>74.847</ele>
        <time>2021-09-25T08:34:46Z</time>
      </trkpt>
      <trkpt lat="43.13086" lon="3.07514">
        <ele>74.409</ele>
        <time>2021-09-25T08:34:48Z</time>
      </trkpt>
      <trkpt lat="43.13088" lon="3.07514">
        <ele>74.019</ele>
        <time>2021-09-25T08:34:50Z</time>
      </trkpt>
      <trkpt lat="43.13089" lon="3.07515">
        <ele>74.026</ele>
        <time>2021-09-25T08:34:52Z</time>
      </trkpt>
      <trkpt lat="43.13091" lon="3.07515">
        <ele>74.369</ele>
        <time>2021-09-25T08:34:54Z</time>
      </trkpt>
      <trkpt lat="43.13093" lon="3.07515">
        <ele>75.357</ele>
        <time>2021-09-25T08:34:56Z</time>
      </trkpt>
      <trkpt lat="43.13094" lon="3.07516">
        <ele>75.087</ele>
        <time>2021-09-25T08:34:58Z</time>
      </trkpt>
      <trkpt lat="43.13096" lon="3.07516">
        <ele>74.457</ele>
        <time>2021-09-25T08:35:00Z</time>
      </trkpt>
      <trkpt lat="43.13097" lon="3.07517">
        <ele>74.799</ele>
        <time>2021-09-25T08:35:02Z</time>
      </trkpt>
      <trkpt lat="43.13099" lon="3.07517">
        <ele>74.887</ele>
        <time>2021-09-25T08:35:04Z</time>
      </trkpt>
      <trkpt lat="43.13101" lon="3.07517">
        <ele>75.014</ele>
        <time>2021-09-25T08:35:06Z</time>
      </trkpt>
      <trkpt lat="43.13102" lon="3.07517">
        <ele>75.64</ele>
        <time>2021-09-25T08:35:08Z</time>
      </trkpt>
      <trkpt lat="43.13104" lon="3.07517">
        <ele>77.391</ele>
        <time>2021-09-25T08:35:10Z</time>
      </trkpt>
      <trkpt lat="43.13105" lon="3.07518">
        <ele>77.488</ele>
        <time>2021-09-25T08:35:12Z</time>
      </trkpt>
      <trkpt lat="43.13107" lon="3.07518">
        <ele>77.595</ele>
        <time>2021-09-25T08:35:14Z</time>
      </trkpt>
      <trkpt lat="43.13108" lon="3.07519">
        <ele>77.195</ele>
        <time>2021-09-25T08:35:16Z</time>
      </trkpt>
      <trkpt lat="43.13109" lon="3.07519">
        <ele>78.53</ele>
        <time>2021-09-25T08:35:18Z</time>
      </trkpt>
      <trkpt lat="43.13111" lon="3.0752">
        <ele>77.594</ele>
        <time>2021-09-25T08:35:20Z</time>
      </trkpt>
      <trkpt lat="43.13112" lon="3.0752">
        <ele>78.194</ele>
        <time>2021-09-25T08:35:22Z</time>
      </trkpt>
      <trkpt lat="43.13114" lon="3.0752">
        <ele>77.853</ele>
        <time>2021-09-25T08:35:24Z</time>
      </trkpt>
      <trkpt lat="43.13116" lon="3.07521">
        <ele>78.012</ele>
        <time>2021-09-25T08:35:26Z</time>
      </trkpt>
      <trkpt lat="43.13117" lon="3.07521">
        <ele>77.855</ele>
        <time>2021-09-25T08:35:28Z</time>
      </trkpt>
      <trkpt lat="43.13119" lon="3.07522">
        <ele>77.477</ele>
        <time>2021-09-25T08:35:30Z</time>
      </trkpt>
      <trkpt lat="43.13121" lon="3.07522">
        <ele>77.471</ele>
        <time>2021-09-25T08:35:32Z</time>
      </trkpt>
      <trkpt lat="43.13123" lon="3.07523">
        <ele>77.739</ele>
        <time>2021-09-25T08:35:34Z</time>
      </trkpt>
      <trkpt lat="43.13124" lon="3.07524">
        <ele>77.427</ele>
        <time>2021-09-25T08:35:36Z</time>
      </trkpt>
      <trkpt lat="43.13126" lon="3.07525">
        <ele>78.514</ele>
        <time>2021-09-25T08:35:38Z</time>
      </trkpt>
      <trkpt lat="43.13128" lon="3.07525">
        <ele>78.438</ele>
        <time>2021-09-25T08:35:40Z</time>
      </trkpt>
      <trkpt lat="43.1313" lon="3.07525">
        <ele>78.428</ele>
        <time>2021-09-25T08:35:42Z</time>
      </trkpt>
      <trkpt lat="43.13132" lon="3.07526">
        <ele>78.151</ele>
        <time>2021-09-25T08:35:44Z</time>
      </trkpt>
      <trkpt lat="43.13133" lon="3.07527">
        <ele>78.851</ele>
        <time>2021-09-25T08:35:46Z</time>
      </trkpt>
      <trkpt lat="43.13135" lon="3.07527">
        <ele>78.598</ele>
        <time>2021-09-25T08:35:48Z</time>
      </trkpt>
      <trkpt lat="43.13136" lon="3.07528">
        <ele>79.357</ele>
        <time>2021-09-25T08:35:50Z</time>
      </trkpt>
      <trkpt lat="43.13137" lon="3.07532">
        <ele>79.904</ele>
        <time>2021-09-25T08:35:52Z</time>
      </trkpt>
      <trkpt lat="43.13137" lon="3.07534">
        <ele>81.14</ele>
        <time>2021-09-25T08:35:54Z</time>
      </trkpt>
      <trkpt lat="43.13139" lon="3.07534">
        <ele>81.477</ele>
        <time>2021-09-25T08:35:56Z</time>
      </trkpt>
      <trkpt lat="43.13141" lon="3.07536">
        <ele>81.701</ele>
        <time>2021-09-25T08:35:58Z</time>
      </trkpt>
      <trkpt lat="43.13142" lon="3.07536">
        <ele>82.031</ele>
        <time>2021-09-25T08:36:00Z</time>
      </trkpt>
      <trkpt lat="43.13144" lon="3.07537">
        <ele>82.455</ele>
        <time>2021-09-25T08:36:02Z</time>
      </trkpt>
      <trkpt lat="43.13146" lon="3.07537">
        <ele>82.695</ele>
        <time>2021-09-25T08:36:04Z</time>
      </trkpt>
      <trkpt lat="43.13147" lon="3.07537">
        <ele>83.278</ele>
        <time>2021-09-25T08:36:06Z</time>
      </trkpt>
      <trkpt lat="43.13149" lon="3.07537">
        <ele>83.587</ele>
        <time>2021-09-25T08:36:08Z</time>
      </trkpt>
      <trkpt lat="43.13151" lon="3.07538">
        <ele>84.872</ele>
        <time>2021-09-25T08:36:10Z</time>
      </trkpt>
      <trkpt lat="43.13153" lon="3.0754">
        <ele>85.384</ele>
        <time>2021-09-25T08:36:12Z</time>
      </trkpt>
      <trkpt lat="43.13155" lon="3.0754">
        <ele>85.719</ele>
        <time>2021-09-25T08:36:14Z</time>
      </trkpt>
      <trkpt lat="43.13156" lon="3.0754">
        <ele>85.265</ele>
        <time>2021-09-25T08:36:16Z</time>
      </trkpt>
      <trkpt lat="43.13158" lon="3.0754">
        <ele>85.918</ele>
        <time>2021-09-25T08:36:18Z</time>
      </trkpt>
      <trkpt lat="43.1316" lon="3.0754">
        <ele>86.952</ele>
        <time>2021-09-25T08:36:20Z</time>
      </trkpt>
      <trkpt lat="43.13161" lon="3.0754">
        <ele>87.571</ele>
        <time>2021-09-25T08:36:22Z</time>
      </trkpt>
      <trkpt lat="43.13163" lon="3.0754">
        <ele>87.328</ele>
        <time>2021-09-25T08:36:24Z</time>
      </trkpt>
      <trkpt lat="43.13164" lon="3.0754">
        <ele>88.559</ele>
        <time>2021-09-25T08:36:26Z</time>
      </trkpt>
      <trkpt lat="43.13166" lon="3.07542">
        <ele>89.053</ele>
        <time>2021-09-25T08:36:28Z</time>
      </trkpt>
      <trkpt lat="43.13167" lon="3.07542">
        <ele>89.722</ele>
        <time>2021-09-25T08:36:30Z</time>
      </trkpt>
      <trkpt lat="43.13169" lon="3.07543">
        <ele>89.686</ele>
        <time>2021-09-25T08:36:32Z</time>
      </trkpt>
      <trkpt lat="43.1317" lon="3.07544">
        <ele>90.544</ele>
        <time>2021-09-25T08:36:34Z</time>
      </trkpt>
      <trkpt lat="43.13171" lon="3.07547">
        <ele>91.016</ele>
        <time>2021-09-25T08:36:36Z</time>
      </trkpt>
      <trkpt lat="43.13172" lon="3.07549">
        <ele>91.997</ele>
        <time>2021-09-25T08:36:38Z</time>
      </trkpt>
      <trkpt lat="43.13173" lon="3.07552">
        <ele>93.126</ele>
        <time>2021-09-25T08:36:40Z</time>
      </trkpt>
      <trkpt lat="43.13174" lon="3.07553">
        <ele>93.654</ele>
        <time>2021-09-25T08:36:42Z</time>
      </trkpt>
      <trkpt lat="43.13176" lon="3.07553">
        <ele>93.776</ele>
        <time>2021-09-25T08:36:44Z</time>
      </trkpt>
      <trkpt lat="43.13177" lon="3.07554">
        <ele>94.606</ele>
        <time>2021-09-25T08:36:46Z</time>
      </trkpt>
      <trkpt lat="43.13178" lon="3.07554">
        <ele>94.169</ele>
        <time>2021-09-25T08:36:48Z</time>
      </trkpt>
      <trkpt lat="43.1318" lon="3.07554">
        <ele>93.547</ele>
        <time>2021-09-25T08:36:50Z</time>
      </trkpt>
      <trkpt lat="43.13181" lon="3.07554">
        <ele>93.412</ele>
        <time>2021-09-25T08:36:52Z</time>
      </trkpt>
      <trkpt lat="43.13183" lon="3.07554">
        <ele>94.053</ele>
        <time>2021-09-25T08:36:54Z</time>
      </trkpt>
      <trkpt lat="43.13184" lon="3.07553">
        <ele>94.31</ele>
        <time>2021-09-25T08:36:56Z</time>
      </trkpt>
      <trkpt lat="43.13186" lon="3.07554">
        <ele>94.365</ele>
        <time>2021-09-25T08:36:58Z</time>
      </trkpt>
      <trkpt lat="43.13187" lon="3.07554">
        <ele>95.282</ele>
        <time>2021-09-25T08:37:00Z</time>
      </trkpt>
      <trkpt lat="43.13188" lon="3.07556">
        <ele>95.758</ele>
        <time>2021-09-25T08:37:02Z</time>
      </trkpt>
      <trkpt lat="43.1319" lon="3.07557">
        <ele>95.857</ele>
        <time>2021-09-25T08:37:04Z</time>
      </trkpt>
      <trkpt lat="43.13191" lon="3.07557">
        <ele>95.555</ele>
        <time>2021-09-25T08:37:06Z</time>
      </trkpt>
      <trkpt lat="43.13192" lon="3.07557">
        <ele>96.079</ele>
        <time>2021-09-25T08:37:08Z</time>
      </trkpt>
      <trkpt lat="43.13192" lon="3.07557">
        <ele>96.127</ele>
        <time>2021-09-25T08:37:10Z</time>
      </trkpt>
      <trkpt lat="43.13192" lon="3.07558">
        <ele>96.138</ele>
        <time>2021-09-25T08:37:12Z</time>
      </trkpt>
      <trkpt lat="43.13192" lon="3.07558">
        <ele>96.158</ele>
        <time>2021-09-25T08:37:14Z</time>
      </trkpt>
      <trkpt lat="43.13192" lon="3.07558">
        <ele>96.968</ele>
        <time>2021-09-25T08:37:16Z</time>
      </trkpt>
      <trkpt lat="43.13194" lon="3.07559">
        <ele>98.293</ele>
        <time>2021-09-25T08:37:18Z</time>
      </trkpt>
      <trkpt lat="43.13195" lon="3.0756">
        <ele>100.223</ele>
        <time>2021-09-25T08:37:20Z</time>
      </trkpt>
      <trkpt lat="43.13196" lon="3.0756">
        <ele>100.89</ele>
        <time>2021-09-25T08:37:22Z</time>
      </trkpt>
      <trkpt lat="43.13198" lon="3.07561">
        <ele>102.258</ele>
        <time>2021-09-25T08:37:24Z</time>
      </trkpt>
      <trkpt lat="43.13199" lon="3.07561">
        <ele>102.104</ele>
        <time>2021-09-25T08:37:26Z</time>
      </trkpt>
      <trkpt lat="43.132" lon="3.07562">
        <ele>102.225</ele>
        <time>2021-09-25T08:37:28Z</time>
      </trkpt>
      <trkpt lat="43.13201" lon="3.07563">
        <ele>103.751</ele>
        <time>2021-09-25T08:37:30Z</time>
      </trkpt>
      <trkpt lat="43.13202" lon="3.07563">
        <ele>103.964</ele>
        <time>2021-09-25T08:37:32Z</time>
      </trkpt>
      <trkpt lat="43.13204" lon="3.07564">
        <ele>104.559</ele>
        <time>2021-09-25T08:37:34Z</time>
      </trkpt>
      <trkpt lat="43.13204" lon="3.07565">
        <ele>105.657</ele>
        <time>2021-09-25T08:37:36Z</time>
      </trkpt>
      <trkpt lat="43.13204" lon="3.07567">
        <ele>106.16</ele>
        <time>2021-09-25T08:37:38Z</time>
      </trkpt>
      <trkpt lat="43.13204" lon="3.07569">
        <ele>106.751</ele>
        <time>2021-09-25T08:37:40Z</time>
      </trkpt>
      <trkpt lat="43.13204" lon="3.07572">
        <ele>106.703</ele>
        <time>2021-09-25T08:37:42Z</time>
      </trkpt>
      <trkpt lat="43.13204" lon="3.07575">
        <ele>106.136</ele>
        <time>2021-09-25T08:37:44Z</time>
      </trkpt>
      <trkpt lat="43.13205" lon="3.07576">
        <ele>105.894</ele>
        <time>2021-09-25T08:37:46Z</time>
      </trkpt>
      <trkpt lat="43.13207" lon="3.07575">
        <ele>104.531</ele>
        <time>2021-09-25T08:37:48Z</time>
      </trkpt>
      <trkpt lat="43.13209" lon="3.07576">
        <ele>104.04</ele>
        <time>2021-09-25T08:37:50Z</time>
      </trkpt>
      <trkpt lat="43.13209" lon="3.07578">
        <ele>104.322</ele>
        <time>2021-09-25T08:37:52Z</time>
      </trkpt>
      <trkpt lat="43.13209" lon="3.0758">
        <ele>105.361</ele>
        <time>2021-09-25T08:37:54Z</time>
      </trkpt>
      <trkpt lat="43.13209" lon="3.07581">
        <ele>105.97</ele>
        <time>2021-09-25T08:37:56Z</time>
      </trkpt>
      <trkpt lat="43.1321" lon="3.07582">
        <ele>105.851</ele>
        <time>2021-09-25T08:37:58Z</time>
      </trkpt>
      <trkpt lat="43.13211" lon="3.07584">
        <ele>106.529</ele>
        <time>2021-09-25T08:38:00Z</time>
      </trkpt>
      <trkpt lat="43.13212" lon="3.07584">
        <ele>106.266</ele>
        <time>2021-09-25T08:38:02Z</time>
      </trkpt>
      <trkpt lat="43.13213" lon="3.07586">
        <ele>106.238</ele>
        <time>2021-09-25T08:38:04Z</time>
      </trkpt>
      <trkpt lat="43.13214" lon="3.07588">
        <ele>106.921</ele>
        <time>2021-09-25T08:38:06Z</time>
      </trkpt>
      <trkpt lat="43.13214" lon="3.07589">
        <ele>106.038</ele>
        <time>2021-09-25T08:38:08Z</time>
      </trkpt>
      <trkpt lat="43.13215" lon="3.07589">
        <ele>105.948</ele>
        <time>2021-09-25T08:38:10Z</time>
      </trkpt>
      <trkpt lat="43.13215" lon="3.07589">
        <ele>106.321</ele>
        <time>2021-09-25T08:38:12Z</time>
      </trkpt>
      <trkpt lat="43.13215" lon="3.07589">
        <ele>106.323</ele>
        <time>2021-09-25T08:38:14Z</time>
      </trkpt>
      <trkpt lat="43.13215" lon="3.0759">
        <ele>106.194</ele>
        <time>2021-09-25T08:38:16Z</time>
      </trkpt>
      <trkpt lat="43.13215" lon="3.07591">
        <ele>106.456</ele>
        <time>2021-09-25T08:38:18Z</time>
      </trkpt>
      <trkpt lat="43.13217" lon="3.07593">
        <ele>107.484</ele>
        <time>2021-09-25T08:38:20Z</time>
      </trkpt>
      <trkpt lat="43.13218" lon="3.07593">
        <ele>107.456</ele>
        <time>2021-09-25T08:38:22Z</time>
      </trkpt>
      <trkpt lat="43.13218" lon="3.07594">
        <ele>107.947</ele>
        <time>2021-09-25T08:38:24Z</time>
      </trkpt>
      <trkpt lat="43.13219" lon="3.07595">
        <ele>108.203</ele>
        <time>2021-09-25T08:38:26Z</time>
      </trkpt>
      <trkpt lat="43.13219" lon="3.07597">
        <ele>109.417</ele>
        <time>2021-09-25T08:38:28Z</time>
      </trkpt>
      <trkpt lat="43.13221" lon="3.07596">
        <ele>110.173</ele>
        <time>2021-09-25T08:38:30Z</time>
      </trkpt>
      <trkpt lat="43.13222" lon="3.07595">
        <ele>110.31</ele>
        <time>2021-09-25T08:38:32Z</time>
      </trkpt>
      <trkpt lat="43.13223" lon="3.07594">
        <ele>111.055</ele>
        <time>2021-09-25T08:38:34Z</time>
      </trkpt>
      <trkpt lat="43.13224" lon="3.07592">
        <ele>112.061</ele>
        <time>2021-09-25T08:38:36Z</time>
      </trkpt>
      <trkpt lat="43.13224" lon="3.07591">
        <ele>112.678</ele>
        <time>2021-09-25T08:38:38Z</time>
      </trkpt>
      <trkpt lat="43.13225" lon="3.0759">
        <ele>112.105</ele>
        <time>2021-09-25T08:38:40Z</time>
      </trkpt>
      <trkpt lat="43.13226" lon="3.07592">
        <ele>112.833</ele>
        <time>2021-09-25T08:38:42Z</time>
      </trkpt>
      <trkpt lat="43.13227" lon="3.07592">
        <ele>113.352</ele>
        <time>2021-09-25T08:38:44Z</time>
      </trkpt>
      <trkpt lat="43.13228" lon="3.07593">
        <ele>113.526</ele>
        <time>2021-09-25T08:38:46Z</time>
      </trkpt>
      <trkpt lat="43.13229" lon="3.07594">
        <ele>113.871</ele>
        <time>2021-09-25T08:38:48Z</time>
      </trkpt>
      <trkpt lat="43.13229" lon="3.07595">
        <ele>113.911</ele>
        <time>2021-09-25T08:38:50Z</time>
      </trkpt>
      <trkpt lat="43.1323" lon="3.07595">
        <ele>114.448</ele>
        <time>2021-09-25T08:38:52Z</time>
      </trkpt>
      <trkpt lat="43.13231" lon="3.07596">
        <ele>114.777</ele>
        <time>2021-09-25T08:38:54Z</time>
      </trkpt>
      <trkpt lat="43.13231" lon="3.07597">
        <ele>115.106</ele>
        <time>2021-09-25T08:38:56Z</time>
      </trkpt>
      <trkpt lat="43.13231" lon="3.07597">
        <ele>115.106</ele>
        <time>2021-09-25T08:38:58Z</time>
      </trkpt>
      <trkpt lat="43.13231" lon="3.07597">
        <ele>115.109</ele>
        <time>2021-09-25T08:39:00Z</time>
      </trkpt>
      <trkpt lat="43.13231" lon="3.07597">
        <ele>115.113</ele>
        <time>2021-09-25T08:39:02Z</time>
      </trkpt>
      <trkpt lat="43.13231" lon="3.07597">
        <ele>115.228</ele>
        <time>2021-09-25T08:39:04Z</time>
      </trkpt>
      <trkpt lat="43.1323" lon="3.07597">
        <ele>115.878</ele>
        <time>2021-09-25T08:39:06Z</time>
      </trkpt>
      <trkpt lat="43.1323" lon="3.07597">
        <ele>116.315</ele>
        <time>2021-09-25T08:39:08Z</time>
      </trkpt>
      <trkpt lat="43.13229" lon="3.07597">
        <ele>115.047</ele>
        <time>2021-09-25T08:39:10Z</time>
      </trkpt>
      <trkpt lat="43.13228" lon="3.07596">
        <ele>114.975</ele>
        <time>2021-09-25T08:39:12Z</time>
      </trkpt>
      <trkpt lat="43.13227" lon="3.07596">
        <ele>114.875</ele>
        <time>2021-09-25T08:39:14Z</time>
      </trkpt>
      <trkpt lat="43.13227" lon="3.07595">
        <ele>114.404</ele>
        <time>2021-09-25T08:39:16Z</time>
      </trkpt>
      <trkpt lat="43.13226" lon="3.07594">
        <ele>113.833</ele>
        <time>2021-09-25T08:39:18Z</time>
      </trkpt>
      <trkpt lat="43.13225" lon="3.07593">
        <ele>112.392</ele>
        <time>2021-09-25T08:39:20Z</time>
      </trkpt>
      <trkpt lat="43.13224" lon="3.07593">
        <ele>111.838</ele>
        <time>2021-09-25T08:39:22Z</time>
      </trkpt>
      <trkpt lat="43.13223" lon="3.07593">
        <ele>111.818</ele>
        <time>2021-09-25T08:39:24Z</time>
      </trkpt>
      <trkpt lat="43.13221" lon="3.07594">
        <ele>111.477</ele>
        <time>2021-09-25T08:39:26Z</time>
      </trkpt>
      <trkpt lat="43.1322" lon="3.07596">
        <ele>111.003</ele>
        <time>2021-09-25T08:39:28Z</time>
      </trkpt>
      <trkpt lat="43.13219" lon="3.07597">
        <ele>110.946</ele>
        <time>2021-09-25T08:39:30Z</time>
      </trkpt>
      <trkpt lat="43.13217" lon="3.07598">
        <ele>110.105</ele>
        <time>2021-09-25T08:39:32Z</time>
      </trkpt>
      <trkpt lat="43.13217" lon="3.07601">
        <ele>109.974</ele>
        <time>2021-09-25T08:39:34Z</time>
      </trkpt>
      <trkpt lat="43.13219" lon="3.07602">
        <ele>110.046</ele>
        <time>2021-09-25T08:39:36Z</time>
      </trkpt>
      <trkpt lat="43.13219" lon="3.07604">
        <ele>110.559</ele>
        <time>2021-09-25T08:39:38Z</time>
      </trkpt>
      <trkpt lat="43.1322" lon="3.07606">
        <ele>110.486</ele>
        <time>2021-09-25T08:39:40Z</time>
      </trkpt>
      <trkpt lat="43.13221" lon="3.07608">
        <ele>110.658</ele>
        <time>2021-09-25T08:39:42Z</time>
      </trkpt>
      <trkpt lat="43.13221" lon="3.07609">
        <ele>109.411</ele>
        <time>2021-09-25T08:39:44Z</time>
      </trkpt>
      <trkpt lat="43.13221" lon="3.07611">
        <ele>109.472</ele>
        <time>2021-09-25T08:39:46Z</time>
      </trkpt>
      <trkpt lat="43.1322" lon="3.07611">
        <ele>109.647</ele>
        <time>2021-09-25T08:39:48Z</time>
      </trkpt>
      <trkpt lat="43.13219" lon="3.07612">
        <ele>110.184</ele>
        <time>2021-09-25T08:39:50Z</time>
      </trkpt>
      <trkpt lat="43.13218" lon="3.07614">
        <ele>109.043</ele>
        <time>2021-09-25T08:39:52Z</time>
      </trkpt>
      <trkpt lat="43.13218" lon="3.07616">
        <ele>109.207</ele>
        <time>2021-09-25T08:39:54Z</time>
      </trkpt>
      <trkpt lat="43.13219" lon="3.07617">
        <ele>109.361</ele>
        <time>2021-09-25T08:39:56Z</time>
      </trkpt>
      <trkpt lat="43.13219" lon="3.07617">
        <ele>109.371</ele>
        <time>2021-09-25T08:39:58Z</time>
      </trkpt>
      <trkpt lat="43.13219" lon="3.07617">
        <ele>109.379</ele>
        <time>2021-09-25T08:40:00Z</time>
      </trkpt>
      <trkpt lat="43.1322" lon="3.07617">
        <ele>109.404</ele>
        <time>2021-09-25T08:40:02Z</time>
      </trkpt>
      <trkpt lat="43.13219" lon="3.07617">
        <ele>109.496</ele>
        <time>2021-09-25T08:40:04Z</time>
      </trkpt>
      <trkpt lat="43.13219" lon="3.07619">
        <ele>110.402</ele>
        <time>2021-09-25T08:40:06Z</time>
      </trkpt>
      <trkpt lat="43.1322" lon="3.07621">
        <ele>109.97</ele>
        <time>2021-09-25T08:40:08Z</time>
      </trkpt>
      <trkpt lat="43.13222" lon="3.07621">
        <ele>111.172</ele>
        <time>2021-09-25T08:40:10Z</time>
      </trkpt>
      <trkpt lat="43.13223" lon="3.07623">
        <ele>110.587</ele>
        <time>2021-09-25T08:40:12Z</time>
      </trkpt>
      <trkpt lat="43.13223" lon="3.07624">
        <ele>111.652</ele>
        <time>2021-09-25T08:40:14Z</time>
      </trkpt>
      <trkpt lat="43.13223" lon="3.07626">
        <ele>113.927</ele>
        <time>2021-09-25T08:40:16Z</time>
      </trkpt>
      <trkpt lat="43.13224" lon="3.07627">
        <ele>114.615</ele>
        <time>2021-09-25T08:40:18Z</time>
      </trkpt>
      <trkpt lat="43.13224" lon="3.07629">
        <ele>115.334</ele>
        <time>2021-09-25T08:40:20Z</time>
      </trkpt>
      <trkpt lat="43.13224" lon="3.07631">
        <ele>115.753</ele>
        <time>2021-09-25T08:40:22Z</time>
      </trkpt>
      <trkpt lat="43.13224" lon="3.07633">
        <ele>114.945</ele>
        <time>2021-09-25T08:40:24Z</time>
      </trkpt>
      <trkpt lat="43.13224" lon="3.07634">
        <ele>115.085</ele>
        <time>2021-09-25T08:40:26Z</time>
      </trkpt>
      <trkpt lat="43.13225" lon="3.07637">
        <ele>114.535</ele>
        <time>2021-09-25T08:40:28Z</time>
      </trkpt>
      <trkpt lat="43.13224" lon="3.07637">
        <ele>114.38</ele>
        <time>2021-09-25T08:40:30Z</time>
      </trkpt>
      <trkpt lat="43.13224" lon="3.07638">
        <ele>114.387</ele>
        <time>2021-09-25T08:40:32Z</time>
      </trkpt>
      <trkpt lat="43.13224" lon="3.07638">
        <ele>115.028</ele>
        <time>2021-09-25T08:40:34Z</time>
      </trkpt>
      <trkpt lat="43.13224" lon="3.0764">
        <ele>115.267</ele>
        <time>2021-09-25T08:40:36Z</time>
      </trkpt>
      <trkpt lat="43.13225" lon="3.07641">
        <ele>115.781</ele>
        <time>2021-09-25T08:40:38Z</time>
      </trkpt>
      <trkpt lat="43.13226" lon="3.07642">
        <ele>116.1</ele>
        <time>2021-09-25T08:40:40Z</time>
      </trkpt>
      <trkpt lat="43.13226" lon="3.07642">
        <ele>115.35</ele>
        <time>2021-09-25T08:40:42Z</time>
      </trkpt>
      <trkpt lat="43.13226" lon="3.07643">
        <ele>115.498</ele>
        <time>2021-09-25T08:40:44Z</time>
      </trkpt>
      <trkpt lat="43.13226" lon="3.07645">
        <ele>116.068</ele>
        <time>2021-09-25T08:40:46Z</time>
      </trkpt>
      <trkpt lat="43.13226" lon="3.07647">
        <ele>117.736</ele>
        <time>2021-09-25T08:40:48Z</time>
      </trkpt>
      <trkpt lat="43.13227" lon="3.07649">
        <ele>117.503</ele>
        <time>2021-09-25T08:40:50Z</time>
      </trkpt>
      <trkpt lat="43.13227" lon="3.0765">
        <ele>118.091</ele>
        <time>2021-09-25T08:40:52Z</time>
      </trkpt>
      <trkpt lat="43.13227" lon="3.07652">
        <ele>117.966</ele>
        <time>2021-09-25T08:40:54Z</time>
      </trkpt>
      <trkpt lat="43.13226" lon="3.07653">
        <ele>119.002</ele>
        <time>2021-09-25T08:40:56Z</time>
      </trkpt>
      <trkpt lat="43.13226" lon="3.07654">
        <ele>119.664</ele>
        <time>2021-09-25T08:40:58Z</time>
      </trkpt>
      <trkpt lat="43.13225" lon="3.07656">
        <ele>120.837</ele>
        <time>2021-09-25T08:41:00Z</time>
      </trkpt>
      <trkpt lat="43.13227" lon="3.07656">
        <ele>118.951</ele>
        <time>2021-09-25T08:41:02Z</time>
      </trkpt>
      <trkpt lat="43.13227" lon="3.07657">
        <ele>118.895</ele>
        <time>2021-09-25T08:41:04Z</time>
      </trkpt>
      <trkpt lat="43.13227" lon="3.07659">
        <ele>118.716</ele>
        <time>2021-09-25T08:41:06Z</time>
      </trkpt>
      <trkpt lat="43.13227" lon="3.07661">
        <ele>118.291</ele>
        <time>2021-09-25T08:41:08Z</time>
      </trkpt>
      <trkpt lat="43.13226" lon="3.07663">
        <ele>118.983</ele>
        <time>2021-09-25T08:41:10Z</time>
      </trkpt>
      <trkpt lat="43.13226" lon="3.07665">
        <ele>119.568</ele>
        <time>2021-09-25T08:41:12Z</time>
      </trkpt>
      <trkpt lat="43.13225" lon="3.07666">
        <ele>119.805</ele>
        <time>2021-09-25T08:41:14Z</time>
      </trkpt>
      <trkpt lat="43.13224" lon="3.07668">
        <ele>121.64</ele>
        <time>2021-09-25T08:41:16Z</time>
      </trkpt>
      <trkpt lat="43.13223" lon="3.07669">
        <ele>121.188</ele>
        <time>2021-09-25T08:41:18Z</time>
      </trkpt>
      <trkpt lat="43.13222" lon="3.07671">
        <ele>119.918</ele>
        <time>2021-09-25T08:41:20Z</time>
      </trkpt>
      <trkpt lat="43.13221" lon="3.07672">
        <ele>120.468</ele>
        <time>2021-09-25T08:41:22Z</time>
      </trkpt>
      <trkpt lat="43.13221" lon="3.07671">
        <ele>117.767</ele>
        <time>2021-09-25T08:41:24Z</time>
      </trkpt>
      <trkpt lat="43.13221" lon="3.07672">
        <ele>118.097</ele>
        <time>2021-09-25T08:41:26Z</time>
      </trkpt>
      <trkpt lat="43.1322" lon="3.07674">
        <ele>118.331</ele>
        <time>2021-09-25T08:41:28Z</time>
      </trkpt>
      <trkpt lat="43.13219" lon="3.07674">
        <ele>117.428</ele>
        <time>2021-09-25T08:41:30Z</time>
      </trkpt>
      <trkpt lat="43.13218" lon="3.07676">
        <ele>117.25</ele>
        <time>2021-09-25T08:41:32Z</time>
      </trkpt>
      <trkpt lat="43.13218" lon="3.07678">
        <ele>117.437</ele>
        <time>2021-09-25T08:41:34Z</time>
      </trkpt>
      <trkpt lat="43.13218" lon="3.07679">
        <ele>117.273</ele>
        <time>2021-09-25T08:41:36Z</time>
      </trkpt>
      <trkpt lat="43.13218" lon="3.07681">
        <ele>117.492</ele>
        <time>2021-09-25T08:41:38Z</time>
      </trkpt>
      <trkpt lat="43.13218" lon="3.07683">
        <ele>118.242</ele>
        <time>2021-09-25T08:41:40Z</time>
      </trkpt>
      <trkpt lat="43.13219" lon="3.07684">
        <ele>118.6</ele>
        <time>2021-09-25T08:41:42Z</time>
      </trkpt>
      <trkpt lat="43.1322" lon="3.07683">
        <ele>115.577</ele>
        <time>2021-09-25T08:41:44Z</time>
      </trkpt>
      <trkpt lat="43.13221" lon="3.07683">
        <ele>115.248</ele>
        <time>2021-09-25T08:41:46Z</time>
      </trkpt>
      <trkpt lat="43.13221" lon="3.07684">
        <ele>115.319</ele>
        <time>2021-09-25T08:41:48Z</time>
      </trkpt>
      <trkpt lat="43.1322" lon="3.07685">
        <ele>115.103</ele>
        <time>2021-09-25T08:41:50Z</time>
      </trkpt>
      <trkpt lat="43.1322" lon="3.07687">
        <ele>115.698</ele>
        <time>2021-09-25T08:41:52Z</time>
      </trkpt>
      <trkpt lat="43.1322" lon="3.07687">
        <ele>116.484</ele>
        <time>2021-09-25T08:41:54Z</time>
      </trkpt>
      <trkpt lat="43.1322" lon="3.07687">
        <ele>116.5</ele>
        <time>2021-09-25T08:41:56Z</time>
      </trkpt>
      <trkpt lat="43.1322" lon="3.07687">
        <ele>116.51</ele>
        <time>2021-09-25T08:41:58Z</time>
      </trkpt>
      <trkpt lat="43.1322" lon="3.07687">
        <ele>116.524</ele>
        <time>2021-09-25T08:42:00Z</time>
      </trkpt>
      <trkpt lat="43.1322" lon="3.07687">
        <ele>116.537</ele>
        <time>2021-09-25T08:42:02Z</time>
      </trkpt>
      <trkpt lat="43.1322" lon="3.07687">
        <ele>116.542</ele>
        <time>2021-09-25T08:42:04Z</time>
      </trkpt>
      <trkpt lat="43.1322" lon="3.07687">
        <ele>116.552</ele>
        <time>2021-09-25T08:42:06Z</time>
      </trkpt>
      <trkpt lat="43.1322" lon="3.07687">
        <ele>116.565</ele>
        <time>2021-09-25T08:42:08Z</time>
      </trkpt>
      <trkpt lat="43.13219" lon="3.07688">
        <ele>116.892</ele>
        <time>2021-09-25T08:42:10Z</time>
      </trkpt>
      <trkpt lat="43.1322" lon="3.0769">
        <ele>116.438</ele>
        <time>2021-09-25T08:42:12Z</time>
      </trkpt>
      <trkpt lat="43.1322" lon="3.07691">
        <ele>117.829</ele>
        <time>2021-09-25T08:42:14Z</time>
      </trkpt>
      <trkpt lat="43.1322" lon="3.07692">
        <ele>118.19</ele>
        <time>2021-09-25T08:42:16Z</time>
      </trkpt>
      <trkpt lat="43.1322" lon="3.07693">
        <ele>118.775</ele>
        <time>2021-09-25T08:42:18Z</time>
      </trkpt>
      <trkpt lat="43.1322" lon="3.07694">
        <ele>120.053</ele>
        <time>2021-09-25T08:42:20Z</time>
      </trkpt>
      <trkpt lat="43.1322" lon="3.07695">
        <ele>121.193</ele>
        <time>2021-09-25T08:42:22Z</time>
      </trkpt>
      <trkpt lat="43.1322" lon="3.07696">
        <ele>122.153</ele>
        <time>2021-09-25T08:42:24Z</time>
      </trkpt>
      <trkpt lat="43.1322" lon="3.07697">
        <ele>123.079</ele>
        <time>2021-09-25T08:42:26Z</time>
      </trkpt>
      <trkpt lat="43.13219" lon="3.07697">
        <ele>121.706</ele>
        <time>2021-09-25T08:42:28Z</time>
      </trkpt>
      <trkpt lat="43.13219" lon="3.07696">
        <ele>121.801</ele>
        <time>2021-09-25T08:42:30Z</time>
      </trkpt>
      <trkpt lat="43.13219" lon="3.07697">
        <ele>122.27</ele>
        <time>2021-09-25T08:42:32Z</time>
      </trkpt>
      <trkpt lat="43.13219" lon="3.07698">
        <ele>122.304</ele>
        <time>2021-09-25T08:42:34Z</time>
      </trkpt>
      <trkpt lat="43.13218" lon="3.07699">
        <ele>122.861</ele>
        <time>2021-09-25T08:42:36Z</time>
      </trkpt>
      <trkpt lat="43.1322" lon="3.07699">
        <ele>123.929</ele>
        <time>2021-09-25T08:42:38Z</time>
      </trkpt>
      <trkpt lat="43.1322" lon="3.07699">
        <ele>123.926</ele>
        <time>2021-09-25T08:42:40Z</time>
      </trkpt>
      <trkpt lat="43.1322" lon="3.07699">
        <ele>123.926</ele>
        <time>2021-09-25T08:42:42Z</time>
      </trkpt>
      <trkpt lat="43.1322" lon="3.07699">
        <ele>123.936</ele>
        <time>2021-09-25T08:42:44Z</time>
      </trkpt>
      <trkpt lat="43.1322" lon="3.07699">
        <ele>123.936</ele>
        <time>2021-09-25T08:42:46Z</time>
      </trkpt>
      <trkpt lat="43.1322" lon="3.07699">
        <ele>123.954</ele>
        <time>2021-09-25T08:42:48Z</time>
      </trkpt>
      <trkpt lat="43.1322" lon="3.07699">
        <ele>123.956</ele>
        <time>2021-09-25T08:42:50Z</time>
      </trkpt>
      <trkpt lat="43.1322" lon="3.07699">
        <ele>123.961</ele>
        <time>2021-09-25T08:42:52Z</time>
      </trkpt>
      <trkpt lat="43.1322" lon="3.07699">
        <ele>123.974</ele>
        <time>2021-09-25T08:42:54Z</time>
      </trkpt>
      <trkpt lat="43.1322" lon="3.07699">
        <ele>123.522</ele>
        <time>2021-09-25T08:42:56Z</time>
      </trkpt>
      <trkpt lat="43.1322" lon="3.07701">
        <ele>122.719</ele>
        <time>2021-09-25T08:42:58Z</time>
      </trkpt>
      <trkpt lat="43.13221" lon="3.07702">
        <ele>123.682</ele>
        <time>2021-09-25T08:43:00Z</time>
      </trkpt>
      <trkpt lat="43.13221" lon="3.07703">
        <ele>122.485</ele>
        <time>2021-09-25T08:43:02Z</time>
      </trkpt>
      <trkpt lat="43.13221" lon="3.07705">
        <ele>123.183</ele>
        <time>2021-09-25T08:43:04Z</time>
      </trkpt>
      <trkpt lat="43.13221" lon="3.07707">
        <ele>123.717</ele>
        <time>2021-09-25T08:43:06Z</time>
      </trkpt>
      <trkpt lat="43.1322" lon="3.07709">
        <ele>124.07</ele>
        <time>2021-09-25T08:43:08Z</time>
      </trkpt>
      <trkpt lat="43.13221" lon="3.07711">
        <ele>124.132</ele>
        <time>2021-09-25T08:43:10Z</time>
      </trkpt>
      <trkpt lat="43.13222" lon="3.07712">
        <ele>123.935</ele>
        <time>2021-09-25T08:43:12Z</time>
      </trkpt>
      <trkpt lat="43.13222" lon="3.07714">
        <ele>125.45</ele>
        <time>2021-09-25T08:43:14Z</time>
      </trkpt>
      <trkpt lat="43.13222" lon="3.07715">
        <ele>125.587</ele>
        <time>2021-09-25T08:43:16Z</time>
      </trkpt>
      <trkpt lat="43.13222" lon="3.07716">
        <ele>125.362</ele>
        <time>2021-09-25T08:43:18Z</time>
      </trkpt>
      <trkpt lat="43.13222" lon="3.07718">
        <ele>126.126</ele>
        <time>2021-09-25T08:43:20Z</time>
      </trkpt>
      <trkpt lat="43.13223" lon="3.07718">
        <ele>126.233</ele>
        <time>2021-09-25T08:43:22Z</time>
      </trkpt>
      <trkpt lat="43.13224" lon="3.07719">
        <ele>127.122</ele>
        <time>2021-09-25T08:43:24Z</time>
      </trkpt>
      <trkpt lat="43.13224" lon="3.0772">
        <ele>128.073</ele>
        <time>2021-09-25T08:43:26Z</time>
      </trkpt>
      <trkpt lat="43.13225" lon="3.07721">
        <ele>130.225</ele>
        <time>2021-09-25T08:43:28Z</time>
      </trkpt>
      <trkpt lat="43.13225" lon="3.07722">
        <ele>129.892</ele>
        <time>2021-09-25T08:43:30Z</time>
      </trkpt>
      <trkpt lat="43.13225" lon="3.07724">
        <ele>130.718</ele>
        <time>2021-09-25T08:43:32Z</time>
      </trkpt>
      <trkpt lat="43.13225" lon="3.07726">
        <ele>132.321</ele>
        <time>2021-09-25T08:43:34Z</time>
      </trkpt>
      <trkpt lat="43.13225" lon="3.07728">
        <ele>132.962</ele>
        <time>2021-09-25T08:43:36Z</time>
      </trkpt>
      <trkpt lat="43.13224" lon="3.07729">
        <ele>133.706</ele>
        <time>2021-09-25T08:43:38Z</time>
      </trkpt>
      <trkpt lat="43.13224" lon="3.07729">
        <ele>134.019</ele>
        <time>2021-09-25T08:43:40Z</time>
      </trkpt>
      <trkpt lat="43.13224" lon="3.0773">
        <ele>133.432</ele>
        <time>2021-09-25T08:43:42Z</time>
      </trkpt>
      <trkpt lat="43.13223" lon="3.07732">
        <ele>132.796</ele>
        <time>2021-09-25T08:43:44Z</time>
      </trkpt>
      <trkpt lat="43.13223" lon="3.07733">
        <ele>133.741</ele>
        <time>2021-09-25T08:43:46Z</time>
      </trkpt>
      <trkpt lat="43.13222" lon="3.07735">
        <ele>132.413</ele>
        <time>2021-09-25T08:43:48Z</time>
      </trkpt>
      <trkpt lat="43.13221" lon="3.07737">
        <ele>132.089</ele>
        <time>2021-09-25T08:43:50Z</time>
      </trkpt>
      <trkpt lat="43.13222" lon="3.07738">
        <ele>133.447</ele>
        <time>2021-09-25T08:43:52Z</time>
      </trkpt>
      <trkpt lat="43.13222" lon="3.07737">
        <ele>133.983</ele>
        <time>2021-09-25T08:43:54Z</time>
      </trkpt>
      <trkpt lat="43.13222" lon="3.07739">
        <ele>132.169</ele>
        <time>2021-09-25T08:43:56Z</time>
      </trkpt>
      <trkpt lat="43.13222" lon="3.07738">
        <ele>133.308</ele>
        <time>2021-09-25T08:43:58Z</time>
      </trkpt>
      <trkpt lat="43.13221" lon="3.07739">
        <ele>133.291</ele>
        <time>2021-09-25T08:44:00Z</time>
      </trkpt>
      <trkpt lat="43.13221" lon="3.0774">
        <ele>133.17</ele>
        <time>2021-09-25T08:44:02Z</time>
      </trkpt>
      <trkpt lat="43.1322" lon="3.0774">
        <ele>132.824</ele>
        <time>2021-09-25T08:44:04Z</time>
      </trkpt>
      <trkpt lat="43.1322" lon="3.07741">
        <ele>132.765</ele>
        <time>2021-09-25T08:44:06Z</time>
      </trkpt>
      <trkpt lat="43.1322" lon="3.07741">
        <ele>133.355</ele>
        <time>2021-09-25T08:44:08Z</time>
      </trkpt>
      <trkpt lat="43.1322" lon="3.07741">
        <ele>134.373</ele>
        <time>2021-09-25T08:44:10Z</time>
      </trkpt>
      <trkpt lat="43.13219" lon="3.07741">
        <ele>135.454</ele>
        <time>2021-09-25T08:44:12Z</time>
      </trkpt>
      <trkpt lat="43.13219" lon="3.07741">
        <ele>135.461</ele>
        <time>2021-09-25T08:44:14Z</time>
      </trkpt>
      <trkpt lat="43.13219" lon="3.07741">
        <ele>135.466</ele>
        <time>2021-09-25T08:44:16Z</time>
      </trkpt>
      <trkpt lat="43.1322" lon="3.07742">
        <ele>135.832</ele>
        <time>2021-09-25T08:44:18Z</time>
      </trkpt>
      <trkpt lat="43.1322" lon="3.07741">
        <ele>135.835</ele>
        <time>2021-09-25T08:44:20Z</time>
      </trkpt>
      <trkpt lat="43.1322" lon="3.07741">
        <ele>135.639</ele>
        <time>2021-09-25T08:44:22Z</time>
      </trkpt>
      <trkpt lat="43.1322" lon="3.07741">
        <ele>135.746</ele>
        <time>2021-09-25T08:44:24Z</time>
      </trkpt>
      <trkpt lat="43.1322" lon="3.07741">
        <ele>135.737</ele>
        <time>2021-09-25T08:44:26Z</time>
      </trkpt>
      <trkpt lat="43.1322" lon="3.07741">
        <ele>135.741</ele>
        <time>2021-09-25T08:44:28Z</time>
      </trkpt>
      <trkpt lat="43.1322" lon="3.07741">
        <ele>135.433</ele>
        <time>2021-09-25T08:44:30Z</time>
      </trkpt>
      <trkpt lat="43.13219" lon="3.07741">
        <ele>134.511</ele>
        <time>2021-09-25T08:44:32Z</time>
      </trkpt>
      <trkpt lat="43.13218" lon="3.07741">
        <ele>134.38</ele>
        <time>2021-09-25T08:44:34Z</time>
      </trkpt>
      <trkpt lat="43.13218" lon="3.07742">
        <ele>134.748</ele>
        <time>2021-09-25T08:44:36Z</time>
      </trkpt>
      <trkpt lat="43.13218" lon="3.07743">
        <ele>135.881</ele>
        <time>2021-09-25T08:44:38Z</time>
      </trkpt>
      <trkpt lat="43.13218" lon="3.07743">
        <ele>137.704</ele>
        <time>2021-09-25T08:44:40Z</time>
      </trkpt>
      <trkpt lat="43.13217" lon="3.07744">
        <ele>137.89</ele>
        <time>2021-09-25T08:44:42Z</time>
      </trkpt>
      <trkpt lat="43.13218" lon="3.07744">
        <ele>138.071</ele>
        <time>2021-09-25T08:44:44Z</time>
      </trkpt>
      <trkpt lat="43.13218" lon="3.07744">
        <ele>138.012</ele>
        <time>2021-09-25T08:44:46Z</time>
      </trkpt>
      <trkpt lat="43.13218" lon="3.07743">
        <ele>138.285</ele>
        <time>2021-09-25T08:44:49Z</time>
      </trkpt>
      <trkpt lat="43.13219" lon="3.07743">
        <ele>138.28</ele>
        <time>2021-09-25T08:44:51Z</time>
      </trkpt>
      <trkpt lat="43.13218" lon="3.07743">
        <ele>138.501</ele>
        <time>2021-09-25T08:44:53Z</time>
      </trkpt>
      <trkpt lat="43.13218" lon="3.07743">
        <ele>139.039</ele>
        <time>2021-09-25T08:44:56Z</time>
      </trkpt>
      <trkpt lat="43.13219" lon="3.07745">
        <ele>139.723</ele>
        <time>2021-09-25T08:44:58Z</time>
      </trkpt>
      <trkpt lat="43.13219" lon="3.07746">
        <ele>139.799</ele>
        <time>2021-09-25T08:45:00Z</time>
      </trkpt>
      <trkpt lat="43.13219" lon="3.07747">
        <ele>138.045</ele>
        <time>2021-09-25T08:45:02Z</time>
      </trkpt>
      <trkpt lat="43.13219" lon="3.07747">
        <ele>138.044</ele>
        <time>2021-09-25T08:45:04Z</time>
      </trkpt>
      <trkpt lat="43.13219" lon="3.07748">
        <ele>138.666</ele>
        <time>2021-09-25T08:45:06Z</time>
      </trkpt>
      <trkpt lat="43.1322" lon="3.07748">
        <ele>139.032</ele>
        <time>2021-09-25T08:45:08Z</time>
      </trkpt>
      <trkpt lat="43.1322" lon="3.07747">
        <ele>140.419</ele>
        <time>2021-09-25T08:45:10Z</time>
      </trkpt>
      <trkpt lat="43.1322" lon="3.07747">
        <ele>139.98</ele>
        <time>2021-09-25T08:45:12Z</time>
      </trkpt>
      <trkpt lat="43.1322" lon="3.07746">
        <ele>140.407</ele>
        <time>2021-09-25T08:45:14Z</time>
      </trkpt>
      <trkpt lat="43.1322" lon="3.07746">
        <ele>140.419</ele>
        <time>2021-09-25T08:45:16Z</time>
      </trkpt>
      <trkpt lat="43.1322" lon="3.07746">
        <ele>140.668</ele>
        <time>2021-09-25T08:45:18Z</time>
      </trkpt>
      <trkpt lat="43.1322" lon="3.07745">
        <ele>140.671</ele>
        <time>2021-09-25T08:45:20Z</time>
      </trkpt>
      <trkpt lat="43.1322" lon="3.07746">
        <ele>141.541</ele>
        <time>2021-09-25T08:45:23Z</time>
      </trkpt>
      <trkpt lat="43.13221" lon="3.07745">
        <ele>143.944</ele>
        <time>2021-09-25T08:45:25Z</time>
      </trkpt>
      <trkpt lat="43.13221" lon="3.07744">
        <ele>144.037</ele>
        <time>2021-09-25T08:45:27Z</time>
      </trkpt>
      <trkpt lat="43.13221" lon="3.07744">
        <ele>142.947</ele>
        <time>2021-09-25T08:45:29Z</time>
      </trkpt>
      <trkpt lat="43.13221" lon="3.07744">
        <ele>143.483</ele>
        <time>2021-09-25T08:45:31Z</time>
      </trkpt>
      <trkpt lat="43.13221" lon="3.07744">
        <ele>144.751</ele>
        <time>2021-09-25T08:45:33Z</time>
      </trkpt>
      <trkpt lat="43.13222" lon="3.07743">
        <ele>145.911</ele>
        <time>2021-09-25T08:45:35Z</time>
      </trkpt>
      <trkpt lat="43.13223" lon="3.07741">
        <ele>146.422</ele>
        <time>2021-09-25T08:45:37Z</time>
      </trkpt>
      <trkpt lat="43.13223" lon="3.0774">
        <ele>146.425</ele>
        <time>2021-09-25T08:45:39Z</time>
      </trkpt>
      <trkpt lat="43.13223" lon="3.0774">
        <ele>146.432</ele>
        <time>2021-09-25T08:45:41Z</time>
      </trkpt>
      <trkpt lat="43.13224" lon="3.0774">
        <ele>146.518</ele>
        <time>2021-09-25T08:45:43Z</time>
      </trkpt>
      <trkpt lat="43.13225" lon="3.0774">
        <ele>146.314</ele>
        <time>2021-09-25T08:45:45Z</time>
      </trkpt>
      <trkpt lat="43.13225" lon="3.07741">
        <ele>146.07</ele>
        <time>2021-09-25T08:45:47Z</time>
      </trkpt>
      <trkpt lat="43.13225" lon="3.07741">
        <ele>146.326</ele>
        <time>2021-09-25T08:45:49Z</time>
      </trkpt>
      <trkpt lat="43.13225" lon="3.07742">
        <ele>146.108</ele>
        <time>2021-09-25T08:45:51Z</time>
      </trkpt>
      <trkpt lat="43.13225" lon="3.07743">
        <ele>145.861</ele>
        <time>2021-09-25T08:45:53Z</time>
      </trkpt>
      <trkpt lat="43.13226" lon="3.07743">
        <ele>147.008</ele>
        <time>2021-09-25T08:45:55Z</time>
      </trkpt>
      <trkpt lat="43.13226" lon="3.07744">
        <ele>148.141</ele>
        <time>2021-09-25T08:45:57Z</time>
      </trkpt>
      <trkpt lat="43.13226" lon="3.07744">
        <ele>147.976</ele>
        <time>2021-09-25T08:45:59Z</time>
      </trkpt>
      <trkpt lat="43.13226" lon="3.07744">
        <ele>148.031</ele>
        <time>2021-09-25T08:46:01Z</time>
      </trkpt>
      <trkpt lat="43.13227" lon="3.07745">
        <ele>148.407</ele>
        <time>2021-09-25T08:46:03Z</time>
      </trkpt>
      <trkpt lat="43.13227" lon="3.07746">
        <ele>150.575</ele>
        <time>2021-09-25T08:46:05Z</time>
      </trkpt>
      <trkpt lat="43.13227" lon="3.07747">
        <ele>151.619</ele>
        <time>2021-09-25T08:46:07Z</time>
      </trkpt>
      <trkpt lat="43.13227" lon="3.07747">
        <ele>151.777</ele>
        <time>2021-09-25T08:46:09Z</time>
      </trkpt>
      <trkpt lat="43.13227" lon="3.07747">
        <ele>150.776</ele>
        <time>2021-09-25T08:46:11Z</time>
      </trkpt>
      <trkpt lat="43.13227" lon="3.07748">
        <ele>150.79</ele>
        <time>2021-09-25T08:46:13Z</time>
      </trkpt>
      <trkpt lat="43.13227" lon="3.07748">
        <ele>150.787</ele>
        <time>2021-09-25T08:46:15Z</time>
      </trkpt>
      <trkpt lat="43.13227" lon="3.07748">
        <ele>150.773</ele>
        <time>2021-09-25T08:46:17Z</time>
      </trkpt>
      <trkpt lat="43.13227" lon="3.07748">
        <ele>150.772</ele>
        <time>2021-09-25T08:46:19Z</time>
      </trkpt>
      <trkpt lat="43.13228" lon="3.07747">
        <ele>150.789</ele>
        <time>2021-09-25T08:46:21Z</time>
      </trkpt>
      <trkpt lat="43.13228" lon="3.07747">
        <ele>151.204</ele>
        <time>2021-09-25T08:46:23Z</time>
      </trkpt>
      <trkpt lat="43.13228" lon="3.07747">
        <ele>151.186</ele>
        <time>2021-09-25T08:46:25Z</time>
      </trkpt>
      <trkpt lat="43.13228" lon="3.07747">
        <ele>151.19</ele>
        <time>2021-09-25T08:46:27Z</time>
      </trkpt>
      <trkpt lat="43.13228" lon="3.07747">
        <ele>151.206</ele>
        <time>2021-09-25T08:46:29Z</time>
      </trkpt>
      <trkpt lat="43.13228" lon="3.07747">
        <ele>151.205</ele>
        <time>2021-09-25T08:46:31Z</time>
      </trkpt>
      <trkpt lat="43.13228" lon="3.07747">
        <ele>151.202</ele>
        <time>2021-09-25T08:46:33Z</time>
      </trkpt>
      <trkpt lat="43.13228" lon="3.07747">
        <ele>150.34</ele>
        <time>2021-09-25T08:46:35Z</time>
      </trkpt>
      <trkpt lat="43.13228" lon="3.07747">
        <ele>150.33</ele>
        <time>2021-09-25T08:46:37Z</time>
      </trkpt>
      <trkpt lat="43.13228" lon="3.07747">
        <ele>150.318</ele>
        <time>2021-09-25T08:46:39Z</time>
      </trkpt>
      <trkpt lat="43.13228" lon="3.07747">
        <ele>150.322</ele>
        <time>2021-09-25T08:46:41Z</time>
      </trkpt>
      <trkpt lat="43.13228" lon="3.07747">
        <ele>149.921</ele>
        <time>2021-09-25T08:46:43Z</time>
      </trkpt>
      <trkpt lat="43.13228" lon="3.07747">
        <ele>149.917</ele>
        <time>2021-09-25T08:46:45Z</time>
      </trkpt>
      <trkpt lat="43.13228" lon="3.07747">
        <ele>150.192</ele>
        <time>2021-09-25T08:46:47Z</time>
      </trkpt>
      <trkpt lat="43.13229" lon="3.07748">
        <ele>150.873</ele>
        <time>2021-09-25T08:46:49Z</time>
      </trkpt>
      <trkpt lat="43.13228" lon="3.07749">
        <ele>151.586</ele>
        <time>2021-09-25T08:46:51Z</time>
      </trkpt>
      <trkpt lat="43.13229" lon="3.07749">
        <ele>152.43</ele>
        <time>2021-09-25T08:46:53Z</time>
      </trkpt>
      <trkpt lat="43.13229" lon="3.07751">
        <ele>152.235</ele>
        <time>2021-09-25T08:46:55Z</time>
      </trkpt>
      <trkpt lat="43.13228" lon="3.07752">
        <ele>152.821</ele>
        <time>2021-09-25T08:46:57Z</time>
      </trkpt>
      <trkpt lat="43.13228" lon="3.07753">
        <ele>153.46</ele>
        <time>2021-09-25T08:46:59Z</time>
      </trkpt>
      <trkpt lat="43.13228" lon="3.07755">
        <ele>153.7</ele>
        <time>2021-09-25T08:47:01Z</time>
      </trkpt>
      <trkpt lat="43.13228" lon="3.07756">
        <ele>154.616</ele>
        <time>2021-09-25T08:47:03Z</time>
      </trkpt>
      <trkpt lat="43.13229" lon="3.07757">
        <ele>154.566</ele>
        <time>2021-09-25T08:47:05Z</time>
      </trkpt>
      <trkpt lat="43.13228" lon="3.07759">
        <ele>154.642</ele>
        <time>2021-09-25T08:47:07Z</time>
      </trkpt>
      <trkpt lat="43.13228" lon="3.0776">
        <ele>154.524</ele>
        <time>2021-09-25T08:47:09Z</time>
      </trkpt>
      <trkpt lat="43.13228" lon="3.07761">
        <ele>154.71</ele>
        <time>2021-09-25T08:47:11Z</time>
      </trkpt>
      <trkpt lat="43.13228" lon="3.07762">
        <ele>155.404</ele>
        <time>2021-09-25T08:47:13Z</time>
      </trkpt>
      <trkpt lat="43.13228" lon="3.07761">
        <ele>155.33</ele>
        <time>2021-09-25T08:47:15Z</time>
      </trkpt>
      <trkpt lat="43.13227" lon="3.07761">
        <ele>155.356</ele>
        <time>2021-09-25T08:47:17Z</time>
      </trkpt>
      <trkpt lat="43.13227" lon="3.07761">
        <ele>155.36</ele>
        <time>2021-09-25T08:47:19Z</time>
      </trkpt>
      <trkpt lat="43.13227" lon="3.07761">
        <ele>155.358</ele>
        <time>2021-09-25T08:47:21Z</time>
      </trkpt>
      <trkpt lat="43.13227" lon="3.07762">
        <ele>154.898</ele>
        <time>2021-09-25T08:47:23Z</time>
      </trkpt>
      <trkpt lat="43.13227" lon="3.07763">
        <ele>154.874</ele>
        <time>2021-09-25T08:47:25Z</time>
      </trkpt>
      <trkpt lat="43.13228" lon="3.07763">
        <ele>154.478</ele>
        <time>2021-09-25T08:47:27Z</time>
      </trkpt>
      <trkpt lat="43.13228" lon="3.07763">
        <ele>154.475</ele>
        <time>2021-09-25T08:47:29Z</time>
      </trkpt>
      <trkpt lat="43.13228" lon="3.07762">
        <ele>154.288</ele>
        <time>2021-09-25T08:47:31Z</time>
      </trkpt>
      <trkpt lat="43.13226" lon="3.07763">
        <ele>154.413</ele>
        <time>2021-09-25T08:47:33Z</time>
      </trkpt>
      <trkpt lat="43.13225" lon="3.07765">
        <ele>153.863</ele>
        <time>2021-09-25T08:47:35Z</time>
      </trkpt>
      <trkpt lat="43.13225" lon="3.07767">
        <ele>152.989</ele>
        <time>2021-09-25T08:47:37Z</time>
      </trkpt>
      <trkpt lat="43.13225" lon="3.07768">
        <ele>152.941</ele>
        <time>2021-09-25T08:47:39Z</time>
      </trkpt>
      <trkpt lat="43.13226" lon="3.07769">
        <ele>152.6</ele>
        <time>2021-09-25T08:47:41Z</time>
      </trkpt>
      <trkpt lat="43.13226" lon="3.07769">
        <ele>152.598</ele>
        <time>2021-09-25T08:47:43Z</time>
      </trkpt>
      <trkpt lat="43.13226" lon="3.07769">
        <ele>152.6</ele>
        <time>2021-09-25T08:47:45Z</time>
      </trkpt>
      <trkpt lat="43.13226" lon="3.0777">
        <ele>152.618</ele>
        <time>2021-09-25T08:47:47Z</time>
      </trkpt>
      <trkpt lat="43.13226" lon="3.07773">
        <ele>152.773</ele>
        <time>2021-09-25T08:47:49Z</time>
      </trkpt>
      <trkpt lat="43.13228" lon="3.07775">
        <ele>153.077</ele>
        <time>2021-09-25T08:47:51Z</time>
      </trkpt>
      <trkpt lat="43.13228" lon="3.07777">
        <ele>152.866</ele>
        <time>2021-09-25T08:47:53Z</time>
      </trkpt>
      <trkpt lat="43.13229" lon="3.07779">
        <ele>153.321</ele>
        <time>2021-09-25T08:47:55Z</time>
      </trkpt>
      <trkpt lat="43.1323" lon="3.07781">
        <ele>153.169</ele>
        <time>2021-09-25T08:47:57Z</time>
      </trkpt>
      <trkpt lat="43.1323" lon="3.07784">
        <ele>153.784</ele>
        <time>2021-09-25T08:47:59Z</time>
      </trkpt>
      <trkpt lat="43.1323" lon="3.07787">
        <ele>153.542</ele>
        <time>2021-09-25T08:48:01Z</time>
      </trkpt>
      <trkpt lat="43.13231" lon="3.0779">
        <ele>154.49</ele>
        <time>2021-09-25T08:48:03Z</time>
      </trkpt>
      <trkpt lat="43.13232" lon="3.07792">
        <ele>154.754</ele>
        <time>2021-09-25T08:48:05Z</time>
      </trkpt>
      <trkpt lat="43.13232" lon="3.07794">
        <ele>154.853</ele>
        <time>2021-09-25T08:48:07Z</time>
      </trkpt>
      <trkpt lat="43.13234" lon="3.07795">
        <ele>155.241</ele>
        <time>2021-09-25T08:48:09Z</time>
      </trkpt>
      <trkpt lat="43.13234" lon="3.07798">
        <ele>155.861</ele>
        <time>2021-09-25T08:48:11Z</time>
      </trkpt>
      <trkpt lat="43.13235" lon="3.078">
        <ele>156.149</ele>
        <time>2021-09-25T08:48:13Z</time>
      </trkpt>
      <trkpt lat="43.13235" lon="3.07803">
        <ele>155.979</ele>
        <time>2021-09-25T08:48:15Z</time>
      </trkpt>
      <trkpt lat="43.13236" lon="3.07805">
        <ele>155.773</ele>
        <time>2021-09-25T08:48:17Z</time>
      </trkpt>
      <trkpt lat="43.13237" lon="3.07807">
        <ele>156.13</ele>
        <time>2021-09-25T08:48:19Z</time>
      </trkpt>
      <trkpt lat="43.13238" lon="3.07809">
        <ele>156.49</ele>
        <time>2021-09-25T08:48:21Z</time>
      </trkpt>
      <trkpt lat="43.13238" lon="3.07812">
        <ele>156.405</ele>
        <time>2021-09-25T08:48:23Z</time>
      </trkpt>
      <trkpt lat="43.13239" lon="3.07815">
        <ele>156.044</ele>
        <time>2021-09-25T08:48:25Z</time>
      </trkpt>
      <trkpt lat="43.13239" lon="3.07817">
        <ele>155.633</ele>
        <time>2021-09-25T08:48:27Z</time>
      </trkpt>
      <trkpt lat="43.1324" lon="3.0782">
        <ele>155.874</ele>
        <time>2021-09-25T08:48:29Z</time>
      </trkpt>
      <trkpt lat="43.13243" lon="3.07821">
        <ele>158.45</ele>
        <time>2021-09-25T08:48:31Z</time>
      </trkpt>
      <trkpt lat="43.13245" lon="3.07821">
        <ele>158.7</ele>
        <time>2021-09-25T08:48:33Z</time>
      </trkpt>
      <trkpt lat="43.13246" lon="3.07822">
        <ele>158.33</ele>
        <time>2021-09-25T08:48:35Z</time>
      </trkpt>
      <trkpt lat="43.13247" lon="3.07822">
        <ele>158.401</ele>
        <time>2021-09-25T08:48:37Z</time>
      </trkpt>
      <trkpt lat="43.13249" lon="3.07824">
        <ele>157.714</ele>
        <time>2021-09-25T08:48:39Z</time>
      </trkpt>
      <trkpt lat="43.1325" lon="3.07825">
        <ele>157.663</ele>
        <time>2021-09-25T08:48:41Z</time>
      </trkpt>
      <trkpt lat="43.13252" lon="3.07827">
        <ele>157.492</ele>
        <time>2021-09-25T08:48:43Z</time>
      </trkpt>
      <trkpt lat="43.13253" lon="3.07829">
        <ele>157.434</ele>
        <time>2021-09-25T08:48:45Z</time>
      </trkpt>
      <trkpt lat="43.13254" lon="3.07831">
        <ele>158.946</ele>
        <time>2021-09-25T08:48:47Z</time>
      </trkpt>
      <trkpt lat="43.13256" lon="3.07832">
        <ele>158.766</ele>
        <time>2021-09-25T08:48:49Z</time>
      </trkpt>
      <trkpt lat="43.13258" lon="3.07833">
        <ele>159.381</ele>
        <time>2021-09-25T08:48:51Z</time>
      </trkpt>
      <trkpt lat="43.13259" lon="3.07834">
        <ele>157.322</ele>
        <time>2021-09-25T08:48:53Z</time>
      </trkpt>
      <trkpt lat="43.13259" lon="3.07835">
        <ele>158.048</ele>
        <time>2021-09-25T08:48:55Z</time>
      </trkpt>
      <trkpt lat="43.1326" lon="3.07837">
        <ele>158.848</ele>
        <time>2021-09-25T08:48:57Z</time>
      </trkpt>
      <trkpt lat="43.13261" lon="3.07839">
        <ele>158.964</ele>
        <time>2021-09-25T08:48:59Z</time>
      </trkpt>
      <trkpt lat="43.13262" lon="3.07839">
        <ele>157.986</ele>
        <time>2021-09-25T08:49:01Z</time>
      </trkpt>
      <trkpt lat="43.13264" lon="3.07839">
        <ele>157.364</ele>
        <time>2021-09-25T08:49:03Z</time>
      </trkpt>
      <trkpt lat="43.13266" lon="3.07839">
        <ele>156.673</ele>
        <time>2021-09-25T08:49:05Z</time>
      </trkpt>
      <trkpt lat="43.13268" lon="3.07839">
        <ele>156.718</ele>
        <time>2021-09-25T08:49:07Z</time>
      </trkpt>
      <trkpt lat="43.13269" lon="3.0784">
        <ele>156.701</ele>
        <time>2021-09-25T08:49:09Z</time>
      </trkpt>
      <trkpt lat="43.13271" lon="3.07842">
        <ele>157.169</ele>
        <time>2021-09-25T08:49:11Z</time>
      </trkpt>
      <trkpt lat="43.13272" lon="3.07843">
        <ele>156.569</ele>
        <time>2021-09-25T08:49:13Z</time>
      </trkpt>
      <trkpt lat="43.13274" lon="3.07843">
        <ele>156.33</ele>
        <time>2021-09-25T08:49:15Z</time>
      </trkpt>
      <trkpt lat="43.13276" lon="3.07842">
        <ele>156.29</ele>
        <time>2021-09-25T08:49:17Z</time>
      </trkpt>
      <trkpt lat="43.13278" lon="3.07842">
        <ele>155.885</ele>
        <time>2021-09-25T08:49:19Z</time>
      </trkpt>
      <trkpt lat="43.1328" lon="3.07843">
        <ele>156.783</ele>
        <time>2021-09-25T08:49:21Z</time>
      </trkpt>
      <trkpt lat="43.13281" lon="3.07843">
        <ele>158.046</ele>
        <time>2021-09-25T08:49:23Z</time>
      </trkpt>
      <trkpt lat="43.13282" lon="3.07844">
        <ele>158.559</ele>
        <time>2021-09-25T08:49:25Z</time>
      </trkpt>
      <trkpt lat="43.13284" lon="3.07845">
        <ele>159.568</ele>
        <time>2021-09-25T08:49:27Z</time>
      </trkpt>
      <trkpt lat="43.13285" lon="3.07845">
        <ele>159.673</ele>
        <time>2021-09-25T08:49:29Z</time>
      </trkpt>
      <trkpt lat="43.13287" lon="3.07844">
        <ele>158.747</ele>
        <time>2021-09-25T08:49:31Z</time>
      </trkpt>
      <trkpt lat="43.13289" lon="3.07844">
        <ele>158.335</ele>
        <time>2021-09-25T08:49:33Z</time>
      </trkpt>
      <trkpt lat="43.13291" lon="3.07843">
        <ele>158.15</ele>
        <time>2021-09-25T08:49:35Z</time>
      </trkpt>
      <trkpt lat="43.13292" lon="3.07842">
        <ele>158.208</ele>
        <time>2021-09-25T08:49:37Z</time>
      </trkpt>
      <trkpt lat="43.13292" lon="3.07841">
        <ele>158.086</ele>
        <time>2021-09-25T08:49:39Z</time>
      </trkpt>
      <trkpt lat="43.13293" lon="3.07841">
        <ele>159.083</ele>
        <time>2021-09-25T08:49:41Z</time>
      </trkpt>
      <trkpt lat="43.13293" lon="3.07841">
        <ele>159.083</ele>
        <time>2021-09-25T08:49:43Z</time>
      </trkpt>
      <trkpt lat="43.13293" lon="3.07841">
        <ele>159.083</ele>
        <time>2021-09-25T08:49:45Z</time>
      </trkpt>
      <trkpt lat="43.13293" lon="3.07841">
        <ele>159.083</ele>
        <time>2021-09-25T08:49:47Z</time>
      </trkpt>
      <trkpt lat="43.13293" lon="3.07841">
        <ele>159.083</ele>
        <time>2021-09-25T08:49:49Z</time>
      </trkpt>
      <trkpt lat="43.13293" lon="3.07841">
        <ele>159.084</ele>
        <time>2021-09-25T08:49:51Z</time>
      </trkpt>
      <trkpt lat="43.13293" lon="3.07841">
        <ele>159.083</ele>
        <time>2021-09-25T08:49:53Z</time>
      </trkpt>
      <trkpt lat="43.13293" lon="3.07841">
        <ele>159.301</ele>
        <time>2021-09-25T08:49:55Z</time>
      </trkpt>
      <trkpt lat="43.13295" lon="3.0784">
        <ele>160.171</ele>
        <time>2021-09-25T08:49:57Z</time>
      </trkpt>
      <trkpt lat="43.13297" lon="3.0784">
        <ele>160.296</ele>
        <time>2021-09-25T08:49:59Z</time>
      </trkpt>
      <trkpt lat="43.13299" lon="3.07841">
        <ele>160.378</ele>
        <time>2021-09-25T08:50:01Z</time>
      </trkpt>
      <trkpt lat="43.13301" lon="3.07842">
        <ele>160.893</ele>
        <time>2021-09-25T08:50:03Z</time>
      </trkpt>
      <trkpt lat="43.13303" lon="3.07844">
        <ele>161.343</ele>
        <time>2021-09-25T08:50:05Z</time>
      </trkpt>
      <trkpt lat="43.13305" lon="3.07845">
        <ele>161.102</ele>
        <time>2021-09-25T08:50:07Z</time>
      </trkpt>
      <trkpt lat="43.13307" lon="3.07847">
        <ele>161.329</ele>
        <time>2021-09-25T08:50:09Z</time>
      </trkpt>
      <trkpt lat="43.13309" lon="3.07849">
        <ele>161.453</ele>
        <time>2021-09-25T08:50:11Z</time>
      </trkpt>
      <trkpt lat="43.13311" lon="3.07852">
        <ele>162.071</ele>
        <time>2021-09-25T08:50:13Z</time>
      </trkpt>
      <trkpt lat="43.13314" lon="3.07852">
        <ele>162.664</ele>
        <time>2021-09-25T08:50:15Z</time>
      </trkpt>
      <trkpt lat="43.13313" lon="3.07847">
        <ele>158.312</ele>
        <time>2021-09-25T08:50:17Z</time>
      </trkpt>
      <trkpt lat="43.13314" lon="3.07845">
        <ele>157.345</ele>
        <time>2021-09-25T08:50:19Z</time>
      </trkpt>
      <trkpt lat="43.13316" lon="3.07844">
        <ele>157.8</ele>
        <time>2021-09-25T08:50:21Z</time>
      </trkpt>
      <trkpt lat="43.13317" lon="3.07845">
        <ele>158.621</ele>
        <time>2021-09-25T08:50:23Z</time>
      </trkpt>
      <trkpt lat="43.13319" lon="3.07845">
        <ele>158.202</ele>
        <time>2021-09-25T08:50:25Z</time>
      </trkpt>
      <trkpt lat="43.1332" lon="3.07845">
        <ele>159.388</ele>
        <time>2021-09-25T08:50:27Z</time>
      </trkpt>
      <trkpt lat="43.13321" lon="3.07844">
        <ele>159.253</ele>
        <time>2021-09-25T08:50:29Z</time>
      </trkpt>
      <trkpt lat="43.13322" lon="3.07842">
        <ele>159.867</ele>
        <time>2021-09-25T08:50:31Z</time>
      </trkpt>
      <trkpt lat="43.13324" lon="3.07842">
        <ele>160.78</ele>
        <time>2021-09-25T08:50:33Z</time>
      </trkpt>
      <trkpt lat="43.13326" lon="3.07842">
        <ele>161.18</ele>
        <time>2021-09-25T08:50:35Z</time>
      </trkpt>
      <trkpt lat="43.13328" lon="3.07843">
        <ele>160.661</ele>
        <time>2021-09-25T08:50:37Z</time>
      </trkpt>
      <trkpt lat="43.13329" lon="3.07844">
        <ele>160.314</ele>
        <time>2021-09-25T08:50:39Z</time>
      </trkpt>
      <trkpt lat="43.13331" lon="3.07846">
        <ele>161.664</ele>
        <time>2021-09-25T08:50:41Z</time>
      </trkpt>
      <trkpt lat="43.13333" lon="3.07848">
        <ele>162.535</ele>
        <time>2021-09-25T08:50:43Z</time>
      </trkpt>
      <trkpt lat="43.13336" lon="3.07848">
        <ele>163.352</ele>
        <time>2021-09-25T08:50:45Z</time>
      </trkpt>
      <trkpt lat="43.13339" lon="3.07849">
        <ele>163.394</ele>
        <time>2021-09-25T08:50:47Z</time>
      </trkpt>
      <trkpt lat="43.13341" lon="3.07848">
        <ele>163.169</ele>
        <time>2021-09-25T08:50:49Z</time>
      </trkpt>
      <trkpt lat="43.13342" lon="3.07847">
        <ele>163.668</ele>
        <time>2021-09-25T08:50:51Z</time>
      </trkpt>
      <trkpt lat="43.13343" lon="3.07846">
        <ele>163.505</ele>
        <time>2021-09-25T08:50:53Z</time>
      </trkpt>
      <trkpt lat="43.13345" lon="3.07846">
        <ele>163.452</ele>
        <time>2021-09-25T08:50:55Z</time>
      </trkpt>
      <trkpt lat="43.13346" lon="3.07847">
        <ele>163.45</ele>
        <time>2021-09-25T08:50:57Z</time>
      </trkpt>
      <trkpt lat="43.13348" lon="3.07847">
        <ele>163.58</ele>
        <time>2021-09-25T08:50:59Z</time>
      </trkpt>
      <trkpt lat="43.13349" lon="3.07843">
        <ele>163.854</ele>
        <time>2021-09-25T08:51:01Z</time>
      </trkpt>
      <trkpt lat="43.13349" lon="3.07843">
        <ele>163.89</ele>
        <time>2021-09-25T08:51:03Z</time>
      </trkpt>
      <trkpt lat="43.13349" lon="3.07843">
        <ele>164.309</ele>
        <time>2021-09-25T08:51:05Z</time>
      </trkpt>
      <trkpt lat="43.13348" lon="3.07843">
        <ele>164.049</ele>
        <time>2021-09-25T08:51:07Z</time>
      </trkpt>
      <trkpt lat="43.13346" lon="3.0784">
        <ele>164.778</ele>
        <time>2021-09-25T08:51:09Z</time>
      </trkpt>
      <trkpt lat="43.13348" lon="3.07836">
        <ele>162.978</ele>
        <time>2021-09-25T08:51:11Z</time>
      </trkpt>
      <trkpt lat="43.13351" lon="3.07838">
        <ele>161.247</ele>
        <time>2021-09-25T08:51:13Z</time>
      </trkpt>
      <trkpt lat="43.13353" lon="3.0784">
        <ele>159.787</ele>
        <time>2021-09-25T08:51:15Z</time>
      </trkpt>
      <trkpt lat="43.13354" lon="3.07841">
        <ele>158.886</ele>
        <time>2021-09-25T08:51:17Z</time>
      </trkpt>
      <trkpt lat="43.13356" lon="3.07843">
        <ele>159.034</ele>
        <time>2021-09-25T08:51:19Z</time>
      </trkpt>
      <trkpt lat="43.13358" lon="3.07844">
        <ele>158.557</ele>
        <time>2021-09-25T08:51:21Z</time>
      </trkpt>
      <trkpt lat="43.13359" lon="3.07845">
        <ele>157.59</ele>
        <time>2021-09-25T08:51:23Z</time>
      </trkpt>
      <trkpt lat="43.13361" lon="3.07846">
        <ele>156.446</ele>
        <time>2021-09-25T08:51:25Z</time>
      </trkpt>
      <trkpt lat="43.13362" lon="3.07848">
        <ele>157.336</ele>
        <time>2021-09-25T08:51:27Z</time>
      </trkpt>
      <trkpt lat="43.13364" lon="3.07849">
        <ele>157.47</ele>
        <time>2021-09-25T08:51:29Z</time>
      </trkpt>
      <trkpt lat="43.13366" lon="3.07849">
        <ele>156.205</ele>
        <time>2021-09-25T08:51:31Z</time>
      </trkpt>
      <trkpt lat="43.13367" lon="3.07849">
        <ele>155.912</ele>
        <time>2021-09-25T08:51:33Z</time>
      </trkpt>
      <trkpt lat="43.13369" lon="3.07849">
        <ele>155.513</ele>
        <time>2021-09-25T08:51:35Z</time>
      </trkpt>
      <trkpt lat="43.13371" lon="3.07849">
        <ele>155.209</ele>
        <time>2021-09-25T08:51:37Z</time>
      </trkpt>
      <trkpt lat="43.13373" lon="3.07849">
        <ele>154.524</ele>
        <time>2021-09-25T08:51:39Z</time>
      </trkpt>
      <trkpt lat="43.13375" lon="3.0785">
        <ele>153.784</ele>
        <time>2021-09-25T08:51:41Z</time>
      </trkpt>
      <trkpt lat="43.13377" lon="3.07852">
        <ele>154.29</ele>
        <time>2021-09-25T08:51:43Z</time>
      </trkpt>
      <trkpt lat="43.1338" lon="3.07854">
        <ele>155.918</ele>
        <time>2021-09-25T08:51:45Z</time>
      </trkpt>
      <trkpt lat="43.13382" lon="3.07854">
        <ele>155.552</ele>
        <time>2021-09-25T08:51:47Z</time>
      </trkpt>
      <trkpt lat="43.13384" lon="3.07853">
        <ele>155.26</ele>
        <time>2021-09-25T08:51:49Z</time>
      </trkpt>
      <trkpt lat="43.13386" lon="3.07853">
        <ele>155.359</ele>
        <time>2021-09-25T08:51:51Z</time>
      </trkpt>
      <trkpt lat="43.13388" lon="3.07853">
        <ele>155.876</ele>
        <time>2021-09-25T08:51:53Z</time>
      </trkpt>
      <trkpt lat="43.1339" lon="3.07853">
        <ele>157.222</ele>
        <time>2021-09-25T08:51:55Z</time>
      </trkpt>
      <trkpt lat="43.13392" lon="3.07853">
        <ele>157.62</ele>
        <time>2021-09-25T08:51:57Z</time>
      </trkpt>
      <trkpt lat="43.13394" lon="3.07854">
        <ele>157.843</ele>
        <time>2021-09-25T08:51:59Z</time>
      </trkpt>
      <trkpt lat="43.13396" lon="3.07853">
        <ele>157.615</ele>
        <time>2021-09-25T08:52:01Z</time>
      </trkpt>
      <trkpt lat="43.13398" lon="3.07852">
        <ele>156.953</ele>
        <time>2021-09-25T08:52:03Z</time>
      </trkpt>
      <trkpt lat="43.13399" lon="3.07852">
        <ele>156.479</ele>
        <time>2021-09-25T08:52:05Z</time>
      </trkpt>
      <trkpt lat="43.13401" lon="3.07852">
        <ele>155.878</ele>
        <time>2021-09-25T08:52:07Z</time>
      </trkpt>
      <trkpt lat="43.13404" lon="3.07852">
        <ele>156.963</ele>
        <time>2021-09-25T08:52:09Z</time>
      </trkpt>
      <trkpt lat="43.13406" lon="3.07852">
        <ele>156.348</ele>
        <time>2021-09-25T08:52:11Z</time>
      </trkpt>
      <trkpt lat="43.13407" lon="3.07852">
        <ele>156.224</ele>
        <time>2021-09-25T08:52:13Z</time>
      </trkpt>
      <trkpt lat="43.13409" lon="3.07852">
        <ele>156.589</ele>
        <time>2021-09-25T08:52:15Z</time>
      </trkpt>
      <trkpt lat="43.1341" lon="3.07853">
        <ele>158.574</ele>
        <time>2021-09-25T08:52:17Z</time>
      </trkpt>
      <trkpt lat="43.13412" lon="3.07852">
        <ele>159.217</ele>
        <time>2021-09-25T08:52:19Z</time>
      </trkpt>
      <trkpt lat="43.13413" lon="3.07851">
        <ele>160.413</ele>
        <time>2021-09-25T08:52:21Z</time>
      </trkpt>
      <trkpt lat="43.13415" lon="3.0785">
        <ele>160.647</ele>
        <time>2021-09-25T08:52:23Z</time>
      </trkpt>
      <trkpt lat="43.13416" lon="3.07849">
        <ele>160.813</ele>
        <time>2021-09-25T08:52:25Z</time>
      </trkpt>
      <trkpt lat="43.13418" lon="3.07847">
        <ele>161.401</ele>
        <time>2021-09-25T08:52:27Z</time>
      </trkpt>
      <trkpt lat="43.13418" lon="3.07845">
        <ele>161.56</ele>
        <time>2021-09-25T08:52:29Z</time>
      </trkpt>
      <trkpt lat="43.13419" lon="3.07843">
        <ele>161.087</ele>
        <time>2021-09-25T08:52:31Z</time>
      </trkpt>
      <trkpt lat="43.1342" lon="3.07841">
        <ele>162.071</ele>
        <time>2021-09-25T08:52:33Z</time>
      </trkpt>
      <trkpt lat="43.13422" lon="3.07838">
        <ele>162.997</ele>
        <time>2021-09-25T08:52:35Z</time>
      </trkpt>
      <trkpt lat="43.13423" lon="3.07837">
        <ele>162.701</ele>
        <time>2021-09-25T08:52:37Z</time>
      </trkpt>
      <trkpt lat="43.13425" lon="3.07836">
        <ele>163.151</ele>
        <time>2021-09-25T08:52:39Z</time>
      </trkpt>
      <trkpt lat="43.13424" lon="3.07837">
        <ele>161.964</ele>
        <time>2021-09-25T08:52:41Z</time>
      </trkpt>
      <trkpt lat="43.13424" lon="3.07837">
        <ele>161.982</ele>
        <time>2021-09-25T08:52:43Z</time>
      </trkpt>
      <trkpt lat="43.13424" lon="3.07837">
        <ele>161.997</ele>
        <time>2021-09-25T08:52:45Z</time>
      </trkpt>
      <trkpt lat="43.13425" lon="3.07837">
        <ele>162.008</ele>
        <time>2021-09-25T08:52:47Z</time>
      </trkpt>
      <trkpt lat="43.13425" lon="3.07837">
        <ele>161.928</ele>
        <time>2021-09-25T08:52:49Z</time>
      </trkpt>
      <trkpt lat="43.13426" lon="3.07836">
        <ele>162.772</ele>
        <time>2021-09-25T08:52:51Z</time>
      </trkpt>
      <trkpt lat="43.13427" lon="3.07835">
        <ele>163.767</ele>
        <time>2021-09-25T08:52:53Z</time>
      </trkpt>
      <trkpt lat="43.13428" lon="3.07832">
        <ele>164.694</ele>
        <time>2021-09-25T08:52:55Z</time>
      </trkpt>
      <trkpt lat="43.1343" lon="3.0783">
        <ele>164.606</ele>
        <time>2021-09-25T08:52:58Z</time>
      </trkpt>
      <trkpt lat="43.13432" lon="3.0783">
        <ele>165.598</ele>
        <time>2021-09-25T08:53:00Z</time>
      </trkpt>
      <trkpt lat="43.13434" lon="3.07829">
        <ele>165.856</ele>
        <time>2021-09-25T08:53:02Z</time>
      </trkpt>
      <trkpt lat="43.13436" lon="3.07829">
        <ele>167.387</ele>
        <time>2021-09-25T08:53:04Z</time>
      </trkpt>
      <trkpt lat="43.13437" lon="3.07828">
        <ele>166.73</ele>
        <time>2021-09-25T08:53:06Z</time>
      </trkpt>
      <trkpt lat="43.13439" lon="3.07827">
        <ele>166.405</ele>
        <time>2021-09-25T08:53:08Z</time>
      </trkpt>
      <trkpt lat="43.13441" lon="3.07827">
        <ele>165.56</ele>
        <time>2021-09-25T08:53:10Z</time>
      </trkpt>
      <trkpt lat="43.13442" lon="3.07827">
        <ele>165.403</ele>
        <time>2021-09-25T08:53:12Z</time>
      </trkpt>
      <trkpt lat="43.13444" lon="3.07827">
        <ele>165.633</ele>
        <time>2021-09-25T08:53:14Z</time>
      </trkpt>
      <trkpt lat="43.13445" lon="3.07828">
        <ele>164.989</ele>
        <time>2021-09-25T08:53:16Z</time>
      </trkpt>
      <trkpt lat="43.13446" lon="3.0783">
        <ele>163.844</ele>
        <time>2021-09-25T08:53:18Z</time>
      </trkpt>
      <trkpt lat="43.13448" lon="3.07831">
        <ele>164.216</ele>
        <time>2021-09-25T08:53:20Z</time>
      </trkpt>
      <trkpt lat="43.13449" lon="3.07832">
        <ele>163.885</ele>
        <time>2021-09-25T08:53:22Z</time>
      </trkpt>
      <trkpt lat="43.13451" lon="3.07834">
        <ele>163.405</ele>
        <time>2021-09-25T08:53:24Z</time>
      </trkpt>
      <trkpt lat="43.13452" lon="3.07835">
        <ele>162.843</ele>
        <time>2021-09-25T08:53:26Z</time>
      </trkpt>
      <trkpt lat="43.13454" lon="3.07836">
        <ele>162.45</ele>
        <time>2021-09-25T08:53:28Z</time>
      </trkpt>
      <trkpt lat="43.13456" lon="3.07836">
        <ele>162.164</ele>
        <time>2021-09-25T08:53:30Z</time>
      </trkpt>
      <trkpt lat="43.13458" lon="3.07836">
        <ele>162.337</ele>
        <time>2021-09-25T08:53:32Z</time>
      </trkpt>
      <trkpt lat="43.13461" lon="3.07836">
        <ele>162.73</ele>
        <time>2021-09-25T08:53:34Z</time>
      </trkpt>
      <trkpt lat="43.13463" lon="3.07836">
        <ele>162.465</ele>
        <time>2021-09-25T08:53:36Z</time>
      </trkpt>
      <trkpt lat="43.13466" lon="3.07836">
        <ele>161.258</ele>
        <time>2021-09-25T08:53:38Z</time>
      </trkpt>
      <trkpt lat="43.13469" lon="3.07838">
        <ele>162.633</ele>
        <time>2021-09-25T08:53:40Z</time>
      </trkpt>
      <trkpt lat="43.13472" lon="3.07839">
        <ele>162.114</ele>
        <time>2021-09-25T08:53:42Z</time>
      </trkpt>
      <trkpt lat="43.13474" lon="3.07839">
        <ele>161.729</ele>
        <time>2021-09-25T08:53:44Z</time>
      </trkpt>
      <trkpt lat="43.13476" lon="3.07839">
        <ele>160.794</ele>
        <time>2021-09-25T08:53:46Z</time>
      </trkpt>
      <trkpt lat="43.13477" lon="3.07839">
        <ele>160.149</ele>
        <time>2021-09-25T08:53:48Z</time>
      </trkpt>
      <trkpt lat="43.13479" lon="3.07839">
        <ele>159.885</ele>
        <time>2021-09-25T08:53:50Z</time>
      </trkpt>
      <trkpt lat="43.13481" lon="3.07838">
        <ele>160.326</ele>
        <time>2021-09-25T08:53:52Z</time>
      </trkpt>
      <trkpt lat="43.13483" lon="3.07838">
        <ele>160.553</ele>
        <time>2021-09-25T08:53:54Z</time>
      </trkpt>
      <trkpt lat="43.13484" lon="3.07837">
        <ele>160.642</ele>
        <time>2021-09-25T08:53:55Z</time>
      </trkpt>
      <trkpt lat="43.13487" lon="3.07835">
        <ele>161.141</ele>
        <time>2021-09-25T08:53:58Z</time>
      </trkpt>
      <trkpt lat="43.13489" lon="3.07835">
        <ele>160.928</ele>
        <time>2021-09-25T08:54:00Z</time>
      </trkpt>
      <trkpt lat="43.1349" lon="3.07833">
        <ele>160.881</ele>
        <time>2021-09-25T08:54:02Z</time>
      </trkpt>
      <trkpt lat="43.13492" lon="3.07833">
        <ele>160.31</ele>
        <time>2021-09-25T08:54:04Z</time>
      </trkpt>
      <trkpt lat="43.13494" lon="3.07833">
        <ele>160.534</ele>
        <time>2021-09-25T08:54:06Z</time>
      </trkpt>
      <trkpt lat="43.13496" lon="3.07834">
        <ele>159.78</ele>
        <time>2021-09-25T08:54:08Z</time>
      </trkpt>
      <trkpt lat="43.13498" lon="3.07834">
        <ele>159.328</ele>
        <time>2021-09-25T08:54:10Z</time>
      </trkpt>
      <trkpt lat="43.135" lon="3.07834">
        <ele>158.742</ele>
        <time>2021-09-25T08:54:12Z</time>
      </trkpt>
      <trkpt lat="43.13502" lon="3.07834">
        <ele>157.564</ele>
        <time>2021-09-25T08:54:14Z</time>
      </trkpt>
      <trkpt lat="43.13505" lon="3.07834">
        <ele>158.21</ele>
        <time>2021-09-25T08:54:16Z</time>
      </trkpt>
      <trkpt lat="43.13507" lon="3.07834">
        <ele>158.118</ele>
        <time>2021-09-25T08:54:18Z</time>
      </trkpt>
      <trkpt lat="43.1351" lon="3.07834">
        <ele>157.601</ele>
        <time>2021-09-25T08:54:20Z</time>
      </trkpt>
      <trkpt lat="43.13512" lon="3.07834">
        <ele>157.367</ele>
        <time>2021-09-25T08:54:22Z</time>
      </trkpt>
      <trkpt lat="43.13514" lon="3.07834">
        <ele>158.12</ele>
        <time>2021-09-25T08:54:24Z</time>
      </trkpt>
      <trkpt lat="43.13516" lon="3.07834">
        <ele>158.945</ele>
        <time>2021-09-25T08:54:26Z</time>
      </trkpt>
      <trkpt lat="43.13518" lon="3.07834">
        <ele>159.313</ele>
        <time>2021-09-25T08:54:28Z</time>
      </trkpt>
      <trkpt lat="43.1352" lon="3.07835">
        <ele>159.79</ele>
        <time>2021-09-25T08:54:30Z</time>
      </trkpt>
      <trkpt lat="43.13522" lon="3.07835">
        <ele>159.484</ele>
        <time>2021-09-25T08:54:32Z</time>
      </trkpt>
      <trkpt lat="43.13525" lon="3.07834">
        <ele>160.021</ele>
        <time>2021-09-25T08:54:34Z</time>
      </trkpt>
      <trkpt lat="43.13527" lon="3.07834">
        <ele>159.697</ele>
        <time>2021-09-25T08:54:36Z</time>
      </trkpt>
      <trkpt lat="43.1353" lon="3.07834">
        <ele>159.919</ele>
        <time>2021-09-25T08:54:38Z</time>
      </trkpt>
      <trkpt lat="43.13532" lon="3.07834">
        <ele>159.423</ele>
        <time>2021-09-25T08:54:40Z</time>
      </trkpt>
      <trkpt lat="43.13535" lon="3.07834">
        <ele>160.481</ele>
        <time>2021-09-25T08:54:42Z</time>
      </trkpt>
      <trkpt lat="43.13536" lon="3.07835">
        <ele>160.337</ele>
        <time>2021-09-25T08:54:44Z</time>
      </trkpt>
      <trkpt lat="43.13538" lon="3.07836">
        <ele>160.937</ele>
        <time>2021-09-25T08:54:46Z</time>
      </trkpt>
      <trkpt lat="43.1354" lon="3.07836">
        <ele>160.893</ele>
        <time>2021-09-25T08:54:48Z</time>
      </trkpt>
      <trkpt lat="43.13541" lon="3.07837">
        <ele>160.959</ele>
        <time>2021-09-25T08:54:50Z</time>
      </trkpt>
      <trkpt lat="43.13543" lon="3.07838">
        <ele>160.788</ele>
        <time>2021-09-25T08:54:52Z</time>
      </trkpt>
      <trkpt lat="43.13545" lon="3.07838">
        <ele>160.378</ele>
        <time>2021-09-25T08:54:54Z</time>
      </trkpt>
      <trkpt lat="43.13546" lon="3.07839">
        <ele>159.868</ele>
        <time>2021-09-25T08:54:56Z</time>
      </trkpt>
      <trkpt lat="43.13548" lon="3.0784">
        <ele>158.849</ele>
        <time>2021-09-25T08:54:58Z</time>
      </trkpt>
      <trkpt lat="43.1355" lon="3.0784">
        <ele>158.309</ele>
        <time>2021-09-25T08:55:00Z</time>
      </trkpt>
      <trkpt lat="43.13552" lon="3.07842">
        <ele>158.486</ele>
        <time>2021-09-25T08:55:02Z</time>
      </trkpt>
      <trkpt lat="43.13554" lon="3.07843">
        <ele>158.206</ele>
        <time>2021-09-25T08:55:04Z</time>
      </trkpt>
      <trkpt lat="43.13556" lon="3.07845">
        <ele>158.304</ele>
        <time>2021-09-25T08:55:06Z</time>
      </trkpt>
      <trkpt lat="43.13559" lon="3.07846">
        <ele>158.551</ele>
        <time>2021-09-25T08:55:08Z</time>
      </trkpt>
      <trkpt lat="43.13561" lon="3.07847">
        <ele>158.743</ele>
        <time>2021-09-25T08:55:10Z</time>
      </trkpt>
      <trkpt lat="43.13562" lon="3.07847">
        <ele>157.761</ele>
        <time>2021-09-25T08:55:12Z</time>
      </trkpt>
      <trkpt lat="43.13564" lon="3.07848">
        <ele>157.275</ele>
        <time>2021-09-25T08:55:14Z</time>
      </trkpt>
      <trkpt lat="43.13566" lon="3.0785">
        <ele>157.173</ele>
        <time>2021-09-25T08:55:16Z</time>
      </trkpt>
      <trkpt lat="43.13567" lon="3.07851">
        <ele>156.705</ele>
        <time>2021-09-25T08:55:18Z</time>
      </trkpt>
      <trkpt lat="43.13569" lon="3.07851">
        <ele>156.497</ele>
        <time>2021-09-25T08:55:20Z</time>
      </trkpt>
      <trkpt lat="43.13571" lon="3.07851">
        <ele>156.763</ele>
        <time>2021-09-25T08:55:22Z</time>
      </trkpt>
      <trkpt lat="43.13573" lon="3.07852">
        <ele>156.302</ele>
        <time>2021-09-25T08:55:24Z</time>
      </trkpt>
      <trkpt lat="43.13575" lon="3.07853">
        <ele>155.726</ele>
        <time>2021-09-25T08:55:26Z</time>
      </trkpt>
      <trkpt lat="43.13577" lon="3.07854">
        <ele>155.122</ele>
        <time>2021-09-25T08:55:28Z</time>
      </trkpt>
      <trkpt lat="43.13579" lon="3.07855">
        <ele>155.569</ele>
        <time>2021-09-25T08:55:30Z</time>
      </trkpt>
      <trkpt lat="43.13581" lon="3.07856">
        <ele>155.245</ele>
        <time>2021-09-25T08:55:32Z</time>
      </trkpt>
      <trkpt lat="43.13583" lon="3.07857">
        <ele>154.919</ele>
        <time>2021-09-25T08:55:34Z</time>
      </trkpt>
      <trkpt lat="43.13584" lon="3.07859">
        <ele>155.466</ele>
        <time>2021-09-25T08:55:36Z</time>
      </trkpt>
      <trkpt lat="43.13586" lon="3.07861">
        <ele>154.466</ele>
        <time>2021-09-25T08:55:38Z</time>
      </trkpt>
      <trkpt lat="43.13588" lon="3.07862">
        <ele>154.122</ele>
        <time>2021-09-25T08:55:40Z</time>
      </trkpt>
      <trkpt lat="43.1359" lon="3.07864">
        <ele>153.763</ele>
        <time>2021-09-25T08:55:42Z</time>
      </trkpt>
      <trkpt lat="43.13592" lon="3.07864">
        <ele>153.417</ele>
        <time>2021-09-25T08:55:44Z</time>
      </trkpt>
      <trkpt lat="43.13593" lon="3.07865">
        <ele>152.969</ele>
        <time>2021-09-25T08:55:46Z</time>
      </trkpt>
      <trkpt lat="43.13595" lon="3.07865">
        <ele>152.979</ele>
        <time>2021-09-25T08:55:48Z</time>
      </trkpt>
      <trkpt lat="43.13597" lon="3.07867">
        <ele>153.738</ele>
        <time>2021-09-25T08:55:50Z</time>
      </trkpt>
      <trkpt lat="43.13599" lon="3.07869">
        <ele>154.943</ele>
        <time>2021-09-25T08:55:52Z</time>
      </trkpt>
      <trkpt lat="43.13601" lon="3.0787">
        <ele>155.43</ele>
        <time>2021-09-25T08:55:54Z</time>
      </trkpt>
      <trkpt lat="43.13603" lon="3.07871">
        <ele>155.763</ele>
        <time>2021-09-25T08:55:56Z</time>
      </trkpt>
      <trkpt lat="43.13606" lon="3.07872">
        <ele>155.473</ele>
        <time>2021-09-25T08:55:58Z</time>
      </trkpt>
      <trkpt lat="43.13608" lon="3.07872">
        <ele>155.969</ele>
        <time>2021-09-25T08:56:00Z</time>
      </trkpt>
      <trkpt lat="43.1361" lon="3.07873">
        <ele>155.796</ele>
        <time>2021-09-25T08:56:02Z</time>
      </trkpt>
      <trkpt lat="43.13614" lon="3.07875">
        <ele>155.654</ele>
        <time>2021-09-25T08:56:04Z</time>
      </trkpt>
      <trkpt lat="43.13617" lon="3.07873">
        <ele>155.262</ele>
        <time>2021-09-25T08:56:06Z</time>
      </trkpt>
      <trkpt lat="43.13619" lon="3.07872">
        <ele>155.464</ele>
        <time>2021-09-25T08:56:08Z</time>
      </trkpt>
      <trkpt lat="43.13621" lon="3.07873">
        <ele>156.923</ele>
        <time>2021-09-25T08:56:10Z</time>
      </trkpt>
      <trkpt lat="43.13623" lon="3.07874">
        <ele>157.878</ele>
        <time>2021-09-25T08:56:12Z</time>
      </trkpt>
      <trkpt lat="43.13625" lon="3.07876">
        <ele>157.815</ele>
        <time>2021-09-25T08:56:14Z</time>
      </trkpt>
      <trkpt lat="43.13628" lon="3.07877">
        <ele>158.379</ele>
        <time>2021-09-25T08:56:16Z</time>
      </trkpt>
      <trkpt lat="43.1363" lon="3.07877">
        <ele>157.852</ele>
        <time>2021-09-25T08:56:18Z</time>
      </trkpt>
      <trkpt lat="43.13632" lon="3.07877">
        <ele>157.34</ele>
        <time>2021-09-25T08:56:20Z</time>
      </trkpt>
      <trkpt lat="43.13635" lon="3.07877">
        <ele>156.02</ele>
        <time>2021-09-25T08:56:22Z</time>
      </trkpt>
      <trkpt lat="43.13637" lon="3.07876">
        <ele>155.99</ele>
        <time>2021-09-25T08:56:24Z</time>
      </trkpt>
      <trkpt lat="43.13639" lon="3.07874">
        <ele>156.01</ele>
        <time>2021-09-25T08:56:26Z</time>
      </trkpt>
      <trkpt lat="43.13641" lon="3.07873">
        <ele>156.38</ele>
        <time>2021-09-25T08:56:28Z</time>
      </trkpt>
      <trkpt lat="43.13642" lon="3.0787">
        <ele>156.111</ele>
        <time>2021-09-25T08:56:30Z</time>
      </trkpt>
      <trkpt lat="43.13641" lon="3.07867">
        <ele>154.192</ele>
        <time>2021-09-25T08:56:32Z</time>
      </trkpt>
      <trkpt lat="43.13644" lon="3.07867">
        <ele>155.412</ele>
        <time>2021-09-25T08:56:34Z</time>
      </trkpt>
      <trkpt lat="43.13647" lon="3.07867">
        <ele>156.102</ele>
        <time>2021-09-25T08:56:36Z</time>
      </trkpt>
      <trkpt lat="43.1365" lon="3.07868">
        <ele>156.741</ele>
        <time>2021-09-25T08:56:38Z</time>
      </trkpt>
      <trkpt lat="43.13652" lon="3.07869">
        <ele>157.071</ele>
        <time>2021-09-25T08:56:40Z</time>
      </trkpt>
      <trkpt lat="43.13655" lon="3.0787">
        <ele>157.906</ele>
        <time>2021-09-25T08:56:42Z</time>
      </trkpt>
      <trkpt lat="43.13657" lon="3.07871">
        <ele>157.692</ele>
        <time>2021-09-25T08:56:44Z</time>
      </trkpt>
      <trkpt lat="43.13659" lon="3.07872">
        <ele>158.114</ele>
        <time>2021-09-25T08:56:46Z</time>
      </trkpt>
      <trkpt lat="43.1366" lon="3.07872">
        <ele>158.528</ele>
        <time>2021-09-25T08:56:48Z</time>
      </trkpt>
      <trkpt lat="43.13662" lon="3.07872">
        <ele>158.386</ele>
        <time>2021-09-25T08:56:50Z</time>
      </trkpt>
      <trkpt lat="43.13664" lon="3.07873">
        <ele>158.285</ele>
        <time>2021-09-25T08:56:52Z</time>
      </trkpt>
      <trkpt lat="43.13665" lon="3.07873">
        <ele>159.001</ele>
        <time>2021-09-25T08:56:54Z</time>
      </trkpt>
      <trkpt lat="43.13667" lon="3.07873">
        <ele>158.564</ele>
        <time>2021-09-25T08:56:56Z</time>
      </trkpt>
      <trkpt lat="43.13669" lon="3.07873">
        <ele>158.631</ele>
        <time>2021-09-25T08:56:58Z</time>
      </trkpt>
      <trkpt lat="43.13671" lon="3.07873">
        <ele>157.459</ele>
        <time>2021-09-25T08:57:00Z</time>
      </trkpt>
      <trkpt lat="43.13673" lon="3.07873">
        <ele>158.754</ele>
        <time>2021-09-25T08:57:02Z</time>
      </trkpt>
      <trkpt lat="43.13675" lon="3.07874">
        <ele>157.744</ele>
        <time>2021-09-25T08:57:04Z</time>
      </trkpt>
      <trkpt lat="43.13677" lon="3.07875">
        <ele>157.578</ele>
        <time>2021-09-25T08:57:06Z</time>
      </trkpt>
      <trkpt lat="43.13679" lon="3.07875">
        <ele>156.861</ele>
        <time>2021-09-25T08:57:08Z</time>
      </trkpt>
      <trkpt lat="43.13681" lon="3.07876">
        <ele>156.489</ele>
        <time>2021-09-25T08:57:10Z</time>
      </trkpt>
      <trkpt lat="43.13683" lon="3.07876">
        <ele>156.803</ele>
        <time>2021-09-25T08:57:12Z</time>
      </trkpt>
      <trkpt lat="43.13685" lon="3.07876">
        <ele>156.248</ele>
        <time>2021-09-25T08:57:14Z</time>
      </trkpt>
      <trkpt lat="43.13687" lon="3.07876">
        <ele>155.683</ele>
        <time>2021-09-25T08:57:16Z</time>
      </trkpt>
      <trkpt lat="43.13689" lon="3.07877">
        <ele>155.077</ele>
        <time>2021-09-25T08:57:18Z</time>
      </trkpt>
      <trkpt lat="43.13692" lon="3.07877">
        <ele>155.293</ele>
        <time>2021-09-25T08:57:20Z</time>
      </trkpt>
      <trkpt lat="43.13695" lon="3.07878">
        <ele>155.687</ele>
        <time>2021-09-25T08:57:22Z</time>
      </trkpt>
      <trkpt lat="43.13697" lon="3.07878">
        <ele>155.729</ele>
        <time>2021-09-25T08:57:24Z</time>
      </trkpt>
      <trkpt lat="43.13699" lon="3.07879">
        <ele>155.101</ele>
        <time>2021-09-25T08:57:26Z</time>
      </trkpt>
      <trkpt lat="43.13702" lon="3.0788">
        <ele>155.009</ele>
        <time>2021-09-25T08:57:28Z</time>
      </trkpt>
      <trkpt lat="43.13704" lon="3.07881">
        <ele>155.051</ele>
        <time>2021-09-25T08:57:30Z</time>
      </trkpt>
      <trkpt lat="43.13707" lon="3.07881">
        <ele>154.66</ele>
        <time>2021-09-25T08:57:32Z</time>
      </trkpt>
      <trkpt lat="43.13709" lon="3.07882">
        <ele>154.672</ele>
        <time>2021-09-25T08:57:34Z</time>
      </trkpt>
      <trkpt lat="43.13712" lon="3.07882">
        <ele>154.587</ele>
        <time>2021-09-25T08:57:36Z</time>
      </trkpt>
      <trkpt lat="43.13715" lon="3.07882">
        <ele>154.655</ele>
        <time>2021-09-25T08:57:38Z</time>
      </trkpt>
      <trkpt lat="43.13717" lon="3.07882">
        <ele>154.661</ele>
        <time>2021-09-25T08:57:40Z</time>
      </trkpt>
      <trkpt lat="43.13719" lon="3.07881">
        <ele>154.814</ele>
        <time>2021-09-25T08:57:42Z</time>
      </trkpt>
      <trkpt lat="43.13721" lon="3.07881">
        <ele>155.381</ele>
        <time>2021-09-25T08:57:44Z</time>
      </trkpt>
      <trkpt lat="43.13723" lon="3.07881">
        <ele>156.855</ele>
        <time>2021-09-25T08:57:46Z</time>
      </trkpt>
      <trkpt lat="43.13725" lon="3.0788">
        <ele>156.499</ele>
        <time>2021-09-25T08:57:48Z</time>
      </trkpt>
      <trkpt lat="43.13728" lon="3.0788">
        <ele>156.847</ele>
        <time>2021-09-25T08:57:50Z</time>
      </trkpt>
      <trkpt lat="43.1373" lon="3.07881">
        <ele>155.499</ele>
        <time>2021-09-25T08:57:52Z</time>
      </trkpt>
      <trkpt lat="43.13732" lon="3.07881">
        <ele>155.931</ele>
        <time>2021-09-25T08:57:54Z</time>
      </trkpt>
      <trkpt lat="43.13734" lon="3.07881">
        <ele>156.714</ele>
        <time>2021-09-25T08:57:56Z</time>
      </trkpt>
      <trkpt lat="43.13737" lon="3.07882">
        <ele>156.833</ele>
        <time>2021-09-25T08:57:58Z</time>
      </trkpt>
      <trkpt lat="43.1374" lon="3.07883">
        <ele>158.525</ele>
        <time>2021-09-25T08:58:00Z</time>
      </trkpt>
      <trkpt lat="43.13742" lon="3.07884">
        <ele>158.257</ele>
        <time>2021-09-25T08:58:02Z</time>
      </trkpt>
      <trkpt lat="43.13745" lon="3.07884">
        <ele>157.626</ele>
        <time>2021-09-25T08:58:04Z</time>
      </trkpt>
      <trkpt lat="43.13747" lon="3.07884">
        <ele>157.581</ele>
        <time>2021-09-25T08:58:06Z</time>
      </trkpt>
      <trkpt lat="43.13749" lon="3.07885">
        <ele>157.882</ele>
        <time>2021-09-25T08:58:08Z</time>
      </trkpt>
      <trkpt lat="43.13752" lon="3.07884">
        <ele>155.894</ele>
        <time>2021-09-25T08:58:10Z</time>
      </trkpt>
      <trkpt lat="43.13754" lon="3.07885">
        <ele>155.892</ele>
        <time>2021-09-25T08:58:12Z</time>
      </trkpt>
      <trkpt lat="43.13756" lon="3.07885">
        <ele>155.236</ele>
        <time>2021-09-25T08:58:14Z</time>
      </trkpt>
      <trkpt lat="43.13758" lon="3.07885">
        <ele>155.486</ele>
        <time>2021-09-25T08:58:16Z</time>
      </trkpt>
      <trkpt lat="43.1376" lon="3.07884">
        <ele>155.809</ele>
        <time>2021-09-25T08:58:18Z</time>
      </trkpt>
      <trkpt lat="43.13762" lon="3.07884">
        <ele>156.829</ele>
        <time>2021-09-25T08:58:20Z</time>
      </trkpt>
      <trkpt lat="43.13764" lon="3.07883">
        <ele>156.885</ele>
        <time>2021-09-25T08:58:22Z</time>
      </trkpt>
      <trkpt lat="43.13767" lon="3.07882">
        <ele>156.396</ele>
        <time>2021-09-25T08:58:24Z</time>
      </trkpt>
      <trkpt lat="43.13769" lon="3.07881">
        <ele>156.971</ele>
        <time>2021-09-25T08:58:26Z</time>
      </trkpt>
      <trkpt lat="43.13771" lon="3.07881">
        <ele>157.235</ele>
        <time>2021-09-25T08:58:28Z</time>
      </trkpt>
      <trkpt lat="43.13774" lon="3.0788">
        <ele>157.022</ele>
        <time>2021-09-25T08:58:30Z</time>
      </trkpt>
      <trkpt lat="43.13776" lon="3.07879">
        <ele>156.457</ele>
        <time>2021-09-25T08:58:32Z</time>
      </trkpt>
      <trkpt lat="43.13779" lon="3.07879">
        <ele>156.179</ele>
        <time>2021-09-25T08:58:34Z</time>
      </trkpt>
      <trkpt lat="43.13781" lon="3.07878">
        <ele>155.421</ele>
        <time>2021-09-25T08:58:36Z</time>
      </trkpt>
      <trkpt lat="43.13783" lon="3.07878">
        <ele>155.214</ele>
        <time>2021-09-25T08:58:38Z</time>
      </trkpt>
      <trkpt lat="43.13786" lon="3.07878">
        <ele>154.837</ele>
        <time>2021-09-25T08:58:40Z</time>
      </trkpt>
      <trkpt lat="43.13788" lon="3.07877">
        <ele>155.39</ele>
        <time>2021-09-25T08:58:42Z</time>
      </trkpt>
      <trkpt lat="43.1379" lon="3.07877">
        <ele>154.06</ele>
        <time>2021-09-25T08:58:44Z</time>
      </trkpt>
      <trkpt lat="43.13793" lon="3.07876">
        <ele>153.177</ele>
        <time>2021-09-25T08:58:46Z</time>
      </trkpt>
      <trkpt lat="43.13796" lon="3.07877">
        <ele>153.341</ele>
        <time>2021-09-25T08:58:48Z</time>
      </trkpt>
      <trkpt lat="43.13798" lon="3.07877">
        <ele>152.931</ele>
        <time>2021-09-25T08:58:50Z</time>
      </trkpt>
      <trkpt lat="43.13801" lon="3.07877">
        <ele>152.612</ele>
        <time>2021-09-25T08:58:52Z</time>
      </trkpt>
      <trkpt lat="43.13803" lon="3.07877">
        <ele>152.673</ele>
        <time>2021-09-25T08:58:54Z</time>
      </trkpt>
      <trkpt lat="43.13805" lon="3.07878">
        <ele>153.447</ele>
        <time>2021-09-25T08:58:56Z</time>
      </trkpt>
      <trkpt lat="43.13807" lon="3.07879">
        <ele>153.892</ele>
        <time>2021-09-25T08:58:58Z</time>
      </trkpt>
      <trkpt lat="43.13808" lon="3.07878">
        <ele>153.23</ele>
        <time>2021-09-25T08:59:00Z</time>
      </trkpt>
      <trkpt lat="43.13808" lon="3.07878">
        <ele>153.227</ele>
        <time>2021-09-25T08:59:02Z</time>
      </trkpt>
      <trkpt lat="43.13809" lon="3.07879">
        <ele>153.821</ele>
        <time>2021-09-25T08:59:04Z</time>
      </trkpt>
      <trkpt lat="43.13809" lon="3.07879">
        <ele>154.756</ele>
        <time>2021-09-25T08:59:06Z</time>
      </trkpt>
      <trkpt lat="43.13809" lon="3.07879">
        <ele>154.757</ele>
        <time>2021-09-25T08:59:08Z</time>
      </trkpt>
      <trkpt lat="43.13809" lon="3.07879">
        <ele>154.76</ele>
        <time>2021-09-25T08:59:10Z</time>
      </trkpt>
      <trkpt lat="43.13809" lon="3.07879">
        <ele>154.72</ele>
        <time>2021-09-25T08:59:12Z</time>
      </trkpt>
      <trkpt lat="43.13809" lon="3.0788">
        <ele>154.952</ele>
        <time>2021-09-25T08:59:14Z</time>
      </trkpt>
      <trkpt lat="43.13809" lon="3.0788">
        <ele>155.329</ele>
        <time>2021-09-25T08:59:16Z</time>
      </trkpt>
      <trkpt lat="43.13809" lon="3.0788">
        <ele>155.337</ele>
        <time>2021-09-25T08:59:18Z</time>
      </trkpt>
      <trkpt lat="43.13809" lon="3.0788">
        <ele>155.342</ele>
        <time>2021-09-25T08:59:20Z</time>
      </trkpt>
      <trkpt lat="43.13809" lon="3.0788">
        <ele>155.335</ele>
        <time>2021-09-25T08:59:22Z</time>
      </trkpt>
      <trkpt lat="43.13809" lon="3.0788">
        <ele>155.335</ele>
        <time>2021-09-25T08:59:24Z</time>
      </trkpt>
      <trkpt lat="43.13809" lon="3.0788">
        <ele>155.372</ele>
        <time>2021-09-25T08:59:26Z</time>
      </trkpt>
      <trkpt lat="43.13809" lon="3.0788">
        <ele>155.386</ele>
        <time>2021-09-25T08:59:28Z</time>
      </trkpt>
      <trkpt lat="43.13809" lon="3.0788">
        <ele>155.393</ele>
        <time>2021-09-25T08:59:30Z</time>
      </trkpt>
      <trkpt lat="43.13809" lon="3.07879">
        <ele>155.885</ele>
        <time>2021-09-25T08:59:32Z</time>
      </trkpt>
      <trkpt lat="43.1381" lon="3.07877">
        <ele>155.565</ele>
        <time>2021-09-25T08:59:34Z</time>
      </trkpt>
      <trkpt lat="43.13811" lon="3.07876">
        <ele>155.395</ele>
        <time>2021-09-25T08:59:36Z</time>
      </trkpt>
      <trkpt lat="43.13813" lon="3.07874">
        <ele>154.85</ele>
        <time>2021-09-25T08:59:38Z</time>
      </trkpt>
      <trkpt lat="43.13815" lon="3.07873">
        <ele>154.776</ele>
        <time>2021-09-25T08:59:40Z</time>
      </trkpt>
      <trkpt lat="43.13817" lon="3.0787">
        <ele>154.662</ele>
        <time>2021-09-25T08:59:42Z</time>
      </trkpt>
      <trkpt lat="43.13819" lon="3.07869">
        <ele>154.473</ele>
        <time>2021-09-25T08:59:44Z</time>
      </trkpt>
      <trkpt lat="43.13821" lon="3.07867">
        <ele>154.343</ele>
        <time>2021-09-25T08:59:46Z</time>
      </trkpt>
      <trkpt lat="43.13823" lon="3.07865">
        <ele>154.012</ele>
        <time>2021-09-25T08:59:48Z</time>
      </trkpt>
      <trkpt lat="43.13825" lon="3.07863">
        <ele>153.899</ele>
        <time>2021-09-25T08:59:50Z</time>
      </trkpt>
      <trkpt lat="43.13828" lon="3.0786">
        <ele>154.395</ele>
        <time>2021-09-25T08:59:52Z</time>
      </trkpt>
      <trkpt lat="43.13828" lon="3.07857">
        <ele>153.598</ele>
        <time>2021-09-25T08:59:54Z</time>
      </trkpt>
      <trkpt lat="43.13828" lon="3.07854">
        <ele>153.4</ele>
        <time>2021-09-25T08:59:56Z</time>
      </trkpt>
      <trkpt lat="43.13828" lon="3.07852">
        <ele>152.688</ele>
        <time>2021-09-25T08:59:58Z</time>
      </trkpt>
      <trkpt lat="43.13828" lon="3.07849">
        <ele>151.888</ele>
        <time>2021-09-25T09:00:00Z</time>
      </trkpt>
      <trkpt lat="43.13829" lon="3.07846">
        <ele>152.388</ele>
        <time>2021-09-25T09:00:02Z</time>
      </trkpt>
      <trkpt lat="43.1383" lon="3.07844">
        <ele>152.184</ele>
        <time>2021-09-25T09:00:04Z</time>
      </trkpt>
      <trkpt lat="43.13831" lon="3.07841">
        <ele>152.58</ele>
        <time>2021-09-25T09:00:06Z</time>
      </trkpt>
      <trkpt lat="43.13832" lon="3.07838">
        <ele>152.471</ele>
        <time>2021-09-25T09:00:08Z</time>
      </trkpt>
      <trkpt lat="43.13832" lon="3.07835">
        <ele>153.005</ele>
        <time>2021-09-25T09:00:10Z</time>
      </trkpt>
      <trkpt lat="43.13833" lon="3.07832">
        <ele>153.761</ele>
        <time>2021-09-25T09:00:12Z</time>
      </trkpt>
      <trkpt lat="43.13833" lon="3.0783">
        <ele>156.12</ele>
        <time>2021-09-25T09:00:14Z</time>
      </trkpt>
      <trkpt lat="43.13834" lon="3.07828">
        <ele>156.226</ele>
        <time>2021-09-25T09:00:16Z</time>
      </trkpt>
      <trkpt lat="43.13836" lon="3.07827">
        <ele>156.054</ele>
        <time>2021-09-25T09:00:18Z</time>
      </trkpt>
      <trkpt lat="43.13836" lon="3.07825">
        <ele>156.239</ele>
        <time>2021-09-25T09:00:20Z</time>
      </trkpt>
      <trkpt lat="43.13837" lon="3.07822">
        <ele>156.37</ele>
        <time>2021-09-25T09:00:22Z</time>
      </trkpt>
      <trkpt lat="43.13838" lon="3.07819">
        <ele>155.931</ele>
        <time>2021-09-25T09:00:24Z</time>
      </trkpt>
      <trkpt lat="43.13839" lon="3.07816">
        <ele>155.924</ele>
        <time>2021-09-25T09:00:26Z</time>
      </trkpt>
      <trkpt lat="43.1384" lon="3.07814">
        <ele>155.784</ele>
        <time>2021-09-25T09:00:28Z</time>
      </trkpt>
      <trkpt lat="43.13841" lon="3.0781">
        <ele>155.94</ele>
        <time>2021-09-25T09:00:30Z</time>
      </trkpt>
      <trkpt lat="43.13842" lon="3.07808">
        <ele>155.864</ele>
        <time>2021-09-25T09:00:32Z</time>
      </trkpt>
      <trkpt lat="43.13842" lon="3.07805">
        <ele>155.709</ele>
        <time>2021-09-25T09:00:34Z</time>
      </trkpt>
      <trkpt lat="43.13843" lon="3.07803">
        <ele>155.733</ele>
        <time>2021-09-25T09:00:36Z</time>
      </trkpt>
      <trkpt lat="43.13845" lon="3.078">
        <ele>155.781</ele>
        <time>2021-09-25T09:00:38Z</time>
      </trkpt>
      <trkpt lat="43.13846" lon="3.07797">
        <ele>155.409</ele>
        <time>2021-09-25T09:00:40Z</time>
      </trkpt>
      <trkpt lat="43.13847" lon="3.07795">
        <ele>155.261</ele>
        <time>2021-09-25T09:00:42Z</time>
      </trkpt>
      <trkpt lat="43.13848" lon="3.07792">
        <ele>155.952</ele>
        <time>2021-09-25T09:00:44Z</time>
      </trkpt>
      <trkpt lat="43.13848" lon="3.07789">
        <ele>156.827</ele>
        <time>2021-09-25T09:00:46Z</time>
      </trkpt>
      <trkpt lat="43.13849" lon="3.07786">
        <ele>156.583</ele>
        <time>2021-09-25T09:00:48Z</time>
      </trkpt>
      <trkpt lat="43.13849" lon="3.07783">
        <ele>156.069</ele>
        <time>2021-09-25T09:00:50Z</time>
      </trkpt>
      <trkpt lat="43.1385" lon="3.0778">
        <ele>156.431</ele>
        <time>2021-09-25T09:00:52Z</time>
      </trkpt>
      <trkpt lat="43.1385" lon="3.07778">
        <ele>156.854</ele>
        <time>2021-09-25T09:00:54Z</time>
      </trkpt>
      <trkpt lat="43.1385" lon="3.07775">
        <ele>157.119</ele>
        <time>2021-09-25T09:00:56Z</time>
      </trkpt>
      <trkpt lat="43.13851" lon="3.07773">
        <ele>157.227</ele>
        <time>2021-09-25T09:00:58Z</time>
      </trkpt>
      <trkpt lat="43.13853" lon="3.0777">
        <ele>157.102</ele>
        <time>2021-09-25T09:01:00Z</time>
      </trkpt>
      <trkpt lat="43.13855" lon="3.07768">
        <ele>156.949</ele>
        <time>2021-09-25T09:01:02Z</time>
      </trkpt>
      <trkpt lat="43.13857" lon="3.07766">
        <ele>157.452</ele>
        <time>2021-09-25T09:01:04Z</time>
      </trkpt>
      <trkpt lat="43.13858" lon="3.07764">
        <ele>156.878</ele>
        <time>2021-09-25T09:01:06Z</time>
      </trkpt>
      <trkpt lat="43.13859" lon="3.07762">
        <ele>156.626</ele>
        <time>2021-09-25T09:01:08Z</time>
      </trkpt>
      <trkpt lat="43.13861" lon="3.07759">
        <ele>155.819</ele>
        <time>2021-09-25T09:01:10Z</time>
      </trkpt>
      <trkpt lat="43.13862" lon="3.07757">
        <ele>155.379</ele>
        <time>2021-09-25T09:01:12Z</time>
      </trkpt>
      <trkpt lat="43.13863" lon="3.07755">
        <ele>155.33</ele>
        <time>2021-09-25T09:01:14Z</time>
      </trkpt>
      <trkpt lat="43.13865" lon="3.07753">
        <ele>154.933</ele>
        <time>2021-09-25T09:01:16Z</time>
      </trkpt>
      <trkpt lat="43.13867" lon="3.07751">
        <ele>155.049</ele>
        <time>2021-09-25T09:01:18Z</time>
      </trkpt>
      <trkpt lat="43.13869" lon="3.0775">
        <ele>155.231</ele>
        <time>2021-09-25T09:01:20Z</time>
      </trkpt>
      <trkpt lat="43.13871" lon="3.07749">
        <ele>154.432</ele>
        <time>2021-09-25T09:01:22Z</time>
      </trkpt>
      <trkpt lat="43.13873" lon="3.07747">
        <ele>154.707</ele>
        <time>2021-09-25T09:01:24Z</time>
      </trkpt>
      <trkpt lat="43.13875" lon="3.07746">
        <ele>154.365</ele>
        <time>2021-09-25T09:01:26Z</time>
      </trkpt>
      <trkpt lat="43.13878" lon="3.07745">
        <ele>154.542</ele>
        <time>2021-09-25T09:01:28Z</time>
      </trkpt>
      <trkpt lat="43.1388" lon="3.07743">
        <ele>154.135</ele>
        <time>2021-09-25T09:01:30Z</time>
      </trkpt>
      <trkpt lat="43.13882" lon="3.07741">
        <ele>153.793</ele>
        <time>2021-09-25T09:01:32Z</time>
      </trkpt>
      <trkpt lat="43.13884" lon="3.07739">
        <ele>153.942</ele>
        <time>2021-09-25T09:01:34Z</time>
      </trkpt>
      <trkpt lat="43.13886" lon="3.07737">
        <ele>153.712</ele>
        <time>2021-09-25T09:01:36Z</time>
      </trkpt>
      <trkpt lat="43.13888" lon="3.07735">
        <ele>153.757</ele>
        <time>2021-09-25T09:01:38Z</time>
      </trkpt>
      <trkpt lat="43.1389" lon="3.07734">
        <ele>154.469</ele>
        <time>2021-09-25T09:01:40Z</time>
      </trkpt>
      <trkpt lat="43.13892" lon="3.07732">
        <ele>154.76</ele>
        <time>2021-09-25T09:01:42Z</time>
      </trkpt>
      <trkpt lat="43.13894" lon="3.0773">
        <ele>154.881</ele>
        <time>2021-09-25T09:01:44Z</time>
      </trkpt>
      <trkpt lat="43.13896" lon="3.07729">
        <ele>155.043</ele>
        <time>2021-09-25T09:01:46Z</time>
      </trkpt>
      <trkpt lat="43.13899" lon="3.07727">
        <ele>155.792</ele>
        <time>2021-09-25T09:01:48Z</time>
      </trkpt>
      <trkpt lat="43.13901" lon="3.07726">
        <ele>156.038</ele>
        <time>2021-09-25T09:01:50Z</time>
      </trkpt>
      <trkpt lat="43.13903" lon="3.07724">
        <ele>155.521</ele>
        <time>2021-09-25T09:01:52Z</time>
      </trkpt>
      <trkpt lat="43.13905" lon="3.07722">
        <ele>154.266</ele>
        <time>2021-09-25T09:01:54Z</time>
      </trkpt>
      <trkpt lat="43.13908" lon="3.07721">
        <ele>154.087</ele>
        <time>2021-09-25T09:01:56Z</time>
      </trkpt>
      <trkpt lat="43.1391" lon="3.07719">
        <ele>154.392</ele>
        <time>2021-09-25T09:01:58Z</time>
      </trkpt>
      <trkpt lat="43.13912" lon="3.07717">
        <ele>154.646</ele>
        <time>2021-09-25T09:02:00Z</time>
      </trkpt>
      <trkpt lat="43.13914" lon="3.07716">
        <ele>155.247</ele>
        <time>2021-09-25T09:02:02Z</time>
      </trkpt>
      <trkpt lat="43.13916" lon="3.07714">
        <ele>155.218</ele>
        <time>2021-09-25T09:02:04Z</time>
      </trkpt>
      <trkpt lat="43.13918" lon="3.07714">
        <ele>155.157</ele>
        <time>2021-09-25T09:02:06Z</time>
      </trkpt>
      <trkpt lat="43.1392" lon="3.07713">
        <ele>155.424</ele>
        <time>2021-09-25T09:02:08Z</time>
      </trkpt>
      <trkpt lat="43.13923" lon="3.07712">
        <ele>155.341</ele>
        <time>2021-09-25T09:02:10Z</time>
      </trkpt>
      <trkpt lat="43.13925" lon="3.07711">
        <ele>155.077</ele>
        <time>2021-09-25T09:02:12Z</time>
      </trkpt>
      <trkpt lat="43.13927" lon="3.0771">
        <ele>155.223</ele>
        <time>2021-09-25T09:02:14Z</time>
      </trkpt>
      <trkpt lat="43.13929" lon="3.07709">
        <ele>154.738</ele>
        <time>2021-09-25T09:02:16Z</time>
      </trkpt>
      <trkpt lat="43.13931" lon="3.07709">
        <ele>154.687</ele>
        <time>2021-09-25T09:02:18Z</time>
      </trkpt>
      <trkpt lat="43.13933" lon="3.07708">
        <ele>154.978</ele>
        <time>2021-09-25T09:02:20Z</time>
      </trkpt>
      <trkpt lat="43.13934" lon="3.07708">
        <ele>155.02</ele>
        <time>2021-09-25T09:02:22Z</time>
      </trkpt>
      <trkpt lat="43.13935" lon="3.07708">
        <ele>155.566</ele>
        <time>2021-09-25T09:02:24Z</time>
      </trkpt>
      <trkpt lat="43.13937" lon="3.07708">
        <ele>155.975</ele>
        <time>2021-09-25T09:02:26Z</time>
      </trkpt>
      <trkpt lat="43.13939" lon="3.07708">
        <ele>155.779</ele>
        <time>2021-09-25T09:02:28Z</time>
      </trkpt>
      <trkpt lat="43.13941" lon="3.07707">
        <ele>155.562</ele>
        <time>2021-09-25T09:02:30Z</time>
      </trkpt>
      <trkpt lat="43.13943" lon="3.07708">
        <ele>155.734</ele>
        <time>2021-09-25T09:02:32Z</time>
      </trkpt>
      <trkpt lat="43.13945" lon="3.07707">
        <ele>155.126</ele>
        <time>2021-09-25T09:02:34Z</time>
      </trkpt>
      <trkpt lat="43.13947" lon="3.07706">
        <ele>155.609</ele>
        <time>2021-09-25T09:02:36Z</time>
      </trkpt>
      <trkpt lat="43.13948" lon="3.07705">
        <ele>155.571</ele>
        <time>2021-09-25T09:02:38Z</time>
      </trkpt>
      <trkpt lat="43.1395" lon="3.07704">
        <ele>155.996</ele>
        <time>2021-09-25T09:02:40Z</time>
      </trkpt>
      <trkpt lat="43.13952" lon="3.07702">
        <ele>155.868</ele>
        <time>2021-09-25T09:02:42Z</time>
      </trkpt>
      <trkpt lat="43.13954" lon="3.07702">
        <ele>155.955</ele>
        <time>2021-09-25T09:02:44Z</time>
      </trkpt>
      <trkpt lat="43.13956" lon="3.07703">
        <ele>155.813</ele>
        <time>2021-09-25T09:02:46Z</time>
      </trkpt>
      <trkpt lat="43.13958" lon="3.07704">
        <ele>155.756</ele>
        <time>2021-09-25T09:02:48Z</time>
      </trkpt>
      <trkpt lat="43.1396" lon="3.07704">
        <ele>155.759</ele>
        <time>2021-09-25T09:02:50Z</time>
      </trkpt>
      <trkpt lat="43.13963" lon="3.07703">
        <ele>156.348</ele>
        <time>2021-09-25T09:02:52Z</time>
      </trkpt>
      <trkpt lat="43.13965" lon="3.07702">
        <ele>157.033</ele>
        <time>2021-09-25T09:02:54Z</time>
      </trkpt>
      <trkpt lat="43.13967" lon="3.07701">
        <ele>156.858</ele>
        <time>2021-09-25T09:02:56Z</time>
      </trkpt>
      <trkpt lat="43.13969" lon="3.07701">
        <ele>157.917</ele>
        <time>2021-09-25T09:02:58Z</time>
      </trkpt>
      <trkpt lat="43.13971" lon="3.077">
        <ele>157.563</ele>
        <time>2021-09-25T09:03:00Z</time>
      </trkpt>
      <trkpt lat="43.13973" lon="3.077">
        <ele>157.266</ele>
        <time>2021-09-25T09:03:02Z</time>
      </trkpt>
      <trkpt lat="43.13975" lon="3.07699">
        <ele>157.337</ele>
        <time>2021-09-25T09:03:04Z</time>
      </trkpt>
      <trkpt lat="43.13977" lon="3.07698">
        <ele>157.42</ele>
        <time>2021-09-25T09:03:06Z</time>
      </trkpt>
      <trkpt lat="43.13979" lon="3.07697">
        <ele>157.192</ele>
        <time>2021-09-25T09:03:08Z</time>
      </trkpt>
      <trkpt lat="43.13981" lon="3.07696">
        <ele>156.968</ele>
        <time>2021-09-25T09:03:10Z</time>
      </trkpt>
      <trkpt lat="43.13983" lon="3.07695">
        <ele>157.674</ele>
        <time>2021-09-25T09:03:12Z</time>
      </trkpt>
      <trkpt lat="43.13985" lon="3.07694">
        <ele>157.848</ele>
        <time>2021-09-25T09:03:14Z</time>
      </trkpt>
      <trkpt lat="43.13987" lon="3.07693">
        <ele>157.154</ele>
        <time>2021-09-25T09:03:16Z</time>
      </trkpt>
      <trkpt lat="43.13989" lon="3.07693">
        <ele>157.403</ele>
        <time>2021-09-25T09:03:18Z</time>
      </trkpt>
      <trkpt lat="43.13991" lon="3.07692">
        <ele>157.292</ele>
        <time>2021-09-25T09:03:20Z</time>
      </trkpt>
      <trkpt lat="43.13993" lon="3.07691">
        <ele>157.413</ele>
        <time>2021-09-25T09:03:22Z</time>
      </trkpt>
      <trkpt lat="43.13995" lon="3.07689">
        <ele>157.761</ele>
        <time>2021-09-25T09:03:24Z</time>
      </trkpt>
      <trkpt lat="43.13997" lon="3.07688">
        <ele>157.901</ele>
        <time>2021-09-25T09:03:26Z</time>
      </trkpt>
      <trkpt lat="43.13999" lon="3.07687">
        <ele>158.019</ele>
        <time>2021-09-25T09:03:28Z</time>
      </trkpt>
      <trkpt lat="43.14001" lon="3.07685">
        <ele>157.426</ele>
        <time>2021-09-25T09:03:30Z</time>
      </trkpt>
      <trkpt lat="43.14003" lon="3.07683">
        <ele>157.352</ele>
        <time>2021-09-25T09:03:32Z</time>
      </trkpt>
      <trkpt lat="43.14004" lon="3.07682">
        <ele>157.476</ele>
        <time>2021-09-25T09:03:34Z</time>
      </trkpt>
      <trkpt lat="43.14004" lon="3.07678">
        <ele>158.158</ele>
        <time>2021-09-25T09:03:36Z</time>
      </trkpt>
      <trkpt lat="43.14006" lon="3.07677">
        <ele>158.686</ele>
        <time>2021-09-25T09:03:38Z</time>
      </trkpt>
      <trkpt lat="43.14008" lon="3.07677">
        <ele>158.5</ele>
        <time>2021-09-25T09:03:40Z</time>
      </trkpt>
      <trkpt lat="43.1401" lon="3.07677">
        <ele>158.489</ele>
        <time>2021-09-25T09:03:42Z</time>
      </trkpt>
      <trkpt lat="43.14012" lon="3.07675">
        <ele>158.873</ele>
        <time>2021-09-25T09:03:44Z</time>
      </trkpt>
      <trkpt lat="43.14014" lon="3.07673">
        <ele>159.33</ele>
        <time>2021-09-25T09:03:46Z</time>
      </trkpt>
      <trkpt lat="43.14015" lon="3.07672">
        <ele>160.105</ele>
        <time>2021-09-25T09:03:48Z</time>
      </trkpt>
      <trkpt lat="43.14016" lon="3.07672">
        <ele>160.659</ele>
        <time>2021-09-25T09:03:50Z</time>
      </trkpt>
      <trkpt lat="43.14016" lon="3.07672">
        <ele>160.658</ele>
        <time>2021-09-25T09:03:52Z</time>
      </trkpt>
      <trkpt lat="43.14016" lon="3.07672">
        <ele>160.659</ele>
        <time>2021-09-25T09:03:54Z</time>
      </trkpt>
      <trkpt lat="43.14016" lon="3.07672">
        <ele>160.661</ele>
        <time>2021-09-25T09:03:56Z</time>
      </trkpt>
      <trkpt lat="43.14016" lon="3.07672">
        <ele>160.665</ele>
        <time>2021-09-25T09:03:58Z</time>
      </trkpt>
      <trkpt lat="43.14017" lon="3.07672">
        <ele>160.398</ele>
        <time>2021-09-25T09:04:00Z</time>
      </trkpt>
      <trkpt lat="43.14018" lon="3.07671">
        <ele>160.146</ele>
        <time>2021-09-25T09:04:02Z</time>
      </trkpt>
      <trkpt lat="43.1402" lon="3.07671">
        <ele>161.197</ele>
        <time>2021-09-25T09:04:04Z</time>
      </trkpt>
      <trkpt lat="43.14022" lon="3.0767">
        <ele>161.998</ele>
        <time>2021-09-25T09:04:06Z</time>
      </trkpt>
      <trkpt lat="43.14023" lon="3.07669">
        <ele>161.826</ele>
        <time>2021-09-25T09:04:08Z</time>
      </trkpt>
      <trkpt lat="43.14024" lon="3.07667">
        <ele>162.119</ele>
        <time>2021-09-25T09:04:10Z</time>
      </trkpt>
      <trkpt lat="43.14026" lon="3.07666">
        <ele>162.494</ele>
        <time>2021-09-25T09:04:12Z</time>
      </trkpt>
      <trkpt lat="43.14027" lon="3.07666">
        <ele>163.367</ele>
        <time>2021-09-25T09:04:14Z</time>
      </trkpt>
      <trkpt lat="43.14028" lon="3.07665">
        <ele>164.612</ele>
        <time>2021-09-25T09:04:16Z</time>
      </trkpt>
      <trkpt lat="43.14029" lon="3.07665">
        <ele>164.967</ele>
        <time>2021-09-25T09:04:18Z</time>
      </trkpt>
      <trkpt lat="43.1403" lon="3.07665">
        <ele>165.758</ele>
        <time>2021-09-25T09:04:20Z</time>
      </trkpt>
      <trkpt lat="43.14029" lon="3.07665">
        <ele>165.283</ele>
        <time>2021-09-25T09:04:22Z</time>
      </trkpt>
      <trkpt lat="43.14029" lon="3.07665">
        <ele>165.284</ele>
        <time>2021-09-25T09:04:24Z</time>
      </trkpt>
      <trkpt lat="43.14029" lon="3.07665">
        <ele>165.282</ele>
        <time>2021-09-25T09:04:26Z</time>
      </trkpt>
      <trkpt lat="43.14029" lon="3.07665">
        <ele>165.281</ele>
        <time>2021-09-25T09:04:28Z</time>
      </trkpt>
      <trkpt lat="43.14029" lon="3.07665">
        <ele>165.279</ele>
        <time>2021-09-25T09:04:30Z</time>
      </trkpt>
      <trkpt lat="43.14029" lon="3.07665">
        <ele>165.278</ele>
        <time>2021-09-25T09:04:32Z</time>
      </trkpt>
      <trkpt lat="43.14029" lon="3.07665">
        <ele>165.276</ele>
        <time>2021-09-25T09:04:34Z</time>
      </trkpt>
      <trkpt lat="43.14029" lon="3.07665">
        <ele>165.273</ele>
        <time>2021-09-25T09:04:36Z</time>
      </trkpt>
      <trkpt lat="43.14029" lon="3.07665">
        <ele>165.275</ele>
        <time>2021-09-25T09:04:38Z</time>
      </trkpt>
      <trkpt lat="43.14029" lon="3.07665">
        <ele>165.274</ele>
        <time>2021-09-25T09:04:40Z</time>
      </trkpt>
      <trkpt lat="43.14029" lon="3.07665">
        <ele>165.282</ele>
        <time>2021-09-25T09:04:42Z</time>
      </trkpt>
      <trkpt lat="43.14029" lon="3.07666">
        <ele>165.28</ele>
        <time>2021-09-25T09:04:44Z</time>
      </trkpt>
      <trkpt lat="43.14029" lon="3.07666">
        <ele>165.187</ele>
        <time>2021-09-25T09:04:46Z</time>
      </trkpt>
      <trkpt lat="43.14029" lon="3.07666">
        <ele>164.008</ele>
        <time>2021-09-25T09:04:48Z</time>
      </trkpt>
      <trkpt lat="43.1403" lon="3.07665">
        <ele>163.431</ele>
        <time>2021-09-25T09:04:50Z</time>
      </trkpt>
      <trkpt lat="43.1403" lon="3.07665">
        <ele>163.154</ele>
        <time>2021-09-25T09:04:52Z</time>
      </trkpt>
      <trkpt lat="43.14032" lon="3.07665">
        <ele>163.213</ele>
        <time>2021-09-25T09:04:54Z</time>
      </trkpt>
      <trkpt lat="43.14032" lon="3.07666">
        <ele>162.63</ele>
        <time>2021-09-25T09:04:56Z</time>
      </trkpt>
      <trkpt lat="43.14033" lon="3.07665">
        <ele>162.414</ele>
        <time>2021-09-25T09:04:58Z</time>
      </trkpt>
      <trkpt lat="43.14034" lon="3.07664">
        <ele>162.175</ele>
        <time>2021-09-25T09:05:00Z</time>
      </trkpt>
      <trkpt lat="43.14035" lon="3.07664">
        <ele>161.838</ele>
        <time>2021-09-25T09:05:02Z</time>
      </trkpt>
      <trkpt lat="43.14037" lon="3.07663">
        <ele>161.366</ele>
        <time>2021-09-25T09:05:04Z</time>
      </trkpt>
      <trkpt lat="43.14038" lon="3.07662">
        <ele>161.396</ele>
        <time>2021-09-25T09:05:06Z</time>
      </trkpt>
      <trkpt lat="43.14039" lon="3.07661">
        <ele>161.485</ele>
        <time>2021-09-25T09:05:08Z</time>
      </trkpt>
      <trkpt lat="43.14041" lon="3.07661">
        <ele>161.328</ele>
        <time>2021-09-25T09:05:10Z</time>
      </trkpt>
      <trkpt lat="43.14042" lon="3.0766">
        <ele>161.318</ele>
        <time>2021-09-25T09:05:12Z</time>
      </trkpt>
      <trkpt lat="43.14044" lon="3.07659">
        <ele>161.44</ele>
        <time>2021-09-25T09:05:14Z</time>
      </trkpt>
      <trkpt lat="43.14044" lon="3.07659">
        <ele>161.499</ele>
        <time>2021-09-25T09:05:16Z</time>
      </trkpt>
      <trkpt lat="43.14044" lon="3.07659">
        <ele>161.503</ele>
        <time>2021-09-25T09:05:18Z</time>
      </trkpt>
      <trkpt lat="43.14044" lon="3.07659">
        <ele>161.506</ele>
        <time>2021-09-25T09:05:20Z</time>
      </trkpt>
      <trkpt lat="43.14044" lon="3.07659">
        <ele>161.508</ele>
        <time>2021-09-25T09:05:22Z</time>
      </trkpt>
      <trkpt lat="43.14044" lon="3.07659">
        <ele>161.508</ele>
        <time>2021-09-25T09:05:24Z</time>
      </trkpt>
      <trkpt lat="43.14044" lon="3.07659">
        <ele>161.498</ele>
        <time>2021-09-25T09:05:26Z</time>
      </trkpt>
      <trkpt lat="43.14045" lon="3.07658">
        <ele>161.87</ele>
        <time>2021-09-25T09:05:28Z</time>
      </trkpt>
      <trkpt lat="43.14046" lon="3.07657">
        <ele>161.904</ele>
        <time>2021-09-25T09:05:30Z</time>
      </trkpt>
      <trkpt lat="43.14047" lon="3.07657">
        <ele>161.612</ele>
        <time>2021-09-25T09:05:32Z</time>
      </trkpt>
      <trkpt lat="43.14047" lon="3.07657">
        <ele>161.61</ele>
        <time>2021-09-25T09:05:34Z</time>
      </trkpt>
      <trkpt lat="43.14047" lon="3.07657">
        <ele>161.613</ele>
        <time>2021-09-25T09:05:36Z</time>
      </trkpt>
      <trkpt lat="43.14047" lon="3.07657">
        <ele>161.702</ele>
        <time>2021-09-25T09:05:38Z</time>
      </trkpt>
      <trkpt lat="43.14047" lon="3.07657">
        <ele>161.466</ele>
        <time>2021-09-25T09:05:40Z</time>
      </trkpt>
      <trkpt lat="43.14047" lon="3.07657">
        <ele>161.471</ele>
        <time>2021-09-25T09:05:42Z</time>
      </trkpt>
      <trkpt lat="43.14047" lon="3.07657">
        <ele>161.479</ele>
        <time>2021-09-25T09:05:44Z</time>
      </trkpt>
      <trkpt lat="43.14047" lon="3.07657">
        <ele>161.485</ele>
        <time>2021-09-25T09:05:46Z</time>
      </trkpt>
      <trkpt lat="43.14047" lon="3.07657">
        <ele>161.489</ele>
        <time>2021-09-25T09:05:48Z</time>
      </trkpt>
      <trkpt lat="43.14047" lon="3.07657">
        <ele>161.495</ele>
        <time>2021-09-25T09:05:50Z</time>
      </trkpt>
      <trkpt lat="43.14047" lon="3.07657">
        <ele>161.499</ele>
        <time>2021-09-25T09:05:52Z</time>
      </trkpt>
      <trkpt lat="43.14047" lon="3.07657">
        <ele>161.499</ele>
        <time>2021-09-25T09:05:54Z</time>
      </trkpt>
      <trkpt lat="43.14047" lon="3.07656">
        <ele>161.58</ele>
        <time>2021-09-25T09:05:56Z</time>
      </trkpt>
      <trkpt lat="43.14047" lon="3.07656">
        <ele>161.788</ele>
        <time>2021-09-25T09:05:58Z</time>
      </trkpt>
      <trkpt lat="43.14047" lon="3.07656">
        <ele>161.797</ele>
        <time>2021-09-25T09:06:00Z</time>
      </trkpt>
      <trkpt lat="43.14047" lon="3.07656">
        <ele>161.802</ele>
        <time>2021-09-25T09:06:02Z</time>
      </trkpt>
      <trkpt lat="43.14048" lon="3.07656">
        <ele>161.618</ele>
        <time>2021-09-25T09:06:04Z</time>
      </trkpt>
      <trkpt lat="43.14049" lon="3.07656">
        <ele>161.779</ele>
        <time>2021-09-25T09:06:06Z</time>
      </trkpt>
      <trkpt lat="43.1405" lon="3.07655">
        <ele>162.034</ele>
        <time>2021-09-25T09:06:08Z</time>
      </trkpt>
      <trkpt lat="43.1405" lon="3.07655">
        <ele>162.089</ele>
        <time>2021-09-25T09:06:10Z</time>
      </trkpt>
      <trkpt lat="43.1405" lon="3.07655">
        <ele>162.093</ele>
        <time>2021-09-25T09:06:12Z</time>
      </trkpt>
      <trkpt lat="43.1405" lon="3.07655">
        <ele>162.03</ele>
        <time>2021-09-25T09:06:14Z</time>
      </trkpt>
      <trkpt lat="43.14051" lon="3.07655">
        <ele>162.061</ele>
        <time>2021-09-25T09:06:16Z</time>
      </trkpt>
      <trkpt lat="43.14052" lon="3.07655">
        <ele>162.48</ele>
        <time>2021-09-25T09:06:18Z</time>
      </trkpt>
      <trkpt lat="43.14052" lon="3.07655">
        <ele>162.707</ele>
        <time>2021-09-25T09:06:20Z</time>
      </trkpt>
      <trkpt lat="43.14052" lon="3.07655">
        <ele>162.71</ele>
        <time>2021-09-25T09:06:22Z</time>
      </trkpt>
      <trkpt lat="43.14053" lon="3.07655">
        <ele>162.462</ele>
        <time>2021-09-25T09:06:24Z</time>
      </trkpt>
      <trkpt lat="43.14054" lon="3.07655">
        <ele>162.687</ele>
        <time>2021-09-25T09:06:26Z</time>
      </trkpt>
      <trkpt lat="43.14055" lon="3.07655">
        <ele>162.663</ele>
        <time>2021-09-25T09:06:28Z</time>
      </trkpt>
      <trkpt lat="43.14055" lon="3.07656">
        <ele>162.987</ele>
        <time>2021-09-25T09:06:30Z</time>
      </trkpt>
      <trkpt lat="43.14055" lon="3.07656">
        <ele>162.898</ele>
        <time>2021-09-25T09:06:32Z</time>
      </trkpt>
      <trkpt lat="43.14055" lon="3.07656">
        <ele>162.899</ele>
        <time>2021-09-25T09:06:34Z</time>
      </trkpt>
      <trkpt lat="43.14055" lon="3.07656">
        <ele>162.898</ele>
        <time>2021-09-25T09:06:36Z</time>
      </trkpt>
      <trkpt lat="43.14055" lon="3.07656">
        <ele>162.9</ele>
        <time>2021-09-25T09:06:38Z</time>
      </trkpt>
      <trkpt lat="43.14055" lon="3.07656">
        <ele>162.902</ele>
        <time>2021-09-25T09:06:40Z</time>
      </trkpt>
      <trkpt lat="43.14055" lon="3.07656">
        <ele>162.901</ele>
        <time>2021-09-25T09:06:42Z</time>
      </trkpt>
      <trkpt lat="43.14055" lon="3.07656">
        <ele>162.902</ele>
        <time>2021-09-25T09:06:44Z</time>
      </trkpt>
      <trkpt lat="43.14055" lon="3.07656">
        <ele>162.899</ele>
        <time>2021-09-25T09:06:46Z</time>
      </trkpt>
      <trkpt lat="43.14055" lon="3.07656">
        <ele>162.898</ele>
        <time>2021-09-25T09:06:48Z</time>
      </trkpt>
      <trkpt lat="43.14055" lon="3.07656">
        <ele>163.064</ele>
        <time>2021-09-25T09:06:50Z</time>
      </trkpt>
      <trkpt lat="43.14056" lon="3.07656">
        <ele>162.897</ele>
        <time>2021-09-25T09:06:52Z</time>
      </trkpt>
      <trkpt lat="43.14056" lon="3.07656">
        <ele>162.908</ele>
        <time>2021-09-25T09:06:54Z</time>
      </trkpt>
      <trkpt lat="43.14056" lon="3.07656">
        <ele>162.911</ele>
        <time>2021-09-25T09:06:56Z</time>
      </trkpt>
      <trkpt lat="43.14056" lon="3.07656">
        <ele>162.635</ele>
        <time>2021-09-25T09:06:58Z</time>
      </trkpt>
      <trkpt lat="43.14057" lon="3.07656">
        <ele>162.766</ele>
        <time>2021-09-25T09:07:00Z</time>
      </trkpt>
      <trkpt lat="43.14057" lon="3.07656">
        <ele>162.959</ele>
        <time>2021-09-25T09:07:02Z</time>
      </trkpt>
      <trkpt lat="43.14057" lon="3.07656">
        <ele>162.964</ele>
        <time>2021-09-25T09:07:04Z</time>
      </trkpt>
      <trkpt lat="43.14057" lon="3.07656">
        <ele>162.968</ele>
        <time>2021-09-25T09:07:06Z</time>
      </trkpt>
      <trkpt lat="43.14057" lon="3.07656">
        <ele>162.969</ele>
        <time>2021-09-25T09:07:08Z</time>
      </trkpt>
      <trkpt lat="43.14057" lon="3.07656">
        <ele>162.969</ele>
        <time>2021-09-25T09:07:10Z</time>
      </trkpt>
      <trkpt lat="43.14058" lon="3.07656">
        <ele>163.302</ele>
        <time>2021-09-25T09:07:12Z</time>
      </trkpt>
      <trkpt lat="43.14058" lon="3.07656">
        <ele>163.308</ele>
        <time>2021-09-25T09:07:14Z</time>
      </trkpt>
      <trkpt lat="43.14058" lon="3.07656">
        <ele>163.311</ele>
        <time>2021-09-25T09:07:16Z</time>
      </trkpt>
      <trkpt lat="43.14058" lon="3.07656">
        <ele>163.31</ele>
        <time>2021-09-25T09:07:18Z</time>
      </trkpt>
      <trkpt lat="43.14058" lon="3.07656">
        <ele>163.311</ele>
        <time>2021-09-25T09:07:20Z</time>
      </trkpt>
      <trkpt lat="43.14058" lon="3.07656">
        <ele>163.313</ele>
        <time>2021-09-25T09:07:22Z</time>
      </trkpt>
      <trkpt lat="43.14058" lon="3.07656">
        <ele>163.311</ele>
        <time>2021-09-25T09:07:24Z</time>
      </trkpt>
      <trkpt lat="43.14059" lon="3.07656">
        <ele>163.101</ele>
        <time>2021-09-25T09:07:26Z</time>
      </trkpt>
      <trkpt lat="43.1406" lon="3.07656">
        <ele>163.303</ele>
        <time>2021-09-25T09:07:28Z</time>
      </trkpt>
      <trkpt lat="43.14061" lon="3.07656">
        <ele>163.604</ele>
        <time>2021-09-25T09:07:30Z</time>
      </trkpt>
      <trkpt lat="43.14063" lon="3.07656">
        <ele>163.603</ele>
        <time>2021-09-25T09:07:32Z</time>
      </trkpt>
      <trkpt lat="43.14064" lon="3.07655">
        <ele>163.65</ele>
        <time>2021-09-25T09:07:34Z</time>
      </trkpt>
      <trkpt lat="43.14065" lon="3.07655">
        <ele>164.129</ele>
        <time>2021-09-25T09:07:36Z</time>
      </trkpt>
      <trkpt lat="43.14067" lon="3.07655">
        <ele>164.074</ele>
        <time>2021-09-25T09:07:38Z</time>
      </trkpt>
      <trkpt lat="43.14068" lon="3.07654">
        <ele>164.23</ele>
        <time>2021-09-25T09:07:40Z</time>
      </trkpt>
      <trkpt lat="43.14069" lon="3.07653">
        <ele>164.049</ele>
        <time>2021-09-25T09:07:42Z</time>
      </trkpt>
      <trkpt lat="43.1407" lon="3.07653">
        <ele>164.301</ele>
        <time>2021-09-25T09:07:44Z</time>
      </trkpt>
      <trkpt lat="43.1407" lon="3.07653">
        <ele>164.32</ele>
        <time>2021-09-25T09:07:46Z</time>
      </trkpt>
      <trkpt lat="43.1407" lon="3.07653">
        <ele>164.324</ele>
        <time>2021-09-25T09:07:48Z</time>
      </trkpt>
      <trkpt lat="43.1407" lon="3.07653">
        <ele>164.327</ele>
        <time>2021-09-25T09:07:50Z</time>
      </trkpt>
      <trkpt lat="43.1407" lon="3.07653">
        <ele>164.472</ele>
        <time>2021-09-25T09:07:52Z</time>
      </trkpt>
      <trkpt lat="43.14071" lon="3.07653">
        <ele>164.514</ele>
        <time>2021-09-25T09:07:54Z</time>
      </trkpt>
      <trkpt lat="43.14072" lon="3.07653">
        <ele>164.359</ele>
        <time>2021-09-25T09:07:56Z</time>
      </trkpt>
      <trkpt lat="43.14074" lon="3.07653">
        <ele>164.319</ele>
        <time>2021-09-25T09:07:58Z</time>
      </trkpt>
      <trkpt lat="43.14075" lon="3.07654">
        <ele>164.43</ele>
        <time>2021-09-25T09:08:00Z</time>
      </trkpt>
      <trkpt lat="43.14077" lon="3.07654">
        <ele>164.491</ele>
        <time>2021-09-25T09:08:02Z</time>
      </trkpt>
      <trkpt lat="43.14078" lon="3.07655">
        <ele>164.506</ele>
        <time>2021-09-25T09:08:04Z</time>
      </trkpt>
      <trkpt lat="43.14079" lon="3.07656">
        <ele>164.463</ele>
        <time>2021-09-25T09:08:06Z</time>
      </trkpt>
      <trkpt lat="43.1408" lon="3.07657">
        <ele>164.503</ele>
        <time>2021-09-25T09:08:08Z</time>
      </trkpt>
      <trkpt lat="43.14082" lon="3.07658">
        <ele>164.335</ele>
        <time>2021-09-25T09:08:10Z</time>
      </trkpt>
      <trkpt lat="43.14082" lon="3.07658">
        <ele>164.405</ele>
        <time>2021-09-25T09:08:12Z</time>
      </trkpt>
      <trkpt lat="43.14082" lon="3.07658">
        <ele>164.409</ele>
        <time>2021-09-25T09:08:14Z</time>
      </trkpt>
      <trkpt lat="43.14082" lon="3.07658">
        <ele>164.357</ele>
        <time>2021-09-25T09:08:16Z</time>
      </trkpt>
      <trkpt lat="43.14083" lon="3.07659">
        <ele>164.549</ele>
        <time>2021-09-25T09:08:18Z</time>
      </trkpt>
      <trkpt lat="43.14085" lon="3.0766">
        <ele>164.682</ele>
        <time>2021-09-25T09:08:20Z</time>
      </trkpt>
      <trkpt lat="43.14086" lon="3.07661">
        <ele>164.569</ele>
        <time>2021-09-25T09:08:22Z</time>
      </trkpt>
      <trkpt lat="43.14088" lon="3.07662">
        <ele>164.774</ele>
        <time>2021-09-25T09:08:24Z</time>
      </trkpt>
      <trkpt lat="43.14089" lon="3.07663">
        <ele>164.974</ele>
        <time>2021-09-25T09:08:26Z</time>
      </trkpt>
      <trkpt lat="43.14091" lon="3.07663">
        <ele>165.091</ele>
        <time>2021-09-25T09:08:28Z</time>
      </trkpt>
      <trkpt lat="43.14093" lon="3.07662">
        <ele>164.958</ele>
        <time>2021-09-25T09:08:30Z</time>
      </trkpt>
      <trkpt lat="43.14095" lon="3.07662">
        <ele>165.17</ele>
        <time>2021-09-25T09:08:32Z</time>
      </trkpt>
      <trkpt lat="43.14096" lon="3.07662">
        <ele>165.147</ele>
        <time>2021-09-25T09:08:34Z</time>
      </trkpt>
      <trkpt lat="43.14096" lon="3.07663">
        <ele>165.149</ele>
        <time>2021-09-25T09:08:36Z</time>
      </trkpt>
      <trkpt lat="43.14096" lon="3.07663">
        <ele>165.153</ele>
        <time>2021-09-25T09:08:38Z</time>
      </trkpt>
      <trkpt lat="43.14096" lon="3.07663">
        <ele>165.152</ele>
        <time>2021-09-25T09:08:40Z</time>
      </trkpt>
      <trkpt lat="43.14096" lon="3.07663">
        <ele>165.152</ele>
        <time>2021-09-25T09:08:42Z</time>
      </trkpt>
      <trkpt lat="43.14097" lon="3.07663">
        <ele>165.275</ele>
        <time>2021-09-25T09:08:44Z</time>
      </trkpt>
      <trkpt lat="43.14099" lon="3.07664">
        <ele>165.459</ele>
        <time>2021-09-25T09:08:46Z</time>
      </trkpt>
      <trkpt lat="43.141" lon="3.07664">
        <ele>165.649</ele>
        <time>2021-09-25T09:08:48Z</time>
      </trkpt>
      <trkpt lat="43.141" lon="3.07664">
        <ele>165.642</ele>
        <time>2021-09-25T09:08:50Z</time>
      </trkpt>
      <trkpt lat="43.141" lon="3.07664">
        <ele>165.643</ele>
        <time>2021-09-25T09:08:52Z</time>
      </trkpt>
      <trkpt lat="43.14101" lon="3.07664">
        <ele>165.768</ele>
        <time>2021-09-25T09:08:54Z</time>
      </trkpt>
      <trkpt lat="43.14102" lon="3.07664">
        <ele>165.655</ele>
        <time>2021-09-25T09:08:56Z</time>
      </trkpt>
      <trkpt lat="43.14102" lon="3.07664">
        <ele>165.657</ele>
        <time>2021-09-25T09:08:58Z</time>
      </trkpt>
      <trkpt lat="43.14102" lon="3.07664">
        <ele>165.658</ele>
        <time>2021-09-25T09:09:00Z</time>
      </trkpt>
      <trkpt lat="43.14102" lon="3.07664">
        <ele>165.661</ele>
        <time>2021-09-25T09:09:02Z</time>
      </trkpt>
      <trkpt lat="43.14102" lon="3.07664">
        <ele>165.665</ele>
        <time>2021-09-25T09:09:04Z</time>
      </trkpt>
      <trkpt lat="43.14103" lon="3.07664">
        <ele>165.515</ele>
        <time>2021-09-25T09:09:06Z</time>
      </trkpt>
      <trkpt lat="43.14105" lon="3.07664">
        <ele>165.926</ele>
        <time>2021-09-25T09:09:08Z</time>
      </trkpt>
      <trkpt lat="43.14106" lon="3.07664">
        <ele>166.012</ele>
        <time>2021-09-25T09:09:10Z</time>
      </trkpt>
      <trkpt lat="43.14108" lon="3.07664">
        <ele>166.064</ele>
        <time>2021-09-25T09:09:12Z</time>
      </trkpt>
      <trkpt lat="43.14109" lon="3.07664">
        <ele>166.283</ele>
        <time>2021-09-25T09:09:14Z</time>
      </trkpt>
      <trkpt lat="43.14111" lon="3.07665">
        <ele>166.476</ele>
        <time>2021-09-25T09:09:16Z</time>
      </trkpt>
      <trkpt lat="43.14113" lon="3.07665">
        <ele>166.983</ele>
        <time>2021-09-25T09:09:18Z</time>
      </trkpt>
      <trkpt lat="43.14114" lon="3.07665">
        <ele>166.825</ele>
        <time>2021-09-25T09:09:20Z</time>
      </trkpt>
      <trkpt lat="43.14116" lon="3.07665">
        <ele>166.864</ele>
        <time>2021-09-25T09:09:22Z</time>
      </trkpt>
      <trkpt lat="43.14118" lon="3.07665">
        <ele>166.702</ele>
        <time>2021-09-25T09:09:24Z</time>
      </trkpt>
      <trkpt lat="43.1412" lon="3.07665">
        <ele>166.83</ele>
        <time>2021-09-25T09:09:26Z</time>
      </trkpt>
      <trkpt lat="43.14122" lon="3.07665">
        <ele>166.708</ele>
        <time>2021-09-25T09:09:28Z</time>
      </trkpt>
      <trkpt lat="43.14123" lon="3.07665">
        <ele>166.973</ele>
        <time>2021-09-25T09:09:30Z</time>
      </trkpt>
      <trkpt lat="43.14125" lon="3.07666">
        <ele>167.294</ele>
        <time>2021-09-25T09:09:32Z</time>
      </trkpt>
      <trkpt lat="43.14126" lon="3.07666">
        <ele>167.379</ele>
        <time>2021-09-25T09:09:34Z</time>
      </trkpt>
      <trkpt lat="43.14128" lon="3.07666">
        <ele>167.713</ele>
        <time>2021-09-25T09:09:36Z</time>
      </trkpt>
      <trkpt lat="43.1413" lon="3.07666">
        <ele>167.739</ele>
        <time>2021-09-25T09:09:38Z</time>
      </trkpt>
      <trkpt lat="43.1413" lon="3.07666">
        <ele>167.525</ele>
        <time>2021-09-25T09:09:40Z</time>
      </trkpt>
      <trkpt lat="43.14131" lon="3.07666">
        <ele>168.215</ele>
        <time>2021-09-25T09:09:42Z</time>
      </trkpt>
      <trkpt lat="43.14132" lon="3.07667">
        <ele>166.541</ele>
        <time>2021-09-25T09:09:44Z</time>
      </trkpt>
      <trkpt lat="43.14133" lon="3.07668">
        <ele>168.104</ele>
        <time>2021-09-25T09:09:46Z</time>
      </trkpt>
      <trkpt lat="43.14135" lon="3.07668">
        <ele>168.104</ele>
        <time>2021-09-25T09:09:48Z</time>
      </trkpt>
      <trkpt lat="43.14137" lon="3.07668">
        <ele>168.311</ele>
        <time>2021-09-25T09:09:50Z</time>
      </trkpt>
      <trkpt lat="43.14139" lon="3.07668">
        <ele>168.773</ele>
        <time>2021-09-25T09:09:52Z</time>
      </trkpt>
      <trkpt lat="43.14141" lon="3.07669">
        <ele>169.089</ele>
        <time>2021-09-25T09:09:54Z</time>
      </trkpt>
      <trkpt lat="43.14143" lon="3.07669">
        <ele>168.898</ele>
        <time>2021-09-25T09:09:56Z</time>
      </trkpt>
      <trkpt lat="43.14145" lon="3.0767">
        <ele>169.075</ele>
        <time>2021-09-25T09:09:58Z</time>
      </trkpt>
      <trkpt lat="43.14147" lon="3.0767">
        <ele>169.193</ele>
        <time>2021-09-25T09:10:00Z</time>
      </trkpt>
      <trkpt lat="43.14149" lon="3.07671">
        <ele>169.186</ele>
        <time>2021-09-25T09:10:02Z</time>
      </trkpt>
      <trkpt lat="43.1415" lon="3.07673">
        <ele>169.171</ele>
        <time>2021-09-25T09:10:04Z</time>
      </trkpt>
      <trkpt lat="43.14151" lon="3.07675">
        <ele>169.115</ele>
        <time>2021-09-25T09:10:06Z</time>
      </trkpt>
      <trkpt lat="43.14153" lon="3.07676">
        <ele>169.38</ele>
        <time>2021-09-25T09:10:08Z</time>
      </trkpt>
      <trkpt lat="43.14155" lon="3.07677">
        <ele>169.182</ele>
        <time>2021-09-25T09:10:10Z</time>
      </trkpt>
      <trkpt lat="43.14157" lon="3.07677">
        <ele>168.947</ele>
        <time>2021-09-25T09:10:12Z</time>
      </trkpt>
      <trkpt lat="43.14159" lon="3.07679">
        <ele>168.732</ele>
        <time>2021-09-25T09:10:14Z</time>
      </trkpt>
      <trkpt lat="43.14161" lon="3.0768">
        <ele>168.83</ele>
        <time>2021-09-25T09:10:16Z</time>
      </trkpt>
      <trkpt lat="43.14163" lon="3.07681">
        <ele>168.74</ele>
        <time>2021-09-25T09:10:18Z</time>
      </trkpt>
      <trkpt lat="43.14165" lon="3.07682">
        <ele>169.175</ele>
        <time>2021-09-25T09:10:20Z</time>
      </trkpt>
      <trkpt lat="43.14167" lon="3.07684">
        <ele>169.227</ele>
        <time>2021-09-25T09:10:22Z</time>
      </trkpt>
      <trkpt lat="43.14169" lon="3.07684">
        <ele>169.507</ele>
        <time>2021-09-25T09:10:24Z</time>
      </trkpt>
      <trkpt lat="43.14171" lon="3.07685">
        <ele>169.375</ele>
        <time>2021-09-25T09:10:26Z</time>
      </trkpt>
      <trkpt lat="43.14173" lon="3.07686">
        <ele>169.395</ele>
        <time>2021-09-25T09:10:28Z</time>
      </trkpt>
      <trkpt lat="43.14175" lon="3.07687">
        <ele>169.721</ele>
        <time>2021-09-25T09:10:30Z</time>
      </trkpt>
      <trkpt lat="43.14177" lon="3.07688">
        <ele>169.921</ele>
        <time>2021-09-25T09:10:32Z</time>
      </trkpt>
      <trkpt lat="43.14179" lon="3.07688">
        <ele>169.979</ele>
        <time>2021-09-25T09:10:34Z</time>
      </trkpt>
      <trkpt lat="43.14181" lon="3.07688">
        <ele>170.137</ele>
        <time>2021-09-25T09:10:36Z</time>
      </trkpt>
      <trkpt lat="43.14183" lon="3.07688">
        <ele>170.404</ele>
        <time>2021-09-25T09:10:38Z</time>
      </trkpt>
      <trkpt lat="43.14185" lon="3.07689">
        <ele>170.428</ele>
        <time>2021-09-25T09:10:40Z</time>
      </trkpt>
      <trkpt lat="43.14186" lon="3.07691">
        <ele>170.203</ele>
        <time>2021-09-25T09:10:42Z</time>
      </trkpt>
      <trkpt lat="43.14188" lon="3.07692">
        <ele>170.448</ele>
        <time>2021-09-25T09:10:44Z</time>
      </trkpt>
      <trkpt lat="43.1419" lon="3.07692">
        <ele>170.691</ele>
        <time>2021-09-25T09:10:46Z</time>
      </trkpt>
      <trkpt lat="43.14191" lon="3.07693">
        <ele>170.732</ele>
        <time>2021-09-25T09:10:48Z</time>
      </trkpt>
      <trkpt lat="43.14193" lon="3.07693">
        <ele>171.119</ele>
        <time>2021-09-25T09:10:50Z</time>
      </trkpt>
      <trkpt lat="43.14195" lon="3.07693">
        <ele>171.115</ele>
        <time>2021-09-25T09:10:52Z</time>
      </trkpt>
      <trkpt lat="43.14196" lon="3.07694">
        <ele>171.245</ele>
        <time>2021-09-25T09:10:54Z</time>
      </trkpt>
      <trkpt lat="43.14198" lon="3.07693">
        <ele>171.473</ele>
        <time>2021-09-25T09:10:56Z</time>
      </trkpt>
      <trkpt lat="43.142" lon="3.07693">
        <ele>171.827</ele>
        <time>2021-09-25T09:10:58Z</time>
      </trkpt>
      <trkpt lat="43.14202" lon="3.07692">
        <ele>172.176</ele>
        <time>2021-09-25T09:11:00Z</time>
      </trkpt>
      <trkpt lat="43.14203" lon="3.07692">
        <ele>172.338</ele>
        <time>2021-09-25T09:11:02Z</time>
      </trkpt>
      <trkpt lat="43.14205" lon="3.07691">
        <ele>172.244</ele>
        <time>2021-09-25T09:11:04Z</time>
      </trkpt>
      <trkpt lat="43.14206" lon="3.0769">
        <ele>172.574</ele>
        <time>2021-09-25T09:11:06Z</time>
      </trkpt>
      <trkpt lat="43.14208" lon="3.0769">
        <ele>173.125</ele>
        <time>2021-09-25T09:11:08Z</time>
      </trkpt>
      <trkpt lat="43.14209" lon="3.0769">
        <ele>173.305</ele>
        <time>2021-09-25T09:11:10Z</time>
      </trkpt>
      <trkpt lat="43.14211" lon="3.0769">
        <ele>173.228</ele>
        <time>2021-09-25T09:11:12Z</time>
      </trkpt>
      <trkpt lat="43.14213" lon="3.0769">
        <ele>173.197</ele>
        <time>2021-09-25T09:11:14Z</time>
      </trkpt>
      <trkpt lat="43.14215" lon="3.07691">
        <ele>173.323</ele>
        <time>2021-09-25T09:11:16Z</time>
      </trkpt>
      <trkpt lat="43.14217" lon="3.07692">
        <ele>173.256</ele>
        <time>2021-09-25T09:11:18Z</time>
      </trkpt>
      <trkpt lat="43.14219" lon="3.07693">
        <ele>172.839</ele>
        <time>2021-09-25T09:11:20Z</time>
      </trkpt>
      <trkpt lat="43.1422" lon="3.07694">
        <ele>173.062</ele>
        <time>2021-09-25T09:11:22Z</time>
      </trkpt>
      <trkpt lat="43.14222" lon="3.07695">
        <ele>172.699</ele>
        <time>2021-09-25T09:11:24Z</time>
      </trkpt>
      <trkpt lat="43.14224" lon="3.07697">
        <ele>172.625</ele>
        <time>2021-09-25T09:11:26Z</time>
      </trkpt>
      <trkpt lat="43.14226" lon="3.07699">
        <ele>172.47</ele>
        <time>2021-09-25T09:11:28Z</time>
      </trkpt>
      <trkpt lat="43.14227" lon="3.07701">
        <ele>172.417</ele>
        <time>2021-09-25T09:11:30Z</time>
      </trkpt>
      <trkpt lat="43.14229" lon="3.07702">
        <ele>172.007</ele>
        <time>2021-09-25T09:11:32Z</time>
      </trkpt>
      <trkpt lat="43.14231" lon="3.07703">
        <ele>171.802</ele>
        <time>2021-09-25T09:11:34Z</time>
      </trkpt>
      <trkpt lat="43.14233" lon="3.07704">
        <ele>171.568</ele>
        <time>2021-09-25T09:11:36Z</time>
      </trkpt>
      <trkpt lat="43.14235" lon="3.07706">
        <ele>171.451</ele>
        <time>2021-09-25T09:11:38Z</time>
      </trkpt>
      <trkpt lat="43.14237" lon="3.07708">
        <ele>171.549</ele>
        <time>2021-09-25T09:11:40Z</time>
      </trkpt>
      <trkpt lat="43.14239" lon="3.07709">
        <ele>171.468</ele>
        <time>2021-09-25T09:11:42Z</time>
      </trkpt>
      <trkpt lat="43.14241" lon="3.0771">
        <ele>171.782</ele>
        <time>2021-09-25T09:11:44Z</time>
      </trkpt>
      <trkpt lat="43.14244" lon="3.0771">
        <ele>171.768</ele>
        <time>2021-09-25T09:11:46Z</time>
      </trkpt>
      <trkpt lat="43.14246" lon="3.0771">
        <ele>171.807</ele>
        <time>2021-09-25T09:11:48Z</time>
      </trkpt>
      <trkpt lat="43.14248" lon="3.0771">
        <ele>171.996</ele>
        <time>2021-09-25T09:11:50Z</time>
      </trkpt>
      <trkpt lat="43.14251" lon="3.07711">
        <ele>172.14</ele>
        <time>2021-09-25T09:11:52Z</time>
      </trkpt>
      <trkpt lat="43.14253" lon="3.07711">
        <ele>172.291</ele>
        <time>2021-09-25T09:11:54Z</time>
      </trkpt>
      <trkpt lat="43.14255" lon="3.07712">
        <ele>172.35</ele>
        <time>2021-09-25T09:11:56Z</time>
      </trkpt>
      <trkpt lat="43.14257" lon="3.07712">
        <ele>172.492</ele>
        <time>2021-09-25T09:11:58Z</time>
      </trkpt>
      <trkpt lat="43.14259" lon="3.07713">
        <ele>172.67</ele>
        <time>2021-09-25T09:12:00Z</time>
      </trkpt>
      <trkpt lat="43.14261" lon="3.07713">
        <ele>172.213</ele>
        <time>2021-09-25T09:12:02Z</time>
      </trkpt>
      <trkpt lat="43.14263" lon="3.07714">
        <ele>172.491</ele>
        <time>2021-09-25T09:12:04Z</time>
      </trkpt>
      <trkpt lat="43.14266" lon="3.07715">
        <ele>172.431</ele>
        <time>2021-09-25T09:12:06Z</time>
      </trkpt>
      <trkpt lat="43.14268" lon="3.07716">
        <ele>172.187</ele>
        <time>2021-09-25T09:12:08Z</time>
      </trkpt>
      <trkpt lat="43.1427" lon="3.07717">
        <ele>172.506</ele>
        <time>2021-09-25T09:12:10Z</time>
      </trkpt>
      <trkpt lat="43.14272" lon="3.07715">
        <ele>172.29</ele>
        <time>2021-09-25T09:12:12Z</time>
      </trkpt>
      <trkpt lat="43.14274" lon="3.07713">
        <ele>172.289</ele>
        <time>2021-09-25T09:12:14Z</time>
      </trkpt>
      <trkpt lat="43.14275" lon="3.07711">
        <ele>172.193</ele>
        <time>2021-09-25T09:12:16Z</time>
      </trkpt>
      <trkpt lat="43.14276" lon="3.07708">
        <ele>172.55</ele>
        <time>2021-09-25T09:12:18Z</time>
      </trkpt>
      <trkpt lat="43.14278" lon="3.07706">
        <ele>172.1</ele>
        <time>2021-09-25T09:12:20Z</time>
      </trkpt>
      <trkpt lat="43.14279" lon="3.07704">
        <ele>172.146</ele>
        <time>2021-09-25T09:12:22Z</time>
      </trkpt>
      <trkpt lat="43.1428" lon="3.07702">
        <ele>172.412</ele>
        <time>2021-09-25T09:12:24Z</time>
      </trkpt>
      <trkpt lat="43.14281" lon="3.077">
        <ele>172.534</ele>
        <time>2021-09-25T09:12:26Z</time>
      </trkpt>
      <trkpt lat="43.14282" lon="3.07697">
        <ele>172.547</ele>
        <time>2021-09-25T09:12:28Z</time>
      </trkpt>
      <trkpt lat="43.14284" lon="3.07696">
        <ele>172.852</ele>
        <time>2021-09-25T09:12:30Z</time>
      </trkpt>
      <trkpt lat="43.14285" lon="3.07695">
        <ele>172.964</ele>
        <time>2021-09-25T09:12:32Z</time>
      </trkpt>
      <trkpt lat="43.14287" lon="3.07694">
        <ele>173.159</ele>
        <time>2021-09-25T09:12:34Z</time>
      </trkpt>
      <trkpt lat="43.14289" lon="3.07692">
        <ele>173.593</ele>
        <time>2021-09-25T09:12:36Z</time>
      </trkpt>
      <trkpt lat="43.1429" lon="3.0769">
        <ele>174.116</ele>
        <time>2021-09-25T09:12:38Z</time>
      </trkpt>
      <trkpt lat="43.14292" lon="3.07688">
        <ele>174.341</ele>
        <time>2021-09-25T09:12:40Z</time>
      </trkpt>
      <trkpt lat="43.14294" lon="3.07687">
        <ele>174.345</ele>
        <time>2021-09-25T09:12:42Z</time>
      </trkpt>
      <trkpt lat="43.14296" lon="3.07687">
        <ele>173.742</ele>
        <time>2021-09-25T09:12:44Z</time>
      </trkpt>
      <trkpt lat="43.14299" lon="3.07687">
        <ele>173.946</ele>
        <time>2021-09-25T09:12:46Z</time>
      </trkpt>
      <trkpt lat="43.14301" lon="3.07687">
        <ele>173.719</ele>
        <time>2021-09-25T09:12:48Z</time>
      </trkpt>
      <trkpt lat="43.14303" lon="3.07687">
        <ele>174.043</ele>
        <time>2021-09-25T09:12:50Z</time>
      </trkpt>
      <trkpt lat="43.14305" lon="3.07687">
        <ele>173.996</ele>
        <time>2021-09-25T09:12:52Z</time>
      </trkpt>
      <trkpt lat="43.14307" lon="3.07688">
        <ele>174.881</ele>
        <time>2021-09-25T09:12:54Z</time>
      </trkpt>
      <trkpt lat="43.14309" lon="3.07687">
        <ele>175.234</ele>
        <time>2021-09-25T09:12:56Z</time>
      </trkpt>
      <trkpt lat="43.14311" lon="3.07687">
        <ele>175.227</ele>
        <time>2021-09-25T09:12:58Z</time>
      </trkpt>
      <trkpt lat="43.14313" lon="3.07687">
        <ele>174.201</ele>
        <time>2021-09-25T09:13:00Z</time>
      </trkpt>
      <trkpt lat="43.14315" lon="3.07687">
        <ele>173.941</ele>
        <time>2021-09-25T09:13:02Z</time>
      </trkpt>
      <trkpt lat="43.14317" lon="3.07687">
        <ele>173.96</ele>
        <time>2021-09-25T09:13:04Z</time>
      </trkpt>
      <trkpt lat="43.1432" lon="3.07686">
        <ele>174.046</ele>
        <time>2021-09-25T09:13:06Z</time>
      </trkpt>
      <trkpt lat="43.14322" lon="3.07686">
        <ele>174.397</ele>
        <time>2021-09-25T09:13:08Z</time>
      </trkpt>
      <trkpt lat="43.14324" lon="3.07686">
        <ele>175.406</ele>
        <time>2021-09-25T09:13:10Z</time>
      </trkpt>
      <trkpt lat="43.14326" lon="3.07687">
        <ele>175.424</ele>
        <time>2021-09-25T09:13:12Z</time>
      </trkpt>
      <trkpt lat="43.14328" lon="3.07688">
        <ele>175.024</ele>
        <time>2021-09-25T09:13:14Z</time>
      </trkpt>
      <trkpt lat="43.1433" lon="3.07689">
        <ele>175.733</ele>
        <time>2021-09-25T09:13:16Z</time>
      </trkpt>
      <trkpt lat="43.14332" lon="3.07689">
        <ele>175.617</ele>
        <time>2021-09-25T09:13:18Z</time>
      </trkpt>
      <trkpt lat="43.14334" lon="3.0769">
        <ele>175.578</ele>
        <time>2021-09-25T09:13:20Z</time>
      </trkpt>
      <trkpt lat="43.14336" lon="3.0769">
        <ele>176.277</ele>
        <time>2021-09-25T09:13:22Z</time>
      </trkpt>
      <trkpt lat="43.14338" lon="3.07689">
        <ele>176.3</ele>
        <time>2021-09-25T09:13:24Z</time>
      </trkpt>
      <trkpt lat="43.1434" lon="3.07689">
        <ele>177.052</ele>
        <time>2021-09-25T09:13:26Z</time>
      </trkpt>
      <trkpt lat="43.14341" lon="3.07691">
        <ele>177.484</ele>
        <time>2021-09-25T09:13:28Z</time>
      </trkpt>
      <trkpt lat="43.14343" lon="3.07692">
        <ele>177.494</ele>
        <time>2021-09-25T09:13:30Z</time>
      </trkpt>
      <trkpt lat="43.14344" lon="3.07694">
        <ele>177.192</ele>
        <time>2021-09-25T09:13:32Z</time>
      </trkpt>
      <trkpt lat="43.14346" lon="3.07696">
        <ele>177.345</ele>
        <time>2021-09-25T09:13:34Z</time>
      </trkpt>
      <trkpt lat="43.14347" lon="3.07698">
        <ele>177.201</ele>
        <time>2021-09-25T09:13:36Z</time>
      </trkpt>
      <trkpt lat="43.14348" lon="3.077">
        <ele>177.131</ele>
        <time>2021-09-25T09:13:38Z</time>
      </trkpt>
      <trkpt lat="43.1435" lon="3.07702">
        <ele>177.385</ele>
        <time>2021-09-25T09:13:40Z</time>
      </trkpt>
      <trkpt lat="43.14351" lon="3.07704">
        <ele>177.802</ele>
        <time>2021-09-25T09:13:42Z</time>
      </trkpt>
      <trkpt lat="43.14352" lon="3.07707">
        <ele>178.372</ele>
        <time>2021-09-25T09:13:44Z</time>
      </trkpt>
      <trkpt lat="43.14353" lon="3.07709">
        <ele>178.535</ele>
        <time>2021-09-25T09:13:46Z</time>
      </trkpt>
      <trkpt lat="43.14354" lon="3.07712">
        <ele>178.648</ele>
        <time>2021-09-25T09:13:48Z</time>
      </trkpt>
      <trkpt lat="43.14354" lon="3.07714">
        <ele>178.755</ele>
        <time>2021-09-25T09:13:50Z</time>
      </trkpt>
      <trkpt lat="43.14355" lon="3.07716">
        <ele>178.98</ele>
        <time>2021-09-25T09:13:52Z</time>
      </trkpt>
      <trkpt lat="43.14356" lon="3.07719">
        <ele>179.425</ele>
        <time>2021-09-25T09:13:54Z</time>
      </trkpt>
      <trkpt lat="43.14357" lon="3.0772">
        <ele>179.574</ele>
        <time>2021-09-25T09:13:56Z</time>
      </trkpt>
      <trkpt lat="43.14358" lon="3.07722">
        <ele>179.318</ele>
        <time>2021-09-25T09:13:58Z</time>
      </trkpt>
      <trkpt lat="43.14359" lon="3.07725">
        <ele>178.976</ele>
        <time>2021-09-25T09:14:00Z</time>
      </trkpt>
      <trkpt lat="43.14361" lon="3.07727">
        <ele>180.093</ele>
        <time>2021-09-25T09:14:02Z</time>
      </trkpt>
      <trkpt lat="43.14363" lon="3.07729">
        <ele>180.417</ele>
        <time>2021-09-25T09:14:04Z</time>
      </trkpt>
      <trkpt lat="43.14365" lon="3.0773">
        <ele>181.155</ele>
        <time>2021-09-25T09:14:06Z</time>
      </trkpt>
      <trkpt lat="43.14366" lon="3.07732">
        <ele>181.519</ele>
        <time>2021-09-25T09:14:08Z</time>
      </trkpt>
      <trkpt lat="43.14367" lon="3.07734">
        <ele>182.363</ele>
        <time>2021-09-25T09:14:10Z</time>
      </trkpt>
      <trkpt lat="43.14369" lon="3.07735">
        <ele>182.769</ele>
        <time>2021-09-25T09:14:12Z</time>
      </trkpt>
      <trkpt lat="43.14371" lon="3.07736">
        <ele>183.219</ele>
        <time>2021-09-25T09:14:14Z</time>
      </trkpt>
      <trkpt lat="43.14373" lon="3.07737">
        <ele>183.757</ele>
        <time>2021-09-25T09:14:16Z</time>
      </trkpt>
      <trkpt lat="43.14375" lon="3.07737">
        <ele>183.972</ele>
        <time>2021-09-25T09:14:18Z</time>
      </trkpt>
      <trkpt lat="43.14377" lon="3.07738">
        <ele>184.205</ele>
        <time>2021-09-25T09:14:20Z</time>
      </trkpt>
      <trkpt lat="43.14378" lon="3.07738">
        <ele>184.701</ele>
        <time>2021-09-25T09:14:22Z</time>
      </trkpt>
      <trkpt lat="43.1438" lon="3.07739">
        <ele>185.195</ele>
        <time>2021-09-25T09:14:24Z</time>
      </trkpt>
      <trkpt lat="43.14382" lon="3.0774">
        <ele>185.021</ele>
        <time>2021-09-25T09:14:26Z</time>
      </trkpt>
      <trkpt lat="43.14384" lon="3.07741">
        <ele>185</ele>
        <time>2021-09-25T09:14:28Z</time>
      </trkpt>
      <trkpt lat="43.14386" lon="3.07742">
        <ele>185.097</ele>
        <time>2021-09-25T09:14:30Z</time>
      </trkpt>
      <trkpt lat="43.14387" lon="3.07743">
        <ele>185.534</ele>
        <time>2021-09-25T09:14:32Z</time>
      </trkpt>
      <trkpt lat="43.14388" lon="3.07744">
        <ele>185.767</ele>
        <time>2021-09-25T09:14:34Z</time>
      </trkpt>
      <trkpt lat="43.1439" lon="3.07745">
        <ele>185.718</ele>
        <time>2021-09-25T09:14:36Z</time>
      </trkpt>
      <trkpt lat="43.14392" lon="3.07746">
        <ele>186.43</ele>
        <time>2021-09-25T09:14:38Z</time>
      </trkpt>
      <trkpt lat="43.14394" lon="3.07747">
        <ele>186.623</ele>
        <time>2021-09-25T09:14:40Z</time>
      </trkpt>
      <trkpt lat="43.14395" lon="3.07748">
        <ele>186.856</ele>
        <time>2021-09-25T09:14:42Z</time>
      </trkpt>
      <trkpt lat="43.14396" lon="3.07749">
        <ele>186.752</ele>
        <time>2021-09-25T09:14:44Z</time>
      </trkpt>
      <trkpt lat="43.14398" lon="3.0775">
        <ele>187.466</ele>
        <time>2021-09-25T09:14:46Z</time>
      </trkpt>
      <trkpt lat="43.14399" lon="3.07751">
        <ele>187.19</ele>
        <time>2021-09-25T09:14:48Z</time>
      </trkpt>
      <trkpt lat="43.144" lon="3.07752">
        <ele>187.562</ele>
        <time>2021-09-25T09:14:50Z</time>
      </trkpt>
      <trkpt lat="43.14402" lon="3.07754">
        <ele>187.355</ele>
        <time>2021-09-25T09:14:52Z</time>
      </trkpt>
      <trkpt lat="43.14403" lon="3.07755">
        <ele>187.234</ele>
        <time>2021-09-25T09:14:54Z</time>
      </trkpt>
      <trkpt lat="43.14405" lon="3.07756">
        <ele>186.81</ele>
        <time>2021-09-25T09:14:56Z</time>
      </trkpt>
      <trkpt lat="43.14406" lon="3.07757">
        <ele>186.929</ele>
        <time>2021-09-25T09:14:58Z</time>
      </trkpt>
      <trkpt lat="43.14408" lon="3.07758">
        <ele>186.787</ele>
        <time>2021-09-25T09:15:00Z</time>
      </trkpt>
      <trkpt lat="43.14409" lon="3.07758">
        <ele>186.733</ele>
        <time>2021-09-25T09:15:02Z</time>
      </trkpt>
      <trkpt lat="43.14411" lon="3.07759">
        <ele>187.157</ele>
        <time>2021-09-25T09:15:04Z</time>
      </trkpt>
      <trkpt lat="43.14413" lon="3.07761">
        <ele>186.717</ele>
        <time>2021-09-25T09:15:06Z</time>
      </trkpt>
      <trkpt lat="43.14414" lon="3.07762">
        <ele>186.954</ele>
        <time>2021-09-25T09:15:08Z</time>
      </trkpt>
      <trkpt lat="43.14416" lon="3.07764">
        <ele>187.754</ele>
        <time>2021-09-25T09:15:10Z</time>
      </trkpt>
      <trkpt lat="43.14418" lon="3.07765">
        <ele>187.445</ele>
        <time>2021-09-25T09:15:12Z</time>
      </trkpt>
      <trkpt lat="43.1442" lon="3.07766">
        <ele>187.215</ele>
        <time>2021-09-25T09:15:14Z</time>
      </trkpt>
      <trkpt lat="43.14422" lon="3.07767">
        <ele>187.425</ele>
        <time>2021-09-25T09:15:16Z</time>
      </trkpt>
      <trkpt lat="43.14424" lon="3.07768">
        <ele>187.93</ele>
        <time>2021-09-25T09:15:18Z</time>
      </trkpt>
      <trkpt lat="43.14426" lon="3.07769">
        <ele>188.477</ele>
        <time>2021-09-25T09:15:20Z</time>
      </trkpt>
      <trkpt lat="43.14429" lon="3.07769">
        <ele>188.567</ele>
        <time>2021-09-25T09:15:22Z</time>
      </trkpt>
      <trkpt lat="43.14431" lon="3.0777">
        <ele>189.225</ele>
        <time>2021-09-25T09:15:24Z</time>
      </trkpt>
      <trkpt lat="43.14433" lon="3.07771">
        <ele>189.663</ele>
        <time>2021-09-25T09:15:26Z</time>
      </trkpt>
      <trkpt lat="43.14435" lon="3.07772">
        <ele>189.488</ele>
        <time>2021-09-25T09:15:28Z</time>
      </trkpt>
      <trkpt lat="43.14437" lon="3.07774">
        <ele>189.571</ele>
        <time>2021-09-25T09:15:30Z</time>
      </trkpt>
      <trkpt lat="43.14438" lon="3.07775">
        <ele>189.001</ele>
        <time>2021-09-25T09:15:32Z</time>
      </trkpt>
      <trkpt lat="43.14438" lon="3.07775">
        <ele>188.815</ele>
        <time>2021-09-25T09:15:34Z</time>
      </trkpt>
      <trkpt lat="43.14438" lon="3.07774">
        <ele>188.928</ele>
        <time>2021-09-25T09:15:36Z</time>
      </trkpt>
      <trkpt lat="43.14438" lon="3.07774">
        <ele>188.914</ele>
        <time>2021-09-25T09:15:38Z</time>
      </trkpt>
      <trkpt lat="43.14438" lon="3.07774">
        <ele>188.916</ele>
        <time>2021-09-25T09:15:40Z</time>
      </trkpt>
      <trkpt lat="43.14438" lon="3.07774">
        <ele>188.918</ele>
        <time>2021-09-25T09:15:42Z</time>
      </trkpt>
      <trkpt lat="43.14438" lon="3.07774">
        <ele>188.921</ele>
        <time>2021-09-25T09:15:44Z</time>
      </trkpt>
      <trkpt lat="43.14438" lon="3.07775">
        <ele>188.849</ele>
        <time>2021-09-25T09:15:46Z</time>
      </trkpt>
      <trkpt lat="43.14439" lon="3.07776">
        <ele>189.131</ele>
        <time>2021-09-25T09:15:48Z</time>
      </trkpt>
      <trkpt lat="43.1444" lon="3.07776">
        <ele>189.501</ele>
        <time>2021-09-25T09:15:50Z</time>
      </trkpt>
      <trkpt lat="43.1444" lon="3.07777">
        <ele>189.292</ele>
        <time>2021-09-25T09:15:52Z</time>
      </trkpt>
      <trkpt lat="43.14442" lon="3.07778">
        <ele>189.669</ele>
        <time>2021-09-25T09:15:54Z</time>
      </trkpt>
      <trkpt lat="43.14442" lon="3.0778">
        <ele>190.021</ele>
        <time>2021-09-25T09:15:56Z</time>
      </trkpt>
      <trkpt lat="43.14444" lon="3.07781">
        <ele>190.846</ele>
        <time>2021-09-25T09:15:58Z</time>
      </trkpt>
      <trkpt lat="43.14444" lon="3.07781">
        <ele>190.382</ele>
        <time>2021-09-25T09:16:00Z</time>
      </trkpt>
      <trkpt lat="43.14444" lon="3.07781">
        <ele>190.337</ele>
        <time>2021-09-25T09:16:02Z</time>
      </trkpt>
      <trkpt lat="43.14444" lon="3.07782">
        <ele>190.244</ele>
        <time>2021-09-25T09:16:04Z</time>
      </trkpt>
      <trkpt lat="43.14445" lon="3.07783">
        <ele>190.471</ele>
        <time>2021-09-25T09:16:06Z</time>
      </trkpt>
      <trkpt lat="43.14446" lon="3.07784">
        <ele>190.724</ele>
        <time>2021-09-25T09:16:08Z</time>
      </trkpt>
      <trkpt lat="43.14446" lon="3.07784">
        <ele>190.811</ele>
        <time>2021-09-25T09:16:10Z</time>
      </trkpt>
      <trkpt lat="43.14446" lon="3.07784">
        <ele>191.117</ele>
        <time>2021-09-25T09:16:12Z</time>
      </trkpt>
      <trkpt lat="43.14447" lon="3.07784">
        <ele>191</ele>
        <time>2021-09-25T09:16:14Z</time>
      </trkpt>
      <trkpt lat="43.14448" lon="3.07785">
        <ele>190.944</ele>
        <time>2021-09-25T09:16:16Z</time>
      </trkpt>
      <trkpt lat="43.1445" lon="3.07786">
        <ele>191.442</ele>
        <time>2021-09-25T09:16:18Z</time>
      </trkpt>
      <trkpt lat="43.14451" lon="3.07786">
        <ele>191.578</ele>
        <time>2021-09-25T09:16:20Z</time>
      </trkpt>
      <trkpt lat="43.14452" lon="3.07788">
        <ele>191.721</ele>
        <time>2021-09-25T09:16:22Z</time>
      </trkpt>
      <trkpt lat="43.14454" lon="3.07789">
        <ele>191.813</ele>
        <time>2021-09-25T09:16:24Z</time>
      </trkpt>
      <trkpt lat="43.14455" lon="3.0779">
        <ele>191.919</ele>
        <time>2021-09-25T09:16:26Z</time>
      </trkpt>
      <trkpt lat="43.14456" lon="3.0779">
        <ele>192.281</ele>
        <time>2021-09-25T09:16:28Z</time>
      </trkpt>
      <trkpt lat="43.14457" lon="3.0779">
        <ele>192.512</ele>
        <time>2021-09-25T09:16:30Z</time>
      </trkpt>
      <trkpt lat="43.14457" lon="3.0779">
        <ele>192.503</ele>
        <time>2021-09-25T09:16:32Z</time>
      </trkpt>
      <trkpt lat="43.14457" lon="3.0779">
        <ele>192.504</ele>
        <time>2021-09-25T09:16:34Z</time>
      </trkpt>
      <trkpt lat="43.14457" lon="3.0779">
        <ele>192.503</ele>
        <time>2021-09-25T09:16:36Z</time>
      </trkpt>
      <trkpt lat="43.14457" lon="3.0779">
        <ele>192.434</ele>
        <time>2021-09-25T09:16:38Z</time>
      </trkpt>
      <trkpt lat="43.14458" lon="3.07792">
        <ele>192.793</ele>
        <time>2021-09-25T09:16:40Z</time>
      </trkpt>
      <trkpt lat="43.1446" lon="3.07793">
        <ele>192.914</ele>
        <time>2021-09-25T09:16:42Z</time>
      </trkpt>
      <trkpt lat="43.14461" lon="3.07795">
        <ele>192.697</ele>
        <time>2021-09-25T09:16:44Z</time>
      </trkpt>
      <trkpt lat="43.14463" lon="3.07795">
        <ele>192.833</ele>
        <time>2021-09-25T09:16:46Z</time>
      </trkpt>
      <trkpt lat="43.14463" lon="3.07795">
        <ele>192.482</ele>
        <time>2021-09-25T09:16:48Z</time>
      </trkpt>
      <trkpt lat="43.14463" lon="3.07795">
        <ele>192.484</ele>
        <time>2021-09-25T09:16:50Z</time>
      </trkpt>
      <trkpt lat="43.14463" lon="3.07795">
        <ele>192.486</ele>
        <time>2021-09-25T09:16:52Z</time>
      </trkpt>
      <trkpt lat="43.14464" lon="3.07795">
        <ele>192.927</ele>
        <time>2021-09-25T09:16:54Z</time>
      </trkpt>
      <trkpt lat="43.14464" lon="3.07796">
        <ele>193.039</ele>
        <time>2021-09-25T09:16:56Z</time>
      </trkpt>
      <trkpt lat="43.14464" lon="3.07796">
        <ele>193.035</ele>
        <time>2021-09-25T09:16:58Z</time>
      </trkpt>
      <trkpt lat="43.14464" lon="3.07795">
        <ele>192.775</ele>
        <time>2021-09-25T09:17:00Z</time>
      </trkpt>
      <trkpt lat="43.14464" lon="3.07795">
        <ele>192.771</ele>
        <time>2021-09-25T09:17:02Z</time>
      </trkpt>
      <trkpt lat="43.14464" lon="3.07796">
        <ele>192.854</ele>
        <time>2021-09-25T09:17:04Z</time>
      </trkpt>
      <trkpt lat="43.14464" lon="3.07796">
        <ele>192.854</ele>
        <time>2021-09-25T09:17:06Z</time>
      </trkpt>
      <trkpt lat="43.14464" lon="3.07796">
        <ele>192.622</ele>
        <time>2021-09-25T09:17:08Z</time>
      </trkpt>
      <trkpt lat="43.14464" lon="3.07796">
        <ele>192.776</ele>
        <time>2021-09-25T09:17:10Z</time>
      </trkpt>
      <trkpt lat="43.14464" lon="3.07796">
        <ele>192.945</ele>
        <time>2021-09-25T09:17:12Z</time>
      </trkpt>
      <trkpt lat="43.14465" lon="3.07796">
        <ele>192.777</ele>
        <time>2021-09-25T09:17:14Z</time>
      </trkpt>
      <trkpt lat="43.14464" lon="3.07796">
        <ele>192.72</ele>
        <time>2021-09-25T09:17:16Z</time>
      </trkpt>
      <trkpt lat="43.14464" lon="3.07796">
        <ele>192.723</ele>
        <time>2021-09-25T09:17:18Z</time>
      </trkpt>
      <trkpt lat="43.14464" lon="3.07796">
        <ele>192.917</ele>
        <time>2021-09-25T09:17:20Z</time>
      </trkpt>
      <trkpt lat="43.14465" lon="3.07797">
        <ele>193.051</ele>
        <time>2021-09-25T09:17:22Z</time>
      </trkpt>
      <trkpt lat="43.14465" lon="3.07797">
        <ele>193.038</ele>
        <time>2021-09-25T09:17:24Z</time>
      </trkpt>
      <trkpt lat="43.14465" lon="3.07796">
        <ele>193.039</ele>
        <time>2021-09-25T09:17:26Z</time>
      </trkpt>
      <trkpt lat="43.14465" lon="3.07796">
        <ele>193.041</ele>
        <time>2021-09-25T09:17:28Z</time>
      </trkpt>
      <trkpt lat="43.14465" lon="3.07796">
        <ele>193.044</ele>
        <time>2021-09-25T09:17:30Z</time>
      </trkpt>
      <trkpt lat="43.14465" lon="3.07796">
        <ele>193.046</ele>
        <time>2021-09-25T09:17:32Z</time>
      </trkpt>
      <trkpt lat="43.14466" lon="3.07796">
        <ele>193.425</ele>
        <time>2021-09-25T09:17:34Z</time>
      </trkpt>
      <trkpt lat="43.14466" lon="3.07796">
        <ele>193.429</ele>
        <time>2021-09-25T09:17:36Z</time>
      </trkpt>
      <trkpt lat="43.14465" lon="3.07796">
        <ele>193.706</ele>
        <time>2021-09-25T09:17:38Z</time>
      </trkpt>
      <trkpt lat="43.14465" lon="3.07796">
        <ele>193.708</ele>
        <time>2021-09-25T09:17:40Z</time>
      </trkpt>
      <trkpt lat="43.14465" lon="3.07796">
        <ele>193.71</ele>
        <time>2021-09-25T09:17:42Z</time>
      </trkpt>
      <trkpt lat="43.14465" lon="3.07796">
        <ele>193.709</ele>
        <time>2021-09-25T09:17:44Z</time>
      </trkpt>
      <trkpt lat="43.14465" lon="3.07796">
        <ele>193.709</ele>
        <time>2021-09-25T09:17:46Z</time>
      </trkpt>
      <trkpt lat="43.14465" lon="3.07796">
        <ele>193.709</ele>
        <time>2021-09-25T09:17:48Z</time>
      </trkpt>
      <trkpt lat="43.14465" lon="3.07796">
        <ele>193.704</ele>
        <time>2021-09-25T09:17:50Z</time>
      </trkpt>
      <trkpt lat="43.14465" lon="3.07796">
        <ele>193.704</ele>
        <time>2021-09-25T09:17:52Z</time>
      </trkpt>
      <trkpt lat="43.14465" lon="3.07796">
        <ele>193.704</ele>
        <time>2021-09-25T09:17:54Z</time>
      </trkpt>
      <trkpt lat="43.14465" lon="3.07796">
        <ele>193.706</ele>
        <time>2021-09-25T09:17:56Z</time>
      </trkpt>
      <trkpt lat="43.14465" lon="3.07796">
        <ele>193.708</ele>
        <time>2021-09-25T09:17:58Z</time>
      </trkpt>
      <trkpt lat="43.14465" lon="3.07796">
        <ele>193.707</ele>
        <time>2021-09-25T09:18:00Z</time>
      </trkpt>
      <trkpt lat="43.14465" lon="3.07796">
        <ele>193.705</ele>
        <time>2021-09-25T09:18:02Z</time>
      </trkpt>
      <trkpt lat="43.14465" lon="3.07796">
        <ele>193.703</ele>
        <time>2021-09-25T09:18:04Z</time>
      </trkpt>
      <trkpt lat="43.14465" lon="3.07796">
        <ele>193.702</ele>
        <time>2021-09-25T09:18:06Z</time>
      </trkpt>
      <trkpt lat="43.14465" lon="3.07796">
        <ele>193.704</ele>
        <time>2021-09-25T09:18:08Z</time>
      </trkpt>
      <trkpt lat="43.14465" lon="3.07796">
        <ele>193.704</ele>
        <time>2021-09-25T09:18:10Z</time>
      </trkpt>
      <trkpt lat="43.14465" lon="3.07796">
        <ele>193.703</ele>
        <time>2021-09-25T09:18:12Z</time>
      </trkpt>
      <trkpt lat="43.14465" lon="3.07796">
        <ele>193.703</ele>
        <time>2021-09-25T09:18:14Z</time>
      </trkpt>
      <trkpt lat="43.14465" lon="3.07796">
        <ele>193.704</ele>
        <time>2021-09-25T09:18:16Z</time>
      </trkpt>
      <trkpt lat="43.14465" lon="3.07796">
        <ele>193.707</ele>
        <time>2021-09-25T09:18:18Z</time>
      </trkpt>
      <trkpt lat="43.14465" lon="3.07796">
        <ele>193.71</ele>
        <time>2021-09-25T09:18:20Z</time>
      </trkpt>
      <trkpt lat="43.14465" lon="3.07796">
        <ele>193.709</ele>
        <time>2021-09-25T09:18:22Z</time>
      </trkpt>
      <trkpt lat="43.14465" lon="3.07796">
        <ele>193.71</ele>
        <time>2021-09-25T09:18:24Z</time>
      </trkpt>
      <trkpt lat="43.14465" lon="3.07796">
        <ele>193.711</ele>
        <time>2021-09-25T09:18:26Z</time>
      </trkpt>
      <trkpt lat="43.14465" lon="3.07796">
        <ele>193.71</ele>
        <time>2021-09-25T09:18:28Z</time>
      </trkpt>
      <trkpt lat="43.14465" lon="3.07796">
        <ele>193.71</ele>
        <time>2021-09-25T09:18:30Z</time>
      </trkpt>
      <trkpt lat="43.14465" lon="3.07796">
        <ele>193.707</ele>
        <time>2021-09-25T09:18:32Z</time>
      </trkpt>
      <trkpt lat="43.14465" lon="3.07796">
        <ele>193.704</ele>
        <time>2021-09-25T09:18:34Z</time>
      </trkpt>
      <trkpt lat="43.14465" lon="3.07796">
        <ele>193.706</ele>
        <time>2021-09-25T09:18:36Z</time>
      </trkpt>
      <trkpt lat="43.14465" lon="3.07796">
        <ele>193.704</ele>
        <time>2021-09-25T09:18:38Z</time>
      </trkpt>
      <trkpt lat="43.14465" lon="3.07796">
        <ele>193.704</ele>
        <time>2021-09-25T09:18:40Z</time>
      </trkpt>
      <trkpt lat="43.14465" lon="3.07796">
        <ele>193.705</ele>
        <time>2021-09-25T09:18:42Z</time>
      </trkpt>
      <trkpt lat="43.14465" lon="3.07796">
        <ele>193.705</ele>
        <time>2021-09-25T09:18:44Z</time>
      </trkpt>
      <trkpt lat="43.14465" lon="3.07796">
        <ele>193.707</ele>
        <time>2021-09-25T09:18:46Z</time>
      </trkpt>
      <trkpt lat="43.14465" lon="3.07796">
        <ele>193.707</ele>
        <time>2021-09-25T09:18:48Z</time>
      </trkpt>
      <trkpt lat="43.14465" lon="3.07796">
        <ele>193.707</ele>
        <time>2021-09-25T09:18:50Z</time>
      </trkpt>
      <trkpt lat="43.14465" lon="3.07796">
        <ele>193.707</ele>
        <time>2021-09-25T09:18:52Z</time>
      </trkpt>
      <trkpt lat="43.14465" lon="3.07796">
        <ele>193.707</ele>
        <time>2021-09-25T09:18:54Z</time>
      </trkpt>
      <trkpt lat="43.14465" lon="3.07796">
        <ele>193.706</ele>
        <time>2021-09-25T09:18:56Z</time>
      </trkpt>
      <trkpt lat="43.14465" lon="3.07796">
        <ele>193.702</ele>
        <time>2021-09-25T09:18:58Z</time>
      </trkpt>
      <trkpt lat="43.14465" lon="3.07796">
        <ele>193.701</ele>
        <time>2021-09-25T09:19:00Z</time>
      </trkpt>
      <trkpt lat="43.14465" lon="3.07796">
        <ele>193.702</ele>
        <time>2021-09-25T09:19:02Z</time>
      </trkpt>
      <trkpt lat="43.14465" lon="3.07796">
        <ele>193.7</ele>
        <time>2021-09-25T09:19:04Z</time>
      </trkpt>
      <trkpt lat="43.14465" lon="3.07796">
        <ele>193.7</ele>
        <time>2021-09-25T09:19:06Z</time>
      </trkpt>
      <trkpt lat="43.14465" lon="3.07796">
        <ele>193.701</ele>
        <time>2021-09-25T09:19:08Z</time>
      </trkpt>
      <trkpt lat="43.14465" lon="3.07796">
        <ele>193.703</ele>
        <time>2021-09-25T09:19:10Z</time>
      </trkpt>
      <trkpt lat="43.14465" lon="3.07796">
        <ele>193.702</ele>
        <time>2021-09-25T09:19:12Z</time>
      </trkpt>
      <trkpt lat="43.14465" lon="3.07796">
        <ele>193.7</ele>
        <time>2021-09-25T09:19:14Z</time>
      </trkpt>
      <trkpt lat="43.14465" lon="3.07796">
        <ele>193.7</ele>
        <time>2021-09-25T09:19:16Z</time>
      </trkpt>
      <trkpt lat="43.14465" lon="3.07796">
        <ele>193.699</ele>
        <time>2021-09-25T09:19:18Z</time>
      </trkpt>
      <trkpt lat="43.14465" lon="3.07796">
        <ele>193.7</ele>
        <time>2021-09-25T09:19:20Z</time>
      </trkpt>
      <trkpt lat="43.14465" lon="3.07796">
        <ele>193.7</ele>
        <time>2021-09-25T09:19:22Z</time>
      </trkpt>
      <trkpt lat="43.14465" lon="3.07796">
        <ele>193.701</ele>
        <time>2021-09-25T09:19:24Z</time>
      </trkpt>
      <trkpt lat="43.14465" lon="3.07796">
        <ele>193.701</ele>
        <time>2021-09-25T09:19:26Z</time>
      </trkpt>
      <trkpt lat="43.14465" lon="3.07796">
        <ele>193.7</ele>
        <time>2021-09-25T09:19:28Z</time>
      </trkpt>
      <trkpt lat="43.14465" lon="3.07796">
        <ele>193.701</ele>
        <time>2021-09-25T09:19:30Z</time>
      </trkpt>
      <trkpt lat="43.14465" lon="3.07796">
        <ele>193.702</ele>
        <time>2021-09-25T09:19:32Z</time>
      </trkpt>
      <trkpt lat="43.14465" lon="3.07796">
        <ele>193.703</ele>
        <time>2021-09-25T09:19:34Z</time>
      </trkpt>
      <trkpt lat="43.14465" lon="3.07796">
        <ele>193.705</ele>
        <time>2021-09-25T09:19:36Z</time>
      </trkpt>
      <trkpt lat="43.14465" lon="3.07796">
        <ele>193.709</ele>
        <time>2021-09-25T09:19:38Z</time>
      </trkpt>
      <trkpt lat="43.14465" lon="3.07796">
        <ele>193.713</ele>
        <time>2021-09-25T09:19:40Z</time>
      </trkpt>
      <trkpt lat="43.14465" lon="3.07796">
        <ele>193.716</ele>
        <time>2021-09-25T09:19:42Z</time>
      </trkpt>
      <trkpt lat="43.14465" lon="3.07796">
        <ele>193.72</ele>
        <time>2021-09-25T09:19:44Z</time>
      </trkpt>
      <trkpt lat="43.14465" lon="3.07796">
        <ele>193.722</ele>
        <time>2021-09-25T09:19:46Z</time>
      </trkpt>
      <trkpt lat="43.14465" lon="3.07796">
        <ele>193.726</ele>
        <time>2021-09-25T09:19:48Z</time>
      </trkpt>
      <trkpt lat="43.14465" lon="3.07796">
        <ele>193.726</ele>
        <time>2021-09-25T09:19:50Z</time>
      </trkpt>
      <trkpt lat="43.14465" lon="3.07796">
        <ele>193.726</ele>
        <time>2021-09-25T09:19:52Z</time>
      </trkpt>
      <trkpt lat="43.14465" lon="3.07796">
        <ele>193.724</ele>
        <time>2021-09-25T09:19:54Z</time>
      </trkpt>
      <trkpt lat="43.14465" lon="3.07796">
        <ele>193.722</ele>
        <time>2021-09-25T09:19:56Z</time>
      </trkpt>
      <trkpt lat="43.14465" lon="3.07796">
        <ele>193.724</ele>
        <time>2021-09-25T09:19:58Z</time>
      </trkpt>
      <trkpt lat="43.14465" lon="3.07796">
        <ele>193.722</ele>
        <time>2021-09-25T09:20:00Z</time>
      </trkpt>
      <trkpt lat="43.14465" lon="3.07796">
        <ele>193.721</ele>
        <time>2021-09-25T09:20:02Z</time>
      </trkpt>
      <trkpt lat="43.14465" lon="3.07796">
        <ele>193.722</ele>
        <time>2021-09-25T09:20:04Z</time>
      </trkpt>
      <trkpt lat="43.14465" lon="3.07796">
        <ele>193.724</ele>
        <time>2021-09-25T09:20:06Z</time>
      </trkpt>
      <trkpt lat="43.14465" lon="3.07796">
        <ele>193.725</ele>
        <time>2021-09-25T09:20:08Z</time>
      </trkpt>
      <trkpt lat="43.14465" lon="3.07796">
        <ele>193.725</ele>
        <time>2021-09-25T09:20:10Z</time>
      </trkpt>
      <trkpt lat="43.14465" lon="3.07796">
        <ele>193.722</ele>
        <time>2021-09-25T09:20:12Z</time>
      </trkpt>
      <trkpt lat="43.14465" lon="3.07796">
        <ele>193.72</ele>
        <time>2021-09-25T09:20:14Z</time>
      </trkpt>
      <trkpt lat="43.14465" lon="3.07796">
        <ele>193.721</ele>
        <time>2021-09-25T09:20:16Z</time>
      </trkpt>
      <trkpt lat="43.14465" lon="3.07796">
        <ele>193.719</ele>
        <time>2021-09-25T09:20:18Z</time>
      </trkpt>
      <trkpt lat="43.14465" lon="3.07796">
        <ele>193.718</ele>
        <time>2021-09-25T09:20:20Z</time>
      </trkpt>
      <trkpt lat="43.14465" lon="3.07796">
        <ele>193.717</ele>
        <time>2021-09-25T09:20:22Z</time>
      </trkpt>
      <trkpt lat="43.14465" lon="3.07796">
        <ele>193.717</ele>
        <time>2021-09-25T09:20:24Z</time>
      </trkpt>
      <trkpt lat="43.14465" lon="3.07796">
        <ele>193.715</ele>
        <time>2021-09-25T09:20:26Z</time>
      </trkpt>
      <trkpt lat="43.14465" lon="3.07796">
        <ele>193.713</ele>
        <time>2021-09-25T09:20:28Z</time>
      </trkpt>
      <trkpt lat="43.14465" lon="3.07796">
        <ele>193.712</ele>
        <time>2021-09-25T09:20:30Z</time>
      </trkpt>
      <trkpt lat="43.14465" lon="3.07796">
        <ele>193.711</ele>
        <time>2021-09-25T09:20:32Z</time>
      </trkpt>
      <trkpt lat="43.14465" lon="3.07796">
        <ele>193.708</ele>
        <time>2021-09-25T09:20:34Z</time>
      </trkpt>
      <trkpt lat="43.14465" lon="3.07796">
        <ele>193.705</ele>
        <time>2021-09-25T09:20:36Z</time>
      </trkpt>
      <trkpt lat="43.14465" lon="3.07796">
        <ele>193.702</ele>
        <time>2021-09-25T09:20:39Z</time>
      </trkpt>
      <trkpt lat="43.14465" lon="3.07796">
        <ele>193.702</ele>
        <time>2021-09-25T09:20:41Z</time>
      </trkpt>
      <trkpt lat="43.14464" lon="3.07795">
        <ele>193.883</ele>
        <time>2021-09-25T09:20:43Z</time>
      </trkpt>
      <trkpt lat="43.14463" lon="3.07795">
        <ele>194.019</ele>
        <time>2021-09-25T09:20:45Z</time>
      </trkpt>
      <trkpt lat="43.14461" lon="3.07799">
        <ele>194.159</ele>
        <time>2021-09-25T09:20:47Z</time>
      </trkpt>
      <trkpt lat="43.14459" lon="3.07796">
        <ele>194.28</ele>
        <time>2021-09-25T09:20:49Z</time>
      </trkpt>
      <trkpt lat="43.14458" lon="3.07793">
        <ele>194.396</ele>
        <time>2021-09-25T09:20:51Z</time>
      </trkpt>
      <trkpt lat="43.14457" lon="3.0779">
        <ele>194.754</ele>
        <time>2021-09-25T09:20:53Z</time>
      </trkpt>
      <trkpt lat="43.14456" lon="3.07789">
        <ele>194.329</ele>
        <time>2021-09-25T09:20:55Z</time>
      </trkpt>
      <trkpt lat="43.14457" lon="3.0779">
        <ele>193.96</ele>
        <time>2021-09-25T09:20:57Z</time>
      </trkpt>
      <trkpt lat="43.14457" lon="3.0779">
        <ele>193.957</ele>
        <time>2021-09-25T09:20:59Z</time>
      </trkpt>
      <trkpt lat="43.14457" lon="3.0779">
        <ele>193.955</ele>
        <time>2021-09-25T09:21:01Z</time>
      </trkpt>
      <trkpt lat="43.14457" lon="3.0779">
        <ele>193.951</ele>
        <time>2021-09-25T09:21:03Z</time>
      </trkpt>
      <trkpt lat="43.14457" lon="3.07789">
        <ele>193.884</ele>
        <time>2021-09-25T09:21:05Z</time>
      </trkpt>
      <trkpt lat="43.14456" lon="3.07789">
        <ele>194.04</ele>
        <time>2021-09-25T09:21:07Z</time>
      </trkpt>
      <trkpt lat="43.14455" lon="3.07788">
        <ele>194.05</ele>
        <time>2021-09-25T09:21:09Z</time>
      </trkpt>
      <trkpt lat="43.14455" lon="3.07789">
        <ele>194.563</ele>
        <time>2021-09-25T09:21:11Z</time>
      </trkpt>
      <trkpt lat="43.14455" lon="3.07789">
        <ele>194.563</ele>
        <time>2021-09-25T09:21:13Z</time>
      </trkpt>
      <trkpt lat="43.14455" lon="3.07789">
        <ele>194.562</ele>
        <time>2021-09-25T09:21:15Z</time>
      </trkpt>
      <trkpt lat="43.14455" lon="3.07789">
        <ele>194.564</ele>
        <time>2021-09-25T09:21:17Z</time>
      </trkpt>
      <trkpt lat="43.14455" lon="3.07789">
        <ele>194.564</ele>
        <time>2021-09-25T09:21:19Z</time>
      </trkpt>
      <trkpt lat="43.14455" lon="3.07789">
        <ele>194.562</ele>
        <time>2021-09-25T09:21:21Z</time>
      </trkpt>
      <trkpt lat="43.14455" lon="3.07789">
        <ele>194.563</ele>
        <time>2021-09-25T09:21:23Z</time>
      </trkpt>
      <trkpt lat="43.14455" lon="3.07789">
        <ele>194.564</ele>
        <time>2021-09-25T09:21:25Z</time>
      </trkpt>
      <trkpt lat="43.14455" lon="3.07789">
        <ele>194.564</ele>
        <time>2021-09-25T09:21:27Z</time>
      </trkpt>
      <trkpt lat="43.14455" lon="3.07789">
        <ele>194.564</ele>
        <time>2021-09-25T09:21:29Z</time>
      </trkpt>
      <trkpt lat="43.14455" lon="3.07789">
        <ele>194.564</ele>
        <time>2021-09-25T09:21:31Z</time>
      </trkpt>
      <trkpt lat="43.14455" lon="3.07789">
        <ele>194.561</ele>
        <time>2021-09-25T09:21:33Z</time>
      </trkpt>
      <trkpt lat="43.14455" lon="3.07789">
        <ele>194.56</ele>
        <time>2021-09-25T09:21:35Z</time>
      </trkpt>
      <trkpt lat="43.14455" lon="3.07789">
        <ele>194.56</ele>
        <time>2021-09-25T09:21:37Z</time>
      </trkpt>
      <trkpt lat="43.14455" lon="3.07789">
        <ele>194.56</ele>
        <time>2021-09-25T09:21:39Z</time>
      </trkpt>
      <trkpt lat="43.14455" lon="3.07789">
        <ele>194.56</ele>
        <time>2021-09-25T09:21:41Z</time>
      </trkpt>
      <trkpt lat="43.14455" lon="3.07789">
        <ele>194.558</ele>
        <time>2021-09-25T09:21:43Z</time>
      </trkpt>
      <trkpt lat="43.14455" lon="3.07789">
        <ele>194.557</ele>
        <time>2021-09-25T09:21:45Z</time>
      </trkpt>
      <trkpt lat="43.14455" lon="3.07789">
        <ele>194.558</ele>
        <time>2021-09-25T09:21:47Z</time>
      </trkpt>
      <trkpt lat="43.14455" lon="3.0779">
        <ele>194.557</ele>
        <time>2021-09-25T09:21:49Z</time>
      </trkpt>
      <trkpt lat="43.14455" lon="3.0779">
        <ele>194.557</ele>
        <time>2021-09-25T09:21:51Z</time>
      </trkpt>
      <trkpt lat="43.14455" lon="3.0779">
        <ele>194.557</ele>
        <time>2021-09-25T09:21:53Z</time>
      </trkpt>
      <trkpt lat="43.14455" lon="3.0779">
        <ele>194.556</ele>
        <time>2021-09-25T09:21:55Z</time>
      </trkpt>
      <trkpt lat="43.14455" lon="3.0779">
        <ele>194.551</ele>
        <time>2021-09-25T09:21:57Z</time>
      </trkpt>
      <trkpt lat="43.14455" lon="3.0779">
        <ele>194.55</ele>
        <time>2021-09-25T09:21:59Z</time>
      </trkpt>
      <trkpt lat="43.14455" lon="3.0779">
        <ele>194.549</ele>
        <time>2021-09-25T09:22:01Z</time>
      </trkpt>
      <trkpt lat="43.14455" lon="3.07789">
        <ele>194.548</ele>
        <time>2021-09-25T09:22:03Z</time>
      </trkpt>
      <trkpt lat="43.14454" lon="3.07789">
        <ele>194.332</ele>
        <time>2021-09-25T09:22:05Z</time>
      </trkpt>
      <trkpt lat="43.14454" lon="3.07789">
        <ele>193.807</ele>
        <time>2021-09-25T09:22:07Z</time>
      </trkpt>
      <trkpt lat="43.14453" lon="3.07789">
        <ele>193.61</ele>
        <time>2021-09-25T09:22:09Z</time>
      </trkpt>
      <trkpt lat="43.14453" lon="3.07789">
        <ele>193.598</ele>
        <time>2021-09-25T09:22:11Z</time>
      </trkpt>
      <trkpt lat="43.14453" lon="3.07789">
        <ele>193.595</ele>
        <time>2021-09-25T09:22:13Z</time>
      </trkpt>
      <trkpt lat="43.14452" lon="3.07788">
        <ele>193.606</ele>
        <time>2021-09-25T09:22:15Z</time>
      </trkpt>
      <trkpt lat="43.14452" lon="3.07788">
        <ele>193.121</ele>
        <time>2021-09-25T09:22:17Z</time>
      </trkpt>
      <trkpt lat="43.14451" lon="3.07787">
        <ele>193.22</ele>
        <time>2021-09-25T09:22:19Z</time>
      </trkpt>
      <trkpt lat="43.1445" lon="3.07786">
        <ele>193.45</ele>
        <time>2021-09-25T09:22:21Z</time>
      </trkpt>
      <trkpt lat="43.14449" lon="3.07785">
        <ele>193.66</ele>
        <time>2021-09-25T09:22:23Z</time>
      </trkpt>
      <trkpt lat="43.14449" lon="3.07784">
        <ele>193.393</ele>
        <time>2021-09-25T09:22:25Z</time>
      </trkpt>
      <trkpt lat="43.14448" lon="3.07783">
        <ele>193.763</ele>
        <time>2021-09-25T09:22:27Z</time>
      </trkpt>
      <trkpt lat="43.14448" lon="3.07783">
        <ele>193.715</ele>
        <time>2021-09-25T09:22:29Z</time>
      </trkpt>
      <trkpt lat="43.14448" lon="3.07784">
        <ele>194.21</ele>
        <time>2021-09-25T09:22:31Z</time>
      </trkpt>
      <trkpt lat="43.14448" lon="3.07784">
        <ele>194.21</ele>
        <time>2021-09-25T09:22:33Z</time>
      </trkpt>
      <trkpt lat="43.14448" lon="3.07784">
        <ele>194.213</ele>
        <time>2021-09-25T09:22:35Z</time>
      </trkpt>
      <trkpt lat="43.14448" lon="3.07784">
        <ele>193.692</ele>
        <time>2021-09-25T09:22:37Z</time>
      </trkpt>
      <trkpt lat="43.14448" lon="3.07785">
        <ele>193.671</ele>
        <time>2021-09-25T09:22:39Z</time>
      </trkpt>
      <trkpt lat="43.14448" lon="3.07785">
        <ele>193.67</ele>
        <time>2021-09-25T09:22:41Z</time>
      </trkpt>
      <trkpt lat="43.14448" lon="3.07785">
        <ele>193.669</ele>
        <time>2021-09-25T09:22:43Z</time>
      </trkpt>
      <trkpt lat="43.14448" lon="3.07785">
        <ele>193.668</ele>
        <time>2021-09-25T09:22:45Z</time>
      </trkpt>
      <trkpt lat="43.14448" lon="3.07785">
        <ele>193.663</ele>
        <time>2021-09-25T09:22:47Z</time>
      </trkpt>
      <trkpt lat="43.14448" lon="3.07785">
        <ele>193.499</ele>
        <time>2021-09-25T09:22:49Z</time>
      </trkpt>
      <trkpt lat="43.14449" lon="3.07786">
        <ele>193.511</ele>
        <time>2021-09-25T09:22:51Z</time>
      </trkpt>
      <trkpt lat="43.14451" lon="3.07788">
        <ele>193.766</ele>
        <time>2021-09-25T09:22:53Z</time>
      </trkpt>
      <trkpt lat="43.14452" lon="3.07789">
        <ele>193.622</ele>
        <time>2021-09-25T09:22:55Z</time>
      </trkpt>
      <trkpt lat="43.14454" lon="3.07789">
        <ele>192.534</ele>
        <time>2021-09-25T09:22:58Z</time>
      </trkpt>
      <trkpt lat="43.14456" lon="3.0779">
        <ele>191.813</ele>
        <time>2021-09-25T09:23:00Z</time>
      </trkpt>
      <trkpt lat="43.14457" lon="3.07792">
        <ele>192.431</ele>
        <time>2021-09-25T09:23:02Z</time>
      </trkpt>
      <trkpt lat="43.14459" lon="3.07793">
        <ele>192.62</ele>
        <time>2021-09-25T09:23:04Z</time>
      </trkpt>
      <trkpt lat="43.14461" lon="3.07794">
        <ele>192.383</ele>
        <time>2021-09-25T09:23:06Z</time>
      </trkpt>
      <trkpt lat="43.14463" lon="3.07795">
        <ele>192.138</ele>
        <time>2021-09-25T09:23:08Z</time>
      </trkpt>
      <trkpt lat="43.14464" lon="3.07794">
        <ele>192.596</ele>
        <time>2021-09-25T09:23:10Z</time>
      </trkpt>
      <trkpt lat="43.14467" lon="3.07794">
        <ele>192.531</ele>
        <time>2021-09-25T09:23:12Z</time>
      </trkpt>
      <trkpt lat="43.14469" lon="3.07794">
        <ele>192.985</ele>
        <time>2021-09-25T09:23:14Z</time>
      </trkpt>
      <trkpt lat="43.14471" lon="3.07794">
        <ele>193.498</ele>
        <time>2021-09-25T09:23:16Z</time>
      </trkpt>
      <trkpt lat="43.14472" lon="3.07794">
        <ele>193.455</ele>
        <time>2021-09-25T09:23:18Z</time>
      </trkpt>
      <trkpt lat="43.14474" lon="3.07794">
        <ele>193.378</ele>
        <time>2021-09-25T09:23:20Z</time>
      </trkpt>
      <trkpt lat="43.14476" lon="3.07794">
        <ele>193.549</ele>
        <time>2021-09-25T09:23:22Z</time>
      </trkpt>
      <trkpt lat="43.14478" lon="3.07794">
        <ele>194.123</ele>
        <time>2021-09-25T09:23:24Z</time>
      </trkpt>
      <trkpt lat="43.1448" lon="3.07794">
        <ele>193.969</ele>
        <time>2021-09-25T09:23:26Z</time>
      </trkpt>
      <trkpt lat="43.14482" lon="3.07795">
        <ele>193.961</ele>
        <time>2021-09-25T09:23:28Z</time>
      </trkpt>
      <trkpt lat="43.14484" lon="3.07795">
        <ele>194.13</ele>
        <time>2021-09-25T09:23:30Z</time>
      </trkpt>
      <trkpt lat="43.14486" lon="3.07795">
        <ele>193.94</ele>
        <time>2021-09-25T09:23:32Z</time>
      </trkpt>
      <trkpt lat="43.14488" lon="3.07795">
        <ele>193.444</ele>
        <time>2021-09-25T09:23:34Z</time>
      </trkpt>
      <trkpt lat="43.1449" lon="3.07795">
        <ele>193.138</ele>
        <time>2021-09-25T09:23:36Z</time>
      </trkpt>
      <trkpt lat="43.14492" lon="3.07794">
        <ele>193.128</ele>
        <time>2021-09-25T09:23:38Z</time>
      </trkpt>
      <trkpt lat="43.14494" lon="3.07794">
        <ele>193.423</ele>
        <time>2021-09-25T09:23:40Z</time>
      </trkpt>
      <trkpt lat="43.14496" lon="3.07793">
        <ele>193.072</ele>
        <time>2021-09-25T09:23:42Z</time>
      </trkpt>
      <trkpt lat="43.14498" lon="3.07792">
        <ele>193.366</ele>
        <time>2021-09-25T09:23:44Z</time>
      </trkpt>
      <trkpt lat="43.145" lon="3.07792">
        <ele>192.668</ele>
        <time>2021-09-25T09:23:46Z</time>
      </trkpt>
      <trkpt lat="43.14503" lon="3.07792">
        <ele>192.584</ele>
        <time>2021-09-25T09:23:48Z</time>
      </trkpt>
      <trkpt lat="43.14505" lon="3.07793">
        <ele>192.693</ele>
        <time>2021-09-25T09:23:50Z</time>
      </trkpt>
      <trkpt lat="43.14507" lon="3.07793">
        <ele>192.305</ele>
        <time>2021-09-25T09:23:52Z</time>
      </trkpt>
      <trkpt lat="43.14509" lon="3.07794">
        <ele>192.577</ele>
        <time>2021-09-25T09:23:54Z</time>
      </trkpt>
      <trkpt lat="43.14511" lon="3.07795">
        <ele>192.5</ele>
        <time>2021-09-25T09:23:56Z</time>
      </trkpt>
      <trkpt lat="43.14513" lon="3.07795">
        <ele>192.38</ele>
        <time>2021-09-25T09:23:58Z</time>
      </trkpt>
      <trkpt lat="43.14514" lon="3.07797">
        <ele>192.016</ele>
        <time>2021-09-25T09:24:00Z</time>
      </trkpt>
      <trkpt lat="43.14517" lon="3.07798">
        <ele>192.199</ele>
        <time>2021-09-25T09:24:02Z</time>
      </trkpt>
      <trkpt lat="43.14518" lon="3.07797">
        <ele>192.128</ele>
        <time>2021-09-25T09:24:04Z</time>
      </trkpt>
      <trkpt lat="43.1452" lon="3.07797">
        <ele>192.061</ele>
        <time>2021-09-25T09:24:06Z</time>
      </trkpt>
      <trkpt lat="43.14523" lon="3.07797">
        <ele>192.339</ele>
        <time>2021-09-25T09:24:08Z</time>
      </trkpt>
      <trkpt lat="43.14525" lon="3.07797">
        <ele>192.272</ele>
        <time>2021-09-25T09:24:10Z</time>
      </trkpt>
      <trkpt lat="43.14526" lon="3.07799">
        <ele>191.591</ele>
        <time>2021-09-25T09:24:12Z</time>
      </trkpt>
      <trkpt lat="43.14528" lon="3.078">
        <ele>190.863</ele>
        <time>2021-09-25T09:24:14Z</time>
      </trkpt>
      <trkpt lat="43.14531" lon="3.07801">
        <ele>190.189</ele>
        <time>2021-09-25T09:24:16Z</time>
      </trkpt>
      <trkpt lat="43.14533" lon="3.078">
        <ele>189.826</ele>
        <time>2021-09-25T09:24:18Z</time>
      </trkpt>
      <trkpt lat="43.14535" lon="3.07801">
        <ele>190.054</ele>
        <time>2021-09-25T09:24:20Z</time>
      </trkpt>
      <trkpt lat="43.14538" lon="3.07801">
        <ele>189.987</ele>
        <time>2021-09-25T09:24:22Z</time>
      </trkpt>
      <trkpt lat="43.1454" lon="3.07801">
        <ele>189.804</ele>
        <time>2021-09-25T09:24:24Z</time>
      </trkpt>
      <trkpt lat="43.14542" lon="3.07801">
        <ele>189.214</ele>
        <time>2021-09-25T09:24:26Z</time>
      </trkpt>
      <trkpt lat="43.14544" lon="3.07802">
        <ele>189.173</ele>
        <time>2021-09-25T09:24:28Z</time>
      </trkpt>
      <trkpt lat="43.14546" lon="3.07802">
        <ele>189.184</ele>
        <time>2021-09-25T09:24:30Z</time>
      </trkpt>
      <trkpt lat="43.14549" lon="3.07802">
        <ele>189.297</ele>
        <time>2021-09-25T09:24:32Z</time>
      </trkpt>
      <trkpt lat="43.14551" lon="3.07802">
        <ele>188.834</ele>
        <time>2021-09-25T09:24:34Z</time>
      </trkpt>
      <trkpt lat="43.14553" lon="3.07802">
        <ele>188.845</ele>
        <time>2021-09-25T09:24:36Z</time>
      </trkpt>
      <trkpt lat="43.14556" lon="3.07802">
        <ele>188.468</ele>
        <time>2021-09-25T09:24:38Z</time>
      </trkpt>
      <trkpt lat="43.14558" lon="3.07803">
        <ele>188.189</ele>
        <time>2021-09-25T09:24:40Z</time>
      </trkpt>
      <trkpt lat="43.1456" lon="3.07804">
        <ele>187.459</ele>
        <time>2021-09-25T09:24:42Z</time>
      </trkpt>
      <trkpt lat="43.14562" lon="3.07805">
        <ele>187.423</ele>
        <time>2021-09-25T09:24:44Z</time>
      </trkpt>
      <trkpt lat="43.14565" lon="3.07807">
        <ele>186.921</ele>
        <time>2021-09-25T09:24:46Z</time>
      </trkpt>
      <trkpt lat="43.14567" lon="3.07808">
        <ele>186.351</ele>
        <time>2021-09-25T09:24:48Z</time>
      </trkpt>
      <trkpt lat="43.14569" lon="3.07808">
        <ele>186.013</ele>
        <time>2021-09-25T09:24:50Z</time>
      </trkpt>
      <trkpt lat="43.14572" lon="3.07808">
        <ele>186.083</ele>
        <time>2021-09-25T09:24:52Z</time>
      </trkpt>
      <trkpt lat="43.14574" lon="3.07808">
        <ele>185.784</ele>
        <time>2021-09-25T09:24:54Z</time>
      </trkpt>
      <trkpt lat="43.14576" lon="3.07808">
        <ele>185.384</ele>
        <time>2021-09-25T09:24:56Z</time>
      </trkpt>
      <trkpt lat="43.14579" lon="3.07808">
        <ele>185.732</ele>
        <time>2021-09-25T09:24:58Z</time>
      </trkpt>
      <trkpt lat="43.14581" lon="3.07809">
        <ele>185.574</ele>
        <time>2021-09-25T09:25:00Z</time>
      </trkpt>
      <trkpt lat="43.14585" lon="3.0781">
        <ele>186.139</ele>
        <time>2021-09-25T09:25:02Z</time>
      </trkpt>
      <trkpt lat="43.14587" lon="3.0781">
        <ele>185.354</ele>
        <time>2021-09-25T09:25:04Z</time>
      </trkpt>
      <trkpt lat="43.1459" lon="3.07811">
        <ele>186.373</ele>
        <time>2021-09-25T09:25:06Z</time>
      </trkpt>
      <trkpt lat="43.14593" lon="3.07811">
        <ele>186.33</ele>
        <time>2021-09-25T09:25:08Z</time>
      </trkpt>
      <trkpt lat="43.14595" lon="3.07812">
        <ele>186.328</ele>
        <time>2021-09-25T09:25:10Z</time>
      </trkpt>
      <trkpt lat="43.14598" lon="3.07813">
        <ele>186.646</ele>
        <time>2021-09-25T09:25:12Z</time>
      </trkpt>
      <trkpt lat="43.14601" lon="3.07813">
        <ele>186.627</ele>
        <time>2021-09-25T09:25:14Z</time>
      </trkpt>
      <trkpt lat="43.14603" lon="3.07813">
        <ele>186.714</ele>
        <time>2021-09-25T09:25:16Z</time>
      </trkpt>
      <trkpt lat="43.14606" lon="3.07814">
        <ele>187.608</ele>
        <time>2021-09-25T09:25:18Z</time>
      </trkpt>
      <trkpt lat="43.14609" lon="3.07816">
        <ele>188.223</ele>
        <time>2021-09-25T09:25:20Z</time>
      </trkpt>
      <trkpt lat="43.14612" lon="3.07818">
        <ele>188.472</ele>
        <time>2021-09-25T09:25:22Z</time>
      </trkpt>
      <trkpt lat="43.14614" lon="3.07819">
        <ele>188.637</ele>
        <time>2021-09-25T09:25:24Z</time>
      </trkpt>
      <trkpt lat="43.14616" lon="3.0782">
        <ele>188.688</ele>
        <time>2021-09-25T09:25:26Z</time>
      </trkpt>
      <trkpt lat="43.14619" lon="3.07821">
        <ele>188.904</ele>
        <time>2021-09-25T09:25:28Z</time>
      </trkpt>
      <trkpt lat="43.14622" lon="3.07822">
        <ele>189.181</ele>
        <time>2021-09-25T09:25:30Z</time>
      </trkpt>
      <trkpt lat="43.14624" lon="3.07823">
        <ele>189.021</ele>
        <time>2021-09-25T09:25:32Z</time>
      </trkpt>
      <trkpt lat="43.14627" lon="3.07824">
        <ele>190.357</ele>
        <time>2021-09-25T09:25:34Z</time>
      </trkpt>
      <trkpt lat="43.1463" lon="3.07827">
        <ele>192.245</ele>
        <time>2021-09-25T09:25:36Z</time>
      </trkpt>
      <trkpt lat="43.14633" lon="3.07827">
        <ele>191.397</ele>
        <time>2021-09-25T09:25:38Z</time>
      </trkpt>
      <trkpt lat="43.14636" lon="3.07826">
        <ele>191.739</ele>
        <time>2021-09-25T09:25:40Z</time>
      </trkpt>
      <trkpt lat="43.14638" lon="3.07826">
        <ele>193.053</ele>
        <time>2021-09-25T09:25:42Z</time>
      </trkpt>
      <trkpt lat="43.14641" lon="3.07825">
        <ele>193.014</ele>
        <time>2021-09-25T09:25:44Z</time>
      </trkpt>
      <trkpt lat="43.14643" lon="3.07825">
        <ele>193.404</ele>
        <time>2021-09-25T09:25:46Z</time>
      </trkpt>
      <trkpt lat="43.14646" lon="3.07824">
        <ele>193.508</ele>
        <time>2021-09-25T09:25:48Z</time>
      </trkpt>
      <trkpt lat="43.14648" lon="3.07824">
        <ele>193.602</ele>
        <time>2021-09-25T09:25:50Z</time>
      </trkpt>
      <trkpt lat="43.1465" lon="3.07824">
        <ele>193.863</ele>
        <time>2021-09-25T09:25:52Z</time>
      </trkpt>
      <trkpt lat="43.14653" lon="3.07824">
        <ele>193.997</ele>
        <time>2021-09-25T09:25:54Z</time>
      </trkpt>
      <trkpt lat="43.14655" lon="3.07824">
        <ele>194.311</ele>
        <time>2021-09-25T09:25:56Z</time>
      </trkpt>
      <trkpt lat="43.14657" lon="3.07824">
        <ele>194.463</ele>
        <time>2021-09-25T09:25:58Z</time>
      </trkpt>
      <trkpt lat="43.14659" lon="3.07824">
        <ele>194.366</ele>
        <time>2021-09-25T09:26:00Z</time>
      </trkpt>
      <trkpt lat="43.14661" lon="3.07824">
        <ele>194.458</ele>
        <time>2021-09-25T09:26:02Z</time>
      </trkpt>
      <trkpt lat="43.14663" lon="3.07824">
        <ele>194.558</ele>
        <time>2021-09-25T09:26:04Z</time>
      </trkpt>
      <trkpt lat="43.14666" lon="3.07824">
        <ele>194.846</ele>
        <time>2021-09-25T09:26:06Z</time>
      </trkpt>
      <trkpt lat="43.14668" lon="3.07823">
        <ele>195.088</ele>
        <time>2021-09-25T09:26:08Z</time>
      </trkpt>
      <trkpt lat="43.1467" lon="3.07823">
        <ele>195.258</ele>
        <time>2021-09-25T09:26:10Z</time>
      </trkpt>
      <trkpt lat="43.14672" lon="3.07821">
        <ele>195.638</ele>
        <time>2021-09-25T09:26:12Z</time>
      </trkpt>
      <trkpt lat="43.14674" lon="3.0782">
        <ele>195.813</ele>
        <time>2021-09-25T09:26:14Z</time>
      </trkpt>
      <trkpt lat="43.14677" lon="3.07819">
        <ele>195.947</ele>
        <time>2021-09-25T09:26:16Z</time>
      </trkpt>
      <trkpt lat="43.14679" lon="3.07819">
        <ele>195.897</ele>
        <time>2021-09-25T09:26:18Z</time>
      </trkpt>
      <trkpt lat="43.14681" lon="3.0782">
        <ele>196.017</ele>
        <time>2021-09-25T09:26:20Z</time>
      </trkpt>
      <trkpt lat="43.14684" lon="3.07821">
        <ele>195.845</ele>
        <time>2021-09-25T09:26:22Z</time>
      </trkpt>
      <trkpt lat="43.14686" lon="3.0782">
        <ele>195.91</ele>
        <time>2021-09-25T09:26:24Z</time>
      </trkpt>
      <trkpt lat="43.14688" lon="3.0782">
        <ele>196.297</ele>
        <time>2021-09-25T09:26:26Z</time>
      </trkpt>
      <trkpt lat="43.14691" lon="3.0782">
        <ele>196.416</ele>
        <time>2021-09-25T09:26:28Z</time>
      </trkpt>
      <trkpt lat="43.14693" lon="3.07819">
        <ele>196.259</ele>
        <time>2021-09-25T09:26:30Z</time>
      </trkpt>
      <trkpt lat="43.14696" lon="3.07819">
        <ele>196.853</ele>
        <time>2021-09-25T09:26:32Z</time>
      </trkpt>
      <trkpt lat="43.14699" lon="3.07819">
        <ele>197.332</ele>
        <time>2021-09-25T09:26:34Z</time>
      </trkpt>
      <trkpt lat="43.14701" lon="3.07819">
        <ele>197.743</ele>
        <time>2021-09-25T09:26:36Z</time>
      </trkpt>
      <trkpt lat="43.14704" lon="3.07818">
        <ele>197.861</ele>
        <time>2021-09-25T09:26:38Z</time>
      </trkpt>
      <trkpt lat="43.14706" lon="3.07818">
        <ele>197.806</ele>
        <time>2021-09-25T09:26:40Z</time>
      </trkpt>
      <trkpt lat="43.14709" lon="3.07819">
        <ele>197.872</ele>
        <time>2021-09-25T09:26:42Z</time>
      </trkpt>
      <trkpt lat="43.14712" lon="3.07819">
        <ele>198.02</ele>
        <time>2021-09-25T09:26:44Z</time>
      </trkpt>
      <trkpt lat="43.14714" lon="3.0782">
        <ele>198.153</ele>
        <time>2021-09-25T09:26:46Z</time>
      </trkpt>
      <trkpt lat="43.14717" lon="3.0782">
        <ele>198.13</ele>
        <time>2021-09-25T09:26:48Z</time>
      </trkpt>
      <trkpt lat="43.1472" lon="3.07821">
        <ele>198.204</ele>
        <time>2021-09-25T09:26:50Z</time>
      </trkpt>
      <trkpt lat="43.14722" lon="3.07821">
        <ele>198.169</ele>
        <time>2021-09-25T09:26:52Z</time>
      </trkpt>
      <trkpt lat="43.14725" lon="3.07821">
        <ele>198.748</ele>
        <time>2021-09-25T09:26:54Z</time>
      </trkpt>
      <trkpt lat="43.14728" lon="3.07821">
        <ele>199.233</ele>
        <time>2021-09-25T09:26:56Z</time>
      </trkpt>
      <trkpt lat="43.1473" lon="3.07821">
        <ele>199.009</ele>
        <time>2021-09-25T09:26:58Z</time>
      </trkpt>
      <trkpt lat="43.14732" lon="3.07821">
        <ele>199.081</ele>
        <time>2021-09-25T09:27:00Z</time>
      </trkpt>
      <trkpt lat="43.14735" lon="3.07822">
        <ele>199.222</ele>
        <time>2021-09-25T09:27:02Z</time>
      </trkpt>
      <trkpt lat="43.14737" lon="3.07823">
        <ele>199.358</ele>
        <time>2021-09-25T09:27:04Z</time>
      </trkpt>
      <trkpt lat="43.14739" lon="3.07824">
        <ele>199.33</ele>
        <time>2021-09-25T09:27:06Z</time>
      </trkpt>
      <trkpt lat="43.14742" lon="3.07826">
        <ele>199.679</ele>
        <time>2021-09-25T09:27:08Z</time>
      </trkpt>
      <trkpt lat="43.14744" lon="3.07827">
        <ele>199.912</ele>
        <time>2021-09-25T09:27:10Z</time>
      </trkpt>
      <trkpt lat="43.14747" lon="3.07828">
        <ele>199.838</ele>
        <time>2021-09-25T09:27:12Z</time>
      </trkpt>
      <trkpt lat="43.14749" lon="3.0783">
        <ele>199.436</ele>
        <time>2021-09-25T09:27:14Z</time>
      </trkpt>
      <trkpt lat="43.14751" lon="3.07832">
        <ele>199.639</ele>
        <time>2021-09-25T09:27:16Z</time>
      </trkpt>
      <trkpt lat="43.14753" lon="3.07833">
        <ele>199.809</ele>
        <time>2021-09-25T09:27:18Z</time>
      </trkpt>
      <trkpt lat="43.14755" lon="3.07835">
        <ele>199.935</ele>
        <time>2021-09-25T09:27:20Z</time>
      </trkpt>
      <trkpt lat="43.14757" lon="3.07837">
        <ele>199.969</ele>
        <time>2021-09-25T09:27:22Z</time>
      </trkpt>
      <trkpt lat="43.1476" lon="3.07839">
        <ele>200.042</ele>
        <time>2021-09-25T09:27:24Z</time>
      </trkpt>
      <trkpt lat="43.14762" lon="3.0784">
        <ele>199.808</ele>
        <time>2021-09-25T09:27:26Z</time>
      </trkpt>
      <trkpt lat="43.14765" lon="3.0784">
        <ele>199.69</ele>
        <time>2021-09-25T09:27:28Z</time>
      </trkpt>
      <trkpt lat="43.14767" lon="3.07841">
        <ele>199.512</ele>
        <time>2021-09-25T09:27:30Z</time>
      </trkpt>
      <trkpt lat="43.1477" lon="3.07842">
        <ele>199.371</ele>
        <time>2021-09-25T09:27:32Z</time>
      </trkpt>
      <trkpt lat="43.14772" lon="3.07843">
        <ele>199.575</ele>
        <time>2021-09-25T09:27:34Z</time>
      </trkpt>
      <trkpt lat="43.14775" lon="3.07843">
        <ele>199.187</ele>
        <time>2021-09-25T09:27:36Z</time>
      </trkpt>
      <trkpt lat="43.14777" lon="3.07843">
        <ele>198.941</ele>
        <time>2021-09-25T09:27:38Z</time>
      </trkpt>
      <trkpt lat="43.1478" lon="3.07843">
        <ele>198.939</ele>
        <time>2021-09-25T09:27:40Z</time>
      </trkpt>
      <trkpt lat="43.14782" lon="3.07843">
        <ele>198.719</ele>
        <time>2021-09-25T09:27:42Z</time>
      </trkpt>
      <trkpt lat="43.14784" lon="3.07843">
        <ele>198.301</ele>
        <time>2021-09-25T09:27:44Z</time>
      </trkpt>
      <trkpt lat="43.14786" lon="3.07844">
        <ele>198.262</ele>
        <time>2021-09-25T09:27:46Z</time>
      </trkpt>
      <trkpt lat="43.14788" lon="3.07845">
        <ele>198.624</ele>
        <time>2021-09-25T09:27:48Z</time>
      </trkpt>
      <trkpt lat="43.1479" lon="3.07846">
        <ele>198.414</ele>
        <time>2021-09-25T09:27:50Z</time>
      </trkpt>
      <trkpt lat="43.14792" lon="3.07847">
        <ele>198.438</ele>
        <time>2021-09-25T09:27:52Z</time>
      </trkpt>
      <trkpt lat="43.14794" lon="3.07849">
        <ele>198.464</ele>
        <time>2021-09-25T09:27:54Z</time>
      </trkpt>
      <trkpt lat="43.14796" lon="3.0785">
        <ele>198.597</ele>
        <time>2021-09-25T09:27:56Z</time>
      </trkpt>
      <trkpt lat="43.14798" lon="3.07852">
        <ele>198.833</ele>
        <time>2021-09-25T09:27:58Z</time>
      </trkpt>
      <trkpt lat="43.148" lon="3.07853">
        <ele>198.991</ele>
        <time>2021-09-25T09:28:00Z</time>
      </trkpt>
      <trkpt lat="43.14802" lon="3.07855">
        <ele>198.819</ele>
        <time>2021-09-25T09:28:02Z</time>
      </trkpt>
      <trkpt lat="43.14804" lon="3.07856">
        <ele>198.504</ele>
        <time>2021-09-25T09:28:04Z</time>
      </trkpt>
      <trkpt lat="43.14805" lon="3.07858">
        <ele>198.001</ele>
        <time>2021-09-25T09:28:06Z</time>
      </trkpt>
      <trkpt lat="43.14807" lon="3.07859">
        <ele>197.385</ele>
        <time>2021-09-25T09:28:08Z</time>
      </trkpt>
      <trkpt lat="43.14809" lon="3.07862">
        <ele>196.797</ele>
        <time>2021-09-25T09:28:10Z</time>
      </trkpt>
      <trkpt lat="43.14811" lon="3.07864">
        <ele>196.537</ele>
        <time>2021-09-25T09:28:12Z</time>
      </trkpt>
      <trkpt lat="43.14812" lon="3.07866">
        <ele>196.549</ele>
        <time>2021-09-25T09:28:14Z</time>
      </trkpt>
      <trkpt lat="43.14814" lon="3.07868">
        <ele>195.95</ele>
        <time>2021-09-25T09:28:16Z</time>
      </trkpt>
      <trkpt lat="43.14816" lon="3.0787">
        <ele>196.214</ele>
        <time>2021-09-25T09:28:18Z</time>
      </trkpt>
      <trkpt lat="43.14818" lon="3.07871">
        <ele>196.102</ele>
        <time>2021-09-25T09:28:20Z</time>
      </trkpt>
      <trkpt lat="43.1482" lon="3.07874">
        <ele>194.913</ele>
        <time>2021-09-25T09:28:22Z</time>
      </trkpt>
      <trkpt lat="43.1482" lon="3.07878">
        <ele>194.931</ele>
        <time>2021-09-25T09:28:24Z</time>
      </trkpt>
      <trkpt lat="43.14821" lon="3.07881">
        <ele>194.832</ele>
        <time>2021-09-25T09:28:26Z</time>
      </trkpt>
      <trkpt lat="43.14823" lon="3.07884">
        <ele>194.999</ele>
        <time>2021-09-25T09:28:28Z</time>
      </trkpt>
      <trkpt lat="43.14824" lon="3.07888">
        <ele>194.662</ele>
        <time>2021-09-25T09:28:30Z</time>
      </trkpt>
      <trkpt lat="43.14825" lon="3.07891">
        <ele>195.086</ele>
        <time>2021-09-25T09:28:32Z</time>
      </trkpt>
      <trkpt lat="43.14826" lon="3.07893">
        <ele>194.938</ele>
        <time>2021-09-25T09:28:34Z</time>
      </trkpt>
      <trkpt lat="43.14828" lon="3.07896">
        <ele>194.922</ele>
        <time>2021-09-25T09:28:36Z</time>
      </trkpt>
      <trkpt lat="43.1483" lon="3.07899">
        <ele>194.511</ele>
        <time>2021-09-25T09:28:38Z</time>
      </trkpt>
      <trkpt lat="43.14831" lon="3.07902">
        <ele>194.245</ele>
        <time>2021-09-25T09:28:40Z</time>
      </trkpt>
      <trkpt lat="43.14833" lon="3.07905">
        <ele>194.084</ele>
        <time>2021-09-25T09:28:42Z</time>
      </trkpt>
      <trkpt lat="43.14833" lon="3.07908">
        <ele>194.008</ele>
        <time>2021-09-25T09:28:44Z</time>
      </trkpt>
      <trkpt lat="43.14834" lon="3.07912">
        <ele>193.9</ele>
        <time>2021-09-25T09:28:46Z</time>
      </trkpt>
      <trkpt lat="43.14836" lon="3.07915">
        <ele>193.911</ele>
        <time>2021-09-25T09:28:48Z</time>
      </trkpt>
      <trkpt lat="43.14836" lon="3.07919">
        <ele>194.385</ele>
        <time>2021-09-25T09:28:50Z</time>
      </trkpt>
      <trkpt lat="43.14838" lon="3.07922">
        <ele>193.99</ele>
        <time>2021-09-25T09:28:52Z</time>
      </trkpt>
      <trkpt lat="43.14839" lon="3.07925">
        <ele>193.619</ele>
        <time>2021-09-25T09:28:54Z</time>
      </trkpt>
      <trkpt lat="43.1484" lon="3.07929">
        <ele>193.686</ele>
        <time>2021-09-25T09:28:56Z</time>
      </trkpt>
      <trkpt lat="43.14841" lon="3.07932">
        <ele>193.155</ele>
        <time>2021-09-25T09:28:58Z</time>
      </trkpt>
      <trkpt lat="43.14841" lon="3.07935">
        <ele>193.066</ele>
        <time>2021-09-25T09:29:00Z</time>
      </trkpt>
      <trkpt lat="43.14842" lon="3.07939">
        <ele>193.083</ele>
        <time>2021-09-25T09:29:02Z</time>
      </trkpt>
      <trkpt lat="43.14842" lon="3.07942">
        <ele>193.121</ele>
        <time>2021-09-25T09:29:04Z</time>
      </trkpt>
      <trkpt lat="43.14842" lon="3.07946">
        <ele>192.928</ele>
        <time>2021-09-25T09:29:06Z</time>
      </trkpt>
      <trkpt lat="43.14842" lon="3.07949">
        <ele>192.94</ele>
        <time>2021-09-25T09:29:08Z</time>
      </trkpt>
      <trkpt lat="43.14843" lon="3.07953">
        <ele>192.77</ele>
        <time>2021-09-25T09:29:10Z</time>
      </trkpt>
      <trkpt lat="43.14843" lon="3.07956">
        <ele>192.816</ele>
        <time>2021-09-25T09:29:12Z</time>
      </trkpt>
      <trkpt lat="43.14843" lon="3.0796">
        <ele>192.408</ele>
        <time>2021-09-25T09:29:14Z</time>
      </trkpt>
      <trkpt lat="43.14843" lon="3.07964">
        <ele>192.409</ele>
        <time>2021-09-25T09:29:16Z</time>
      </trkpt>
      <trkpt lat="43.14843" lon="3.07967">
        <ele>192.22</ele>
        <time>2021-09-25T09:29:18Z</time>
      </trkpt>
      <trkpt lat="43.14843" lon="3.07971">
        <ele>192.178</ele>
        <time>2021-09-25T09:29:20Z</time>
      </trkpt>
      <trkpt lat="43.14844" lon="3.07974">
        <ele>192.296</ele>
        <time>2021-09-25T09:29:22Z</time>
      </trkpt>
      <trkpt lat="43.14844" lon="3.07978">
        <ele>191.807</ele>
        <time>2021-09-25T09:29:24Z</time>
      </trkpt>
      <trkpt lat="43.14845" lon="3.07981">
        <ele>191.53</ele>
        <time>2021-09-25T09:29:26Z</time>
      </trkpt>
      <trkpt lat="43.14845" lon="3.07985">
        <ele>191.418</ele>
        <time>2021-09-25T09:29:28Z</time>
      </trkpt>
      <trkpt lat="43.14846" lon="3.07988">
        <ele>191.53</ele>
        <time>2021-09-25T09:29:30Z</time>
      </trkpt>
      <trkpt lat="43.14847" lon="3.07992">
        <ele>191.437</ele>
        <time>2021-09-25T09:29:32Z</time>
      </trkpt>
      <trkpt lat="43.14847" lon="3.07995">
        <ele>191.659</ele>
        <time>2021-09-25T09:29:34Z</time>
      </trkpt>
      <trkpt lat="43.14848" lon="3.07998">
        <ele>191.881</ele>
        <time>2021-09-25T09:29:36Z</time>
      </trkpt>
      <trkpt lat="43.1485" lon="3.07999">
        <ele>191.928</ele>
        <time>2021-09-25T09:29:38Z</time>
      </trkpt>
      <trkpt lat="43.14852" lon="3.08001">
        <ele>191.614</ele>
        <time>2021-09-25T09:29:40Z</time>
      </trkpt>
      <trkpt lat="43.14853" lon="3.08003">
        <ele>191.227</ele>
        <time>2021-09-25T09:29:42Z</time>
      </trkpt>
      <trkpt lat="43.14855" lon="3.08006">
        <ele>191.029</ele>
        <time>2021-09-25T09:29:44Z</time>
      </trkpt>
      <trkpt lat="43.14855" lon="3.08009">
        <ele>190.612</ele>
        <time>2021-09-25T09:29:46Z</time>
      </trkpt>
      <trkpt lat="43.14856" lon="3.08012">
        <ele>190.209</ele>
        <time>2021-09-25T09:29:48Z</time>
      </trkpt>
      <trkpt lat="43.14856" lon="3.08015">
        <ele>189.479</ele>
        <time>2021-09-25T09:29:50Z</time>
      </trkpt>
      <trkpt lat="43.14858" lon="3.08017">
        <ele>189.26</ele>
        <time>2021-09-25T09:29:52Z</time>
      </trkpt>
      <trkpt lat="43.14859" lon="3.08019">
        <ele>189.223</ele>
        <time>2021-09-25T09:29:54Z</time>
      </trkpt>
      <trkpt lat="43.14862" lon="3.08019">
        <ele>189.153</ele>
        <time>2021-09-25T09:29:56Z</time>
      </trkpt>
      <trkpt lat="43.14864" lon="3.08017">
        <ele>189.171</ele>
        <time>2021-09-25T09:29:58Z</time>
      </trkpt>
      <trkpt lat="43.14865" lon="3.08014">
        <ele>188.7</ele>
        <time>2021-09-25T09:30:00Z</time>
      </trkpt>
      <trkpt lat="43.14865" lon="3.08011">
        <ele>188.327</ele>
        <time>2021-09-25T09:30:02Z</time>
      </trkpt>
      <trkpt lat="43.14865" lon="3.08008">
        <ele>188.36</ele>
        <time>2021-09-25T09:30:04Z</time>
      </trkpt>
      <trkpt lat="43.14865" lon="3.08004">
        <ele>189.323</ele>
        <time>2021-09-25T09:30:06Z</time>
      </trkpt>
      <trkpt lat="43.14865" lon="3.08002">
        <ele>190.203</ele>
        <time>2021-09-25T09:30:08Z</time>
      </trkpt>
      <trkpt lat="43.14866" lon="3.08">
        <ele>190.622</ele>
        <time>2021-09-25T09:30:10Z</time>
      </trkpt>
      <trkpt lat="43.14867" lon="3.07997">
        <ele>190.814</ele>
        <time>2021-09-25T09:30:12Z</time>
      </trkpt>
      <trkpt lat="43.14869" lon="3.07996">
        <ele>189.937</ele>
        <time>2021-09-25T09:30:14Z</time>
      </trkpt>
      <trkpt lat="43.1487" lon="3.07993">
        <ele>189.043</ele>
        <time>2021-09-25T09:30:16Z</time>
      </trkpt>
      <trkpt lat="43.14871" lon="3.07991">
        <ele>188.377</ele>
        <time>2021-09-25T09:30:18Z</time>
      </trkpt>
      <trkpt lat="43.14872" lon="3.07989">
        <ele>187.208</ele>
        <time>2021-09-25T09:30:20Z</time>
      </trkpt>
      <trkpt lat="43.14873" lon="3.07987">
        <ele>186.824</ele>
        <time>2021-09-25T09:30:22Z</time>
      </trkpt>
      <trkpt lat="43.14875" lon="3.07986">
        <ele>186.458</ele>
        <time>2021-09-25T09:30:24Z</time>
      </trkpt>
      <trkpt lat="43.14876" lon="3.07984">
        <ele>185.631</ele>
        <time>2021-09-25T09:30:26Z</time>
      </trkpt>
      <trkpt lat="43.14878" lon="3.07983">
        <ele>184.466</ele>
        <time>2021-09-25T09:30:28Z</time>
      </trkpt>
      <trkpt lat="43.14879" lon="3.07981">
        <ele>184.034</ele>
        <time>2021-09-25T09:30:30Z</time>
      </trkpt>
      <trkpt lat="43.14881" lon="3.0798">
        <ele>183.719</ele>
        <time>2021-09-25T09:30:32Z</time>
      </trkpt>
      <trkpt lat="43.14882" lon="3.07979">
        <ele>182.612</ele>
        <time>2021-09-25T09:30:34Z</time>
      </trkpt>
      <trkpt lat="43.14884" lon="3.07979">
        <ele>182.065</ele>
        <time>2021-09-25T09:30:36Z</time>
      </trkpt>
      <trkpt lat="43.14886" lon="3.07978">
        <ele>181.648</ele>
        <time>2021-09-25T09:30:38Z</time>
      </trkpt>
      <trkpt lat="43.14888" lon="3.07977">
        <ele>181.219</ele>
        <time>2021-09-25T09:30:40Z</time>
      </trkpt>
      <trkpt lat="43.1489" lon="3.07976">
        <ele>181.048</ele>
        <time>2021-09-25T09:30:42Z</time>
      </trkpt>
      <trkpt lat="43.14891" lon="3.07975">
        <ele>180.729</ele>
        <time>2021-09-25T09:30:44Z</time>
      </trkpt>
      <trkpt lat="43.14893" lon="3.07973">
        <ele>180.386</ele>
        <time>2021-09-25T09:30:46Z</time>
      </trkpt>
      <trkpt lat="43.14894" lon="3.07971">
        <ele>180.398</ele>
        <time>2021-09-25T09:30:48Z</time>
      </trkpt>
      <trkpt lat="43.14896" lon="3.0797">
        <ele>180.468</ele>
        <time>2021-09-25T09:30:50Z</time>
      </trkpt>
      <trkpt lat="43.14898" lon="3.0797">
        <ele>179.777</ele>
        <time>2021-09-25T09:30:52Z</time>
      </trkpt>
      <trkpt lat="43.14899" lon="3.07969">
        <ele>178.734</ele>
        <time>2021-09-25T09:30:54Z</time>
      </trkpt>
      <trkpt lat="43.149" lon="3.07967">
        <ele>178.648</ele>
        <time>2021-09-25T09:30:56Z</time>
      </trkpt>
      <trkpt lat="43.14901" lon="3.07966">
        <ele>178.142</ele>
        <time>2021-09-25T09:30:58Z</time>
      </trkpt>
      <trkpt lat="43.14903" lon="3.07967">
        <ele>177.165</ele>
        <time>2021-09-25T09:31:00Z</time>
      </trkpt>
      <trkpt lat="43.14904" lon="3.07968">
        <ele>176.122</ele>
        <time>2021-09-25T09:31:02Z</time>
      </trkpt>
      <trkpt lat="43.14906" lon="3.0797">
        <ele>175.882</ele>
        <time>2021-09-25T09:31:04Z</time>
      </trkpt>
      <trkpt lat="43.14907" lon="3.0797">
        <ele>175.129</ele>
        <time>2021-09-25T09:31:06Z</time>
      </trkpt>
      <trkpt lat="43.14909" lon="3.07969">
        <ele>175.193</ele>
        <time>2021-09-25T09:31:08Z</time>
      </trkpt>
      <trkpt lat="43.14911" lon="3.07968">
        <ele>175.03</ele>
        <time>2021-09-25T09:31:10Z</time>
      </trkpt>
      <trkpt lat="43.14913" lon="3.07967">
        <ele>174.775</ele>
        <time>2021-09-25T09:31:12Z</time>
      </trkpt>
      <trkpt lat="43.14915" lon="3.07966">
        <ele>174.68</ele>
        <time>2021-09-25T09:31:14Z</time>
      </trkpt>
      <trkpt lat="43.14917" lon="3.07964">
        <ele>174.255</ele>
        <time>2021-09-25T09:31:16Z</time>
      </trkpt>
      <trkpt lat="43.14918" lon="3.07962">
        <ele>173.997</ele>
        <time>2021-09-25T09:31:18Z</time>
      </trkpt>
      <trkpt lat="43.14919" lon="3.07961">
        <ele>173.715</ele>
        <time>2021-09-25T09:31:20Z</time>
      </trkpt>
      <trkpt lat="43.1492" lon="3.0796">
        <ele>173.552</ele>
        <time>2021-09-25T09:31:22Z</time>
      </trkpt>
      <trkpt lat="43.14922" lon="3.0796">
        <ele>173.822</ele>
        <time>2021-09-25T09:31:24Z</time>
      </trkpt>
      <trkpt lat="43.14923" lon="3.0796">
        <ele>173.278</ele>
        <time>2021-09-25T09:31:26Z</time>
      </trkpt>
      <trkpt lat="43.14925" lon="3.0796">
        <ele>173.035</ele>
        <time>2021-09-25T09:31:28Z</time>
      </trkpt>
      <trkpt lat="43.14926" lon="3.07959">
        <ele>172.42</ele>
        <time>2021-09-25T09:31:30Z</time>
      </trkpt>
      <trkpt lat="43.14927" lon="3.07958">
        <ele>172.161</ele>
        <time>2021-09-25T09:31:32Z</time>
      </trkpt>
      <trkpt lat="43.14928" lon="3.07959">
        <ele>171.111</ele>
        <time>2021-09-25T09:31:34Z</time>
      </trkpt>
      <trkpt lat="43.14928" lon="3.07962">
        <ele>170.716</ele>
        <time>2021-09-25T09:31:36Z</time>
      </trkpt>
      <trkpt lat="43.14927" lon="3.07965">
        <ele>170.77</ele>
        <time>2021-09-25T09:31:38Z</time>
      </trkpt>
      <trkpt lat="43.14926" lon="3.07967">
        <ele>170.127</ele>
        <time>2021-09-25T09:31:40Z</time>
      </trkpt>
      <trkpt lat="43.14925" lon="3.07969">
        <ele>170.123</ele>
        <time>2021-09-25T09:31:42Z</time>
      </trkpt>
      <trkpt lat="43.14925" lon="3.07971">
        <ele>169.86</ele>
        <time>2021-09-25T09:31:44Z</time>
      </trkpt>
      <trkpt lat="43.14924" lon="3.07973">
        <ele>170.056</ele>
        <time>2021-09-25T09:31:46Z</time>
      </trkpt>
      <trkpt lat="43.14924" lon="3.07975">
        <ele>170.005</ele>
        <time>2021-09-25T09:31:48Z</time>
      </trkpt>
      <trkpt lat="43.14923" lon="3.07977">
        <ele>170.566</ele>
        <time>2021-09-25T09:31:50Z</time>
      </trkpt>
      <trkpt lat="43.14922" lon="3.07979">
        <ele>171.128</ele>
        <time>2021-09-25T09:31:52Z</time>
      </trkpt>
      <trkpt lat="43.14922" lon="3.0798">
        <ele>171.614</ele>
        <time>2021-09-25T09:31:54Z</time>
      </trkpt>
      <trkpt lat="43.14921" lon="3.07982">
        <ele>171.273</ele>
        <time>2021-09-25T09:31:56Z</time>
      </trkpt>
      <trkpt lat="43.14921" lon="3.07983">
        <ele>170.188</ele>
        <time>2021-09-25T09:31:58Z</time>
      </trkpt>
      <trkpt lat="43.14922" lon="3.07984">
        <ele>169.686</ele>
        <time>2021-09-25T09:32:00Z</time>
      </trkpt>
      <trkpt lat="43.14922" lon="3.07983">
        <ele>169.472</ele>
        <time>2021-09-25T09:32:02Z</time>
      </trkpt>
      <trkpt lat="43.14922" lon="3.07982">
        <ele>169.434</ele>
        <time>2021-09-25T09:32:04Z</time>
      </trkpt>
      <trkpt lat="43.14922" lon="3.07982">
        <ele>169.089</ele>
        <time>2021-09-25T09:32:06Z</time>
      </trkpt>
      <trkpt lat="43.14921" lon="3.07983">
        <ele>169.526</ele>
        <time>2021-09-25T09:32:08Z</time>
      </trkpt>
      <trkpt lat="43.14921" lon="3.07985">
        <ele>169.389</ele>
        <time>2021-09-25T09:32:10Z</time>
      </trkpt>
      <trkpt lat="43.1492" lon="3.07987">
        <ele>168.093</ele>
        <time>2021-09-25T09:32:12Z</time>
      </trkpt>
      <trkpt lat="43.1492" lon="3.07989">
        <ele>166.413</ele>
        <time>2021-09-25T09:32:14Z</time>
      </trkpt>
      <trkpt lat="43.14919" lon="3.07992">
        <ele>165.372</ele>
        <time>2021-09-25T09:32:16Z</time>
      </trkpt>
      <trkpt lat="43.14917" lon="3.07993">
        <ele>166.913</ele>
        <time>2021-09-25T09:32:18Z</time>
      </trkpt>
      <trkpt lat="43.14917" lon="3.07993">
        <ele>167.876</ele>
        <time>2021-09-25T09:32:20Z</time>
      </trkpt>
      <trkpt lat="43.14917" lon="3.07995">
        <ele>169.244</ele>
        <time>2021-09-25T09:32:22Z</time>
      </trkpt>
      <trkpt lat="43.14917" lon="3.07995">
        <ele>169.911</ele>
        <time>2021-09-25T09:32:24Z</time>
      </trkpt>
      <trkpt lat="43.14917" lon="3.07996">
        <ele>170.432</ele>
        <time>2021-09-25T09:32:26Z</time>
      </trkpt>
      <trkpt lat="43.14917" lon="3.07997">
        <ele>171.035</ele>
        <time>2021-09-25T09:32:28Z</time>
      </trkpt>
      <trkpt lat="43.14916" lon="3.07998">
        <ele>170.64</ele>
        <time>2021-09-25T09:32:30Z</time>
      </trkpt>
      <trkpt lat="43.14917" lon="3.07998">
        <ele>170.763</ele>
        <time>2021-09-25T09:32:32Z</time>
      </trkpt>
      <trkpt lat="43.14918" lon="3.07997">
        <ele>171.625</ele>
        <time>2021-09-25T09:32:34Z</time>
      </trkpt>
      <trkpt lat="43.14918" lon="3.07996">
        <ele>172.08</ele>
        <time>2021-09-25T09:32:36Z</time>
      </trkpt>
      <trkpt lat="43.14918" lon="3.07996">
        <ele>172.069</ele>
        <time>2021-09-25T09:32:38Z</time>
      </trkpt>
      <trkpt lat="43.14918" lon="3.07996">
        <ele>172.074</ele>
        <time>2021-09-25T09:32:40Z</time>
      </trkpt>
      <trkpt lat="43.14918" lon="3.07996">
        <ele>171.868</ele>
        <time>2021-09-25T09:32:42Z</time>
      </trkpt>
      <trkpt lat="43.14919" lon="3.07994">
        <ele>171.679</ele>
        <time>2021-09-25T09:32:44Z</time>
      </trkpt>
      <trkpt lat="43.14919" lon="3.07991">
        <ele>171.215</ele>
        <time>2021-09-25T09:32:46Z</time>
      </trkpt>
      <trkpt lat="43.14919" lon="3.07989">
        <ele>171.301</ele>
        <time>2021-09-25T09:32:48Z</time>
      </trkpt>
      <trkpt lat="43.14918" lon="3.07989">
        <ele>170.684</ele>
        <time>2021-09-25T09:32:50Z</time>
      </trkpt>
      <trkpt lat="43.14917" lon="3.07988">
        <ele>170.038</ele>
        <time>2021-09-25T09:32:52Z</time>
      </trkpt>
      <trkpt lat="43.14918" lon="3.07987">
        <ele>170.753</ele>
        <time>2021-09-25T09:32:54Z</time>
      </trkpt>
      <trkpt lat="43.14919" lon="3.07985">
        <ele>170.505</ele>
        <time>2021-09-25T09:32:56Z</time>
      </trkpt>
      <trkpt lat="43.1492" lon="3.07984">
        <ele>171.113</ele>
        <time>2021-09-25T09:32:58Z</time>
      </trkpt>
      <trkpt lat="43.1492" lon="3.07983">
        <ele>171.419</ele>
        <time>2021-09-25T09:33:00Z</time>
      </trkpt>
      <trkpt lat="43.14921" lon="3.07982">
        <ele>172.454</ele>
        <time>2021-09-25T09:33:02Z</time>
      </trkpt>
      <trkpt lat="43.14921" lon="3.07981">
        <ele>172.46</ele>
        <time>2021-09-25T09:33:04Z</time>
      </trkpt>
      <trkpt lat="43.14921" lon="3.07981">
        <ele>172.538</ele>
        <time>2021-09-25T09:33:06Z</time>
      </trkpt>
      <trkpt lat="43.14921" lon="3.07979">
        <ele>172.002</ele>
        <time>2021-09-25T09:33:08Z</time>
      </trkpt>
      <trkpt lat="43.14921" lon="3.07978">
        <ele>171.707</ele>
        <time>2021-09-25T09:33:10Z</time>
      </trkpt>
      <trkpt lat="43.14921" lon="3.07978">
        <ele>171.689</ele>
        <time>2021-09-25T09:33:12Z</time>
      </trkpt>
      <trkpt lat="43.14921" lon="3.07976">
        <ele>171.616</ele>
        <time>2021-09-25T09:33:14Z</time>
      </trkpt>
      <trkpt lat="43.14922" lon="3.07974">
        <ele>171.473</ele>
        <time>2021-09-25T09:33:16Z</time>
      </trkpt>
      <trkpt lat="43.14922" lon="3.07973">
        <ele>171.132</ele>
        <time>2021-09-25T09:33:18Z</time>
      </trkpt>
      <trkpt lat="43.14923" lon="3.07971">
        <ele>170.488</ele>
        <time>2021-09-25T09:33:20Z</time>
      </trkpt>
      <trkpt lat="43.14923" lon="3.07969">
        <ele>170.403</ele>
        <time>2021-09-25T09:33:22Z</time>
      </trkpt>
      <trkpt lat="43.14923" lon="3.07967">
        <ele>170.263</ele>
        <time>2021-09-25T09:33:24Z</time>
      </trkpt>
      <trkpt lat="43.14923" lon="3.07965">
        <ele>169.4</ele>
        <time>2021-09-25T09:33:26Z</time>
      </trkpt>
      <trkpt lat="43.14924" lon="3.07962">
        <ele>168.229</ele>
        <time>2021-09-25T09:33:28Z</time>
      </trkpt>
      <trkpt lat="43.14923" lon="3.0796">
        <ele>167.539</ele>
        <time>2021-09-25T09:33:30Z</time>
      </trkpt>
      <trkpt lat="43.14924" lon="3.07957">
        <ele>167.198</ele>
        <time>2021-09-25T09:33:32Z</time>
      </trkpt>
      <trkpt lat="43.14924" lon="3.07954">
        <ele>166.493</ele>
        <time>2021-09-25T09:33:34Z</time>
      </trkpt>
      <trkpt lat="43.14925" lon="3.07951">
        <ele>165.853</ele>
        <time>2021-09-25T09:33:36Z</time>
      </trkpt>
      <trkpt lat="43.14926" lon="3.07949">
        <ele>166.463</ele>
        <time>2021-09-25T09:33:38Z</time>
      </trkpt>
      <trkpt lat="43.14928" lon="3.07948">
        <ele>166.275</ele>
        <time>2021-09-25T09:33:40Z</time>
      </trkpt>
      <trkpt lat="43.14929" lon="3.07946">
        <ele>165.981</ele>
        <time>2021-09-25T09:33:42Z</time>
      </trkpt>
      <trkpt lat="43.14931" lon="3.07945">
        <ele>165.398</ele>
        <time>2021-09-25T09:33:44Z</time>
      </trkpt>
      <trkpt lat="43.14933" lon="3.07944">
        <ele>164.903</ele>
        <time>2021-09-25T09:33:46Z</time>
      </trkpt>
      <trkpt lat="43.14934" lon="3.07942">
        <ele>164.616</ele>
        <time>2021-09-25T09:33:48Z</time>
      </trkpt>
      <trkpt lat="43.14935" lon="3.0794">
        <ele>164.162</ele>
        <time>2021-09-25T09:33:50Z</time>
      </trkpt>
      <trkpt lat="43.14936" lon="3.07939">
        <ele>163.517</ele>
        <time>2021-09-25T09:33:52Z</time>
      </trkpt>
      <trkpt lat="43.14937" lon="3.07937">
        <ele>162.916</ele>
        <time>2021-09-25T09:33:54Z</time>
      </trkpt>
      <trkpt lat="43.14937" lon="3.07934">
        <ele>163.373</ele>
        <time>2021-09-25T09:33:56Z</time>
      </trkpt>
      <trkpt lat="43.14938" lon="3.07932">
        <ele>162.798</ele>
        <time>2021-09-25T09:33:58Z</time>
      </trkpt>
      <trkpt lat="43.14939" lon="3.0793">
        <ele>162.002</ele>
        <time>2021-09-25T09:34:00Z</time>
      </trkpt>
      <trkpt lat="43.14939" lon="3.07927">
        <ele>161.44</ele>
        <time>2021-09-25T09:34:02Z</time>
      </trkpt>
      <trkpt lat="43.1494" lon="3.07925">
        <ele>161.384</ele>
        <time>2021-09-25T09:34:04Z</time>
      </trkpt>
      <trkpt lat="43.1494" lon="3.07924">
        <ele>160.705</ele>
        <time>2021-09-25T09:34:06Z</time>
      </trkpt>
      <trkpt lat="43.1494" lon="3.07924">
        <ele>160.699</ele>
        <time>2021-09-25T09:34:08Z</time>
      </trkpt>
      <trkpt lat="43.1494" lon="3.07924">
        <ele>160.3</ele>
        <time>2021-09-25T09:34:10Z</time>
      </trkpt>
      <trkpt lat="43.1494" lon="3.07922">
        <ele>159.791</ele>
        <time>2021-09-25T09:34:12Z</time>
      </trkpt>
      <trkpt lat="43.14941" lon="3.0792">
        <ele>159.806</ele>
        <time>2021-09-25T09:34:14Z</time>
      </trkpt>
      <trkpt lat="43.14939" lon="3.07917">
        <ele>159.195</ele>
        <time>2021-09-25T09:34:16Z</time>
      </trkpt>
      <trkpt lat="43.1494" lon="3.07915">
        <ele>158.805</ele>
        <time>2021-09-25T09:34:18Z</time>
      </trkpt>
      <trkpt lat="43.1494" lon="3.07912">
        <ele>157.964</ele>
        <time>2021-09-25T09:34:20Z</time>
      </trkpt>
      <trkpt lat="43.1494" lon="3.07909">
        <ele>157.062</ele>
        <time>2021-09-25T09:34:22Z</time>
      </trkpt>
      <trkpt lat="43.14941" lon="3.07907">
        <ele>156.545</ele>
        <time>2021-09-25T09:34:24Z</time>
      </trkpt>
      <trkpt lat="43.14941" lon="3.07904">
        <ele>156.955</ele>
        <time>2021-09-25T09:34:26Z</time>
      </trkpt>
      <trkpt lat="43.14942" lon="3.079">
        <ele>156.711</ele>
        <time>2021-09-25T09:34:28Z</time>
      </trkpt>
      <trkpt lat="43.14942" lon="3.07898">
        <ele>156.836</ele>
        <time>2021-09-25T09:34:30Z</time>
      </trkpt>
      <trkpt lat="43.14944" lon="3.07896">
        <ele>156.995</ele>
        <time>2021-09-25T09:34:32Z</time>
      </trkpt>
      <trkpt lat="43.14945" lon="3.07894">
        <ele>156.388</ele>
        <time>2021-09-25T09:34:34Z</time>
      </trkpt>
      <trkpt lat="43.14945" lon="3.07891">
        <ele>157.129</ele>
        <time>2021-09-25T09:34:36Z</time>
      </trkpt>
      <trkpt lat="43.14945" lon="3.07888">
        <ele>157.005</ele>
        <time>2021-09-25T09:34:38Z</time>
      </trkpt>
      <trkpt lat="43.14946" lon="3.07886">
        <ele>157.001</ele>
        <time>2021-09-25T09:34:40Z</time>
      </trkpt>
      <trkpt lat="43.14946" lon="3.07883">
        <ele>155.979</ele>
        <time>2021-09-25T09:34:42Z</time>
      </trkpt>
      <trkpt lat="43.14946" lon="3.07881">
        <ele>155.69</ele>
        <time>2021-09-25T09:34:44Z</time>
      </trkpt>
      <trkpt lat="43.14947" lon="3.07878">
        <ele>156.091</ele>
        <time>2021-09-25T09:34:46Z</time>
      </trkpt>
      <trkpt lat="43.14946" lon="3.07877">
        <ele>156.307</ele>
        <time>2021-09-25T09:34:48Z</time>
      </trkpt>
      <trkpt lat="43.14946" lon="3.07874">
        <ele>157.26</ele>
        <time>2021-09-25T09:34:50Z</time>
      </trkpt>
      <trkpt lat="43.14947" lon="3.07872">
        <ele>156.735</ele>
        <time>2021-09-25T09:34:52Z</time>
      </trkpt>
      <trkpt lat="43.14948" lon="3.07869">
        <ele>156.869</ele>
        <time>2021-09-25T09:34:54Z</time>
      </trkpt>
      <trkpt lat="43.14949" lon="3.07867">
        <ele>156.278</ele>
        <time>2021-09-25T09:34:56Z</time>
      </trkpt>
      <trkpt lat="43.14949" lon="3.07865">
        <ele>155.365</ele>
        <time>2021-09-25T09:34:58Z</time>
      </trkpt>
      <trkpt lat="43.14951" lon="3.07863">
        <ele>154.251</ele>
        <time>2021-09-25T09:35:00Z</time>
      </trkpt>
      <trkpt lat="43.14951" lon="3.07861">
        <ele>152.666</ele>
        <time>2021-09-25T09:35:02Z</time>
      </trkpt>
      <trkpt lat="43.14951" lon="3.07858">
        <ele>153.038</ele>
        <time>2021-09-25T09:35:04Z</time>
      </trkpt>
      <trkpt lat="43.14952" lon="3.07856">
        <ele>153.237</ele>
        <time>2021-09-25T09:35:06Z</time>
      </trkpt>
      <trkpt lat="43.14953" lon="3.07854">
        <ele>153.648</ele>
        <time>2021-09-25T09:35:08Z</time>
      </trkpt>
      <trkpt lat="43.14954" lon="3.07852">
        <ele>153.833</ele>
        <time>2021-09-25T09:35:10Z</time>
      </trkpt>
      <trkpt lat="43.14955" lon="3.0785">
        <ele>153.73</ele>
        <time>2021-09-25T09:35:12Z</time>
      </trkpt>
      <trkpt lat="43.14955" lon="3.07847">
        <ele>153.996</ele>
        <time>2021-09-25T09:35:14Z</time>
      </trkpt>
      <trkpt lat="43.14956" lon="3.07845">
        <ele>153.01</ele>
        <time>2021-09-25T09:35:16Z</time>
      </trkpt>
      <trkpt lat="43.14958" lon="3.07843">
        <ele>152.277</ele>
        <time>2021-09-25T09:35:18Z</time>
      </trkpt>
      <trkpt lat="43.1496" lon="3.0784">
        <ele>152.297</ele>
        <time>2021-09-25T09:35:20Z</time>
      </trkpt>
      <trkpt lat="43.14962" lon="3.07838">
        <ele>151.771</ele>
        <time>2021-09-25T09:35:22Z</time>
      </trkpt>
      <trkpt lat="43.14963" lon="3.07835">
        <ele>151.501</ele>
        <time>2021-09-25T09:35:24Z</time>
      </trkpt>
      <trkpt lat="43.14964" lon="3.07833">
        <ele>151.45</ele>
        <time>2021-09-25T09:35:26Z</time>
      </trkpt>
      <trkpt lat="43.14964" lon="3.07829">
        <ele>151.586</ele>
        <time>2021-09-25T09:35:28Z</time>
      </trkpt>
      <trkpt lat="43.14963" lon="3.07827">
        <ele>151.277</ele>
        <time>2021-09-25T09:35:30Z</time>
      </trkpt>
      <trkpt lat="43.14962" lon="3.07824">
        <ele>150.929</ele>
        <time>2021-09-25T09:35:32Z</time>
      </trkpt>
      <trkpt lat="43.14963" lon="3.0782">
        <ele>150.945</ele>
        <time>2021-09-25T09:35:34Z</time>
      </trkpt>
      <trkpt lat="43.14964" lon="3.07818">
        <ele>150.89</ele>
        <time>2021-09-25T09:35:36Z</time>
      </trkpt>
      <trkpt lat="43.14965" lon="3.07816">
        <ele>150.675</ele>
        <time>2021-09-25T09:35:38Z</time>
      </trkpt>
      <trkpt lat="43.14967" lon="3.07814">
        <ele>150.835</ele>
        <time>2021-09-25T09:35:40Z</time>
      </trkpt>
      <trkpt lat="43.14969" lon="3.07813">
        <ele>150.674</ele>
        <time>2021-09-25T09:35:42Z</time>
      </trkpt>
      <trkpt lat="43.14972" lon="3.0781">
        <ele>150.55</ele>
        <time>2021-09-25T09:35:44Z</time>
      </trkpt>
      <trkpt lat="43.14974" lon="3.07808">
        <ele>149.827</ele>
        <time>2021-09-25T09:35:46Z</time>
      </trkpt>
      <trkpt lat="43.14976" lon="3.07807">
        <ele>149.524</ele>
        <time>2021-09-25T09:35:48Z</time>
      </trkpt>
      <trkpt lat="43.14978" lon="3.07806">
        <ele>149.859</ele>
        <time>2021-09-25T09:35:50Z</time>
      </trkpt>
      <trkpt lat="43.1498" lon="3.07804">
        <ele>150.278</ele>
        <time>2021-09-25T09:35:52Z</time>
      </trkpt>
      <trkpt lat="43.14982" lon="3.07801">
        <ele>149.714</ele>
        <time>2021-09-25T09:35:54Z</time>
      </trkpt>
      <trkpt lat="43.14984" lon="3.07798">
        <ele>149.469</ele>
        <time>2021-09-25T09:35:56Z</time>
      </trkpt>
      <trkpt lat="43.14985" lon="3.07796">
        <ele>148.979</ele>
        <time>2021-09-25T09:35:58Z</time>
      </trkpt>
      <trkpt lat="43.14987" lon="3.07792">
        <ele>149.469</ele>
        <time>2021-09-25T09:36:00Z</time>
      </trkpt>
      <trkpt lat="43.14988" lon="3.07789">
        <ele>148.513</ele>
        <time>2021-09-25T09:36:02Z</time>
      </trkpt>
      <trkpt lat="43.14989" lon="3.07787">
        <ele>148.105</ele>
        <time>2021-09-25T09:36:04Z</time>
      </trkpt>
      <trkpt lat="43.14991" lon="3.07784">
        <ele>148.05</ele>
        <time>2021-09-25T09:36:06Z</time>
      </trkpt>
      <trkpt lat="43.14993" lon="3.07781">
        <ele>148.092</ele>
        <time>2021-09-25T09:36:08Z</time>
      </trkpt>
      <trkpt lat="43.14993" lon="3.07778">
        <ele>148.519</ele>
        <time>2021-09-25T09:36:10Z</time>
      </trkpt>
      <trkpt lat="43.14994" lon="3.07775">
        <ele>148.613</ele>
        <time>2021-09-25T09:36:12Z</time>
      </trkpt>
      <trkpt lat="43.14995" lon="3.07772">
        <ele>148.352</ele>
        <time>2021-09-25T09:36:14Z</time>
      </trkpt>
      <trkpt lat="43.14996" lon="3.0777">
        <ele>148.725</ele>
        <time>2021-09-25T09:36:16Z</time>
      </trkpt>
      <trkpt lat="43.14996" lon="3.07772">
        <ele>147.732</ele>
        <time>2021-09-25T09:36:18Z</time>
      </trkpt>
      <trkpt lat="43.14996" lon="3.07773">
        <ele>147.746</ele>
        <time>2021-09-25T09:36:20Z</time>
      </trkpt>
      <trkpt lat="43.14996" lon="3.07773">
        <ele>147.744</ele>
        <time>2021-09-25T09:36:22Z</time>
      </trkpt>
      <trkpt lat="43.14996" lon="3.07773">
        <ele>147.744</ele>
        <time>2021-09-25T09:36:24Z</time>
      </trkpt>
      <trkpt lat="43.14996" lon="3.07773">
        <ele>147.901</ele>
        <time>2021-09-25T09:36:26Z</time>
      </trkpt>
      <trkpt lat="43.14996" lon="3.07772">
        <ele>147.453</ele>
        <time>2021-09-25T09:36:28Z</time>
      </trkpt>
      <trkpt lat="43.14996" lon="3.07769">
        <ele>146.98</ele>
        <time>2021-09-25T09:36:30Z</time>
      </trkpt>
      <trkpt lat="43.14996" lon="3.07765">
        <ele>146.45</ele>
        <time>2021-09-25T09:36:32Z</time>
      </trkpt>
      <trkpt lat="43.14996" lon="3.07762">
        <ele>146.525</ele>
        <time>2021-09-25T09:36:34Z</time>
      </trkpt>
      <trkpt lat="43.14996" lon="3.07758">
        <ele>146.597</ele>
        <time>2021-09-25T09:36:36Z</time>
      </trkpt>
      <trkpt lat="43.14996" lon="3.07755">
        <ele>146.349</ele>
        <time>2021-09-25T09:36:38Z</time>
      </trkpt>
      <trkpt lat="43.14995" lon="3.07752">
        <ele>145.448</ele>
        <time>2021-09-25T09:36:40Z</time>
      </trkpt>
      <trkpt lat="43.14996" lon="3.07749">
        <ele>145.237</ele>
        <time>2021-09-25T09:36:42Z</time>
      </trkpt>
      <trkpt lat="43.14996" lon="3.07746">
        <ele>145.501</ele>
        <time>2021-09-25T09:36:44Z</time>
      </trkpt>
      <trkpt lat="43.14997" lon="3.07742">
        <ele>145.21</ele>
        <time>2021-09-25T09:36:46Z</time>
      </trkpt>
      <trkpt lat="43.14998" lon="3.07739">
        <ele>145.167</ele>
        <time>2021-09-25T09:36:48Z</time>
      </trkpt>
      <trkpt lat="43.14999" lon="3.07735">
        <ele>145.179</ele>
        <time>2021-09-25T09:36:50Z</time>
      </trkpt>
      <trkpt lat="43.14999" lon="3.07732">
        <ele>144.829</ele>
        <time>2021-09-25T09:36:52Z</time>
      </trkpt>
      <trkpt lat="43.15001" lon="3.07729">
        <ele>143.714</ele>
        <time>2021-09-25T09:36:54Z</time>
      </trkpt>
      <trkpt lat="43.15003" lon="3.07725">
        <ele>143.714</ele>
        <time>2021-09-25T09:36:56Z</time>
      </trkpt>
      <trkpt lat="43.15004" lon="3.07722">
        <ele>143.936</ele>
        <time>2021-09-25T09:36:58Z</time>
      </trkpt>
      <trkpt lat="43.15006" lon="3.07719">
        <ele>143.67</ele>
        <time>2021-09-25T09:37:00Z</time>
      </trkpt>
      <trkpt lat="43.15008" lon="3.07716">
        <ele>143.418</ele>
        <time>2021-09-25T09:37:02Z</time>
      </trkpt>
      <trkpt lat="43.1501" lon="3.07714">
        <ele>143.356</ele>
        <time>2021-09-25T09:37:04Z</time>
      </trkpt>
      <trkpt lat="43.15012" lon="3.07712">
        <ele>143.053</ele>
        <time>2021-09-25T09:37:06Z</time>
      </trkpt>
      <trkpt lat="43.15014" lon="3.0771">
        <ele>142.835</ele>
        <time>2021-09-25T09:37:08Z</time>
      </trkpt>
      <trkpt lat="43.15016" lon="3.07709">
        <ele>142.176</ele>
        <time>2021-09-25T09:37:10Z</time>
      </trkpt>
      <trkpt lat="43.15019" lon="3.07708">
        <ele>142.392</ele>
        <time>2021-09-25T09:37:12Z</time>
      </trkpt>
      <trkpt lat="43.15021" lon="3.07706">
        <ele>142.662</ele>
        <time>2021-09-25T09:37:14Z</time>
      </trkpt>
      <trkpt lat="43.15023" lon="3.07704">
        <ele>142.032</ele>
        <time>2021-09-25T09:37:16Z</time>
      </trkpt>
      <trkpt lat="43.15026" lon="3.07703">
        <ele>141.665</ele>
        <time>2021-09-25T09:37:18Z</time>
      </trkpt>
      <trkpt lat="43.15028" lon="3.07702">
        <ele>141.571</ele>
        <time>2021-09-25T09:37:20Z</time>
      </trkpt>
      <trkpt lat="43.15031" lon="3.07701">
        <ele>141.282</ele>
        <time>2021-09-25T09:37:22Z</time>
      </trkpt>
      <trkpt lat="43.15033" lon="3.077">
        <ele>141.128</ele>
        <time>2021-09-25T09:37:24Z</time>
      </trkpt>
      <trkpt lat="43.15035" lon="3.07699">
        <ele>141.185</ele>
        <time>2021-09-25T09:37:26Z</time>
      </trkpt>
      <trkpt lat="43.15038" lon="3.07697">
        <ele>142.059</ele>
        <time>2021-09-25T09:37:28Z</time>
      </trkpt>
      <trkpt lat="43.15039" lon="3.07697">
        <ele>142.412</ele>
        <time>2021-09-25T09:37:30Z</time>
      </trkpt>
      <trkpt lat="43.15041" lon="3.07695">
        <ele>142.2</ele>
        <time>2021-09-25T09:37:32Z</time>
      </trkpt>
      <trkpt lat="43.15043" lon="3.07693">
        <ele>142.335</ele>
        <time>2021-09-25T09:37:34Z</time>
      </trkpt>
      <trkpt lat="43.15045" lon="3.07691">
        <ele>141.856</ele>
        <time>2021-09-25T09:37:36Z</time>
      </trkpt>
      <trkpt lat="43.15047" lon="3.07689">
        <ele>141.804</ele>
        <time>2021-09-25T09:37:38Z</time>
      </trkpt>
      <trkpt lat="43.15048" lon="3.07687">
        <ele>141.73</ele>
        <time>2021-09-25T09:37:40Z</time>
      </trkpt>
      <trkpt lat="43.1505" lon="3.07686">
        <ele>141.854</ele>
        <time>2021-09-25T09:37:42Z</time>
      </trkpt>
      <trkpt lat="43.15051" lon="3.07683">
        <ele>141.776</ele>
        <time>2021-09-25T09:37:44Z</time>
      </trkpt>
      <trkpt lat="43.15052" lon="3.0768">
        <ele>141.905</ele>
        <time>2021-09-25T09:37:46Z</time>
      </trkpt>
      <trkpt lat="43.15052" lon="3.07678">
        <ele>140.997</ele>
        <time>2021-09-25T09:37:48Z</time>
      </trkpt>
      <trkpt lat="43.15049" lon="3.07678">
        <ele>141.023</ele>
        <time>2021-09-25T09:37:50Z</time>
      </trkpt>
      <trkpt lat="43.15047" lon="3.07677">
        <ele>141.406</ele>
        <time>2021-09-25T09:37:52Z</time>
      </trkpt>
      <trkpt lat="43.15045" lon="3.07675">
        <ele>141.12</ele>
        <time>2021-09-25T09:37:54Z</time>
      </trkpt>
      <trkpt lat="43.15043" lon="3.07674">
        <ele>140.952</ele>
        <time>2021-09-25T09:37:56Z</time>
      </trkpt>
      <trkpt lat="43.15041" lon="3.07673">
        <ele>140.729</ele>
        <time>2021-09-25T09:37:58Z</time>
      </trkpt>
      <trkpt lat="43.15039" lon="3.07672">
        <ele>140.677</ele>
        <time>2021-09-25T09:38:00Z</time>
      </trkpt>
      <trkpt lat="43.15037" lon="3.0767">
        <ele>140.321</ele>
        <time>2021-09-25T09:38:02Z</time>
      </trkpt>
      <trkpt lat="43.15035" lon="3.07669">
        <ele>140.526</ele>
        <time>2021-09-25T09:38:04Z</time>
      </trkpt>
      <trkpt lat="43.15034" lon="3.07668">
        <ele>140.521</ele>
        <time>2021-09-25T09:38:06Z</time>
      </trkpt>
      <trkpt lat="43.15034" lon="3.0767">
        <ele>140.423</ele>
        <time>2021-09-25T09:38:08Z</time>
      </trkpt>
      <trkpt lat="43.15034" lon="3.0767">
        <ele>140.462</ele>
        <time>2021-09-25T09:38:10Z</time>
      </trkpt>
      <trkpt lat="43.15034" lon="3.0767">
        <ele>140.469</ele>
        <time>2021-09-25T09:38:12Z</time>
      </trkpt>
      <trkpt lat="43.15034" lon="3.0767">
        <ele>140.467</ele>
        <time>2021-09-25T09:38:14Z</time>
      </trkpt>
      <trkpt lat="43.15033" lon="3.07668">
        <ele>140.555</ele>
        <time>2021-09-25T09:38:16Z</time>
      </trkpt>
      <trkpt lat="43.15032" lon="3.07667">
        <ele>140.72</ele>
        <time>2021-09-25T09:38:18Z</time>
      </trkpt>
      <trkpt lat="43.15033" lon="3.07667">
        <ele>140.99</ele>
        <time>2021-09-25T09:38:20Z</time>
      </trkpt>
      <trkpt lat="43.15032" lon="3.07667">
        <ele>141.125</ele>
        <time>2021-09-25T09:38:22Z</time>
      </trkpt>
      <trkpt lat="43.15032" lon="3.07666">
        <ele>140.801</ele>
        <time>2021-09-25T09:38:24Z</time>
      </trkpt>
      <trkpt lat="43.15033" lon="3.07666">
        <ele>140.581</ele>
        <time>2021-09-25T09:38:26Z</time>
      </trkpt>
      <trkpt lat="43.15035" lon="3.07668">
        <ele>141.239</ele>
        <time>2021-09-25T09:38:28Z</time>
      </trkpt>
      <trkpt lat="43.15036" lon="3.07669">
        <ele>141.535</ele>
        <time>2021-09-25T09:38:30Z</time>
      </trkpt>
      <trkpt lat="43.15037" lon="3.07671">
        <ele>141.226</ele>
        <time>2021-09-25T09:38:32Z</time>
      </trkpt>
      <trkpt lat="43.15038" lon="3.07672">
        <ele>141.05</ele>
        <time>2021-09-25T09:38:34Z</time>
      </trkpt>
      <trkpt lat="43.1504" lon="3.07674">
        <ele>141.129</ele>
        <time>2021-09-25T09:38:36Z</time>
      </trkpt>
      <trkpt lat="43.15043" lon="3.07674">
        <ele>140.998</ele>
        <time>2021-09-25T09:38:38Z</time>
      </trkpt>
      <trkpt lat="43.15044" lon="3.07676">
        <ele>140.951</ele>
        <time>2021-09-25T09:38:40Z</time>
      </trkpt>
      <trkpt lat="43.15046" lon="3.07677">
        <ele>141.642</ele>
        <time>2021-09-25T09:38:42Z</time>
      </trkpt>
      <trkpt lat="43.15049" lon="3.07678">
        <ele>141.337</ele>
        <time>2021-09-25T09:38:44Z</time>
      </trkpt>
      <trkpt lat="43.15051" lon="3.07679">
        <ele>141.465</ele>
        <time>2021-09-25T09:38:46Z</time>
      </trkpt>
      <trkpt lat="43.15054" lon="3.07679">
        <ele>141.271</ele>
        <time>2021-09-25T09:38:48Z</time>
      </trkpt>
      <trkpt lat="43.15056" lon="3.07679">
        <ele>141.5</ele>
        <time>2021-09-25T09:38:50Z</time>
      </trkpt>
      <trkpt lat="43.15059" lon="3.07678">
        <ele>141.398</ele>
        <time>2021-09-25T09:38:52Z</time>
      </trkpt>
      <trkpt lat="43.15062" lon="3.07678">
        <ele>141.188</ele>
        <time>2021-09-25T09:38:54Z</time>
      </trkpt>
      <trkpt lat="43.15064" lon="3.07679">
        <ele>141.081</ele>
        <time>2021-09-25T09:38:56Z</time>
      </trkpt>
      <trkpt lat="43.15065" lon="3.07679">
        <ele>141.32</ele>
        <time>2021-09-25T09:38:58Z</time>
      </trkpt>
      <trkpt lat="43.15068" lon="3.0768">
        <ele>141.873</ele>
        <time>2021-09-25T09:39:00Z</time>
      </trkpt>
      <trkpt lat="43.15071" lon="3.07681">
        <ele>141.948</ele>
        <time>2021-09-25T09:39:02Z</time>
      </trkpt>
      <trkpt lat="43.15073" lon="3.07682">
        <ele>142.189</ele>
        <time>2021-09-25T09:39:04Z</time>
      </trkpt>
      <trkpt lat="43.15075" lon="3.07683">
        <ele>142.312</ele>
        <time>2021-09-25T09:39:06Z</time>
      </trkpt>
      <trkpt lat="43.15077" lon="3.07684">
        <ele>142.54</ele>
        <time>2021-09-25T09:39:08Z</time>
      </trkpt>
      <trkpt lat="43.15079" lon="3.07685">
        <ele>142.684</ele>
        <time>2021-09-25T09:39:10Z</time>
      </trkpt>
      <trkpt lat="43.15081" lon="3.07686">
        <ele>142.567</ele>
        <time>2021-09-25T09:39:12Z</time>
      </trkpt>
      <trkpt lat="43.15084" lon="3.07688">
        <ele>142.992</ele>
        <time>2021-09-25T09:39:14Z</time>
      </trkpt>
      <trkpt lat="43.15086" lon="3.07689">
        <ele>142.472</ele>
        <time>2021-09-25T09:39:16Z</time>
      </trkpt>
      <trkpt lat="43.15088" lon="3.0769">
        <ele>142.021</ele>
        <time>2021-09-25T09:39:18Z</time>
      </trkpt>
      <trkpt lat="43.15091" lon="3.07691">
        <ele>141.761</ele>
        <time>2021-09-25T09:39:20Z</time>
      </trkpt>
      <trkpt lat="43.15093" lon="3.07691">
        <ele>141.567</ele>
        <time>2021-09-25T09:39:22Z</time>
      </trkpt>
      <trkpt lat="43.15094" lon="3.07692">
        <ele>141.552</ele>
        <time>2021-09-25T09:39:24Z</time>
      </trkpt>
      <trkpt lat="43.15096" lon="3.07692">
        <ele>141.072</ele>
        <time>2021-09-25T09:39:26Z</time>
      </trkpt>
      <trkpt lat="43.15099" lon="3.07693">
        <ele>141.473</ele>
        <time>2021-09-25T09:39:28Z</time>
      </trkpt>
      <trkpt lat="43.15101" lon="3.07694">
        <ele>142.284</ele>
        <time>2021-09-25T09:39:30Z</time>
      </trkpt>
      <trkpt lat="43.15103" lon="3.07694">
        <ele>141.93</ele>
        <time>2021-09-25T09:39:32Z</time>
      </trkpt>
      <trkpt lat="43.15106" lon="3.07695">
        <ele>143.207</ele>
        <time>2021-09-25T09:39:34Z</time>
      </trkpt>
      <trkpt lat="43.15108" lon="3.07696">
        <ele>143.354</ele>
        <time>2021-09-25T09:39:36Z</time>
      </trkpt>
      <trkpt lat="43.15111" lon="3.07697">
        <ele>143.093</ele>
        <time>2021-09-25T09:39:39Z</time>
      </trkpt>
      <trkpt lat="43.15114" lon="3.07697">
        <ele>142.789</ele>
        <time>2021-09-25T09:39:41Z</time>
      </trkpt>
      <trkpt lat="43.15116" lon="3.07698">
        <ele>142.664</ele>
        <time>2021-09-25T09:39:43Z</time>
      </trkpt>
      <trkpt lat="43.15118" lon="3.07699">
        <ele>142.639</ele>
        <time>2021-09-25T09:39:45Z</time>
      </trkpt>
      <trkpt lat="43.15119" lon="3.07699">
        <ele>142.945</ele>
        <time>2021-09-25T09:39:47Z</time>
      </trkpt>
      <trkpt lat="43.15122" lon="3.077">
        <ele>142.437</ele>
        <time>2021-09-25T09:39:49Z</time>
      </trkpt>
      <trkpt lat="43.15124" lon="3.07701">
        <ele>141.989</ele>
        <time>2021-09-25T09:39:51Z</time>
      </trkpt>
      <trkpt lat="43.15126" lon="3.07702">
        <ele>142.349</ele>
        <time>2021-09-25T09:39:53Z</time>
      </trkpt>
      <trkpt lat="43.15128" lon="3.07703">
        <ele>142.257</ele>
        <time>2021-09-25T09:39:55Z</time>
      </trkpt>
      <trkpt lat="43.1513" lon="3.07704">
        <ele>142.065</ele>
        <time>2021-09-25T09:39:57Z</time>
      </trkpt>
      <trkpt lat="43.15133" lon="3.07705">
        <ele>141.816</ele>
        <time>2021-09-25T09:39:59Z</time>
      </trkpt>
      <trkpt lat="43.15135" lon="3.07705">
        <ele>141.824</ele>
        <time>2021-09-25T09:40:01Z</time>
      </trkpt>
      <trkpt lat="43.15137" lon="3.07707">
        <ele>142.528</ele>
        <time>2021-09-25T09:40:03Z</time>
      </trkpt>
      <trkpt lat="43.1514" lon="3.07708">
        <ele>142.452</ele>
        <time>2021-09-25T09:40:05Z</time>
      </trkpt>
      <trkpt lat="43.15142" lon="3.07709">
        <ele>142.161</ele>
        <time>2021-09-25T09:40:07Z</time>
      </trkpt>
      <trkpt lat="43.15144" lon="3.0771">
        <ele>142.178</ele>
        <time>2021-09-25T09:40:09Z</time>
      </trkpt>
      <trkpt lat="43.15147" lon="3.07711">
        <ele>142.75</ele>
        <time>2021-09-25T09:40:11Z</time>
      </trkpt>
      <trkpt lat="43.15149" lon="3.07712">
        <ele>142.795</ele>
        <time>2021-09-25T09:40:13Z</time>
      </trkpt>
      <trkpt lat="43.15151" lon="3.07713">
        <ele>142.761</ele>
        <time>2021-09-25T09:40:15Z</time>
      </trkpt>
      <trkpt lat="43.15153" lon="3.07714">
        <ele>142.5</ele>
        <time>2021-09-25T09:40:17Z</time>
      </trkpt>
      <trkpt lat="43.15155" lon="3.07715">
        <ele>142.32</ele>
        <time>2021-09-25T09:40:19Z</time>
      </trkpt>
      <trkpt lat="43.15157" lon="3.07716">
        <ele>142.314</ele>
        <time>2021-09-25T09:40:21Z</time>
      </trkpt>
      <trkpt lat="43.1516" lon="3.07716">
        <ele>142.014</ele>
        <time>2021-09-25T09:40:23Z</time>
      </trkpt>
      <trkpt lat="43.15162" lon="3.07717">
        <ele>142.182</ele>
        <time>2021-09-25T09:40:25Z</time>
      </trkpt>
      <trkpt lat="43.15164" lon="3.07718">
        <ele>142.232</ele>
        <time>2021-09-25T09:40:27Z</time>
      </trkpt>
      <trkpt lat="43.15166" lon="3.07719">
        <ele>142.403</ele>
        <time>2021-09-25T09:40:29Z</time>
      </trkpt>
      <trkpt lat="43.15168" lon="3.0772">
        <ele>142.74</ele>
        <time>2021-09-25T09:40:31Z</time>
      </trkpt>
      <trkpt lat="43.15171" lon="3.07721">
        <ele>143.326</ele>
        <time>2021-09-25T09:40:33Z</time>
      </trkpt>
      <trkpt lat="43.15173" lon="3.07722">
        <ele>144.056</ele>
        <time>2021-09-25T09:40:35Z</time>
      </trkpt>
      <trkpt lat="43.15175" lon="3.07723">
        <ele>143.365</ele>
        <time>2021-09-25T09:40:37Z</time>
      </trkpt>
      <trkpt lat="43.15177" lon="3.07723">
        <ele>143.009</ele>
        <time>2021-09-25T09:40:39Z</time>
      </trkpt>
      <trkpt lat="43.15179" lon="3.07724">
        <ele>144.015</ele>
        <time>2021-09-25T09:40:41Z</time>
      </trkpt>
      <trkpt lat="43.15181" lon="3.07725">
        <ele>144.105</ele>
        <time>2021-09-25T09:40:43Z</time>
      </trkpt>
      <trkpt lat="43.15183" lon="3.07726">
        <ele>144.189</ele>
        <time>2021-09-25T09:40:45Z</time>
      </trkpt>
      <trkpt lat="43.15185" lon="3.07727">
        <ele>144.157</ele>
        <time>2021-09-25T09:40:47Z</time>
      </trkpt>
      <trkpt lat="43.15188" lon="3.07728">
        <ele>144.253</ele>
        <time>2021-09-25T09:40:49Z</time>
      </trkpt>
      <trkpt lat="43.1519" lon="3.0773">
        <ele>144.5</ele>
        <time>2021-09-25T09:40:51Z</time>
      </trkpt>
      <trkpt lat="43.15192" lon="3.07731">
        <ele>144.464</ele>
        <time>2021-09-25T09:40:53Z</time>
      </trkpt>
      <trkpt lat="43.15195" lon="3.07733">
        <ele>144.788</ele>
        <time>2021-09-25T09:40:55Z</time>
      </trkpt>
      <trkpt lat="43.15197" lon="3.07734">
        <ele>144.979</ele>
        <time>2021-09-25T09:40:57Z</time>
      </trkpt>
      <trkpt lat="43.152" lon="3.07736">
        <ele>144.49</ele>
        <time>2021-09-25T09:40:59Z</time>
      </trkpt>
      <trkpt lat="43.15202" lon="3.07737">
        <ele>144.149</ele>
        <time>2021-09-25T09:41:01Z</time>
      </trkpt>
      <trkpt lat="43.15204" lon="3.07738">
        <ele>144.27</ele>
        <time>2021-09-25T09:41:03Z</time>
      </trkpt>
      <trkpt lat="43.15206" lon="3.0774">
        <ele>144.199</ele>
        <time>2021-09-25T09:41:05Z</time>
      </trkpt>
      <trkpt lat="43.15209" lon="3.07742">
        <ele>144.797</ele>
        <time>2021-09-25T09:41:07Z</time>
      </trkpt>
      <trkpt lat="43.15212" lon="3.07743">
        <ele>144.579</ele>
        <time>2021-09-25T09:41:09Z</time>
      </trkpt>
      <trkpt lat="43.15215" lon="3.07743">
        <ele>144.964</ele>
        <time>2021-09-25T09:41:11Z</time>
      </trkpt>
      <trkpt lat="43.15217" lon="3.07744">
        <ele>144.674</ele>
        <time>2021-09-25T09:41:13Z</time>
      </trkpt>
      <trkpt lat="43.1522" lon="3.07746">
        <ele>144.228</ele>
        <time>2021-09-25T09:41:15Z</time>
      </trkpt>
      <trkpt lat="43.15222" lon="3.07748">
        <ele>144.615</ele>
        <time>2021-09-25T09:41:17Z</time>
      </trkpt>
      <trkpt lat="43.15225" lon="3.0775">
        <ele>144.781</ele>
        <time>2021-09-25T09:41:19Z</time>
      </trkpt>
      <trkpt lat="43.15227" lon="3.07752">
        <ele>144.407</ele>
        <time>2021-09-25T09:41:21Z</time>
      </trkpt>
      <trkpt lat="43.1523" lon="3.07755">
        <ele>144.317</ele>
        <time>2021-09-25T09:41:23Z</time>
      </trkpt>
      <trkpt lat="43.15232" lon="3.07757">
        <ele>143.999</ele>
        <time>2021-09-25T09:41:25Z</time>
      </trkpt>
      <trkpt lat="43.15234" lon="3.07759">
        <ele>144.137</ele>
        <time>2021-09-25T09:41:27Z</time>
      </trkpt>
      <trkpt lat="43.15235" lon="3.07762">
        <ele>143.531</ele>
        <time>2021-09-25T09:41:29Z</time>
      </trkpt>
      <trkpt lat="43.15237" lon="3.07764">
        <ele>143.141</ele>
        <time>2021-09-25T09:41:31Z</time>
      </trkpt>
      <trkpt lat="43.1524" lon="3.07766">
        <ele>143.017</ele>
        <time>2021-09-25T09:41:33Z</time>
      </trkpt>
      <trkpt lat="43.15242" lon="3.07768">
        <ele>142.919</ele>
        <time>2021-09-25T09:41:35Z</time>
      </trkpt>
      <trkpt lat="43.15244" lon="3.07771">
        <ele>142.962</ele>
        <time>2021-09-25T09:41:37Z</time>
      </trkpt>
      <trkpt lat="43.15247" lon="3.07773">
        <ele>142.73</ele>
        <time>2021-09-25T09:41:39Z</time>
      </trkpt>
      <trkpt lat="43.15249" lon="3.07776">
        <ele>142.942</ele>
        <time>2021-09-25T09:41:41Z</time>
      </trkpt>
      <trkpt lat="43.15251" lon="3.07778">
        <ele>142.265</ele>
        <time>2021-09-25T09:41:43Z</time>
      </trkpt>
      <trkpt lat="43.15253" lon="3.0778">
        <ele>142.117</ele>
        <time>2021-09-25T09:41:45Z</time>
      </trkpt>
      <trkpt lat="43.15255" lon="3.07783">
        <ele>142.468</ele>
        <time>2021-09-25T09:41:47Z</time>
      </trkpt>
      <trkpt lat="43.15258" lon="3.07785">
        <ele>142.546</ele>
        <time>2021-09-25T09:41:49Z</time>
      </trkpt>
      <trkpt lat="43.1526" lon="3.07787">
        <ele>142.166</ele>
        <time>2021-09-25T09:41:51Z</time>
      </trkpt>
      <trkpt lat="43.15262" lon="3.0779">
        <ele>141.901</ele>
        <time>2021-09-25T09:41:53Z</time>
      </trkpt>
      <trkpt lat="43.15264" lon="3.07792">
        <ele>141.821</ele>
        <time>2021-09-25T09:41:55Z</time>
      </trkpt>
      <trkpt lat="43.15266" lon="3.07794">
        <ele>141.639</ele>
        <time>2021-09-25T09:41:57Z</time>
      </trkpt>
      <trkpt lat="43.15268" lon="3.07796">
        <ele>141.671</ele>
        <time>2021-09-25T09:41:59Z</time>
      </trkpt>
      <trkpt lat="43.1527" lon="3.07799">
        <ele>141.179</ele>
        <time>2021-09-25T09:42:01Z</time>
      </trkpt>
      <trkpt lat="43.15273" lon="3.07802">
        <ele>140.833</ele>
        <time>2021-09-25T09:42:03Z</time>
      </trkpt>
      <trkpt lat="43.15275" lon="3.07804">
        <ele>140.201</ele>
        <time>2021-09-25T09:42:05Z</time>
      </trkpt>
      <trkpt lat="43.15277" lon="3.07807">
        <ele>140.168</ele>
        <time>2021-09-25T09:42:07Z</time>
      </trkpt>
      <trkpt lat="43.15279" lon="3.0781">
        <ele>140.453</ele>
        <time>2021-09-25T09:42:09Z</time>
      </trkpt>
      <trkpt lat="43.15281" lon="3.07812">
        <ele>140.151</ele>
        <time>2021-09-25T09:42:11Z</time>
      </trkpt>
      <trkpt lat="43.15283" lon="3.07813">
        <ele>140.253</ele>
        <time>2021-09-25T09:42:13Z</time>
      </trkpt>
      <trkpt lat="43.15286" lon="3.07815">
        <ele>140.448</ele>
        <time>2021-09-25T09:42:15Z</time>
      </trkpt>
      <trkpt lat="43.15288" lon="3.07817">
        <ele>141.169</ele>
        <time>2021-09-25T09:42:17Z</time>
      </trkpt>
      <trkpt lat="43.15291" lon="3.0782">
        <ele>140.898</ele>
        <time>2021-09-25T09:42:19Z</time>
      </trkpt>
      <trkpt lat="43.15293" lon="3.07822">
        <ele>140.735</ele>
        <time>2021-09-25T09:42:21Z</time>
      </trkpt>
      <trkpt lat="43.15295" lon="3.07824">
        <ele>140.396</ele>
        <time>2021-09-25T09:42:23Z</time>
      </trkpt>
      <trkpt lat="43.15297" lon="3.07826">
        <ele>140.527</ele>
        <time>2021-09-25T09:42:25Z</time>
      </trkpt>
      <trkpt lat="43.15299" lon="3.07828">
        <ele>140.693</ele>
        <time>2021-09-25T09:42:27Z</time>
      </trkpt>
      <trkpt lat="43.15301" lon="3.0783">
        <ele>140.596</ele>
        <time>2021-09-25T09:42:29Z</time>
      </trkpt>
      <trkpt lat="43.15303" lon="3.07832">
        <ele>140.976</ele>
        <time>2021-09-25T09:42:31Z</time>
      </trkpt>
      <trkpt lat="43.15304" lon="3.07832">
        <ele>140.798</ele>
        <time>2021-09-25T09:42:33Z</time>
      </trkpt>
      <trkpt lat="43.15304" lon="3.07832">
        <ele>140.785</ele>
        <time>2021-09-25T09:42:35Z</time>
      </trkpt>
      <trkpt lat="43.15304" lon="3.07832">
        <ele>140.785</ele>
        <time>2021-09-25T09:42:37Z</time>
      </trkpt>
      <trkpt lat="43.15304" lon="3.07832">
        <ele>140.782</ele>
        <time>2021-09-25T09:42:39Z</time>
      </trkpt>
      <trkpt lat="43.15304" lon="3.07832">
        <ele>140.78</ele>
        <time>2021-09-25T09:42:41Z</time>
      </trkpt>
      <trkpt lat="43.15304" lon="3.07832">
        <ele>140.73</ele>
        <time>2021-09-25T09:42:43Z</time>
      </trkpt>
      <trkpt lat="43.15304" lon="3.07832">
        <ele>140.721</ele>
        <time>2021-09-25T09:42:45Z</time>
      </trkpt>
      <trkpt lat="43.15304" lon="3.07832">
        <ele>140.693</ele>
        <time>2021-09-25T09:42:47Z</time>
      </trkpt>
      <trkpt lat="43.15306" lon="3.07834">
        <ele>140.724</ele>
        <time>2021-09-25T09:42:49Z</time>
      </trkpt>
      <trkpt lat="43.15308" lon="3.07836">
        <ele>140.808</ele>
        <time>2021-09-25T09:42:51Z</time>
      </trkpt>
      <trkpt lat="43.1531" lon="3.07837">
        <ele>140.166</ele>
        <time>2021-09-25T09:42:53Z</time>
      </trkpt>
      <trkpt lat="43.15312" lon="3.07839">
        <ele>140.301</ele>
        <time>2021-09-25T09:42:55Z</time>
      </trkpt>
      <trkpt lat="43.15315" lon="3.07841">
        <ele>140.246</ele>
        <time>2021-09-25T09:42:57Z</time>
      </trkpt>
      <trkpt lat="43.15318" lon="3.07844">
        <ele>140.776</ele>
        <time>2021-09-25T09:42:59Z</time>
      </trkpt>
      <trkpt lat="43.15321" lon="3.07846">
        <ele>141.071</ele>
        <time>2021-09-25T09:43:01Z</time>
      </trkpt>
      <trkpt lat="43.15323" lon="3.07848">
        <ele>140.793</ele>
        <time>2021-09-25T09:43:03Z</time>
      </trkpt>
      <trkpt lat="43.15325" lon="3.0785">
        <ele>140.403</ele>
        <time>2021-09-25T09:43:05Z</time>
      </trkpt>
      <trkpt lat="43.15327" lon="3.07852">
        <ele>140.714</ele>
        <time>2021-09-25T09:43:07Z</time>
      </trkpt>
      <trkpt lat="43.15329" lon="3.07854">
        <ele>140.01</ele>
        <time>2021-09-25T09:43:09Z</time>
      </trkpt>
      <trkpt lat="43.15332" lon="3.07856">
        <ele>140.057</ele>
        <time>2021-09-25T09:43:11Z</time>
      </trkpt>
      <trkpt lat="43.15334" lon="3.07859">
        <ele>140.065</ele>
        <time>2021-09-25T09:43:13Z</time>
      </trkpt>
      <trkpt lat="43.15336" lon="3.07861">
        <ele>139.79</ele>
        <time>2021-09-25T09:43:15Z</time>
      </trkpt>
      <trkpt lat="43.15338" lon="3.07864">
        <ele>139.858</ele>
        <time>2021-09-25T09:43:17Z</time>
      </trkpt>
      <trkpt lat="43.1534" lon="3.07866">
        <ele>139.804</ele>
        <time>2021-09-25T09:43:19Z</time>
      </trkpt>
      <trkpt lat="43.15341" lon="3.07868">
        <ele>139.128</ele>
        <time>2021-09-25T09:43:21Z</time>
      </trkpt>
      <trkpt lat="43.15344" lon="3.0787">
        <ele>138.725</ele>
        <time>2021-09-25T09:43:23Z</time>
      </trkpt>
      <trkpt lat="43.15346" lon="3.07873">
        <ele>138.812</ele>
        <time>2021-09-25T09:43:25Z</time>
      </trkpt>
      <trkpt lat="43.15348" lon="3.07875">
        <ele>138.517</ele>
        <time>2021-09-25T09:43:27Z</time>
      </trkpt>
      <trkpt lat="43.1535" lon="3.07877">
        <ele>138.423</ele>
        <time>2021-09-25T09:43:29Z</time>
      </trkpt>
      <trkpt lat="43.15352" lon="3.07879">
        <ele>138.492</ele>
        <time>2021-09-25T09:43:31Z</time>
      </trkpt>
      <trkpt lat="43.15354" lon="3.07881">
        <ele>138.095</ele>
        <time>2021-09-25T09:43:33Z</time>
      </trkpt>
      <trkpt lat="43.15356" lon="3.07883">
        <ele>137.722</ele>
        <time>2021-09-25T09:43:35Z</time>
      </trkpt>
      <trkpt lat="43.15358" lon="3.07886">
        <ele>137.885</ele>
        <time>2021-09-25T09:43:37Z</time>
      </trkpt>
      <trkpt lat="43.15361" lon="3.07888">
        <ele>137.999</ele>
        <time>2021-09-25T09:43:39Z</time>
      </trkpt>
      <trkpt lat="43.15363" lon="3.0789">
        <ele>137.616</ele>
        <time>2021-09-25T09:43:41Z</time>
      </trkpt>
      <trkpt lat="43.15365" lon="3.07892">
        <ele>138.019</ele>
        <time>2021-09-25T09:43:43Z</time>
      </trkpt>
      <trkpt lat="43.15367" lon="3.07894">
        <ele>137.996</ele>
        <time>2021-09-25T09:43:45Z</time>
      </trkpt>
      <trkpt lat="43.15369" lon="3.07897">
        <ele>138.279</ele>
        <time>2021-09-25T09:43:47Z</time>
      </trkpt>
      <trkpt lat="43.15371" lon="3.07899">
        <ele>138.354</ele>
        <time>2021-09-25T09:43:49Z</time>
      </trkpt>
      <trkpt lat="43.15374" lon="3.07901">
        <ele>138.375</ele>
        <time>2021-09-25T09:43:51Z</time>
      </trkpt>
      <trkpt lat="43.15375" lon="3.07902">
        <ele>138.249</ele>
        <time>2021-09-25T09:43:53Z</time>
      </trkpt>
      <trkpt lat="43.15378" lon="3.07904">
        <ele>138.214</ele>
        <time>2021-09-25T09:43:55Z</time>
      </trkpt>
      <trkpt lat="43.1538" lon="3.07906">
        <ele>138.131</ele>
        <time>2021-09-25T09:43:57Z</time>
      </trkpt>
      <trkpt lat="43.15382" lon="3.07908">
        <ele>137.175</ele>
        <time>2021-09-25T09:43:59Z</time>
      </trkpt>
      <trkpt lat="43.15384" lon="3.0791">
        <ele>137.32</ele>
        <time>2021-09-25T09:44:01Z</time>
      </trkpt>
      <trkpt lat="43.15386" lon="3.07912">
        <ele>137.458</ele>
        <time>2021-09-25T09:44:03Z</time>
      </trkpt>
      <trkpt lat="43.15389" lon="3.07914">
        <ele>138.886</ele>
        <time>2021-09-25T09:44:05Z</time>
      </trkpt>
      <trkpt lat="43.15392" lon="3.07916">
        <ele>139.187</ele>
        <time>2021-09-25T09:44:07Z</time>
      </trkpt>
      <trkpt lat="43.15394" lon="3.07918">
        <ele>138.559</ele>
        <time>2021-09-25T09:44:09Z</time>
      </trkpt>
      <trkpt lat="43.15396" lon="3.0792">
        <ele>138.525</ele>
        <time>2021-09-25T09:44:11Z</time>
      </trkpt>
      <trkpt lat="43.15398" lon="3.07922">
        <ele>138.76</ele>
        <time>2021-09-25T09:44:13Z</time>
      </trkpt>
      <trkpt lat="43.154" lon="3.07923">
        <ele>138.594</ele>
        <time>2021-09-25T09:44:15Z</time>
      </trkpt>
      <trkpt lat="43.15403" lon="3.07924">
        <ele>138.425</ele>
        <time>2021-09-25T09:44:17Z</time>
      </trkpt>
      <trkpt lat="43.15406" lon="3.07925">
        <ele>137.987</ele>
        <time>2021-09-25T09:44:19Z</time>
      </trkpt>
      <trkpt lat="43.15408" lon="3.07925">
        <ele>137.858</ele>
        <time>2021-09-25T09:44:21Z</time>
      </trkpt>
      <trkpt lat="43.1541" lon="3.07926">
        <ele>136.853</ele>
        <time>2021-09-25T09:44:23Z</time>
      </trkpt>
      <trkpt lat="43.15412" lon="3.07926">
        <ele>136.712</ele>
        <time>2021-09-25T09:44:25Z</time>
      </trkpt>
      <trkpt lat="43.15413" lon="3.07928">
        <ele>136.693</ele>
        <time>2021-09-25T09:44:27Z</time>
      </trkpt>
      <trkpt lat="43.15415" lon="3.07931">
        <ele>136.469</ele>
        <time>2021-09-25T09:44:29Z</time>
      </trkpt>
      <trkpt lat="43.15417" lon="3.07933">
        <ele>136.722</ele>
        <time>2021-09-25T09:44:31Z</time>
      </trkpt>
      <trkpt lat="43.15418" lon="3.07936">
        <ele>136.447</ele>
        <time>2021-09-25T09:44:33Z</time>
      </trkpt>
      <trkpt lat="43.1542" lon="3.07938">
        <ele>137.093</ele>
        <time>2021-09-25T09:44:35Z</time>
      </trkpt>
      <trkpt lat="43.15421" lon="3.07941">
        <ele>137.305</ele>
        <time>2021-09-25T09:44:37Z</time>
      </trkpt>
      <trkpt lat="43.15423" lon="3.07944">
        <ele>137.679</ele>
        <time>2021-09-25T09:44:39Z</time>
      </trkpt>
      <trkpt lat="43.15423" lon="3.07949">
        <ele>137.512</ele>
        <time>2021-09-25T09:44:41Z</time>
      </trkpt>
      <trkpt lat="43.15423" lon="3.07953">
        <ele>137.861</ele>
        <time>2021-09-25T09:44:43Z</time>
      </trkpt>
      <trkpt lat="43.15423" lon="3.07957">
        <ele>137.858</ele>
        <time>2021-09-25T09:44:45Z</time>
      </trkpt>
      <trkpt lat="43.15423" lon="3.07961">
        <ele>137.931</ele>
        <time>2021-09-25T09:44:47Z</time>
      </trkpt>
      <trkpt lat="43.15423" lon="3.07965">
        <ele>137.988</ele>
        <time>2021-09-25T09:44:49Z</time>
      </trkpt>
      <trkpt lat="43.15423" lon="3.07969">
        <ele>137.727</ele>
        <time>2021-09-25T09:44:51Z</time>
      </trkpt>
      <trkpt lat="43.15423" lon="3.07973">
        <ele>138.41</ele>
        <time>2021-09-25T09:44:53Z</time>
      </trkpt>
      <trkpt lat="43.15423" lon="3.07977">
        <ele>138.65</ele>
        <time>2021-09-25T09:44:55Z</time>
      </trkpt>
      <trkpt lat="43.15423" lon="3.07981">
        <ele>138.742</ele>
        <time>2021-09-25T09:44:57Z</time>
      </trkpt>
      <trkpt lat="43.15423" lon="3.07985">
        <ele>138.491</ele>
        <time>2021-09-25T09:44:59Z</time>
      </trkpt>
      <trkpt lat="43.15423" lon="3.07989">
        <ele>138.763</ele>
        <time>2021-09-25T09:45:01Z</time>
      </trkpt>
      <trkpt lat="43.15423" lon="3.07993">
        <ele>138.647</ele>
        <time>2021-09-25T09:45:03Z</time>
      </trkpt>
      <trkpt lat="43.15423" lon="3.07997">
        <ele>138.662</ele>
        <time>2021-09-25T09:45:05Z</time>
      </trkpt>
      <trkpt lat="43.15423" lon="3.08001">
        <ele>138.84</ele>
        <time>2021-09-25T09:45:07Z</time>
      </trkpt>
      <trkpt lat="43.15423" lon="3.08004">
        <ele>138.566</ele>
        <time>2021-09-25T09:45:09Z</time>
      </trkpt>
      <trkpt lat="43.15422" lon="3.08008">
        <ele>138.514</ele>
        <time>2021-09-25T09:45:11Z</time>
      </trkpt>
      <trkpt lat="43.15422" lon="3.08011">
        <ele>138.362</ele>
        <time>2021-09-25T09:45:13Z</time>
      </trkpt>
      <trkpt lat="43.15421" lon="3.08015">
        <ele>138.515</ele>
        <time>2021-09-25T09:45:15Z</time>
      </trkpt>
      <trkpt lat="43.15421" lon="3.08019">
        <ele>138.609</ele>
        <time>2021-09-25T09:45:17Z</time>
      </trkpt>
      <trkpt lat="43.1542" lon="3.08022">
        <ele>138.268</ele>
        <time>2021-09-25T09:45:19Z</time>
      </trkpt>
      <trkpt lat="43.1542" lon="3.08025">
        <ele>137.097</ele>
        <time>2021-09-25T09:45:21Z</time>
      </trkpt>
      <trkpt lat="43.15419" lon="3.08029">
        <ele>137.521</ele>
        <time>2021-09-25T09:45:23Z</time>
      </trkpt>
      <trkpt lat="43.15418" lon="3.08031">
        <ele>137.66</ele>
        <time>2021-09-25T09:45:25Z</time>
      </trkpt>
      <trkpt lat="43.15417" lon="3.08035">
        <ele>137.534</ele>
        <time>2021-09-25T09:45:27Z</time>
      </trkpt>
      <trkpt lat="43.15416" lon="3.08037">
        <ele>136.952</ele>
        <time>2021-09-25T09:45:29Z</time>
      </trkpt>
      <trkpt lat="43.15416" lon="3.0804">
        <ele>136.732</ele>
        <time>2021-09-25T09:45:31Z</time>
      </trkpt>
      <trkpt lat="43.15414" lon="3.08044">
        <ele>136.995</ele>
        <time>2021-09-25T09:45:33Z</time>
      </trkpt>
      <trkpt lat="43.15414" lon="3.08047">
        <ele>136.375</ele>
        <time>2021-09-25T09:45:35Z</time>
      </trkpt>
      <trkpt lat="43.15413" lon="3.08049">
        <ele>136.424</ele>
        <time>2021-09-25T09:45:37Z</time>
      </trkpt>
      <trkpt lat="43.15413" lon="3.08052">
        <ele>136.47</ele>
        <time>2021-09-25T09:45:39Z</time>
      </trkpt>
      <trkpt lat="43.15411" lon="3.08056">
        <ele>136.559</ele>
        <time>2021-09-25T09:45:41Z</time>
      </trkpt>
      <trkpt lat="43.1541" lon="3.08059">
        <ele>136.526</ele>
        <time>2021-09-25T09:45:43Z</time>
      </trkpt>
      <trkpt lat="43.15409" lon="3.08061">
        <ele>136.297</ele>
        <time>2021-09-25T09:45:45Z</time>
      </trkpt>
      <trkpt lat="43.15409" lon="3.08064">
        <ele>136.353</ele>
        <time>2021-09-25T09:45:47Z</time>
      </trkpt>
      <trkpt lat="43.15408" lon="3.08066">
        <ele>136.268</ele>
        <time>2021-09-25T09:45:49Z</time>
      </trkpt>
      <trkpt lat="43.15408" lon="3.08069">
        <ele>135.878</ele>
        <time>2021-09-25T09:45:51Z</time>
      </trkpt>
      <trkpt lat="43.15407" lon="3.08071">
        <ele>135.728</ele>
        <time>2021-09-25T09:45:53Z</time>
      </trkpt>
      <trkpt lat="43.15407" lon="3.08073">
        <ele>135.562</ele>
        <time>2021-09-25T09:45:55Z</time>
      </trkpt>
      <trkpt lat="43.15407" lon="3.08073">
        <ele>135.545</ele>
        <time>2021-09-25T09:45:57Z</time>
      </trkpt>
      <trkpt lat="43.15407" lon="3.08075">
        <ele>136.043</ele>
        <time>2021-09-25T09:45:59Z</time>
      </trkpt>
      <trkpt lat="43.15406" lon="3.08077">
        <ele>136.465</ele>
        <time>2021-09-25T09:46:01Z</time>
      </trkpt>
      <trkpt lat="43.15406" lon="3.08079">
        <ele>136.712</ele>
        <time>2021-09-25T09:46:03Z</time>
      </trkpt>
      <trkpt lat="43.15405" lon="3.08082">
        <ele>136.649</ele>
        <time>2021-09-25T09:46:05Z</time>
      </trkpt>
      <trkpt lat="43.15405" lon="3.08085">
        <ele>137.113</ele>
        <time>2021-09-25T09:46:07Z</time>
      </trkpt>
      <trkpt lat="43.15405" lon="3.08088">
        <ele>137.517</ele>
        <time>2021-09-25T09:46:09Z</time>
      </trkpt>
      <trkpt lat="43.15405" lon="3.08091">
        <ele>137.469</ele>
        <time>2021-09-25T09:46:11Z</time>
      </trkpt>
      <trkpt lat="43.15405" lon="3.08094">
        <ele>138.104</ele>
        <time>2021-09-25T09:46:13Z</time>
      </trkpt>
      <trkpt lat="43.15405" lon="3.08098">
        <ele>138.012</ele>
        <time>2021-09-25T09:46:15Z</time>
      </trkpt>
      <trkpt lat="43.15406" lon="3.08102">
        <ele>138.361</ele>
        <time>2021-09-25T09:46:17Z</time>
      </trkpt>
      <trkpt lat="43.15406" lon="3.08105">
        <ele>138.616</ele>
        <time>2021-09-25T09:46:19Z</time>
      </trkpt>
      <trkpt lat="43.15406" lon="3.08109">
        <ele>138.175</ele>
        <time>2021-09-25T09:46:21Z</time>
      </trkpt>
      <trkpt lat="43.15407" lon="3.08112">
        <ele>137.884</ele>
        <time>2021-09-25T09:46:23Z</time>
      </trkpt>
      <trkpt lat="43.15407" lon="3.08115">
        <ele>138.054</ele>
        <time>2021-09-25T09:46:25Z</time>
      </trkpt>
      <trkpt lat="43.15408" lon="3.08119">
        <ele>138.043</ele>
        <time>2021-09-25T09:46:27Z</time>
      </trkpt>
      <trkpt lat="43.15408" lon="3.08121">
        <ele>137.902</ele>
        <time>2021-09-25T09:46:29Z</time>
      </trkpt>
      <trkpt lat="43.15409" lon="3.08124">
        <ele>137.489</ele>
        <time>2021-09-25T09:46:31Z</time>
      </trkpt>
      <trkpt lat="43.15409" lon="3.08127">
        <ele>137.156</ele>
        <time>2021-09-25T09:46:33Z</time>
      </trkpt>
      <trkpt lat="43.15409" lon="3.0813">
        <ele>137.389</ele>
        <time>2021-09-25T09:46:35Z</time>
      </trkpt>
      <trkpt lat="43.1541" lon="3.08134">
        <ele>137.462</ele>
        <time>2021-09-25T09:46:37Z</time>
      </trkpt>
      <trkpt lat="43.1541" lon="3.08137">
        <ele>137.412</ele>
        <time>2021-09-25T09:46:39Z</time>
      </trkpt>
      <trkpt lat="43.1541" lon="3.08141">
        <ele>137.456</ele>
        <time>2021-09-25T09:46:41Z</time>
      </trkpt>
      <trkpt lat="43.1541" lon="3.08145">
        <ele>137.609</ele>
        <time>2021-09-25T09:46:43Z</time>
      </trkpt>
      <trkpt lat="43.15411" lon="3.08149">
        <ele>137.616</ele>
        <time>2021-09-25T09:46:45Z</time>
      </trkpt>
      <trkpt lat="43.15411" lon="3.08152">
        <ele>137.576</ele>
        <time>2021-09-25T09:46:47Z</time>
      </trkpt>
      <trkpt lat="43.15411" lon="3.08156">
        <ele>137.556</ele>
        <time>2021-09-25T09:46:49Z</time>
      </trkpt>
      <trkpt lat="43.15411" lon="3.08159">
        <ele>137.555</ele>
        <time>2021-09-25T09:46:51Z</time>
      </trkpt>
      <trkpt lat="43.15412" lon="3.08163">
        <ele>137.225</ele>
        <time>2021-09-25T09:46:53Z</time>
      </trkpt>
      <trkpt lat="43.15412" lon="3.08167">
        <ele>137.178</ele>
        <time>2021-09-25T09:46:55Z</time>
      </trkpt>
      <trkpt lat="43.15412" lon="3.08171">
        <ele>136.83</ele>
        <time>2021-09-25T09:46:57Z</time>
      </trkpt>
      <trkpt lat="43.15412" lon="3.08174">
        <ele>136.735</ele>
        <time>2021-09-25T09:46:59Z</time>
      </trkpt>
      <trkpt lat="43.15412" lon="3.08178">
        <ele>136.95</ele>
        <time>2021-09-25T09:47:01Z</time>
      </trkpt>
      <trkpt lat="43.15411" lon="3.08183">
        <ele>136.658</ele>
        <time>2021-09-25T09:47:03Z</time>
      </trkpt>
      <trkpt lat="43.15412" lon="3.08186">
        <ele>136.063</ele>
        <time>2021-09-25T09:47:05Z</time>
      </trkpt>
      <trkpt lat="43.15412" lon="3.08189">
        <ele>135.637</ele>
        <time>2021-09-25T09:47:07Z</time>
      </trkpt>
      <trkpt lat="43.15412" lon="3.08193">
        <ele>135.545</ele>
        <time>2021-09-25T09:47:09Z</time>
      </trkpt>
      <trkpt lat="43.15413" lon="3.08197">
        <ele>136</ele>
        <time>2021-09-25T09:47:11Z</time>
      </trkpt>
      <trkpt lat="43.15412" lon="3.082">
        <ele>136.205</ele>
        <time>2021-09-25T09:47:13Z</time>
      </trkpt>
      <trkpt lat="43.15412" lon="3.08204">
        <ele>136.892</ele>
        <time>2021-09-25T09:47:15Z</time>
      </trkpt>
      <trkpt lat="43.15412" lon="3.08209">
        <ele>136.812</ele>
        <time>2021-09-25T09:47:17Z</time>
      </trkpt>
      <trkpt lat="43.15411" lon="3.08212">
        <ele>136.675</ele>
        <time>2021-09-25T09:47:19Z</time>
      </trkpt>
      <trkpt lat="43.15411" lon="3.08216">
        <ele>136.483</ele>
        <time>2021-09-25T09:47:21Z</time>
      </trkpt>
      <trkpt lat="43.15411" lon="3.0822">
        <ele>136.756</ele>
        <time>2021-09-25T09:47:23Z</time>
      </trkpt>
      <trkpt lat="43.15411" lon="3.08225">
        <ele>136.477</ele>
        <time>2021-09-25T09:47:25Z</time>
      </trkpt>
      <trkpt lat="43.1541" lon="3.08228">
        <ele>136.419</ele>
        <time>2021-09-25T09:47:27Z</time>
      </trkpt>
      <trkpt lat="43.15411" lon="3.08232">
        <ele>136.915</ele>
        <time>2021-09-25T09:47:29Z</time>
      </trkpt>
      <trkpt lat="43.15411" lon="3.08236">
        <ele>137.007</ele>
        <time>2021-09-25T09:47:31Z</time>
      </trkpt>
      <trkpt lat="43.15411" lon="3.08239">
        <ele>136.65</ele>
        <time>2021-09-25T09:47:33Z</time>
      </trkpt>
      <trkpt lat="43.15411" lon="3.08243">
        <ele>136.091</ele>
        <time>2021-09-25T09:47:35Z</time>
      </trkpt>
      <trkpt lat="43.15411" lon="3.08247">
        <ele>136.477</ele>
        <time>2021-09-25T09:47:37Z</time>
      </trkpt>
      <trkpt lat="43.15411" lon="3.08252">
        <ele>137.009</ele>
        <time>2021-09-25T09:47:39Z</time>
      </trkpt>
      <trkpt lat="43.15411" lon="3.08256">
        <ele>136.709</ele>
        <time>2021-09-25T09:47:41Z</time>
      </trkpt>
      <trkpt lat="43.15411" lon="3.08259">
        <ele>136.291</ele>
        <time>2021-09-25T09:47:43Z</time>
      </trkpt>
      <trkpt lat="43.15411" lon="3.08263">
        <ele>136.105</ele>
        <time>2021-09-25T09:47:45Z</time>
      </trkpt>
      <trkpt lat="43.15411" lon="3.08267">
        <ele>136.508</ele>
        <time>2021-09-25T09:47:47Z</time>
      </trkpt>
      <trkpt lat="43.15411" lon="3.0827">
        <ele>136.326</ele>
        <time>2021-09-25T09:47:49Z</time>
      </trkpt>
      <trkpt lat="43.15412" lon="3.08274">
        <ele>136.99</ele>
        <time>2021-09-25T09:47:51Z</time>
      </trkpt>
      <trkpt lat="43.15411" lon="3.08278">
        <ele>137.236</ele>
        <time>2021-09-25T09:47:53Z</time>
      </trkpt>
      <trkpt lat="43.15411" lon="3.08282">
        <ele>137.734</ele>
        <time>2021-09-25T09:47:55Z</time>
      </trkpt>
      <trkpt lat="43.15411" lon="3.08286">
        <ele>137.525</ele>
        <time>2021-09-25T09:47:57Z</time>
      </trkpt>
      <trkpt lat="43.15412" lon="3.0829">
        <ele>136.889</ele>
        <time>2021-09-25T09:47:59Z</time>
      </trkpt>
      <trkpt lat="43.15412" lon="3.08293">
        <ele>136.093</ele>
        <time>2021-09-25T09:48:01Z</time>
      </trkpt>
      <trkpt lat="43.15412" lon="3.08297">
        <ele>135.869</ele>
        <time>2021-09-25T09:48:03Z</time>
      </trkpt>
      <trkpt lat="43.15412" lon="3.08301">
        <ele>135.826</ele>
        <time>2021-09-25T09:48:05Z</time>
      </trkpt>
      <trkpt lat="43.15411" lon="3.08305">
        <ele>136.078</ele>
        <time>2021-09-25T09:48:07Z</time>
      </trkpt>
      <trkpt lat="43.15411" lon="3.08309">
        <ele>135.889</ele>
        <time>2021-09-25T09:48:09Z</time>
      </trkpt>
      <trkpt lat="43.15411" lon="3.08313">
        <ele>136.164</ele>
        <time>2021-09-25T09:48:11Z</time>
      </trkpt>
      <trkpt lat="43.15411" lon="3.08317">
        <ele>136.369</ele>
        <time>2021-09-25T09:48:13Z</time>
      </trkpt>
      <trkpt lat="43.15411" lon="3.08321">
        <ele>136.295</ele>
        <time>2021-09-25T09:48:15Z</time>
      </trkpt>
      <trkpt lat="43.1541" lon="3.08325">
        <ele>135.983</ele>
        <time>2021-09-25T09:48:17Z</time>
      </trkpt>
      <trkpt lat="43.1541" lon="3.0833">
        <ele>135.538</ele>
        <time>2021-09-25T09:48:19Z</time>
      </trkpt>
      <trkpt lat="43.1541" lon="3.08334">
        <ele>135.435</ele>
        <time>2021-09-25T09:48:21Z</time>
      </trkpt>
      <trkpt lat="43.15409" lon="3.08338">
        <ele>136.066</ele>
        <time>2021-09-25T09:48:23Z</time>
      </trkpt>
      <trkpt lat="43.15409" lon="3.08341">
        <ele>136.162</ele>
        <time>2021-09-25T09:48:25Z</time>
      </trkpt>
      <trkpt lat="43.15409" lon="3.08343">
        <ele>135.96</ele>
        <time>2021-09-25T09:48:27Z</time>
      </trkpt>
      <trkpt lat="43.15409" lon="3.08347">
        <ele>135.737</ele>
        <time>2021-09-25T09:48:29Z</time>
      </trkpt>
      <trkpt lat="43.15409" lon="3.08351">
        <ele>136.162</ele>
        <time>2021-09-25T09:48:31Z</time>
      </trkpt>
      <trkpt lat="43.15408" lon="3.08355">
        <ele>136.428</ele>
        <time>2021-09-25T09:48:33Z</time>
      </trkpt>
      <trkpt lat="43.15408" lon="3.08359">
        <ele>136.386</ele>
        <time>2021-09-25T09:48:35Z</time>
      </trkpt>
      <trkpt lat="43.15407" lon="3.08363">
        <ele>136.015</ele>
        <time>2021-09-25T09:48:37Z</time>
      </trkpt>
      <trkpt lat="43.15407" lon="3.08367">
        <ele>136.496</ele>
        <time>2021-09-25T09:48:39Z</time>
      </trkpt>
      <trkpt lat="43.15406" lon="3.08371">
        <ele>137.101</ele>
        <time>2021-09-25T09:48:41Z</time>
      </trkpt>
      <trkpt lat="43.15405" lon="3.08375">
        <ele>136.778</ele>
        <time>2021-09-25T09:48:43Z</time>
      </trkpt>
      <trkpt lat="43.15405" lon="3.08379">
        <ele>137.107</ele>
        <time>2021-09-25T09:48:45Z</time>
      </trkpt>
      <trkpt lat="43.15405" lon="3.08383">
        <ele>137.186</ele>
        <time>2021-09-25T09:48:47Z</time>
      </trkpt>
      <trkpt lat="43.15404" lon="3.08386">
        <ele>136.756</ele>
        <time>2021-09-25T09:48:49Z</time>
      </trkpt>
      <trkpt lat="43.15404" lon="3.0839">
        <ele>136.614</ele>
        <time>2021-09-25T09:48:51Z</time>
      </trkpt>
      <trkpt lat="43.15403" lon="3.08394">
        <ele>136.553</ele>
        <time>2021-09-25T09:48:53Z</time>
      </trkpt>
      <trkpt lat="43.15403" lon="3.08397">
        <ele>136.698</ele>
        <time>2021-09-25T09:48:55Z</time>
      </trkpt>
      <trkpt lat="43.15402" lon="3.08401">
        <ele>136.242</ele>
        <time>2021-09-25T09:48:57Z</time>
      </trkpt>
      <trkpt lat="43.15401" lon="3.08404">
        <ele>136.363</ele>
        <time>2021-09-25T09:48:59Z</time>
      </trkpt>
      <trkpt lat="43.154" lon="3.08408">
        <ele>136.338</ele>
        <time>2021-09-25T09:49:01Z</time>
      </trkpt>
      <trkpt lat="43.154" lon="3.08411">
        <ele>135.37</ele>
        <time>2021-09-25T09:49:03Z</time>
      </trkpt>
      <trkpt lat="43.15399" lon="3.08414">
        <ele>135.176</ele>
        <time>2021-09-25T09:49:05Z</time>
      </trkpt>
      <trkpt lat="43.15399" lon="3.08418">
        <ele>135.128</ele>
        <time>2021-09-25T09:49:07Z</time>
      </trkpt>
      <trkpt lat="43.15398" lon="3.08421">
        <ele>134.863</ele>
        <time>2021-09-25T09:49:09Z</time>
      </trkpt>
      <trkpt lat="43.15397" lon="3.08425">
        <ele>134.876</ele>
        <time>2021-09-25T09:49:11Z</time>
      </trkpt>
      <trkpt lat="43.15396" lon="3.08428">
        <ele>134.532</ele>
        <time>2021-09-25T09:49:13Z</time>
      </trkpt>
      <trkpt lat="43.15395" lon="3.08431">
        <ele>134.923</ele>
        <time>2021-09-25T09:49:15Z</time>
      </trkpt>
      <trkpt lat="43.15394" lon="3.08434">
        <ele>134.253</ele>
        <time>2021-09-25T09:49:17Z</time>
      </trkpt>
      <trkpt lat="43.15393" lon="3.08438">
        <ele>134.792</ele>
        <time>2021-09-25T09:49:19Z</time>
      </trkpt>
      <trkpt lat="43.15392" lon="3.08442">
        <ele>134.313</ele>
        <time>2021-09-25T09:49:21Z</time>
      </trkpt>
      <trkpt lat="43.15392" lon="3.08444">
        <ele>134.711</ele>
        <time>2021-09-25T09:49:23Z</time>
      </trkpt>
      <trkpt lat="43.15391" lon="3.08448">
        <ele>134.642</ele>
        <time>2021-09-25T09:49:25Z</time>
      </trkpt>
      <trkpt lat="43.15391" lon="3.08449">
        <ele>134.614</ele>
        <time>2021-09-25T09:49:27Z</time>
      </trkpt>
      <trkpt lat="43.15391" lon="3.08449">
        <ele>134.602</ele>
        <time>2021-09-25T09:49:29Z</time>
      </trkpt>
      <trkpt lat="43.15391" lon="3.08449">
        <ele>134.6</ele>
        <time>2021-09-25T09:49:31Z</time>
      </trkpt>
      <trkpt lat="43.15391" lon="3.08449">
        <ele>134.603</ele>
        <time>2021-09-25T09:49:33Z</time>
      </trkpt>
      <trkpt lat="43.15391" lon="3.08449">
        <ele>134.624</ele>
        <time>2021-09-25T09:49:35Z</time>
      </trkpt>
      <trkpt lat="43.1539" lon="3.08452">
        <ele>134.501</ele>
        <time>2021-09-25T09:49:37Z</time>
      </trkpt>
      <trkpt lat="43.1539" lon="3.08456">
        <ele>135.461</ele>
        <time>2021-09-25T09:49:39Z</time>
      </trkpt>
      <trkpt lat="43.1539" lon="3.0846">
        <ele>135.295</ele>
        <time>2021-09-25T09:49:41Z</time>
      </trkpt>
      <trkpt lat="43.15389" lon="3.08463">
        <ele>135.18</ele>
        <time>2021-09-25T09:49:43Z</time>
      </trkpt>
      <trkpt lat="43.15389" lon="3.08466">
        <ele>135.022</ele>
        <time>2021-09-25T09:49:45Z</time>
      </trkpt>
      <trkpt lat="43.15389" lon="3.0847">
        <ele>134.182</ele>
        <time>2021-09-25T09:49:47Z</time>
      </trkpt>
      <trkpt lat="43.15389" lon="3.08473">
        <ele>134.538</ele>
        <time>2021-09-25T09:49:49Z</time>
      </trkpt>
      <trkpt lat="43.15388" lon="3.08476">
        <ele>134.602</ele>
        <time>2021-09-25T09:49:51Z</time>
      </trkpt>
      <trkpt lat="43.15388" lon="3.0848">
        <ele>134.902</ele>
        <time>2021-09-25T09:49:53Z</time>
      </trkpt>
      <trkpt lat="43.15387" lon="3.08484">
        <ele>134.774</ele>
        <time>2021-09-25T09:49:55Z</time>
      </trkpt>
      <trkpt lat="43.15387" lon="3.08487">
        <ele>133.511</ele>
        <time>2021-09-25T09:49:57Z</time>
      </trkpt>
      <trkpt lat="43.15387" lon="3.0849">
        <ele>133.405</ele>
        <time>2021-09-25T09:49:59Z</time>
      </trkpt>
      <trkpt lat="43.15387" lon="3.08493">
        <ele>133.973</ele>
        <time>2021-09-25T09:50:01Z</time>
      </trkpt>
      <trkpt lat="43.15388" lon="3.08494">
        <ele>134.194</ele>
        <time>2021-09-25T09:50:03Z</time>
      </trkpt>
      <trkpt lat="43.15388" lon="3.08493">
        <ele>134.145</ele>
        <time>2021-09-25T09:50:05Z</time>
      </trkpt>
      <trkpt lat="43.15388" lon="3.08495">
        <ele>133.713</ele>
        <time>2021-09-25T09:50:07Z</time>
      </trkpt>
      <trkpt lat="43.15387" lon="3.08498">
        <ele>133.749</ele>
        <time>2021-09-25T09:50:09Z</time>
      </trkpt>
      <trkpt lat="43.15387" lon="3.08501">
        <ele>133.088</ele>
        <time>2021-09-25T09:50:11Z</time>
      </trkpt>
      <trkpt lat="43.15387" lon="3.08503">
        <ele>132.855</ele>
        <time>2021-09-25T09:50:13Z</time>
      </trkpt>
      <trkpt lat="43.15387" lon="3.08507">
        <ele>132.826</ele>
        <time>2021-09-25T09:50:15Z</time>
      </trkpt>
      <trkpt lat="43.15387" lon="3.08511">
        <ele>132.66</ele>
        <time>2021-09-25T09:50:17Z</time>
      </trkpt>
      <trkpt lat="43.15387" lon="3.08514">
        <ele>132.971</ele>
        <time>2021-09-25T09:50:19Z</time>
      </trkpt>
      <trkpt lat="43.15386" lon="3.08518">
        <ele>133.414</ele>
        <time>2021-09-25T09:50:21Z</time>
      </trkpt>
      <trkpt lat="43.15386" lon="3.08521">
        <ele>133.395</ele>
        <time>2021-09-25T09:50:23Z</time>
      </trkpt>
      <trkpt lat="43.15385" lon="3.08524">
        <ele>132.826</ele>
        <time>2021-09-25T09:50:25Z</time>
      </trkpt>
      <trkpt lat="43.15384" lon="3.08528">
        <ele>132.486</ele>
        <time>2021-09-25T09:50:27Z</time>
      </trkpt>
      <trkpt lat="43.15383" lon="3.08531">
        <ele>131.88</ele>
        <time>2021-09-25T09:50:29Z</time>
      </trkpt>
      <trkpt lat="43.15383" lon="3.08535">
        <ele>131.258</ele>
        <time>2021-09-25T09:50:31Z</time>
      </trkpt>
      <trkpt lat="43.15382" lon="3.08539">
        <ele>131.079</ele>
        <time>2021-09-25T09:50:33Z</time>
      </trkpt>
      <trkpt lat="43.15381" lon="3.08543">
        <ele>131.722</ele>
        <time>2021-09-25T09:50:35Z</time>
      </trkpt>
      <trkpt lat="43.1538" lon="3.08547">
        <ele>131.449</ele>
        <time>2021-09-25T09:50:37Z</time>
      </trkpt>
      <trkpt lat="43.15379" lon="3.08551">
        <ele>131.353</ele>
        <time>2021-09-25T09:50:39Z</time>
      </trkpt>
      <trkpt lat="43.15378" lon="3.08555">
        <ele>131.654</ele>
        <time>2021-09-25T09:50:41Z</time>
      </trkpt>
      <trkpt lat="43.15376" lon="3.0856">
        <ele>132.05</ele>
        <time>2021-09-25T09:50:43Z</time>
      </trkpt>
      <trkpt lat="43.15375" lon="3.08564">
        <ele>131.896</ele>
        <time>2021-09-25T09:50:45Z</time>
      </trkpt>
      <trkpt lat="43.15374" lon="3.08568">
        <ele>131.791</ele>
        <time>2021-09-25T09:50:47Z</time>
      </trkpt>
      <trkpt lat="43.15373" lon="3.08571">
        <ele>131.893</ele>
        <time>2021-09-25T09:50:49Z</time>
      </trkpt>
      <trkpt lat="43.15372" lon="3.08574">
        <ele>132.396</ele>
        <time>2021-09-25T09:50:51Z</time>
      </trkpt>
      <trkpt lat="43.15371" lon="3.08577">
        <ele>132.542</ele>
        <time>2021-09-25T09:50:53Z</time>
      </trkpt>
      <trkpt lat="43.1537" lon="3.08581">
        <ele>132.25</ele>
        <time>2021-09-25T09:50:55Z</time>
      </trkpt>
      <trkpt lat="43.15369" lon="3.08584">
        <ele>131.432</ele>
        <time>2021-09-25T09:50:57Z</time>
      </trkpt>
      <trkpt lat="43.15369" lon="3.08587">
        <ele>131.091</ele>
        <time>2021-09-25T09:50:59Z</time>
      </trkpt>
      <trkpt lat="43.15368" lon="3.0859">
        <ele>130.547</ele>
        <time>2021-09-25T09:51:01Z</time>
      </trkpt>
      <trkpt lat="43.15368" lon="3.08593">
        <ele>130.513</ele>
        <time>2021-09-25T09:51:03Z</time>
      </trkpt>
      <trkpt lat="43.15368" lon="3.08597">
        <ele>130.409</ele>
        <time>2021-09-25T09:51:05Z</time>
      </trkpt>
      <trkpt lat="43.15368" lon="3.086">
        <ele>130.174</ele>
        <time>2021-09-25T09:51:07Z</time>
      </trkpt>
      <trkpt lat="43.15368" lon="3.08604">
        <ele>129.767</ele>
        <time>2021-09-25T09:51:09Z</time>
      </trkpt>
      <trkpt lat="43.15368" lon="3.08607">
        <ele>129.53</ele>
        <time>2021-09-25T09:51:11Z</time>
      </trkpt>
      <trkpt lat="43.15368" lon="3.08611">
        <ele>129.465</ele>
        <time>2021-09-25T09:51:13Z</time>
      </trkpt>
      <trkpt lat="43.15367" lon="3.08613">
        <ele>129.243</ele>
        <time>2021-09-25T09:51:15Z</time>
      </trkpt>
      <trkpt lat="43.15365" lon="3.08615">
        <ele>129.979</ele>
        <time>2021-09-25T09:51:17Z</time>
      </trkpt>
      <trkpt lat="43.15362" lon="3.08616">
        <ele>129.617</ele>
        <time>2021-09-25T09:51:19Z</time>
      </trkpt>
      <trkpt lat="43.1536" lon="3.08617">
        <ele>130.334</ele>
        <time>2021-09-25T09:51:21Z</time>
      </trkpt>
      <trkpt lat="43.15357" lon="3.08619">
        <ele>130.51</ele>
        <time>2021-09-25T09:51:23Z</time>
      </trkpt>
      <trkpt lat="43.15356" lon="3.08621">
        <ele>130.8</ele>
        <time>2021-09-25T09:51:25Z</time>
      </trkpt>
      <trkpt lat="43.15354" lon="3.08624">
        <ele>130.663</ele>
        <time>2021-09-25T09:51:27Z</time>
      </trkpt>
      <trkpt lat="43.15352" lon="3.08627">
        <ele>130.805</ele>
        <time>2021-09-25T09:51:29Z</time>
      </trkpt>
      <trkpt lat="43.15351" lon="3.08628">
        <ele>130.648</ele>
        <time>2021-09-25T09:51:31Z</time>
      </trkpt>
      <trkpt lat="43.1535" lon="3.0863">
        <ele>130.583</ele>
        <time>2021-09-25T09:51:33Z</time>
      </trkpt>
      <trkpt lat="43.15349" lon="3.08632">
        <ele>130.764</ele>
        <time>2021-09-25T09:51:35Z</time>
      </trkpt>
      <trkpt lat="43.15348" lon="3.08633">
        <ele>130.182</ele>
        <time>2021-09-25T09:51:37Z</time>
      </trkpt>
      <trkpt lat="43.15346" lon="3.08635">
        <ele>130.059</ele>
        <time>2021-09-25T09:51:39Z</time>
      </trkpt>
      <trkpt lat="43.15346" lon="3.08639">
        <ele>129.817</ele>
        <time>2021-09-25T09:51:41Z</time>
      </trkpt>
      <trkpt lat="43.15346" lon="3.08642">
        <ele>129.648</ele>
        <time>2021-09-25T09:51:43Z</time>
      </trkpt>
      <trkpt lat="43.15346" lon="3.08643">
        <ele>129.623</ele>
        <time>2021-09-25T09:51:45Z</time>
      </trkpt>
      <trkpt lat="43.15346" lon="3.08643">
        <ele>129.626</ele>
        <time>2021-09-25T09:51:47Z</time>
      </trkpt>
      <trkpt lat="43.15346" lon="3.08643">
        <ele>129.632</ele>
        <time>2021-09-25T09:51:49Z</time>
      </trkpt>
      <trkpt lat="43.15346" lon="3.08643">
        <ele>129.645</ele>
        <time>2021-09-25T09:51:51Z</time>
      </trkpt>
      <trkpt lat="43.15345" lon="3.08643">
        <ele>130.336</ele>
        <time>2021-09-25T09:51:53Z</time>
      </trkpt>
      <trkpt lat="43.15345" lon="3.08643">
        <ele>130.338</ele>
        <time>2021-09-25T09:51:55Z</time>
      </trkpt>
      <trkpt lat="43.15345" lon="3.08643">
        <ele>130.343</ele>
        <time>2021-09-25T09:51:57Z</time>
      </trkpt>
      <trkpt lat="43.15345" lon="3.08643">
        <ele>130.346</ele>
        <time>2021-09-25T09:51:59Z</time>
      </trkpt>
      <trkpt lat="43.15345" lon="3.08644">
        <ele>130.422</ele>
        <time>2021-09-25T09:52:01Z</time>
      </trkpt>
      <trkpt lat="43.15345" lon="3.08644">
        <ele>130.569</ele>
        <time>2021-09-25T09:52:03Z</time>
      </trkpt>
      <trkpt lat="43.15345" lon="3.08645">
        <ele>130.58</ele>
        <time>2021-09-25T09:52:05Z</time>
      </trkpt>
      <trkpt lat="43.15345" lon="3.08645">
        <ele>130.597</ele>
        <time>2021-09-25T09:52:07Z</time>
      </trkpt>
      <trkpt lat="43.15344" lon="3.08645">
        <ele>131.363</ele>
        <time>2021-09-25T09:52:09Z</time>
      </trkpt>
      <trkpt lat="43.15344" lon="3.08646">
        <ele>131.32</ele>
        <time>2021-09-25T09:52:11Z</time>
      </trkpt>
      <trkpt lat="43.15344" lon="3.08646">
        <ele>131.315</ele>
        <time>2021-09-25T09:52:13Z</time>
      </trkpt>
      <trkpt lat="43.15344" lon="3.08647">
        <ele>131.051</ele>
        <time>2021-09-25T09:52:15Z</time>
      </trkpt>
      <trkpt lat="43.15344" lon="3.08647">
        <ele>131.067</ele>
        <time>2021-09-25T09:52:17Z</time>
      </trkpt>
      <trkpt lat="43.15344" lon="3.08647">
        <ele>131.074</ele>
        <time>2021-09-25T09:52:19Z</time>
      </trkpt>
      <trkpt lat="43.15344" lon="3.08647">
        <ele>131.083</ele>
        <time>2021-09-25T09:52:21Z</time>
      </trkpt>
      <trkpt lat="43.15344" lon="3.08647">
        <ele>131.1</ele>
        <time>2021-09-25T09:52:23Z</time>
      </trkpt>
      <trkpt lat="43.15344" lon="3.08647">
        <ele>131.112</ele>
        <time>2021-09-25T09:52:25Z</time>
      </trkpt>
      <trkpt lat="43.15344" lon="3.08647">
        <ele>131.114</ele>
        <time>2021-09-25T09:52:27Z</time>
      </trkpt>
      <trkpt lat="43.15344" lon="3.08647">
        <ele>131.115</ele>
        <time>2021-09-25T09:52:29Z</time>
      </trkpt>
      <trkpt lat="43.15344" lon="3.08647">
        <ele>131.117</ele>
        <time>2021-09-25T09:52:31Z</time>
      </trkpt>
      <trkpt lat="43.15344" lon="3.08648">
        <ele>131.35</ele>
        <time>2021-09-25T09:52:33Z</time>
      </trkpt>
      <trkpt lat="43.15344" lon="3.08649">
        <ele>131.535</ele>
        <time>2021-09-25T09:52:35Z</time>
      </trkpt>
      <trkpt lat="43.15344" lon="3.0865">
        <ele>131.3</ele>
        <time>2021-09-25T09:52:37Z</time>
      </trkpt>
      <trkpt lat="43.15344" lon="3.08652">
        <ele>131.557</ele>
        <time>2021-09-25T09:52:39Z</time>
      </trkpt>
      <trkpt lat="43.15343" lon="3.08655">
        <ele>131.419</ele>
        <time>2021-09-25T09:52:41Z</time>
      </trkpt>
      <trkpt lat="43.15343" lon="3.08658">
        <ele>131.453</ele>
        <time>2021-09-25T09:52:43Z</time>
      </trkpt>
      <trkpt lat="43.15343" lon="3.08659">
        <ele>131.34</ele>
        <time>2021-09-25T09:52:45Z</time>
      </trkpt>
      <trkpt lat="43.15343" lon="3.0866">
        <ele>131.328</ele>
        <time>2021-09-25T09:52:47Z</time>
      </trkpt>
      <trkpt lat="43.15343" lon="3.0866">
        <ele>131.319</ele>
        <time>2021-09-25T09:52:49Z</time>
      </trkpt>
      <trkpt lat="43.15343" lon="3.0866">
        <ele>131.311</ele>
        <time>2021-09-25T09:52:51Z</time>
      </trkpt>
      <trkpt lat="43.15343" lon="3.0866">
        <ele>131.301</ele>
        <time>2021-09-25T09:52:53Z</time>
      </trkpt>
      <trkpt lat="43.15343" lon="3.0866">
        <ele>131.293</ele>
        <time>2021-09-25T09:52:55Z</time>
      </trkpt>
      <trkpt lat="43.15343" lon="3.0866">
        <ele>131.288</ele>
        <time>2021-09-25T09:52:57Z</time>
      </trkpt>
      <trkpt lat="43.15343" lon="3.0866">
        <ele>131.283</ele>
        <time>2021-09-25T09:52:59Z</time>
      </trkpt>
      <trkpt lat="43.15343" lon="3.0866">
        <ele>131.28</ele>
        <time>2021-09-25T09:53:01Z</time>
      </trkpt>
      <trkpt lat="43.15343" lon="3.0866">
        <ele>131.275</ele>
        <time>2021-09-25T09:53:03Z</time>
      </trkpt>
      <trkpt lat="43.15343" lon="3.0866">
        <ele>131.274</ele>
        <time>2021-09-25T09:53:05Z</time>
      </trkpt>
      <trkpt lat="43.15343" lon="3.0866">
        <ele>131.274</ele>
        <time>2021-09-25T09:53:07Z</time>
      </trkpt>
      <trkpt lat="43.15343" lon="3.0866">
        <ele>131.276</ele>
        <time>2021-09-25T09:53:09Z</time>
      </trkpt>
      <trkpt lat="43.15343" lon="3.0866">
        <ele>130.844</ele>
        <time>2021-09-25T09:53:11Z</time>
      </trkpt>
      <trkpt lat="43.15343" lon="3.0866">
        <ele>130.895</ele>
        <time>2021-09-25T09:53:13Z</time>
      </trkpt>
      <trkpt lat="43.15343" lon="3.0866">
        <ele>130.919</ele>
        <time>2021-09-25T09:53:15Z</time>
      </trkpt>
      <trkpt lat="43.15343" lon="3.0866">
        <ele>130.927</ele>
        <time>2021-09-25T09:53:17Z</time>
      </trkpt>
      <trkpt lat="43.15343" lon="3.0866">
        <ele>130.942</ele>
        <time>2021-09-25T09:53:19Z</time>
      </trkpt>
      <trkpt lat="43.15343" lon="3.0866">
        <ele>130.941</ele>
        <time>2021-09-25T09:53:21Z</time>
      </trkpt>
      <trkpt lat="43.15343" lon="3.0866">
        <ele>130.951</ele>
        <time>2021-09-25T09:53:23Z</time>
      </trkpt>
      <trkpt lat="43.15343" lon="3.0866">
        <ele>130.956</ele>
        <time>2021-09-25T09:53:25Z</time>
      </trkpt>
      <trkpt lat="43.15343" lon="3.0866">
        <ele>130.966</ele>
        <time>2021-09-25T09:53:27Z</time>
      </trkpt>
      <trkpt lat="43.15343" lon="3.0866">
        <ele>130.974</ele>
        <time>2021-09-25T09:53:29Z</time>
      </trkpt>
      <trkpt lat="43.15343" lon="3.0866">
        <ele>130.979</ele>
        <time>2021-09-25T09:53:31Z</time>
      </trkpt>
      <trkpt lat="43.15343" lon="3.0866">
        <ele>130.983</ele>
        <time>2021-09-25T09:53:33Z</time>
      </trkpt>
      <trkpt lat="43.15343" lon="3.0866">
        <ele>130.987</ele>
        <time>2021-09-25T09:53:35Z</time>
      </trkpt>
      <trkpt lat="43.15343" lon="3.0866">
        <ele>130.993</ele>
        <time>2021-09-25T09:53:37Z</time>
      </trkpt>
      <trkpt lat="43.15343" lon="3.0866">
        <ele>130.998</ele>
        <time>2021-09-25T09:53:39Z</time>
      </trkpt>
      <trkpt lat="43.15343" lon="3.0866">
        <ele>130.999</ele>
        <time>2021-09-25T09:53:41Z</time>
      </trkpt>
      <trkpt lat="43.15343" lon="3.0866">
        <ele>131.005</ele>
        <time>2021-09-25T09:53:43Z</time>
      </trkpt>
      <trkpt lat="43.15343" lon="3.0866">
        <ele>131.011</ele>
        <time>2021-09-25T09:53:45Z</time>
      </trkpt>
      <trkpt lat="43.15343" lon="3.0866">
        <ele>131.016</ele>
        <time>2021-09-25T09:53:47Z</time>
      </trkpt>
      <trkpt lat="43.15343" lon="3.0866">
        <ele>131.026</ele>
        <time>2021-09-25T09:53:49Z</time>
      </trkpt>
      <trkpt lat="43.15343" lon="3.0866">
        <ele>131.032</ele>
        <time>2021-09-25T09:53:51Z</time>
      </trkpt>
      <trkpt lat="43.15343" lon="3.0866">
        <ele>131.035</ele>
        <time>2021-09-25T09:53:53Z</time>
      </trkpt>
      <trkpt lat="43.15343" lon="3.0866">
        <ele>131.036</ele>
        <time>2021-09-25T09:53:55Z</time>
      </trkpt>
      <trkpt lat="43.15343" lon="3.0866">
        <ele>131.039</ele>
        <time>2021-09-25T09:53:57Z</time>
      </trkpt>
      <trkpt lat="43.15343" lon="3.0866">
        <ele>131.043</ele>
        <time>2021-09-25T09:53:59Z</time>
      </trkpt>
      <trkpt lat="43.15343" lon="3.0866">
        <ele>131.049</ele>
        <time>2021-09-25T09:54:01Z</time>
      </trkpt>
      <trkpt lat="43.15343" lon="3.0866">
        <ele>131.062</ele>
        <time>2021-09-25T09:54:03Z</time>
      </trkpt>
      <trkpt lat="43.15343" lon="3.0866">
        <ele>131.072</ele>
        <time>2021-09-25T09:54:05Z</time>
      </trkpt>
      <trkpt lat="43.15343" lon="3.0866">
        <ele>131.079</ele>
        <time>2021-09-25T09:54:07Z</time>
      </trkpt>
      <trkpt lat="43.15343" lon="3.0866">
        <ele>131.083</ele>
        <time>2021-09-25T09:54:09Z</time>
      </trkpt>
      <trkpt lat="43.15343" lon="3.0866">
        <ele>131.081</ele>
        <time>2021-09-25T09:54:11Z</time>
      </trkpt>
      <trkpt lat="43.15343" lon="3.0866">
        <ele>131.082</ele>
        <time>2021-09-25T09:54:13Z</time>
      </trkpt>
      <trkpt lat="43.15343" lon="3.0866">
        <ele>131.088</ele>
        <time>2021-09-25T09:54:15Z</time>
      </trkpt>
      <trkpt lat="43.15343" lon="3.0866">
        <ele>131.092</ele>
        <time>2021-09-25T09:54:17Z</time>
      </trkpt>
      <trkpt lat="43.15343" lon="3.0866">
        <ele>131.091</ele>
        <time>2021-09-25T09:54:19Z</time>
      </trkpt>
      <trkpt lat="43.15343" lon="3.0866">
        <ele>131.097</ele>
        <time>2021-09-25T09:54:21Z</time>
      </trkpt>
      <trkpt lat="43.15343" lon="3.0866">
        <ele>131.096</ele>
        <time>2021-09-25T09:54:23Z</time>
      </trkpt>
      <trkpt lat="43.15343" lon="3.0866">
        <ele>131.097</ele>
        <time>2021-09-25T09:54:25Z</time>
      </trkpt>
      <trkpt lat="43.15343" lon="3.0866">
        <ele>131.101</ele>
        <time>2021-09-25T09:54:27Z</time>
      </trkpt>
      <trkpt lat="43.15343" lon="3.0866">
        <ele>131.1</ele>
        <time>2021-09-25T09:54:29Z</time>
      </trkpt>
      <trkpt lat="43.15343" lon="3.0866">
        <ele>131.1</ele>
        <time>2021-09-25T09:54:31Z</time>
      </trkpt>
      <trkpt lat="43.15343" lon="3.0866">
        <ele>131.097</ele>
        <time>2021-09-25T09:54:33Z</time>
      </trkpt>
      <trkpt lat="43.15343" lon="3.0866">
        <ele>131.098</ele>
        <time>2021-09-25T09:54:35Z</time>
      </trkpt>
      <trkpt lat="43.15343" lon="3.0866">
        <ele>131.103</ele>
        <time>2021-09-25T09:54:37Z</time>
      </trkpt>
      <trkpt lat="43.15343" lon="3.0866">
        <ele>131.105</ele>
        <time>2021-09-25T09:54:39Z</time>
      </trkpt>
      <trkpt lat="43.15343" lon="3.0866">
        <ele>131.109</ele>
        <time>2021-09-25T09:54:41Z</time>
      </trkpt>
      <trkpt lat="43.15343" lon="3.0866">
        <ele>131.114</ele>
        <time>2021-09-25T09:54:43Z</time>
      </trkpt>
      <trkpt lat="43.15343" lon="3.0866">
        <ele>131.121</ele>
        <time>2021-09-25T09:54:45Z</time>
      </trkpt>
      <trkpt lat="43.15343" lon="3.0866">
        <ele>131.128</ele>
        <time>2021-09-25T09:54:47Z</time>
      </trkpt>
      <trkpt lat="43.15343" lon="3.0866">
        <ele>131.136</ele>
        <time>2021-09-25T09:54:49Z</time>
      </trkpt>
      <trkpt lat="43.15343" lon="3.0866">
        <ele>131.138</ele>
        <time>2021-09-25T09:54:51Z</time>
      </trkpt>
      <trkpt lat="43.15343" lon="3.0866">
        <ele>131.147</ele>
        <time>2021-09-25T09:54:53Z</time>
      </trkpt>
      <trkpt lat="43.15343" lon="3.0866">
        <ele>131.154</ele>
        <time>2021-09-25T09:54:55Z</time>
      </trkpt>
      <trkpt lat="43.15343" lon="3.0866">
        <ele>131.163</ele>
        <time>2021-09-25T09:54:57Z</time>
      </trkpt>
      <trkpt lat="43.15343" lon="3.0866">
        <ele>131.168</ele>
        <time>2021-09-25T09:54:59Z</time>
      </trkpt>
      <trkpt lat="43.15343" lon="3.0866">
        <ele>131.175</ele>
        <time>2021-09-25T09:55:01Z</time>
      </trkpt>
      <trkpt lat="43.15343" lon="3.0866">
        <ele>131.181</ele>
        <time>2021-09-25T09:55:03Z</time>
      </trkpt>
      <trkpt lat="43.15343" lon="3.0866">
        <ele>131.185</ele>
        <time>2021-09-25T09:55:05Z</time>
      </trkpt>
      <trkpt lat="43.15343" lon="3.0866">
        <ele>131.51</ele>
        <time>2021-09-25T09:55:07Z</time>
      </trkpt>
      <trkpt lat="43.15343" lon="3.0866">
        <ele>131.514</ele>
        <time>2021-09-25T09:55:09Z</time>
      </trkpt>
      <trkpt lat="43.15343" lon="3.0866">
        <ele>130.926</ele>
        <time>2021-09-25T09:55:11Z</time>
      </trkpt>
      <trkpt lat="43.15343" lon="3.0866">
        <ele>130.917</ele>
        <time>2021-09-25T09:55:13Z</time>
      </trkpt>
      <trkpt lat="43.15343" lon="3.0866">
        <ele>130.918</ele>
        <time>2021-09-25T09:55:15Z</time>
      </trkpt>
      <trkpt lat="43.15343" lon="3.0866">
        <ele>130.914</ele>
        <time>2021-09-25T09:55:17Z</time>
      </trkpt>
      <trkpt lat="43.15343" lon="3.0866">
        <ele>130.913</ele>
        <time>2021-09-25T09:55:19Z</time>
      </trkpt>
      <trkpt lat="43.15343" lon="3.0866">
        <ele>130.911</ele>
        <time>2021-09-25T09:55:21Z</time>
      </trkpt>
      <trkpt lat="43.15343" lon="3.0866">
        <ele>130.908</ele>
        <time>2021-09-25T09:55:23Z</time>
      </trkpt>
      <trkpt lat="43.15343" lon="3.0866">
        <ele>130.912</ele>
        <time>2021-09-25T09:55:25Z</time>
      </trkpt>
      <trkpt lat="43.15343" lon="3.0866">
        <ele>130.91</ele>
        <time>2021-09-25T09:55:27Z</time>
      </trkpt>
      <trkpt lat="43.15343" lon="3.0866">
        <ele>130.907</ele>
        <time>2021-09-25T09:55:29Z</time>
      </trkpt>
      <trkpt lat="43.15343" lon="3.0866">
        <ele>130.908</ele>
        <time>2021-09-25T09:55:31Z</time>
      </trkpt>
      <trkpt lat="43.15343" lon="3.0866">
        <ele>130.909</ele>
        <time>2021-09-25T09:55:33Z</time>
      </trkpt>
      <trkpt lat="43.15343" lon="3.0866">
        <ele>130.912</ele>
        <time>2021-09-25T09:55:35Z</time>
      </trkpt>
      <trkpt lat="43.15343" lon="3.0866">
        <ele>130.908</ele>
        <time>2021-09-25T09:55:37Z</time>
      </trkpt>
      <trkpt lat="43.15343" lon="3.0866">
        <ele>130.91</ele>
        <time>2021-09-25T09:55:39Z</time>
      </trkpt>
      <trkpt lat="43.15343" lon="3.0866">
        <ele>130.907</ele>
        <time>2021-09-25T09:55:41Z</time>
      </trkpt>
      <trkpt lat="43.15343" lon="3.0866">
        <ele>130.906</ele>
        <time>2021-09-25T09:55:43Z</time>
      </trkpt>
      <trkpt lat="43.15343" lon="3.0866">
        <ele>130.907</ele>
        <time>2021-09-25T09:55:45Z</time>
      </trkpt>
      <trkpt lat="43.15343" lon="3.0866">
        <ele>130.913</ele>
        <time>2021-09-25T09:55:47Z</time>
      </trkpt>
      <trkpt lat="43.15343" lon="3.0866">
        <ele>130.91</ele>
        <time>2021-09-25T09:55:49Z</time>
      </trkpt>
      <trkpt lat="43.15343" lon="3.0866">
        <ele>130.909</ele>
        <time>2021-09-25T09:55:51Z</time>
      </trkpt>
      <trkpt lat="43.15342" lon="3.0866">
        <ele>130.907</ele>
        <time>2021-09-25T09:55:53Z</time>
      </trkpt>
      <trkpt lat="43.15342" lon="3.0866">
        <ele>130.908</ele>
        <time>2021-09-25T09:55:55Z</time>
      </trkpt>
      <trkpt lat="43.15342" lon="3.0866">
        <ele>130.912</ele>
        <time>2021-09-25T09:55:57Z</time>
      </trkpt>
      <trkpt lat="43.15342" lon="3.0866">
        <ele>130.915</ele>
        <time>2021-09-25T09:55:59Z</time>
      </trkpt>
      <trkpt lat="43.15342" lon="3.0866">
        <ele>130.922</ele>
        <time>2021-09-25T09:56:01Z</time>
      </trkpt>
      <trkpt lat="43.15342" lon="3.0866">
        <ele>130.925</ele>
        <time>2021-09-25T09:56:03Z</time>
      </trkpt>
      <trkpt lat="43.15342" lon="3.0866">
        <ele>130.923</ele>
        <time>2021-09-25T09:56:05Z</time>
      </trkpt>
      <trkpt lat="43.15342" lon="3.0866">
        <ele>130.924</ele>
        <time>2021-09-25T09:56:07Z</time>
      </trkpt>
      <trkpt lat="43.15342" lon="3.0866">
        <ele>130.924</ele>
        <time>2021-09-25T09:56:09Z</time>
      </trkpt>
      <trkpt lat="43.15342" lon="3.0866">
        <ele>130.925</ele>
        <time>2021-09-25T09:56:11Z</time>
      </trkpt>
      <trkpt lat="43.15342" lon="3.0866">
        <ele>130.931</ele>
        <time>2021-09-25T09:56:13Z</time>
      </trkpt>
      <trkpt lat="43.15342" lon="3.0866">
        <ele>130.929</ele>
        <time>2021-09-25T09:56:15Z</time>
      </trkpt>
      <trkpt lat="43.15342" lon="3.0866">
        <ele>130.93</ele>
        <time>2021-09-25T09:56:17Z</time>
      </trkpt>
      <trkpt lat="43.15342" lon="3.0866">
        <ele>130.931</ele>
        <time>2021-09-25T09:56:19Z</time>
      </trkpt>
      <trkpt lat="43.15342" lon="3.0866">
        <ele>130.814</ele>
        <time>2021-09-25T09:56:21Z</time>
      </trkpt>
      <trkpt lat="43.15341" lon="3.08661">
        <ele>130.193</ele>
        <time>2021-09-25T09:56:23Z</time>
      </trkpt>
      <trkpt lat="43.1534" lon="3.08662">
        <ele>129.935</ele>
        <time>2021-09-25T09:56:25Z</time>
      </trkpt>
      <trkpt lat="43.15338" lon="3.08664">
        <ele>131.12</ele>
        <time>2021-09-25T09:56:27Z</time>
      </trkpt>
      <trkpt lat="43.15337" lon="3.08666">
        <ele>131.187</ele>
        <time>2021-09-25T09:56:29Z</time>
      </trkpt>
      <trkpt lat="43.15337" lon="3.08669">
        <ele>131.148</ele>
        <time>2021-09-25T09:56:31Z</time>
      </trkpt>
      <trkpt lat="43.15337" lon="3.0867">
        <ele>131.661</ele>
        <time>2021-09-25T09:56:33Z</time>
      </trkpt>
      <trkpt lat="43.15337" lon="3.08672">
        <ele>131.37</ele>
        <time>2021-09-25T09:56:35Z</time>
      </trkpt>
      <trkpt lat="43.15337" lon="3.08673">
        <ele>131.375</ele>
        <time>2021-09-25T09:56:37Z</time>
      </trkpt>
      <trkpt lat="43.15336" lon="3.08673">
        <ele>130.97</ele>
        <time>2021-09-25T09:56:39Z</time>
      </trkpt>
      <trkpt lat="43.15336" lon="3.08674">
        <ele>131.199</ele>
        <time>2021-09-25T09:56:41Z</time>
      </trkpt>
      <trkpt lat="43.15334" lon="3.08678">
        <ele>130.578</ele>
        <time>2021-09-25T09:56:43Z</time>
      </trkpt>
      <trkpt lat="43.15333" lon="3.0868">
        <ele>131.354</ele>
        <time>2021-09-25T09:56:45Z</time>
      </trkpt>
      <trkpt lat="43.15333" lon="3.08683">
        <ele>131.789</ele>
        <time>2021-09-25T09:56:47Z</time>
      </trkpt>
      <trkpt lat="43.15332" lon="3.08686">
        <ele>132.318</ele>
        <time>2021-09-25T09:56:49Z</time>
      </trkpt>
      <trkpt lat="43.15331" lon="3.08688">
        <ele>131.989</ele>
        <time>2021-09-25T09:56:51Z</time>
      </trkpt>
      <trkpt lat="43.1533" lon="3.0869">
        <ele>133.062</ele>
        <time>2021-09-25T09:56:53Z</time>
      </trkpt>
      <trkpt lat="43.15329" lon="3.08693">
        <ele>133.46</ele>
        <time>2021-09-25T09:56:55Z</time>
      </trkpt>
      <trkpt lat="43.15328" lon="3.08696">
        <ele>133.669</ele>
        <time>2021-09-25T09:56:57Z</time>
      </trkpt>
      <trkpt lat="43.15328" lon="3.08699">
        <ele>132.552</ele>
        <time>2021-09-25T09:56:59Z</time>
      </trkpt>
      <trkpt lat="43.15327" lon="3.08701">
        <ele>132.101</ele>
        <time>2021-09-25T09:57:01Z</time>
      </trkpt>
      <trkpt lat="43.15326" lon="3.08703">
        <ele>131.992</ele>
        <time>2021-09-25T09:57:03Z</time>
      </trkpt>
      <trkpt lat="43.15326" lon="3.08706">
        <ele>132.227</ele>
        <time>2021-09-25T09:57:05Z</time>
      </trkpt>
      <trkpt lat="43.15325" lon="3.08709">
        <ele>131.922</ele>
        <time>2021-09-25T09:57:07Z</time>
      </trkpt>
      <trkpt lat="43.15325" lon="3.0871">
        <ele>131.891</ele>
        <time>2021-09-25T09:57:09Z</time>
      </trkpt>
      <trkpt lat="43.15325" lon="3.0871">
        <ele>131.897</ele>
        <time>2021-09-25T09:57:11Z</time>
      </trkpt>
      <trkpt lat="43.15325" lon="3.08711">
        <ele>131.895</ele>
        <time>2021-09-25T09:57:13Z</time>
      </trkpt>
      <trkpt lat="43.15324" lon="3.08713">
        <ele>130.939</ele>
        <time>2021-09-25T09:57:15Z</time>
      </trkpt>
      <trkpt lat="43.15323" lon="3.08715">
        <ele>130.698</ele>
        <time>2021-09-25T09:57:17Z</time>
      </trkpt>
      <trkpt lat="43.15322" lon="3.08716">
        <ele>130.352</ele>
        <time>2021-09-25T09:57:19Z</time>
      </trkpt>
      <trkpt lat="43.15322" lon="3.08718">
        <ele>130.679</ele>
        <time>2021-09-25T09:57:21Z</time>
      </trkpt>
      <trkpt lat="43.15321" lon="3.08722">
        <ele>130.762</ele>
        <time>2021-09-25T09:57:23Z</time>
      </trkpt>
      <trkpt lat="43.15321" lon="3.08726">
        <ele>130.778</ele>
        <time>2021-09-25T09:57:25Z</time>
      </trkpt>
      <trkpt lat="43.1532" lon="3.08729">
        <ele>131.473</ele>
        <time>2021-09-25T09:57:27Z</time>
      </trkpt>
      <trkpt lat="43.15319" lon="3.08733">
        <ele>131.784</ele>
        <time>2021-09-25T09:57:29Z</time>
      </trkpt>
      <trkpt lat="43.15317" lon="3.08737">
        <ele>131.827</ele>
        <time>2021-09-25T09:57:31Z</time>
      </trkpt>
      <trkpt lat="43.15315" lon="3.08739">
        <ele>130.567</ele>
        <time>2021-09-25T09:57:33Z</time>
      </trkpt>
      <trkpt lat="43.15314" lon="3.08743">
        <ele>130.08</ele>
        <time>2021-09-25T09:57:35Z</time>
      </trkpt>
      <trkpt lat="43.15313" lon="3.08746">
        <ele>130.477</ele>
        <time>2021-09-25T09:57:37Z</time>
      </trkpt>
      <trkpt lat="43.15313" lon="3.0875">
        <ele>130.61</ele>
        <time>2021-09-25T09:57:39Z</time>
      </trkpt>
      <trkpt lat="43.15312" lon="3.08753">
        <ele>130.828</ele>
        <time>2021-09-25T09:57:41Z</time>
      </trkpt>
      <trkpt lat="43.15312" lon="3.08756">
        <ele>131.045</ele>
        <time>2021-09-25T09:57:43Z</time>
      </trkpt>
      <trkpt lat="43.15311" lon="3.08759">
        <ele>131.338</ele>
        <time>2021-09-25T09:57:45Z</time>
      </trkpt>
      <trkpt lat="43.15311" lon="3.08763">
        <ele>131.882</ele>
        <time>2021-09-25T09:57:47Z</time>
      </trkpt>
      <trkpt lat="43.1531" lon="3.08766">
        <ele>131.894</ele>
        <time>2021-09-25T09:57:49Z</time>
      </trkpt>
      <trkpt lat="43.1531" lon="3.08769">
        <ele>131.428</ele>
        <time>2021-09-25T09:57:51Z</time>
      </trkpt>
      <trkpt lat="43.15311" lon="3.08772">
        <ele>131.541</ele>
        <time>2021-09-25T09:57:53Z</time>
      </trkpt>
      <trkpt lat="43.15311" lon="3.08776">
        <ele>132.041</ele>
        <time>2021-09-25T09:57:55Z</time>
      </trkpt>
      <trkpt lat="43.1531" lon="3.0878">
        <ele>132.249</ele>
        <time>2021-09-25T09:57:57Z</time>
      </trkpt>
      <trkpt lat="43.15309" lon="3.08783">
        <ele>131.964</ele>
        <time>2021-09-25T09:57:59Z</time>
      </trkpt>
      <trkpt lat="43.15309" lon="3.08786">
        <ele>132.688</ele>
        <time>2021-09-25T09:58:01Z</time>
      </trkpt>
      <trkpt lat="43.15309" lon="3.08789">
        <ele>133.565</ele>
        <time>2021-09-25T09:58:03Z</time>
      </trkpt>
      <trkpt lat="43.15308" lon="3.08792">
        <ele>134.241</ele>
        <time>2021-09-25T09:58:05Z</time>
      </trkpt>
      <trkpt lat="43.15308" lon="3.08796">
        <ele>134.707</ele>
        <time>2021-09-25T09:58:07Z</time>
      </trkpt>
      <trkpt lat="43.15307" lon="3.08799">
        <ele>135.373</ele>
        <time>2021-09-25T09:58:09Z</time>
      </trkpt>
      <trkpt lat="43.15307" lon="3.08803">
        <ele>136.107</ele>
        <time>2021-09-25T09:58:11Z</time>
      </trkpt>
      <trkpt lat="43.15307" lon="3.08806">
        <ele>135.826</ele>
        <time>2021-09-25T09:58:13Z</time>
      </trkpt>
      <trkpt lat="43.15307" lon="3.08809">
        <ele>135.778</ele>
        <time>2021-09-25T09:58:15Z</time>
      </trkpt>
      <trkpt lat="43.15307" lon="3.08813">
        <ele>136.139</ele>
        <time>2021-09-25T09:58:17Z</time>
      </trkpt>
      <trkpt lat="43.15307" lon="3.08816">
        <ele>136.299</ele>
        <time>2021-09-25T09:58:19Z</time>
      </trkpt>
      <trkpt lat="43.15307" lon="3.08819">
        <ele>135.778</ele>
        <time>2021-09-25T09:58:21Z</time>
      </trkpt>
      <trkpt lat="43.15307" lon="3.08822">
        <ele>135.985</ele>
        <time>2021-09-25T09:58:23Z</time>
      </trkpt>
      <trkpt lat="43.15307" lon="3.08826">
        <ele>135.991</ele>
        <time>2021-09-25T09:58:25Z</time>
      </trkpt>
      <trkpt lat="43.15307" lon="3.08829">
        <ele>136.113</ele>
        <time>2021-09-25T09:58:27Z</time>
      </trkpt>
      <trkpt lat="43.15306" lon="3.08833">
        <ele>136.148</ele>
        <time>2021-09-25T09:58:29Z</time>
      </trkpt>
      <trkpt lat="43.15305" lon="3.08836">
        <ele>136.251</ele>
        <time>2021-09-25T09:58:31Z</time>
      </trkpt>
      <trkpt lat="43.15305" lon="3.08839">
        <ele>135.968</ele>
        <time>2021-09-25T09:58:33Z</time>
      </trkpt>
      <trkpt lat="43.15305" lon="3.08841">
        <ele>136.725</ele>
        <time>2021-09-25T09:58:35Z</time>
      </trkpt>
      <trkpt lat="43.15304" lon="3.08844">
        <ele>137.138</ele>
        <time>2021-09-25T09:58:37Z</time>
      </trkpt>
      <trkpt lat="43.15303" lon="3.08847">
        <ele>136.336</ele>
        <time>2021-09-25T09:58:39Z</time>
      </trkpt>
      <trkpt lat="43.15303" lon="3.0885">
        <ele>136.329</ele>
        <time>2021-09-25T09:58:41Z</time>
      </trkpt>
      <trkpt lat="43.15302" lon="3.08854">
        <ele>136.152</ele>
        <time>2021-09-25T09:58:43Z</time>
      </trkpt>
      <trkpt lat="43.15302" lon="3.08856">
        <ele>136.561</ele>
        <time>2021-09-25T09:58:45Z</time>
      </trkpt>
      <trkpt lat="43.15302" lon="3.08859">
        <ele>136.003</ele>
        <time>2021-09-25T09:58:47Z</time>
      </trkpt>
      <trkpt lat="43.15301" lon="3.08863">
        <ele>136.781</ele>
        <time>2021-09-25T09:58:49Z</time>
      </trkpt>
      <trkpt lat="43.15301" lon="3.08867">
        <ele>136.811</ele>
        <time>2021-09-25T09:58:51Z</time>
      </trkpt>
      <trkpt lat="43.15301" lon="3.0887">
        <ele>136.566</ele>
        <time>2021-09-25T09:58:53Z</time>
      </trkpt>
      <trkpt lat="43.15301" lon="3.08872">
        <ele>136.061</ele>
        <time>2021-09-25T09:58:55Z</time>
      </trkpt>
      <trkpt lat="43.15301" lon="3.08876">
        <ele>135.736</ele>
        <time>2021-09-25T09:58:57Z</time>
      </trkpt>
      <trkpt lat="43.153" lon="3.08879">
        <ele>134.714</ele>
        <time>2021-09-25T09:58:59Z</time>
      </trkpt>
      <trkpt lat="43.153" lon="3.08882">
        <ele>134.81</ele>
        <time>2021-09-25T09:59:01Z</time>
      </trkpt>
      <trkpt lat="43.15299" lon="3.08885">
        <ele>134.386</ele>
        <time>2021-09-25T09:59:03Z</time>
      </trkpt>
      <trkpt lat="43.15299" lon="3.08888">
        <ele>134.055</ele>
        <time>2021-09-25T09:59:05Z</time>
      </trkpt>
      <trkpt lat="43.15298" lon="3.08891">
        <ele>134.015</ele>
        <time>2021-09-25T09:59:07Z</time>
      </trkpt>
      <trkpt lat="43.15298" lon="3.08895">
        <ele>136.919</ele>
        <time>2021-09-25T09:59:09Z</time>
      </trkpt>
      <trkpt lat="43.15297" lon="3.08899">
        <ele>138.76</ele>
        <time>2021-09-25T09:59:11Z</time>
      </trkpt>
      <trkpt lat="43.15296" lon="3.08902">
        <ele>139.299</ele>
        <time>2021-09-25T09:59:13Z</time>
      </trkpt>
      <trkpt lat="43.15295" lon="3.08907">
        <ele>140.404</ele>
        <time>2021-09-25T09:59:15Z</time>
      </trkpt>
      <trkpt lat="43.15294" lon="3.0891">
        <ele>139.721</ele>
        <time>2021-09-25T09:59:17Z</time>
      </trkpt>
      <trkpt lat="43.15293" lon="3.08915">
        <ele>141.46</ele>
        <time>2021-09-25T09:59:19Z</time>
      </trkpt>
      <trkpt lat="43.15292" lon="3.08917">
        <ele>140.508</ele>
        <time>2021-09-25T09:59:21Z</time>
      </trkpt>
      <trkpt lat="43.15291" lon="3.0892">
        <ele>142.806</ele>
        <time>2021-09-25T09:59:23Z</time>
      </trkpt>
      <trkpt lat="43.1529" lon="3.08922">
        <ele>142.195</ele>
        <time>2021-09-25T09:59:25Z</time>
      </trkpt>
      <trkpt lat="43.15289" lon="3.08925">
        <ele>142.904</ele>
        <time>2021-09-25T09:59:27Z</time>
      </trkpt>
      <trkpt lat="43.15288" lon="3.08929">
        <ele>143.713</ele>
        <time>2021-09-25T09:59:29Z</time>
      </trkpt>
      <trkpt lat="43.15288" lon="3.08933">
        <ele>143.551</ele>
        <time>2021-09-25T09:59:31Z</time>
      </trkpt>
      <trkpt lat="43.15288" lon="3.08936">
        <ele>143.672</ele>
        <time>2021-09-25T09:59:33Z</time>
      </trkpt>
      <trkpt lat="43.15287" lon="3.0894">
        <ele>143.312</ele>
        <time>2021-09-25T09:59:35Z</time>
      </trkpt>
      <trkpt lat="43.15286" lon="3.08942">
        <ele>143.131</ele>
        <time>2021-09-25T09:59:37Z</time>
      </trkpt>
      <trkpt lat="43.15284" lon="3.08945">
        <ele>142.785</ele>
        <time>2021-09-25T09:59:39Z</time>
      </trkpt>
      <trkpt lat="43.15283" lon="3.08949">
        <ele>142.989</ele>
        <time>2021-09-25T09:59:41Z</time>
      </trkpt>
      <trkpt lat="43.15282" lon="3.08953">
        <ele>144.305</ele>
        <time>2021-09-25T09:59:43Z</time>
      </trkpt>
      <trkpt lat="43.15281" lon="3.08956">
        <ele>144.522</ele>
        <time>2021-09-25T09:59:45Z</time>
      </trkpt>
      <trkpt lat="43.1528" lon="3.0896">
        <ele>143.424</ele>
        <time>2021-09-25T09:59:47Z</time>
      </trkpt>
      <trkpt lat="43.15279" lon="3.08963">
        <ele>143.64</ele>
        <time>2021-09-25T09:59:49Z</time>
      </trkpt>
      <trkpt lat="43.15277" lon="3.08966">
        <ele>143.868</ele>
        <time>2021-09-25T09:59:51Z</time>
      </trkpt>
      <trkpt lat="43.15276" lon="3.08969">
        <ele>143.404</ele>
        <time>2021-09-25T09:59:53Z</time>
      </trkpt>
      <trkpt lat="43.15275" lon="3.08972">
        <ele>144.414</ele>
        <time>2021-09-25T09:59:55Z</time>
      </trkpt>
      <trkpt lat="43.15274" lon="3.08975">
        <ele>144.537</ele>
        <time>2021-09-25T09:59:57Z</time>
      </trkpt>
      <trkpt lat="43.15272" lon="3.08978">
        <ele>144.776</ele>
        <time>2021-09-25T09:59:59Z</time>
      </trkpt>
      <trkpt lat="43.15271" lon="3.08982">
        <ele>144.857</ele>
        <time>2021-09-25T10:00:01Z</time>
      </trkpt>
      <trkpt lat="43.1527" lon="3.08984">
        <ele>144.114</ele>
        <time>2021-09-25T10:00:03Z</time>
      </trkpt>
      <trkpt lat="43.1527" lon="3.08987">
        <ele>143.497</ele>
        <time>2021-09-25T10:00:05Z</time>
      </trkpt>
      <trkpt lat="43.15268" lon="3.0899">
        <ele>142.909</ele>
        <time>2021-09-25T10:00:07Z</time>
      </trkpt>
      <trkpt lat="43.15267" lon="3.08994">
        <ele>143.062</ele>
        <time>2021-09-25T10:00:09Z</time>
      </trkpt>
      <trkpt lat="43.15266" lon="3.08996">
        <ele>141.221</ele>
        <time>2021-09-25T10:00:11Z</time>
      </trkpt>
      <trkpt lat="43.15265" lon="3.08999">
        <ele>141.154</ele>
        <time>2021-09-25T10:00:13Z</time>
      </trkpt>
      <trkpt lat="43.15264" lon="3.09003">
        <ele>140.824</ele>
        <time>2021-09-25T10:00:15Z</time>
      </trkpt>
      <trkpt lat="43.15263" lon="3.09005">
        <ele>140.045</ele>
        <time>2021-09-25T10:00:17Z</time>
      </trkpt>
      <trkpt lat="43.15262" lon="3.09008">
        <ele>141.857</ele>
        <time>2021-09-25T10:00:19Z</time>
      </trkpt>
      <trkpt lat="43.15261" lon="3.09011">
        <ele>142.503</ele>
        <time>2021-09-25T10:00:21Z</time>
      </trkpt>
      <trkpt lat="43.15261" lon="3.09014">
        <ele>141.014</ele>
        <time>2021-09-25T10:00:23Z</time>
      </trkpt>
      <trkpt lat="43.1526" lon="3.09017">
        <ele>140.632</ele>
        <time>2021-09-25T10:00:25Z</time>
      </trkpt>
      <trkpt lat="43.1526" lon="3.09021">
        <ele>140.55</ele>
        <time>2021-09-25T10:00:27Z</time>
      </trkpt>
      <trkpt lat="43.15259" lon="3.09025">
        <ele>140.69</ele>
        <time>2021-09-25T10:00:29Z</time>
      </trkpt>
      <trkpt lat="43.15258" lon="3.09028">
        <ele>142.505</ele>
        <time>2021-09-25T10:00:31Z</time>
      </trkpt>
      <trkpt lat="43.15257" lon="3.09032">
        <ele>144.899</ele>
        <time>2021-09-25T10:00:33Z</time>
      </trkpt>
      <trkpt lat="43.15256" lon="3.09037">
        <ele>144.789</ele>
        <time>2021-09-25T10:00:35Z</time>
      </trkpt>
      <trkpt lat="43.15255" lon="3.09041">
        <ele>146.106</ele>
        <time>2021-09-25T10:00:37Z</time>
      </trkpt>
      <trkpt lat="43.15254" lon="3.09045">
        <ele>145.559</ele>
        <time>2021-09-25T10:00:39Z</time>
      </trkpt>
      <trkpt lat="43.15254" lon="3.09048">
        <ele>144.629</ele>
        <time>2021-09-25T10:00:41Z</time>
      </trkpt>
      <trkpt lat="43.15255" lon="3.09052">
        <ele>145.378</ele>
        <time>2021-09-25T10:00:43Z</time>
      </trkpt>
      <trkpt lat="43.15257" lon="3.09055">
        <ele>144.837</ele>
        <time>2021-09-25T10:00:45Z</time>
      </trkpt>
      <trkpt lat="43.15259" lon="3.09058">
        <ele>144.293</ele>
        <time>2021-09-25T10:00:47Z</time>
      </trkpt>
      <trkpt lat="43.15261" lon="3.0906">
        <ele>143.383</ele>
        <time>2021-09-25T10:00:49Z</time>
      </trkpt>
      <trkpt lat="43.15263" lon="3.09061">
        <ele>143.799</ele>
        <time>2021-09-25T10:00:51Z</time>
      </trkpt>
      <trkpt lat="43.15266" lon="3.09063">
        <ele>144.031</ele>
        <time>2021-09-25T10:00:53Z</time>
      </trkpt>
      <trkpt lat="43.15268" lon="3.09064">
        <ele>144.482</ele>
        <time>2021-09-25T10:00:55Z</time>
      </trkpt>
      <trkpt lat="43.1527" lon="3.09066">
        <ele>144.784</ele>
        <time>2021-09-25T10:00:57Z</time>
      </trkpt>
      <trkpt lat="43.15271" lon="3.09069">
        <ele>145.119</ele>
        <time>2021-09-25T10:00:59Z</time>
      </trkpt>
      <trkpt lat="43.15271" lon="3.09073">
        <ele>145.082</ele>
        <time>2021-09-25T10:01:01Z</time>
      </trkpt>
      <trkpt lat="43.15271" lon="3.09076">
        <ele>145.758</ele>
        <time>2021-09-25T10:01:03Z</time>
      </trkpt>
      <trkpt lat="43.1527" lon="3.0908">
        <ele>145.76</ele>
        <time>2021-09-25T10:01:05Z</time>
      </trkpt>
      <trkpt lat="43.1527" lon="3.09082">
        <ele>146.145</ele>
        <time>2021-09-25T10:01:07Z</time>
      </trkpt>
      <trkpt lat="43.15269" lon="3.09085">
        <ele>145.749</ele>
        <time>2021-09-25T10:01:09Z</time>
      </trkpt>
      <trkpt lat="43.15268" lon="3.09087">
        <ele>145.965</ele>
        <time>2021-09-25T10:01:11Z</time>
      </trkpt>
      <trkpt lat="43.15267" lon="3.09091">
        <ele>146.01</ele>
        <time>2021-09-25T10:01:13Z</time>
      </trkpt>
      <trkpt lat="43.15266" lon="3.09094">
        <ele>146.388</ele>
        <time>2021-09-25T10:01:15Z</time>
      </trkpt>
      <trkpt lat="43.15265" lon="3.09097">
        <ele>146.393</ele>
        <time>2021-09-25T10:01:17Z</time>
      </trkpt>
      <trkpt lat="43.15264" lon="3.091">
        <ele>145.83</ele>
        <time>2021-09-25T10:01:19Z</time>
      </trkpt>
      <trkpt lat="43.15262" lon="3.09102">
        <ele>146.001</ele>
        <time>2021-09-25T10:01:21Z</time>
      </trkpt>
      <trkpt lat="43.15261" lon="3.09105">
        <ele>146.777</ele>
        <time>2021-09-25T10:01:23Z</time>
      </trkpt>
      <trkpt lat="43.15261" lon="3.09109">
        <ele>147.786</ele>
        <time>2021-09-25T10:01:25Z</time>
      </trkpt>
      <trkpt lat="43.1526" lon="3.09113">
        <ele>148.031</ele>
        <time>2021-09-25T10:01:27Z</time>
      </trkpt>
      <trkpt lat="43.15261" lon="3.09116">
        <ele>148.046</ele>
        <time>2021-09-25T10:01:29Z</time>
      </trkpt>
      <trkpt lat="43.15261" lon="3.09118">
        <ele>147.328</ele>
        <time>2021-09-25T10:01:31Z</time>
      </trkpt>
      <trkpt lat="43.15261" lon="3.09121">
        <ele>147.936</ele>
        <time>2021-09-25T10:01:33Z</time>
      </trkpt>
      <trkpt lat="43.15261" lon="3.09124">
        <ele>147.675</ele>
        <time>2021-09-25T10:01:35Z</time>
      </trkpt>
      <trkpt lat="43.1526" lon="3.09126">
        <ele>147.849</ele>
        <time>2021-09-25T10:01:37Z</time>
      </trkpt>
      <trkpt lat="43.1526" lon="3.0913">
        <ele>147.866</ele>
        <time>2021-09-25T10:01:39Z</time>
      </trkpt>
      <trkpt lat="43.1526" lon="3.09132">
        <ele>148.233</ele>
        <time>2021-09-25T10:01:41Z</time>
      </trkpt>
      <trkpt lat="43.1526" lon="3.09135">
        <ele>148.271</ele>
        <time>2021-09-25T10:01:43Z</time>
      </trkpt>
      <trkpt lat="43.15259" lon="3.09138">
        <ele>149.142</ele>
        <time>2021-09-25T10:01:45Z</time>
      </trkpt>
      <trkpt lat="43.15259" lon="3.09141">
        <ele>149.479</ele>
        <time>2021-09-25T10:01:47Z</time>
      </trkpt>
      <trkpt lat="43.15258" lon="3.09144">
        <ele>149.975</ele>
        <time>2021-09-25T10:01:49Z</time>
      </trkpt>
      <trkpt lat="43.15257" lon="3.09148">
        <ele>150.629</ele>
        <time>2021-09-25T10:01:51Z</time>
      </trkpt>
      <trkpt lat="43.15257" lon="3.09151">
        <ele>151.141</ele>
        <time>2021-09-25T10:01:53Z</time>
      </trkpt>
      <trkpt lat="43.15256" lon="3.09154">
        <ele>151.585</ele>
        <time>2021-09-25T10:01:55Z</time>
      </trkpt>
      <trkpt lat="43.15256" lon="3.09158">
        <ele>152.029</ele>
        <time>2021-09-25T10:01:57Z</time>
      </trkpt>
      <trkpt lat="43.15255" lon="3.09161">
        <ele>152.125</ele>
        <time>2021-09-25T10:01:59Z</time>
      </trkpt>
      <trkpt lat="43.15255" lon="3.09164">
        <ele>152.222</ele>
        <time>2021-09-25T10:02:01Z</time>
      </trkpt>
      <trkpt lat="43.15255" lon="3.09168">
        <ele>152.775</ele>
        <time>2021-09-25T10:02:03Z</time>
      </trkpt>
      <trkpt lat="43.15254" lon="3.09171">
        <ele>152.753</ele>
        <time>2021-09-25T10:02:05Z</time>
      </trkpt>
      <trkpt lat="43.15254" lon="3.09174">
        <ele>153.537</ele>
        <time>2021-09-25T10:02:07Z</time>
      </trkpt>
      <trkpt lat="43.15253" lon="3.09177">
        <ele>153.793</ele>
        <time>2021-09-25T10:02:09Z</time>
      </trkpt>
      <trkpt lat="43.15252" lon="3.0918">
        <ele>153.952</ele>
        <time>2021-09-25T10:02:11Z</time>
      </trkpt>
      <trkpt lat="43.1525" lon="3.09183">
        <ele>153.845</ele>
        <time>2021-09-25T10:02:13Z</time>
      </trkpt>
      <trkpt lat="43.15249" lon="3.09187">
        <ele>154.096</ele>
        <time>2021-09-25T10:02:15Z</time>
      </trkpt>
      <trkpt lat="43.15249" lon="3.0919">
        <ele>154.49</ele>
        <time>2021-09-25T10:02:17Z</time>
      </trkpt>
      <trkpt lat="43.15249" lon="3.09193">
        <ele>154.32</ele>
        <time>2021-09-25T10:02:19Z</time>
      </trkpt>
      <trkpt lat="43.15249" lon="3.09196">
        <ele>154.576</ele>
        <time>2021-09-25T10:02:21Z</time>
      </trkpt>
      <trkpt lat="43.15249" lon="3.092">
        <ele>155.202</ele>
        <time>2021-09-25T10:02:23Z</time>
      </trkpt>
      <trkpt lat="43.15248" lon="3.09202">
        <ele>155.144</ele>
        <time>2021-09-25T10:02:25Z</time>
      </trkpt>
      <trkpt lat="43.15248" lon="3.09205">
        <ele>155.026</ele>
        <time>2021-09-25T10:02:27Z</time>
      </trkpt>
      <trkpt lat="43.15247" lon="3.09208">
        <ele>154.897</ele>
        <time>2021-09-25T10:02:29Z</time>
      </trkpt>
      <trkpt lat="43.15247" lon="3.09211">
        <ele>154.189</ele>
        <time>2021-09-25T10:02:31Z</time>
      </trkpt>
      <trkpt lat="43.15246" lon="3.09213">
        <ele>153.611</ele>
        <time>2021-09-25T10:02:33Z</time>
      </trkpt>
      <trkpt lat="43.15245" lon="3.09216">
        <ele>153.603</ele>
        <time>2021-09-25T10:02:35Z</time>
      </trkpt>
      <trkpt lat="43.15244" lon="3.09219">
        <ele>153.668</ele>
        <time>2021-09-25T10:02:37Z</time>
      </trkpt>
      <trkpt lat="43.15244" lon="3.09221">
        <ele>154.066</ele>
        <time>2021-09-25T10:02:39Z</time>
      </trkpt>
      <trkpt lat="43.15243" lon="3.09224">
        <ele>153.82</ele>
        <time>2021-09-25T10:02:41Z</time>
      </trkpt>
      <trkpt lat="43.15242" lon="3.09228">
        <ele>153.519</ele>
        <time>2021-09-25T10:02:43Z</time>
      </trkpt>
      <trkpt lat="43.15242" lon="3.0923">
        <ele>153.569</ele>
        <time>2021-09-25T10:02:45Z</time>
      </trkpt>
      <trkpt lat="43.15241" lon="3.09233">
        <ele>153.677</ele>
        <time>2021-09-25T10:02:47Z</time>
      </trkpt>
      <trkpt lat="43.1524" lon="3.09235">
        <ele>153.796</ele>
        <time>2021-09-25T10:02:49Z</time>
      </trkpt>
      <trkpt lat="43.1524" lon="3.09238">
        <ele>153.744</ele>
        <time>2021-09-25T10:02:51Z</time>
      </trkpt>
      <trkpt lat="43.1524" lon="3.09241">
        <ele>152.439</ele>
        <time>2021-09-25T10:02:53Z</time>
      </trkpt>
      <trkpt lat="43.15239" lon="3.09244">
        <ele>152.871</ele>
        <time>2021-09-25T10:02:55Z</time>
      </trkpt>
      <trkpt lat="43.15239" lon="3.09248">
        <ele>150.941</ele>
        <time>2021-09-25T10:02:57Z</time>
      </trkpt>
      <trkpt lat="43.15238" lon="3.09252">
        <ele>150.487</ele>
        <time>2021-09-25T10:02:59Z</time>
      </trkpt>
      <trkpt lat="43.15238" lon="3.09255">
        <ele>149.771</ele>
        <time>2021-09-25T10:03:01Z</time>
      </trkpt>
      <trkpt lat="43.15238" lon="3.09259">
        <ele>151.731</ele>
        <time>2021-09-25T10:03:03Z</time>
      </trkpt>
      <trkpt lat="43.15238" lon="3.09264">
        <ele>152.041</ele>
        <time>2021-09-25T10:03:05Z</time>
      </trkpt>
      <trkpt lat="43.15238" lon="3.09266">
        <ele>152.171</ele>
        <time>2021-09-25T10:03:07Z</time>
      </trkpt>
      <trkpt lat="43.15238" lon="3.09267">
        <ele>152.143</ele>
        <time>2021-09-25T10:03:09Z</time>
      </trkpt>
      <trkpt lat="43.15238" lon="3.09267">
        <ele>151.543</ele>
        <time>2021-09-25T10:03:11Z</time>
      </trkpt>
      <trkpt lat="43.15238" lon="3.09268">
        <ele>152.032</ele>
        <time>2021-09-25T10:03:13Z</time>
      </trkpt>
      <trkpt lat="43.15239" lon="3.09269">
        <ele>152.25</ele>
        <time>2021-09-25T10:03:15Z</time>
      </trkpt>
      <trkpt lat="43.15239" lon="3.0927">
        <ele>151.506</ele>
        <time>2021-09-25T10:03:17Z</time>
      </trkpt>
      <trkpt lat="43.15241" lon="3.09271">
        <ele>151.727</ele>
        <time>2021-09-25T10:03:19Z</time>
      </trkpt>
      <trkpt lat="43.15244" lon="3.09273">
        <ele>151.486</ele>
        <time>2021-09-25T10:03:21Z</time>
      </trkpt>
      <trkpt lat="43.15246" lon="3.09274">
        <ele>151.395</ele>
        <time>2021-09-25T10:03:23Z</time>
      </trkpt>
      <trkpt lat="43.15248" lon="3.09276">
        <ele>151.767</ele>
        <time>2021-09-25T10:03:25Z</time>
      </trkpt>
      <trkpt lat="43.1525" lon="3.09278">
        <ele>151.5</ele>
        <time>2021-09-25T10:03:27Z</time>
      </trkpt>
      <trkpt lat="43.15252" lon="3.0928">
        <ele>151.307</ele>
        <time>2021-09-25T10:03:29Z</time>
      </trkpt>
      <trkpt lat="43.15254" lon="3.09282">
        <ele>151.444</ele>
        <time>2021-09-25T10:03:31Z</time>
      </trkpt>
      <trkpt lat="43.15255" lon="3.09285">
        <ele>151.316</ele>
        <time>2021-09-25T10:03:33Z</time>
      </trkpt>
      <trkpt lat="43.15257" lon="3.09287">
        <ele>151.652</ele>
        <time>2021-09-25T10:03:35Z</time>
      </trkpt>
      <trkpt lat="43.15259" lon="3.0929">
        <ele>151.606</ele>
        <time>2021-09-25T10:03:37Z</time>
      </trkpt>
      <trkpt lat="43.15261" lon="3.09293">
        <ele>151.439</ele>
        <time>2021-09-25T10:03:39Z</time>
      </trkpt>
      <trkpt lat="43.15262" lon="3.09296">
        <ele>151.374</ele>
        <time>2021-09-25T10:03:41Z</time>
      </trkpt>
      <trkpt lat="43.15263" lon="3.09299">
        <ele>151.33</ele>
        <time>2021-09-25T10:03:43Z</time>
      </trkpt>
      <trkpt lat="43.15265" lon="3.09303">
        <ele>150.858</ele>
        <time>2021-09-25T10:03:45Z</time>
      </trkpt>
      <trkpt lat="43.15266" lon="3.09305">
        <ele>150.719</ele>
        <time>2021-09-25T10:03:47Z</time>
      </trkpt>
      <trkpt lat="43.15268" lon="3.09308">
        <ele>151.019</ele>
        <time>2021-09-25T10:03:49Z</time>
      </trkpt>
      <trkpt lat="43.1527" lon="3.0931">
        <ele>150.854</ele>
        <time>2021-09-25T10:03:51Z</time>
      </trkpt>
      <trkpt lat="43.15272" lon="3.09312">
        <ele>150.658</ele>
        <time>2021-09-25T10:03:53Z</time>
      </trkpt>
      <trkpt lat="43.15273" lon="3.09315">
        <ele>150.66</ele>
        <time>2021-09-25T10:03:55Z</time>
      </trkpt>
      <trkpt lat="43.15276" lon="3.09317">
        <ele>150.703</ele>
        <time>2021-09-25T10:03:57Z</time>
      </trkpt>
      <trkpt lat="43.15278" lon="3.0932">
        <ele>150.738</ele>
        <time>2021-09-25T10:03:59Z</time>
      </trkpt>
      <trkpt lat="43.15279" lon="3.09322">
        <ele>150.745</ele>
        <time>2021-09-25T10:04:01Z</time>
      </trkpt>
      <trkpt lat="43.15281" lon="3.09325">
        <ele>150.884</ele>
        <time>2021-09-25T10:04:03Z</time>
      </trkpt>
      <trkpt lat="43.15283" lon="3.09327">
        <ele>151.249</ele>
        <time>2021-09-25T10:04:05Z</time>
      </trkpt>
      <trkpt lat="43.15285" lon="3.0933">
        <ele>150.796</ele>
        <time>2021-09-25T10:04:07Z</time>
      </trkpt>
      <trkpt lat="43.15287" lon="3.09332">
        <ele>150.997</ele>
        <time>2021-09-25T10:04:09Z</time>
      </trkpt>
      <trkpt lat="43.15288" lon="3.09335">
        <ele>151.109</ele>
        <time>2021-09-25T10:04:11Z</time>
      </trkpt>
      <trkpt lat="43.1529" lon="3.09338">
        <ele>150.9</ele>
        <time>2021-09-25T10:04:13Z</time>
      </trkpt>
      <trkpt lat="43.15291" lon="3.0934">
        <ele>150.757</ele>
        <time>2021-09-25T10:04:15Z</time>
      </trkpt>
      <trkpt lat="43.15292" lon="3.09343">
        <ele>150.473</ele>
        <time>2021-09-25T10:04:17Z</time>
      </trkpt>
      <trkpt lat="43.15294" lon="3.09346">
        <ele>150.612</ele>
        <time>2021-09-25T10:04:19Z</time>
      </trkpt>
      <trkpt lat="43.15296" lon="3.09348">
        <ele>150.649</ele>
        <time>2021-09-25T10:04:21Z</time>
      </trkpt>
      <trkpt lat="43.15297" lon="3.09351">
        <ele>150.469</ele>
        <time>2021-09-25T10:04:23Z</time>
      </trkpt>
      <trkpt lat="43.15299" lon="3.09354">
        <ele>150.86</ele>
        <time>2021-09-25T10:04:25Z</time>
      </trkpt>
      <trkpt lat="43.15301" lon="3.09357">
        <ele>150.45</ele>
        <time>2021-09-25T10:04:27Z</time>
      </trkpt>
      <trkpt lat="43.15302" lon="3.0936">
        <ele>150.086</ele>
        <time>2021-09-25T10:04:29Z</time>
      </trkpt>
      <trkpt lat="43.15304" lon="3.09362">
        <ele>149.688</ele>
        <time>2021-09-25T10:04:31Z</time>
      </trkpt>
      <trkpt lat="43.15306" lon="3.09365">
        <ele>149.778</ele>
        <time>2021-09-25T10:04:33Z</time>
      </trkpt>
      <trkpt lat="43.15308" lon="3.09368">
        <ele>149.925</ele>
        <time>2021-09-25T10:04:35Z</time>
      </trkpt>
      <trkpt lat="43.1531" lon="3.09371">
        <ele>149.948</ele>
        <time>2021-09-25T10:04:37Z</time>
      </trkpt>
      <trkpt lat="43.15312" lon="3.09374">
        <ele>149.755</ele>
        <time>2021-09-25T10:04:39Z</time>
      </trkpt>
      <trkpt lat="43.15313" lon="3.09377">
        <ele>149.951</ele>
        <time>2021-09-25T10:04:41Z</time>
      </trkpt>
      <trkpt lat="43.15315" lon="3.09379">
        <ele>149.621</ele>
        <time>2021-09-25T10:04:43Z</time>
      </trkpt>
      <trkpt lat="43.15316" lon="3.09382">
        <ele>149.949</ele>
        <time>2021-09-25T10:04:45Z</time>
      </trkpt>
      <trkpt lat="43.15318" lon="3.09386">
        <ele>150.473</ele>
        <time>2021-09-25T10:04:47Z</time>
      </trkpt>
      <trkpt lat="43.1532" lon="3.09389">
        <ele>150.202</ele>
        <time>2021-09-25T10:04:49Z</time>
      </trkpt>
      <trkpt lat="43.15321" lon="3.09392">
        <ele>150.316</ele>
        <time>2021-09-25T10:04:51Z</time>
      </trkpt>
      <trkpt lat="43.15322" lon="3.09396">
        <ele>150.633</ele>
        <time>2021-09-25T10:04:53Z</time>
      </trkpt>
      <trkpt lat="43.15324" lon="3.09399">
        <ele>150.089</ele>
        <time>2021-09-25T10:04:55Z</time>
      </trkpt>
      <trkpt lat="43.15325" lon="3.09402">
        <ele>149.817</ele>
        <time>2021-09-25T10:04:57Z</time>
      </trkpt>
      <trkpt lat="43.15327" lon="3.09404">
        <ele>150.022</ele>
        <time>2021-09-25T10:04:59Z</time>
      </trkpt>
      <trkpt lat="43.15328" lon="3.09407">
        <ele>149.953</ele>
        <time>2021-09-25T10:05:01Z</time>
      </trkpt>
      <trkpt lat="43.1533" lon="3.0941">
        <ele>149.653</ele>
        <time>2021-09-25T10:05:03Z</time>
      </trkpt>
      <trkpt lat="43.15331" lon="3.09413">
        <ele>149.652</ele>
        <time>2021-09-25T10:05:05Z</time>
      </trkpt>
      <trkpt lat="43.15333" lon="3.09416">
        <ele>150.122</ele>
        <time>2021-09-25T10:05:07Z</time>
      </trkpt>
      <trkpt lat="43.15334" lon="3.09419">
        <ele>149.929</ele>
        <time>2021-09-25T10:05:09Z</time>
      </trkpt>
      <trkpt lat="43.15336" lon="3.09422">
        <ele>149.751</ele>
        <time>2021-09-25T10:05:11Z</time>
      </trkpt>
      <trkpt lat="43.15337" lon="3.09426">
        <ele>149.604</ele>
        <time>2021-09-25T10:05:13Z</time>
      </trkpt>
      <trkpt lat="43.15338" lon="3.09429">
        <ele>149.405</ele>
        <time>2021-09-25T10:05:15Z</time>
      </trkpt>
      <trkpt lat="43.1534" lon="3.09433">
        <ele>149.441</ele>
        <time>2021-09-25T10:05:17Z</time>
      </trkpt>
      <trkpt lat="43.15341" lon="3.09437">
        <ele>148.925</ele>
        <time>2021-09-25T10:05:19Z</time>
      </trkpt>
      <trkpt lat="43.15341" lon="3.09441">
        <ele>148.208</ele>
        <time>2021-09-25T10:05:21Z</time>
      </trkpt>
      <trkpt lat="43.15342" lon="3.09445">
        <ele>148.006</ele>
        <time>2021-09-25T10:05:23Z</time>
      </trkpt>
      <trkpt lat="43.15343" lon="3.09449">
        <ele>147.989</ele>
        <time>2021-09-25T10:05:25Z</time>
      </trkpt>
      <trkpt lat="43.15344" lon="3.09453">
        <ele>148.041</ele>
        <time>2021-09-25T10:05:27Z</time>
      </trkpt>
      <trkpt lat="43.15346" lon="3.09456">
        <ele>148.009</ele>
        <time>2021-09-25T10:05:29Z</time>
      </trkpt>
      <trkpt lat="43.15348" lon="3.0946">
        <ele>147.874</ele>
        <time>2021-09-25T10:05:31Z</time>
      </trkpt>
      <trkpt lat="43.1535" lon="3.09462">
        <ele>147.526</ele>
        <time>2021-09-25T10:05:33Z</time>
      </trkpt>
      <trkpt lat="43.15352" lon="3.09464">
        <ele>147.369</ele>
        <time>2021-09-25T10:05:35Z</time>
      </trkpt>
      <trkpt lat="43.15354" lon="3.09467">
        <ele>147.186</ele>
        <time>2021-09-25T10:05:37Z</time>
      </trkpt>
      <trkpt lat="43.15356" lon="3.0947">
        <ele>146.501</ele>
        <time>2021-09-25T10:05:39Z</time>
      </trkpt>
      <trkpt lat="43.15358" lon="3.09472">
        <ele>145.452</ele>
        <time>2021-09-25T10:05:41Z</time>
      </trkpt>
      <trkpt lat="43.1536" lon="3.09474">
        <ele>145.321</ele>
        <time>2021-09-25T10:05:43Z</time>
      </trkpt>
      <trkpt lat="43.15362" lon="3.09477">
        <ele>145.382</ele>
        <time>2021-09-25T10:05:45Z</time>
      </trkpt>
      <trkpt lat="43.15363" lon="3.0948">
        <ele>145.295</ele>
        <time>2021-09-25T10:05:47Z</time>
      </trkpt>
      <trkpt lat="43.15365" lon="3.09483">
        <ele>145.025</ele>
        <time>2021-09-25T10:05:49Z</time>
      </trkpt>
      <trkpt lat="43.15367" lon="3.09486">
        <ele>145.342</ele>
        <time>2021-09-25T10:05:51Z</time>
      </trkpt>
      <trkpt lat="43.15369" lon="3.09488">
        <ele>145.379</ele>
        <time>2021-09-25T10:05:53Z</time>
      </trkpt>
      <trkpt lat="43.15371" lon="3.0949">
        <ele>144.952</ele>
        <time>2021-09-25T10:05:55Z</time>
      </trkpt>
      <trkpt lat="43.15373" lon="3.09493">
        <ele>143.995</ele>
        <time>2021-09-25T10:05:57Z</time>
      </trkpt>
      <trkpt lat="43.15374" lon="3.09496">
        <ele>143.957</ele>
        <time>2021-09-25T10:05:59Z</time>
      </trkpt>
      <trkpt lat="43.15376" lon="3.09498">
        <ele>143.974</ele>
        <time>2021-09-25T10:06:01Z</time>
      </trkpt>
      <trkpt lat="43.15378" lon="3.09501">
        <ele>144.249</ele>
        <time>2021-09-25T10:06:03Z</time>
      </trkpt>
      <trkpt lat="43.15379" lon="3.09504">
        <ele>144.613</ele>
        <time>2021-09-25T10:06:05Z</time>
      </trkpt>
      <trkpt lat="43.1538" lon="3.09507">
        <ele>144.524</ele>
        <time>2021-09-25T10:06:07Z</time>
      </trkpt>
      <trkpt lat="43.15382" lon="3.0951">
        <ele>144.564</ele>
        <time>2021-09-25T10:06:09Z</time>
      </trkpt>
      <trkpt lat="43.15383" lon="3.09514">
        <ele>144.643</ele>
        <time>2021-09-25T10:06:11Z</time>
      </trkpt>
      <trkpt lat="43.15385" lon="3.09517">
        <ele>145.196</ele>
        <time>2021-09-25T10:06:13Z</time>
      </trkpt>
      <trkpt lat="43.15386" lon="3.09519">
        <ele>144.37</ele>
        <time>2021-09-25T10:06:15Z</time>
      </trkpt>
      <trkpt lat="43.15388" lon="3.09522">
        <ele>144.365</ele>
        <time>2021-09-25T10:06:17Z</time>
      </trkpt>
      <trkpt lat="43.1539" lon="3.09525">
        <ele>144.623</ele>
        <time>2021-09-25T10:06:19Z</time>
      </trkpt>
      <trkpt lat="43.15392" lon="3.09528">
        <ele>145.407</ele>
        <time>2021-09-25T10:06:21Z</time>
      </trkpt>
      <trkpt lat="43.15394" lon="3.09531">
        <ele>145.397</ele>
        <time>2021-09-25T10:06:23Z</time>
      </trkpt>
      <trkpt lat="43.15396" lon="3.09533">
        <ele>145.606</ele>
        <time>2021-09-25T10:06:25Z</time>
      </trkpt>
      <trkpt lat="43.15397" lon="3.09536">
        <ele>145.444</ele>
        <time>2021-09-25T10:06:27Z</time>
      </trkpt>
      <trkpt lat="43.154" lon="3.09538">
        <ele>145.328</ele>
        <time>2021-09-25T10:06:29Z</time>
      </trkpt>
      <trkpt lat="43.15402" lon="3.09541">
        <ele>144.642</ele>
        <time>2021-09-25T10:06:31Z</time>
      </trkpt>
      <trkpt lat="43.15403" lon="3.09543">
        <ele>144.614</ele>
        <time>2021-09-25T10:06:33Z</time>
      </trkpt>
      <trkpt lat="43.15406" lon="3.09546">
        <ele>144.303</ele>
        <time>2021-09-25T10:06:35Z</time>
      </trkpt>
      <trkpt lat="43.15408" lon="3.09548">
        <ele>143.692</ele>
        <time>2021-09-25T10:06:37Z</time>
      </trkpt>
      <trkpt lat="43.1541" lon="3.0955">
        <ele>143.335</ele>
        <time>2021-09-25T10:06:39Z</time>
      </trkpt>
      <trkpt lat="43.15412" lon="3.09552">
        <ele>143.304</ele>
        <time>2021-09-25T10:06:41Z</time>
      </trkpt>
      <trkpt lat="43.15414" lon="3.09554">
        <ele>143.394</ele>
        <time>2021-09-25T10:06:43Z</time>
      </trkpt>
      <trkpt lat="43.15416" lon="3.09556">
        <ele>143.581</ele>
        <time>2021-09-25T10:06:45Z</time>
      </trkpt>
      <trkpt lat="43.15418" lon="3.09558">
        <ele>143.538</ele>
        <time>2021-09-25T10:06:47Z</time>
      </trkpt>
      <trkpt lat="43.15421" lon="3.09559">
        <ele>143.783</ele>
        <time>2021-09-25T10:06:49Z</time>
      </trkpt>
      <trkpt lat="43.15424" lon="3.09561">
        <ele>143.428</ele>
        <time>2021-09-25T10:06:51Z</time>
      </trkpt>
      <trkpt lat="43.15426" lon="3.09563">
        <ele>143.615</ele>
        <time>2021-09-25T10:06:53Z</time>
      </trkpt>
      <trkpt lat="43.15428" lon="3.09564">
        <ele>143.459</ele>
        <time>2021-09-25T10:06:55Z</time>
      </trkpt>
      <trkpt lat="43.1543" lon="3.09566">
        <ele>142.991</ele>
        <time>2021-09-25T10:06:57Z</time>
      </trkpt>
      <trkpt lat="43.15432" lon="3.09567">
        <ele>143.169</ele>
        <time>2021-09-25T10:06:59Z</time>
      </trkpt>
      <trkpt lat="43.15435" lon="3.09569">
        <ele>143.177</ele>
        <time>2021-09-25T10:07:01Z</time>
      </trkpt>
      <trkpt lat="43.15437" lon="3.0957">
        <ele>143.735</ele>
        <time>2021-09-25T10:07:03Z</time>
      </trkpt>
      <trkpt lat="43.1544" lon="3.09572">
        <ele>144.343</ele>
        <time>2021-09-25T10:07:05Z</time>
      </trkpt>
      <trkpt lat="43.15443" lon="3.09574">
        <ele>145.395</ele>
        <time>2021-09-25T10:07:07Z</time>
      </trkpt>
      <trkpt lat="43.15445" lon="3.09576">
        <ele>145.031</ele>
        <time>2021-09-25T10:07:09Z</time>
      </trkpt>
      <trkpt lat="43.15447" lon="3.09579">
        <ele>144.81</ele>
        <time>2021-09-25T10:07:11Z</time>
      </trkpt>
      <trkpt lat="43.15449" lon="3.09581">
        <ele>144.906</ele>
        <time>2021-09-25T10:07:13Z</time>
      </trkpt>
      <trkpt lat="43.15451" lon="3.09583">
        <ele>144.98</ele>
        <time>2021-09-25T10:07:15Z</time>
      </trkpt>
      <trkpt lat="43.15453" lon="3.09586">
        <ele>145.572</ele>
        <time>2021-09-25T10:07:17Z</time>
      </trkpt>
      <trkpt lat="43.15456" lon="3.09588">
        <ele>145.858</ele>
        <time>2021-09-25T10:07:19Z</time>
      </trkpt>
      <trkpt lat="43.15458" lon="3.09591">
        <ele>146.032</ele>
        <time>2021-09-25T10:07:21Z</time>
      </trkpt>
      <trkpt lat="43.1546" lon="3.09593">
        <ele>146.143</ele>
        <time>2021-09-25T10:07:23Z</time>
      </trkpt>
      <trkpt lat="43.15462" lon="3.09596">
        <ele>146.711</ele>
        <time>2021-09-25T10:07:25Z</time>
      </trkpt>
      <trkpt lat="43.15463" lon="3.09598">
        <ele>147.016</ele>
        <time>2021-09-25T10:07:27Z</time>
      </trkpt>
      <trkpt lat="43.15465" lon="3.096">
        <ele>147.115</ele>
        <time>2021-09-25T10:07:29Z</time>
      </trkpt>
      <trkpt lat="43.15466" lon="3.09603">
        <ele>147.394</ele>
        <time>2021-09-25T10:07:31Z</time>
      </trkpt>
      <trkpt lat="43.15468" lon="3.09604">
        <ele>147.916</ele>
        <time>2021-09-25T10:07:33Z</time>
      </trkpt>
      <trkpt lat="43.15469" lon="3.09606">
        <ele>148.375</ele>
        <time>2021-09-25T10:07:35Z</time>
      </trkpt>
      <trkpt lat="43.1547" lon="3.09608">
        <ele>148.314</ele>
        <time>2021-09-25T10:07:37Z</time>
      </trkpt>
      <trkpt lat="43.15473" lon="3.0961">
        <ele>148.392</ele>
        <time>2021-09-25T10:07:39Z</time>
      </trkpt>
      <trkpt lat="43.15475" lon="3.09611">
        <ele>148.905</ele>
        <time>2021-09-25T10:07:41Z</time>
      </trkpt>
      <trkpt lat="43.15477" lon="3.09613">
        <ele>149.414</ele>
        <time>2021-09-25T10:07:43Z</time>
      </trkpt>
      <trkpt lat="43.15478" lon="3.09614">
        <ele>149.817</ele>
        <time>2021-09-25T10:07:45Z</time>
      </trkpt>
      <trkpt lat="43.15479" lon="3.09617">
        <ele>150.344</ele>
        <time>2021-09-25T10:07:47Z</time>
      </trkpt>
      <trkpt lat="43.1548" lon="3.09619">
        <ele>150.137</ele>
        <time>2021-09-25T10:07:49Z</time>
      </trkpt>
      <trkpt lat="43.15482" lon="3.09621">
        <ele>149.904</ele>
        <time>2021-09-25T10:07:51Z</time>
      </trkpt>
      <trkpt lat="43.15483" lon="3.09623">
        <ele>150.362</ele>
        <time>2021-09-25T10:07:53Z</time>
      </trkpt>
      <trkpt lat="43.15484" lon="3.09625">
        <ele>149.568</ele>
        <time>2021-09-25T10:07:55Z</time>
      </trkpt>
      <trkpt lat="43.15485" lon="3.09628">
        <ele>149.562</ele>
        <time>2021-09-25T10:07:57Z</time>
      </trkpt>
      <trkpt lat="43.15487" lon="3.0963">
        <ele>149.303</ele>
        <time>2021-09-25T10:07:59Z</time>
      </trkpt>
      <trkpt lat="43.15488" lon="3.09632">
        <ele>149.58</ele>
        <time>2021-09-25T10:08:01Z</time>
      </trkpt>
      <trkpt lat="43.1549" lon="3.09634">
        <ele>149.42</ele>
        <time>2021-09-25T10:08:03Z</time>
      </trkpt>
      <trkpt lat="43.1549" lon="3.09636">
        <ele>149.886</ele>
        <time>2021-09-25T10:08:05Z</time>
      </trkpt>
      <trkpt lat="43.15491" lon="3.09639">
        <ele>150.189</ele>
        <time>2021-09-25T10:08:07Z</time>
      </trkpt>
      <trkpt lat="43.15491" lon="3.09642">
        <ele>150.192</ele>
        <time>2021-09-25T10:08:09Z</time>
      </trkpt>
      <trkpt lat="43.15491" lon="3.09645">
        <ele>150.721</ele>
        <time>2021-09-25T10:08:11Z</time>
      </trkpt>
      <trkpt lat="43.15492" lon="3.09648">
        <ele>150.749</ele>
        <time>2021-09-25T10:08:13Z</time>
      </trkpt>
      <trkpt lat="43.15494" lon="3.0965">
        <ele>150.925</ele>
        <time>2021-09-25T10:08:15Z</time>
      </trkpt>
      <trkpt lat="43.15496" lon="3.09651">
        <ele>151.409</ele>
        <time>2021-09-25T10:08:17Z</time>
      </trkpt>
      <trkpt lat="43.15498" lon="3.09652">
        <ele>151.842</ele>
        <time>2021-09-25T10:08:19Z</time>
      </trkpt>
      <trkpt lat="43.15501" lon="3.09654">
        <ele>151.973</ele>
        <time>2021-09-25T10:08:21Z</time>
      </trkpt>
      <trkpt lat="43.15503" lon="3.09656">
        <ele>151.744</ele>
        <time>2021-09-25T10:08:23Z</time>
      </trkpt>
      <trkpt lat="43.15504" lon="3.09658">
        <ele>152.78</ele>
        <time>2021-09-25T10:08:25Z</time>
      </trkpt>
      <trkpt lat="43.15506" lon="3.0966">
        <ele>153.033</ele>
        <time>2021-09-25T10:08:27Z</time>
      </trkpt>
      <trkpt lat="43.15508" lon="3.09663">
        <ele>153.318</ele>
        <time>2021-09-25T10:08:29Z</time>
      </trkpt>
      <trkpt lat="43.15509" lon="3.09666">
        <ele>153.244</ele>
        <time>2021-09-25T10:08:31Z</time>
      </trkpt>
      <trkpt lat="43.15511" lon="3.09668">
        <ele>153.35</ele>
        <time>2021-09-25T10:08:33Z</time>
      </trkpt>
      <trkpt lat="43.15512" lon="3.0967">
        <ele>153.446</ele>
        <time>2021-09-25T10:08:35Z</time>
      </trkpt>
      <trkpt lat="43.15514" lon="3.09672">
        <ele>153.442</ele>
        <time>2021-09-25T10:08:37Z</time>
      </trkpt>
      <trkpt lat="43.15515" lon="3.09675">
        <ele>153.233</ele>
        <time>2021-09-25T10:08:39Z</time>
      </trkpt>
      <trkpt lat="43.15516" lon="3.09678">
        <ele>152.981</ele>
        <time>2021-09-25T10:08:41Z</time>
      </trkpt>
      <trkpt lat="43.15517" lon="3.09681">
        <ele>153.038</ele>
        <time>2021-09-25T10:08:43Z</time>
      </trkpt>
      <trkpt lat="43.15519" lon="3.09683">
        <ele>153.746</ele>
        <time>2021-09-25T10:08:45Z</time>
      </trkpt>
      <trkpt lat="43.15521" lon="3.09685">
        <ele>153.609</ele>
        <time>2021-09-25T10:08:47Z</time>
      </trkpt>
      <trkpt lat="43.15522" lon="3.09687">
        <ele>153.11</ele>
        <time>2021-09-25T10:08:49Z</time>
      </trkpt>
      <trkpt lat="43.15524" lon="3.09688">
        <ele>152.976</ele>
        <time>2021-09-25T10:08:51Z</time>
      </trkpt>
      <trkpt lat="43.15527" lon="3.0969">
        <ele>152.808</ele>
        <time>2021-09-25T10:08:53Z</time>
      </trkpt>
      <trkpt lat="43.15528" lon="3.09693">
        <ele>153.436</ele>
        <time>2021-09-25T10:08:55Z</time>
      </trkpt>
      <trkpt lat="43.15529" lon="3.09695">
        <ele>153.318</ele>
        <time>2021-09-25T10:08:57Z</time>
      </trkpt>
      <trkpt lat="43.15529" lon="3.09699">
        <ele>153.227</ele>
        <time>2021-09-25T10:08:59Z</time>
      </trkpt>
      <trkpt lat="43.1553" lon="3.09702">
        <ele>153.481</ele>
        <time>2021-09-25T10:09:01Z</time>
      </trkpt>
      <trkpt lat="43.15531" lon="3.09704">
        <ele>153.414</ele>
        <time>2021-09-25T10:09:03Z</time>
      </trkpt>
      <trkpt lat="43.15533" lon="3.09707">
        <ele>153.278</ele>
        <time>2021-09-25T10:09:05Z</time>
      </trkpt>
      <trkpt lat="43.15534" lon="3.09709">
        <ele>153.238</ele>
        <time>2021-09-25T10:09:07Z</time>
      </trkpt>
      <trkpt lat="43.15534" lon="3.09709">
        <ele>153.148</ele>
        <time>2021-09-25T10:09:09Z</time>
      </trkpt>
      <trkpt lat="43.15534" lon="3.09709">
        <ele>153.015</ele>
        <time>2021-09-25T10:09:11Z</time>
      </trkpt>
      <trkpt lat="43.15535" lon="3.09711">
        <ele>153.171</ele>
        <time>2021-09-25T10:09:13Z</time>
      </trkpt>
      <trkpt lat="43.15536" lon="3.09715">
        <ele>153.22</ele>
        <time>2021-09-25T10:09:15Z</time>
      </trkpt>
      <trkpt lat="43.15537" lon="3.09718">
        <ele>153.325</ele>
        <time>2021-09-25T10:09:17Z</time>
      </trkpt>
      <trkpt lat="43.15537" lon="3.09721">
        <ele>153.024</ele>
        <time>2021-09-25T10:09:19Z</time>
      </trkpt>
      <trkpt lat="43.15537" lon="3.09725">
        <ele>152.85</ele>
        <time>2021-09-25T10:09:21Z</time>
      </trkpt>
      <trkpt lat="43.15538" lon="3.09728">
        <ele>152.866</ele>
        <time>2021-09-25T10:09:23Z</time>
      </trkpt>
      <trkpt lat="43.15538" lon="3.09731">
        <ele>152.647</ele>
        <time>2021-09-25T10:09:25Z</time>
      </trkpt>
      <trkpt lat="43.15538" lon="3.09734">
        <ele>152.862</ele>
        <time>2021-09-25T10:09:27Z</time>
      </trkpt>
      <trkpt lat="43.15538" lon="3.09736">
        <ele>152.875</ele>
        <time>2021-09-25T10:09:29Z</time>
      </trkpt>
      <trkpt lat="43.15539" lon="3.09738">
        <ele>152.956</ele>
        <time>2021-09-25T10:09:31Z</time>
      </trkpt>
      <trkpt lat="43.15539" lon="3.09741">
        <ele>151.765</ele>
        <time>2021-09-25T10:09:33Z</time>
      </trkpt>
      <trkpt lat="43.1554" lon="3.09745">
        <ele>154.817</ele>
        <time>2021-09-25T10:09:35Z</time>
      </trkpt>
      <trkpt lat="43.15541" lon="3.09749">
        <ele>153.839</ele>
        <time>2021-09-25T10:09:37Z</time>
      </trkpt>
      <trkpt lat="43.15541" lon="3.09752">
        <ele>155.85</ele>
        <time>2021-09-25T10:09:39Z</time>
      </trkpt>
      <trkpt lat="43.15541" lon="3.09755">
        <ele>154.893</ele>
        <time>2021-09-25T10:09:41Z</time>
      </trkpt>
      <trkpt lat="43.15542" lon="3.09758">
        <ele>152.549</ele>
        <time>2021-09-25T10:09:43Z</time>
      </trkpt>
      <trkpt lat="43.15543" lon="3.09761">
        <ele>151.602</ele>
        <time>2021-09-25T10:09:45Z</time>
      </trkpt>
      <trkpt lat="43.15544" lon="3.09764">
        <ele>151.54</ele>
        <time>2021-09-25T10:09:47Z</time>
      </trkpt>
      <trkpt lat="43.15544" lon="3.09769">
        <ele>152.027</ele>
        <time>2021-09-25T10:09:49Z</time>
      </trkpt>
      <trkpt lat="43.15545" lon="3.09772">
        <ele>152.351</ele>
        <time>2021-09-25T10:09:51Z</time>
      </trkpt>
      <trkpt lat="43.15545" lon="3.09776">
        <ele>152.563</ele>
        <time>2021-09-25T10:09:53Z</time>
      </trkpt>
      <trkpt lat="43.15545" lon="3.0978">
        <ele>153.477</ele>
        <time>2021-09-25T10:09:55Z</time>
      </trkpt>
      <trkpt lat="43.15546" lon="3.09782">
        <ele>152.737</ele>
        <time>2021-09-25T10:09:57Z</time>
      </trkpt>
      <trkpt lat="43.15546" lon="3.09786">
        <ele>153.565</ele>
        <time>2021-09-25T10:09:59Z</time>
      </trkpt>
      <trkpt lat="43.15547" lon="3.0979">
        <ele>153.369</ele>
        <time>2021-09-25T10:10:01Z</time>
      </trkpt>
      <trkpt lat="43.15547" lon="3.09794">
        <ele>152.686</ele>
        <time>2021-09-25T10:10:03Z</time>
      </trkpt>
      <trkpt lat="43.15547" lon="3.09797">
        <ele>152.044</ele>
        <time>2021-09-25T10:10:05Z</time>
      </trkpt>
      <trkpt lat="43.15547" lon="3.098">
        <ele>151.568</ele>
        <time>2021-09-25T10:10:07Z</time>
      </trkpt>
      <trkpt lat="43.15547" lon="3.09802">
        <ele>152.671</ele>
        <time>2021-09-25T10:10:09Z</time>
      </trkpt>
      <trkpt lat="43.15547" lon="3.09805">
        <ele>153.029</ele>
        <time>2021-09-25T10:10:11Z</time>
      </trkpt>
      <trkpt lat="43.15547" lon="3.09808">
        <ele>152.413</ele>
        <time>2021-09-25T10:10:13Z</time>
      </trkpt>
      <trkpt lat="43.15547" lon="3.09812">
        <ele>152.468</ele>
        <time>2021-09-25T10:10:15Z</time>
      </trkpt>
      <trkpt lat="43.15547" lon="3.09817">
        <ele>153.589</ele>
        <time>2021-09-25T10:10:17Z</time>
      </trkpt>
      <trkpt lat="43.15547" lon="3.0982">
        <ele>152.806</ele>
        <time>2021-09-25T10:10:19Z</time>
      </trkpt>
      <trkpt lat="43.15547" lon="3.09823">
        <ele>152.802</ele>
        <time>2021-09-25T10:10:21Z</time>
      </trkpt>
      <trkpt lat="43.15547" lon="3.09826">
        <ele>153.715</ele>
        <time>2021-09-25T10:10:23Z</time>
      </trkpt>
      <trkpt lat="43.15546" lon="3.09829">
        <ele>155.871</ele>
        <time>2021-09-25T10:10:25Z</time>
      </trkpt>
      <trkpt lat="43.15545" lon="3.09833">
        <ele>155.464</ele>
        <time>2021-09-25T10:10:27Z</time>
      </trkpt>
      <trkpt lat="43.15545" lon="3.09836">
        <ele>154.096</ele>
        <time>2021-09-25T10:10:29Z</time>
      </trkpt>
      <trkpt lat="43.15546" lon="3.09839">
        <ele>152.513</ele>
        <time>2021-09-25T10:10:31Z</time>
      </trkpt>
      <trkpt lat="43.15547" lon="3.09842">
        <ele>152.962</ele>
        <time>2021-09-25T10:10:33Z</time>
      </trkpt>
      <trkpt lat="43.15548" lon="3.09845">
        <ele>151.916</ele>
        <time>2021-09-25T10:10:35Z</time>
      </trkpt>
      <trkpt lat="43.15549" lon="3.09848">
        <ele>152.176</ele>
        <time>2021-09-25T10:10:37Z</time>
      </trkpt>
      <trkpt lat="43.1555" lon="3.09851">
        <ele>153.605</ele>
        <time>2021-09-25T10:10:39Z</time>
      </trkpt>
      <trkpt lat="43.15551" lon="3.09855">
        <ele>153.423</ele>
        <time>2021-09-25T10:10:41Z</time>
      </trkpt>
      <trkpt lat="43.15551" lon="3.09858">
        <ele>153.481</ele>
        <time>2021-09-25T10:10:43Z</time>
      </trkpt>
      <trkpt lat="43.15551" lon="3.09862">
        <ele>153.365</ele>
        <time>2021-09-25T10:10:45Z</time>
      </trkpt>
      <trkpt lat="43.15551" lon="3.09866">
        <ele>153.887</ele>
        <time>2021-09-25T10:10:47Z</time>
      </trkpt>
      <trkpt lat="43.15552" lon="3.09869">
        <ele>155.234</ele>
        <time>2021-09-25T10:10:49Z</time>
      </trkpt>
      <trkpt lat="43.15553" lon="3.09872">
        <ele>154.83</ele>
        <time>2021-09-25T10:10:51Z</time>
      </trkpt>
      <trkpt lat="43.15553" lon="3.09875">
        <ele>156.342</ele>
        <time>2021-09-25T10:10:53Z</time>
      </trkpt>
      <trkpt lat="43.15552" lon="3.09879">
        <ele>157.256</ele>
        <time>2021-09-25T10:10:55Z</time>
      </trkpt>
      <trkpt lat="43.15552" lon="3.09882">
        <ele>155.017</ele>
        <time>2021-09-25T10:10:57Z</time>
      </trkpt>
      <trkpt lat="43.15553" lon="3.09885">
        <ele>155.268</ele>
        <time>2021-09-25T10:10:59Z</time>
      </trkpt>
      <trkpt lat="43.15554" lon="3.09887">
        <ele>154.218</ele>
        <time>2021-09-25T10:11:01Z</time>
      </trkpt>
      <trkpt lat="43.15556" lon="3.09889">
        <ele>154.246</ele>
        <time>2021-09-25T10:11:03Z</time>
      </trkpt>
      <trkpt lat="43.15557" lon="3.09892">
        <ele>153.895</ele>
        <time>2021-09-25T10:11:05Z</time>
      </trkpt>
      <trkpt lat="43.15557" lon="3.09895">
        <ele>152.933</ele>
        <time>2021-09-25T10:11:07Z</time>
      </trkpt>
      <trkpt lat="43.15558" lon="3.09899">
        <ele>151.519</ele>
        <time>2021-09-25T10:11:09Z</time>
      </trkpt>
      <trkpt lat="43.15558" lon="3.09903">
        <ele>151.611</ele>
        <time>2021-09-25T10:11:11Z</time>
      </trkpt>
      <trkpt lat="43.15558" lon="3.09907">
        <ele>151.793</ele>
        <time>2021-09-25T10:11:13Z</time>
      </trkpt>
      <trkpt lat="43.15558" lon="3.0991">
        <ele>152.937</ele>
        <time>2021-09-25T10:11:15Z</time>
      </trkpt>
      <trkpt lat="43.15559" lon="3.09915">
        <ele>154.088</ele>
        <time>2021-09-25T10:11:17Z</time>
      </trkpt>
      <trkpt lat="43.1556" lon="3.09919">
        <ele>153.536</ele>
        <time>2021-09-25T10:11:19Z</time>
      </trkpt>
      <trkpt lat="43.1556" lon="3.09922">
        <ele>153.107</ele>
        <time>2021-09-25T10:11:21Z</time>
      </trkpt>
      <trkpt lat="43.15559" lon="3.09926">
        <ele>152.876</ele>
        <time>2021-09-25T10:11:23Z</time>
      </trkpt>
      <trkpt lat="43.15558" lon="3.09929">
        <ele>153.272</ele>
        <time>2021-09-25T10:11:25Z</time>
      </trkpt>
      <trkpt lat="43.15558" lon="3.09932">
        <ele>152.77</ele>
        <time>2021-09-25T10:11:27Z</time>
      </trkpt>
      <trkpt lat="43.15557" lon="3.09935">
        <ele>153.199</ele>
        <time>2021-09-25T10:11:29Z</time>
      </trkpt>
      <trkpt lat="43.15555" lon="3.09937">
        <ele>152.462</ele>
        <time>2021-09-25T10:11:31Z</time>
      </trkpt>
      <trkpt lat="43.15553" lon="3.0994">
        <ele>153.071</ele>
        <time>2021-09-25T10:11:33Z</time>
      </trkpt>
      <trkpt lat="43.15552" lon="3.09942">
        <ele>152.64</ele>
        <time>2021-09-25T10:11:35Z</time>
      </trkpt>
      <trkpt lat="43.15552" lon="3.09946">
        <ele>151.786</ele>
        <time>2021-09-25T10:11:37Z</time>
      </trkpt>
      <trkpt lat="43.15551" lon="3.09949">
        <ele>151.477</ele>
        <time>2021-09-25T10:11:39Z</time>
      </trkpt>
      <trkpt lat="43.1555" lon="3.09952">
        <ele>151.735</ele>
        <time>2021-09-25T10:11:41Z</time>
      </trkpt>
      <trkpt lat="43.15549" lon="3.09955">
        <ele>152.83</ele>
        <time>2021-09-25T10:11:43Z</time>
      </trkpt>
      <trkpt lat="43.15548" lon="3.09958">
        <ele>153.723</ele>
        <time>2021-09-25T10:11:45Z</time>
      </trkpt>
      <trkpt lat="43.15547" lon="3.0996">
        <ele>153.34</ele>
        <time>2021-09-25T10:11:47Z</time>
      </trkpt>
      <trkpt lat="43.15547" lon="3.09963">
        <ele>153.625</ele>
        <time>2021-09-25T10:11:49Z</time>
      </trkpt>
      <trkpt lat="43.15547" lon="3.09965">
        <ele>153.278</ele>
        <time>2021-09-25T10:11:51Z</time>
      </trkpt>
      <trkpt lat="43.15546" lon="3.09969">
        <ele>154.925</ele>
        <time>2021-09-25T10:11:53Z</time>
      </trkpt>
      <trkpt lat="43.15546" lon="3.09971">
        <ele>153.881</ele>
        <time>2021-09-25T10:11:55Z</time>
      </trkpt>
      <trkpt lat="43.15546" lon="3.09974">
        <ele>154.175</ele>
        <time>2021-09-25T10:11:57Z</time>
      </trkpt>
      <trkpt lat="43.15545" lon="3.09976">
        <ele>154.395</ele>
        <time>2021-09-25T10:11:59Z</time>
      </trkpt>
      <trkpt lat="43.15544" lon="3.09979">
        <ele>154.788</ele>
        <time>2021-09-25T10:12:01Z</time>
      </trkpt>
      <trkpt lat="43.15544" lon="3.09982">
        <ele>154.281</ele>
        <time>2021-09-25T10:12:03Z</time>
      </trkpt>
      <trkpt lat="43.15544" lon="3.09986">
        <ele>153.298</ele>
        <time>2021-09-25T10:12:05Z</time>
      </trkpt>
      <trkpt lat="43.15544" lon="3.09991">
        <ele>151.833</ele>
        <time>2021-09-25T10:12:07Z</time>
      </trkpt>
      <trkpt lat="43.15543" lon="3.09996">
        <ele>151.103</ele>
        <time>2021-09-25T10:12:09Z</time>
      </trkpt>
      <trkpt lat="43.15543" lon="3.10002">
        <ele>150.525</ele>
        <time>2021-09-25T10:12:11Z</time>
      </trkpt>
      <trkpt lat="43.15542" lon="3.10006">
        <ele>150.867</ele>
        <time>2021-09-25T10:12:13Z</time>
      </trkpt>
      <trkpt lat="43.15542" lon="3.10011">
        <ele>151.209</ele>
        <time>2021-09-25T10:12:15Z</time>
      </trkpt>
      <trkpt lat="43.15541" lon="3.10015">
        <ele>151.069</ele>
        <time>2021-09-25T10:12:17Z</time>
      </trkpt>
      <trkpt lat="43.15542" lon="3.10019">
        <ele>153.407</ele>
        <time>2021-09-25T10:12:19Z</time>
      </trkpt>
      <trkpt lat="43.15542" lon="3.10024">
        <ele>153.165</ele>
        <time>2021-09-25T10:12:21Z</time>
      </trkpt>
      <trkpt lat="43.15542" lon="3.10028">
        <ele>154.125</ele>
        <time>2021-09-25T10:12:23Z</time>
      </trkpt>
      <trkpt lat="43.15542" lon="3.10031">
        <ele>153.283</ele>
        <time>2021-09-25T10:12:25Z</time>
      </trkpt>
      <trkpt lat="43.15544" lon="3.10034">
        <ele>153.789</ele>
        <time>2021-09-25T10:12:27Z</time>
      </trkpt>
      <trkpt lat="43.15544" lon="3.10036">
        <ele>154.544</ele>
        <time>2021-09-25T10:12:29Z</time>
      </trkpt>
      <trkpt lat="43.15544" lon="3.10039">
        <ele>154.229</ele>
        <time>2021-09-25T10:12:31Z</time>
      </trkpt>
      <trkpt lat="43.15544" lon="3.10043">
        <ele>154.858</ele>
        <time>2021-09-25T10:12:33Z</time>
      </trkpt>
      <trkpt lat="43.15544" lon="3.10045">
        <ele>154.979</ele>
        <time>2021-09-25T10:12:35Z</time>
      </trkpt>
      <trkpt lat="43.15544" lon="3.10048">
        <ele>154.242</ele>
        <time>2021-09-25T10:12:37Z</time>
      </trkpt>
      <trkpt lat="43.15544" lon="3.10051">
        <ele>155.949</ele>
        <time>2021-09-25T10:12:39Z</time>
      </trkpt>
      <trkpt lat="43.15544" lon="3.10054">
        <ele>155.573</ele>
        <time>2021-09-25T10:12:41Z</time>
      </trkpt>
      <trkpt lat="43.15545" lon="3.10057">
        <ele>154.644</ele>
        <time>2021-09-25T10:12:43Z</time>
      </trkpt>
      <trkpt lat="43.15545" lon="3.1006">
        <ele>153.704</ele>
        <time>2021-09-25T10:12:45Z</time>
      </trkpt>
      <trkpt lat="43.15544" lon="3.10063">
        <ele>153.15</ele>
        <time>2021-09-25T10:12:47Z</time>
      </trkpt>
      <trkpt lat="43.15544" lon="3.10066">
        <ele>154.06</ele>
        <time>2021-09-25T10:12:49Z</time>
      </trkpt>
      <trkpt lat="43.15545" lon="3.10069">
        <ele>152.747</ele>
        <time>2021-09-25T10:12:51Z</time>
      </trkpt>
      <trkpt lat="43.15545" lon="3.10071">
        <ele>151.808</ele>
        <time>2021-09-25T10:12:53Z</time>
      </trkpt>
      <trkpt lat="43.15545" lon="3.10074">
        <ele>151.387</ele>
        <time>2021-09-25T10:12:55Z</time>
      </trkpt>
      <trkpt lat="43.15545" lon="3.10077">
        <ele>151.636</ele>
        <time>2021-09-25T10:12:57Z</time>
      </trkpt>
      <trkpt lat="43.15545" lon="3.10081">
        <ele>151.879</ele>
        <time>2021-09-25T10:12:59Z</time>
      </trkpt>
      <trkpt lat="43.15544" lon="3.10084">
        <ele>151.636</ele>
        <time>2021-09-25T10:13:01Z</time>
      </trkpt>
      <trkpt lat="43.15544" lon="3.10088">
        <ele>151.487</ele>
        <time>2021-09-25T10:13:03Z</time>
      </trkpt>
      <trkpt lat="43.15544" lon="3.1009">
        <ele>151.956</ele>
        <time>2021-09-25T10:13:05Z</time>
      </trkpt>
      <trkpt lat="43.15543" lon="3.10093">
        <ele>151.344</ele>
        <time>2021-09-25T10:13:07Z</time>
      </trkpt>
      <trkpt lat="43.15542" lon="3.10095">
        <ele>151.007</ele>
        <time>2021-09-25T10:13:09Z</time>
      </trkpt>
      <trkpt lat="43.15542" lon="3.10099">
        <ele>151.064</ele>
        <time>2021-09-25T10:13:11Z</time>
      </trkpt>
      <trkpt lat="43.15542" lon="3.10103">
        <ele>151.536</ele>
        <time>2021-09-25T10:13:13Z</time>
      </trkpt>
      <trkpt lat="43.15543" lon="3.10107">
        <ele>151.547</ele>
        <time>2021-09-25T10:13:15Z</time>
      </trkpt>
      <trkpt lat="43.15543" lon="3.10111">
        <ele>151.604</ele>
        <time>2021-09-25T10:13:17Z</time>
      </trkpt>
      <trkpt lat="43.15544" lon="3.10115">
        <ele>152.818</ele>
        <time>2021-09-25T10:13:19Z</time>
      </trkpt>
      <trkpt lat="43.15544" lon="3.1012">
        <ele>152.997</ele>
        <time>2021-09-25T10:13:21Z</time>
      </trkpt>
      <trkpt lat="43.15544" lon="3.10122">
        <ele>149.906</ele>
        <time>2021-09-25T10:13:23Z</time>
      </trkpt>
      <trkpt lat="43.15544" lon="3.10124">
        <ele>152.243</ele>
        <time>2021-09-25T10:13:25Z</time>
      </trkpt>
      <trkpt lat="43.15545" lon="3.10126">
        <ele>152.304</ele>
        <time>2021-09-25T10:13:27Z</time>
      </trkpt>
      <trkpt lat="43.15545" lon="3.10126">
        <ele>152.306</ele>
        <time>2021-09-25T10:13:29Z</time>
      </trkpt>
      <trkpt lat="43.15545" lon="3.10126">
        <ele>152.313</ele>
        <time>2021-09-25T10:13:31Z</time>
      </trkpt>
      <trkpt lat="43.15545" lon="3.10128">
        <ele>152.461</ele>
        <time>2021-09-25T10:13:33Z</time>
      </trkpt>
      <trkpt lat="43.15545" lon="3.10132">
        <ele>153.426</ele>
        <time>2021-09-25T10:13:35Z</time>
      </trkpt>
      <trkpt lat="43.15546" lon="3.10136">
        <ele>153.633</ele>
        <time>2021-09-25T10:13:37Z</time>
      </trkpt>
      <trkpt lat="43.15546" lon="3.10139">
        <ele>152.832</ele>
        <time>2021-09-25T10:13:39Z</time>
      </trkpt>
      <trkpt lat="43.15546" lon="3.10143">
        <ele>153.161</ele>
        <time>2021-09-25T10:13:41Z</time>
      </trkpt>
      <trkpt lat="43.15547" lon="3.10147">
        <ele>152.765</ele>
        <time>2021-09-25T10:13:43Z</time>
      </trkpt>
      <trkpt lat="43.15547" lon="3.1015">
        <ele>151.474</ele>
        <time>2021-09-25T10:13:45Z</time>
      </trkpt>
      <trkpt lat="43.15546" lon="3.10153">
        <ele>151.428</ele>
        <time>2021-09-25T10:13:47Z</time>
      </trkpt>
      <trkpt lat="43.15546" lon="3.10156">
        <ele>150.863</ele>
        <time>2021-09-25T10:13:49Z</time>
      </trkpt>
      <trkpt lat="43.15546" lon="3.10159">
        <ele>150.83</ele>
        <time>2021-09-25T10:13:51Z</time>
      </trkpt>
      <trkpt lat="43.15546" lon="3.10163">
        <ele>151.649</ele>
        <time>2021-09-25T10:13:53Z</time>
      </trkpt>
      <trkpt lat="43.15547" lon="3.10167">
        <ele>151.261</ele>
        <time>2021-09-25T10:13:55Z</time>
      </trkpt>
      <trkpt lat="43.15547" lon="3.1017">
        <ele>152.102</ele>
        <time>2021-09-25T10:13:57Z</time>
      </trkpt>
      <trkpt lat="43.15547" lon="3.10173">
        <ele>152.039</ele>
        <time>2021-09-25T10:13:59Z</time>
      </trkpt>
      <trkpt lat="43.15546" lon="3.10177">
        <ele>151.481</ele>
        <time>2021-09-25T10:14:01Z</time>
      </trkpt>
      <trkpt lat="43.15547" lon="3.10181">
        <ele>152.034</ele>
        <time>2021-09-25T10:14:03Z</time>
      </trkpt>
      <trkpt lat="43.15548" lon="3.10185">
        <ele>152.722</ele>
        <time>2021-09-25T10:14:05Z</time>
      </trkpt>
      <trkpt lat="43.15549" lon="3.10189">
        <ele>153.054</ele>
        <time>2021-09-25T10:14:07Z</time>
      </trkpt>
      <trkpt lat="43.15549" lon="3.10192">
        <ele>152.103</ele>
        <time>2021-09-25T10:14:09Z</time>
      </trkpt>
      <trkpt lat="43.1555" lon="3.10196">
        <ele>152.255</ele>
        <time>2021-09-25T10:14:11Z</time>
      </trkpt>
      <trkpt lat="43.1555" lon="3.10201">
        <ele>152.293</ele>
        <time>2021-09-25T10:14:13Z</time>
      </trkpt>
      <trkpt lat="43.15549" lon="3.10205">
        <ele>152.052</ele>
        <time>2021-09-25T10:14:15Z</time>
      </trkpt>
      <trkpt lat="43.15549" lon="3.10209">
        <ele>152.358</ele>
        <time>2021-09-25T10:14:17Z</time>
      </trkpt>
      <trkpt lat="43.15549" lon="3.10212">
        <ele>152.174</ele>
        <time>2021-09-25T10:14:19Z</time>
      </trkpt>
      <trkpt lat="43.1555" lon="3.10215">
        <ele>151.96</ele>
        <time>2021-09-25T10:14:21Z</time>
      </trkpt>
      <trkpt lat="43.1555" lon="3.10219">
        <ele>152.226</ele>
        <time>2021-09-25T10:14:23Z</time>
      </trkpt>
      <trkpt lat="43.1555" lon="3.10223">
        <ele>152.285</ele>
        <time>2021-09-25T10:14:25Z</time>
      </trkpt>
      <trkpt lat="43.15551" lon="3.10226">
        <ele>152.614</ele>
        <time>2021-09-25T10:14:27Z</time>
      </trkpt>
      <trkpt lat="43.15552" lon="3.1023">
        <ele>152.829</ele>
        <time>2021-09-25T10:14:29Z</time>
      </trkpt>
      <trkpt lat="43.15553" lon="3.10233">
        <ele>153.394</ele>
        <time>2021-09-25T10:14:31Z</time>
      </trkpt>
      <trkpt lat="43.15554" lon="3.10237">
        <ele>153.605</ele>
        <time>2021-09-25T10:14:33Z</time>
      </trkpt>
      <trkpt lat="43.15554" lon="3.1024">
        <ele>153.573</ele>
        <time>2021-09-25T10:14:35Z</time>
      </trkpt>
      <trkpt lat="43.15554" lon="3.10243">
        <ele>153.857</ele>
        <time>2021-09-25T10:14:37Z</time>
      </trkpt>
      <trkpt lat="43.15554" lon="3.10246">
        <ele>154.527</ele>
        <time>2021-09-25T10:14:39Z</time>
      </trkpt>
      <trkpt lat="43.15553" lon="3.10249">
        <ele>154.707</ele>
        <time>2021-09-25T10:14:41Z</time>
      </trkpt>
      <trkpt lat="43.15552" lon="3.10252">
        <ele>154.801</ele>
        <time>2021-09-25T10:14:43Z</time>
      </trkpt>
      <trkpt lat="43.15552" lon="3.10255">
        <ele>154.929</ele>
        <time>2021-09-25T10:14:45Z</time>
      </trkpt>
      <trkpt lat="43.15551" lon="3.10257">
        <ele>154.019</ele>
        <time>2021-09-25T10:14:47Z</time>
      </trkpt>
      <trkpt lat="43.15551" lon="3.10261">
        <ele>154.487</ele>
        <time>2021-09-25T10:14:49Z</time>
      </trkpt>
      <trkpt lat="43.15551" lon="3.10263">
        <ele>155.33</ele>
        <time>2021-09-25T10:14:51Z</time>
      </trkpt>
      <trkpt lat="43.1555" lon="3.10266">
        <ele>155.722</ele>
        <time>2021-09-25T10:14:53Z</time>
      </trkpt>
      <trkpt lat="43.15549" lon="3.10269">
        <ele>155.602</ele>
        <time>2021-09-25T10:14:55Z</time>
      </trkpt>
      <trkpt lat="43.15548" lon="3.10272">
        <ele>156.064</ele>
        <time>2021-09-25T10:14:57Z</time>
      </trkpt>
      <trkpt lat="43.15547" lon="3.10274">
        <ele>157.303</ele>
        <time>2021-09-25T10:14:59Z</time>
      </trkpt>
      <trkpt lat="43.15546" lon="3.10278">
        <ele>157.787</ele>
        <time>2021-09-25T10:15:01Z</time>
      </trkpt>
      <trkpt lat="43.15545" lon="3.10281">
        <ele>157.457</ele>
        <time>2021-09-25T10:15:03Z</time>
      </trkpt>
      <trkpt lat="43.15544" lon="3.10285">
        <ele>157.191</ele>
        <time>2021-09-25T10:15:05Z</time>
      </trkpt>
      <trkpt lat="43.15543" lon="3.10288">
        <ele>158.223</ele>
        <time>2021-09-25T10:15:07Z</time>
      </trkpt>
      <trkpt lat="43.15542" lon="3.10291">
        <ele>158.272</ele>
        <time>2021-09-25T10:15:09Z</time>
      </trkpt>
      <trkpt lat="43.15541" lon="3.10295">
        <ele>157.618</ele>
        <time>2021-09-25T10:15:11Z</time>
      </trkpt>
      <trkpt lat="43.15541" lon="3.10298">
        <ele>157.681</ele>
        <time>2021-09-25T10:15:13Z</time>
      </trkpt>
      <trkpt lat="43.15542" lon="3.10302">
        <ele>159.641</ele>
        <time>2021-09-25T10:15:15Z</time>
      </trkpt>
      <trkpt lat="43.15543" lon="3.10305">
        <ele>160.218</ele>
        <time>2021-09-25T10:15:17Z</time>
      </trkpt>
      <trkpt lat="43.15543" lon="3.10308">
        <ele>160.343</ele>
        <time>2021-09-25T10:15:19Z</time>
      </trkpt>
      <trkpt lat="43.15542" lon="3.10312">
        <ele>160.162</ele>
        <time>2021-09-25T10:15:21Z</time>
      </trkpt>
      <trkpt lat="43.15541" lon="3.10315">
        <ele>160.096</ele>
        <time>2021-09-25T10:15:23Z</time>
      </trkpt>
      <trkpt lat="43.1554" lon="3.10318">
        <ele>159.098</ele>
        <time>2021-09-25T10:15:25Z</time>
      </trkpt>
      <trkpt lat="43.15538" lon="3.1032">
        <ele>158.413</ele>
        <time>2021-09-25T10:15:27Z</time>
      </trkpt>
      <trkpt lat="43.15537" lon="3.10323">
        <ele>158.345</ele>
        <time>2021-09-25T10:15:29Z</time>
      </trkpt>
      <trkpt lat="43.15535" lon="3.10325">
        <ele>158.544</ele>
        <time>2021-09-25T10:15:31Z</time>
      </trkpt>
      <trkpt lat="43.15534" lon="3.10327">
        <ele>158.746</ele>
        <time>2021-09-25T10:15:33Z</time>
      </trkpt>
      <trkpt lat="43.15533" lon="3.10331">
        <ele>158.726</ele>
        <time>2021-09-25T10:15:35Z</time>
      </trkpt>
      <trkpt lat="43.15533" lon="3.10333">
        <ele>157.564</ele>
        <time>2021-09-25T10:15:37Z</time>
      </trkpt>
      <trkpt lat="43.15533" lon="3.10336">
        <ele>157.864</ele>
        <time>2021-09-25T10:15:39Z</time>
      </trkpt>
      <trkpt lat="43.15533" lon="3.10338">
        <ele>156.633</ele>
        <time>2021-09-25T10:15:41Z</time>
      </trkpt>
      <trkpt lat="43.15532" lon="3.10341">
        <ele>156.152</ele>
        <time>2021-09-25T10:15:43Z</time>
      </trkpt>
      <trkpt lat="43.15532" lon="3.10343">
        <ele>155.916</ele>
        <time>2021-09-25T10:15:45Z</time>
      </trkpt>
      <trkpt lat="43.15531" lon="3.10346">
        <ele>156.959</ele>
        <time>2021-09-25T10:15:47Z</time>
      </trkpt>
      <trkpt lat="43.15531" lon="3.10349">
        <ele>157.066</ele>
        <time>2021-09-25T10:15:49Z</time>
      </trkpt>
      <trkpt lat="43.1553" lon="3.10352">
        <ele>157.655</ele>
        <time>2021-09-25T10:15:51Z</time>
      </trkpt>
      <trkpt lat="43.1553" lon="3.10355">
        <ele>158.082</ele>
        <time>2021-09-25T10:15:53Z</time>
      </trkpt>
      <trkpt lat="43.15531" lon="3.10359">
        <ele>158.925</ele>
        <time>2021-09-25T10:15:55Z</time>
      </trkpt>
      <trkpt lat="43.15533" lon="3.10362">
        <ele>160.471</ele>
        <time>2021-09-25T10:15:57Z</time>
      </trkpt>
      <trkpt lat="43.15534" lon="3.10364">
        <ele>160.768</ele>
        <time>2021-09-25T10:15:59Z</time>
      </trkpt>
      <trkpt lat="43.15535" lon="3.10367">
        <ele>159.451</ele>
        <time>2021-09-25T10:16:01Z</time>
      </trkpt>
      <trkpt lat="43.15535" lon="3.1037">
        <ele>159.634</ele>
        <time>2021-09-25T10:16:03Z</time>
      </trkpt>
      <trkpt lat="43.15536" lon="3.10373">
        <ele>160.256</ele>
        <time>2021-09-25T10:16:05Z</time>
      </trkpt>
      <trkpt lat="43.15536" lon="3.10376">
        <ele>160.185</ele>
        <time>2021-09-25T10:16:07Z</time>
      </trkpt>
      <trkpt lat="43.15537" lon="3.10378">
        <ele>161.045</ele>
        <time>2021-09-25T10:16:09Z</time>
      </trkpt>
      <trkpt lat="43.15537" lon="3.10382">
        <ele>161.212</ele>
        <time>2021-09-25T10:16:11Z</time>
      </trkpt>
      <trkpt lat="43.15537" lon="3.10385">
        <ele>161.306</ele>
        <time>2021-09-25T10:16:13Z</time>
      </trkpt>
      <trkpt lat="43.15537" lon="3.10388">
        <ele>161.675</ele>
        <time>2021-09-25T10:16:15Z</time>
      </trkpt>
      <trkpt lat="43.15537" lon="3.10391">
        <ele>161.751</ele>
        <time>2021-09-25T10:16:17Z</time>
      </trkpt>
      <trkpt lat="43.15539" lon="3.10394">
        <ele>162.289</ele>
        <time>2021-09-25T10:16:19Z</time>
      </trkpt>
      <trkpt lat="43.1554" lon="3.10397">
        <ele>162.581</ele>
        <time>2021-09-25T10:16:21Z</time>
      </trkpt>
      <trkpt lat="43.15541" lon="3.104">
        <ele>162.57</ele>
        <time>2021-09-25T10:16:23Z</time>
      </trkpt>
      <trkpt lat="43.15542" lon="3.10403">
        <ele>163.216</ele>
        <time>2021-09-25T10:16:25Z</time>
      </trkpt>
      <trkpt lat="43.15542" lon="3.10407">
        <ele>163.652</ele>
        <time>2021-09-25T10:16:27Z</time>
      </trkpt>
      <trkpt lat="43.15542" lon="3.1041">
        <ele>163.787</ele>
        <time>2021-09-25T10:16:29Z</time>
      </trkpt>
      <trkpt lat="43.15542" lon="3.10414">
        <ele>163.924</ele>
        <time>2021-09-25T10:16:31Z</time>
      </trkpt>
      <trkpt lat="43.15543" lon="3.10417">
        <ele>164.367</ele>
        <time>2021-09-25T10:16:33Z</time>
      </trkpt>
      <trkpt lat="43.15543" lon="3.10421">
        <ele>164.741</ele>
        <time>2021-09-25T10:16:35Z</time>
      </trkpt>
      <trkpt lat="43.15544" lon="3.10424">
        <ele>164.555</ele>
        <time>2021-09-25T10:16:37Z</time>
      </trkpt>
      <trkpt lat="43.15546" lon="3.10427">
        <ele>164.831</ele>
        <time>2021-09-25T10:16:39Z</time>
      </trkpt>
      <trkpt lat="43.15547" lon="3.1043">
        <ele>164.739</ele>
        <time>2021-09-25T10:16:41Z</time>
      </trkpt>
      <trkpt lat="43.15548" lon="3.10433">
        <ele>164.889</ele>
        <time>2021-09-25T10:16:43Z</time>
      </trkpt>
      <trkpt lat="43.15548" lon="3.10437">
        <ele>164.826</ele>
        <time>2021-09-25T10:16:45Z</time>
      </trkpt>
      <trkpt lat="43.15549" lon="3.1044">
        <ele>164.924</ele>
        <time>2021-09-25T10:16:47Z</time>
      </trkpt>
      <trkpt lat="43.15549" lon="3.10443">
        <ele>165.264</ele>
        <time>2021-09-25T10:16:49Z</time>
      </trkpt>
      <trkpt lat="43.15549" lon="3.10447">
        <ele>165.099</ele>
        <time>2021-09-25T10:16:51Z</time>
      </trkpt>
      <trkpt lat="43.15549" lon="3.1045">
        <ele>165.768</ele>
        <time>2021-09-25T10:16:53Z</time>
      </trkpt>
      <trkpt lat="43.15549" lon="3.10454">
        <ele>165.641</ele>
        <time>2021-09-25T10:16:55Z</time>
      </trkpt>
      <trkpt lat="43.1555" lon="3.10458">
        <ele>165.299</ele>
        <time>2021-09-25T10:16:57Z</time>
      </trkpt>
      <trkpt lat="43.15552" lon="3.10461">
        <ele>164.579</ele>
        <time>2021-09-25T10:16:59Z</time>
      </trkpt>
      <trkpt lat="43.15553" lon="3.10464">
        <ele>164.41</ele>
        <time>2021-09-25T10:17:01Z</time>
      </trkpt>
      <trkpt lat="43.15555" lon="3.10467">
        <ele>164.48</ele>
        <time>2021-09-25T10:17:03Z</time>
      </trkpt>
      <trkpt lat="43.15556" lon="3.1047">
        <ele>164.541</ele>
        <time>2021-09-25T10:17:05Z</time>
      </trkpt>
      <trkpt lat="43.15556" lon="3.10473">
        <ele>164.982</ele>
        <time>2021-09-25T10:17:07Z</time>
      </trkpt>
      <trkpt lat="43.15556" lon="3.10477">
        <ele>165.321</ele>
        <time>2021-09-25T10:17:09Z</time>
      </trkpt>
      <trkpt lat="43.15556" lon="3.1048">
        <ele>165.553</ele>
        <time>2021-09-25T10:17:11Z</time>
      </trkpt>
      <trkpt lat="43.15557" lon="3.10483">
        <ele>165.143</ele>
        <time>2021-09-25T10:17:13Z</time>
      </trkpt>
      <trkpt lat="43.15558" lon="3.10486">
        <ele>165.06</ele>
        <time>2021-09-25T10:17:15Z</time>
      </trkpt>
      <trkpt lat="43.15558" lon="3.10489">
        <ele>165.393</ele>
        <time>2021-09-25T10:17:17Z</time>
      </trkpt>
      <trkpt lat="43.15558" lon="3.10493">
        <ele>165.845</ele>
        <time>2021-09-25T10:17:19Z</time>
      </trkpt>
      <trkpt lat="43.15559" lon="3.10496">
        <ele>165.557</ele>
        <time>2021-09-25T10:17:21Z</time>
      </trkpt>
      <trkpt lat="43.1556" lon="3.105">
        <ele>165.686</ele>
        <time>2021-09-25T10:17:23Z</time>
      </trkpt>
      <trkpt lat="43.15561" lon="3.10503">
        <ele>165.328</ele>
        <time>2021-09-25T10:17:25Z</time>
      </trkpt>
      <trkpt lat="43.15562" lon="3.10506">
        <ele>165.762</ele>
        <time>2021-09-25T10:17:27Z</time>
      </trkpt>
      <trkpt lat="43.15562" lon="3.10509">
        <ele>166.136</ele>
        <time>2021-09-25T10:17:29Z</time>
      </trkpt>
      <trkpt lat="43.15561" lon="3.10512">
        <ele>166.165</ele>
        <time>2021-09-25T10:17:31Z</time>
      </trkpt>
      <trkpt lat="43.1556" lon="3.10515">
        <ele>166.078</ele>
        <time>2021-09-25T10:17:33Z</time>
      </trkpt>
      <trkpt lat="43.1556" lon="3.10518">
        <ele>166.387</ele>
        <time>2021-09-25T10:17:35Z</time>
      </trkpt>
      <trkpt lat="43.15559" lon="3.10521">
        <ele>166.238</ele>
        <time>2021-09-25T10:17:37Z</time>
      </trkpt>
      <trkpt lat="43.15558" lon="3.10524">
        <ele>166.46</ele>
        <time>2021-09-25T10:17:39Z</time>
      </trkpt>
      <trkpt lat="43.15558" lon="3.10527">
        <ele>167.064</ele>
        <time>2021-09-25T10:17:41Z</time>
      </trkpt>
      <trkpt lat="43.15558" lon="3.10529">
        <ele>167.685</ele>
        <time>2021-09-25T10:17:43Z</time>
      </trkpt>
      <trkpt lat="43.15557" lon="3.10532">
        <ele>167.269</ele>
        <time>2021-09-25T10:17:45Z</time>
      </trkpt>
      <trkpt lat="43.15556" lon="3.10534">
        <ele>166.81</ele>
        <time>2021-09-25T10:17:47Z</time>
      </trkpt>
      <trkpt lat="43.15556" lon="3.10537">
        <ele>166.722</ele>
        <time>2021-09-25T10:17:49Z</time>
      </trkpt>
      <trkpt lat="43.15556" lon="3.10539">
        <ele>167.216</ele>
        <time>2021-09-25T10:17:51Z</time>
      </trkpt>
      <trkpt lat="43.15556" lon="3.10543">
        <ele>167.017</ele>
        <time>2021-09-25T10:17:53Z</time>
      </trkpt>
      <trkpt lat="43.15556" lon="3.10547">
        <ele>167.826</ele>
        <time>2021-09-25T10:17:55Z</time>
      </trkpt>
      <trkpt lat="43.15556" lon="3.1055">
        <ele>168.284</ele>
        <time>2021-09-25T10:17:57Z</time>
      </trkpt>
      <trkpt lat="43.15556" lon="3.10554">
        <ele>168.686</ele>
        <time>2021-09-25T10:17:59Z</time>
      </trkpt>
      <trkpt lat="43.15556" lon="3.10558">
        <ele>168.519</ele>
        <time>2021-09-25T10:18:01Z</time>
      </trkpt>
      <trkpt lat="43.15556" lon="3.10561">
        <ele>168.394</ele>
        <time>2021-09-25T10:18:03Z</time>
      </trkpt>
      <trkpt lat="43.15556" lon="3.10565">
        <ele>168.728</ele>
        <time>2021-09-25T10:18:05Z</time>
      </trkpt>
      <trkpt lat="43.15556" lon="3.10569">
        <ele>168.714</ele>
        <time>2021-09-25T10:18:07Z</time>
      </trkpt>
      <trkpt lat="43.15557" lon="3.10573">
        <ele>168.514</ele>
        <time>2021-09-25T10:18:09Z</time>
      </trkpt>
      <trkpt lat="43.15558" lon="3.10576">
        <ele>168.713</ele>
        <time>2021-09-25T10:18:11Z</time>
      </trkpt>
      <trkpt lat="43.15558" lon="3.1058">
        <ele>168.558</ele>
        <time>2021-09-25T10:18:13Z</time>
      </trkpt>
      <trkpt lat="43.15559" lon="3.10583">
        <ele>168.88</ele>
        <time>2021-09-25T10:18:15Z</time>
      </trkpt>
      <trkpt lat="43.1556" lon="3.10586">
        <ele>169.087</ele>
        <time>2021-09-25T10:18:17Z</time>
      </trkpt>
      <trkpt lat="43.15561" lon="3.1059">
        <ele>170.187</ele>
        <time>2021-09-25T10:18:19Z</time>
      </trkpt>
      <trkpt lat="43.15561" lon="3.10593">
        <ele>170.551</ele>
        <time>2021-09-25T10:18:21Z</time>
      </trkpt>
      <trkpt lat="43.15561" lon="3.10597">
        <ele>170.844</ele>
        <time>2021-09-25T10:18:23Z</time>
      </trkpt>
      <trkpt lat="43.15559" lon="3.10601">
        <ele>171.012</ele>
        <time>2021-09-25T10:18:25Z</time>
      </trkpt>
      <trkpt lat="43.15557" lon="3.10602">
        <ele>170.279</ele>
        <time>2021-09-25T10:18:27Z</time>
      </trkpt>
      <trkpt lat="43.15554" lon="3.10602">
        <ele>170.202</ele>
        <time>2021-09-25T10:18:29Z</time>
      </trkpt>
      <trkpt lat="43.15552" lon="3.10603">
        <ele>170.519</ele>
        <time>2021-09-25T10:18:31Z</time>
      </trkpt>
      <trkpt lat="43.15549" lon="3.10604">
        <ele>171.487</ele>
        <time>2021-09-25T10:18:33Z</time>
      </trkpt>
      <trkpt lat="43.15547" lon="3.10605">
        <ele>170.884</ele>
        <time>2021-09-25T10:18:35Z</time>
      </trkpt>
      <trkpt lat="43.15544" lon="3.10605">
        <ele>172.525</ele>
        <time>2021-09-25T10:18:37Z</time>
      </trkpt>
      <trkpt lat="43.15543" lon="3.10606">
        <ele>172.03</ele>
        <time>2021-09-25T10:18:39Z</time>
      </trkpt>
      <trkpt lat="43.15541" lon="3.10606">
        <ele>173.149</ele>
        <time>2021-09-25T10:18:41Z</time>
      </trkpt>
      <trkpt lat="43.1554" lon="3.10606">
        <ele>172.265</ele>
        <time>2021-09-25T10:18:43Z</time>
      </trkpt>
      <trkpt lat="43.15538" lon="3.10607">
        <ele>172.779</ele>
        <time>2021-09-25T10:18:45Z</time>
      </trkpt>
      <trkpt lat="43.15537" lon="3.10608">
        <ele>172.755</ele>
        <time>2021-09-25T10:18:47Z</time>
      </trkpt>
      <trkpt lat="43.15535" lon="3.10609">
        <ele>173.402</ele>
        <time>2021-09-25T10:18:49Z</time>
      </trkpt>
      <trkpt lat="43.15534" lon="3.10612">
        <ele>173.205</ele>
        <time>2021-09-25T10:18:51Z</time>
      </trkpt>
      <trkpt lat="43.15533" lon="3.10614">
        <ele>173.342</ele>
        <time>2021-09-25T10:18:53Z</time>
      </trkpt>
      <trkpt lat="43.15532" lon="3.10617">
        <ele>174.179</ele>
        <time>2021-09-25T10:18:55Z</time>
      </trkpt>
      <trkpt lat="43.15532" lon="3.10619">
        <ele>174.5</ele>
        <time>2021-09-25T10:18:57Z</time>
      </trkpt>
      <trkpt lat="43.15532" lon="3.10622">
        <ele>174.872</ele>
        <time>2021-09-25T10:18:59Z</time>
      </trkpt>
      <trkpt lat="43.15531" lon="3.10624">
        <ele>175.449</ele>
        <time>2021-09-25T10:19:01Z</time>
      </trkpt>
      <trkpt lat="43.1553" lon="3.10626">
        <ele>175.95</ele>
        <time>2021-09-25T10:19:03Z</time>
      </trkpt>
      <trkpt lat="43.15529" lon="3.10629">
        <ele>176.712</ele>
        <time>2021-09-25T10:19:05Z</time>
      </trkpt>
      <trkpt lat="43.15528" lon="3.10631">
        <ele>176.732</ele>
        <time>2021-09-25T10:19:07Z</time>
      </trkpt>
      <trkpt lat="43.15527" lon="3.10634">
        <ele>177.363</ele>
        <time>2021-09-25T10:19:09Z</time>
      </trkpt>
      <trkpt lat="43.15527" lon="3.10637">
        <ele>177.466</ele>
        <time>2021-09-25T10:19:11Z</time>
      </trkpt>
      <trkpt lat="43.15527" lon="3.10641">
        <ele>177.838</ele>
        <time>2021-09-25T10:19:13Z</time>
      </trkpt>
      <trkpt lat="43.15527" lon="3.10643">
        <ele>178.219</ele>
        <time>2021-09-25T10:19:15Z</time>
      </trkpt>
      <trkpt lat="43.15527" lon="3.10646">
        <ele>178.044</ele>
        <time>2021-09-25T10:19:17Z</time>
      </trkpt>
      <trkpt lat="43.15526" lon="3.10649">
        <ele>178.886</ele>
        <time>2021-09-25T10:19:19Z</time>
      </trkpt>
      <trkpt lat="43.15526" lon="3.10651">
        <ele>179.297</ele>
        <time>2021-09-25T10:19:21Z</time>
      </trkpt>
      <trkpt lat="43.15526" lon="3.10654">
        <ele>178.881</ele>
        <time>2021-09-25T10:19:23Z</time>
      </trkpt>
      <trkpt lat="43.15526" lon="3.10657">
        <ele>179.205</ele>
        <time>2021-09-25T10:19:25Z</time>
      </trkpt>
      <trkpt lat="43.15525" lon="3.10659">
        <ele>179.255</ele>
        <time>2021-09-25T10:19:27Z</time>
      </trkpt>
      <trkpt lat="43.15525" lon="3.10661">
        <ele>179.495</ele>
        <time>2021-09-25T10:19:29Z</time>
      </trkpt>
      <trkpt lat="43.15524" lon="3.10664">
        <ele>178.424</ele>
        <time>2021-09-25T10:19:31Z</time>
      </trkpt>
      <trkpt lat="43.15523" lon="3.10664">
        <ele>177.869</ele>
        <time>2021-09-25T10:19:33Z</time>
      </trkpt>
      <trkpt lat="43.15523" lon="3.10664">
        <ele>177.869</ele>
        <time>2021-09-25T10:19:35Z</time>
      </trkpt>
      <trkpt lat="43.15523" lon="3.10664">
        <ele>177.868</ele>
        <time>2021-09-25T10:19:37Z</time>
      </trkpt>
      <trkpt lat="43.15523" lon="3.10664">
        <ele>177.868</ele>
        <time>2021-09-25T10:19:39Z</time>
      </trkpt>
      <trkpt lat="43.15523" lon="3.10664">
        <ele>178.266</ele>
        <time>2021-09-25T10:19:41Z</time>
      </trkpt>
      <trkpt lat="43.15522" lon="3.10665">
        <ele>179.554</ele>
        <time>2021-09-25T10:19:43Z</time>
      </trkpt>
      <trkpt lat="43.15522" lon="3.10665">
        <ele>179.631</ele>
        <time>2021-09-25T10:19:45Z</time>
      </trkpt>
      <trkpt lat="43.15522" lon="3.10665">
        <ele>179.622</ele>
        <time>2021-09-25T10:19:47Z</time>
      </trkpt>
      <trkpt lat="43.15522" lon="3.10665">
        <ele>179.62</ele>
        <time>2021-09-25T10:19:49Z</time>
      </trkpt>
      <trkpt lat="43.15522" lon="3.10665">
        <ele>179.618</ele>
        <time>2021-09-25T10:19:51Z</time>
      </trkpt>
      <trkpt lat="43.15522" lon="3.10665">
        <ele>179.618</ele>
        <time>2021-09-25T10:19:53Z</time>
      </trkpt>
      <trkpt lat="43.15522" lon="3.10665">
        <ele>179.618</ele>
        <time>2021-09-25T10:19:55Z</time>
      </trkpt>
      <trkpt lat="43.15522" lon="3.10665">
        <ele>179.619</ele>
        <time>2021-09-25T10:19:57Z</time>
      </trkpt>
      <trkpt lat="43.15522" lon="3.10665">
        <ele>179.616</ele>
        <time>2021-09-25T10:19:59Z</time>
      </trkpt>
      <trkpt lat="43.15522" lon="3.10665">
        <ele>179.616</ele>
        <time>2021-09-25T10:20:01Z</time>
      </trkpt>
      <trkpt lat="43.15522" lon="3.10665">
        <ele>179.617</ele>
        <time>2021-09-25T10:20:03Z</time>
      </trkpt>
      <trkpt lat="43.15522" lon="3.10665">
        <ele>179.617</ele>
        <time>2021-09-25T10:20:05Z</time>
      </trkpt>
      <trkpt lat="43.15522" lon="3.10665">
        <ele>179.618</ele>
        <time>2021-09-25T10:20:07Z</time>
      </trkpt>
      <trkpt lat="43.15522" lon="3.10665">
        <ele>179.617</ele>
        <time>2021-09-25T10:20:09Z</time>
      </trkpt>
      <trkpt lat="43.15522" lon="3.10665">
        <ele>179.617</ele>
        <time>2021-09-25T10:20:11Z</time>
      </trkpt>
      <trkpt lat="43.15522" lon="3.10665">
        <ele>179.617</ele>
        <time>2021-09-25T10:20:13Z</time>
      </trkpt>
      <trkpt lat="43.15522" lon="3.10665">
        <ele>179.621</ele>
        <time>2021-09-25T10:20:15Z</time>
      </trkpt>
      <trkpt lat="43.15522" lon="3.10665">
        <ele>179.618</ele>
        <time>2021-09-25T10:20:17Z</time>
      </trkpt>
      <trkpt lat="43.15522" lon="3.10666">
        <ele>180.129</ele>
        <time>2021-09-25T10:20:19Z</time>
      </trkpt>
      <trkpt lat="43.15521" lon="3.10667">
        <ele>179.737</ele>
        <time>2021-09-25T10:20:21Z</time>
      </trkpt>
      <trkpt lat="43.15521" lon="3.10668">
        <ele>179.689</ele>
        <time>2021-09-25T10:20:23Z</time>
      </trkpt>
      <trkpt lat="43.1552" lon="3.10669">
        <ele>179.415</ele>
        <time>2021-09-25T10:20:25Z</time>
      </trkpt>
      <trkpt lat="43.1552" lon="3.1067">
        <ele>179.418</ele>
        <time>2021-09-25T10:20:27Z</time>
      </trkpt>
      <trkpt lat="43.15519" lon="3.10673">
        <ele>179.171</ele>
        <time>2021-09-25T10:20:29Z</time>
      </trkpt>
      <trkpt lat="43.15519" lon="3.10675">
        <ele>178.932</ele>
        <time>2021-09-25T10:20:31Z</time>
      </trkpt>
      <trkpt lat="43.15518" lon="3.10677">
        <ele>178.204</ele>
        <time>2021-09-25T10:20:33Z</time>
      </trkpt>
      <trkpt lat="43.15517" lon="3.10679">
        <ele>179.191</ele>
        <time>2021-09-25T10:20:35Z</time>
      </trkpt>
      <trkpt lat="43.15516" lon="3.10682">
        <ele>179.51</ele>
        <time>2021-09-25T10:20:37Z</time>
      </trkpt>
      <trkpt lat="43.15515" lon="3.10684">
        <ele>180.126</ele>
        <time>2021-09-25T10:20:39Z</time>
      </trkpt>
      <trkpt lat="43.15514" lon="3.10687">
        <ele>179.476</ele>
        <time>2021-09-25T10:20:41Z</time>
      </trkpt>
      <trkpt lat="43.15514" lon="3.10689">
        <ele>180.555</ele>
        <time>2021-09-25T10:20:43Z</time>
      </trkpt>
      <trkpt lat="43.15513" lon="3.10692">
        <ele>181.101</ele>
        <time>2021-09-25T10:20:45Z</time>
      </trkpt>
      <trkpt lat="43.15511" lon="3.10694">
        <ele>181.359</ele>
        <time>2021-09-25T10:20:47Z</time>
      </trkpt>
      <trkpt lat="43.15509" lon="3.10696">
        <ele>180.924</ele>
        <time>2021-09-25T10:20:49Z</time>
      </trkpt>
      <trkpt lat="43.15508" lon="3.10698">
        <ele>181.083</ele>
        <time>2021-09-25T10:20:51Z</time>
      </trkpt>
      <trkpt lat="43.15506" lon="3.107">
        <ele>181.142</ele>
        <time>2021-09-25T10:20:53Z</time>
      </trkpt>
      <trkpt lat="43.15504" lon="3.10702">
        <ele>182.283</ele>
        <time>2021-09-25T10:20:55Z</time>
      </trkpt>
      <trkpt lat="43.15502" lon="3.10702">
        <ele>182.696</ele>
        <time>2021-09-25T10:20:57Z</time>
      </trkpt>
      <trkpt lat="43.155" lon="3.10702">
        <ele>182.264</ele>
        <time>2021-09-25T10:20:59Z</time>
      </trkpt>
      <trkpt lat="43.15498" lon="3.10702">
        <ele>182.242</ele>
        <time>2021-09-25T10:21:01Z</time>
      </trkpt>
      <trkpt lat="43.15496" lon="3.10701">
        <ele>183.413</ele>
        <time>2021-09-25T10:21:03Z</time>
      </trkpt>
      <trkpt lat="43.15494" lon="3.107">
        <ele>184.577</ele>
        <time>2021-09-25T10:21:05Z</time>
      </trkpt>
      <trkpt lat="43.15493" lon="3.10701">
        <ele>184.494</ele>
        <time>2021-09-25T10:21:07Z</time>
      </trkpt>
      <trkpt lat="43.15493" lon="3.10701">
        <ele>185.351</ele>
        <time>2021-09-25T10:21:09Z</time>
      </trkpt>
      <trkpt lat="43.15493" lon="3.10701">
        <ele>186.08</ele>
        <time>2021-09-25T10:21:11Z</time>
      </trkpt>
      <trkpt lat="43.15493" lon="3.10698">
        <ele>186.417</ele>
        <time>2021-09-25T10:21:13Z</time>
      </trkpt>
      <trkpt lat="43.15492" lon="3.10698">
        <ele>186.438</ele>
        <time>2021-09-25T10:21:15Z</time>
      </trkpt>
      <trkpt lat="43.15492" lon="3.10698">
        <ele>186.438</ele>
        <time>2021-09-25T10:21:17Z</time>
      </trkpt>
      <trkpt lat="43.15492" lon="3.10699">
        <ele>186.937</ele>
        <time>2021-09-25T10:21:19Z</time>
      </trkpt>
      <trkpt lat="43.15492" lon="3.107">
        <ele>187.102</ele>
        <time>2021-09-25T10:21:21Z</time>
      </trkpt>
      <trkpt lat="43.15493" lon="3.107">
        <ele>187.104</ele>
        <time>2021-09-25T10:21:23Z</time>
      </trkpt>
      <trkpt lat="43.15493" lon="3.107">
        <ele>187.114</ele>
        <time>2021-09-25T10:21:25Z</time>
      </trkpt>
      <trkpt lat="43.15492" lon="3.10701">
        <ele>186.947</ele>
        <time>2021-09-25T10:21:27Z</time>
      </trkpt>
      <trkpt lat="43.15492" lon="3.10702">
        <ele>186.796</ele>
        <time>2021-09-25T10:21:29Z</time>
      </trkpt>
      <trkpt lat="43.15492" lon="3.10702">
        <ele>187.036</ele>
        <time>2021-09-25T10:21:31Z</time>
      </trkpt>
      <trkpt lat="43.15492" lon="3.10702">
        <ele>187.043</ele>
        <time>2021-09-25T10:21:33Z</time>
      </trkpt>
      <trkpt lat="43.15492" lon="3.10702">
        <ele>187.04</ele>
        <time>2021-09-25T10:21:35Z</time>
      </trkpt>
      <trkpt lat="43.15492" lon="3.10702">
        <ele>187.043</ele>
        <time>2021-09-25T10:21:37Z</time>
      </trkpt>
      <trkpt lat="43.15492" lon="3.10702">
        <ele>187.037</ele>
        <time>2021-09-25T10:21:39Z</time>
      </trkpt>
      <trkpt lat="43.15492" lon="3.10702">
        <ele>187.031</ele>
        <time>2021-09-25T10:21:41Z</time>
      </trkpt>
      <trkpt lat="43.15492" lon="3.10702">
        <ele>187.031</ele>
        <time>2021-09-25T10:21:43Z</time>
      </trkpt>
      <trkpt lat="43.15492" lon="3.10702">
        <ele>187.031</ele>
        <time>2021-09-25T10:21:45Z</time>
      </trkpt>
      <trkpt lat="43.15492" lon="3.10702">
        <ele>187.029</ele>
        <time>2021-09-25T10:21:47Z</time>
      </trkpt>
      <trkpt lat="43.15492" lon="3.10702">
        <ele>187.028</ele>
        <time>2021-09-25T10:21:49Z</time>
      </trkpt>
      <trkpt lat="43.15492" lon="3.10702">
        <ele>187.025</ele>
        <time>2021-09-25T10:21:51Z</time>
      </trkpt>
      <trkpt lat="43.15492" lon="3.10702">
        <ele>187.014</ele>
        <time>2021-09-25T10:21:53Z</time>
      </trkpt>
      <trkpt lat="43.15492" lon="3.10702">
        <ele>187.651</ele>
        <time>2021-09-25T10:21:55Z</time>
      </trkpt>
      <trkpt lat="43.15493" lon="3.107">
        <ele>187.813</ele>
        <time>2021-09-25T10:21:57Z</time>
      </trkpt>
      <trkpt lat="43.15492" lon="3.10699">
        <ele>188.025</ele>
        <time>2021-09-25T10:21:59Z</time>
      </trkpt>
      <trkpt lat="43.15492" lon="3.10698">
        <ele>188.962</ele>
        <time>2021-09-25T10:22:01Z</time>
      </trkpt>
      <trkpt lat="43.15491" lon="3.10697">
        <ele>189.157</ele>
        <time>2021-09-25T10:22:03Z</time>
      </trkpt>
      <trkpt lat="43.15491" lon="3.10696">
        <ele>189.488</ele>
        <time>2021-09-25T10:22:05Z</time>
      </trkpt>
      <trkpt lat="43.1549" lon="3.10695">
        <ele>188.261</ele>
        <time>2021-09-25T10:22:07Z</time>
      </trkpt>
      <trkpt lat="43.15489" lon="3.10692">
        <ele>188.099</ele>
        <time>2021-09-25T10:22:09Z</time>
      </trkpt>
      <trkpt lat="43.15488" lon="3.1069">
        <ele>188.773</ele>
        <time>2021-09-25T10:22:11Z</time>
      </trkpt>
      <trkpt lat="43.15487" lon="3.10688">
        <ele>189.271</ele>
        <time>2021-09-25T10:22:13Z</time>
      </trkpt>
      <trkpt lat="43.15486" lon="3.10686">
        <ele>189.458</ele>
        <time>2021-09-25T10:22:15Z</time>
      </trkpt>
      <trkpt lat="43.15486" lon="3.10683">
        <ele>189.91</ele>
        <time>2021-09-25T10:22:17Z</time>
      </trkpt>
      <trkpt lat="43.15485" lon="3.10682">
        <ele>190.228</ele>
        <time>2021-09-25T10:22:19Z</time>
      </trkpt>
      <trkpt lat="43.15485" lon="3.1068">
        <ele>190.772</ele>
        <time>2021-09-25T10:22:21Z</time>
      </trkpt>
      <trkpt lat="43.15485" lon="3.10679">
        <ele>190.887</ele>
        <time>2021-09-25T10:22:23Z</time>
      </trkpt>
      <trkpt lat="43.15484" lon="3.10678">
        <ele>190.619</ele>
        <time>2021-09-25T10:22:25Z</time>
      </trkpt>
      <trkpt lat="43.15483" lon="3.10677">
        <ele>190.918</ele>
        <time>2021-09-25T10:22:27Z</time>
      </trkpt>
      <trkpt lat="43.15482" lon="3.10676">
        <ele>191.205</ele>
        <time>2021-09-25T10:22:29Z</time>
      </trkpt>
      <trkpt lat="43.1548" lon="3.10675">
        <ele>191.468</ele>
        <time>2021-09-25T10:22:31Z</time>
      </trkpt>
      <trkpt lat="43.1548" lon="3.10673">
        <ele>192.096</ele>
        <time>2021-09-25T10:22:33Z</time>
      </trkpt>
      <trkpt lat="43.15478" lon="3.10672">
        <ele>192.761</ele>
        <time>2021-09-25T10:22:35Z</time>
      </trkpt>
      <trkpt lat="43.15477" lon="3.1067">
        <ele>194.978</ele>
        <time>2021-09-25T10:22:37Z</time>
      </trkpt>
      <trkpt lat="43.15477" lon="3.1067">
        <ele>195.55</ele>
        <time>2021-09-25T10:22:39Z</time>
      </trkpt>
      <trkpt lat="43.15477" lon="3.10669">
        <ele>195.52</ele>
        <time>2021-09-25T10:22:41Z</time>
      </trkpt>
      <trkpt lat="43.15477" lon="3.10669">
        <ele>195.532</ele>
        <time>2021-09-25T10:22:43Z</time>
      </trkpt>
      <trkpt lat="43.15477" lon="3.10669">
        <ele>195.534</ele>
        <time>2021-09-25T10:22:45Z</time>
      </trkpt>
      <trkpt lat="43.15477" lon="3.10669">
        <ele>195.533</ele>
        <time>2021-09-25T10:22:47Z</time>
      </trkpt>
      <trkpt lat="43.15476" lon="3.10669">
        <ele>196.184</ele>
        <time>2021-09-25T10:22:49Z</time>
      </trkpt>
      <trkpt lat="43.15476" lon="3.10669">
        <ele>196.178</ele>
        <time>2021-09-25T10:22:51Z</time>
      </trkpt>
      <trkpt lat="43.15476" lon="3.1067">
        <ele>196.193</ele>
        <time>2021-09-25T10:22:53Z</time>
      </trkpt>
      <trkpt lat="43.15476" lon="3.1067">
        <ele>196.199</ele>
        <time>2021-09-25T10:22:55Z</time>
      </trkpt>
      <trkpt lat="43.15476" lon="3.1067">
        <ele>196.205</ele>
        <time>2021-09-25T10:22:58Z</time>
      </trkpt>
      <trkpt lat="43.15476" lon="3.10669">
        <ele>195.965</ele>
        <time>2021-09-25T10:23:00Z</time>
      </trkpt>
      <trkpt lat="43.15476" lon="3.10669">
        <ele>195.688</ele>
        <time>2021-09-25T10:23:02Z</time>
      </trkpt>
      <trkpt lat="43.15476" lon="3.10669">
        <ele>195.913</ele>
        <time>2021-09-25T10:23:04Z</time>
      </trkpt>
      <trkpt lat="43.15476" lon="3.10669">
        <ele>195.918</ele>
        <time>2021-09-25T10:23:06Z</time>
      </trkpt>
      <trkpt lat="43.15476" lon="3.10669">
        <ele>195.914</ele>
        <time>2021-09-25T10:23:08Z</time>
      </trkpt>
      <trkpt lat="43.15477" lon="3.10669">
        <ele>195.881</ele>
        <time>2021-09-25T10:23:10Z</time>
      </trkpt>
      <trkpt lat="43.15476" lon="3.10667">
        <ele>196.046</ele>
        <time>2021-09-25T10:23:12Z</time>
      </trkpt>
      <trkpt lat="43.15476" lon="3.10666">
        <ele>196.262</ele>
        <time>2021-09-25T10:23:14Z</time>
      </trkpt>
      <trkpt lat="43.15475" lon="3.10666">
        <ele>196.251</ele>
        <time>2021-09-25T10:23:16Z</time>
      </trkpt>
      <trkpt lat="43.15475" lon="3.10666">
        <ele>196.265</ele>
        <time>2021-09-25T10:23:18Z</time>
      </trkpt>
      <trkpt lat="43.15475" lon="3.10666">
        <ele>197.115</ele>
        <time>2021-09-25T10:23:20Z</time>
      </trkpt>
      <trkpt lat="43.15475" lon="3.10664">
        <ele>197.487</ele>
        <time>2021-09-25T10:23:22Z</time>
      </trkpt>
      <trkpt lat="43.15474" lon="3.10662">
        <ele>197.362</ele>
        <time>2021-09-25T10:23:24Z</time>
      </trkpt>
      <trkpt lat="43.15474" lon="3.1066">
        <ele>197.334</ele>
        <time>2021-09-25T10:23:26Z</time>
      </trkpt>
      <trkpt lat="43.15474" lon="3.10657">
        <ele>197.828</ele>
        <time>2021-09-25T10:23:28Z</time>
      </trkpt>
      <trkpt lat="43.15473" lon="3.10654">
        <ele>197.818</ele>
        <time>2021-09-25T10:23:30Z</time>
      </trkpt>
      <trkpt lat="43.15473" lon="3.10652">
        <ele>198.944</ele>
        <time>2021-09-25T10:23:32Z</time>
      </trkpt>
      <trkpt lat="43.15472" lon="3.10649">
        <ele>199.385</ele>
        <time>2021-09-25T10:23:34Z</time>
      </trkpt>
      <trkpt lat="43.15472" lon="3.10647">
        <ele>199.701</ele>
        <time>2021-09-25T10:23:36Z</time>
      </trkpt>
      <trkpt lat="43.15471" lon="3.10644">
        <ele>199.766</ele>
        <time>2021-09-25T10:23:38Z</time>
      </trkpt>
      <trkpt lat="43.15471" lon="3.10642">
        <ele>199.779</ele>
        <time>2021-09-25T10:23:40Z</time>
      </trkpt>
      <trkpt lat="43.15471" lon="3.10639">
        <ele>199.372</ele>
        <time>2021-09-25T10:23:42Z</time>
      </trkpt>
      <trkpt lat="43.1547" lon="3.10636">
        <ele>199.666</ele>
        <time>2021-09-25T10:23:44Z</time>
      </trkpt>
      <trkpt lat="43.15469" lon="3.10634">
        <ele>200.078</ele>
        <time>2021-09-25T10:23:46Z</time>
      </trkpt>
      <trkpt lat="43.15468" lon="3.1063">
        <ele>200.288</ele>
        <time>2021-09-25T10:23:48Z</time>
      </trkpt>
      <trkpt lat="43.15467" lon="3.10627">
        <ele>200.942</ele>
        <time>2021-09-25T10:23:50Z</time>
      </trkpt>
      <trkpt lat="43.15467" lon="3.10625">
        <ele>201.283</ele>
        <time>2021-09-25T10:23:52Z</time>
      </trkpt>
      <trkpt lat="43.15466" lon="3.10623">
        <ele>201.76</ele>
        <time>2021-09-25T10:23:54Z</time>
      </trkpt>
      <trkpt lat="43.15465" lon="3.1062">
        <ele>201.713</ele>
        <time>2021-09-25T10:23:56Z</time>
      </trkpt>
      <trkpt lat="43.15464" lon="3.10618">
        <ele>201.441</ele>
        <time>2021-09-25T10:23:58Z</time>
      </trkpt>
      <trkpt lat="43.15462" lon="3.10619">
        <ele>201.223</ele>
        <time>2021-09-25T10:24:00Z</time>
      </trkpt>
      <trkpt lat="43.15461" lon="3.10621">
        <ele>200.529</ele>
        <time>2021-09-25T10:24:02Z</time>
      </trkpt>
      <trkpt lat="43.15459" lon="3.10621">
        <ele>200.195</ele>
        <time>2021-09-25T10:24:04Z</time>
      </trkpt>
      <trkpt lat="43.15459" lon="3.10622">
        <ele>200.329</ele>
        <time>2021-09-25T10:24:06Z</time>
      </trkpt>
      <trkpt lat="43.15458" lon="3.10625">
        <ele>200.048</ele>
        <time>2021-09-25T10:24:08Z</time>
      </trkpt>
      <trkpt lat="43.15462" lon="3.10625">
        <ele>199.716</ele>
        <time>2021-09-25T10:24:10Z</time>
      </trkpt>
      <trkpt lat="43.15461" lon="3.1062">
        <ele>199.67</ele>
        <time>2021-09-25T10:24:12Z</time>
      </trkpt>
      <trkpt lat="43.1546" lon="3.10617">
        <ele>199.945</ele>
        <time>2021-09-25T10:24:14Z</time>
      </trkpt>
      <trkpt lat="43.15459" lon="3.10613">
        <ele>200.429</ele>
        <time>2021-09-25T10:24:16Z</time>
      </trkpt>
      <trkpt lat="43.15459" lon="3.10611">
        <ele>200.814</ele>
        <time>2021-09-25T10:24:18Z</time>
      </trkpt>
      <trkpt lat="43.15458" lon="3.10608">
        <ele>200.899</ele>
        <time>2021-09-25T10:24:20Z</time>
      </trkpt>
      <trkpt lat="43.15457" lon="3.10605">
        <ele>200.882</ele>
        <time>2021-09-25T10:24:22Z</time>
      </trkpt>
      <trkpt lat="43.15456" lon="3.10603">
        <ele>200.876</ele>
        <time>2021-09-25T10:24:24Z</time>
      </trkpt>
      <trkpt lat="43.15455" lon="3.10601">
        <ele>201.433</ele>
        <time>2021-09-25T10:24:26Z</time>
      </trkpt>
      <trkpt lat="43.15456" lon="3.106">
        <ele>201.254</ele>
        <time>2021-09-25T10:24:28Z</time>
      </trkpt>
      <trkpt lat="43.15456" lon="3.106">
        <ele>201.275</ele>
        <time>2021-09-25T10:24:30Z</time>
      </trkpt>
      <trkpt lat="43.15456" lon="3.106">
        <ele>201.388</ele>
        <time>2021-09-25T10:24:32Z</time>
      </trkpt>
      <trkpt lat="43.15455" lon="3.10598">
        <ele>201.637</ele>
        <time>2021-09-25T10:24:34Z</time>
      </trkpt>
      <trkpt lat="43.15453" lon="3.10595">
        <ele>201.193</ele>
        <time>2021-09-25T10:24:36Z</time>
      </trkpt>
      <trkpt lat="43.15453" lon="3.10593">
        <ele>201.534</ele>
        <time>2021-09-25T10:24:38Z</time>
      </trkpt>
      <trkpt lat="43.15452" lon="3.1059">
        <ele>201.95</ele>
        <time>2021-09-25T10:24:40Z</time>
      </trkpt>
      <trkpt lat="43.15451" lon="3.10589">
        <ele>201.844</ele>
        <time>2021-09-25T10:24:42Z</time>
      </trkpt>
      <trkpt lat="43.1545" lon="3.10587">
        <ele>202.186</ele>
        <time>2021-09-25T10:24:44Z</time>
      </trkpt>
      <trkpt lat="43.15448" lon="3.10585">
        <ele>202.026</ele>
        <time>2021-09-25T10:24:46Z</time>
      </trkpt>
      <trkpt lat="43.15447" lon="3.10583">
        <ele>201.409</ele>
        <time>2021-09-25T10:24:48Z</time>
      </trkpt>
      <trkpt lat="43.15446" lon="3.10582">
        <ele>201.208</ele>
        <time>2021-09-25T10:24:50Z</time>
      </trkpt>
      <trkpt lat="43.15446" lon="3.1058">
        <ele>201.452</ele>
        <time>2021-09-25T10:24:52Z</time>
      </trkpt>
      <trkpt lat="43.15445" lon="3.10579">
        <ele>201.329</ele>
        <time>2021-09-25T10:24:54Z</time>
      </trkpt>
      <trkpt lat="43.15443" lon="3.10577">
        <ele>201.333</ele>
        <time>2021-09-25T10:24:56Z</time>
      </trkpt>
      <trkpt lat="43.15442" lon="3.10575">
        <ele>201.883</ele>
        <time>2021-09-25T10:24:58Z</time>
      </trkpt>
      <trkpt lat="43.15441" lon="3.10573">
        <ele>202.072</ele>
        <time>2021-09-25T10:25:00Z</time>
      </trkpt>
      <trkpt lat="43.1544" lon="3.10572">
        <ele>202.556</ele>
        <time>2021-09-25T10:25:02Z</time>
      </trkpt>
      <trkpt lat="43.15439" lon="3.1057">
        <ele>203.27</ele>
        <time>2021-09-25T10:25:04Z</time>
      </trkpt>
      <trkpt lat="43.15439" lon="3.10568">
        <ele>203.082</ele>
        <time>2021-09-25T10:25:06Z</time>
      </trkpt>
      <trkpt lat="43.15439" lon="3.10568">
        <ele>203.163</ele>
        <time>2021-09-25T10:25:08Z</time>
      </trkpt>
      <trkpt lat="43.15439" lon="3.10566">
        <ele>203.963</ele>
        <time>2021-09-25T10:25:10Z</time>
      </trkpt>
      <trkpt lat="43.15438" lon="3.10564">
        <ele>204.529</ele>
        <time>2021-09-25T10:25:12Z</time>
      </trkpt>
      <trkpt lat="43.15437" lon="3.10562">
        <ele>204.736</ele>
        <time>2021-09-25T10:25:14Z</time>
      </trkpt>
      <trkpt lat="43.15436" lon="3.10561">
        <ele>204.946</ele>
        <time>2021-09-25T10:25:16Z</time>
      </trkpt>
      <trkpt lat="43.15435" lon="3.10559">
        <ele>204.94</ele>
        <time>2021-09-25T10:25:18Z</time>
      </trkpt>
      <trkpt lat="43.15434" lon="3.10558">
        <ele>204.774</ele>
        <time>2021-09-25T10:25:20Z</time>
      </trkpt>
      <trkpt lat="43.15432" lon="3.10556">
        <ele>205.213</ele>
        <time>2021-09-25T10:25:22Z</time>
      </trkpt>
      <trkpt lat="43.15431" lon="3.10555">
        <ele>204.987</ele>
        <time>2021-09-25T10:25:24Z</time>
      </trkpt>
      <trkpt lat="43.1543" lon="3.10554">
        <ele>204.593</ele>
        <time>2021-09-25T10:25:26Z</time>
      </trkpt>
      <trkpt lat="43.15429" lon="3.10552">
        <ele>204.409</ele>
        <time>2021-09-25T10:25:28Z</time>
      </trkpt>
      <trkpt lat="43.15427" lon="3.1055">
        <ele>204.749</ele>
        <time>2021-09-25T10:25:30Z</time>
      </trkpt>
      <trkpt lat="43.15426" lon="3.10547">
        <ele>204.63</ele>
        <time>2021-09-25T10:25:32Z</time>
      </trkpt>
      <trkpt lat="43.15425" lon="3.10546">
        <ele>204.731</ele>
        <time>2021-09-25T10:25:34Z</time>
      </trkpt>
      <trkpt lat="43.15423" lon="3.10544">
        <ele>204.142</ele>
        <time>2021-09-25T10:25:36Z</time>
      </trkpt>
      <trkpt lat="43.15422" lon="3.10543">
        <ele>204.558</ele>
        <time>2021-09-25T10:25:38Z</time>
      </trkpt>
      <trkpt lat="43.15421" lon="3.10542">
        <ele>203.941</ele>
        <time>2021-09-25T10:25:40Z</time>
      </trkpt>
      <trkpt lat="43.1542" lon="3.1054">
        <ele>204.625</ele>
        <time>2021-09-25T10:25:42Z</time>
      </trkpt>
      <trkpt lat="43.15418" lon="3.10539">
        <ele>203.988</ele>
        <time>2021-09-25T10:25:44Z</time>
      </trkpt>
      <trkpt lat="43.15418" lon="3.10537">
        <ele>203.873</ele>
        <time>2021-09-25T10:25:46Z</time>
      </trkpt>
      <trkpt lat="43.15417" lon="3.10535">
        <ele>203.957</ele>
        <time>2021-09-25T10:25:48Z</time>
      </trkpt>
      <trkpt lat="43.15417" lon="3.10533">
        <ele>203.799</ele>
        <time>2021-09-25T10:25:50Z</time>
      </trkpt>
      <trkpt lat="43.15416" lon="3.10532">
        <ele>203.793</ele>
        <time>2021-09-25T10:25:52Z</time>
      </trkpt>
      <trkpt lat="43.15415" lon="3.1053">
        <ele>203.597</ele>
        <time>2021-09-25T10:25:54Z</time>
      </trkpt>
      <trkpt lat="43.15414" lon="3.10528">
        <ele>202.851</ele>
        <time>2021-09-25T10:25:56Z</time>
      </trkpt>
      <trkpt lat="43.15413" lon="3.10527">
        <ele>202.35</ele>
        <time>2021-09-25T10:25:58Z</time>
      </trkpt>
      <trkpt lat="43.15411" lon="3.10525">
        <ele>202.303</ele>
        <time>2021-09-25T10:26:00Z</time>
      </trkpt>
      <trkpt lat="43.1541" lon="3.10523">
        <ele>202.07</ele>
        <time>2021-09-25T10:26:02Z</time>
      </trkpt>
      <trkpt lat="43.15408" lon="3.1052">
        <ele>202.26</ele>
        <time>2021-09-25T10:26:04Z</time>
      </trkpt>
      <trkpt lat="43.15407" lon="3.10517">
        <ele>202.776</ele>
        <time>2021-09-25T10:26:06Z</time>
      </trkpt>
      <trkpt lat="43.15407" lon="3.10515">
        <ele>202.622</ele>
        <time>2021-09-25T10:26:08Z</time>
      </trkpt>
      <trkpt lat="43.15408" lon="3.10514">
        <ele>202.632</ele>
        <time>2021-09-25T10:26:10Z</time>
      </trkpt>
      <trkpt lat="43.15408" lon="3.10513">
        <ele>202.826</ele>
        <time>2021-09-25T10:26:12Z</time>
      </trkpt>
      <trkpt lat="43.15408" lon="3.10514">
        <ele>202.813</ele>
        <time>2021-09-25T10:26:14Z</time>
      </trkpt>
      <trkpt lat="43.15408" lon="3.10514">
        <ele>202.815</ele>
        <time>2021-09-25T10:26:16Z</time>
      </trkpt>
      <trkpt lat="43.15408" lon="3.10514">
        <ele>202.814</ele>
        <time>2021-09-25T10:26:18Z</time>
      </trkpt>
      <trkpt lat="43.15408" lon="3.10514">
        <ele>202.81</ele>
        <time>2021-09-25T10:26:20Z</time>
      </trkpt>
      <trkpt lat="43.15408" lon="3.10514">
        <ele>202.811</ele>
        <time>2021-09-25T10:26:22Z</time>
      </trkpt>
      <trkpt lat="43.15408" lon="3.10514">
        <ele>202.81</ele>
        <time>2021-09-25T10:26:24Z</time>
      </trkpt>
      <trkpt lat="43.15408" lon="3.10514">
        <ele>202.807</ele>
        <time>2021-09-25T10:26:26Z</time>
      </trkpt>
      <trkpt lat="43.15408" lon="3.10514">
        <ele>202.81</ele>
        <time>2021-09-25T10:26:28Z</time>
      </trkpt>
      <trkpt lat="43.15408" lon="3.10514">
        <ele>202.813</ele>
        <time>2021-09-25T10:26:30Z</time>
      </trkpt>
      <trkpt lat="43.15408" lon="3.10514">
        <ele>202.818</ele>
        <time>2021-09-25T10:26:32Z</time>
      </trkpt>
      <trkpt lat="43.15408" lon="3.10514">
        <ele>202.823</ele>
        <time>2021-09-25T10:26:34Z</time>
      </trkpt>
      <trkpt lat="43.15408" lon="3.10514">
        <ele>202.829</ele>
        <time>2021-09-25T10:26:36Z</time>
      </trkpt>
      <trkpt lat="43.15408" lon="3.10514">
        <ele>202.831</ele>
        <time>2021-09-25T10:26:38Z</time>
      </trkpt>
      <trkpt lat="43.15408" lon="3.10514">
        <ele>202.836</ele>
        <time>2021-09-25T10:26:40Z</time>
      </trkpt>
      <trkpt lat="43.15408" lon="3.10514">
        <ele>202.84</ele>
        <time>2021-09-25T10:26:42Z</time>
      </trkpt>
      <trkpt lat="43.15408" lon="3.10514">
        <ele>202.845</ele>
        <time>2021-09-25T10:26:44Z</time>
      </trkpt>
      <trkpt lat="43.15408" lon="3.10514">
        <ele>202.845</ele>
        <time>2021-09-25T10:26:46Z</time>
      </trkpt>
      <trkpt lat="43.15408" lon="3.10514">
        <ele>202.849</ele>
        <time>2021-09-25T10:26:48Z</time>
      </trkpt>
      <trkpt lat="43.15408" lon="3.10514">
        <ele>202.848</ele>
        <time>2021-09-25T10:26:50Z</time>
      </trkpt>
      <trkpt lat="43.15408" lon="3.10514">
        <ele>202.848</ele>
        <time>2021-09-25T10:26:52Z</time>
      </trkpt>
      <trkpt lat="43.15408" lon="3.10514">
        <ele>202.842</ele>
        <time>2021-09-25T10:26:54Z</time>
      </trkpt>
      <trkpt lat="43.15408" lon="3.10514">
        <ele>202.842</ele>
        <time>2021-09-25T10:26:56Z</time>
      </trkpt>
      <trkpt lat="43.15408" lon="3.10514">
        <ele>202.842</ele>
        <time>2021-09-25T10:26:58Z</time>
      </trkpt>
      <trkpt lat="43.15408" lon="3.10514">
        <ele>202.841</ele>
        <time>2021-09-25T10:27:00Z</time>
      </trkpt>
      <trkpt lat="43.15408" lon="3.10514">
        <ele>202.837</ele>
        <time>2021-09-25T10:27:02Z</time>
      </trkpt>
      <trkpt lat="43.15407" lon="3.10513">
        <ele>203.077</ele>
        <time>2021-09-25T10:27:04Z</time>
      </trkpt>
      <trkpt lat="43.15406" lon="3.10513">
        <ele>203.542</ele>
        <time>2021-09-25T10:27:06Z</time>
      </trkpt>
      <trkpt lat="43.15406" lon="3.10512">
        <ele>203.561</ele>
        <time>2021-09-25T10:27:08Z</time>
      </trkpt>
      <trkpt lat="43.15406" lon="3.10512">
        <ele>203.554</ele>
        <time>2021-09-25T10:27:10Z</time>
      </trkpt>
      <trkpt lat="43.15406" lon="3.10512">
        <ele>203.553</ele>
        <time>2021-09-25T10:27:12Z</time>
      </trkpt>
      <trkpt lat="43.15406" lon="3.10512">
        <ele>203.551</ele>
        <time>2021-09-25T10:27:14Z</time>
      </trkpt>
      <trkpt lat="43.15406" lon="3.10512">
        <ele>203.548</ele>
        <time>2021-09-25T10:27:16Z</time>
      </trkpt>
      <trkpt lat="43.15406" lon="3.10512">
        <ele>203.545</ele>
        <time>2021-09-25T10:27:18Z</time>
      </trkpt>
      <trkpt lat="43.15406" lon="3.10512">
        <ele>203.546</ele>
        <time>2021-09-25T10:27:20Z</time>
      </trkpt>
      <trkpt lat="43.15406" lon="3.10512">
        <ele>203.544</ele>
        <time>2021-09-25T10:27:22Z</time>
      </trkpt>
      <trkpt lat="43.15406" lon="3.10512">
        <ele>203.542</ele>
        <time>2021-09-25T10:27:24Z</time>
      </trkpt>
      <trkpt lat="43.15406" lon="3.10512">
        <ele>203.538</ele>
        <time>2021-09-25T10:27:26Z</time>
      </trkpt>
      <trkpt lat="43.15406" lon="3.10512">
        <ele>203.536</ele>
        <time>2021-09-25T10:27:28Z</time>
      </trkpt>
      <trkpt lat="43.15406" lon="3.10512">
        <ele>203.533</ele>
        <time>2021-09-25T10:27:30Z</time>
      </trkpt>
      <trkpt lat="43.15406" lon="3.10512">
        <ele>203.528</ele>
        <time>2021-09-25T10:27:32Z</time>
      </trkpt>
      <trkpt lat="43.15406" lon="3.10512">
        <ele>203.527</ele>
        <time>2021-09-25T10:27:34Z</time>
      </trkpt>
      <trkpt lat="43.15406" lon="3.10512">
        <ele>203.524</ele>
        <time>2021-09-25T10:27:36Z</time>
      </trkpt>
      <trkpt lat="43.15406" lon="3.10512">
        <ele>203.521</ele>
        <time>2021-09-25T10:27:38Z</time>
      </trkpt>
      <trkpt lat="43.15406" lon="3.10512">
        <ele>203.517</ele>
        <time>2021-09-25T10:27:40Z</time>
      </trkpt>
      <trkpt lat="43.15406" lon="3.10512">
        <ele>203.513</ele>
        <time>2021-09-25T10:27:42Z</time>
      </trkpt>
      <trkpt lat="43.15406" lon="3.10512">
        <ele>203.51</ele>
        <time>2021-09-25T10:27:44Z</time>
      </trkpt>
      <trkpt lat="43.15406" lon="3.10512">
        <ele>203.509</ele>
        <time>2021-09-25T10:27:46Z</time>
      </trkpt>
      <trkpt lat="43.15406" lon="3.10512">
        <ele>203.508</ele>
        <time>2021-09-25T10:27:48Z</time>
      </trkpt>
      <trkpt lat="43.15406" lon="3.10512">
        <ele>203.507</ele>
        <time>2021-09-25T10:27:50Z</time>
      </trkpt>
      <trkpt lat="43.15406" lon="3.10512">
        <ele>203.504</ele>
        <time>2021-09-25T10:27:52Z</time>
      </trkpt>
      <trkpt lat="43.15406" lon="3.10512">
        <ele>203.502</ele>
        <time>2021-09-25T10:27:54Z</time>
      </trkpt>
      <trkpt lat="43.15406" lon="3.10512">
        <ele>203.503</ele>
        <time>2021-09-25T10:27:56Z</time>
      </trkpt>
      <trkpt lat="43.15406" lon="3.10512">
        <ele>203.501</ele>
        <time>2021-09-25T10:27:58Z</time>
      </trkpt>
      <trkpt lat="43.15406" lon="3.10512">
        <ele>203.5</ele>
        <time>2021-09-25T10:28:00Z</time>
      </trkpt>
      <trkpt lat="43.15406" lon="3.10512">
        <ele>203.499</ele>
        <time>2021-09-25T10:28:02Z</time>
      </trkpt>
      <trkpt lat="43.15406" lon="3.10512">
        <ele>203.496</ele>
        <time>2021-09-25T10:28:04Z</time>
      </trkpt>
      <trkpt lat="43.15406" lon="3.10512">
        <ele>203.496</ele>
        <time>2021-09-25T10:28:06Z</time>
      </trkpt>
      <trkpt lat="43.15406" lon="3.10512">
        <ele>203.493</ele>
        <time>2021-09-25T10:28:08Z</time>
      </trkpt>
      <trkpt lat="43.15406" lon="3.10512">
        <ele>203.491</ele>
        <time>2021-09-25T10:28:10Z</time>
      </trkpt>
      <trkpt lat="43.15406" lon="3.10512">
        <ele>203.49</ele>
        <time>2021-09-25T10:28:12Z</time>
      </trkpt>
      <trkpt lat="43.15406" lon="3.10512">
        <ele>203.482</ele>
        <time>2021-09-25T10:28:14Z</time>
      </trkpt>
      <trkpt lat="43.15406" lon="3.10512">
        <ele>203.481</ele>
        <time>2021-09-25T10:28:16Z</time>
      </trkpt>
      <trkpt lat="43.15406" lon="3.10512">
        <ele>203.477</ele>
        <time>2021-09-25T10:28:18Z</time>
      </trkpt>
      <trkpt lat="43.15406" lon="3.10512">
        <ele>203.476</ele>
        <time>2021-09-25T10:28:20Z</time>
      </trkpt>
      <trkpt lat="43.15406" lon="3.10512">
        <ele>203.474</ele>
        <time>2021-09-25T10:28:22Z</time>
      </trkpt>
      <trkpt lat="43.15406" lon="3.10512">
        <ele>203.473</ele>
        <time>2021-09-25T10:28:24Z</time>
      </trkpt>
      <trkpt lat="43.15406" lon="3.10512">
        <ele>203.469</ele>
        <time>2021-09-25T10:28:26Z</time>
      </trkpt>
      <trkpt lat="43.15406" lon="3.10512">
        <ele>203.467</ele>
        <time>2021-09-25T10:28:28Z</time>
      </trkpt>
      <trkpt lat="43.15406" lon="3.10512">
        <ele>203.463</ele>
        <time>2021-09-25T10:28:30Z</time>
      </trkpt>
      <trkpt lat="43.15406" lon="3.10512">
        <ele>203.459</ele>
        <time>2021-09-25T10:28:32Z</time>
      </trkpt>
      <trkpt lat="43.15406" lon="3.10512">
        <ele>203.454</ele>
        <time>2021-09-25T10:28:34Z</time>
      </trkpt>
      <trkpt lat="43.15406" lon="3.10512">
        <ele>203.445</ele>
        <time>2021-09-25T10:28:36Z</time>
      </trkpt>
      <trkpt lat="43.15406" lon="3.10512">
        <ele>203.443</ele>
        <time>2021-09-25T10:28:38Z</time>
      </trkpt>
      <trkpt lat="43.15406" lon="3.10512">
        <ele>203.443</ele>
        <time>2021-09-25T10:28:40Z</time>
      </trkpt>
      <trkpt lat="43.15406" lon="3.10512">
        <ele>203.444</ele>
        <time>2021-09-25T10:28:42Z</time>
      </trkpt>
      <trkpt lat="43.15406" lon="3.10512">
        <ele>203.44</ele>
        <time>2021-09-25T10:28:44Z</time>
      </trkpt>
      <trkpt lat="43.15406" lon="3.10512">
        <ele>203.439</ele>
        <time>2021-09-25T10:28:46Z</time>
      </trkpt>
      <trkpt lat="43.15406" lon="3.10512">
        <ele>203.431</ele>
        <time>2021-09-25T10:28:48Z</time>
      </trkpt>
      <trkpt lat="43.15406" lon="3.10512">
        <ele>203.621</ele>
        <time>2021-09-25T10:28:50Z</time>
      </trkpt>
      <trkpt lat="43.15406" lon="3.10512">
        <ele>203.615</ele>
        <time>2021-09-25T10:28:52Z</time>
      </trkpt>
      <trkpt lat="43.15406" lon="3.10512">
        <ele>203.614</ele>
        <time>2021-09-25T10:28:54Z</time>
      </trkpt>
      <trkpt lat="43.15406" lon="3.10512">
        <ele>203.61</ele>
        <time>2021-09-25T10:28:56Z</time>
      </trkpt>
      <trkpt lat="43.15406" lon="3.10512">
        <ele>203.609</ele>
        <time>2021-09-25T10:28:58Z</time>
      </trkpt>
      <trkpt lat="43.15406" lon="3.10512">
        <ele>203.603</ele>
        <time>2021-09-25T10:29:00Z</time>
      </trkpt>
      <trkpt lat="43.15406" lon="3.10512">
        <ele>203.598</ele>
        <time>2021-09-25T10:29:02Z</time>
      </trkpt>
      <trkpt lat="43.15406" lon="3.10512">
        <ele>203.591</ele>
        <time>2021-09-25T10:29:04Z</time>
      </trkpt>
      <trkpt lat="43.15406" lon="3.10512">
        <ele>203.585</ele>
        <time>2021-09-25T10:29:06Z</time>
      </trkpt>
      <trkpt lat="43.15406" lon="3.10512">
        <ele>203.584</ele>
        <time>2021-09-25T10:29:08Z</time>
      </trkpt>
      <trkpt lat="43.15406" lon="3.10512">
        <ele>203.584</ele>
        <time>2021-09-25T10:29:10Z</time>
      </trkpt>
      <trkpt lat="43.15406" lon="3.10512">
        <ele>203.581</ele>
        <time>2021-09-25T10:29:12Z</time>
      </trkpt>
      <trkpt lat="43.15406" lon="3.10512">
        <ele>203.579</ele>
        <time>2021-09-25T10:29:14Z</time>
      </trkpt>
      <trkpt lat="43.15406" lon="3.10512">
        <ele>203.575</ele>
        <time>2021-09-25T10:29:16Z</time>
      </trkpt>
      <trkpt lat="43.15406" lon="3.10512">
        <ele>203.573</ele>
        <time>2021-09-25T10:29:18Z</time>
      </trkpt>
      <trkpt lat="43.15406" lon="3.10512">
        <ele>203.571</ele>
        <time>2021-09-25T10:29:19Z</time>
      </trkpt>
      <trkpt lat="43.15406" lon="3.10512">
        <ele>203.565</ele>
        <time>2021-09-25T10:29:22Z</time>
      </trkpt>
      <trkpt lat="43.15406" lon="3.10513">
        <ele>203.532</ele>
        <time>2021-09-25T10:29:24Z</time>
      </trkpt>
      <trkpt lat="43.15406" lon="3.10513">
        <ele>203.529</ele>
        <time>2021-09-25T10:29:26Z</time>
      </trkpt>
      <trkpt lat="43.15406" lon="3.10513">
        <ele>203.529</ele>
        <time>2021-09-25T10:29:28Z</time>
      </trkpt>
      <trkpt lat="43.15406" lon="3.10513">
        <ele>203.526</ele>
        <time>2021-09-25T10:29:30Z</time>
      </trkpt>
      <trkpt lat="43.15406" lon="3.10513">
        <ele>203.527</ele>
        <time>2021-09-25T10:29:32Z</time>
      </trkpt>
      <trkpt lat="43.15406" lon="3.10513">
        <ele>203.523</ele>
        <time>2021-09-25T10:29:34Z</time>
      </trkpt>
      <trkpt lat="43.15406" lon="3.10513">
        <ele>203.518</ele>
        <time>2021-09-25T10:29:36Z</time>
      </trkpt>
      <trkpt lat="43.15406" lon="3.10513">
        <ele>203.515</ele>
        <time>2021-09-25T10:29:38Z</time>
      </trkpt>
      <trkpt lat="43.15406" lon="3.10513">
        <ele>203.515</ele>
        <time>2021-09-25T10:29:40Z</time>
      </trkpt>
      <trkpt lat="43.15406" lon="3.10513">
        <ele>203.515</ele>
        <time>2021-09-25T10:29:42Z</time>
      </trkpt>
      <trkpt lat="43.15406" lon="3.10513">
        <ele>203.514</ele>
        <time>2021-09-25T10:29:44Z</time>
      </trkpt>
      <trkpt lat="43.15406" lon="3.10513">
        <ele>203.513</ele>
        <time>2021-09-25T10:29:46Z</time>
      </trkpt>
      <trkpt lat="43.15406" lon="3.10513">
        <ele>203.509</ele>
        <time>2021-09-25T10:29:48Z</time>
      </trkpt>
      <trkpt lat="43.15406" lon="3.10513">
        <ele>203.503</ele>
        <time>2021-09-25T10:29:50Z</time>
      </trkpt>
      <trkpt lat="43.15406" lon="3.10513">
        <ele>203.498</ele>
        <time>2021-09-25T10:29:52Z</time>
      </trkpt>
      <trkpt lat="43.15406" lon="3.10513">
        <ele>203.497</ele>
        <time>2021-09-25T10:29:54Z</time>
      </trkpt>
      <trkpt lat="43.15406" lon="3.10513">
        <ele>203.49</ele>
        <time>2021-09-25T10:29:56Z</time>
      </trkpt>
      <trkpt lat="43.15406" lon="3.10513">
        <ele>203.488</ele>
        <time>2021-09-25T10:29:58Z</time>
      </trkpt>
      <trkpt lat="43.15406" lon="3.10513">
        <ele>203.484</ele>
        <time>2021-09-25T10:30:00Z</time>
      </trkpt>
      <trkpt lat="43.15406" lon="3.10513">
        <ele>203.477</ele>
        <time>2021-09-25T10:30:02Z</time>
      </trkpt>
      <trkpt lat="43.15406" lon="3.10513">
        <ele>203.474</ele>
        <time>2021-09-25T10:30:04Z</time>
      </trkpt>
      <trkpt lat="43.15406" lon="3.10513">
        <ele>203.47</ele>
        <time>2021-09-25T10:30:06Z</time>
      </trkpt>
      <trkpt lat="43.15406" lon="3.10513">
        <ele>203.462</ele>
        <time>2021-09-25T10:30:08Z</time>
      </trkpt>
      <trkpt lat="43.15406" lon="3.10513">
        <ele>203.457</ele>
        <time>2021-09-25T10:30:10Z</time>
      </trkpt>
      <trkpt lat="43.15406" lon="3.10513">
        <ele>203.452</ele>
        <time>2021-09-25T10:30:12Z</time>
      </trkpt>
      <trkpt lat="43.15406" lon="3.10513">
        <ele>203.448</ele>
        <time>2021-09-25T10:30:14Z</time>
      </trkpt>
      <trkpt lat="43.15406" lon="3.10513">
        <ele>203.445</ele>
        <time>2021-09-25T10:30:16Z</time>
      </trkpt>
      <trkpt lat="43.15406" lon="3.10513">
        <ele>203.44</ele>
        <time>2021-09-25T10:30:18Z</time>
      </trkpt>
      <trkpt lat="43.15406" lon="3.10513">
        <ele>203.434</ele>
        <time>2021-09-25T10:30:20Z</time>
      </trkpt>
      <trkpt lat="43.15406" lon="3.10513">
        <ele>203.423</ele>
        <time>2021-09-25T10:30:22Z</time>
      </trkpt>
      <trkpt lat="43.15406" lon="3.10513">
        <ele>203.423</ele>
        <time>2021-09-25T10:30:24Z</time>
      </trkpt>
      <trkpt lat="43.15406" lon="3.10513">
        <ele>203.41</ele>
        <time>2021-09-25T10:30:26Z</time>
      </trkpt>
      <trkpt lat="43.15406" lon="3.10513">
        <ele>203.41</ele>
        <time>2021-09-25T10:30:28Z</time>
      </trkpt>
      <trkpt lat="43.15406" lon="3.10513">
        <ele>203.409</ele>
        <time>2021-09-25T10:30:30Z</time>
      </trkpt>
      <trkpt lat="43.15406" lon="3.10513">
        <ele>203.41</ele>
        <time>2021-09-25T10:30:32Z</time>
      </trkpt>
      <trkpt lat="43.15406" lon="3.10513">
        <ele>203.409</ele>
        <time>2021-09-25T10:30:34Z</time>
      </trkpt>
      <trkpt lat="43.15406" lon="3.10513">
        <ele>202.722</ele>
        <time>2021-09-25T10:30:36Z</time>
      </trkpt>
      <trkpt lat="43.15406" lon="3.10513">
        <ele>202.186</ele>
        <time>2021-09-25T10:30:38Z</time>
      </trkpt>
      <trkpt lat="43.15406" lon="3.10514">
        <ele>201.858</ele>
        <time>2021-09-25T10:30:40Z</time>
      </trkpt>
      <trkpt lat="43.15406" lon="3.10514">
        <ele>201.855</ele>
        <time>2021-09-25T10:30:42Z</time>
      </trkpt>
      <trkpt lat="43.15406" lon="3.10514">
        <ele>201.853</ele>
        <time>2021-09-25T10:30:44Z</time>
      </trkpt>
      <trkpt lat="43.15406" lon="3.10514">
        <ele>201.853</ele>
        <time>2021-09-25T10:30:46Z</time>
      </trkpt>
      <trkpt lat="43.15406" lon="3.10514">
        <ele>201.851</ele>
        <time>2021-09-25T10:30:48Z</time>
      </trkpt>
      <trkpt lat="43.15406" lon="3.10514">
        <ele>201.85</ele>
        <time>2021-09-25T10:30:50Z</time>
      </trkpt>
      <trkpt lat="43.15406" lon="3.10514">
        <ele>201.845</ele>
        <time>2021-09-25T10:30:52Z</time>
      </trkpt>
      <trkpt lat="43.15406" lon="3.10514">
        <ele>201.843</ele>
        <time>2021-09-25T10:30:54Z</time>
      </trkpt>
      <trkpt lat="43.15406" lon="3.10514">
        <ele>201.841</ele>
        <time>2021-09-25T10:30:56Z</time>
      </trkpt>
      <trkpt lat="43.15406" lon="3.10514">
        <ele>201.84</ele>
        <time>2021-09-25T10:30:58Z</time>
      </trkpt>
      <trkpt lat="43.15406" lon="3.10514">
        <ele>201.835</ele>
        <time>2021-09-25T10:31:00Z</time>
      </trkpt>
      <trkpt lat="43.15406" lon="3.10514">
        <ele>201.831</ele>
        <time>2021-09-25T10:31:02Z</time>
      </trkpt>
      <trkpt lat="43.15406" lon="3.10514">
        <ele>201.827</ele>
        <time>2021-09-25T10:31:04Z</time>
      </trkpt>
      <trkpt lat="43.15406" lon="3.10514">
        <ele>201.823</ele>
        <time>2021-09-25T10:31:06Z</time>
      </trkpt>
      <trkpt lat="43.15407" lon="3.10514">
        <ele>201.699</ele>
        <time>2021-09-25T10:31:08Z</time>
      </trkpt>
      <trkpt lat="43.15407" lon="3.10514">
        <ele>201.746</ele>
        <time>2021-09-25T10:31:10Z</time>
      </trkpt>
      <trkpt lat="43.15407" lon="3.10514">
        <ele>201.746</ele>
        <time>2021-09-25T10:31:12Z</time>
      </trkpt>
      <trkpt lat="43.15407" lon="3.10514">
        <ele>201.745</ele>
        <time>2021-09-25T10:31:14Z</time>
      </trkpt>
      <trkpt lat="43.15407" lon="3.10514">
        <ele>201.743</ele>
        <time>2021-09-25T10:31:16Z</time>
      </trkpt>
      <trkpt lat="43.15407" lon="3.10514">
        <ele>201.74</ele>
        <time>2021-09-25T10:31:18Z</time>
      </trkpt>
      <trkpt lat="43.15407" lon="3.10514">
        <ele>201.737</ele>
        <time>2021-09-25T10:31:20Z</time>
      </trkpt>
      <trkpt lat="43.15407" lon="3.10514">
        <ele>201.731</ele>
        <time>2021-09-25T10:31:22Z</time>
      </trkpt>
      <trkpt lat="43.15407" lon="3.10514">
        <ele>201.729</ele>
        <time>2021-09-25T10:31:24Z</time>
      </trkpt>
      <trkpt lat="43.15407" lon="3.10514">
        <ele>201.726</ele>
        <time>2021-09-25T10:31:26Z</time>
      </trkpt>
      <trkpt lat="43.15407" lon="3.10514">
        <ele>201.724</ele>
        <time>2021-09-25T10:31:28Z</time>
      </trkpt>
      <trkpt lat="43.15407" lon="3.10514">
        <ele>201.722</ele>
        <time>2021-09-25T10:31:30Z</time>
      </trkpt>
      <trkpt lat="43.15407" lon="3.10514">
        <ele>201.718</ele>
        <time>2021-09-25T10:31:32Z</time>
      </trkpt>
      <trkpt lat="43.15407" lon="3.10514">
        <ele>201.714</ele>
        <time>2021-09-25T10:31:34Z</time>
      </trkpt>
      <trkpt lat="43.15407" lon="3.10514">
        <ele>201.713</ele>
        <time>2021-09-25T10:31:36Z</time>
      </trkpt>
      <trkpt lat="43.15407" lon="3.10514">
        <ele>201.711</ele>
        <time>2021-09-25T10:31:37Z</time>
      </trkpt>
      <trkpt lat="43.15407" lon="3.10514">
        <ele>201.707</ele>
        <time>2021-09-25T10:31:40Z</time>
      </trkpt>
      <trkpt lat="43.15407" lon="3.10514">
        <ele>201.704</ele>
        <time>2021-09-25T10:31:42Z</time>
      </trkpt>
      <trkpt lat="43.15407" lon="3.10514">
        <ele>201.701</ele>
        <time>2021-09-25T10:31:44Z</time>
      </trkpt>
      <trkpt lat="43.15407" lon="3.10514">
        <ele>201.696</ele>
        <time>2021-09-25T10:31:46Z</time>
      </trkpt>
      <trkpt lat="43.15407" lon="3.10514">
        <ele>201.69</ele>
        <time>2021-09-25T10:31:48Z</time>
      </trkpt>
      <trkpt lat="43.15407" lon="3.10514">
        <ele>201.687</ele>
        <time>2021-09-25T10:31:50Z</time>
      </trkpt>
      <trkpt lat="43.15407" lon="3.10514">
        <ele>201.686</ele>
        <time>2021-09-25T10:31:52Z</time>
      </trkpt>
      <trkpt lat="43.15407" lon="3.10514">
        <ele>201.685</ele>
        <time>2021-09-25T10:31:54Z</time>
      </trkpt>
      <trkpt lat="43.15407" lon="3.10514">
        <ele>201.684</ele>
        <time>2021-09-25T10:31:56Z</time>
      </trkpt>
      <trkpt lat="43.15407" lon="3.10514">
        <ele>201.681</ele>
        <time>2021-09-25T10:31:58Z</time>
      </trkpt>
      <trkpt lat="43.15407" lon="3.10514">
        <ele>201.679</ele>
        <time>2021-09-25T10:32:00Z</time>
      </trkpt>
      <trkpt lat="43.15407" lon="3.10514">
        <ele>201.676</ele>
        <time>2021-09-25T10:32:02Z</time>
      </trkpt>
      <trkpt lat="43.15407" lon="3.10514">
        <ele>201.674</ele>
        <time>2021-09-25T10:32:04Z</time>
      </trkpt>
      <trkpt lat="43.15407" lon="3.10514">
        <ele>201.671</ele>
        <time>2021-09-25T10:32:06Z</time>
      </trkpt>
      <trkpt lat="43.15407" lon="3.10514">
        <ele>201.669</ele>
        <time>2021-09-25T10:32:08Z</time>
      </trkpt>
      <trkpt lat="43.15407" lon="3.10514">
        <ele>201.669</ele>
        <time>2021-09-25T10:32:10Z</time>
      </trkpt>
      <trkpt lat="43.15407" lon="3.10514">
        <ele>201.668</ele>
        <time>2021-09-25T10:32:12Z</time>
      </trkpt>
      <trkpt lat="43.15407" lon="3.10514">
        <ele>201.667</ele>
        <time>2021-09-25T10:32:14Z</time>
      </trkpt>
      <trkpt lat="43.15407" lon="3.10514">
        <ele>201.667</ele>
        <time>2021-09-25T10:32:16Z</time>
      </trkpt>
      <trkpt lat="43.15407" lon="3.10514">
        <ele>201.668</ele>
        <time>2021-09-25T10:32:18Z</time>
      </trkpt>
      <trkpt lat="43.15407" lon="3.10514">
        <ele>201.667</ele>
        <time>2021-09-25T10:32:20Z</time>
      </trkpt>
      <trkpt lat="43.15407" lon="3.10514">
        <ele>201.668</ele>
        <time>2021-09-25T10:32:22Z</time>
      </trkpt>
      <trkpt lat="43.15407" lon="3.10514">
        <ele>201.668</ele>
        <time>2021-09-25T10:32:24Z</time>
      </trkpt>
      <trkpt lat="43.15407" lon="3.10514">
        <ele>201.411</ele>
        <time>2021-09-25T10:32:26Z</time>
      </trkpt>
      <trkpt lat="43.15406" lon="3.10514">
        <ele>201.4</ele>
        <time>2021-09-25T10:32:28Z</time>
      </trkpt>
      <trkpt lat="43.15406" lon="3.10513">
        <ele>201.406</ele>
        <time>2021-09-25T10:32:30Z</time>
      </trkpt>
      <trkpt lat="43.15404" lon="3.10512">
        <ele>200.783</ele>
        <time>2021-09-25T10:32:32Z</time>
      </trkpt>
      <trkpt lat="43.15403" lon="3.10509">
        <ele>200.472</ele>
        <time>2021-09-25T10:32:34Z</time>
      </trkpt>
      <trkpt lat="43.15402" lon="3.10506">
        <ele>200.066</ele>
        <time>2021-09-25T10:32:36Z</time>
      </trkpt>
      <trkpt lat="43.15401" lon="3.10504">
        <ele>199.272</ele>
        <time>2021-09-25T10:32:38Z</time>
      </trkpt>
      <trkpt lat="43.154" lon="3.10503">
        <ele>198.561</ele>
        <time>2021-09-25T10:32:40Z</time>
      </trkpt>
      <trkpt lat="43.15399" lon="3.10501">
        <ele>198.021</ele>
        <time>2021-09-25T10:32:42Z</time>
      </trkpt>
      <trkpt lat="43.15397" lon="3.105">
        <ele>197</ele>
        <time>2021-09-25T10:32:44Z</time>
      </trkpt>
      <trkpt lat="43.15396" lon="3.10498">
        <ele>196.919</ele>
        <time>2021-09-25T10:32:46Z</time>
      </trkpt>
      <trkpt lat="43.15394" lon="3.10497">
        <ele>196.845</ele>
        <time>2021-09-25T10:32:48Z</time>
      </trkpt>
      <trkpt lat="43.15393" lon="3.10497">
        <ele>195.582</ele>
        <time>2021-09-25T10:32:50Z</time>
      </trkpt>
      <trkpt lat="43.15391" lon="3.10495">
        <ele>195.174</ele>
        <time>2021-09-25T10:32:52Z</time>
      </trkpt>
      <trkpt lat="43.15389" lon="3.10493">
        <ele>194.241</ele>
        <time>2021-09-25T10:32:54Z</time>
      </trkpt>
      <trkpt lat="43.15388" lon="3.10492">
        <ele>193.499</ele>
        <time>2021-09-25T10:32:56Z</time>
      </trkpt>
      <trkpt lat="43.15386" lon="3.10491">
        <ele>192.746</ele>
        <time>2021-09-25T10:32:58Z</time>
      </trkpt>
      <trkpt lat="43.15384" lon="3.1049">
        <ele>192.508</ele>
        <time>2021-09-25T10:33:00Z</time>
      </trkpt>
      <trkpt lat="43.15382" lon="3.10488">
        <ele>192.082</ele>
        <time>2021-09-25T10:33:02Z</time>
      </trkpt>
      <trkpt lat="43.1538" lon="3.10488">
        <ele>191.987</ele>
        <time>2021-09-25T10:33:04Z</time>
      </trkpt>
      <trkpt lat="43.15378" lon="3.10487">
        <ele>191.721</ele>
        <time>2021-09-25T10:33:06Z</time>
      </trkpt>
      <trkpt lat="43.15376" lon="3.10486">
        <ele>191.317</ele>
        <time>2021-09-25T10:33:08Z</time>
      </trkpt>
      <trkpt lat="43.15373" lon="3.10485">
        <ele>190.629</ele>
        <time>2021-09-25T10:33:10Z</time>
      </trkpt>
      <trkpt lat="43.15371" lon="3.10484">
        <ele>190.328</ele>
        <time>2021-09-25T10:33:12Z</time>
      </trkpt>
      <trkpt lat="43.15369" lon="3.10483">
        <ele>190.383</ele>
        <time>2021-09-25T10:33:14Z</time>
      </trkpt>
      <trkpt lat="43.15367" lon="3.10481">
        <ele>189.626</ele>
        <time>2021-09-25T10:33:16Z</time>
      </trkpt>
      <trkpt lat="43.15364" lon="3.10479">
        <ele>189.728</ele>
        <time>2021-09-25T10:33:19Z</time>
      </trkpt>
      <trkpt lat="43.15363" lon="3.10477">
        <ele>189.246</ele>
        <time>2021-09-25T10:33:21Z</time>
      </trkpt>
      <trkpt lat="43.15361" lon="3.10476">
        <ele>189.905</ele>
        <time>2021-09-25T10:33:23Z</time>
      </trkpt>
      <trkpt lat="43.1536" lon="3.10475">
        <ele>191.3</ele>
        <time>2021-09-25T10:33:25Z</time>
      </trkpt>
      <trkpt lat="43.15359" lon="3.10474">
        <ele>190.913</ele>
        <time>2021-09-25T10:33:27Z</time>
      </trkpt>
      <trkpt lat="43.15359" lon="3.10474">
        <ele>190.911</ele>
        <time>2021-09-25T10:33:29Z</time>
      </trkpt>
      <trkpt lat="43.15359" lon="3.10474">
        <ele>190.912</ele>
        <time>2021-09-25T10:33:31Z</time>
      </trkpt>
      <trkpt lat="43.15359" lon="3.10474">
        <ele>190.913</ele>
        <time>2021-09-25T10:33:33Z</time>
      </trkpt>
      <trkpt lat="43.15359" lon="3.10474">
        <ele>190.956</ele>
        <time>2021-09-25T10:33:35Z</time>
      </trkpt>
      <trkpt lat="43.15359" lon="3.10474">
        <ele>190.9</ele>
        <time>2021-09-25T10:33:37Z</time>
      </trkpt>
      <trkpt lat="43.15358" lon="3.10474">
        <ele>191.111</ele>
        <time>2021-09-25T10:33:39Z</time>
      </trkpt>
      <trkpt lat="43.15356" lon="3.10472">
        <ele>190.697</ele>
        <time>2021-09-25T10:33:41Z</time>
      </trkpt>
      <trkpt lat="43.15354" lon="3.10471">
        <ele>190.992</ele>
        <time>2021-09-25T10:33:43Z</time>
      </trkpt>
      <trkpt lat="43.15352" lon="3.1047">
        <ele>190.792</ele>
        <time>2021-09-25T10:33:45Z</time>
      </trkpt>
      <trkpt lat="43.1535" lon="3.10467">
        <ele>192.156</ele>
        <time>2021-09-25T10:33:47Z</time>
      </trkpt>
      <trkpt lat="43.15348" lon="3.10465">
        <ele>192.929</ele>
        <time>2021-09-25T10:33:49Z</time>
      </trkpt>
      <trkpt lat="43.15346" lon="3.10463">
        <ele>193.356</ele>
        <time>2021-09-25T10:33:51Z</time>
      </trkpt>
      <trkpt lat="43.15344" lon="3.10461">
        <ele>193.106</ele>
        <time>2021-09-25T10:33:53Z</time>
      </trkpt>
      <trkpt lat="43.15342" lon="3.1046">
        <ele>193.082</ele>
        <time>2021-09-25T10:33:55Z</time>
      </trkpt>
      <trkpt lat="43.15341" lon="3.10461">
        <ele>191.877</ele>
        <time>2021-09-25T10:33:57Z</time>
      </trkpt>
      <trkpt lat="43.15339" lon="3.10461">
        <ele>192.47</ele>
        <time>2021-09-25T10:33:59Z</time>
      </trkpt>
      <trkpt lat="43.15337" lon="3.10463">
        <ele>191.981</ele>
        <time>2021-09-25T10:34:01Z</time>
      </trkpt>
      <trkpt lat="43.15335" lon="3.10465">
        <ele>192.129</ele>
        <time>2021-09-25T10:34:03Z</time>
      </trkpt>
      <trkpt lat="43.15333" lon="3.10465">
        <ele>192.599</ele>
        <time>2021-09-25T10:34:05Z</time>
      </trkpt>
      <trkpt lat="43.15331" lon="3.10466">
        <ele>192.34</ele>
        <time>2021-09-25T10:34:07Z</time>
      </trkpt>
      <trkpt lat="43.15329" lon="3.10466">
        <ele>191.216</ele>
        <time>2021-09-25T10:34:09Z</time>
      </trkpt>
      <trkpt lat="43.15327" lon="3.10465">
        <ele>190.269</ele>
        <time>2021-09-25T10:34:11Z</time>
      </trkpt>
      <trkpt lat="43.15325" lon="3.10464">
        <ele>188.876</ele>
        <time>2021-09-25T10:34:13Z</time>
      </trkpt>
      <trkpt lat="43.15323" lon="3.10464">
        <ele>187.91</ele>
        <time>2021-09-25T10:34:15Z</time>
      </trkpt>
      <trkpt lat="43.15321" lon="3.10462">
        <ele>188.456</ele>
        <time>2021-09-25T10:34:17Z</time>
      </trkpt>
      <trkpt lat="43.15319" lon="3.10461">
        <ele>189.478</ele>
        <time>2021-09-25T10:34:19Z</time>
      </trkpt>
      <trkpt lat="43.15316" lon="3.1046">
        <ele>188.553</ele>
        <time>2021-09-25T10:34:21Z</time>
      </trkpt>
      <trkpt lat="43.15314" lon="3.10459">
        <ele>188.342</ele>
        <time>2021-09-25T10:34:23Z</time>
      </trkpt>
      <trkpt lat="43.15312" lon="3.10458">
        <ele>186.188</ele>
        <time>2021-09-25T10:34:25Z</time>
      </trkpt>
      <trkpt lat="43.15309" lon="3.10456">
        <ele>184.591</ele>
        <time>2021-09-25T10:34:27Z</time>
      </trkpt>
      <trkpt lat="43.15307" lon="3.10456">
        <ele>184.264</ele>
        <time>2021-09-25T10:34:29Z</time>
      </trkpt>
      <trkpt lat="43.15305" lon="3.10456">
        <ele>183.993</ele>
        <time>2021-09-25T10:34:31Z</time>
      </trkpt>
      <trkpt lat="43.15303" lon="3.10453">
        <ele>184.344</ele>
        <time>2021-09-25T10:34:33Z</time>
      </trkpt>
      <trkpt lat="43.15299" lon="3.10455">
        <ele>187.927</ele>
        <time>2021-09-25T10:34:35Z</time>
      </trkpt>
      <trkpt lat="43.15297" lon="3.10456">
        <ele>188.655</ele>
        <time>2021-09-25T10:34:37Z</time>
      </trkpt>
      <trkpt lat="43.15297" lon="3.10456">
        <ele>188.722</ele>
        <time>2021-09-25T10:34:39Z</time>
      </trkpt>
      <trkpt lat="43.15297" lon="3.10456">
        <ele>188.731</ele>
        <time>2021-09-25T10:34:41Z</time>
      </trkpt>
      <trkpt lat="43.15297" lon="3.10456">
        <ele>188.741</ele>
        <time>2021-09-25T10:34:43Z</time>
      </trkpt>
      <trkpt lat="43.15296" lon="3.10456">
        <ele>189.295</ele>
        <time>2021-09-25T10:34:45Z</time>
      </trkpt>
      <trkpt lat="43.15295" lon="3.10456">
        <ele>189.81</ele>
        <time>2021-09-25T10:34:47Z</time>
      </trkpt>
      <trkpt lat="43.15292" lon="3.10456">
        <ele>189.405</ele>
        <time>2021-09-25T10:34:49Z</time>
      </trkpt>
      <trkpt lat="43.15289" lon="3.10456">
        <ele>189.789</ele>
        <time>2021-09-25T10:34:51Z</time>
      </trkpt>
      <trkpt lat="43.15287" lon="3.10456">
        <ele>188.849</ele>
        <time>2021-09-25T10:34:53Z</time>
      </trkpt>
      <trkpt lat="43.15284" lon="3.10455">
        <ele>188.845</ele>
        <time>2021-09-25T10:34:55Z</time>
      </trkpt>
      <trkpt lat="43.15281" lon="3.10455">
        <ele>188.936</ele>
        <time>2021-09-25T10:34:57Z</time>
      </trkpt>
      <trkpt lat="43.15278" lon="3.10455">
        <ele>189.186</ele>
        <time>2021-09-25T10:34:59Z</time>
      </trkpt>
      <trkpt lat="43.15276" lon="3.10454">
        <ele>188.996</ele>
        <time>2021-09-25T10:35:01Z</time>
      </trkpt>
      <trkpt lat="43.15273" lon="3.10452">
        <ele>187.585</ele>
        <time>2021-09-25T10:35:03Z</time>
      </trkpt>
      <trkpt lat="43.15271" lon="3.10451">
        <ele>187.418</ele>
        <time>2021-09-25T10:35:05Z</time>
      </trkpt>
      <trkpt lat="43.15268" lon="3.10449">
        <ele>188.696</ele>
        <time>2021-09-25T10:35:07Z</time>
      </trkpt>
      <trkpt lat="43.15266" lon="3.10448">
        <ele>189.798</ele>
        <time>2021-09-25T10:35:09Z</time>
      </trkpt>
      <trkpt lat="43.15264" lon="3.10447">
        <ele>190.065</ele>
        <time>2021-09-25T10:35:11Z</time>
      </trkpt>
      <trkpt lat="43.15261" lon="3.10446">
        <ele>189.232</ele>
        <time>2021-09-25T10:35:13Z</time>
      </trkpt>
      <trkpt lat="43.15258" lon="3.10446">
        <ele>188.7</ele>
        <time>2021-09-25T10:35:15Z</time>
      </trkpt>
      <trkpt lat="43.15256" lon="3.10446">
        <ele>188.339</ele>
        <time>2021-09-25T10:35:17Z</time>
      </trkpt>
      <trkpt lat="43.15253" lon="3.10447">
        <ele>189.482</ele>
        <time>2021-09-25T10:35:19Z</time>
      </trkpt>
      <trkpt lat="43.15251" lon="3.1045">
        <ele>190.097</ele>
        <time>2021-09-25T10:35:21Z</time>
      </trkpt>
      <trkpt lat="43.15249" lon="3.10452">
        <ele>189.622</ele>
        <time>2021-09-25T10:35:23Z</time>
      </trkpt>
      <trkpt lat="43.15247" lon="3.10453">
        <ele>190.662</ele>
        <time>2021-09-25T10:35:25Z</time>
      </trkpt>
      <trkpt lat="43.15244" lon="3.10455">
        <ele>190.841</ele>
        <time>2021-09-25T10:35:27Z</time>
      </trkpt>
      <trkpt lat="43.15242" lon="3.10456">
        <ele>191.293</ele>
        <time>2021-09-25T10:35:29Z</time>
      </trkpt>
      <trkpt lat="43.15239" lon="3.10456">
        <ele>192.401</ele>
        <time>2021-09-25T10:35:31Z</time>
      </trkpt>
      <trkpt lat="43.15237" lon="3.10456">
        <ele>191.437</ele>
        <time>2021-09-25T10:35:33Z</time>
      </trkpt>
      <trkpt lat="43.15235" lon="3.10456">
        <ele>191.618</ele>
        <time>2021-09-25T10:35:35Z</time>
      </trkpt>
      <trkpt lat="43.15232" lon="3.10456">
        <ele>191.739</ele>
        <time>2021-09-25T10:35:37Z</time>
      </trkpt>
      <trkpt lat="43.15229" lon="3.10456">
        <ele>191.594</ele>
        <time>2021-09-25T10:35:39Z</time>
      </trkpt>
      <trkpt lat="43.15227" lon="3.10457">
        <ele>190.59</ele>
        <time>2021-09-25T10:35:41Z</time>
      </trkpt>
      <trkpt lat="43.15224" lon="3.10459">
        <ele>190.88</ele>
        <time>2021-09-25T10:35:43Z</time>
      </trkpt>
      <trkpt lat="43.15221" lon="3.10461">
        <ele>190.53</ele>
        <time>2021-09-25T10:35:45Z</time>
      </trkpt>
      <trkpt lat="43.15219" lon="3.10463">
        <ele>190.418</ele>
        <time>2021-09-25T10:35:47Z</time>
      </trkpt>
      <trkpt lat="43.15217" lon="3.10466">
        <ele>190.316</ele>
        <time>2021-09-25T10:35:49Z</time>
      </trkpt>
      <trkpt lat="43.15215" lon="3.10468">
        <ele>189.999</ele>
        <time>2021-09-25T10:35:51Z</time>
      </trkpt>
      <trkpt lat="43.15213" lon="3.1047">
        <ele>189.661</ele>
        <time>2021-09-25T10:35:53Z</time>
      </trkpt>
      <trkpt lat="43.15211" lon="3.10471">
        <ele>189.228</ele>
        <time>2021-09-25T10:35:55Z</time>
      </trkpt>
      <trkpt lat="43.15208" lon="3.10472">
        <ele>189.653</ele>
        <time>2021-09-25T10:35:57Z</time>
      </trkpt>
      <trkpt lat="43.15205" lon="3.10472">
        <ele>189.391</ele>
        <time>2021-09-25T10:35:59Z</time>
      </trkpt>
      <trkpt lat="43.15203" lon="3.10474">
        <ele>188.951</ele>
        <time>2021-09-25T10:36:01Z</time>
      </trkpt>
      <trkpt lat="43.15201" lon="3.10475">
        <ele>189.913</ele>
        <time>2021-09-25T10:36:03Z</time>
      </trkpt>
      <trkpt lat="43.15198" lon="3.10476">
        <ele>190.532</ele>
        <time>2021-09-25T10:36:05Z</time>
      </trkpt>
      <trkpt lat="43.15196" lon="3.10477">
        <ele>190.869</ele>
        <time>2021-09-25T10:36:07Z</time>
      </trkpt>
      <trkpt lat="43.15193" lon="3.10477">
        <ele>190.901</ele>
        <time>2021-09-25T10:36:09Z</time>
      </trkpt>
      <trkpt lat="43.15191" lon="3.10477">
        <ele>191.418</ele>
        <time>2021-09-25T10:36:11Z</time>
      </trkpt>
      <trkpt lat="43.15188" lon="3.10477">
        <ele>190.511</ele>
        <time>2021-09-25T10:36:13Z</time>
      </trkpt>
      <trkpt lat="43.15185" lon="3.10478">
        <ele>190.588</ele>
        <time>2021-09-25T10:36:15Z</time>
      </trkpt>
      <trkpt lat="43.15182" lon="3.10479">
        <ele>191.099</ele>
        <time>2021-09-25T10:36:17Z</time>
      </trkpt>
      <trkpt lat="43.15179" lon="3.10481">
        <ele>190.879</ele>
        <time>2021-09-25T10:36:19Z</time>
      </trkpt>
      <trkpt lat="43.15176" lon="3.10481">
        <ele>190.208</ele>
        <time>2021-09-25T10:36:21Z</time>
      </trkpt>
      <trkpt lat="43.15173" lon="3.10483">
        <ele>189.636</ele>
        <time>2021-09-25T10:36:23Z</time>
      </trkpt>
      <trkpt lat="43.15171" lon="3.10485">
        <ele>189.763</ele>
        <time>2021-09-25T10:36:25Z</time>
      </trkpt>
      <trkpt lat="43.15168" lon="3.10487">
        <ele>190.219</ele>
        <time>2021-09-25T10:36:27Z</time>
      </trkpt>
      <trkpt lat="43.15166" lon="3.10489">
        <ele>190.183</ele>
        <time>2021-09-25T10:36:29Z</time>
      </trkpt>
      <trkpt lat="43.15163" lon="3.10489">
        <ele>189.604</ele>
        <time>2021-09-25T10:36:31Z</time>
      </trkpt>
      <trkpt lat="43.15159" lon="3.10492">
        <ele>189.784</ele>
        <time>2021-09-25T10:36:33Z</time>
      </trkpt>
      <trkpt lat="43.15156" lon="3.10494">
        <ele>190.061</ele>
        <time>2021-09-25T10:36:35Z</time>
      </trkpt>
      <trkpt lat="43.15154" lon="3.10496">
        <ele>188.967</ele>
        <time>2021-09-25T10:36:37Z</time>
      </trkpt>
      <trkpt lat="43.15152" lon="3.10498">
        <ele>188.596</ele>
        <time>2021-09-25T10:36:39Z</time>
      </trkpt>
      <trkpt lat="43.15149" lon="3.105">
        <ele>188.601</ele>
        <time>2021-09-25T10:36:41Z</time>
      </trkpt>
      <trkpt lat="43.15147" lon="3.10502">
        <ele>189.233</ele>
        <time>2021-09-25T10:36:43Z</time>
      </trkpt>
      <trkpt lat="43.15145" lon="3.10505">
        <ele>189.351</ele>
        <time>2021-09-25T10:36:45Z</time>
      </trkpt>
      <trkpt lat="43.15143" lon="3.10506">
        <ele>188.833</ele>
        <time>2021-09-25T10:36:47Z</time>
      </trkpt>
      <trkpt lat="43.15142" lon="3.10509">
        <ele>188.646</ele>
        <time>2021-09-25T10:36:49Z</time>
      </trkpt>
      <trkpt lat="43.1514" lon="3.10511">
        <ele>188.661</ele>
        <time>2021-09-25T10:36:51Z</time>
      </trkpt>
      <trkpt lat="43.15137" lon="3.10514">
        <ele>188.203</ele>
        <time>2021-09-25T10:36:53Z</time>
      </trkpt>
      <trkpt lat="43.15135" lon="3.10515">
        <ele>188.88</ele>
        <time>2021-09-25T10:36:55Z</time>
      </trkpt>
      <trkpt lat="43.15133" lon="3.10516">
        <ele>188.755</ele>
        <time>2021-09-25T10:36:57Z</time>
      </trkpt>
      <trkpt lat="43.1513" lon="3.10518">
        <ele>188.78</ele>
        <time>2021-09-25T10:36:59Z</time>
      </trkpt>
      <trkpt lat="43.15128" lon="3.1052">
        <ele>188.812</ele>
        <time>2021-09-25T10:37:01Z</time>
      </trkpt>
      <trkpt lat="43.15128" lon="3.10524">
        <ele>188.173</ele>
        <time>2021-09-25T10:37:03Z</time>
      </trkpt>
      <trkpt lat="43.15126" lon="3.10526">
        <ele>188.765</ele>
        <time>2021-09-25T10:37:05Z</time>
      </trkpt>
      <trkpt lat="43.15123" lon="3.10527">
        <ele>188.03</ele>
        <time>2021-09-25T10:37:07Z</time>
      </trkpt>
      <trkpt lat="43.15119" lon="3.10524">
        <ele>187.049</ele>
        <time>2021-09-25T10:37:09Z</time>
      </trkpt>
      <trkpt lat="43.15117" lon="3.10525">
        <ele>187.366</ele>
        <time>2021-09-25T10:37:11Z</time>
      </trkpt>
      <trkpt lat="43.15114" lon="3.10526">
        <ele>186.44</ele>
        <time>2021-09-25T10:37:13Z</time>
      </trkpt>
      <trkpt lat="43.15113" lon="3.10528">
        <ele>186.905</ele>
        <time>2021-09-25T10:37:15Z</time>
      </trkpt>
      <trkpt lat="43.15111" lon="3.1053">
        <ele>186.585</ele>
        <time>2021-09-25T10:37:17Z</time>
      </trkpt>
      <trkpt lat="43.15109" lon="3.10533">
        <ele>186.835</ele>
        <time>2021-09-25T10:37:19Z</time>
      </trkpt>
      <trkpt lat="43.15106" lon="3.10535">
        <ele>186.968</ele>
        <time>2021-09-25T10:37:21Z</time>
      </trkpt>
      <trkpt lat="43.15104" lon="3.10537">
        <ele>187.061</ele>
        <time>2021-09-25T10:37:23Z</time>
      </trkpt>
      <trkpt lat="43.15101" lon="3.10539">
        <ele>187.106</ele>
        <time>2021-09-25T10:37:25Z</time>
      </trkpt>
      <trkpt lat="43.15099" lon="3.10541">
        <ele>187.425</ele>
        <time>2021-09-25T10:37:27Z</time>
      </trkpt>
      <trkpt lat="43.15097" lon="3.10542">
        <ele>187.319</ele>
        <time>2021-09-25T10:37:29Z</time>
      </trkpt>
      <trkpt lat="43.15095" lon="3.10543">
        <ele>187.501</ele>
        <time>2021-09-25T10:37:31Z</time>
      </trkpt>
      <trkpt lat="43.15093" lon="3.10544">
        <ele>187.62</ele>
        <time>2021-09-25T10:37:33Z</time>
      </trkpt>
      <trkpt lat="43.1509" lon="3.10545">
        <ele>188.098</ele>
        <time>2021-09-25T10:37:35Z</time>
      </trkpt>
      <trkpt lat="43.15088" lon="3.10546">
        <ele>187.708</ele>
        <time>2021-09-25T10:37:37Z</time>
      </trkpt>
      <trkpt lat="43.15085" lon="3.10547">
        <ele>188.255</ele>
        <time>2021-09-25T10:37:39Z</time>
      </trkpt>
      <trkpt lat="43.15083" lon="3.10547">
        <ele>187.692</ele>
        <time>2021-09-25T10:37:41Z</time>
      </trkpt>
      <trkpt lat="43.1508" lon="3.10548">
        <ele>187.103</ele>
        <time>2021-09-25T10:37:43Z</time>
      </trkpt>
      <trkpt lat="43.15078" lon="3.10549">
        <ele>187.333</ele>
        <time>2021-09-25T10:37:45Z</time>
      </trkpt>
      <trkpt lat="43.15076" lon="3.1055">
        <ele>187.072</ele>
        <time>2021-09-25T10:37:47Z</time>
      </trkpt>
      <trkpt lat="43.15073" lon="3.10551">
        <ele>187.063</ele>
        <time>2021-09-25T10:37:49Z</time>
      </trkpt>
      <trkpt lat="43.15071" lon="3.10552">
        <ele>186.703</ele>
        <time>2021-09-25T10:37:51Z</time>
      </trkpt>
      <trkpt lat="43.15069" lon="3.10554">
        <ele>186.466</ele>
        <time>2021-09-25T10:37:53Z</time>
      </trkpt>
      <trkpt lat="43.15066" lon="3.10555">
        <ele>186.628</ele>
        <time>2021-09-25T10:37:55Z</time>
      </trkpt>
      <trkpt lat="43.15064" lon="3.10555">
        <ele>186.691</ele>
        <time>2021-09-25T10:37:57Z</time>
      </trkpt>
      <trkpt lat="43.15062" lon="3.10556">
        <ele>186.471</ele>
        <time>2021-09-25T10:37:59Z</time>
      </trkpt>
      <trkpt lat="43.15059" lon="3.10557">
        <ele>185.554</ele>
        <time>2021-09-25T10:38:01Z</time>
      </trkpt>
      <trkpt lat="43.15057" lon="3.10558">
        <ele>185.053</ele>
        <time>2021-09-25T10:38:03Z</time>
      </trkpt>
      <trkpt lat="43.15054" lon="3.10559">
        <ele>184.574</ele>
        <time>2021-09-25T10:38:05Z</time>
      </trkpt>
      <trkpt lat="43.15053" lon="3.10561">
        <ele>185.967</ele>
        <time>2021-09-25T10:38:07Z</time>
      </trkpt>
      <trkpt lat="43.15051" lon="3.10563">
        <ele>186.454</ele>
        <time>2021-09-25T10:38:09Z</time>
      </trkpt>
      <trkpt lat="43.1505" lon="3.10564">
        <ele>186.778</ele>
        <time>2021-09-25T10:38:11Z</time>
      </trkpt>
      <trkpt lat="43.15049" lon="3.10566">
        <ele>186.922</ele>
        <time>2021-09-25T10:38:13Z</time>
      </trkpt>
      <trkpt lat="43.15049" lon="3.10566">
        <ele>186.919</ele>
        <time>2021-09-25T10:38:15Z</time>
      </trkpt>
      <trkpt lat="43.15049" lon="3.10566">
        <ele>186.915</ele>
        <time>2021-09-25T10:38:17Z</time>
      </trkpt>
      <trkpt lat="43.15049" lon="3.10566">
        <ele>186.912</ele>
        <time>2021-09-25T10:38:19Z</time>
      </trkpt>
      <trkpt lat="43.15049" lon="3.10566">
        <ele>186.863</ele>
        <time>2021-09-25T10:38:21Z</time>
      </trkpt>
      <trkpt lat="43.15049" lon="3.10566">
        <ele>186.748</ele>
        <time>2021-09-25T10:38:23Z</time>
      </trkpt>
      <trkpt lat="43.15048" lon="3.10568">
        <ele>187.046</ele>
        <time>2021-09-25T10:38:25Z</time>
      </trkpt>
      <trkpt lat="43.15048" lon="3.10568">
        <ele>186.76</ele>
        <time>2021-09-25T10:38:27Z</time>
      </trkpt>
      <trkpt lat="43.15048" lon="3.10568">
        <ele>186.76</ele>
        <time>2021-09-25T10:38:29Z</time>
      </trkpt>
      <trkpt lat="43.15049" lon="3.10569">
        <ele>187.186</ele>
        <time>2021-09-25T10:38:31Z</time>
      </trkpt>
      <trkpt lat="43.15054" lon="3.10577">
        <ele>186.436</ele>
        <time>2021-09-25T10:38:37Z</time>
      </trkpt>
      <trkpt lat="43.15055" lon="3.10578">
        <ele>186.381</ele>
        <time>2021-09-25T10:38:39Z</time>
      </trkpt>
      <trkpt lat="43.15057" lon="3.10581">
        <ele>186.84</ele>
        <time>2021-09-25T10:38:41Z</time>
      </trkpt>
      <trkpt lat="43.15057" lon="3.10584">
        <ele>187.153</ele>
        <time>2021-09-25T10:38:43Z</time>
      </trkpt>
      <trkpt lat="43.15059" lon="3.10587">
        <ele>187.225</ele>
        <time>2021-09-25T10:38:45Z</time>
      </trkpt>
      <trkpt lat="43.1506" lon="3.10589">
        <ele>187.366</ele>
        <time>2021-09-25T10:38:47Z</time>
      </trkpt>
      <trkpt lat="43.15061" lon="3.10593">
        <ele>187.629</ele>
        <time>2021-09-25T10:38:49Z</time>
      </trkpt>
      <trkpt lat="43.15062" lon="3.10596">
        <ele>187.352</ele>
        <time>2021-09-25T10:38:51Z</time>
      </trkpt>
      <trkpt lat="43.15063" lon="3.10599">
        <ele>187.117</ele>
        <time>2021-09-25T10:38:53Z</time>
      </trkpt>
      <trkpt lat="43.15064" lon="3.10601">
        <ele>186.927</ele>
        <time>2021-09-25T10:38:55Z</time>
      </trkpt>
      <trkpt lat="43.15065" lon="3.10604">
        <ele>186.713</ele>
        <time>2021-09-25T10:38:57Z</time>
      </trkpt>
      <trkpt lat="43.15066" lon="3.10607">
        <ele>186.374</ele>
        <time>2021-09-25T10:38:59Z</time>
      </trkpt>
      <trkpt lat="43.15067" lon="3.10609">
        <ele>186.404</ele>
        <time>2021-09-25T10:39:01Z</time>
      </trkpt>
      <trkpt lat="43.15068" lon="3.10613">
        <ele>186.73</ele>
        <time>2021-09-25T10:39:03Z</time>
      </trkpt>
      <trkpt lat="43.15069" lon="3.10616">
        <ele>186.333</ele>
        <time>2021-09-25T10:39:05Z</time>
      </trkpt>
      <trkpt lat="43.1507" lon="3.10619">
        <ele>186.316</ele>
        <time>2021-09-25T10:39:07Z</time>
      </trkpt>
      <trkpt lat="43.15071" lon="3.10621">
        <ele>186.301</ele>
        <time>2021-09-25T10:39:09Z</time>
      </trkpt>
      <trkpt lat="43.15072" lon="3.10624">
        <ele>186.511</ele>
        <time>2021-09-25T10:39:11Z</time>
      </trkpt>
      <trkpt lat="43.15072" lon="3.10625">
        <ele>187.46</ele>
        <time>2021-09-25T10:39:13Z</time>
      </trkpt>
      <trkpt lat="43.15072" lon="3.10628">
        <ele>188.722</ele>
        <time>2021-09-25T10:39:15Z</time>
      </trkpt>
      <trkpt lat="43.15072" lon="3.10631">
        <ele>188.608</ele>
        <time>2021-09-25T10:39:17Z</time>
      </trkpt>
      <trkpt lat="43.15072" lon="3.1063">
        <ele>188.14</ele>
        <time>2021-09-25T10:39:19Z</time>
      </trkpt>
      <trkpt lat="43.15071" lon="3.1063">
        <ele>188.135</ele>
        <time>2021-09-25T10:39:21Z</time>
      </trkpt>
      <trkpt lat="43.15071" lon="3.1063">
        <ele>187.083</ele>
        <time>2021-09-25T10:39:23Z</time>
      </trkpt>
      <trkpt lat="43.15072" lon="3.1063">
        <ele>187.074</ele>
        <time>2021-09-25T10:39:25Z</time>
      </trkpt>
      <trkpt lat="43.15072" lon="3.10632">
        <ele>187.312</ele>
        <time>2021-09-25T10:39:27Z</time>
      </trkpt>
      <trkpt lat="43.15073" lon="3.10635">
        <ele>187.29</ele>
        <time>2021-09-25T10:39:29Z</time>
      </trkpt>
      <trkpt lat="43.15073" lon="3.10639">
        <ele>187.734</ele>
        <time>2021-09-25T10:39:31Z</time>
      </trkpt>
      <trkpt lat="43.15073" lon="3.10643">
        <ele>187.897</ele>
        <time>2021-09-25T10:39:33Z</time>
      </trkpt>
      <trkpt lat="43.15074" lon="3.10646">
        <ele>187.741</ele>
        <time>2021-09-25T10:39:35Z</time>
      </trkpt>
      <trkpt lat="43.15074" lon="3.10649">
        <ele>187.935</ele>
        <time>2021-09-25T10:39:37Z</time>
      </trkpt>
      <trkpt lat="43.15074" lon="3.10653">
        <ele>188.088</ele>
        <time>2021-09-25T10:39:39Z</time>
      </trkpt>
      <trkpt lat="43.15073" lon="3.10656">
        <ele>189.357</ele>
        <time>2021-09-25T10:39:41Z</time>
      </trkpt>
      <trkpt lat="43.15074" lon="3.10659">
        <ele>188.705</ele>
        <time>2021-09-25T10:39:43Z</time>
      </trkpt>
      <trkpt lat="43.15073" lon="3.10661">
        <ele>188.566</ele>
        <time>2021-09-25T10:39:45Z</time>
      </trkpt>
      <trkpt lat="43.15073" lon="3.1066">
        <ele>187.264</ele>
        <time>2021-09-25T10:39:47Z</time>
      </trkpt>
      <trkpt lat="43.15073" lon="3.10659">
        <ele>187.254</ele>
        <time>2021-09-25T10:39:49Z</time>
      </trkpt>
      <trkpt lat="43.15073" lon="3.10659">
        <ele>187.253</ele>
        <time>2021-09-25T10:39:51Z</time>
      </trkpt>
      <trkpt lat="43.15073" lon="3.10659">
        <ele>187.251</ele>
        <time>2021-09-25T10:39:53Z</time>
      </trkpt>
      <trkpt lat="43.15073" lon="3.10659">
        <ele>187.253</ele>
        <time>2021-09-25T10:39:55Z</time>
      </trkpt>
      <trkpt lat="43.15073" lon="3.1066">
        <ele>186.755</ele>
        <time>2021-09-25T10:39:57Z</time>
      </trkpt>
      <trkpt lat="43.15073" lon="3.10663">
        <ele>186.356</ele>
        <time>2021-09-25T10:39:59Z</time>
      </trkpt>
      <trkpt lat="43.15073" lon="3.10666">
        <ele>185.866</ele>
        <time>2021-09-25T10:40:01Z</time>
      </trkpt>
      <trkpt lat="43.15072" lon="3.10669">
        <ele>185.042</ele>
        <time>2021-09-25T10:40:03Z</time>
      </trkpt>
      <trkpt lat="43.15072" lon="3.10672">
        <ele>184.41</ele>
        <time>2021-09-25T10:40:05Z</time>
      </trkpt>
      <trkpt lat="43.15071" lon="3.10675">
        <ele>184.184</ele>
        <time>2021-09-25T10:40:07Z</time>
      </trkpt>
      <trkpt lat="43.1507" lon="3.10678">
        <ele>184.789</ele>
        <time>2021-09-25T10:40:09Z</time>
      </trkpt>
      <trkpt lat="43.15069" lon="3.10681">
        <ele>184.444</ele>
        <time>2021-09-25T10:40:11Z</time>
      </trkpt>
      <trkpt lat="43.15069" lon="3.10684">
        <ele>183.614</ele>
        <time>2021-09-25T10:40:13Z</time>
      </trkpt>
      <trkpt lat="43.15068" lon="3.10688">
        <ele>183.473</ele>
        <time>2021-09-25T10:40:15Z</time>
      </trkpt>
      <trkpt lat="43.15068" lon="3.10691">
        <ele>184.359</ele>
        <time>2021-09-25T10:40:17Z</time>
      </trkpt>
      <trkpt lat="43.15067" lon="3.10694">
        <ele>184.445</ele>
        <time>2021-09-25T10:40:19Z</time>
      </trkpt>
      <trkpt lat="43.15066" lon="3.10698">
        <ele>184.428</ele>
        <time>2021-09-25T10:40:21Z</time>
      </trkpt>
      <trkpt lat="43.15066" lon="3.10702">
        <ele>185.051</ele>
        <time>2021-09-25T10:40:23Z</time>
      </trkpt>
      <trkpt lat="43.15065" lon="3.10705">
        <ele>185.473</ele>
        <time>2021-09-25T10:40:25Z</time>
      </trkpt>
      <trkpt lat="43.15064" lon="3.10709">
        <ele>185.123</ele>
        <time>2021-09-25T10:40:27Z</time>
      </trkpt>
      <trkpt lat="43.15063" lon="3.10712">
        <ele>185.589</ele>
        <time>2021-09-25T10:40:29Z</time>
      </trkpt>
      <trkpt lat="43.15062" lon="3.10716">
        <ele>185.092</ele>
        <time>2021-09-25T10:40:31Z</time>
      </trkpt>
      <trkpt lat="43.15061" lon="3.10719">
        <ele>185.548</ele>
        <time>2021-09-25T10:40:33Z</time>
      </trkpt>
      <trkpt lat="43.15059" lon="3.10722">
        <ele>185.778</ele>
        <time>2021-09-25T10:40:35Z</time>
      </trkpt>
      <trkpt lat="43.15057" lon="3.10724">
        <ele>187.493</ele>
        <time>2021-09-25T10:40:37Z</time>
      </trkpt>
      <trkpt lat="43.15056" lon="3.10725">
        <ele>186.544</ele>
        <time>2021-09-25T10:40:39Z</time>
      </trkpt>
      <trkpt lat="43.15054" lon="3.10726">
        <ele>185.601</ele>
        <time>2021-09-25T10:40:41Z</time>
      </trkpt>
      <trkpt lat="43.15052" lon="3.10727">
        <ele>185.618</ele>
        <time>2021-09-25T10:40:43Z</time>
      </trkpt>
      <trkpt lat="43.1505" lon="3.10727">
        <ele>185.243</ele>
        <time>2021-09-25T10:40:45Z</time>
      </trkpt>
      <trkpt lat="43.15047" lon="3.10728">
        <ele>185.297</ele>
        <time>2021-09-25T10:40:47Z</time>
      </trkpt>
      <trkpt lat="43.15045" lon="3.1073">
        <ele>185.612</ele>
        <time>2021-09-25T10:40:49Z</time>
      </trkpt>
      <trkpt lat="43.15043" lon="3.1073">
        <ele>185.392</ele>
        <time>2021-09-25T10:40:51Z</time>
      </trkpt>
      <trkpt lat="43.15041" lon="3.10731">
        <ele>184.979</ele>
        <time>2021-09-25T10:40:53Z</time>
      </trkpt>
      <trkpt lat="43.15039" lon="3.10732">
        <ele>184.926</ele>
        <time>2021-09-25T10:40:55Z</time>
      </trkpt>
      <trkpt lat="43.15036" lon="3.10733">
        <ele>185.242</ele>
        <time>2021-09-25T10:40:57Z</time>
      </trkpt>
      <trkpt lat="43.15034" lon="3.10735">
        <ele>185.556</ele>
        <time>2021-09-25T10:40:59Z</time>
      </trkpt>
      <trkpt lat="43.15032" lon="3.10736">
        <ele>185.473</ele>
        <time>2021-09-25T10:41:01Z</time>
      </trkpt>
      <trkpt lat="43.1503" lon="3.10737">
        <ele>184.593</ele>
        <time>2021-09-25T10:41:03Z</time>
      </trkpt>
      <trkpt lat="43.15028" lon="3.10738">
        <ele>183.887</ele>
        <time>2021-09-25T10:41:05Z</time>
      </trkpt>
      <trkpt lat="43.15026" lon="3.10739">
        <ele>183.826</ele>
        <time>2021-09-25T10:41:07Z</time>
      </trkpt>
      <trkpt lat="43.15024" lon="3.10741">
        <ele>182.927</ele>
        <time>2021-09-25T10:41:09Z</time>
      </trkpt>
      <trkpt lat="43.15022" lon="3.10742">
        <ele>182.946</ele>
        <time>2021-09-25T10:41:11Z</time>
      </trkpt>
      <trkpt lat="43.1502" lon="3.10743">
        <ele>182.182</ele>
        <time>2021-09-25T10:41:13Z</time>
      </trkpt>
      <trkpt lat="43.15018" lon="3.10744">
        <ele>181.682</ele>
        <time>2021-09-25T10:41:15Z</time>
      </trkpt>
      <trkpt lat="43.15016" lon="3.10745">
        <ele>181.12</ele>
        <time>2021-09-25T10:41:17Z</time>
      </trkpt>
      <trkpt lat="43.15014" lon="3.10746">
        <ele>181.505</ele>
        <time>2021-09-25T10:41:19Z</time>
      </trkpt>
      <trkpt lat="43.15011" lon="3.10746">
        <ele>181.537</ele>
        <time>2021-09-25T10:41:21Z</time>
      </trkpt>
      <trkpt lat="43.15009" lon="3.10747">
        <ele>180.819</ele>
        <time>2021-09-25T10:41:23Z</time>
      </trkpt>
      <trkpt lat="43.15006" lon="3.10748">
        <ele>180.944</ele>
        <time>2021-09-25T10:41:25Z</time>
      </trkpt>
      <trkpt lat="43.15004" lon="3.10748">
        <ele>180.823</ele>
        <time>2021-09-25T10:41:27Z</time>
      </trkpt>
      <trkpt lat="43.15002" lon="3.10749">
        <ele>180.054</ele>
        <time>2021-09-25T10:41:29Z</time>
      </trkpt>
      <trkpt lat="43.15" lon="3.10749">
        <ele>179.951</ele>
        <time>2021-09-25T10:41:31Z</time>
      </trkpt>
      <trkpt lat="43.14997" lon="3.1075">
        <ele>179.683</ele>
        <time>2021-09-25T10:41:33Z</time>
      </trkpt>
      <trkpt lat="43.14995" lon="3.1075">
        <ele>180.375</ele>
        <time>2021-09-25T10:41:35Z</time>
      </trkpt>
      <trkpt lat="43.14992" lon="3.10751">
        <ele>180.761</ele>
        <time>2021-09-25T10:41:37Z</time>
      </trkpt>
      <trkpt lat="43.14989" lon="3.10751">
        <ele>180.024</ele>
        <time>2021-09-25T10:41:39Z</time>
      </trkpt>
      <trkpt lat="43.14986" lon="3.10752">
        <ele>179.988</ele>
        <time>2021-09-25T10:41:41Z</time>
      </trkpt>
      <trkpt lat="43.14984" lon="3.10752">
        <ele>179.406</ele>
        <time>2021-09-25T10:41:43Z</time>
      </trkpt>
      <trkpt lat="43.14982" lon="3.10753">
        <ele>178.98</ele>
        <time>2021-09-25T10:41:45Z</time>
      </trkpt>
      <trkpt lat="43.14979" lon="3.10754">
        <ele>178.515</ele>
        <time>2021-09-25T10:41:47Z</time>
      </trkpt>
      <trkpt lat="43.14977" lon="3.10755">
        <ele>178.491</ele>
        <time>2021-09-25T10:41:49Z</time>
      </trkpt>
      <trkpt lat="43.14975" lon="3.10755">
        <ele>177.604</ele>
        <time>2021-09-25T10:41:51Z</time>
      </trkpt>
      <trkpt lat="43.14972" lon="3.10756">
        <ele>177.171</ele>
        <time>2021-09-25T10:41:53Z</time>
      </trkpt>
      <trkpt lat="43.1497" lon="3.10757">
        <ele>176.968</ele>
        <time>2021-09-25T10:41:55Z</time>
      </trkpt>
      <trkpt lat="43.14967" lon="3.10757">
        <ele>176.513</ele>
        <time>2021-09-25T10:41:57Z</time>
      </trkpt>
      <trkpt lat="43.14965" lon="3.10757">
        <ele>175.852</ele>
        <time>2021-09-25T10:41:59Z</time>
      </trkpt>
      <trkpt lat="43.14963" lon="3.10757">
        <ele>176.515</ele>
        <time>2021-09-25T10:42:01Z</time>
      </trkpt>
      <trkpt lat="43.14959" lon="3.10758">
        <ele>176.251</ele>
        <time>2021-09-25T10:42:03Z</time>
      </trkpt>
      <trkpt lat="43.14957" lon="3.10758">
        <ele>176.21</ele>
        <time>2021-09-25T10:42:05Z</time>
      </trkpt>
      <trkpt lat="43.14954" lon="3.10758">
        <ele>176.745</ele>
        <time>2021-09-25T10:42:07Z</time>
      </trkpt>
      <trkpt lat="43.14952" lon="3.10759">
        <ele>176.801</ele>
        <time>2021-09-25T10:42:09Z</time>
      </trkpt>
      <trkpt lat="43.14949" lon="3.10759">
        <ele>176.704</ele>
        <time>2021-09-25T10:42:11Z</time>
      </trkpt>
      <trkpt lat="43.14947" lon="3.10759">
        <ele>176.657</ele>
        <time>2021-09-25T10:42:13Z</time>
      </trkpt>
      <trkpt lat="43.14945" lon="3.1076">
        <ele>176.309</ele>
        <time>2021-09-25T10:42:15Z</time>
      </trkpt>
      <trkpt lat="43.14943" lon="3.10761">
        <ele>176.602</ele>
        <time>2021-09-25T10:42:17Z</time>
      </trkpt>
      <trkpt lat="43.14941" lon="3.10763">
        <ele>177.14</ele>
        <time>2021-09-25T10:42:19Z</time>
      </trkpt>
      <trkpt lat="43.14939" lon="3.10765">
        <ele>177.452</ele>
        <time>2021-09-25T10:42:21Z</time>
      </trkpt>
      <trkpt lat="43.14936" lon="3.10767">
        <ele>178.98</ele>
        <time>2021-09-25T10:42:23Z</time>
      </trkpt>
      <trkpt lat="43.14934" lon="3.10768">
        <ele>179.859</ele>
        <time>2021-09-25T10:42:25Z</time>
      </trkpt>
      <trkpt lat="43.14932" lon="3.10769">
        <ele>179.608</ele>
        <time>2021-09-25T10:42:27Z</time>
      </trkpt>
      <trkpt lat="43.14931" lon="3.10771">
        <ele>179.055</ele>
        <time>2021-09-25T10:42:29Z</time>
      </trkpt>
      <trkpt lat="43.1493" lon="3.10772">
        <ele>179.373</ele>
        <time>2021-09-25T10:42:31Z</time>
      </trkpt>
      <trkpt lat="43.1493" lon="3.10772">
        <ele>179.36</ele>
        <time>2021-09-25T10:42:33Z</time>
      </trkpt>
      <trkpt lat="43.1493" lon="3.10772">
        <ele>179.348</ele>
        <time>2021-09-25T10:42:35Z</time>
      </trkpt>
      <trkpt lat="43.14931" lon="3.10772">
        <ele>179.927</ele>
        <time>2021-09-25T10:42:37Z</time>
      </trkpt>
      <trkpt lat="43.14932" lon="3.10772">
        <ele>180.418</ele>
        <time>2021-09-25T10:42:39Z</time>
      </trkpt>
      <trkpt lat="43.14932" lon="3.10772">
        <ele>180.409</ele>
        <time>2021-09-25T10:42:41Z</time>
      </trkpt>
      <trkpt lat="43.14932" lon="3.10773">
        <ele>181.171</ele>
        <time>2021-09-25T10:42:43Z</time>
      </trkpt>
      <trkpt lat="43.14932" lon="3.10774">
        <ele>181.212</ele>
        <time>2021-09-25T10:42:45Z</time>
      </trkpt>
      <trkpt lat="43.14932" lon="3.10774">
        <ele>181.222</ele>
        <time>2021-09-25T10:42:47Z</time>
      </trkpt>
      <trkpt lat="43.14932" lon="3.10774">
        <ele>181.221</ele>
        <time>2021-09-25T10:42:49Z</time>
      </trkpt>
      <trkpt lat="43.14932" lon="3.10774">
        <ele>181.226</ele>
        <time>2021-09-25T10:42:51Z</time>
      </trkpt>
      <trkpt lat="43.14932" lon="3.10775">
        <ele>181.235</ele>
        <time>2021-09-25T10:42:53Z</time>
      </trkpt>
      <trkpt lat="43.14932" lon="3.10775">
        <ele>181.24</ele>
        <time>2021-09-25T10:42:55Z</time>
      </trkpt>
      <trkpt lat="43.14932" lon="3.10775">
        <ele>181.254</ele>
        <time>2021-09-25T10:42:57Z</time>
      </trkpt>
      <trkpt lat="43.14932" lon="3.10775">
        <ele>181.548</ele>
        <time>2021-09-25T10:42:59Z</time>
      </trkpt>
      <trkpt lat="43.14931" lon="3.10775">
        <ele>181.707</ele>
        <time>2021-09-25T10:43:01Z</time>
      </trkpt>
      <trkpt lat="43.14932" lon="3.10774">
        <ele>181.995</ele>
        <time>2021-09-25T10:43:03Z</time>
      </trkpt>
      <trkpt lat="43.14933" lon="3.10773">
        <ele>182.144</ele>
        <time>2021-09-25T10:43:05Z</time>
      </trkpt>
      <trkpt lat="43.14933" lon="3.10772">
        <ele>182.35</ele>
        <time>2021-09-25T10:43:07Z</time>
      </trkpt>
      <trkpt lat="43.14934" lon="3.1077">
        <ele>181.774</ele>
        <time>2021-09-25T10:43:09Z</time>
      </trkpt>
      <trkpt lat="43.14934" lon="3.10768">
        <ele>181.163</ele>
        <time>2021-09-25T10:43:11Z</time>
      </trkpt>
      <trkpt lat="43.14934" lon="3.10768">
        <ele>180.839</ele>
        <time>2021-09-25T10:43:13Z</time>
      </trkpt>
      <trkpt lat="43.14934" lon="3.10767">
        <ele>181.064</ele>
        <time>2021-09-25T10:43:15Z</time>
      </trkpt>
      <trkpt lat="43.14934" lon="3.10767">
        <ele>180.698</ele>
        <time>2021-09-25T10:43:17Z</time>
      </trkpt>
      <trkpt lat="43.14935" lon="3.10765">
        <ele>180.649</ele>
        <time>2021-09-25T10:43:19Z</time>
      </trkpt>
      <trkpt lat="43.14936" lon="3.10763">
        <ele>180.573</ele>
        <time>2021-09-25T10:43:21Z</time>
      </trkpt>
      <trkpt lat="43.14937" lon="3.10763">
        <ele>180.016</ele>
        <time>2021-09-25T10:43:23Z</time>
      </trkpt>
      <trkpt lat="43.14939" lon="3.10762">
        <ele>179.613</ele>
        <time>2021-09-25T10:43:25Z</time>
      </trkpt>
      <trkpt lat="43.14941" lon="3.10762">
        <ele>179.314</ele>
        <time>2021-09-25T10:43:27Z</time>
      </trkpt>
      <trkpt lat="43.14943" lon="3.10762">
        <ele>179.018</ele>
        <time>2021-09-25T10:43:29Z</time>
      </trkpt>
      <trkpt lat="43.14945" lon="3.10762">
        <ele>178.854</ele>
        <time>2021-09-25T10:43:31Z</time>
      </trkpt>
      <trkpt lat="43.14946" lon="3.10762">
        <ele>179.086</ele>
        <time>2021-09-25T10:43:33Z</time>
      </trkpt>
      <trkpt lat="43.14949" lon="3.10761">
        <ele>178.813</ele>
        <time>2021-09-25T10:43:35Z</time>
      </trkpt>
      <trkpt lat="43.14951" lon="3.10761">
        <ele>178.953</ele>
        <time>2021-09-25T10:43:37Z</time>
      </trkpt>
      <trkpt lat="43.14952" lon="3.10762">
        <ele>180.403</ele>
        <time>2021-09-25T10:43:39Z</time>
      </trkpt>
      <trkpt lat="43.14952" lon="3.10764">
        <ele>179.958</ele>
        <time>2021-09-25T10:43:41Z</time>
      </trkpt>
      <trkpt lat="43.14952" lon="3.10764">
        <ele>179.897</ele>
        <time>2021-09-25T10:43:43Z</time>
      </trkpt>
      <trkpt lat="43.14952" lon="3.10764">
        <ele>179.894</ele>
        <time>2021-09-25T10:43:45Z</time>
      </trkpt>
      <trkpt lat="43.14952" lon="3.10764">
        <ele>179.897</ele>
        <time>2021-09-25T10:43:47Z</time>
      </trkpt>
      <trkpt lat="43.14952" lon="3.10764">
        <ele>179.598</ele>
        <time>2021-09-25T10:43:49Z</time>
      </trkpt>
      <trkpt lat="43.14953" lon="3.10764">
        <ele>179.153</ele>
        <time>2021-09-25T10:43:51Z</time>
      </trkpt>
      <trkpt lat="43.14955" lon="3.10762">
        <ele>179.024</ele>
        <time>2021-09-25T10:43:53Z</time>
      </trkpt>
      <trkpt lat="43.14957" lon="3.10762">
        <ele>179.102</ele>
        <time>2021-09-25T10:43:55Z</time>
      </trkpt>
      <trkpt lat="43.14958" lon="3.10761">
        <ele>179.396</ele>
        <time>2021-09-25T10:43:57Z</time>
      </trkpt>
      <trkpt lat="43.1496" lon="3.1076">
        <ele>179.55</ele>
        <time>2021-09-25T10:43:59Z</time>
      </trkpt>
      <trkpt lat="43.14962" lon="3.1076">
        <ele>179.27</ele>
        <time>2021-09-25T10:44:01Z</time>
      </trkpt>
      <trkpt lat="43.14963" lon="3.1076">
        <ele>179.261</ele>
        <time>2021-09-25T10:44:03Z</time>
      </trkpt>
      <trkpt lat="43.14965" lon="3.10759">
        <ele>179.112</ele>
        <time>2021-09-25T10:44:05Z</time>
      </trkpt>
      <trkpt lat="43.14967" lon="3.10759">
        <ele>179.211</ele>
        <time>2021-09-25T10:44:07Z</time>
      </trkpt>
      <trkpt lat="43.14969" lon="3.10759">
        <ele>179.665</ele>
        <time>2021-09-25T10:44:09Z</time>
      </trkpt>
      <trkpt lat="43.14971" lon="3.10758">
        <ele>180.044</ele>
        <time>2021-09-25T10:44:11Z</time>
      </trkpt>
      <trkpt lat="43.14972" lon="3.10757">
        <ele>180.02</ele>
        <time>2021-09-25T10:44:13Z</time>
      </trkpt>
      <trkpt lat="43.14975" lon="3.10757">
        <ele>180.835</ele>
        <time>2021-09-25T10:44:15Z</time>
      </trkpt>
      <trkpt lat="43.14977" lon="3.10757">
        <ele>180.922</ele>
        <time>2021-09-25T10:44:17Z</time>
      </trkpt>
      <trkpt lat="43.14979" lon="3.10757">
        <ele>181.179</ele>
        <time>2021-09-25T10:44:19Z</time>
      </trkpt>
      <trkpt lat="43.14982" lon="3.10756">
        <ele>181.237</ele>
        <time>2021-09-25T10:44:21Z</time>
      </trkpt>
      <trkpt lat="43.14984" lon="3.10756">
        <ele>181.588</ele>
        <time>2021-09-25T10:44:23Z</time>
      </trkpt>
      <trkpt lat="43.14986" lon="3.10755">
        <ele>181.689</ele>
        <time>2021-09-25T10:44:25Z</time>
      </trkpt>
      <trkpt lat="43.14988" lon="3.10754">
        <ele>181.761</ele>
        <time>2021-09-25T10:44:27Z</time>
      </trkpt>
      <trkpt lat="43.14991" lon="3.10754">
        <ele>182.051</ele>
        <time>2021-09-25T10:44:29Z</time>
      </trkpt>
      <trkpt lat="43.14993" lon="3.10753">
        <ele>183.036</ele>
        <time>2021-09-25T10:44:31Z</time>
      </trkpt>
      <trkpt lat="43.14995" lon="3.10753">
        <ele>183.297</ele>
        <time>2021-09-25T10:44:33Z</time>
      </trkpt>
      <trkpt lat="43.14997" lon="3.10752">
        <ele>183.806</ele>
        <time>2021-09-25T10:44:35Z</time>
      </trkpt>
      <trkpt lat="43.14999" lon="3.10752">
        <ele>183.648</ele>
        <time>2021-09-25T10:44:37Z</time>
      </trkpt>
      <trkpt lat="43.15001" lon="3.10751">
        <ele>183.642</ele>
        <time>2021-09-25T10:44:39Z</time>
      </trkpt>
      <trkpt lat="43.15004" lon="3.1075">
        <ele>183.438</ele>
        <time>2021-09-25T10:44:41Z</time>
      </trkpt>
      <trkpt lat="43.15007" lon="3.10749">
        <ele>183.708</ele>
        <time>2021-09-25T10:44:43Z</time>
      </trkpt>
      <trkpt lat="43.15009" lon="3.10747">
        <ele>183.416</ele>
        <time>2021-09-25T10:44:45Z</time>
      </trkpt>
      <trkpt lat="43.15011" lon="3.10746">
        <ele>183.669</ele>
        <time>2021-09-25T10:44:47Z</time>
      </trkpt>
      <trkpt lat="43.15013" lon="3.10745">
        <ele>183.843</ele>
        <time>2021-09-25T10:44:49Z</time>
      </trkpt>
      <trkpt lat="43.15015" lon="3.10744">
        <ele>184.029</ele>
        <time>2021-09-25T10:44:51Z</time>
      </trkpt>
      <trkpt lat="43.15017" lon="3.10742">
        <ele>183.675</ele>
        <time>2021-09-25T10:44:53Z</time>
      </trkpt>
      <trkpt lat="43.15019" lon="3.10741">
        <ele>183.425</ele>
        <time>2021-09-25T10:44:55Z</time>
      </trkpt>
      <trkpt lat="43.15022" lon="3.1074">
        <ele>183.858</ele>
        <time>2021-09-25T10:44:58Z</time>
      </trkpt>
      <trkpt lat="43.15024" lon="3.10738">
        <ele>183.527</ele>
        <time>2021-09-25T10:45:00Z</time>
      </trkpt>
      <trkpt lat="43.15026" lon="3.10738">
        <ele>183.452</ele>
        <time>2021-09-25T10:45:02Z</time>
      </trkpt>
      <trkpt lat="43.15028" lon="3.10736">
        <ele>183.974</ele>
        <time>2021-09-25T10:45:04Z</time>
      </trkpt>
      <trkpt lat="43.15031" lon="3.10735">
        <ele>184.271</ele>
        <time>2021-09-25T10:45:06Z</time>
      </trkpt>
      <trkpt lat="43.15033" lon="3.10734">
        <ele>184.669</ele>
        <time>2021-09-25T10:45:08Z</time>
      </trkpt>
      <trkpt lat="43.15036" lon="3.10733">
        <ele>184.608</ele>
        <time>2021-09-25T10:45:10Z</time>
      </trkpt>
      <trkpt lat="43.15038" lon="3.10732">
        <ele>184.573</ele>
        <time>2021-09-25T10:45:12Z</time>
      </trkpt>
      <trkpt lat="43.1504" lon="3.10731">
        <ele>184.894</ele>
        <time>2021-09-25T10:45:14Z</time>
      </trkpt>
      <trkpt lat="43.15042" lon="3.10731">
        <ele>184.86</ele>
        <time>2021-09-25T10:45:16Z</time>
      </trkpt>
      <trkpt lat="43.15044" lon="3.1073">
        <ele>184.671</ele>
        <time>2021-09-25T10:45:18Z</time>
      </trkpt>
      <trkpt lat="43.15047" lon="3.10729">
        <ele>184.643</ele>
        <time>2021-09-25T10:45:20Z</time>
      </trkpt>
      <trkpt lat="43.1505" lon="3.10728">
        <ele>184.753</ele>
        <time>2021-09-25T10:45:22Z</time>
      </trkpt>
      <trkpt lat="43.15052" lon="3.10726">
        <ele>184.069</ele>
        <time>2021-09-25T10:45:24Z</time>
      </trkpt>
      <trkpt lat="43.15053" lon="3.10724">
        <ele>183.946</ele>
        <time>2021-09-25T10:45:26Z</time>
      </trkpt>
      <trkpt lat="43.15055" lon="3.10721">
        <ele>184.072</ele>
        <time>2021-09-25T10:45:28Z</time>
      </trkpt>
      <trkpt lat="43.15057" lon="3.10718">
        <ele>184.647</ele>
        <time>2021-09-25T10:45:30Z</time>
      </trkpt>
      <trkpt lat="43.15058" lon="3.10716">
        <ele>185.52</ele>
        <time>2021-09-25T10:45:32Z</time>
      </trkpt>
      <trkpt lat="43.15058" lon="3.10713">
        <ele>186.127</ele>
        <time>2021-09-25T10:45:34Z</time>
      </trkpt>
      <trkpt lat="43.15059" lon="3.1071">
        <ele>187.443</ele>
        <time>2021-09-25T10:45:36Z</time>
      </trkpt>
      <trkpt lat="43.1506" lon="3.10706">
        <ele>187.11</ele>
        <time>2021-09-25T10:45:38Z</time>
      </trkpt>
      <trkpt lat="43.15061" lon="3.10703">
        <ele>186.934</ele>
        <time>2021-09-25T10:45:40Z</time>
      </trkpt>
      <trkpt lat="43.15061" lon="3.107">
        <ele>186.05</ele>
        <time>2021-09-25T10:45:42Z</time>
      </trkpt>
      <trkpt lat="43.15062" lon="3.10697">
        <ele>185.94</ele>
        <time>2021-09-25T10:45:44Z</time>
      </trkpt>
      <trkpt lat="43.15063" lon="3.10694">
        <ele>185.241</ele>
        <time>2021-09-25T10:45:46Z</time>
      </trkpt>
      <trkpt lat="43.15062" lon="3.10691">
        <ele>183.961</ele>
        <time>2021-09-25T10:45:48Z</time>
      </trkpt>
      <trkpt lat="43.15062" lon="3.10688">
        <ele>183.716</ele>
        <time>2021-09-25T10:45:50Z</time>
      </trkpt>
      <trkpt lat="43.15063" lon="3.10685">
        <ele>183.636</ele>
        <time>2021-09-25T10:45:52Z</time>
      </trkpt>
      <trkpt lat="43.15064" lon="3.10682">
        <ele>184.18</ele>
        <time>2021-09-25T10:45:54Z</time>
      </trkpt>
      <trkpt lat="43.15065" lon="3.10679">
        <ele>184.039</ele>
        <time>2021-09-25T10:45:56Z</time>
      </trkpt>
      <trkpt lat="43.15066" lon="3.10676">
        <ele>183.902</ele>
        <time>2021-09-25T10:45:58Z</time>
      </trkpt>
      <trkpt lat="43.15066" lon="3.10673">
        <ele>183.406</ele>
        <time>2021-09-25T10:46:00Z</time>
      </trkpt>
      <trkpt lat="43.15067" lon="3.10669">
        <ele>184.263</ele>
        <time>2021-09-25T10:46:02Z</time>
      </trkpt>
      <trkpt lat="43.15068" lon="3.10666">
        <ele>184.661</ele>
        <time>2021-09-25T10:46:04Z</time>
      </trkpt>
      <trkpt lat="43.15068" lon="3.10663">
        <ele>185.215</ele>
        <time>2021-09-25T10:46:06Z</time>
      </trkpt>
      <trkpt lat="43.15069" lon="3.10659">
        <ele>185.192</ele>
        <time>2021-09-25T10:46:08Z</time>
      </trkpt>
      <trkpt lat="43.1507" lon="3.10656">
        <ele>184.924</ele>
        <time>2021-09-25T10:46:10Z</time>
      </trkpt>
      <trkpt lat="43.1507" lon="3.10653">
        <ele>183.659</ele>
        <time>2021-09-25T10:46:12Z</time>
      </trkpt>
      <trkpt lat="43.1507" lon="3.1065">
        <ele>183.64</ele>
        <time>2021-09-25T10:46:14Z</time>
      </trkpt>
      <trkpt lat="43.15071" lon="3.10647">
        <ele>183.627</ele>
        <time>2021-09-25T10:46:16Z</time>
      </trkpt>
      <trkpt lat="43.15071" lon="3.10643">
        <ele>184.032</ele>
        <time>2021-09-25T10:46:18Z</time>
      </trkpt>
      <trkpt lat="43.15071" lon="3.1064">
        <ele>184.188</ele>
        <time>2021-09-25T10:46:20Z</time>
      </trkpt>
      <trkpt lat="43.1507" lon="3.10636">
        <ele>184.332</ele>
        <time>2021-09-25T10:46:22Z</time>
      </trkpt>
      <trkpt lat="43.1507" lon="3.10633">
        <ele>184.419</ele>
        <time>2021-09-25T10:46:24Z</time>
      </trkpt>
      <trkpt lat="43.15069" lon="3.10629">
        <ele>185.029</ele>
        <time>2021-09-25T10:46:26Z</time>
      </trkpt>
      <trkpt lat="43.15068" lon="3.10624">
        <ele>186.395</ele>
        <time>2021-09-25T10:46:28Z</time>
      </trkpt>
      <trkpt lat="43.15068" lon="3.1062">
        <ele>186.61</ele>
        <time>2021-09-25T10:46:30Z</time>
      </trkpt>
      <trkpt lat="43.15067" lon="3.10617">
        <ele>186.734</ele>
        <time>2021-09-25T10:46:32Z</time>
      </trkpt>
      <trkpt lat="43.15067" lon="3.10613">
        <ele>187.433</ele>
        <time>2021-09-25T10:46:34Z</time>
      </trkpt>
      <trkpt lat="43.15065" lon="3.1061">
        <ele>188.113</ele>
        <time>2021-09-25T10:46:36Z</time>
      </trkpt>
      <trkpt lat="43.15064" lon="3.10607">
        <ele>188.394</ele>
        <time>2021-09-25T10:46:38Z</time>
      </trkpt>
      <trkpt lat="43.15063" lon="3.10603">
        <ele>188.404</ele>
        <time>2021-09-25T10:46:40Z</time>
      </trkpt>
      <trkpt lat="43.15062" lon="3.106">
        <ele>188.783</ele>
        <time>2021-09-25T10:46:42Z</time>
      </trkpt>
      <trkpt lat="43.15061" lon="3.10596">
        <ele>189.646</ele>
        <time>2021-09-25T10:46:44Z</time>
      </trkpt>
      <trkpt lat="43.1506" lon="3.10593">
        <ele>189.892</ele>
        <time>2021-09-25T10:46:46Z</time>
      </trkpt>
      <trkpt lat="43.15059" lon="3.1059">
        <ele>189.98</ele>
        <time>2021-09-25T10:46:48Z</time>
      </trkpt>
      <trkpt lat="43.15058" lon="3.10587">
        <ele>189.695</ele>
        <time>2021-09-25T10:46:50Z</time>
      </trkpt>
      <trkpt lat="43.15057" lon="3.10584">
        <ele>189.189</ele>
        <time>2021-09-25T10:46:52Z</time>
      </trkpt>
      <trkpt lat="43.15056" lon="3.10581">
        <ele>188.877</ele>
        <time>2021-09-25T10:46:54Z</time>
      </trkpt>
      <trkpt lat="43.15056" lon="3.1058">
        <ele>189.35</ele>
        <time>2021-09-25T10:46:56Z</time>
      </trkpt>
      <trkpt lat="43.15056" lon="3.1058">
        <ele>189.541</ele>
        <time>2021-09-25T10:46:58Z</time>
      </trkpt>
      <trkpt lat="43.15056" lon="3.1058">
        <ele>189.543</ele>
        <time>2021-09-25T10:47:00Z</time>
      </trkpt>
      <trkpt lat="43.15056" lon="3.1058">
        <ele>189.538</ele>
        <time>2021-09-25T10:47:02Z</time>
      </trkpt>
      <trkpt lat="43.15056" lon="3.1058">
        <ele>189.536</ele>
        <time>2021-09-25T10:47:04Z</time>
      </trkpt>
      <trkpt lat="43.15056" lon="3.1058">
        <ele>189.531</ele>
        <time>2021-09-25T10:47:06Z</time>
      </trkpt>
      <trkpt lat="43.15056" lon="3.1058">
        <ele>189.525</ele>
        <time>2021-09-25T10:47:08Z</time>
      </trkpt>
      <trkpt lat="43.15056" lon="3.1058">
        <ele>189.524</ele>
        <time>2021-09-25T10:47:10Z</time>
      </trkpt>
      <trkpt lat="43.15056" lon="3.1058">
        <ele>189.518</ele>
        <time>2021-09-25T10:47:12Z</time>
      </trkpt>
      <trkpt lat="43.15056" lon="3.1058">
        <ele>189.512</ele>
        <time>2021-09-25T10:47:14Z</time>
      </trkpt>
      <trkpt lat="43.15056" lon="3.1058">
        <ele>189.511</ele>
        <time>2021-09-25T10:47:16Z</time>
      </trkpt>
      <trkpt lat="43.15056" lon="3.1058">
        <ele>189.513</ele>
        <time>2021-09-25T10:47:18Z</time>
      </trkpt>
      <trkpt lat="43.15056" lon="3.1058">
        <ele>189.509</ele>
        <time>2021-09-25T10:47:20Z</time>
      </trkpt>
      <trkpt lat="43.15056" lon="3.1058">
        <ele>189.507</ele>
        <time>2021-09-25T10:47:22Z</time>
      </trkpt>
      <trkpt lat="43.15056" lon="3.10579">
        <ele>189.658</ele>
        <time>2021-09-25T10:47:24Z</time>
      </trkpt>
      <trkpt lat="43.15055" lon="3.10578">
        <ele>189.506</ele>
        <time>2021-09-25T10:47:26Z</time>
      </trkpt>
      <trkpt lat="43.15055" lon="3.10573">
        <ele>190.421</ele>
        <time>2021-09-25T10:47:28Z</time>
      </trkpt>
      <trkpt lat="43.15055" lon="3.10574">
        <ele>189.647</ele>
        <time>2021-09-25T10:47:30Z</time>
      </trkpt>
      <trkpt lat="43.15055" lon="3.10574">
        <ele>189.645</ele>
        <time>2021-09-25T10:47:32Z</time>
      </trkpt>
      <trkpt lat="43.15055" lon="3.10574">
        <ele>189.645</ele>
        <time>2021-09-25T10:47:34Z</time>
      </trkpt>
      <trkpt lat="43.15055" lon="3.10574">
        <ele>189.648</ele>
        <time>2021-09-25T10:47:36Z</time>
      </trkpt>
      <trkpt lat="43.15055" lon="3.10574">
        <ele>189.647</ele>
        <time>2021-09-25T10:47:38Z</time>
      </trkpt>
      <trkpt lat="43.15055" lon="3.10574">
        <ele>189.674</ele>
        <time>2021-09-25T10:47:40Z</time>
      </trkpt>
      <trkpt lat="43.15054" lon="3.1057">
        <ele>190.183</ele>
        <time>2021-09-25T10:47:42Z</time>
      </trkpt>
      <trkpt lat="43.15052" lon="3.10567">
        <ele>191.468</ele>
        <time>2021-09-25T10:47:44Z</time>
      </trkpt>
      <trkpt lat="43.15052" lon="3.10567">
        <ele>191.593</ele>
        <time>2021-09-25T10:47:46Z</time>
      </trkpt>
      <trkpt lat="43.15052" lon="3.10567">
        <ele>191.573</ele>
        <time>2021-09-25T10:47:48Z</time>
      </trkpt>
      <trkpt lat="43.15052" lon="3.10567">
        <ele>191.568</ele>
        <time>2021-09-25T10:47:50Z</time>
      </trkpt>
      <trkpt lat="43.15052" lon="3.10567">
        <ele>191.566</ele>
        <time>2021-09-25T10:47:52Z</time>
      </trkpt>
      <trkpt lat="43.15052" lon="3.10567">
        <ele>191.565</ele>
        <time>2021-09-25T10:47:54Z</time>
      </trkpt>
      <trkpt lat="43.15052" lon="3.10567">
        <ele>191.561</ele>
        <time>2021-09-25T10:47:56Z</time>
      </trkpt>
      <trkpt lat="43.15052" lon="3.10567">
        <ele>191.559</ele>
        <time>2021-09-25T10:47:58Z</time>
      </trkpt>
      <trkpt lat="43.15052" lon="3.10568">
        <ele>191.55</ele>
        <time>2021-09-25T10:48:00Z</time>
      </trkpt>
      <trkpt lat="43.15052" lon="3.10568">
        <ele>191.551</ele>
        <time>2021-09-25T10:48:02Z</time>
      </trkpt>
      <trkpt lat="43.15051" lon="3.10566">
        <ele>191.358</ele>
        <time>2021-09-25T10:48:04Z</time>
      </trkpt>
      <trkpt lat="43.15051" lon="3.10564">
        <ele>191.394</ele>
        <time>2021-09-25T10:48:06Z</time>
      </trkpt>
      <trkpt lat="43.15049" lon="3.10562">
        <ele>191.52</ele>
        <time>2021-09-25T10:48:08Z</time>
      </trkpt>
      <trkpt lat="43.15048" lon="3.1056">
        <ele>191.781</ele>
        <time>2021-09-25T10:48:10Z</time>
      </trkpt>
      <trkpt lat="43.15046" lon="3.10558">
        <ele>192.012</ele>
        <time>2021-09-25T10:48:12Z</time>
      </trkpt>
      <trkpt lat="43.15045" lon="3.10555">
        <ele>191.911</ele>
        <time>2021-09-25T10:48:14Z</time>
      </trkpt>
      <trkpt lat="43.15044" lon="3.10553">
        <ele>191.933</ele>
        <time>2021-09-25T10:48:16Z</time>
      </trkpt>
      <trkpt lat="43.15043" lon="3.10551">
        <ele>192.324</ele>
        <time>2021-09-25T10:48:18Z</time>
      </trkpt>
      <trkpt lat="43.15041" lon="3.10549">
        <ele>191.734</ele>
        <time>2021-09-25T10:48:20Z</time>
      </trkpt>
      <trkpt lat="43.1504" lon="3.10547">
        <ele>191.772</ele>
        <time>2021-09-25T10:48:22Z</time>
      </trkpt>
      <trkpt lat="43.15038" lon="3.10545">
        <ele>192.134</ele>
        <time>2021-09-25T10:48:24Z</time>
      </trkpt>
      <trkpt lat="43.15036" lon="3.10544">
        <ele>191.39</ele>
        <time>2021-09-25T10:48:26Z</time>
      </trkpt>
      <trkpt lat="43.15035" lon="3.10542">
        <ele>191.401</ele>
        <time>2021-09-25T10:48:28Z</time>
      </trkpt>
      <trkpt lat="43.15033" lon="3.1054">
        <ele>191.652</ele>
        <time>2021-09-25T10:48:30Z</time>
      </trkpt>
      <trkpt lat="43.15031" lon="3.10539">
        <ele>191.621</ele>
        <time>2021-09-25T10:48:32Z</time>
      </trkpt>
      <trkpt lat="43.1503" lon="3.10537">
        <ele>191.573</ele>
        <time>2021-09-25T10:48:34Z</time>
      </trkpt>
      <trkpt lat="43.15029" lon="3.10535">
        <ele>191.289</ele>
        <time>2021-09-25T10:48:36Z</time>
      </trkpt>
      <trkpt lat="43.15027" lon="3.10532">
        <ele>191.341</ele>
        <time>2021-09-25T10:48:38Z</time>
      </trkpt>
      <trkpt lat="43.15026" lon="3.1053">
        <ele>191.226</ele>
        <time>2021-09-25T10:48:40Z</time>
      </trkpt>
      <trkpt lat="43.15025" lon="3.10528">
        <ele>191.187</ele>
        <time>2021-09-25T10:48:42Z</time>
      </trkpt>
      <trkpt lat="43.15024" lon="3.10526">
        <ele>190.953</ele>
        <time>2021-09-25T10:48:44Z</time>
      </trkpt>
      <trkpt lat="43.15022" lon="3.10523">
        <ele>190.649</ele>
        <time>2021-09-25T10:48:46Z</time>
      </trkpt>
      <trkpt lat="43.15021" lon="3.10521">
        <ele>190.599</ele>
        <time>2021-09-25T10:48:48Z</time>
      </trkpt>
      <trkpt lat="43.1502" lon="3.10518">
        <ele>190.247</ele>
        <time>2021-09-25T10:48:50Z</time>
      </trkpt>
      <trkpt lat="43.15019" lon="3.10516">
        <ele>190.735</ele>
        <time>2021-09-25T10:48:52Z</time>
      </trkpt>
      <trkpt lat="43.15017" lon="3.10514">
        <ele>190.344</ele>
        <time>2021-09-25T10:48:54Z</time>
      </trkpt>
      <trkpt lat="43.15016" lon="3.10512">
        <ele>191.36</ele>
        <time>2021-09-25T10:48:56Z</time>
      </trkpt>
      <trkpt lat="43.15016" lon="3.10512">
        <ele>191.117</ele>
        <time>2021-09-25T10:48:58Z</time>
      </trkpt>
      <trkpt lat="43.15016" lon="3.10512">
        <ele>191.116</ele>
        <time>2021-09-25T10:49:00Z</time>
      </trkpt>
      <trkpt lat="43.15016" lon="3.10511">
        <ele>191.237</ele>
        <time>2021-09-25T10:49:02Z</time>
      </trkpt>
      <trkpt lat="43.15016" lon="3.10511">
        <ele>191.237</ele>
        <time>2021-09-25T10:49:04Z</time>
      </trkpt>
      <trkpt lat="43.15016" lon="3.10511">
        <ele>191.103</ele>
        <time>2021-09-25T10:49:06Z</time>
      </trkpt>
      <trkpt lat="43.15016" lon="3.10509">
        <ele>191.088</ele>
        <time>2021-09-25T10:49:08Z</time>
      </trkpt>
      <trkpt lat="43.15014" lon="3.10507">
        <ele>191.855</ele>
        <time>2021-09-25T10:49:10Z</time>
      </trkpt>
      <trkpt lat="43.15013" lon="3.10504">
        <ele>192.394</ele>
        <time>2021-09-25T10:49:12Z</time>
      </trkpt>
      <trkpt lat="43.15011" lon="3.10502">
        <ele>192.876</ele>
        <time>2021-09-25T10:49:14Z</time>
      </trkpt>
      <trkpt lat="43.15009" lon="3.105">
        <ele>192.537</ele>
        <time>2021-09-25T10:49:16Z</time>
      </trkpt>
      <trkpt lat="43.15008" lon="3.10498">
        <ele>192.31</ele>
        <time>2021-09-25T10:49:18Z</time>
      </trkpt>
      <trkpt lat="43.15007" lon="3.10496">
        <ele>191.705</ele>
        <time>2021-09-25T10:49:20Z</time>
      </trkpt>
      <trkpt lat="43.15005" lon="3.10494">
        <ele>191.685</ele>
        <time>2021-09-25T10:49:22Z</time>
      </trkpt>
      <trkpt lat="43.15004" lon="3.10492">
        <ele>191.556</ele>
        <time>2021-09-25T10:49:24Z</time>
      </trkpt>
      <trkpt lat="43.15002" lon="3.1049">
        <ele>190.845</ele>
        <time>2021-09-25T10:49:26Z</time>
      </trkpt>
      <trkpt lat="43.15001" lon="3.10488">
        <ele>190.851</ele>
        <time>2021-09-25T10:49:28Z</time>
      </trkpt>
      <trkpt lat="43.14999" lon="3.10486">
        <ele>190.461</ele>
        <time>2021-09-25T10:49:30Z</time>
      </trkpt>
      <trkpt lat="43.14997" lon="3.10484">
        <ele>190.392</ele>
        <time>2021-09-25T10:49:32Z</time>
      </trkpt>
      <trkpt lat="43.14995" lon="3.10482">
        <ele>190.391</ele>
        <time>2021-09-25T10:49:34Z</time>
      </trkpt>
      <trkpt lat="43.14993" lon="3.10481">
        <ele>190.126</ele>
        <time>2021-09-25T10:49:36Z</time>
      </trkpt>
      <trkpt lat="43.14992" lon="3.10479">
        <ele>190.137</ele>
        <time>2021-09-25T10:49:38Z</time>
      </trkpt>
      <trkpt lat="43.14989" lon="3.10476">
        <ele>190.791</ele>
        <time>2021-09-25T10:49:40Z</time>
      </trkpt>
      <trkpt lat="43.14987" lon="3.10474">
        <ele>190.975</ele>
        <time>2021-09-25T10:49:42Z</time>
      </trkpt>
      <trkpt lat="43.14986" lon="3.10472">
        <ele>190.715</ele>
        <time>2021-09-25T10:49:44Z</time>
      </trkpt>
      <trkpt lat="43.14984" lon="3.1047">
        <ele>190.476</ele>
        <time>2021-09-25T10:49:46Z</time>
      </trkpt>
      <trkpt lat="43.14982" lon="3.10469">
        <ele>190.368</ele>
        <time>2021-09-25T10:49:48Z</time>
      </trkpt>
      <trkpt lat="43.1498" lon="3.10467">
        <ele>190</ele>
        <time>2021-09-25T10:49:50Z</time>
      </trkpt>
      <trkpt lat="43.14978" lon="3.10465">
        <ele>190.118</ele>
        <time>2021-09-25T10:49:52Z</time>
      </trkpt>
      <trkpt lat="43.14976" lon="3.10463">
        <ele>190.488</ele>
        <time>2021-09-25T10:49:54Z</time>
      </trkpt>
      <trkpt lat="43.14974" lon="3.10462">
        <ele>190.518</ele>
        <time>2021-09-25T10:49:56Z</time>
      </trkpt>
      <trkpt lat="43.14972" lon="3.1046">
        <ele>190.369</ele>
        <time>2021-09-25T10:49:58Z</time>
      </trkpt>
      <trkpt lat="43.14971" lon="3.10458">
        <ele>189.622</ele>
        <time>2021-09-25T10:50:00Z</time>
      </trkpt>
      <trkpt lat="43.14969" lon="3.10457">
        <ele>189.154</ele>
        <time>2021-09-25T10:50:02Z</time>
      </trkpt>
      <trkpt lat="43.14967" lon="3.10455">
        <ele>188.832</ele>
        <time>2021-09-25T10:50:04Z</time>
      </trkpt>
      <trkpt lat="43.14965" lon="3.10454">
        <ele>188.419</ele>
        <time>2021-09-25T10:50:06Z</time>
      </trkpt>
      <trkpt lat="43.14963" lon="3.10452">
        <ele>188.235</ele>
        <time>2021-09-25T10:50:08Z</time>
      </trkpt>
      <trkpt lat="43.14962" lon="3.1045">
        <ele>188.101</ele>
        <time>2021-09-25T10:50:10Z</time>
      </trkpt>
      <trkpt lat="43.1496" lon="3.10448">
        <ele>187.752</ele>
        <time>2021-09-25T10:50:12Z</time>
      </trkpt>
      <trkpt lat="43.14958" lon="3.10446">
        <ele>187.497</ele>
        <time>2021-09-25T10:50:14Z</time>
      </trkpt>
      <trkpt lat="43.14956" lon="3.10444">
        <ele>187.588</ele>
        <time>2021-09-25T10:50:16Z</time>
      </trkpt>
      <trkpt lat="43.14954" lon="3.10443">
        <ele>186.957</ele>
        <time>2021-09-25T10:50:18Z</time>
      </trkpt>
      <trkpt lat="43.14952" lon="3.10441">
        <ele>186.933</ele>
        <time>2021-09-25T10:50:20Z</time>
      </trkpt>
      <trkpt lat="43.1495" lon="3.10438">
        <ele>186.819</ele>
        <time>2021-09-25T10:50:22Z</time>
      </trkpt>
      <trkpt lat="43.14949" lon="3.10436">
        <ele>186.616</ele>
        <time>2021-09-25T10:50:24Z</time>
      </trkpt>
      <trkpt lat="43.14947" lon="3.10434">
        <ele>186.562</ele>
        <time>2021-09-25T10:50:26Z</time>
      </trkpt>
      <trkpt lat="43.14945" lon="3.10433">
        <ele>187.771</ele>
        <time>2021-09-25T10:50:28Z</time>
      </trkpt>
      <trkpt lat="43.14944" lon="3.10432">
        <ele>188.568</ele>
        <time>2021-09-25T10:50:30Z</time>
      </trkpt>
      <trkpt lat="43.14942" lon="3.10429">
        <ele>189.339</ele>
        <time>2021-09-25T10:50:32Z</time>
      </trkpt>
      <trkpt lat="43.14942" lon="3.10427">
        <ele>189.906</ele>
        <time>2021-09-25T10:50:34Z</time>
      </trkpt>
      <trkpt lat="43.14942" lon="3.10427">
        <ele>189.702</ele>
        <time>2021-09-25T10:50:36Z</time>
      </trkpt>
      <trkpt lat="43.14942" lon="3.10427">
        <ele>189.673</ele>
        <time>2021-09-25T10:50:38Z</time>
      </trkpt>
      <trkpt lat="43.14942" lon="3.10427">
        <ele>189.344</ele>
        <time>2021-09-25T10:50:40Z</time>
      </trkpt>
      <trkpt lat="43.14942" lon="3.10426">
        <ele>189.225</ele>
        <time>2021-09-25T10:50:42Z</time>
      </trkpt>
      <trkpt lat="43.14941" lon="3.10425">
        <ele>189.104</ele>
        <time>2021-09-25T10:50:44Z</time>
      </trkpt>
      <trkpt lat="43.14941" lon="3.10424">
        <ele>189.345</ele>
        <time>2021-09-25T10:50:46Z</time>
      </trkpt>
      <trkpt lat="43.14941" lon="3.10424">
        <ele>189.34</ele>
        <time>2021-09-25T10:50:48Z</time>
      </trkpt>
      <trkpt lat="43.14941" lon="3.10424">
        <ele>189.336</ele>
        <time>2021-09-25T10:50:50Z</time>
      </trkpt>
      <trkpt lat="43.14941" lon="3.10424">
        <ele>189.333</ele>
        <time>2021-09-25T10:50:52Z</time>
      </trkpt>
      <trkpt lat="43.14941" lon="3.10424">
        <ele>189.328</ele>
        <time>2021-09-25T10:50:54Z</time>
      </trkpt>
      <trkpt lat="43.14941" lon="3.10424">
        <ele>189.324</ele>
        <time>2021-09-25T10:50:56Z</time>
      </trkpt>
      <trkpt lat="43.14941" lon="3.10424">
        <ele>189.312</ele>
        <time>2021-09-25T10:50:58Z</time>
      </trkpt>
      <trkpt lat="43.14941" lon="3.10424">
        <ele>189.298</ele>
        <time>2021-09-25T10:51:00Z</time>
      </trkpt>
      <trkpt lat="43.14941" lon="3.10424">
        <ele>189.296</ele>
        <time>2021-09-25T10:51:02Z</time>
      </trkpt>
      <trkpt lat="43.1494" lon="3.10423">
        <ele>189.255</ele>
        <time>2021-09-25T10:51:04Z</time>
      </trkpt>
      <trkpt lat="43.1494" lon="3.10423">
        <ele>189.366</ele>
        <time>2021-09-25T10:51:06Z</time>
      </trkpt>
      <trkpt lat="43.14939" lon="3.10423">
        <ele>189.181</ele>
        <time>2021-09-25T10:51:08Z</time>
      </trkpt>
      <trkpt lat="43.14938" lon="3.10422">
        <ele>189.205</ele>
        <time>2021-09-25T10:51:10Z</time>
      </trkpt>
      <trkpt lat="43.14937" lon="3.10421">
        <ele>189.205</ele>
        <time>2021-09-25T10:51:12Z</time>
      </trkpt>
      <trkpt lat="43.14937" lon="3.10421">
        <ele>189.078</ele>
        <time>2021-09-25T10:51:14Z</time>
      </trkpt>
      <trkpt lat="43.14937" lon="3.10421">
        <ele>189.077</ele>
        <time>2021-09-25T10:51:16Z</time>
      </trkpt>
      <trkpt lat="43.14937" lon="3.10421">
        <ele>189.101</ele>
        <time>2021-09-25T10:51:18Z</time>
      </trkpt>
      <trkpt lat="43.14937" lon="3.10421">
        <ele>189.089</ele>
        <time>2021-09-25T10:51:20Z</time>
      </trkpt>
      <trkpt lat="43.14937" lon="3.10421">
        <ele>189.081</ele>
        <time>2021-09-25T10:51:22Z</time>
      </trkpt>
      <trkpt lat="43.14937" lon="3.10421">
        <ele>189.06</ele>
        <time>2021-09-25T10:51:24Z</time>
      </trkpt>
      <trkpt lat="43.14937" lon="3.10421">
        <ele>189.042</ele>
        <time>2021-09-25T10:51:26Z</time>
      </trkpt>
      <trkpt lat="43.14937" lon="3.10421">
        <ele>189.026</ele>
        <time>2021-09-25T10:51:28Z</time>
      </trkpt>
      <trkpt lat="43.14937" lon="3.10421">
        <ele>188.981</ele>
        <time>2021-09-25T10:51:30Z</time>
      </trkpt>
      <trkpt lat="43.14937" lon="3.10421">
        <ele>188.95</ele>
        <time>2021-09-25T10:51:32Z</time>
      </trkpt>
      <trkpt lat="43.14937" lon="3.10421">
        <ele>188.919</ele>
        <time>2021-09-25T10:51:34Z</time>
      </trkpt>
      <trkpt lat="43.14937" lon="3.10421">
        <ele>188.906</ele>
        <time>2021-09-25T10:51:36Z</time>
      </trkpt>
      <trkpt lat="43.14937" lon="3.1042">
        <ele>188.796</ele>
        <time>2021-09-25T10:51:38Z</time>
      </trkpt>
      <trkpt lat="43.14937" lon="3.10419">
        <ele>188.562</ele>
        <time>2021-09-25T10:51:40Z</time>
      </trkpt>
      <trkpt lat="43.14937" lon="3.10419">
        <ele>188.547</ele>
        <time>2021-09-25T10:51:42Z</time>
      </trkpt>
      <trkpt lat="43.14937" lon="3.10419">
        <ele>188.529</ele>
        <time>2021-09-25T10:51:44Z</time>
      </trkpt>
      <trkpt lat="43.14937" lon="3.10419">
        <ele>188.513</ele>
        <time>2021-09-25T10:51:46Z</time>
      </trkpt>
      <trkpt lat="43.14937" lon="3.10419">
        <ele>188.504</ele>
        <time>2021-09-25T10:51:48Z</time>
      </trkpt>
      <trkpt lat="43.14937" lon="3.10419">
        <ele>188.492</ele>
        <time>2021-09-25T10:51:50Z</time>
      </trkpt>
      <trkpt lat="43.14937" lon="3.10419">
        <ele>188.475</ele>
        <time>2021-09-25T10:51:52Z</time>
      </trkpt>
      <trkpt lat="43.14937" lon="3.10419">
        <ele>188.457</ele>
        <time>2021-09-25T10:51:54Z</time>
      </trkpt>
      <trkpt lat="43.14937" lon="3.10419">
        <ele>188.441</ele>
        <time>2021-09-25T10:51:56Z</time>
      </trkpt>
      <trkpt lat="43.14937" lon="3.10419">
        <ele>188.436</ele>
        <time>2021-09-25T10:51:58Z</time>
      </trkpt>
      <trkpt lat="43.14937" lon="3.10419">
        <ele>188.423</ele>
        <time>2021-09-25T10:52:00Z</time>
      </trkpt>
      <trkpt lat="43.14937" lon="3.10419">
        <ele>188.41</ele>
        <time>2021-09-25T10:52:02Z</time>
      </trkpt>
      <trkpt lat="43.14937" lon="3.10419">
        <ele>188.398</ele>
        <time>2021-09-25T10:52:04Z</time>
      </trkpt>
      <trkpt lat="43.14937" lon="3.10419">
        <ele>188.387</ele>
        <time>2021-09-25T10:52:06Z</time>
      </trkpt>
      <trkpt lat="43.14937" lon="3.10419">
        <ele>188.374</ele>
        <time>2021-09-25T10:52:08Z</time>
      </trkpt>
      <trkpt lat="43.14937" lon="3.10419">
        <ele>188.359</ele>
        <time>2021-09-25T10:52:10Z</time>
      </trkpt>
      <trkpt lat="43.14937" lon="3.10419">
        <ele>188.345</ele>
        <time>2021-09-25T10:52:12Z</time>
      </trkpt>
      <trkpt lat="43.14937" lon="3.10419">
        <ele>188.332</ele>
        <time>2021-09-25T10:52:14Z</time>
      </trkpt>
      <trkpt lat="43.14937" lon="3.10419">
        <ele>188.324</ele>
        <time>2021-09-25T10:52:16Z</time>
      </trkpt>
      <trkpt lat="43.14937" lon="3.10419">
        <ele>188.312</ele>
        <time>2021-09-25T10:52:18Z</time>
      </trkpt>
      <trkpt lat="43.14937" lon="3.10419">
        <ele>188.29</ele>
        <time>2021-09-25T10:52:20Z</time>
      </trkpt>
      <trkpt lat="43.14937" lon="3.10419">
        <ele>188.273</ele>
        <time>2021-09-25T10:52:22Z</time>
      </trkpt>
      <trkpt lat="43.14937" lon="3.10419">
        <ele>188.254</ele>
        <time>2021-09-25T10:52:24Z</time>
      </trkpt>
      <trkpt lat="43.14937" lon="3.10419">
        <ele>188.238</ele>
        <time>2021-09-25T10:52:26Z</time>
      </trkpt>
      <trkpt lat="43.14937" lon="3.10419">
        <ele>187.98</ele>
        <time>2021-09-25T10:52:28Z</time>
      </trkpt>
      <trkpt lat="43.14937" lon="3.10418">
        <ele>187.975</ele>
        <time>2021-09-25T10:52:30Z</time>
      </trkpt>
      <trkpt lat="43.14937" lon="3.10418">
        <ele>187.985</ele>
        <time>2021-09-25T10:52:32Z</time>
      </trkpt>
      <trkpt lat="43.14937" lon="3.10418">
        <ele>187.41</ele>
        <time>2021-09-25T10:52:34Z</time>
      </trkpt>
      <trkpt lat="43.14937" lon="3.10418">
        <ele>187.381</ele>
        <time>2021-09-25T10:52:37Z</time>
      </trkpt>
      <trkpt lat="43.14937" lon="3.10417">
        <ele>187.552</ele>
        <time>2021-09-25T10:52:39Z</time>
      </trkpt>
      <trkpt lat="43.14937" lon="3.10416">
        <ele>187.567</ele>
        <time>2021-09-25T10:52:41Z</time>
      </trkpt>
      <trkpt lat="43.14937" lon="3.10416">
        <ele>187.332</ele>
        <time>2021-09-25T10:52:43Z</time>
      </trkpt>
      <trkpt lat="43.14937" lon="3.10416">
        <ele>187.329</ele>
        <time>2021-09-25T10:52:45Z</time>
      </trkpt>
      <trkpt lat="43.14937" lon="3.10416">
        <ele>187.325</ele>
        <time>2021-09-25T10:52:47Z</time>
      </trkpt>
      <trkpt lat="43.14937" lon="3.10416">
        <ele>187.323</ele>
        <time>2021-09-25T10:52:49Z</time>
      </trkpt>
      <trkpt lat="43.14937" lon="3.10416">
        <ele>187.319</ele>
        <time>2021-09-25T10:52:51Z</time>
      </trkpt>
      <trkpt lat="43.14937" lon="3.10416">
        <ele>187.317</ele>
        <time>2021-09-25T10:52:53Z</time>
      </trkpt>
      <trkpt lat="43.14937" lon="3.10416">
        <ele>187.316</ele>
        <time>2021-09-25T10:52:55Z</time>
      </trkpt>
      <trkpt lat="43.14937" lon="3.10416">
        <ele>187.312</ele>
        <time>2021-09-25T10:52:57Z</time>
      </trkpt>
      <trkpt lat="43.14937" lon="3.10416">
        <ele>187.313</ele>
        <time>2021-09-25T10:52:59Z</time>
      </trkpt>
      <trkpt lat="43.14937" lon="3.10416">
        <ele>187.312</ele>
        <time>2021-09-25T10:53:01Z</time>
      </trkpt>
      <trkpt lat="43.14937" lon="3.10416">
        <ele>187.31</ele>
        <time>2021-09-25T10:53:03Z</time>
      </trkpt>
      <trkpt lat="43.14937" lon="3.10416">
        <ele>187.031</ele>
        <time>2021-09-25T10:53:05Z</time>
      </trkpt>
      <trkpt lat="43.14936" lon="3.10417">
        <ele>187.04</ele>
        <time>2021-09-25T10:53:07Z</time>
      </trkpt>
      <trkpt lat="43.14936" lon="3.10418">
        <ele>186.815</ele>
        <time>2021-09-25T10:53:09Z</time>
      </trkpt>
      <trkpt lat="43.14936" lon="3.10418">
        <ele>186.807</ele>
        <time>2021-09-25T10:53:11Z</time>
      </trkpt>
      <trkpt lat="43.14936" lon="3.10418">
        <ele>186.807</ele>
        <time>2021-09-25T10:53:13Z</time>
      </trkpt>
      <trkpt lat="43.14936" lon="3.10418">
        <ele>186.806</ele>
        <time>2021-09-25T10:53:15Z</time>
      </trkpt>
      <trkpt lat="43.14936" lon="3.10418">
        <ele>186.805</ele>
        <time>2021-09-25T10:53:17Z</time>
      </trkpt>
      <trkpt lat="43.14936" lon="3.10418">
        <ele>186.805</ele>
        <time>2021-09-25T10:53:19Z</time>
      </trkpt>
      <trkpt lat="43.14936" lon="3.10418">
        <ele>186.803</ele>
        <time>2021-09-25T10:53:21Z</time>
      </trkpt>
      <trkpt lat="43.14936" lon="3.10418">
        <ele>186.801</ele>
        <time>2021-09-25T10:53:23Z</time>
      </trkpt>
      <trkpt lat="43.14936" lon="3.10418">
        <ele>186.801</ele>
        <time>2021-09-25T10:53:25Z</time>
      </trkpt>
      <trkpt lat="43.14936" lon="3.10418">
        <ele>186.799</ele>
        <time>2021-09-25T10:53:27Z</time>
      </trkpt>
      <trkpt lat="43.14936" lon="3.10418">
        <ele>186.798</ele>
        <time>2021-09-25T10:53:29Z</time>
      </trkpt>
      <trkpt lat="43.14936" lon="3.10418">
        <ele>186.797</ele>
        <time>2021-09-25T10:53:31Z</time>
      </trkpt>
      <trkpt lat="43.14936" lon="3.10418">
        <ele>186.795</ele>
        <time>2021-09-25T10:53:33Z</time>
      </trkpt>
      <trkpt lat="43.14936" lon="3.10418">
        <ele>186.793</ele>
        <time>2021-09-25T10:53:35Z</time>
      </trkpt>
      <trkpt lat="43.14936" lon="3.10418">
        <ele>186.789</ele>
        <time>2021-09-25T10:53:37Z</time>
      </trkpt>
      <trkpt lat="43.14936" lon="3.10418">
        <ele>186.784</ele>
        <time>2021-09-25T10:53:39Z</time>
      </trkpt>
      <trkpt lat="43.14936" lon="3.10418">
        <ele>186.779</ele>
        <time>2021-09-25T10:53:41Z</time>
      </trkpt>
      <trkpt lat="43.14936" lon="3.10418">
        <ele>186.773</ele>
        <time>2021-09-25T10:53:43Z</time>
      </trkpt>
      <trkpt lat="43.14936" lon="3.10419">
        <ele>186.621</ele>
        <time>2021-09-25T10:53:45Z</time>
      </trkpt>
      <trkpt lat="43.14936" lon="3.10419">
        <ele>186.613</ele>
        <time>2021-09-25T10:53:47Z</time>
      </trkpt>
      <trkpt lat="43.14936" lon="3.10419">
        <ele>186.609</ele>
        <time>2021-09-25T10:53:49Z</time>
      </trkpt>
      <trkpt lat="43.14936" lon="3.10419">
        <ele>186.604</ele>
        <time>2021-09-25T10:53:51Z</time>
      </trkpt>
      <trkpt lat="43.14936" lon="3.10419">
        <ele>186.602</ele>
        <time>2021-09-25T10:53:53Z</time>
      </trkpt>
      <trkpt lat="43.14936" lon="3.10419">
        <ele>186.599</ele>
        <time>2021-09-25T10:53:55Z</time>
      </trkpt>
      <trkpt lat="43.14936" lon="3.10419">
        <ele>186.589</ele>
        <time>2021-09-25T10:53:57Z</time>
      </trkpt>
      <trkpt lat="43.14936" lon="3.10419">
        <ele>186.348</ele>
        <time>2021-09-25T10:53:59Z</time>
      </trkpt>
      <trkpt lat="43.14936" lon="3.10419">
        <ele>186.348</ele>
        <time>2021-09-25T10:54:01Z</time>
      </trkpt>
      <trkpt lat="43.14936" lon="3.10419">
        <ele>186.344</ele>
        <time>2021-09-25T10:54:03Z</time>
      </trkpt>
      <trkpt lat="43.14936" lon="3.10419">
        <ele>186.339</ele>
        <time>2021-09-25T10:54:05Z</time>
      </trkpt>
      <trkpt lat="43.14936" lon="3.10419">
        <ele>186.338</ele>
        <time>2021-09-25T10:54:07Z</time>
      </trkpt>
      <trkpt lat="43.14936" lon="3.10419">
        <ele>186.335</ele>
        <time>2021-09-25T10:54:09Z</time>
      </trkpt>
      <trkpt lat="43.14936" lon="3.10419">
        <ele>186.333</ele>
        <time>2021-09-25T10:54:11Z</time>
      </trkpt>
      <trkpt lat="43.14936" lon="3.10419">
        <ele>186.331</ele>
        <time>2021-09-25T10:54:13Z</time>
      </trkpt>
      <trkpt lat="43.14936" lon="3.10419">
        <ele>186.326</ele>
        <time>2021-09-25T10:54:15Z</time>
      </trkpt>
      <trkpt lat="43.14936" lon="3.10419">
        <ele>186.324</ele>
        <time>2021-09-25T10:54:17Z</time>
      </trkpt>
      <trkpt lat="43.14936" lon="3.10419">
        <ele>186.321</ele>
        <time>2021-09-25T10:54:19Z</time>
      </trkpt>
      <trkpt lat="43.14936" lon="3.10419">
        <ele>186.316</ele>
        <time>2021-09-25T10:54:21Z</time>
      </trkpt>
      <trkpt lat="43.14936" lon="3.10419">
        <ele>186.308</ele>
        <time>2021-09-25T10:54:23Z</time>
      </trkpt>
      <trkpt lat="43.14936" lon="3.10419">
        <ele>186.309</ele>
        <time>2021-09-25T10:54:25Z</time>
      </trkpt>
      <trkpt lat="43.14936" lon="3.10419">
        <ele>186.309</ele>
        <time>2021-09-25T10:54:27Z</time>
      </trkpt>
      <trkpt lat="43.14936" lon="3.10419">
        <ele>186.308</ele>
        <time>2021-09-25T10:54:29Z</time>
      </trkpt>
      <trkpt lat="43.14936" lon="3.10419">
        <ele>186.306</ele>
        <time>2021-09-25T10:54:31Z</time>
      </trkpt>
      <trkpt lat="43.14936" lon="3.10419">
        <ele>186.302</ele>
        <time>2021-09-25T10:54:33Z</time>
      </trkpt>
      <trkpt lat="43.14936" lon="3.10419">
        <ele>186.298</ele>
        <time>2021-09-25T10:54:35Z</time>
      </trkpt>
      <trkpt lat="43.14936" lon="3.10419">
        <ele>186.291</ele>
        <time>2021-09-25T10:54:37Z</time>
      </trkpt>
      <trkpt lat="43.14936" lon="3.10418">
        <ele>185.868</ele>
        <time>2021-09-25T10:54:39Z</time>
      </trkpt>
      <trkpt lat="43.14937" lon="3.10418">
        <ele>185.855</ele>
        <time>2021-09-25T10:54:41Z</time>
      </trkpt>
      <trkpt lat="43.14937" lon="3.10418">
        <ele>185.847</ele>
        <time>2021-09-25T10:54:43Z</time>
      </trkpt>
      <trkpt lat="43.14937" lon="3.10418">
        <ele>185.842</ele>
        <time>2021-09-25T10:54:45Z</time>
      </trkpt>
      <trkpt lat="43.14937" lon="3.10418">
        <ele>185.834</ele>
        <time>2021-09-25T10:54:47Z</time>
      </trkpt>
      <trkpt lat="43.14937" lon="3.10418">
        <ele>185.827</ele>
        <time>2021-09-25T10:54:49Z</time>
      </trkpt>
      <trkpt lat="43.14937" lon="3.10418">
        <ele>185.818</ele>
        <time>2021-09-25T10:54:51Z</time>
      </trkpt>
      <trkpt lat="43.14937" lon="3.10418">
        <ele>185.817</ele>
        <time>2021-09-25T10:54:53Z</time>
      </trkpt>
      <trkpt lat="43.14937" lon="3.10418">
        <ele>185.816</ele>
        <time>2021-09-25T10:54:55Z</time>
      </trkpt>
      <trkpt lat="43.14937" lon="3.10418">
        <ele>185.817</ele>
        <time>2021-09-25T10:54:57Z</time>
      </trkpt>
      <trkpt lat="43.14937" lon="3.10418">
        <ele>185.814</ele>
        <time>2021-09-25T10:54:59Z</time>
      </trkpt>
      <trkpt lat="43.14937" lon="3.10418">
        <ele>185.812</ele>
        <time>2021-09-25T10:55:01Z</time>
      </trkpt>
      <trkpt lat="43.14937" lon="3.10418">
        <ele>185.81</ele>
        <time>2021-09-25T10:55:03Z</time>
      </trkpt>
      <trkpt lat="43.14937" lon="3.10418">
        <ele>185.81</ele>
        <time>2021-09-25T10:55:05Z</time>
      </trkpt>
      <trkpt lat="43.14937" lon="3.10418">
        <ele>185.804</ele>
        <time>2021-09-25T10:55:07Z</time>
      </trkpt>
      <trkpt lat="43.14937" lon="3.10418">
        <ele>185.801</ele>
        <time>2021-09-25T10:55:09Z</time>
      </trkpt>
      <trkpt lat="43.14937" lon="3.10418">
        <ele>185.797</ele>
        <time>2021-09-25T10:55:11Z</time>
      </trkpt>
      <trkpt lat="43.14937" lon="3.10418">
        <ele>185.791</ele>
        <time>2021-09-25T10:55:13Z</time>
      </trkpt>
      <trkpt lat="43.14937" lon="3.10418">
        <ele>185.614</ele>
        <time>2021-09-25T10:55:15Z</time>
      </trkpt>
      <trkpt lat="43.14937" lon="3.10418">
        <ele>185.6</ele>
        <time>2021-09-25T10:55:17Z</time>
      </trkpt>
      <trkpt lat="43.14937" lon="3.10418">
        <ele>185.594</ele>
        <time>2021-09-25T10:55:19Z</time>
      </trkpt>
      <trkpt lat="43.14937" lon="3.10418">
        <ele>185.592</ele>
        <time>2021-09-25T10:55:21Z</time>
      </trkpt>
      <trkpt lat="43.14937" lon="3.10418">
        <ele>185.59</ele>
        <time>2021-09-25T10:55:23Z</time>
      </trkpt>
      <trkpt lat="43.14937" lon="3.10418">
        <ele>185.591</ele>
        <time>2021-09-25T10:55:25Z</time>
      </trkpt>
      <trkpt lat="43.14937" lon="3.10418">
        <ele>185.592</ele>
        <time>2021-09-25T10:55:27Z</time>
      </trkpt>
      <trkpt lat="43.14937" lon="3.10418">
        <ele>185.591</ele>
        <time>2021-09-25T10:55:29Z</time>
      </trkpt>
      <trkpt lat="43.14937" lon="3.10418">
        <ele>185.589</ele>
        <time>2021-09-25T10:55:31Z</time>
      </trkpt>
      <trkpt lat="43.14937" lon="3.10418">
        <ele>185.586</ele>
        <time>2021-09-25T10:55:33Z</time>
      </trkpt>
      <trkpt lat="43.14937" lon="3.10418">
        <ele>185.584</ele>
        <time>2021-09-25T10:55:35Z</time>
      </trkpt>
      <trkpt lat="43.14937" lon="3.10418">
        <ele>185.585</ele>
        <time>2021-09-25T10:55:37Z</time>
      </trkpt>
      <trkpt lat="43.14937" lon="3.10418">
        <ele>185.582</ele>
        <time>2021-09-25T10:55:39Z</time>
      </trkpt>
      <trkpt lat="43.14937" lon="3.10418">
        <ele>185.581</ele>
        <time>2021-09-25T10:55:41Z</time>
      </trkpt>
      <trkpt lat="43.14937" lon="3.10418">
        <ele>185.578</ele>
        <time>2021-09-25T10:55:43Z</time>
      </trkpt>
      <trkpt lat="43.14937" lon="3.10418">
        <ele>185.575</ele>
        <time>2021-09-25T10:55:45Z</time>
      </trkpt>
      <trkpt lat="43.14937" lon="3.10418">
        <ele>185.573</ele>
        <time>2021-09-25T10:55:47Z</time>
      </trkpt>
      <trkpt lat="43.14937" lon="3.10418">
        <ele>185.573</ele>
        <time>2021-09-25T10:55:49Z</time>
      </trkpt>
      <trkpt lat="43.14937" lon="3.10418">
        <ele>185.572</ele>
        <time>2021-09-25T10:55:51Z</time>
      </trkpt>
      <trkpt lat="43.14937" lon="3.10418">
        <ele>185.574</ele>
        <time>2021-09-25T10:55:53Z</time>
      </trkpt>
      <trkpt lat="43.14937" lon="3.10418">
        <ele>185.57</ele>
        <time>2021-09-25T10:55:55Z</time>
      </trkpt>
      <trkpt lat="43.14937" lon="3.10418">
        <ele>185.568</ele>
        <time>2021-09-25T10:55:57Z</time>
      </trkpt>
      <trkpt lat="43.14937" lon="3.10418">
        <ele>185.569</ele>
        <time>2021-09-25T10:55:59Z</time>
      </trkpt>
      <trkpt lat="43.14937" lon="3.10418">
        <ele>185.569</ele>
        <time>2021-09-25T10:56:01Z</time>
      </trkpt>
      <trkpt lat="43.14937" lon="3.10418">
        <ele>185.569</ele>
        <time>2021-09-25T10:56:03Z</time>
      </trkpt>
      <trkpt lat="43.14937" lon="3.10418">
        <ele>185.568</ele>
        <time>2021-09-25T10:56:05Z</time>
      </trkpt>
      <trkpt lat="43.14937" lon="3.10418">
        <ele>185.567</ele>
        <time>2021-09-25T10:56:07Z</time>
      </trkpt>
      <trkpt lat="43.14937" lon="3.10418">
        <ele>185.566</ele>
        <time>2021-09-25T10:56:09Z</time>
      </trkpt>
      <trkpt lat="43.14937" lon="3.10418">
        <ele>185.566</ele>
        <time>2021-09-25T10:56:11Z</time>
      </trkpt>
      <trkpt lat="43.14937" lon="3.10418">
        <ele>185.563</ele>
        <time>2021-09-25T10:56:13Z</time>
      </trkpt>
      <trkpt lat="43.14937" lon="3.10418">
        <ele>185.503</ele>
        <time>2021-09-25T10:56:15Z</time>
      </trkpt>
      <trkpt lat="43.14937" lon="3.1042">
        <ele>185.139</ele>
        <time>2021-09-25T10:56:17Z</time>
      </trkpt>
      <trkpt lat="43.14938" lon="3.1042">
        <ele>185.032</ele>
        <time>2021-09-25T10:56:19Z</time>
      </trkpt>
      <trkpt lat="43.14938" lon="3.1042">
        <ele>185.02</ele>
        <time>2021-09-25T10:56:21Z</time>
      </trkpt>
      <trkpt lat="43.14938" lon="3.1042">
        <ele>184.884</ele>
        <time>2021-09-25T10:56:23Z</time>
      </trkpt>
      <trkpt lat="43.14938" lon="3.1042">
        <ele>184.878</ele>
        <time>2021-09-25T10:56:25Z</time>
      </trkpt>
      <trkpt lat="43.14938" lon="3.1042">
        <ele>184.877</ele>
        <time>2021-09-25T10:56:27Z</time>
      </trkpt>
      <trkpt lat="43.14938" lon="3.1042">
        <ele>184.814</ele>
        <time>2021-09-25T10:56:29Z</time>
      </trkpt>
      <trkpt lat="43.14937" lon="3.10418">
        <ele>184.281</ele>
        <time>2021-09-25T10:56:31Z</time>
      </trkpt>
      <trkpt lat="43.14936" lon="3.10415">
        <ele>184.398</ele>
        <time>2021-09-25T10:56:33Z</time>
      </trkpt>
      <trkpt lat="43.14934" lon="3.10413">
        <ele>184.18</ele>
        <time>2021-09-25T10:56:35Z</time>
      </trkpt>
      <trkpt lat="43.14933" lon="3.1041">
        <ele>183.897</ele>
        <time>2021-09-25T10:56:37Z</time>
      </trkpt>
      <trkpt lat="43.14932" lon="3.10407">
        <ele>183.808</ele>
        <time>2021-09-25T10:56:39Z</time>
      </trkpt>
      <trkpt lat="43.14931" lon="3.10403">
        <ele>183.659</ele>
        <time>2021-09-25T10:56:41Z</time>
      </trkpt>
      <trkpt lat="43.1493" lon="3.104">
        <ele>183.293</ele>
        <time>2021-09-25T10:56:43Z</time>
      </trkpt>
      <trkpt lat="43.1493" lon="3.10397">
        <ele>183.284</ele>
        <time>2021-09-25T10:56:45Z</time>
      </trkpt>
      <trkpt lat="43.14929" lon="3.10394">
        <ele>182.749</ele>
        <time>2021-09-25T10:56:47Z</time>
      </trkpt>
      <trkpt lat="43.14928" lon="3.1039">
        <ele>183.239</ele>
        <time>2021-09-25T10:56:49Z</time>
      </trkpt>
      <trkpt lat="43.14928" lon="3.10387">
        <ele>183.135</ele>
        <time>2021-09-25T10:56:51Z</time>
      </trkpt>
      <trkpt lat="43.14928" lon="3.10383">
        <ele>182.833</ele>
        <time>2021-09-25T10:56:53Z</time>
      </trkpt>
      <trkpt lat="43.14928" lon="3.1038">
        <ele>182.863</ele>
        <time>2021-09-25T10:56:55Z</time>
      </trkpt>
      <trkpt lat="43.14929" lon="3.10377">
        <ele>182.681</ele>
        <time>2021-09-25T10:56:57Z</time>
      </trkpt>
      <trkpt lat="43.1493" lon="3.10373">
        <ele>182.521</ele>
        <time>2021-09-25T10:56:59Z</time>
      </trkpt>
      <trkpt lat="43.1493" lon="3.1037">
        <ele>182.111</ele>
        <time>2021-09-25T10:57:01Z</time>
      </trkpt>
      <trkpt lat="43.14931" lon="3.10368">
        <ele>182.275</ele>
        <time>2021-09-25T10:57:03Z</time>
      </trkpt>
      <trkpt lat="43.14933" lon="3.10365">
        <ele>182.04</ele>
        <time>2021-09-25T10:57:05Z</time>
      </trkpt>
      <trkpt lat="43.14935" lon="3.10362">
        <ele>181.978</ele>
        <time>2021-09-25T10:57:07Z</time>
      </trkpt>
      <trkpt lat="43.14937" lon="3.10361">
        <ele>181.595</ele>
        <time>2021-09-25T10:57:09Z</time>
      </trkpt>
      <trkpt lat="43.14939" lon="3.10359">
        <ele>181.42</ele>
        <time>2021-09-25T10:57:11Z</time>
      </trkpt>
      <trkpt lat="43.14941" lon="3.10357">
        <ele>181.801</ele>
        <time>2021-09-25T10:57:13Z</time>
      </trkpt>
      <trkpt lat="43.14943" lon="3.10355">
        <ele>181.95</ele>
        <time>2021-09-25T10:57:15Z</time>
      </trkpt>
      <trkpt lat="43.14945" lon="3.10354">
        <ele>182.051</ele>
        <time>2021-09-25T10:57:17Z</time>
      </trkpt>
      <trkpt lat="43.14948" lon="3.10353">
        <ele>182.003</ele>
        <time>2021-09-25T10:57:19Z</time>
      </trkpt>
      <trkpt lat="43.1495" lon="3.10353">
        <ele>182.214</ele>
        <time>2021-09-25T10:57:21Z</time>
      </trkpt>
      <trkpt lat="43.14952" lon="3.10354">
        <ele>182.246</ele>
        <time>2021-09-25T10:57:23Z</time>
      </trkpt>
      <trkpt lat="43.14955" lon="3.10354">
        <ele>182.293</ele>
        <time>2021-09-25T10:57:25Z</time>
      </trkpt>
      <trkpt lat="43.14957" lon="3.10355">
        <ele>182.25</ele>
        <time>2021-09-25T10:57:27Z</time>
      </trkpt>
      <trkpt lat="43.1496" lon="3.10355">
        <ele>181.957</ele>
        <time>2021-09-25T10:57:29Z</time>
      </trkpt>
      <trkpt lat="43.14962" lon="3.10357">
        <ele>182.126</ele>
        <time>2021-09-25T10:57:31Z</time>
      </trkpt>
      <trkpt lat="43.14964" lon="3.10359">
        <ele>181.839</ele>
        <time>2021-09-25T10:57:33Z</time>
      </trkpt>
      <trkpt lat="43.14966" lon="3.1036">
        <ele>181.756</ele>
        <time>2021-09-25T10:57:35Z</time>
      </trkpt>
      <trkpt lat="43.14968" lon="3.10361">
        <ele>181.473</ele>
        <time>2021-09-25T10:57:37Z</time>
      </trkpt>
      <trkpt lat="43.1497" lon="3.10362">
        <ele>181.572</ele>
        <time>2021-09-25T10:57:39Z</time>
      </trkpt>
      <trkpt lat="43.14973" lon="3.10364">
        <ele>181.198</ele>
        <time>2021-09-25T10:57:41Z</time>
      </trkpt>
      <trkpt lat="43.14975" lon="3.10365">
        <ele>181.142</ele>
        <time>2021-09-25T10:57:43Z</time>
      </trkpt>
      <trkpt lat="43.14977" lon="3.10366">
        <ele>181.038</ele>
        <time>2021-09-25T10:57:45Z</time>
      </trkpt>
      <trkpt lat="43.14979" lon="3.10367">
        <ele>181.001</ele>
        <time>2021-09-25T10:57:47Z</time>
      </trkpt>
      <trkpt lat="43.14982" lon="3.10368">
        <ele>181.32</ele>
        <time>2021-09-25T10:57:49Z</time>
      </trkpt>
      <trkpt lat="43.14986" lon="3.1037">
        <ele>181.733</ele>
        <time>2021-09-25T10:57:52Z</time>
      </trkpt>
      <trkpt lat="43.14988" lon="3.10371">
        <ele>181.727</ele>
        <time>2021-09-25T10:57:54Z</time>
      </trkpt>
      <trkpt lat="43.14991" lon="3.10372">
        <ele>182.036</ele>
        <time>2021-09-25T10:57:56Z</time>
      </trkpt>
      <trkpt lat="43.14993" lon="3.10374">
        <ele>181.679</ele>
        <time>2021-09-25T10:57:58Z</time>
      </trkpt>
      <trkpt lat="43.14995" lon="3.10375">
        <ele>182.022</ele>
        <time>2021-09-25T10:58:00Z</time>
      </trkpt>
      <trkpt lat="43.14998" lon="3.10376">
        <ele>181.559</ele>
        <time>2021-09-25T10:58:02Z</time>
      </trkpt>
      <trkpt lat="43.15" lon="3.10377">
        <ele>181.541</ele>
        <time>2021-09-25T10:58:04Z</time>
      </trkpt>
      <trkpt lat="43.15002" lon="3.10378">
        <ele>181.494</ele>
        <time>2021-09-25T10:58:06Z</time>
      </trkpt>
      <trkpt lat="43.15005" lon="3.10379">
        <ele>181.332</ele>
        <time>2021-09-25T10:58:08Z</time>
      </trkpt>
      <trkpt lat="43.15007" lon="3.1038">
        <ele>181.219</ele>
        <time>2021-09-25T10:58:10Z</time>
      </trkpt>
      <trkpt lat="43.15009" lon="3.10381">
        <ele>181.178</ele>
        <time>2021-09-25T10:58:12Z</time>
      </trkpt>
      <trkpt lat="43.15012" lon="3.10383">
        <ele>181.345</ele>
        <time>2021-09-25T10:58:14Z</time>
      </trkpt>
      <trkpt lat="43.15014" lon="3.10384">
        <ele>181.186</ele>
        <time>2021-09-25T10:58:16Z</time>
      </trkpt>
      <trkpt lat="43.15017" lon="3.10385">
        <ele>181.041</ele>
        <time>2021-09-25T10:58:18Z</time>
      </trkpt>
      <trkpt lat="43.15019" lon="3.10386">
        <ele>181.259</ele>
        <time>2021-09-25T10:58:20Z</time>
      </trkpt>
      <trkpt lat="43.15022" lon="3.10388">
        <ele>181.702</ele>
        <time>2021-09-25T10:58:22Z</time>
      </trkpt>
      <trkpt lat="43.15025" lon="3.10389">
        <ele>182.301</ele>
        <time>2021-09-25T10:58:24Z</time>
      </trkpt>
      <trkpt lat="43.15027" lon="3.1039">
        <ele>182.227</ele>
        <time>2021-09-25T10:58:26Z</time>
      </trkpt>
      <trkpt lat="43.1503" lon="3.1039">
        <ele>182.469</ele>
        <time>2021-09-25T10:58:28Z</time>
      </trkpt>
      <trkpt lat="43.15033" lon="3.10392">
        <ele>182.963</ele>
        <time>2021-09-25T10:58:30Z</time>
      </trkpt>
      <trkpt lat="43.15035" lon="3.10392">
        <ele>183.196</ele>
        <time>2021-09-25T10:58:32Z</time>
      </trkpt>
      <trkpt lat="43.15038" lon="3.10393">
        <ele>183.184</ele>
        <time>2021-09-25T10:58:34Z</time>
      </trkpt>
      <trkpt lat="43.15041" lon="3.10394">
        <ele>183.273</ele>
        <time>2021-09-25T10:58:36Z</time>
      </trkpt>
      <trkpt lat="43.15043" lon="3.10394">
        <ele>183.115</ele>
        <time>2021-09-25T10:58:38Z</time>
      </trkpt>
      <trkpt lat="43.15046" lon="3.10395">
        <ele>183.261</ele>
        <time>2021-09-25T10:58:40Z</time>
      </trkpt>
      <trkpt lat="43.15048" lon="3.10395">
        <ele>183.64</ele>
        <time>2021-09-25T10:58:42Z</time>
      </trkpt>
      <trkpt lat="43.15051" lon="3.10395">
        <ele>184.081</ele>
        <time>2021-09-25T10:58:44Z</time>
      </trkpt>
      <trkpt lat="43.15054" lon="3.10395">
        <ele>184.192</ele>
        <time>2021-09-25T10:58:46Z</time>
      </trkpt>
      <trkpt lat="43.15056" lon="3.10395">
        <ele>184.355</ele>
        <time>2021-09-25T10:58:48Z</time>
      </trkpt>
      <trkpt lat="43.15059" lon="3.10395">
        <ele>184.368</ele>
        <time>2021-09-25T10:58:50Z</time>
      </trkpt>
      <trkpt lat="43.15061" lon="3.10394">
        <ele>184.731</ele>
        <time>2021-09-25T10:58:52Z</time>
      </trkpt>
      <trkpt lat="43.15064" lon="3.10393">
        <ele>185.063</ele>
        <time>2021-09-25T10:58:54Z</time>
      </trkpt>
      <trkpt lat="43.15067" lon="3.10393">
        <ele>186.623</ele>
        <time>2021-09-25T10:58:56Z</time>
      </trkpt>
      <trkpt lat="43.1507" lon="3.10391">
        <ele>187.158</ele>
        <time>2021-09-25T10:58:58Z</time>
      </trkpt>
      <trkpt lat="43.15072" lon="3.1039">
        <ele>187.387</ele>
        <time>2021-09-25T10:59:00Z</time>
      </trkpt>
      <trkpt lat="43.15075" lon="3.10389">
        <ele>187.522</ele>
        <time>2021-09-25T10:59:02Z</time>
      </trkpt>
      <trkpt lat="43.15077" lon="3.10388">
        <ele>187.902</ele>
        <time>2021-09-25T10:59:04Z</time>
      </trkpt>
      <trkpt lat="43.1508" lon="3.10386">
        <ele>188.648</ele>
        <time>2021-09-25T10:59:06Z</time>
      </trkpt>
      <trkpt lat="43.15082" lon="3.10385">
        <ele>188.866</ele>
        <time>2021-09-25T10:59:08Z</time>
      </trkpt>
      <trkpt lat="43.15084" lon="3.10384">
        <ele>188.648</ele>
        <time>2021-09-25T10:59:10Z</time>
      </trkpt>
      <trkpt lat="43.15086" lon="3.10383">
        <ele>189.031</ele>
        <time>2021-09-25T10:59:12Z</time>
      </trkpt>
      <trkpt lat="43.15089" lon="3.10381">
        <ele>189.228</ele>
        <time>2021-09-25T10:59:14Z</time>
      </trkpt>
      <trkpt lat="43.15091" lon="3.10381">
        <ele>189.279</ele>
        <time>2021-09-25T10:59:16Z</time>
      </trkpt>
      <trkpt lat="43.15093" lon="3.1038">
        <ele>189.048</ele>
        <time>2021-09-25T10:59:18Z</time>
      </trkpt>
      <trkpt lat="43.15095" lon="3.10378">
        <ele>189.307</ele>
        <time>2021-09-25T10:59:20Z</time>
      </trkpt>
      <trkpt lat="43.15097" lon="3.10377">
        <ele>189.277</ele>
        <time>2021-09-25T10:59:22Z</time>
      </trkpt>
      <trkpt lat="43.15099" lon="3.10376">
        <ele>189.323</ele>
        <time>2021-09-25T10:59:24Z</time>
      </trkpt>
      <trkpt lat="43.15102" lon="3.10375">
        <ele>189.528</ele>
        <time>2021-09-25T10:59:26Z</time>
      </trkpt>
      <trkpt lat="43.15104" lon="3.10374">
        <ele>189.378</ele>
        <time>2021-09-25T10:59:28Z</time>
      </trkpt>
      <trkpt lat="43.15106" lon="3.10374">
        <ele>188.508</ele>
        <time>2021-09-25T10:59:30Z</time>
      </trkpt>
      <trkpt lat="43.15108" lon="3.10372">
        <ele>188.486</ele>
        <time>2021-09-25T10:59:32Z</time>
      </trkpt>
      <trkpt lat="43.1511" lon="3.10372">
        <ele>188.405</ele>
        <time>2021-09-25T10:59:34Z</time>
      </trkpt>
      <trkpt lat="43.15113" lon="3.10371">
        <ele>188.799</ele>
        <time>2021-09-25T10:59:36Z</time>
      </trkpt>
      <trkpt lat="43.15115" lon="3.1037">
        <ele>188.861</ele>
        <time>2021-09-25T10:59:38Z</time>
      </trkpt>
      <trkpt lat="43.15117" lon="3.1037">
        <ele>189.98</ele>
        <time>2021-09-25T10:59:40Z</time>
      </trkpt>
      <trkpt lat="43.15119" lon="3.10369">
        <ele>189.906</ele>
        <time>2021-09-25T10:59:42Z</time>
      </trkpt>
      <trkpt lat="43.15122" lon="3.10368">
        <ele>189.496</ele>
        <time>2021-09-25T10:59:44Z</time>
      </trkpt>
      <trkpt lat="43.15124" lon="3.10367">
        <ele>189.344</ele>
        <time>2021-09-25T10:59:46Z</time>
      </trkpt>
      <trkpt lat="43.15127" lon="3.10367">
        <ele>190.153</ele>
        <time>2021-09-25T10:59:48Z</time>
      </trkpt>
      <trkpt lat="43.15129" lon="3.10366">
        <ele>190.54</ele>
        <time>2021-09-25T10:59:50Z</time>
      </trkpt>
      <trkpt lat="43.15132" lon="3.10366">
        <ele>190.17</ele>
        <time>2021-09-25T10:59:52Z</time>
      </trkpt>
      <trkpt lat="43.15134" lon="3.10365">
        <ele>189.796</ele>
        <time>2021-09-25T10:59:54Z</time>
      </trkpt>
      <trkpt lat="43.15137" lon="3.10365">
        <ele>189.355</ele>
        <time>2021-09-25T10:59:56Z</time>
      </trkpt>
      <trkpt lat="43.15139" lon="3.10365">
        <ele>189.286</ele>
        <time>2021-09-25T10:59:58Z</time>
      </trkpt>
      <trkpt lat="43.15142" lon="3.10364">
        <ele>189.74</ele>
        <time>2021-09-25T11:00:00Z</time>
      </trkpt>
      <trkpt lat="43.15145" lon="3.10364">
        <ele>189.827</ele>
        <time>2021-09-25T11:00:02Z</time>
      </trkpt>
      <trkpt lat="43.15147" lon="3.10363">
        <ele>189.848</ele>
        <time>2021-09-25T11:00:04Z</time>
      </trkpt>
      <trkpt lat="43.1515" lon="3.10363">
        <ele>189.669</ele>
        <time>2021-09-25T11:00:06Z</time>
      </trkpt>
      <trkpt lat="43.15153" lon="3.10363">
        <ele>189.373</ele>
        <time>2021-09-25T11:00:08Z</time>
      </trkpt>
      <trkpt lat="43.15155" lon="3.10362">
        <ele>189.746</ele>
        <time>2021-09-25T11:00:10Z</time>
      </trkpt>
      <trkpt lat="43.15157" lon="3.10362">
        <ele>189.862</ele>
        <time>2021-09-25T11:00:12Z</time>
      </trkpt>
      <trkpt lat="43.1516" lon="3.10362">
        <ele>190.125</ele>
        <time>2021-09-25T11:00:14Z</time>
      </trkpt>
      <trkpt lat="43.15162" lon="3.10362">
        <ele>190.481</ele>
        <time>2021-09-25T11:00:16Z</time>
      </trkpt>
      <trkpt lat="43.15165" lon="3.10362">
        <ele>190.936</ele>
        <time>2021-09-25T11:00:18Z</time>
      </trkpt>
      <trkpt lat="43.15167" lon="3.10362">
        <ele>190.882</ele>
        <time>2021-09-25T11:00:20Z</time>
      </trkpt>
      <trkpt lat="43.1517" lon="3.10363">
        <ele>190.806</ele>
        <time>2021-09-25T11:00:22Z</time>
      </trkpt>
      <trkpt lat="43.15172" lon="3.10363">
        <ele>190.565</ele>
        <time>2021-09-25T11:00:24Z</time>
      </trkpt>
      <trkpt lat="43.15175" lon="3.10364">
        <ele>190.462</ele>
        <time>2021-09-25T11:00:26Z</time>
      </trkpt>
      <trkpt lat="43.15177" lon="3.10365">
        <ele>190.647</ele>
        <time>2021-09-25T11:00:28Z</time>
      </trkpt>
      <trkpt lat="43.1518" lon="3.10366">
        <ele>190.405</ele>
        <time>2021-09-25T11:00:30Z</time>
      </trkpt>
      <trkpt lat="43.15182" lon="3.10367">
        <ele>190.315</ele>
        <time>2021-09-25T11:00:32Z</time>
      </trkpt>
      <trkpt lat="43.15184" lon="3.10368">
        <ele>189.968</ele>
        <time>2021-09-25T11:00:34Z</time>
      </trkpt>
      <trkpt lat="43.15187" lon="3.10369">
        <ele>189.762</ele>
        <time>2021-09-25T11:00:36Z</time>
      </trkpt>
      <trkpt lat="43.15189" lon="3.10371">
        <ele>189.765</ele>
        <time>2021-09-25T11:00:38Z</time>
      </trkpt>
      <trkpt lat="43.15191" lon="3.10372">
        <ele>190.083</ele>
        <time>2021-09-25T11:00:40Z</time>
      </trkpt>
      <trkpt lat="43.15194" lon="3.10373">
        <ele>189.693</ele>
        <time>2021-09-25T11:00:42Z</time>
      </trkpt>
      <trkpt lat="43.15197" lon="3.10373">
        <ele>189.516</ele>
        <time>2021-09-25T11:00:44Z</time>
      </trkpt>
      <trkpt lat="43.15199" lon="3.10372">
        <ele>189.65</ele>
        <time>2021-09-25T11:00:46Z</time>
      </trkpt>
      <trkpt lat="43.15202" lon="3.10371">
        <ele>189.893</ele>
        <time>2021-09-25T11:00:48Z</time>
      </trkpt>
      <trkpt lat="43.15204" lon="3.10369">
        <ele>190.15</ele>
        <time>2021-09-25T11:00:50Z</time>
      </trkpt>
      <trkpt lat="43.15205" lon="3.10365">
        <ele>189.671</ele>
        <time>2021-09-25T11:00:52Z</time>
      </trkpt>
      <trkpt lat="43.15205" lon="3.10362">
        <ele>189.259</ele>
        <time>2021-09-25T11:00:54Z</time>
      </trkpt>
      <trkpt lat="43.15204" lon="3.10359">
        <ele>189.257</ele>
        <time>2021-09-25T11:00:56Z</time>
      </trkpt>
      <trkpt lat="43.15204" lon="3.10356">
        <ele>189.337</ele>
        <time>2021-09-25T11:00:58Z</time>
      </trkpt>
      <trkpt lat="43.15203" lon="3.10352">
        <ele>189.041</ele>
        <time>2021-09-25T11:01:00Z</time>
      </trkpt>
      <trkpt lat="43.15201" lon="3.10349">
        <ele>188.745</ele>
        <time>2021-09-25T11:01:02Z</time>
      </trkpt>
      <trkpt lat="43.152" lon="3.10346">
        <ele>188.721</ele>
        <time>2021-09-25T11:01:04Z</time>
      </trkpt>
      <trkpt lat="43.15199" lon="3.10343">
        <ele>188.358</ele>
        <time>2021-09-25T11:01:06Z</time>
      </trkpt>
      <trkpt lat="43.15197" lon="3.1034">
        <ele>187.862</ele>
        <time>2021-09-25T11:01:08Z</time>
      </trkpt>
      <trkpt lat="43.15195" lon="3.10338">
        <ele>187.787</ele>
        <time>2021-09-25T11:01:10Z</time>
      </trkpt>
      <trkpt lat="43.15193" lon="3.10335">
        <ele>187.884</ele>
        <time>2021-09-25T11:01:12Z</time>
      </trkpt>
      <trkpt lat="43.15192" lon="3.10332">
        <ele>187.614</ele>
        <time>2021-09-25T11:01:14Z</time>
      </trkpt>
      <trkpt lat="43.1519" lon="3.1033">
        <ele>187.133</ele>
        <time>2021-09-25T11:01:16Z</time>
      </trkpt>
      <trkpt lat="43.15188" lon="3.10327">
        <ele>187.293</ele>
        <time>2021-09-25T11:01:18Z</time>
      </trkpt>
      <trkpt lat="43.15186" lon="3.10324">
        <ele>187.151</ele>
        <time>2021-09-25T11:01:20Z</time>
      </trkpt>
      <trkpt lat="43.15184" lon="3.10321">
        <ele>186.864</ele>
        <time>2021-09-25T11:01:22Z</time>
      </trkpt>
      <trkpt lat="43.15183" lon="3.10318">
        <ele>186.99</ele>
        <time>2021-09-25T11:01:24Z</time>
      </trkpt>
      <trkpt lat="43.15181" lon="3.10315">
        <ele>187.318</ele>
        <time>2021-09-25T11:01:26Z</time>
      </trkpt>
      <trkpt lat="43.15179" lon="3.10313">
        <ele>186.961</ele>
        <time>2021-09-25T11:01:28Z</time>
      </trkpt>
      <trkpt lat="43.15177" lon="3.1031">
        <ele>186.858</ele>
        <time>2021-09-25T11:01:30Z</time>
      </trkpt>
      <trkpt lat="43.15175" lon="3.10307">
        <ele>186.819</ele>
        <time>2021-09-25T11:01:32Z</time>
      </trkpt>
      <trkpt lat="43.15174" lon="3.10304">
        <ele>186.602</ele>
        <time>2021-09-25T11:01:34Z</time>
      </trkpt>
      <trkpt lat="43.15172" lon="3.10301">
        <ele>186.222</ele>
        <time>2021-09-25T11:01:36Z</time>
      </trkpt>
      <trkpt lat="43.15171" lon="3.10298">
        <ele>186.346</ele>
        <time>2021-09-25T11:01:38Z</time>
      </trkpt>
      <trkpt lat="43.15169" lon="3.10295">
        <ele>186.355</ele>
        <time>2021-09-25T11:01:40Z</time>
      </trkpt>
      <trkpt lat="43.15167" lon="3.10292">
        <ele>186.361</ele>
        <time>2021-09-25T11:01:42Z</time>
      </trkpt>
      <trkpt lat="43.15166" lon="3.10289">
        <ele>186.121</ele>
        <time>2021-09-25T11:01:44Z</time>
      </trkpt>
      <trkpt lat="43.15164" lon="3.10286">
        <ele>186.115</ele>
        <time>2021-09-25T11:01:46Z</time>
      </trkpt>
      <trkpt lat="43.15162" lon="3.10283">
        <ele>185.724</ele>
        <time>2021-09-25T11:01:48Z</time>
      </trkpt>
      <trkpt lat="43.15161" lon="3.1028">
        <ele>185.608</ele>
        <time>2021-09-25T11:01:50Z</time>
      </trkpt>
      <trkpt lat="43.15159" lon="3.10278">
        <ele>185.713</ele>
        <time>2021-09-25T11:01:52Z</time>
      </trkpt>
      <trkpt lat="43.15158" lon="3.10275">
        <ele>185.474</ele>
        <time>2021-09-25T11:01:54Z</time>
      </trkpt>
      <trkpt lat="43.15156" lon="3.10272">
        <ele>185.449</ele>
        <time>2021-09-25T11:01:56Z</time>
      </trkpt>
      <trkpt lat="43.15154" lon="3.10269">
        <ele>184.987</ele>
        <time>2021-09-25T11:01:58Z</time>
      </trkpt>
      <trkpt lat="43.15152" lon="3.10266">
        <ele>184.977</ele>
        <time>2021-09-25T11:02:00Z</time>
      </trkpt>
      <trkpt lat="43.15151" lon="3.10263">
        <ele>184.913</ele>
        <time>2021-09-25T11:02:02Z</time>
      </trkpt>
      <trkpt lat="43.15149" lon="3.10261">
        <ele>184.518</ele>
        <time>2021-09-25T11:02:04Z</time>
      </trkpt>
      <trkpt lat="43.15148" lon="3.10258">
        <ele>184.677</ele>
        <time>2021-09-25T11:02:06Z</time>
      </trkpt>
      <trkpt lat="43.15146" lon="3.10255">
        <ele>184.634</ele>
        <time>2021-09-25T11:02:08Z</time>
      </trkpt>
      <trkpt lat="43.15144" lon="3.10252">
        <ele>184.647</ele>
        <time>2021-09-25T11:02:10Z</time>
      </trkpt>
      <trkpt lat="43.15142" lon="3.1025">
        <ele>184.366</ele>
        <time>2021-09-25T11:02:12Z</time>
      </trkpt>
      <trkpt lat="43.1514" lon="3.10247">
        <ele>184.354</ele>
        <time>2021-09-25T11:02:14Z</time>
      </trkpt>
      <trkpt lat="43.15138" lon="3.10245">
        <ele>184.581</ele>
        <time>2021-09-25T11:02:16Z</time>
      </trkpt>
      <trkpt lat="43.15135" lon="3.10243">
        <ele>184.786</ele>
        <time>2021-09-25T11:02:18Z</time>
      </trkpt>
      <trkpt lat="43.15133" lon="3.10241">
        <ele>184.499</ele>
        <time>2021-09-25T11:02:20Z</time>
      </trkpt>
      <trkpt lat="43.15131" lon="3.10239">
        <ele>184.059</ele>
        <time>2021-09-25T11:02:22Z</time>
      </trkpt>
      <trkpt lat="43.15129" lon="3.10237">
        <ele>183.411</ele>
        <time>2021-09-25T11:02:24Z</time>
      </trkpt>
      <trkpt lat="43.15127" lon="3.10235">
        <ele>183.158</ele>
        <time>2021-09-25T11:02:26Z</time>
      </trkpt>
      <trkpt lat="43.15124" lon="3.10233">
        <ele>183.311</ele>
        <time>2021-09-25T11:02:28Z</time>
      </trkpt>
      <trkpt lat="43.15122" lon="3.10231">
        <ele>183.399</ele>
        <time>2021-09-25T11:02:30Z</time>
      </trkpt>
      <trkpt lat="43.1512" lon="3.1023">
        <ele>183.034</ele>
        <time>2021-09-25T11:02:32Z</time>
      </trkpt>
      <trkpt lat="43.15117" lon="3.10228">
        <ele>182.46</ele>
        <time>2021-09-25T11:02:34Z</time>
      </trkpt>
      <trkpt lat="43.15115" lon="3.10226">
        <ele>182.172</ele>
        <time>2021-09-25T11:02:36Z</time>
      </trkpt>
      <trkpt lat="43.15112" lon="3.10225">
        <ele>182.067</ele>
        <time>2021-09-25T11:02:38Z</time>
      </trkpt>
      <trkpt lat="43.1511" lon="3.10223">
        <ele>181.856</ele>
        <time>2021-09-25T11:02:40Z</time>
      </trkpt>
      <trkpt lat="43.15107" lon="3.10221">
        <ele>181.51</ele>
        <time>2021-09-25T11:02:42Z</time>
      </trkpt>
      <trkpt lat="43.15105" lon="3.1022">
        <ele>180.954</ele>
        <time>2021-09-25T11:02:44Z</time>
      </trkpt>
      <trkpt lat="43.15102" lon="3.10219">
        <ele>180.894</ele>
        <time>2021-09-25T11:02:46Z</time>
      </trkpt>
      <trkpt lat="43.151" lon="3.10218">
        <ele>180.395</ele>
        <time>2021-09-25T11:02:48Z</time>
      </trkpt>
      <trkpt lat="43.15097" lon="3.10217">
        <ele>180.396</ele>
        <time>2021-09-25T11:02:50Z</time>
      </trkpt>
      <trkpt lat="43.15094" lon="3.10216">
        <ele>180.5</ele>
        <time>2021-09-25T11:02:52Z</time>
      </trkpt>
      <trkpt lat="43.15091" lon="3.10214">
        <ele>180.578</ele>
        <time>2021-09-25T11:02:54Z</time>
      </trkpt>
      <trkpt lat="43.15089" lon="3.10213">
        <ele>180.274</ele>
        <time>2021-09-25T11:02:56Z</time>
      </trkpt>
      <trkpt lat="43.15086" lon="3.10211">
        <ele>180.378</ele>
        <time>2021-09-25T11:02:58Z</time>
      </trkpt>
      <trkpt lat="43.15083" lon="3.1021">
        <ele>180.45</ele>
        <time>2021-09-25T11:03:00Z</time>
      </trkpt>
      <trkpt lat="43.15081" lon="3.10208">
        <ele>180.035</ele>
        <time>2021-09-25T11:03:02Z</time>
      </trkpt>
      <trkpt lat="43.15078" lon="3.10207">
        <ele>179.987</ele>
        <time>2021-09-25T11:03:04Z</time>
      </trkpt>
      <trkpt lat="43.15075" lon="3.10205">
        <ele>180.047</ele>
        <time>2021-09-25T11:03:06Z</time>
      </trkpt>
      <trkpt lat="43.15072" lon="3.10204">
        <ele>179.919</ele>
        <time>2021-09-25T11:03:08Z</time>
      </trkpt>
      <trkpt lat="43.15069" lon="3.10202">
        <ele>180.236</ele>
        <time>2021-09-25T11:03:10Z</time>
      </trkpt>
      <trkpt lat="43.15067" lon="3.10201">
        <ele>179.663</ele>
        <time>2021-09-25T11:03:12Z</time>
      </trkpt>
      <trkpt lat="43.15065" lon="3.10199">
        <ele>179.28</ele>
        <time>2021-09-25T11:03:14Z</time>
      </trkpt>
      <trkpt lat="43.15063" lon="3.10197">
        <ele>179.404</ele>
        <time>2021-09-25T11:03:16Z</time>
      </trkpt>
      <trkpt lat="43.15061" lon="3.10194">
        <ele>179.198</ele>
        <time>2021-09-25T11:03:18Z</time>
      </trkpt>
      <trkpt lat="43.15059" lon="3.10192">
        <ele>178.595</ele>
        <time>2021-09-25T11:03:20Z</time>
      </trkpt>
      <trkpt lat="43.15057" lon="3.10189">
        <ele>178.543</ele>
        <time>2021-09-25T11:03:22Z</time>
      </trkpt>
      <trkpt lat="43.15056" lon="3.10185">
        <ele>178.371</ele>
        <time>2021-09-25T11:03:24Z</time>
      </trkpt>
      <trkpt lat="43.15056" lon="3.10182">
        <ele>178.314</ele>
        <time>2021-09-25T11:03:26Z</time>
      </trkpt>
      <trkpt lat="43.15057" lon="3.10178">
        <ele>178.472</ele>
        <time>2021-09-25T11:03:28Z</time>
      </trkpt>
      <trkpt lat="43.15058" lon="3.10175">
        <ele>178.301</ele>
        <time>2021-09-25T11:03:30Z</time>
      </trkpt>
      <trkpt lat="43.1506" lon="3.10173">
        <ele>178.042</ele>
        <time>2021-09-25T11:03:32Z</time>
      </trkpt>
      <trkpt lat="43.15062" lon="3.10171">
        <ele>177.237</ele>
        <time>2021-09-25T11:03:34Z</time>
      </trkpt>
      <trkpt lat="43.15065" lon="3.1017">
        <ele>177.097</ele>
        <time>2021-09-25T11:03:36Z</time>
      </trkpt>
      <trkpt lat="43.15067" lon="3.1017">
        <ele>177.172</ele>
        <time>2021-09-25T11:03:38Z</time>
      </trkpt>
      <trkpt lat="43.1507" lon="3.10169">
        <ele>177.24</ele>
        <time>2021-09-25T11:03:40Z</time>
      </trkpt>
      <trkpt lat="43.15072" lon="3.10169">
        <ele>177.209</ele>
        <time>2021-09-25T11:03:42Z</time>
      </trkpt>
      <trkpt lat="43.15075" lon="3.10169">
        <ele>177.382</ele>
        <time>2021-09-25T11:03:44Z</time>
      </trkpt>
      <trkpt lat="43.15078" lon="3.10169">
        <ele>176.909</ele>
        <time>2021-09-25T11:03:46Z</time>
      </trkpt>
      <trkpt lat="43.1508" lon="3.10169">
        <ele>176.363</ele>
        <time>2021-09-25T11:03:48Z</time>
      </trkpt>
      <trkpt lat="43.15083" lon="3.10168">
        <ele>175.697</ele>
        <time>2021-09-25T11:03:50Z</time>
      </trkpt>
      <trkpt lat="43.15086" lon="3.10167">
        <ele>175.302</ele>
        <time>2021-09-25T11:03:52Z</time>
      </trkpt>
      <trkpt lat="43.15088" lon="3.10166">
        <ele>174.454</ele>
        <time>2021-09-25T11:03:54Z</time>
      </trkpt>
      <trkpt lat="43.15091" lon="3.10165">
        <ele>174.38</ele>
        <time>2021-09-25T11:03:56Z</time>
      </trkpt>
      <trkpt lat="43.15094" lon="3.10164">
        <ele>174.366</ele>
        <time>2021-09-25T11:03:58Z</time>
      </trkpt>
      <trkpt lat="43.15096" lon="3.10162">
        <ele>174.463</ele>
        <time>2021-09-25T11:04:00Z</time>
      </trkpt>
      <trkpt lat="43.15099" lon="3.10162">
        <ele>173.977</ele>
        <time>2021-09-25T11:04:02Z</time>
      </trkpt>
      <trkpt lat="43.15101" lon="3.10159">
        <ele>173.208</ele>
        <time>2021-09-25T11:04:04Z</time>
      </trkpt>
      <trkpt lat="43.15103" lon="3.10157">
        <ele>172.804</ele>
        <time>2021-09-25T11:04:06Z</time>
      </trkpt>
      <trkpt lat="43.15105" lon="3.10154">
        <ele>172.368</ele>
        <time>2021-09-25T11:04:08Z</time>
      </trkpt>
      <trkpt lat="43.15108" lon="3.10152">
        <ele>172.058</ele>
        <time>2021-09-25T11:04:10Z</time>
      </trkpt>
      <trkpt lat="43.1511" lon="3.1015">
        <ele>172.135</ele>
        <time>2021-09-25T11:04:12Z</time>
      </trkpt>
      <trkpt lat="43.15112" lon="3.10147">
        <ele>171.64</ele>
        <time>2021-09-25T11:04:14Z</time>
      </trkpt>
      <trkpt lat="43.15113" lon="3.10144">
        <ele>171.219</ele>
        <time>2021-09-25T11:04:16Z</time>
      </trkpt>
      <trkpt lat="43.15115" lon="3.10141">
        <ele>171.06</ele>
        <time>2021-09-25T11:04:18Z</time>
      </trkpt>
      <trkpt lat="43.15116" lon="3.10138">
        <ele>170.833</ele>
        <time>2021-09-25T11:04:20Z</time>
      </trkpt>
      <trkpt lat="43.15117" lon="3.10134">
        <ele>170.24</ele>
        <time>2021-09-25T11:04:22Z</time>
      </trkpt>
      <trkpt lat="43.15118" lon="3.10131">
        <ele>169.956</ele>
        <time>2021-09-25T11:04:24Z</time>
      </trkpt>
      <trkpt lat="43.15118" lon="3.10127">
        <ele>170.208</ele>
        <time>2021-09-25T11:04:26Z</time>
      </trkpt>
      <trkpt lat="43.15118" lon="3.10123">
        <ele>170.336</ele>
        <time>2021-09-25T11:04:28Z</time>
      </trkpt>
      <trkpt lat="43.15118" lon="3.10119">
        <ele>169.86</ele>
        <time>2021-09-25T11:04:30Z</time>
      </trkpt>
      <trkpt lat="43.15117" lon="3.10116">
        <ele>169.806</ele>
        <time>2021-09-25T11:04:32Z</time>
      </trkpt>
      <trkpt lat="43.15116" lon="3.10112">
        <ele>169.81</ele>
        <time>2021-09-25T11:04:34Z</time>
      </trkpt>
      <trkpt lat="43.15115" lon="3.10109">
        <ele>169.963</ele>
        <time>2021-09-25T11:04:36Z</time>
      </trkpt>
      <trkpt lat="43.15114" lon="3.10106">
        <ele>170.348</ele>
        <time>2021-09-25T11:04:38Z</time>
      </trkpt>
      <trkpt lat="43.15112" lon="3.10103">
        <ele>170.364</ele>
        <time>2021-09-25T11:04:40Z</time>
      </trkpt>
      <trkpt lat="43.1511" lon="3.10101">
        <ele>171.118</ele>
        <time>2021-09-25T11:04:42Z</time>
      </trkpt>
      <trkpt lat="43.15108" lon="3.10098">
        <ele>171.029</ele>
        <time>2021-09-25T11:04:44Z</time>
      </trkpt>
      <trkpt lat="43.15106" lon="3.10096">
        <ele>170.98</ele>
        <time>2021-09-25T11:04:46Z</time>
      </trkpt>
      <trkpt lat="43.15104" lon="3.10093">
        <ele>171.256</ele>
        <time>2021-09-25T11:04:48Z</time>
      </trkpt>
      <trkpt lat="43.15102" lon="3.10091">
        <ele>171.287</ele>
        <time>2021-09-25T11:04:50Z</time>
      </trkpt>
      <trkpt lat="43.151" lon="3.10088">
        <ele>171.988</ele>
        <time>2021-09-25T11:04:52Z</time>
      </trkpt>
      <trkpt lat="43.15098" lon="3.10086">
        <ele>172.056</ele>
        <time>2021-09-25T11:04:54Z</time>
      </trkpt>
      <trkpt lat="43.15097" lon="3.10084">
        <ele>171.933</ele>
        <time>2021-09-25T11:04:56Z</time>
      </trkpt>
      <trkpt lat="43.15096" lon="3.10081">
        <ele>171.658</ele>
        <time>2021-09-25T11:04:58Z</time>
      </trkpt>
      <trkpt lat="43.15094" lon="3.10079">
        <ele>171.829</ele>
        <time>2021-09-25T11:05:00Z</time>
      </trkpt>
      <trkpt lat="43.15093" lon="3.10076">
        <ele>171.992</ele>
        <time>2021-09-25T11:05:02Z</time>
      </trkpt>
      <trkpt lat="43.1509" lon="3.10076">
        <ele>172.101</ele>
        <time>2021-09-25T11:05:04Z</time>
      </trkpt>
      <trkpt lat="43.15088" lon="3.10074">
        <ele>172.082</ele>
        <time>2021-09-25T11:05:06Z</time>
      </trkpt>
      <trkpt lat="43.15087" lon="3.10071">
        <ele>172.139</ele>
        <time>2021-09-25T11:05:08Z</time>
      </trkpt>
      <trkpt lat="43.15086" lon="3.10068">
        <ele>172.165</ele>
        <time>2021-09-25T11:05:10Z</time>
      </trkpt>
      <trkpt lat="43.15084" lon="3.10065">
        <ele>172.465</ele>
        <time>2021-09-25T11:05:12Z</time>
      </trkpt>
      <trkpt lat="43.15083" lon="3.10062">
        <ele>172.322</ele>
        <time>2021-09-25T11:05:14Z</time>
      </trkpt>
      <trkpt lat="43.15082" lon="3.10059">
        <ele>172.202</ele>
        <time>2021-09-25T11:05:16Z</time>
      </trkpt>
      <trkpt lat="43.1508" lon="3.10057">
        <ele>172.462</ele>
        <time>2021-09-25T11:05:18Z</time>
      </trkpt>
      <trkpt lat="43.15078" lon="3.10054">
        <ele>172.297</ele>
        <time>2021-09-25T11:05:20Z</time>
      </trkpt>
      <trkpt lat="43.15077" lon="3.10052">
        <ele>172.494</ele>
        <time>2021-09-25T11:05:22Z</time>
      </trkpt>
      <trkpt lat="43.15075" lon="3.1005">
        <ele>173.152</ele>
        <time>2021-09-25T11:05:24Z</time>
      </trkpt>
      <trkpt lat="43.15073" lon="3.10047">
        <ele>172.684</ele>
        <time>2021-09-25T11:05:26Z</time>
      </trkpt>
      <trkpt lat="43.15071" lon="3.10046">
        <ele>173.039</ele>
        <time>2021-09-25T11:05:28Z</time>
      </trkpt>
      <trkpt lat="43.15068" lon="3.10044">
        <ele>173.393</ele>
        <time>2021-09-25T11:05:30Z</time>
      </trkpt>
      <trkpt lat="43.15066" lon="3.10042">
        <ele>173.823</ele>
        <time>2021-09-25T11:05:32Z</time>
      </trkpt>
      <trkpt lat="43.15064" lon="3.1004">
        <ele>173.812</ele>
        <time>2021-09-25T11:05:34Z</time>
      </trkpt>
      <trkpt lat="43.15062" lon="3.10038">
        <ele>174.97</ele>
        <time>2021-09-25T11:05:36Z</time>
      </trkpt>
      <trkpt lat="43.1506" lon="3.10036">
        <ele>174.933</ele>
        <time>2021-09-25T11:05:38Z</time>
      </trkpt>
      <trkpt lat="43.15058" lon="3.10034">
        <ele>174.803</ele>
        <time>2021-09-25T11:05:40Z</time>
      </trkpt>
      <trkpt lat="43.15056" lon="3.10032">
        <ele>174.992</ele>
        <time>2021-09-25T11:05:42Z</time>
      </trkpt>
      <trkpt lat="43.15054" lon="3.10031">
        <ele>174.957</ele>
        <time>2021-09-25T11:05:44Z</time>
      </trkpt>
      <trkpt lat="43.15052" lon="3.10029">
        <ele>174.874</ele>
        <time>2021-09-25T11:05:46Z</time>
      </trkpt>
      <trkpt lat="43.1505" lon="3.10028">
        <ele>175.062</ele>
        <time>2021-09-25T11:05:48Z</time>
      </trkpt>
      <trkpt lat="43.15048" lon="3.10026">
        <ele>175.245</ele>
        <time>2021-09-25T11:05:50Z</time>
      </trkpt>
      <trkpt lat="43.15046" lon="3.10025">
        <ele>174.957</ele>
        <time>2021-09-25T11:05:52Z</time>
      </trkpt>
      <trkpt lat="43.15044" lon="3.10023">
        <ele>175.002</ele>
        <time>2021-09-25T11:05:54Z</time>
      </trkpt>
      <trkpt lat="43.15042" lon="3.1002">
        <ele>175.12</ele>
        <time>2021-09-25T11:05:56Z</time>
      </trkpt>
      <trkpt lat="43.1504" lon="3.10018">
        <ele>175.037</ele>
        <time>2021-09-25T11:05:58Z</time>
      </trkpt>
      <trkpt lat="43.15038" lon="3.10016">
        <ele>175.066</ele>
        <time>2021-09-25T11:06:00Z</time>
      </trkpt>
      <trkpt lat="43.15036" lon="3.10014">
        <ele>175.027</ele>
        <time>2021-09-25T11:06:02Z</time>
      </trkpt>
      <trkpt lat="43.15034" lon="3.10011">
        <ele>174.721</ele>
        <time>2021-09-25T11:06:04Z</time>
      </trkpt>
      <trkpt lat="43.15033" lon="3.10008">
        <ele>174.113</ele>
        <time>2021-09-25T11:06:06Z</time>
      </trkpt>
      <trkpt lat="43.15031" lon="3.10006">
        <ele>174.098</ele>
        <time>2021-09-25T11:06:08Z</time>
      </trkpt>
      <trkpt lat="43.15029" lon="3.10003">
        <ele>174.082</ele>
        <time>2021-09-25T11:06:10Z</time>
      </trkpt>
      <trkpt lat="43.15027" lon="3.1">
        <ele>174.473</ele>
        <time>2021-09-25T11:06:12Z</time>
      </trkpt>
      <trkpt lat="43.15025" lon="3.09997">
        <ele>174.551</ele>
        <time>2021-09-25T11:06:14Z</time>
      </trkpt>
      <trkpt lat="43.15023" lon="3.09994">
        <ele>175.114</ele>
        <time>2021-09-25T11:06:16Z</time>
      </trkpt>
      <trkpt lat="43.15021" lon="3.09992">
        <ele>174.985</ele>
        <time>2021-09-25T11:06:18Z</time>
      </trkpt>
      <trkpt lat="43.1502" lon="3.09989">
        <ele>175.335</ele>
        <time>2021-09-25T11:06:20Z</time>
      </trkpt>
      <trkpt lat="43.15018" lon="3.09987">
        <ele>175.022</ele>
        <time>2021-09-25T11:06:22Z</time>
      </trkpt>
      <trkpt lat="43.15015" lon="3.09984">
        <ele>175.229</ele>
        <time>2021-09-25T11:06:24Z</time>
      </trkpt>
      <trkpt lat="43.15013" lon="3.09982">
        <ele>175.106</ele>
        <time>2021-09-25T11:06:26Z</time>
      </trkpt>
      <trkpt lat="43.15011" lon="3.0998">
        <ele>175.12</ele>
        <time>2021-09-25T11:06:28Z</time>
      </trkpt>
      <trkpt lat="43.15009" lon="3.09978">
        <ele>175.047</ele>
        <time>2021-09-25T11:06:30Z</time>
      </trkpt>
      <trkpt lat="43.15007" lon="3.09976">
        <ele>174.933</ele>
        <time>2021-09-25T11:06:32Z</time>
      </trkpt>
      <trkpt lat="43.15005" lon="3.09974">
        <ele>174.881</ele>
        <time>2021-09-25T11:06:34Z</time>
      </trkpt>
      <trkpt lat="43.15002" lon="3.09971">
        <ele>174.776</ele>
        <time>2021-09-25T11:06:36Z</time>
      </trkpt>
      <trkpt lat="43.15" lon="3.09969">
        <ele>174.849</ele>
        <time>2021-09-25T11:06:38Z</time>
      </trkpt>
      <trkpt lat="43.14998" lon="3.09967">
        <ele>174.532</ele>
        <time>2021-09-25T11:06:40Z</time>
      </trkpt>
      <trkpt lat="43.14995" lon="3.09965">
        <ele>174.369</ele>
        <time>2021-09-25T11:06:42Z</time>
      </trkpt>
      <trkpt lat="43.14993" lon="3.09963">
        <ele>174.264</ele>
        <time>2021-09-25T11:06:44Z</time>
      </trkpt>
      <trkpt lat="43.1499" lon="3.09961">
        <ele>174.328</ele>
        <time>2021-09-25T11:06:46Z</time>
      </trkpt>
      <trkpt lat="43.14988" lon="3.09959">
        <ele>174.417</ele>
        <time>2021-09-25T11:06:48Z</time>
      </trkpt>
      <trkpt lat="43.14986" lon="3.09957">
        <ele>174.24</ele>
        <time>2021-09-25T11:06:50Z</time>
      </trkpt>
      <trkpt lat="43.14983" lon="3.09955">
        <ele>173.985</ele>
        <time>2021-09-25T11:06:52Z</time>
      </trkpt>
      <trkpt lat="43.14981" lon="3.09953">
        <ele>173.937</ele>
        <time>2021-09-25T11:06:54Z</time>
      </trkpt>
      <trkpt lat="43.14979" lon="3.0995">
        <ele>174.259</ele>
        <time>2021-09-25T11:06:56Z</time>
      </trkpt>
      <trkpt lat="43.14977" lon="3.09948">
        <ele>173.918</ele>
        <time>2021-09-25T11:06:58Z</time>
      </trkpt>
      <trkpt lat="43.14975" lon="3.09945">
        <ele>173.64</ele>
        <time>2021-09-25T11:07:00Z</time>
      </trkpt>
      <trkpt lat="43.14973" lon="3.09943">
        <ele>173.906</ele>
        <time>2021-09-25T11:07:02Z</time>
      </trkpt>
      <trkpt lat="43.1497" lon="3.0994">
        <ele>173.824</ele>
        <time>2021-09-25T11:07:04Z</time>
      </trkpt>
      <trkpt lat="43.14969" lon="3.09937">
        <ele>173.412</ele>
        <time>2021-09-25T11:07:06Z</time>
      </trkpt>
      <trkpt lat="43.14967" lon="3.09934">
        <ele>173.119</ele>
        <time>2021-09-25T11:07:08Z</time>
      </trkpt>
      <trkpt lat="43.14965" lon="3.09932">
        <ele>173.163</ele>
        <time>2021-09-25T11:07:10Z</time>
      </trkpt>
      <trkpt lat="43.14964" lon="3.09928">
        <ele>173.24</ele>
        <time>2021-09-25T11:07:12Z</time>
      </trkpt>
      <trkpt lat="43.14963" lon="3.09925">
        <ele>172.782</ele>
        <time>2021-09-25T11:07:14Z</time>
      </trkpt>
      <trkpt lat="43.14962" lon="3.09922">
        <ele>173.145</ele>
        <time>2021-09-25T11:07:16Z</time>
      </trkpt>
      <trkpt lat="43.14961" lon="3.09918">
        <ele>172.749</ele>
        <time>2021-09-25T11:07:18Z</time>
      </trkpt>
      <trkpt lat="43.1496" lon="3.09914">
        <ele>172.266</ele>
        <time>2021-09-25T11:07:20Z</time>
      </trkpt>
      <trkpt lat="43.14959" lon="3.09911">
        <ele>172.467</ele>
        <time>2021-09-25T11:07:22Z</time>
      </trkpt>
      <trkpt lat="43.14958" lon="3.09907">
        <ele>173.105</ele>
        <time>2021-09-25T11:07:24Z</time>
      </trkpt>
      <trkpt lat="43.14957" lon="3.09903">
        <ele>173.06</ele>
        <time>2021-09-25T11:07:26Z</time>
      </trkpt>
      <trkpt lat="43.14956" lon="3.099">
        <ele>172.931</ele>
        <time>2021-09-25T11:07:28Z</time>
      </trkpt>
      <trkpt lat="43.14954" lon="3.09897">
        <ele>172.434</ele>
        <time>2021-09-25T11:07:30Z</time>
      </trkpt>
      <trkpt lat="43.14952" lon="3.09894">
        <ele>172.695</ele>
        <time>2021-09-25T11:07:32Z</time>
      </trkpt>
      <trkpt lat="43.1495" lon="3.09893">
        <ele>172.257</ele>
        <time>2021-09-25T11:07:34Z</time>
      </trkpt>
      <trkpt lat="43.14948" lon="3.09893">
        <ele>171.696</ele>
        <time>2021-09-25T11:07:36Z</time>
      </trkpt>
      <trkpt lat="43.14945" lon="3.09895">
        <ele>171.692</ele>
        <time>2021-09-25T11:07:38Z</time>
      </trkpt>
      <trkpt lat="43.14943" lon="3.09897">
        <ele>171.389</ele>
        <time>2021-09-25T11:07:40Z</time>
      </trkpt>
      <trkpt lat="43.14941" lon="3.099">
        <ele>170.557</ele>
        <time>2021-09-25T11:07:42Z</time>
      </trkpt>
      <trkpt lat="43.1494" lon="3.09902">
        <ele>169.933</ele>
        <time>2021-09-25T11:07:44Z</time>
      </trkpt>
      <trkpt lat="43.1494" lon="3.09902">
        <ele>169.933</ele>
        <time>2021-09-25T11:07:46Z</time>
      </trkpt>
      <trkpt lat="43.14938" lon="3.09903">
        <ele>169.618</ele>
        <time>2021-09-25T11:07:48Z</time>
      </trkpt>
      <trkpt lat="43.14937" lon="3.09903">
        <ele>169.627</ele>
        <time>2021-09-25T11:07:50Z</time>
      </trkpt>
      <trkpt lat="43.14937" lon="3.09903">
        <ele>169.626</ele>
        <time>2021-09-25T11:07:52Z</time>
      </trkpt>
      <trkpt lat="43.14937" lon="3.09905">
        <ele>169.767</ele>
        <time>2021-09-25T11:07:54Z</time>
      </trkpt>
      <trkpt lat="43.14937" lon="3.09908">
        <ele>169.574</ele>
        <time>2021-09-25T11:07:56Z</time>
      </trkpt>
      <trkpt lat="43.14937" lon="3.09912">
        <ele>169.213</ele>
        <time>2021-09-25T11:07:58Z</time>
      </trkpt>
      <trkpt lat="43.14938" lon="3.09916">
        <ele>168.115</ele>
        <time>2021-09-25T11:08:00Z</time>
      </trkpt>
      <trkpt lat="43.14938" lon="3.0992">
        <ele>167.543</ele>
        <time>2021-09-25T11:08:02Z</time>
      </trkpt>
      <trkpt lat="43.14939" lon="3.09924">
        <ele>167.722</ele>
        <time>2021-09-25T11:08:04Z</time>
      </trkpt>
      <trkpt lat="43.14939" lon="3.09927">
        <ele>167.361</ele>
        <time>2021-09-25T11:08:06Z</time>
      </trkpt>
      <trkpt lat="43.1494" lon="3.09931">
        <ele>167.33</ele>
        <time>2021-09-25T11:08:08Z</time>
      </trkpt>
      <trkpt lat="43.1494" lon="3.09934">
        <ele>166.802</ele>
        <time>2021-09-25T11:08:10Z</time>
      </trkpt>
      <trkpt lat="43.1494" lon="3.09938">
        <ele>166.673</ele>
        <time>2021-09-25T11:08:12Z</time>
      </trkpt>
      <trkpt lat="43.1494" lon="3.09942">
        <ele>166.589</ele>
        <time>2021-09-25T11:08:14Z</time>
      </trkpt>
      <trkpt lat="43.1494" lon="3.09946">
        <ele>166.863</ele>
        <time>2021-09-25T11:08:16Z</time>
      </trkpt>
      <trkpt lat="43.14941" lon="3.09949">
        <ele>166.751</ele>
        <time>2021-09-25T11:08:18Z</time>
      </trkpt>
      <trkpt lat="43.14941" lon="3.09953">
        <ele>166.349</ele>
        <time>2021-09-25T11:08:20Z</time>
      </trkpt>
      <trkpt lat="43.14941" lon="3.09957">
        <ele>166.276</ele>
        <time>2021-09-25T11:08:22Z</time>
      </trkpt>
      <trkpt lat="43.14941" lon="3.0996">
        <ele>166.484</ele>
        <time>2021-09-25T11:08:24Z</time>
      </trkpt>
      <trkpt lat="43.1494" lon="3.09964">
        <ele>166.489</ele>
        <time>2021-09-25T11:08:26Z</time>
      </trkpt>
      <trkpt lat="43.14939" lon="3.09967">
        <ele>166.233</ele>
        <time>2021-09-25T11:08:28Z</time>
      </trkpt>
      <trkpt lat="43.14937" lon="3.0997">
        <ele>166.212</ele>
        <time>2021-09-25T11:08:30Z</time>
      </trkpt>
      <trkpt lat="43.14934" lon="3.0997">
        <ele>166.094</ele>
        <time>2021-09-25T11:08:32Z</time>
      </trkpt>
      <trkpt lat="43.14931" lon="3.0997">
        <ele>165.817</ele>
        <time>2021-09-25T11:08:34Z</time>
      </trkpt>
      <trkpt lat="43.14928" lon="3.09969">
        <ele>165.781</ele>
        <time>2021-09-25T11:08:36Z</time>
      </trkpt>
      <trkpt lat="43.14926" lon="3.09967">
        <ele>165.271</ele>
        <time>2021-09-25T11:08:38Z</time>
      </trkpt>
      <trkpt lat="43.14924" lon="3.09964">
        <ele>164.985</ele>
        <time>2021-09-25T11:08:40Z</time>
      </trkpt>
      <trkpt lat="43.14922" lon="3.09961">
        <ele>164.691</ele>
        <time>2021-09-25T11:08:42Z</time>
      </trkpt>
      <trkpt lat="43.14921" lon="3.09957">
        <ele>164.076</ele>
        <time>2021-09-25T11:08:44Z</time>
      </trkpt>
      <trkpt lat="43.14919" lon="3.09954">
        <ele>164.28</ele>
        <time>2021-09-25T11:08:46Z</time>
      </trkpt>
      <trkpt lat="43.14917" lon="3.09951">
        <ele>164.314</ele>
        <time>2021-09-25T11:08:48Z</time>
      </trkpt>
      <trkpt lat="43.14915" lon="3.09947">
        <ele>164.252</ele>
        <time>2021-09-25T11:08:50Z</time>
      </trkpt>
      <trkpt lat="43.14914" lon="3.09944">
        <ele>163.802</ele>
        <time>2021-09-25T11:08:52Z</time>
      </trkpt>
      <trkpt lat="43.14912" lon="3.0994">
        <ele>163.778</ele>
        <time>2021-09-25T11:08:54Z</time>
      </trkpt>
      <trkpt lat="43.1491" lon="3.09937">
        <ele>162.348</ele>
        <time>2021-09-25T11:08:56Z</time>
      </trkpt>
      <trkpt lat="43.14908" lon="3.09934">
        <ele>161.621</ele>
        <time>2021-09-25T11:08:58Z</time>
      </trkpt>
      <trkpt lat="43.14906" lon="3.0993">
        <ele>161.127</ele>
        <time>2021-09-25T11:09:00Z</time>
      </trkpt>
      <trkpt lat="43.14905" lon="3.09927">
        <ele>161.263</ele>
        <time>2021-09-25T11:09:02Z</time>
      </trkpt>
      <trkpt lat="43.14903" lon="3.09924">
        <ele>161.254</ele>
        <time>2021-09-25T11:09:04Z</time>
      </trkpt>
      <trkpt lat="43.149" lon="3.09921">
        <ele>161.187</ele>
        <time>2021-09-25T11:09:06Z</time>
      </trkpt>
      <trkpt lat="43.14898" lon="3.09918">
        <ele>160.922</ele>
        <time>2021-09-25T11:09:08Z</time>
      </trkpt>
      <trkpt lat="43.14896" lon="3.09916">
        <ele>160.158</ele>
        <time>2021-09-25T11:09:10Z</time>
      </trkpt>
      <trkpt lat="43.14893" lon="3.09914">
        <ele>159.438</ele>
        <time>2021-09-25T11:09:12Z</time>
      </trkpt>
      <trkpt lat="43.14891" lon="3.09911">
        <ele>159.432</ele>
        <time>2021-09-25T11:09:14Z</time>
      </trkpt>
      <trkpt lat="43.14888" lon="3.0991">
        <ele>159.022</ele>
        <time>2021-09-25T11:09:16Z</time>
      </trkpt>
      <trkpt lat="43.14886" lon="3.09907">
        <ele>158.964</ele>
        <time>2021-09-25T11:09:18Z</time>
      </trkpt>
      <trkpt lat="43.14883" lon="3.09906">
        <ele>159.079</ele>
        <time>2021-09-25T11:09:20Z</time>
      </trkpt>
      <trkpt lat="43.1488" lon="3.09905">
        <ele>158.616</ele>
        <time>2021-09-25T11:09:22Z</time>
      </trkpt>
      <trkpt lat="43.14878" lon="3.09904">
        <ele>158.358</ele>
        <time>2021-09-25T11:09:24Z</time>
      </trkpt>
      <trkpt lat="43.14875" lon="3.09902">
        <ele>157.658</ele>
        <time>2021-09-25T11:09:26Z</time>
      </trkpt>
      <trkpt lat="43.14872" lon="3.09901">
        <ele>157.374</ele>
        <time>2021-09-25T11:09:28Z</time>
      </trkpt>
      <trkpt lat="43.14869" lon="3.099">
        <ele>157.256</ele>
        <time>2021-09-25T11:09:30Z</time>
      </trkpt>
      <trkpt lat="43.14867" lon="3.09899">
        <ele>157.181</ele>
        <time>2021-09-25T11:09:32Z</time>
      </trkpt>
      <trkpt lat="43.14865" lon="3.09898">
        <ele>156.152</ele>
        <time>2021-09-25T11:09:34Z</time>
      </trkpt>
      <trkpt lat="43.14865" lon="3.09895">
        <ele>155.491</ele>
        <time>2021-09-25T11:09:36Z</time>
      </trkpt>
      <trkpt lat="43.14865" lon="3.0989">
        <ele>157.102</ele>
        <time>2021-09-25T11:09:38Z</time>
      </trkpt>
      <trkpt lat="43.14864" lon="3.09887">
        <ele>156.132</ele>
        <time>2021-09-25T11:09:40Z</time>
      </trkpt>
      <trkpt lat="43.14861" lon="3.09886">
        <ele>155.386</ele>
        <time>2021-09-25T11:09:42Z</time>
      </trkpt>
      <trkpt lat="43.14859" lon="3.09887">
        <ele>154.627</ele>
        <time>2021-09-25T11:09:44Z</time>
      </trkpt>
      <trkpt lat="43.14856" lon="3.09887">
        <ele>154.553</ele>
        <time>2021-09-25T11:09:46Z</time>
      </trkpt>
      <trkpt lat="43.14854" lon="3.09888">
        <ele>153.94</ele>
        <time>2021-09-25T11:09:48Z</time>
      </trkpt>
      <trkpt lat="43.14851" lon="3.09888">
        <ele>153.987</ele>
        <time>2021-09-25T11:09:50Z</time>
      </trkpt>
      <trkpt lat="43.14849" lon="3.09889">
        <ele>154.034</ele>
        <time>2021-09-25T11:09:52Z</time>
      </trkpt>
      <trkpt lat="43.14847" lon="3.0989">
        <ele>154.264</ele>
        <time>2021-09-25T11:09:54Z</time>
      </trkpt>
      <trkpt lat="43.14844" lon="3.0989">
        <ele>153.82</ele>
        <time>2021-09-25T11:09:56Z</time>
      </trkpt>
      <trkpt lat="43.14842" lon="3.09891">
        <ele>153.92</ele>
        <time>2021-09-25T11:09:58Z</time>
      </trkpt>
      <trkpt lat="43.14839" lon="3.09891">
        <ele>153.419</ele>
        <time>2021-09-25T11:10:00Z</time>
      </trkpt>
      <trkpt lat="43.14836" lon="3.09892">
        <ele>153.351</ele>
        <time>2021-09-25T11:10:02Z</time>
      </trkpt>
      <trkpt lat="43.14833" lon="3.09892">
        <ele>153.211</ele>
        <time>2021-09-25T11:10:04Z</time>
      </trkpt>
      <trkpt lat="43.1483" lon="3.09892">
        <ele>152.84</ele>
        <time>2021-09-25T11:10:06Z</time>
      </trkpt>
      <trkpt lat="43.14827" lon="3.09892">
        <ele>152.691</ele>
        <time>2021-09-25T11:10:08Z</time>
      </trkpt>
      <trkpt lat="43.14824" lon="3.09893">
        <ele>152.615</ele>
        <time>2021-09-25T11:10:10Z</time>
      </trkpt>
      <trkpt lat="43.14822" lon="3.09893">
        <ele>152.083</ele>
        <time>2021-09-25T11:10:12Z</time>
      </trkpt>
      <trkpt lat="43.14819" lon="3.09892">
        <ele>152.494</ele>
        <time>2021-09-25T11:10:14Z</time>
      </trkpt>
      <trkpt lat="43.14817" lon="3.09891">
        <ele>152.452</ele>
        <time>2021-09-25T11:10:16Z</time>
      </trkpt>
      <trkpt lat="43.14814" lon="3.0989">
        <ele>152.059</ele>
        <time>2021-09-25T11:10:18Z</time>
      </trkpt>
      <trkpt lat="43.14812" lon="3.09888">
        <ele>151.573</ele>
        <time>2021-09-25T11:10:20Z</time>
      </trkpt>
      <trkpt lat="43.1481" lon="3.09885">
        <ele>151.26</ele>
        <time>2021-09-25T11:10:22Z</time>
      </trkpt>
      <trkpt lat="43.14809" lon="3.09882">
        <ele>151.052</ele>
        <time>2021-09-25T11:10:24Z</time>
      </trkpt>
      <trkpt lat="43.14809" lon="3.09878">
        <ele>150.849</ele>
        <time>2021-09-25T11:10:26Z</time>
      </trkpt>
      <trkpt lat="43.1481" lon="3.09875">
        <ele>150.781</ele>
        <time>2021-09-25T11:10:28Z</time>
      </trkpt>
      <trkpt lat="43.14811" lon="3.09871">
        <ele>150.398</ele>
        <time>2021-09-25T11:10:30Z</time>
      </trkpt>
      <trkpt lat="43.14813" lon="3.0987">
        <ele>149.251</ele>
        <time>2021-09-25T11:10:32Z</time>
      </trkpt>
      <trkpt lat="43.14815" lon="3.09869">
        <ele>149.415</ele>
        <time>2021-09-25T11:10:34Z</time>
      </trkpt>
      <trkpt lat="43.14817" lon="3.09868">
        <ele>149.152</ele>
        <time>2021-09-25T11:10:36Z</time>
      </trkpt>
      <trkpt lat="43.1482" lon="3.09867">
        <ele>149.075</ele>
        <time>2021-09-25T11:10:38Z</time>
      </trkpt>
      <trkpt lat="43.14823" lon="3.09866">
        <ele>149.207</ele>
        <time>2021-09-25T11:10:40Z</time>
      </trkpt>
      <trkpt lat="43.14825" lon="3.09865">
        <ele>149.378</ele>
        <time>2021-09-25T11:10:42Z</time>
      </trkpt>
      <trkpt lat="43.14828" lon="3.09865">
        <ele>149.215</ele>
        <time>2021-09-25T11:10:44Z</time>
      </trkpt>
      <trkpt lat="43.1483" lon="3.09864">
        <ele>149.022</ele>
        <time>2021-09-25T11:10:46Z</time>
      </trkpt>
      <trkpt lat="43.14833" lon="3.09863">
        <ele>149.276</ele>
        <time>2021-09-25T11:10:48Z</time>
      </trkpt>
      <trkpt lat="43.14835" lon="3.09862">
        <ele>148.725</ele>
        <time>2021-09-25T11:10:50Z</time>
      </trkpt>
      <trkpt lat="43.14838" lon="3.0986">
        <ele>149.33</ele>
        <time>2021-09-25T11:10:52Z</time>
      </trkpt>
      <trkpt lat="43.1484" lon="3.09859">
        <ele>148.931</ele>
        <time>2021-09-25T11:10:54Z</time>
      </trkpt>
      <trkpt lat="43.14843" lon="3.09857">
        <ele>149.311</ele>
        <time>2021-09-25T11:10:56Z</time>
      </trkpt>
      <trkpt lat="43.14845" lon="3.09856">
        <ele>148.948</ele>
        <time>2021-09-25T11:10:58Z</time>
      </trkpt>
      <trkpt lat="43.14847" lon="3.09854">
        <ele>148.335</ele>
        <time>2021-09-25T11:11:00Z</time>
      </trkpt>
      <trkpt lat="43.14849" lon="3.09852">
        <ele>147.67</ele>
        <time>2021-09-25T11:11:02Z</time>
      </trkpt>
      <trkpt lat="43.14851" lon="3.0985">
        <ele>147.976</ele>
        <time>2021-09-25T11:11:04Z</time>
      </trkpt>
      <trkpt lat="43.14853" lon="3.09848">
        <ele>147.551</ele>
        <time>2021-09-25T11:11:06Z</time>
      </trkpt>
      <trkpt lat="43.14855" lon="3.09846">
        <ele>147.373</ele>
        <time>2021-09-25T11:11:08Z</time>
      </trkpt>
      <trkpt lat="43.14857" lon="3.09843">
        <ele>147.153</ele>
        <time>2021-09-25T11:11:10Z</time>
      </trkpt>
      <trkpt lat="43.14858" lon="3.0984">
        <ele>147.004</ele>
        <time>2021-09-25T11:11:12Z</time>
      </trkpt>
      <trkpt lat="43.1486" lon="3.09838">
        <ele>147.883</ele>
        <time>2021-09-25T11:11:14Z</time>
      </trkpt>
      <trkpt lat="43.14861" lon="3.09835">
        <ele>148.24</ele>
        <time>2021-09-25T11:11:16Z</time>
      </trkpt>
      <trkpt lat="43.14862" lon="3.09833">
        <ele>148.386</ele>
        <time>2021-09-25T11:11:18Z</time>
      </trkpt>
      <trkpt lat="43.14863" lon="3.0983">
        <ele>147.799</ele>
        <time>2021-09-25T11:11:20Z</time>
      </trkpt>
      <trkpt lat="43.14864" lon="3.09827">
        <ele>146.954</ele>
        <time>2021-09-25T11:11:22Z</time>
      </trkpt>
      <trkpt lat="43.14865" lon="3.09824">
        <ele>146.446</ele>
        <time>2021-09-25T11:11:24Z</time>
      </trkpt>
      <trkpt lat="43.14866" lon="3.09821">
        <ele>145.772</ele>
        <time>2021-09-25T11:11:26Z</time>
      </trkpt>
      <trkpt lat="43.14868" lon="3.09818">
        <ele>144.992</ele>
        <time>2021-09-25T11:11:28Z</time>
      </trkpt>
      <trkpt lat="43.14869" lon="3.09816">
        <ele>144.847</ele>
        <time>2021-09-25T11:11:30Z</time>
      </trkpt>
      <trkpt lat="43.14871" lon="3.09814">
        <ele>144.608</ele>
        <time>2021-09-25T11:11:32Z</time>
      </trkpt>
      <trkpt lat="43.14873" lon="3.09812">
        <ele>144.384</ele>
        <time>2021-09-25T11:11:34Z</time>
      </trkpt>
      <trkpt lat="43.14876" lon="3.0981">
        <ele>144.151</ele>
        <time>2021-09-25T11:11:36Z</time>
      </trkpt>
      <trkpt lat="43.14878" lon="3.09808">
        <ele>143.858</ele>
        <time>2021-09-25T11:11:38Z</time>
      </trkpt>
      <trkpt lat="43.14881" lon="3.09806">
        <ele>143.496</ele>
        <time>2021-09-25T11:11:40Z</time>
      </trkpt>
      <trkpt lat="43.14883" lon="3.09804">
        <ele>143.534</ele>
        <time>2021-09-25T11:11:42Z</time>
      </trkpt>
      <trkpt lat="43.14885" lon="3.09802">
        <ele>143.222</ele>
        <time>2021-09-25T11:11:44Z</time>
      </trkpt>
      <trkpt lat="43.14886" lon="3.098">
        <ele>142.538</ele>
        <time>2021-09-25T11:11:46Z</time>
      </trkpt>
      <trkpt lat="43.14887" lon="3.09796">
        <ele>142.674</ele>
        <time>2021-09-25T11:11:48Z</time>
      </trkpt>
      <trkpt lat="43.14888" lon="3.09793">
        <ele>142.332</ele>
        <time>2021-09-25T11:11:50Z</time>
      </trkpt>
      <trkpt lat="43.14888" lon="3.0979">
        <ele>142.257</ele>
        <time>2021-09-25T11:11:52Z</time>
      </trkpt>
      <trkpt lat="43.14889" lon="3.09787">
        <ele>142.656</ele>
        <time>2021-09-25T11:11:54Z</time>
      </trkpt>
      <trkpt lat="43.14889" lon="3.09784">
        <ele>143.361</ele>
        <time>2021-09-25T11:11:56Z</time>
      </trkpt>
      <trkpt lat="43.14889" lon="3.0978">
        <ele>143.357</ele>
        <time>2021-09-25T11:11:58Z</time>
      </trkpt>
      <trkpt lat="43.1489" lon="3.09777">
        <ele>143.075</ele>
        <time>2021-09-25T11:12:00Z</time>
      </trkpt>
      <trkpt lat="43.1489" lon="3.09773">
        <ele>142.456</ele>
        <time>2021-09-25T11:12:02Z</time>
      </trkpt>
      <trkpt lat="43.1489" lon="3.0977">
        <ele>141.861</ele>
        <time>2021-09-25T11:12:04Z</time>
      </trkpt>
      <trkpt lat="43.1489" lon="3.09767">
        <ele>142.481</ele>
        <time>2021-09-25T11:12:06Z</time>
      </trkpt>
      <trkpt lat="43.14889" lon="3.09764">
        <ele>142.307</ele>
        <time>2021-09-25T11:12:08Z</time>
      </trkpt>
      <trkpt lat="43.14888" lon="3.09761">
        <ele>142.23</ele>
        <time>2021-09-25T11:12:10Z</time>
      </trkpt>
      <trkpt lat="43.14886" lon="3.09758">
        <ele>142.356</ele>
        <time>2021-09-25T11:12:12Z</time>
      </trkpt>
      <trkpt lat="43.14884" lon="3.09756">
        <ele>142.118</ele>
        <time>2021-09-25T11:12:14Z</time>
      </trkpt>
      <trkpt lat="43.14882" lon="3.09755">
        <ele>142.199</ele>
        <time>2021-09-25T11:12:16Z</time>
      </trkpt>
      <trkpt lat="43.14879" lon="3.09754">
        <ele>142.365</ele>
        <time>2021-09-25T11:12:18Z</time>
      </trkpt>
      <trkpt lat="43.14877" lon="3.09754">
        <ele>142.656</ele>
        <time>2021-09-25T11:12:20Z</time>
      </trkpt>
      <trkpt lat="43.14875" lon="3.09754">
        <ele>142.867</ele>
        <time>2021-09-25T11:12:22Z</time>
      </trkpt>
      <trkpt lat="43.14873" lon="3.09754">
        <ele>142.716</ele>
        <time>2021-09-25T11:12:24Z</time>
      </trkpt>
      <trkpt lat="43.1487" lon="3.09754">
        <ele>142.771</ele>
        <time>2021-09-25T11:12:26Z</time>
      </trkpt>
      <trkpt lat="43.14868" lon="3.09754">
        <ele>143.115</ele>
        <time>2021-09-25T11:12:28Z</time>
      </trkpt>
      <trkpt lat="43.14866" lon="3.09755">
        <ele>142.818</ele>
        <time>2021-09-25T11:12:30Z</time>
      </trkpt>
      <trkpt lat="43.14864" lon="3.09755">
        <ele>142.888</ele>
        <time>2021-09-25T11:12:32Z</time>
      </trkpt>
      <trkpt lat="43.14861" lon="3.09756">
        <ele>143.238</ele>
        <time>2021-09-25T11:12:34Z</time>
      </trkpt>
      <trkpt lat="43.14859" lon="3.09757">
        <ele>143.015</ele>
        <time>2021-09-25T11:12:36Z</time>
      </trkpt>
      <trkpt lat="43.14857" lon="3.09757">
        <ele>143.188</ele>
        <time>2021-09-25T11:12:38Z</time>
      </trkpt>
      <trkpt lat="43.14855" lon="3.09758">
        <ele>143.397</ele>
        <time>2021-09-25T11:12:40Z</time>
      </trkpt>
      <trkpt lat="43.14853" lon="3.09758">
        <ele>143.958</ele>
        <time>2021-09-25T11:12:42Z</time>
      </trkpt>
      <trkpt lat="43.14851" lon="3.09759">
        <ele>144.217</ele>
        <time>2021-09-25T11:12:44Z</time>
      </trkpt>
      <trkpt lat="43.14849" lon="3.0976">
        <ele>144.444</ele>
        <time>2021-09-25T11:12:46Z</time>
      </trkpt>
      <trkpt lat="43.14847" lon="3.09761">
        <ele>144.434</ele>
        <time>2021-09-25T11:12:48Z</time>
      </trkpt>
      <trkpt lat="43.14845" lon="3.09762">
        <ele>144.934</ele>
        <time>2021-09-25T11:12:50Z</time>
      </trkpt>
      <trkpt lat="43.14843" lon="3.09763">
        <ele>145.481</ele>
        <time>2021-09-25T11:12:52Z</time>
      </trkpt>
      <trkpt lat="43.14841" lon="3.09763">
        <ele>145.523</ele>
        <time>2021-09-25T11:12:54Z</time>
      </trkpt>
      <trkpt lat="43.14838" lon="3.09763">
        <ele>145.655</ele>
        <time>2021-09-25T11:12:56Z</time>
      </trkpt>
      <trkpt lat="43.14836" lon="3.09763">
        <ele>145.938</ele>
        <time>2021-09-25T11:12:58Z</time>
      </trkpt>
      <trkpt lat="43.14834" lon="3.09763">
        <ele>146.171</ele>
        <time>2021-09-25T11:13:00Z</time>
      </trkpt>
      <trkpt lat="43.14832" lon="3.09762">
        <ele>146.331</ele>
        <time>2021-09-25T11:13:02Z</time>
      </trkpt>
      <trkpt lat="43.1483" lon="3.09762">
        <ele>146.565</ele>
        <time>2021-09-25T11:13:04Z</time>
      </trkpt>
      <trkpt lat="43.14828" lon="3.09761">
        <ele>146.879</ele>
        <time>2021-09-25T11:13:06Z</time>
      </trkpt>
      <trkpt lat="43.14826" lon="3.09759">
        <ele>147.236</ele>
        <time>2021-09-25T11:13:08Z</time>
      </trkpt>
      <trkpt lat="43.14824" lon="3.09758">
        <ele>147.805</ele>
        <time>2021-09-25T11:13:10Z</time>
      </trkpt>
      <trkpt lat="43.14823" lon="3.09756">
        <ele>147.835</ele>
        <time>2021-09-25T11:13:12Z</time>
      </trkpt>
      <trkpt lat="43.14821" lon="3.09754">
        <ele>148.028</ele>
        <time>2021-09-25T11:13:14Z</time>
      </trkpt>
      <trkpt lat="43.14819" lon="3.09753">
        <ele>147.743</ele>
        <time>2021-09-25T11:13:16Z</time>
      </trkpt>
      <trkpt lat="43.14817" lon="3.09751">
        <ele>147.961</ele>
        <time>2021-09-25T11:13:18Z</time>
      </trkpt>
      <trkpt lat="43.14815" lon="3.09749">
        <ele>148.135</ele>
        <time>2021-09-25T11:13:20Z</time>
      </trkpt>
      <trkpt lat="43.14813" lon="3.09748">
        <ele>148.099</ele>
        <time>2021-09-25T11:13:22Z</time>
      </trkpt>
      <trkpt lat="43.1481" lon="3.09746">
        <ele>148.859</ele>
        <time>2021-09-25T11:13:24Z</time>
      </trkpt>
      <trkpt lat="43.14808" lon="3.09744">
        <ele>148.968</ele>
        <time>2021-09-25T11:13:26Z</time>
      </trkpt>
      <trkpt lat="43.14807" lon="3.09742">
        <ele>149.09</ele>
        <time>2021-09-25T11:13:28Z</time>
      </trkpt>
      <trkpt lat="43.14805" lon="3.0974">
        <ele>149.085</ele>
        <time>2021-09-25T11:13:30Z</time>
      </trkpt>
      <trkpt lat="43.14803" lon="3.09738">
        <ele>148.822</ele>
        <time>2021-09-25T11:13:32Z</time>
      </trkpt>
      <trkpt lat="43.14802" lon="3.09736">
        <ele>149.675</ele>
        <time>2021-09-25T11:13:34Z</time>
      </trkpt>
      <trkpt lat="43.148" lon="3.09734">
        <ele>149.764</ele>
        <time>2021-09-25T11:13:36Z</time>
      </trkpt>
      <trkpt lat="43.14798" lon="3.09731">
        <ele>149.896</ele>
        <time>2021-09-25T11:13:38Z</time>
      </trkpt>
      <trkpt lat="43.14796" lon="3.09729">
        <ele>150.274</ele>
        <time>2021-09-25T11:13:40Z</time>
      </trkpt>
      <trkpt lat="43.14795" lon="3.09727">
        <ele>150.207</ele>
        <time>2021-09-25T11:13:42Z</time>
      </trkpt>
      <trkpt lat="43.14793" lon="3.09724">
        <ele>150.237</ele>
        <time>2021-09-25T11:13:44Z</time>
      </trkpt>
      <trkpt lat="43.14792" lon="3.09722">
        <ele>150</ele>
        <time>2021-09-25T11:13:46Z</time>
      </trkpt>
      <trkpt lat="43.1479" lon="3.09719">
        <ele>150.034</ele>
        <time>2021-09-25T11:13:48Z</time>
      </trkpt>
      <trkpt lat="43.14789" lon="3.09717">
        <ele>150.131</ele>
        <time>2021-09-25T11:13:50Z</time>
      </trkpt>
      <trkpt lat="43.14787" lon="3.09714">
        <ele>150.559</ele>
        <time>2021-09-25T11:13:52Z</time>
      </trkpt>
      <trkpt lat="43.14786" lon="3.09711">
        <ele>150.855</ele>
        <time>2021-09-25T11:13:54Z</time>
      </trkpt>
      <trkpt lat="43.14785" lon="3.09709">
        <ele>150.998</ele>
        <time>2021-09-25T11:13:56Z</time>
      </trkpt>
      <trkpt lat="43.14783" lon="3.09707">
        <ele>150.782</ele>
        <time>2021-09-25T11:13:58Z</time>
      </trkpt>
      <trkpt lat="43.14782" lon="3.09705">
        <ele>151.003</ele>
        <time>2021-09-25T11:14:00Z</time>
      </trkpt>
      <trkpt lat="43.1478" lon="3.09702">
        <ele>151.933</ele>
        <time>2021-09-25T11:14:02Z</time>
      </trkpt>
      <trkpt lat="43.14779" lon="3.097">
        <ele>151.939</ele>
        <time>2021-09-25T11:14:04Z</time>
      </trkpt>
      <trkpt lat="43.14777" lon="3.09697">
        <ele>152.374</ele>
        <time>2021-09-25T11:14:06Z</time>
      </trkpt>
      <trkpt lat="43.14774" lon="3.09694">
        <ele>152.91</ele>
        <time>2021-09-25T11:14:08Z</time>
      </trkpt>
      <trkpt lat="43.14772" lon="3.09692">
        <ele>153.244</ele>
        <time>2021-09-25T11:14:10Z</time>
      </trkpt>
      <trkpt lat="43.14771" lon="3.0969">
        <ele>153.766</ele>
        <time>2021-09-25T11:14:12Z</time>
      </trkpt>
      <trkpt lat="43.1477" lon="3.09688">
        <ele>154.114</ele>
        <time>2021-09-25T11:14:14Z</time>
      </trkpt>
      <trkpt lat="43.14768" lon="3.09685">
        <ele>154.297</ele>
        <time>2021-09-25T11:14:16Z</time>
      </trkpt>
      <trkpt lat="43.14766" lon="3.09683">
        <ele>154.088</ele>
        <time>2021-09-25T11:14:18Z</time>
      </trkpt>
      <trkpt lat="43.14764" lon="3.0968">
        <ele>155.055</ele>
        <time>2021-09-25T11:14:20Z</time>
      </trkpt>
      <trkpt lat="43.14763" lon="3.09678">
        <ele>154.998</ele>
        <time>2021-09-25T11:14:22Z</time>
      </trkpt>
      <trkpt lat="43.14762" lon="3.09675">
        <ele>154.872</ele>
        <time>2021-09-25T11:14:24Z</time>
      </trkpt>
      <trkpt lat="43.14761" lon="3.09673">
        <ele>155.383</ele>
        <time>2021-09-25T11:14:26Z</time>
      </trkpt>
      <trkpt lat="43.1476" lon="3.0967">
        <ele>154.712</ele>
        <time>2021-09-25T11:14:28Z</time>
      </trkpt>
      <trkpt lat="43.1476" lon="3.09667">
        <ele>154.684</ele>
        <time>2021-09-25T11:14:30Z</time>
      </trkpt>
      <trkpt lat="43.1476" lon="3.09664">
        <ele>154.583</ele>
        <time>2021-09-25T11:14:32Z</time>
      </trkpt>
      <trkpt lat="43.1476" lon="3.09661">
        <ele>154.039</ele>
        <time>2021-09-25T11:14:34Z</time>
      </trkpt>
      <trkpt lat="43.14759" lon="3.09658">
        <ele>153.553</ele>
        <time>2021-09-25T11:14:36Z</time>
      </trkpt>
      <trkpt lat="43.14759" lon="3.09655">
        <ele>153.483</ele>
        <time>2021-09-25T11:14:38Z</time>
      </trkpt>
      <trkpt lat="43.1476" lon="3.09652">
        <ele>153.264</ele>
        <time>2021-09-25T11:14:40Z</time>
      </trkpt>
      <trkpt lat="43.1476" lon="3.09649">
        <ele>153.572</ele>
        <time>2021-09-25T11:14:42Z</time>
      </trkpt>
      <trkpt lat="43.1476" lon="3.09646">
        <ele>153.723</ele>
        <time>2021-09-25T11:14:44Z</time>
      </trkpt>
      <trkpt lat="43.1476" lon="3.09643">
        <ele>153.754</ele>
        <time>2021-09-25T11:14:46Z</time>
      </trkpt>
      <trkpt lat="43.14761" lon="3.0964">
        <ele>153.711</ele>
        <time>2021-09-25T11:14:48Z</time>
      </trkpt>
      <trkpt lat="43.14761" lon="3.09637">
        <ele>153.625</ele>
        <time>2021-09-25T11:14:50Z</time>
      </trkpt>
      <trkpt lat="43.14761" lon="3.09634">
        <ele>153.54</ele>
        <time>2021-09-25T11:14:52Z</time>
      </trkpt>
      <trkpt lat="43.14761" lon="3.09631">
        <ele>153.645</ele>
        <time>2021-09-25T11:14:54Z</time>
      </trkpt>
      <trkpt lat="43.14762" lon="3.09627">
        <ele>153.532</ele>
        <time>2021-09-25T11:14:56Z</time>
      </trkpt>
      <trkpt lat="43.14762" lon="3.09624">
        <ele>153.941</ele>
        <time>2021-09-25T11:14:58Z</time>
      </trkpt>
      <trkpt lat="43.14762" lon="3.09621">
        <ele>153.907</ele>
        <time>2021-09-25T11:15:00Z</time>
      </trkpt>
      <trkpt lat="43.14762" lon="3.09618">
        <ele>153.515</ele>
        <time>2021-09-25T11:15:02Z</time>
      </trkpt>
      <trkpt lat="43.14762" lon="3.09615">
        <ele>153.156</ele>
        <time>2021-09-25T11:15:04Z</time>
      </trkpt>
      <trkpt lat="43.14763" lon="3.09612">
        <ele>153.2</ele>
        <time>2021-09-25T11:15:06Z</time>
      </trkpt>
      <trkpt lat="43.14763" lon="3.09608">
        <ele>152.731</ele>
        <time>2021-09-25T11:15:08Z</time>
      </trkpt>
      <trkpt lat="43.14763" lon="3.09605">
        <ele>153.232</ele>
        <time>2021-09-25T11:15:10Z</time>
      </trkpt>
      <trkpt lat="43.14764" lon="3.09602">
        <ele>153.095</ele>
        <time>2021-09-25T11:15:12Z</time>
      </trkpt>
      <trkpt lat="43.14764" lon="3.09598">
        <ele>153.563</ele>
        <time>2021-09-25T11:15:14Z</time>
      </trkpt>
      <trkpt lat="43.14765" lon="3.09595">
        <ele>153.325</ele>
        <time>2021-09-25T11:15:16Z</time>
      </trkpt>
      <trkpt lat="43.14766" lon="3.09592">
        <ele>152.818</ele>
        <time>2021-09-25T11:15:18Z</time>
      </trkpt>
      <trkpt lat="43.14766" lon="3.09589">
        <ele>152.551</ele>
        <time>2021-09-25T11:15:20Z</time>
      </trkpt>
      <trkpt lat="43.14767" lon="3.09586">
        <ele>152.337</ele>
        <time>2021-09-25T11:15:22Z</time>
      </trkpt>
      <trkpt lat="43.14768" lon="3.09583">
        <ele>152.815</ele>
        <time>2021-09-25T11:15:24Z</time>
      </trkpt>
      <trkpt lat="43.14769" lon="3.09581">
        <ele>152.613</ele>
        <time>2021-09-25T11:15:26Z</time>
      </trkpt>
      <trkpt lat="43.1477" lon="3.09578">
        <ele>152.929</ele>
        <time>2021-09-25T11:15:28Z</time>
      </trkpt>
      <trkpt lat="43.14771" lon="3.09575">
        <ele>153.356</ele>
        <time>2021-09-25T11:15:30Z</time>
      </trkpt>
      <trkpt lat="43.14772" lon="3.09573">
        <ele>152.81</ele>
        <time>2021-09-25T11:15:32Z</time>
      </trkpt>
      <trkpt lat="43.14773" lon="3.0957">
        <ele>152.85</ele>
        <time>2021-09-25T11:15:34Z</time>
      </trkpt>
      <trkpt lat="43.14774" lon="3.09567">
        <ele>152.794</ele>
        <time>2021-09-25T11:15:36Z</time>
      </trkpt>
      <trkpt lat="43.14775" lon="3.09565">
        <ele>152.138</ele>
        <time>2021-09-25T11:15:38Z</time>
      </trkpt>
      <trkpt lat="43.14776" lon="3.09562">
        <ele>151.998</ele>
        <time>2021-09-25T11:15:40Z</time>
      </trkpt>
      <trkpt lat="43.14777" lon="3.09559">
        <ele>151.959</ele>
        <time>2021-09-25T11:15:42Z</time>
      </trkpt>
      <trkpt lat="43.14778" lon="3.09556">
        <ele>152.244</ele>
        <time>2021-09-25T11:15:44Z</time>
      </trkpt>
      <trkpt lat="43.14779" lon="3.09553">
        <ele>152.311</ele>
        <time>2021-09-25T11:15:46Z</time>
      </trkpt>
      <trkpt lat="43.1478" lon="3.09551">
        <ele>152.285</ele>
        <time>2021-09-25T11:15:48Z</time>
      </trkpt>
      <trkpt lat="43.14781" lon="3.09548">
        <ele>151.76</ele>
        <time>2021-09-25T11:15:50Z</time>
      </trkpt>
      <trkpt lat="43.14782" lon="3.09545">
        <ele>151.466</ele>
        <time>2021-09-25T11:15:52Z</time>
      </trkpt>
      <trkpt lat="43.14782" lon="3.09542">
        <ele>151.39</ele>
        <time>2021-09-25T11:15:54Z</time>
      </trkpt>
      <trkpt lat="43.14784" lon="3.09539">
        <ele>152.205</ele>
        <time>2021-09-25T11:15:56Z</time>
      </trkpt>
      <trkpt lat="43.14786" lon="3.09537">
        <ele>153.025</ele>
        <time>2021-09-25T11:15:58Z</time>
      </trkpt>
      <trkpt lat="43.14786" lon="3.09535">
        <ele>152.324</ele>
        <time>2021-09-25T11:16:00Z</time>
      </trkpt>
      <trkpt lat="43.14787" lon="3.09532">
        <ele>151.807</ele>
        <time>2021-09-25T11:16:02Z</time>
      </trkpt>
      <trkpt lat="43.14787" lon="3.09529">
        <ele>151.869</ele>
        <time>2021-09-25T11:16:04Z</time>
      </trkpt>
      <trkpt lat="43.14788" lon="3.09526">
        <ele>151.487</ele>
        <time>2021-09-25T11:16:06Z</time>
      </trkpt>
      <trkpt lat="43.14788" lon="3.09523">
        <ele>151.726</ele>
        <time>2021-09-25T11:16:08Z</time>
      </trkpt>
      <trkpt lat="43.14788" lon="3.0952">
        <ele>151.483</ele>
        <time>2021-09-25T11:16:10Z</time>
      </trkpt>
      <trkpt lat="43.14788" lon="3.09517">
        <ele>151.63</ele>
        <time>2021-09-25T11:16:12Z</time>
      </trkpt>
      <trkpt lat="43.14789" lon="3.09513">
        <ele>151.753</ele>
        <time>2021-09-25T11:16:14Z</time>
      </trkpt>
      <trkpt lat="43.14788" lon="3.0951">
        <ele>152.2</ele>
        <time>2021-09-25T11:16:16Z</time>
      </trkpt>
      <trkpt lat="43.14786" lon="3.09507">
        <ele>152.359</ele>
        <time>2021-09-25T11:16:18Z</time>
      </trkpt>
      <trkpt lat="43.14784" lon="3.09505">
        <ele>152.38</ele>
        <time>2021-09-25T11:16:20Z</time>
      </trkpt>
      <trkpt lat="43.14782" lon="3.09504">
        <ele>152.96</ele>
        <time>2021-09-25T11:16:22Z</time>
      </trkpt>
      <trkpt lat="43.1478" lon="3.09503">
        <ele>153.177</ele>
        <time>2021-09-25T11:16:24Z</time>
      </trkpt>
      <trkpt lat="43.14778" lon="3.09503">
        <ele>153.484</ele>
        <time>2021-09-25T11:16:26Z</time>
      </trkpt>
      <trkpt lat="43.14775" lon="3.09503">
        <ele>153.999</ele>
        <time>2021-09-25T11:16:28Z</time>
      </trkpt>
      <trkpt lat="43.14773" lon="3.09503">
        <ele>155.158</ele>
        <time>2021-09-25T11:16:30Z</time>
      </trkpt>
      <trkpt lat="43.14771" lon="3.09503">
        <ele>155.317</ele>
        <time>2021-09-25T11:16:32Z</time>
      </trkpt>
      <trkpt lat="43.14769" lon="3.09503">
        <ele>155.465</ele>
        <time>2021-09-25T11:16:34Z</time>
      </trkpt>
      <trkpt lat="43.14766" lon="3.09503">
        <ele>156.113</ele>
        <time>2021-09-25T11:16:36Z</time>
      </trkpt>
      <trkpt lat="43.14764" lon="3.09503">
        <ele>156.203</ele>
        <time>2021-09-25T11:16:38Z</time>
      </trkpt>
      <trkpt lat="43.14762" lon="3.09503">
        <ele>156.34</ele>
        <time>2021-09-25T11:16:40Z</time>
      </trkpt>
      <trkpt lat="43.14759" lon="3.095">
        <ele>156.919</ele>
        <time>2021-09-25T11:16:42Z</time>
      </trkpt>
      <trkpt lat="43.14757" lon="3.09501">
        <ele>157.234</ele>
        <time>2021-09-25T11:16:44Z</time>
      </trkpt>
      <trkpt lat="43.14756" lon="3.09501">
        <ele>157.126</ele>
        <time>2021-09-25T11:16:46Z</time>
      </trkpt>
      <trkpt lat="43.14757" lon="3.09501">
        <ele>157.138</ele>
        <time>2021-09-25T11:16:48Z</time>
      </trkpt>
      <trkpt lat="43.14757" lon="3.09501">
        <ele>157.135</ele>
        <time>2021-09-25T11:16:50Z</time>
      </trkpt>
      <trkpt lat="43.14757" lon="3.09501">
        <ele>157.136</ele>
        <time>2021-09-25T11:16:52Z</time>
      </trkpt>
      <trkpt lat="43.14757" lon="3.09501">
        <ele>157.131</ele>
        <time>2021-09-25T11:16:54Z</time>
      </trkpt>
      <trkpt lat="43.14757" lon="3.09501">
        <ele>157.129</ele>
        <time>2021-09-25T11:16:56Z</time>
      </trkpt>
      <trkpt lat="43.14755" lon="3.09501">
        <ele>157.042</ele>
        <time>2021-09-25T11:16:58Z</time>
      </trkpt>
      <trkpt lat="43.14753" lon="3.095">
        <ele>156.636</ele>
        <time>2021-09-25T11:17:00Z</time>
      </trkpt>
      <trkpt lat="43.14752" lon="3.09501">
        <ele>156.286</ele>
        <time>2021-09-25T11:17:02Z</time>
      </trkpt>
      <trkpt lat="43.14752" lon="3.09502">
        <ele>155.975</ele>
        <time>2021-09-25T11:17:04Z</time>
      </trkpt>
      <trkpt lat="43.14752" lon="3.09502">
        <ele>155.977</ele>
        <time>2021-09-25T11:17:06Z</time>
      </trkpt>
      <trkpt lat="43.14752" lon="3.09501">
        <ele>155.68</ele>
        <time>2021-09-25T11:17:08Z</time>
      </trkpt>
      <trkpt lat="43.14752" lon="3.09501">
        <ele>155.939</ele>
        <time>2021-09-25T11:17:10Z</time>
      </trkpt>
      <trkpt lat="43.14752" lon="3.09501">
        <ele>156.23</ele>
        <time>2021-09-25T11:17:12Z</time>
      </trkpt>
      <trkpt lat="43.1475" lon="3.09501">
        <ele>155.762</ele>
        <time>2021-09-25T11:17:14Z</time>
      </trkpt>
      <trkpt lat="43.14748" lon="3.09501">
        <ele>155.789</ele>
        <time>2021-09-25T11:17:16Z</time>
      </trkpt>
      <trkpt lat="43.14745" lon="3.09501">
        <ele>155.879</ele>
        <time>2021-09-25T11:17:18Z</time>
      </trkpt>
      <trkpt lat="43.14742" lon="3.09501">
        <ele>156.068</ele>
        <time>2021-09-25T11:17:20Z</time>
      </trkpt>
      <trkpt lat="43.1474" lon="3.09502">
        <ele>155.877</ele>
        <time>2021-09-25T11:17:22Z</time>
      </trkpt>
      <trkpt lat="43.14738" lon="3.09503">
        <ele>155.494</ele>
        <time>2021-09-25T11:17:24Z</time>
      </trkpt>
      <trkpt lat="43.14736" lon="3.09505">
        <ele>155.586</ele>
        <time>2021-09-25T11:17:26Z</time>
      </trkpt>
      <trkpt lat="43.14734" lon="3.09508">
        <ele>155.613</ele>
        <time>2021-09-25T11:17:28Z</time>
      </trkpt>
      <trkpt lat="43.14732" lon="3.09509">
        <ele>155.788</ele>
        <time>2021-09-25T11:17:30Z</time>
      </trkpt>
      <trkpt lat="43.1473" lon="3.09511">
        <ele>155.67</ele>
        <time>2021-09-25T11:17:32Z</time>
      </trkpt>
      <trkpt lat="43.14728" lon="3.09513">
        <ele>155.621</ele>
        <time>2021-09-25T11:17:34Z</time>
      </trkpt>
      <trkpt lat="43.14726" lon="3.09515">
        <ele>155.54</ele>
        <time>2021-09-25T11:17:36Z</time>
      </trkpt>
      <trkpt lat="43.14724" lon="3.09517">
        <ele>155.546</ele>
        <time>2021-09-25T11:17:38Z</time>
      </trkpt>
      <trkpt lat="43.14722" lon="3.09519">
        <ele>155.554</ele>
        <time>2021-09-25T11:17:40Z</time>
      </trkpt>
      <trkpt lat="43.14721" lon="3.09521">
        <ele>155.328</ele>
        <time>2021-09-25T11:17:42Z</time>
      </trkpt>
      <trkpt lat="43.14719" lon="3.09522">
        <ele>155.47</ele>
        <time>2021-09-25T11:17:44Z</time>
      </trkpt>
      <trkpt lat="43.14717" lon="3.09524">
        <ele>155.331</ele>
        <time>2021-09-25T11:17:46Z</time>
      </trkpt>
      <trkpt lat="43.14715" lon="3.09526">
        <ele>155.979</ele>
        <time>2021-09-25T11:17:48Z</time>
      </trkpt>
      <trkpt lat="43.14713" lon="3.09527">
        <ele>155.879</ele>
        <time>2021-09-25T11:17:50Z</time>
      </trkpt>
      <trkpt lat="43.1471" lon="3.09529">
        <ele>155.812</ele>
        <time>2021-09-25T11:17:52Z</time>
      </trkpt>
      <trkpt lat="43.14708" lon="3.0953">
        <ele>155.739</ele>
        <time>2021-09-25T11:17:54Z</time>
      </trkpt>
      <trkpt lat="43.14706" lon="3.09532">
        <ele>155.657</ele>
        <time>2021-09-25T11:17:56Z</time>
      </trkpt>
      <trkpt lat="43.14704" lon="3.09534">
        <ele>155.711</ele>
        <time>2021-09-25T11:17:58Z</time>
      </trkpt>
      <trkpt lat="43.14702" lon="3.09535">
        <ele>155.95</ele>
        <time>2021-09-25T11:18:00Z</time>
      </trkpt>
      <trkpt lat="43.14699" lon="3.09536">
        <ele>156.438</ele>
        <time>2021-09-25T11:18:02Z</time>
      </trkpt>
      <trkpt lat="43.14697" lon="3.09537">
        <ele>156.323</ele>
        <time>2021-09-25T11:18:04Z</time>
      </trkpt>
      <trkpt lat="43.14695" lon="3.09539">
        <ele>156.444</ele>
        <time>2021-09-25T11:18:06Z</time>
      </trkpt>
      <trkpt lat="43.14693" lon="3.09539">
        <ele>156.269</ele>
        <time>2021-09-25T11:18:08Z</time>
      </trkpt>
      <trkpt lat="43.1469" lon="3.0954">
        <ele>156.241</ele>
        <time>2021-09-25T11:18:10Z</time>
      </trkpt>
      <trkpt lat="43.14688" lon="3.09541">
        <ele>156.405</ele>
        <time>2021-09-25T11:18:12Z</time>
      </trkpt>
      <trkpt lat="43.14686" lon="3.09541">
        <ele>156.092</ele>
        <time>2021-09-25T11:18:14Z</time>
      </trkpt>
      <trkpt lat="43.14683" lon="3.09541">
        <ele>156.296</ele>
        <time>2021-09-25T11:18:16Z</time>
      </trkpt>
      <trkpt lat="43.14681" lon="3.09542">
        <ele>156.298</ele>
        <time>2021-09-25T11:18:18Z</time>
      </trkpt>
      <trkpt lat="43.14679" lon="3.09541">
        <ele>156.124</ele>
        <time>2021-09-25T11:18:20Z</time>
      </trkpt>
      <trkpt lat="43.14676" lon="3.09541">
        <ele>156.308</ele>
        <time>2021-09-25T11:18:22Z</time>
      </trkpt>
      <trkpt lat="43.14674" lon="3.0954">
        <ele>156.852</ele>
        <time>2021-09-25T11:18:24Z</time>
      </trkpt>
      <trkpt lat="43.14672" lon="3.09538">
        <ele>157.26</ele>
        <time>2021-09-25T11:18:26Z</time>
      </trkpt>
      <trkpt lat="43.1467" lon="3.09537">
        <ele>156.989</ele>
        <time>2021-09-25T11:18:28Z</time>
      </trkpt>
      <trkpt lat="43.14668" lon="3.09535">
        <ele>157.033</ele>
        <time>2021-09-25T11:18:30Z</time>
      </trkpt>
      <trkpt lat="43.14666" lon="3.09534">
        <ele>157.157</ele>
        <time>2021-09-25T11:18:32Z</time>
      </trkpt>
      <trkpt lat="43.14664" lon="3.09532">
        <ele>157.051</ele>
        <time>2021-09-25T11:18:34Z</time>
      </trkpt>
      <trkpt lat="43.14662" lon="3.0953">
        <ele>157.021</ele>
        <time>2021-09-25T11:18:36Z</time>
      </trkpt>
      <trkpt lat="43.1466" lon="3.09528">
        <ele>157.343</ele>
        <time>2021-09-25T11:18:38Z</time>
      </trkpt>
      <trkpt lat="43.14658" lon="3.09526">
        <ele>157.547</ele>
        <time>2021-09-25T11:18:40Z</time>
      </trkpt>
      <trkpt lat="43.14658" lon="3.09525">
        <ele>157.907</ele>
        <time>2021-09-25T11:18:42Z</time>
      </trkpt>
      <trkpt lat="43.14658" lon="3.09524">
        <ele>157.922</ele>
        <time>2021-09-25T11:18:44Z</time>
      </trkpt>
      <trkpt lat="43.14658" lon="3.09524">
        <ele>157.922</ele>
        <time>2021-09-25T11:18:46Z</time>
      </trkpt>
      <trkpt lat="43.14658" lon="3.09524">
        <ele>157.922</ele>
        <time>2021-09-25T11:18:48Z</time>
      </trkpt>
      <trkpt lat="43.14658" lon="3.09524">
        <ele>157.926</ele>
        <time>2021-09-25T11:18:50Z</time>
      </trkpt>
      <trkpt lat="43.14658" lon="3.09524">
        <ele>157.924</ele>
        <time>2021-09-25T11:18:52Z</time>
      </trkpt>
      <trkpt lat="43.14658" lon="3.09524">
        <ele>157.93</ele>
        <time>2021-09-25T11:18:54Z</time>
      </trkpt>
      <trkpt lat="43.14657" lon="3.09524">
        <ele>158.399</ele>
        <time>2021-09-25T11:18:56Z</time>
      </trkpt>
      <trkpt lat="43.14656" lon="3.09522">
        <ele>158.295</ele>
        <time>2021-09-25T11:18:58Z</time>
      </trkpt>
      <trkpt lat="43.14655" lon="3.0952">
        <ele>158.009</ele>
        <time>2021-09-25T11:19:00Z</time>
      </trkpt>
      <trkpt lat="43.14653" lon="3.09517">
        <ele>158.374</ele>
        <time>2021-09-25T11:19:02Z</time>
      </trkpt>
      <trkpt lat="43.14653" lon="3.09514">
        <ele>157.807</ele>
        <time>2021-09-25T11:19:04Z</time>
      </trkpt>
      <trkpt lat="43.14651" lon="3.09512">
        <ele>157.813</ele>
        <time>2021-09-25T11:19:06Z</time>
      </trkpt>
      <trkpt lat="43.1465" lon="3.09509">
        <ele>157.812</ele>
        <time>2021-09-25T11:19:08Z</time>
      </trkpt>
      <trkpt lat="43.14649" lon="3.09507">
        <ele>157.59</ele>
        <time>2021-09-25T11:19:10Z</time>
      </trkpt>
      <trkpt lat="43.14647" lon="3.09504">
        <ele>157.534</ele>
        <time>2021-09-25T11:19:12Z</time>
      </trkpt>
      <trkpt lat="43.14646" lon="3.09502">
        <ele>157.648</ele>
        <time>2021-09-25T11:19:14Z</time>
      </trkpt>
      <trkpt lat="43.14645" lon="3.09499">
        <ele>157.953</ele>
        <time>2021-09-25T11:19:16Z</time>
      </trkpt>
      <trkpt lat="43.14644" lon="3.09496">
        <ele>158.544</ele>
        <time>2021-09-25T11:19:18Z</time>
      </trkpt>
      <trkpt lat="43.14643" lon="3.09494">
        <ele>158.58</ele>
        <time>2021-09-25T11:19:20Z</time>
      </trkpt>
      <trkpt lat="43.14641" lon="3.09491">
        <ele>158.503</ele>
        <time>2021-09-25T11:19:22Z</time>
      </trkpt>
      <trkpt lat="43.1464" lon="3.09488">
        <ele>158.511</ele>
        <time>2021-09-25T11:19:24Z</time>
      </trkpt>
      <trkpt lat="43.14638" lon="3.09485">
        <ele>158.34</ele>
        <time>2021-09-25T11:19:26Z</time>
      </trkpt>
      <trkpt lat="43.14637" lon="3.09483">
        <ele>158.158</ele>
        <time>2021-09-25T11:19:28Z</time>
      </trkpt>
      <trkpt lat="43.14636" lon="3.0948">
        <ele>158.034</ele>
        <time>2021-09-25T11:19:30Z</time>
      </trkpt>
      <trkpt lat="43.14635" lon="3.09477">
        <ele>158.137</ele>
        <time>2021-09-25T11:19:32Z</time>
      </trkpt>
      <trkpt lat="43.14633" lon="3.09474">
        <ele>157.88</ele>
        <time>2021-09-25T11:19:34Z</time>
      </trkpt>
      <trkpt lat="43.14631" lon="3.09472">
        <ele>157.879</ele>
        <time>2021-09-25T11:19:36Z</time>
      </trkpt>
      <trkpt lat="43.1463" lon="3.09469">
        <ele>157.969</ele>
        <time>2021-09-25T11:19:38Z</time>
      </trkpt>
      <trkpt lat="43.14628" lon="3.09466">
        <ele>158.449</ele>
        <time>2021-09-25T11:19:40Z</time>
      </trkpt>
      <trkpt lat="43.14627" lon="3.09464">
        <ele>158.371</ele>
        <time>2021-09-25T11:19:42Z</time>
      </trkpt>
      <trkpt lat="43.14625" lon="3.09461">
        <ele>157.859</ele>
        <time>2021-09-25T11:19:44Z</time>
      </trkpt>
      <trkpt lat="43.14624" lon="3.09459">
        <ele>158.58</ele>
        <time>2021-09-25T11:19:46Z</time>
      </trkpt>
      <trkpt lat="43.14622" lon="3.09456">
        <ele>158.795</ele>
        <time>2021-09-25T11:19:48Z</time>
      </trkpt>
      <trkpt lat="43.14621" lon="3.09454">
        <ele>158.93</ele>
        <time>2021-09-25T11:19:50Z</time>
      </trkpt>
      <trkpt lat="43.14619" lon="3.09451">
        <ele>158.863</ele>
        <time>2021-09-25T11:19:52Z</time>
      </trkpt>
      <trkpt lat="43.14618" lon="3.09449">
        <ele>158.861</ele>
        <time>2021-09-25T11:19:54Z</time>
      </trkpt>
      <trkpt lat="43.14617" lon="3.09446">
        <ele>158.625</ele>
        <time>2021-09-25T11:19:56Z</time>
      </trkpt>
      <trkpt lat="43.14615" lon="3.09444">
        <ele>158.763</ele>
        <time>2021-09-25T11:19:58Z</time>
      </trkpt>
      <trkpt lat="43.14613" lon="3.09442">
        <ele>158.949</ele>
        <time>2021-09-25T11:20:00Z</time>
      </trkpt>
      <trkpt lat="43.14611" lon="3.0944">
        <ele>159.094</ele>
        <time>2021-09-25T11:20:02Z</time>
      </trkpt>
      <trkpt lat="43.14609" lon="3.09439">
        <ele>159.222</ele>
        <time>2021-09-25T11:20:04Z</time>
      </trkpt>
      <trkpt lat="43.14607" lon="3.09438">
        <ele>160.006</ele>
        <time>2021-09-25T11:20:06Z</time>
      </trkpt>
      <trkpt lat="43.14605" lon="3.09438">
        <ele>159.819</ele>
        <time>2021-09-25T11:20:08Z</time>
      </trkpt>
      <trkpt lat="43.14603" lon="3.09438">
        <ele>160.109</ele>
        <time>2021-09-25T11:20:10Z</time>
      </trkpt>
      <trkpt lat="43.14601" lon="3.09439">
        <ele>160.268</ele>
        <time>2021-09-25T11:20:12Z</time>
      </trkpt>
      <trkpt lat="43.146" lon="3.09441">
        <ele>161.576</ele>
        <time>2021-09-25T11:20:14Z</time>
      </trkpt>
      <trkpt lat="43.14598" lon="3.09441">
        <ele>161.963</ele>
        <time>2021-09-25T11:20:16Z</time>
      </trkpt>
      <trkpt lat="43.14596" lon="3.09443">
        <ele>161.816</ele>
        <time>2021-09-25T11:20:18Z</time>
      </trkpt>
      <trkpt lat="43.14595" lon="3.09444">
        <ele>161.692</ele>
        <time>2021-09-25T11:20:20Z</time>
      </trkpt>
      <trkpt lat="43.14593" lon="3.09446">
        <ele>162.055</ele>
        <time>2021-09-25T11:20:22Z</time>
      </trkpt>
      <trkpt lat="43.14592" lon="3.09448">
        <ele>162.173</ele>
        <time>2021-09-25T11:20:24Z</time>
      </trkpt>
      <trkpt lat="43.1459" lon="3.09451">
        <ele>162.286</ele>
        <time>2021-09-25T11:20:26Z</time>
      </trkpt>
      <trkpt lat="43.14588" lon="3.09453">
        <ele>161.907</ele>
        <time>2021-09-25T11:20:28Z</time>
      </trkpt>
      <trkpt lat="43.14587" lon="3.09455">
        <ele>161.619</ele>
        <time>2021-09-25T11:20:30Z</time>
      </trkpt>
      <trkpt lat="43.14586" lon="3.09458">
        <ele>161.447</ele>
        <time>2021-09-25T11:20:32Z</time>
      </trkpt>
      <trkpt lat="43.14584" lon="3.0946">
        <ele>161.724</ele>
        <time>2021-09-25T11:20:34Z</time>
      </trkpt>
      <trkpt lat="43.14582" lon="3.09462">
        <ele>161.463</ele>
        <time>2021-09-25T11:20:36Z</time>
      </trkpt>
      <trkpt lat="43.14581" lon="3.09465">
        <ele>161.071</ele>
        <time>2021-09-25T11:20:38Z</time>
      </trkpt>
      <trkpt lat="43.14579" lon="3.09467">
        <ele>160.917</ele>
        <time>2021-09-25T11:20:40Z</time>
      </trkpt>
      <trkpt lat="43.14577" lon="3.09469">
        <ele>160.576</ele>
        <time>2021-09-25T11:20:42Z</time>
      </trkpt>
      <trkpt lat="43.14576" lon="3.09472">
        <ele>160.124</ele>
        <time>2021-09-25T11:20:44Z</time>
      </trkpt>
      <trkpt lat="43.14574" lon="3.09474">
        <ele>160.032</ele>
        <time>2021-09-25T11:20:46Z</time>
      </trkpt>
      <trkpt lat="43.14573" lon="3.09476">
        <ele>159.918</ele>
        <time>2021-09-25T11:20:48Z</time>
      </trkpt>
      <trkpt lat="43.14571" lon="3.09479">
        <ele>159.929</ele>
        <time>2021-09-25T11:20:50Z</time>
      </trkpt>
      <trkpt lat="43.14569" lon="3.09481">
        <ele>160.165</ele>
        <time>2021-09-25T11:20:52Z</time>
      </trkpt>
      <trkpt lat="43.14568" lon="3.09484">
        <ele>160.151</ele>
        <time>2021-09-25T11:20:54Z</time>
      </trkpt>
      <trkpt lat="43.14566" lon="3.09486">
        <ele>160.151</ele>
        <time>2021-09-25T11:20:56Z</time>
      </trkpt>
      <trkpt lat="43.14564" lon="3.09489">
        <ele>159.982</ele>
        <time>2021-09-25T11:20:58Z</time>
      </trkpt>
      <trkpt lat="43.14563" lon="3.09491">
        <ele>159.953</ele>
        <time>2021-09-25T11:21:00Z</time>
      </trkpt>
      <trkpt lat="43.14561" lon="3.09494">
        <ele>160.043</ele>
        <time>2021-09-25T11:21:02Z</time>
      </trkpt>
      <trkpt lat="43.14559" lon="3.09496">
        <ele>159.721</ele>
        <time>2021-09-25T11:21:04Z</time>
      </trkpt>
      <trkpt lat="43.14558" lon="3.09498">
        <ele>160.006</ele>
        <time>2021-09-25T11:21:06Z</time>
      </trkpt>
      <trkpt lat="43.14556" lon="3.09501">
        <ele>160.033</ele>
        <time>2021-09-25T11:21:08Z</time>
      </trkpt>
      <trkpt lat="43.14555" lon="3.09503">
        <ele>159.662</ele>
        <time>2021-09-25T11:21:10Z</time>
      </trkpt>
      <trkpt lat="43.14553" lon="3.09506">
        <ele>160.222</ele>
        <time>2021-09-25T11:21:12Z</time>
      </trkpt>
      <trkpt lat="43.14551" lon="3.09509">
        <ele>160.222</ele>
        <time>2021-09-25T11:21:14Z</time>
      </trkpt>
      <trkpt lat="43.1455" lon="3.09512">
        <ele>160.025</ele>
        <time>2021-09-25T11:21:16Z</time>
      </trkpt>
      <trkpt lat="43.14548" lon="3.09514">
        <ele>160.347</ele>
        <time>2021-09-25T11:21:18Z</time>
      </trkpt>
      <trkpt lat="43.14547" lon="3.09517">
        <ele>160.012</ele>
        <time>2021-09-25T11:21:20Z</time>
      </trkpt>
      <trkpt lat="43.14545" lon="3.09519">
        <ele>160.262</ele>
        <time>2021-09-25T11:21:22Z</time>
      </trkpt>
      <trkpt lat="43.14544" lon="3.09522">
        <ele>160.229</ele>
        <time>2021-09-25T11:21:24Z</time>
      </trkpt>
      <trkpt lat="43.14542" lon="3.09525">
        <ele>159.827</ele>
        <time>2021-09-25T11:21:26Z</time>
      </trkpt>
      <trkpt lat="43.1454" lon="3.09527">
        <ele>159.962</ele>
        <time>2021-09-25T11:21:28Z</time>
      </trkpt>
      <trkpt lat="43.14538" lon="3.09529">
        <ele>159.989</ele>
        <time>2021-09-25T11:21:30Z</time>
      </trkpt>
      <trkpt lat="43.14537" lon="3.09532">
        <ele>159.844</ele>
        <time>2021-09-25T11:21:32Z</time>
      </trkpt>
      <trkpt lat="43.14535" lon="3.09534">
        <ele>159.631</ele>
        <time>2021-09-25T11:21:34Z</time>
      </trkpt>
      <trkpt lat="43.14533" lon="3.09536">
        <ele>159.497</ele>
        <time>2021-09-25T11:21:36Z</time>
      </trkpt>
      <trkpt lat="43.14531" lon="3.09539">
        <ele>159.302</ele>
        <time>2021-09-25T11:21:38Z</time>
      </trkpt>
      <trkpt lat="43.14529" lon="3.09541">
        <ele>159.545</ele>
        <time>2021-09-25T11:21:40Z</time>
      </trkpt>
      <trkpt lat="43.14527" lon="3.09543">
        <ele>158.681</ele>
        <time>2021-09-25T11:21:42Z</time>
      </trkpt>
      <trkpt lat="43.14525" lon="3.09546">
        <ele>158.769</ele>
        <time>2021-09-25T11:21:44Z</time>
      </trkpt>
      <trkpt lat="43.14523" lon="3.09547">
        <ele>159.011</ele>
        <time>2021-09-25T11:21:46Z</time>
      </trkpt>
      <trkpt lat="43.14521" lon="3.09549">
        <ele>159.279</ele>
        <time>2021-09-25T11:21:48Z</time>
      </trkpt>
      <trkpt lat="43.14518" lon="3.09551">
        <ele>159.518</ele>
        <time>2021-09-25T11:21:50Z</time>
      </trkpt>
      <trkpt lat="43.14516" lon="3.09553">
        <ele>159.341</ele>
        <time>2021-09-25T11:21:52Z</time>
      </trkpt>
      <trkpt lat="43.14513" lon="3.09554">
        <ele>159.952</ele>
        <time>2021-09-25T11:21:54Z</time>
      </trkpt>
      <trkpt lat="43.14511" lon="3.09555">
        <ele>160.118</ele>
        <time>2021-09-25T11:21:56Z</time>
      </trkpt>
      <trkpt lat="43.14508" lon="3.09556">
        <ele>159.322</ele>
        <time>2021-09-25T11:21:58Z</time>
      </trkpt>
      <trkpt lat="43.14506" lon="3.09556">
        <ele>159.429</ele>
        <time>2021-09-25T11:22:00Z</time>
      </trkpt>
      <trkpt lat="43.14503" lon="3.09556">
        <ele>159.205</ele>
        <time>2021-09-25T11:22:02Z</time>
      </trkpt>
      <trkpt lat="43.14501" lon="3.09555">
        <ele>159.005</ele>
        <time>2021-09-25T11:22:04Z</time>
      </trkpt>
      <trkpt lat="43.14499" lon="3.09555">
        <ele>158.661</ele>
        <time>2021-09-25T11:22:06Z</time>
      </trkpt>
      <trkpt lat="43.14496" lon="3.09555">
        <ele>158.55</ele>
        <time>2021-09-25T11:22:08Z</time>
      </trkpt>
      <trkpt lat="43.14494" lon="3.09554">
        <ele>158.893</ele>
        <time>2021-09-25T11:22:10Z</time>
      </trkpt>
      <trkpt lat="43.14491" lon="3.09553">
        <ele>159.438</ele>
        <time>2021-09-25T11:22:12Z</time>
      </trkpt>
      <trkpt lat="43.14489" lon="3.09552">
        <ele>159.604</ele>
        <time>2021-09-25T11:22:14Z</time>
      </trkpt>
      <trkpt lat="43.14486" lon="3.09551">
        <ele>159.439</ele>
        <time>2021-09-25T11:22:16Z</time>
      </trkpt>
      <trkpt lat="43.14483" lon="3.0955">
        <ele>159.31</ele>
        <time>2021-09-25T11:22:18Z</time>
      </trkpt>
      <trkpt lat="43.14481" lon="3.09549">
        <ele>159.452</ele>
        <time>2021-09-25T11:22:20Z</time>
      </trkpt>
      <trkpt lat="43.14478" lon="3.09548">
        <ele>159.731</ele>
        <time>2021-09-25T11:22:22Z</time>
      </trkpt>
      <trkpt lat="43.14476" lon="3.09548">
        <ele>159.346</ele>
        <time>2021-09-25T11:22:24Z</time>
      </trkpt>
      <trkpt lat="43.14472" lon="3.09547">
        <ele>159.34</ele>
        <time>2021-09-25T11:22:27Z</time>
      </trkpt>
      <trkpt lat="43.1447" lon="3.09546">
        <ele>158.967</ele>
        <time>2021-09-25T11:22:29Z</time>
      </trkpt>
      <trkpt lat="43.14467" lon="3.09545">
        <ele>158.845</ele>
        <time>2021-09-25T11:22:31Z</time>
      </trkpt>
      <trkpt lat="43.14465" lon="3.09544">
        <ele>158.454</ele>
        <time>2021-09-25T11:22:33Z</time>
      </trkpt>
      <trkpt lat="43.14463" lon="3.09543">
        <ele>158.679</ele>
        <time>2021-09-25T11:22:35Z</time>
      </trkpt>
      <trkpt lat="43.1446" lon="3.09542">
        <ele>158.441</ele>
        <time>2021-09-25T11:22:37Z</time>
      </trkpt>
      <trkpt lat="43.14458" lon="3.09541">
        <ele>158.834</ele>
        <time>2021-09-25T11:22:39Z</time>
      </trkpt>
      <trkpt lat="43.14455" lon="3.0954">
        <ele>158.352</ele>
        <time>2021-09-25T11:22:41Z</time>
      </trkpt>
      <trkpt lat="43.14453" lon="3.09539">
        <ele>158.325</ele>
        <time>2021-09-25T11:22:43Z</time>
      </trkpt>
      <trkpt lat="43.1445" lon="3.09539">
        <ele>158.116</ele>
        <time>2021-09-25T11:22:45Z</time>
      </trkpt>
      <trkpt lat="43.14448" lon="3.09538">
        <ele>158.159</ele>
        <time>2021-09-25T11:22:47Z</time>
      </trkpt>
      <trkpt lat="43.14445" lon="3.09538">
        <ele>158.257</ele>
        <time>2021-09-25T11:22:49Z</time>
      </trkpt>
      <trkpt lat="43.14443" lon="3.09537">
        <ele>157.634</ele>
        <time>2021-09-25T11:22:51Z</time>
      </trkpt>
      <trkpt lat="43.14441" lon="3.09536">
        <ele>157.242</ele>
        <time>2021-09-25T11:22:53Z</time>
      </trkpt>
      <trkpt lat="43.14439" lon="3.09536">
        <ele>157.234</ele>
        <time>2021-09-25T11:22:54Z</time>
      </trkpt>
      <trkpt lat="43.14436" lon="3.09535">
        <ele>156.692</ele>
        <time>2021-09-25T11:22:57Z</time>
      </trkpt>
      <trkpt lat="43.14433" lon="3.09534">
        <ele>156.528</ele>
        <time>2021-09-25T11:22:59Z</time>
      </trkpt>
      <trkpt lat="43.1443" lon="3.09534">
        <ele>156.453</ele>
        <time>2021-09-25T11:23:01Z</time>
      </trkpt>
      <trkpt lat="43.14428" lon="3.09533">
        <ele>156.007</ele>
        <time>2021-09-25T11:23:03Z</time>
      </trkpt>
      <trkpt lat="43.14425" lon="3.09533">
        <ele>155.832</ele>
        <time>2021-09-25T11:23:05Z</time>
      </trkpt>
      <trkpt lat="43.14423" lon="3.09532">
        <ele>155.857</ele>
        <time>2021-09-25T11:23:07Z</time>
      </trkpt>
      <trkpt lat="43.1442" lon="3.09532">
        <ele>155.842</ele>
        <time>2021-09-25T11:23:09Z</time>
      </trkpt>
      <trkpt lat="43.14417" lon="3.09531">
        <ele>155.845</ele>
        <time>2021-09-25T11:23:11Z</time>
      </trkpt>
      <trkpt lat="43.14415" lon="3.09531">
        <ele>155.52</ele>
        <time>2021-09-25T11:23:13Z</time>
      </trkpt>
      <trkpt lat="43.14412" lon="3.09531">
        <ele>154.664</ele>
        <time>2021-09-25T11:23:15Z</time>
      </trkpt>
      <trkpt lat="43.14409" lon="3.09531">
        <ele>154.614</ele>
        <time>2021-09-25T11:23:17Z</time>
      </trkpt>
      <trkpt lat="43.14407" lon="3.09531">
        <ele>154.761</ele>
        <time>2021-09-25T11:23:19Z</time>
      </trkpt>
      <trkpt lat="43.14404" lon="3.09531">
        <ele>154.339</ele>
        <time>2021-09-25T11:23:21Z</time>
      </trkpt>
      <trkpt lat="43.14401" lon="3.09531">
        <ele>153.882</ele>
        <time>2021-09-25T11:23:23Z</time>
      </trkpt>
      <trkpt lat="43.14399" lon="3.09532">
        <ele>153.91</ele>
        <time>2021-09-25T11:23:25Z</time>
      </trkpt>
      <trkpt lat="43.14396" lon="3.09533">
        <ele>154.093</ele>
        <time>2021-09-25T11:23:27Z</time>
      </trkpt>
      <trkpt lat="43.14394" lon="3.09534">
        <ele>154.147</ele>
        <time>2021-09-25T11:23:29Z</time>
      </trkpt>
      <trkpt lat="43.14392" lon="3.09535">
        <ele>154.246</ele>
        <time>2021-09-25T11:23:31Z</time>
      </trkpt>
      <trkpt lat="43.14389" lon="3.09536">
        <ele>153.75</ele>
        <time>2021-09-25T11:23:33Z</time>
      </trkpt>
      <trkpt lat="43.14387" lon="3.09538">
        <ele>153.482</ele>
        <time>2021-09-25T11:23:35Z</time>
      </trkpt>
      <trkpt lat="43.14384" lon="3.09539">
        <ele>153.769</ele>
        <time>2021-09-25T11:23:37Z</time>
      </trkpt>
      <trkpt lat="43.14382" lon="3.09541">
        <ele>153.51</ele>
        <time>2021-09-25T11:23:39Z</time>
      </trkpt>
      <trkpt lat="43.1438" lon="3.09543">
        <ele>153.651</ele>
        <time>2021-09-25T11:23:41Z</time>
      </trkpt>
      <trkpt lat="43.14378" lon="3.09544">
        <ele>153.212</ele>
        <time>2021-09-25T11:23:43Z</time>
      </trkpt>
      <trkpt lat="43.14376" lon="3.09546">
        <ele>153.071</ele>
        <time>2021-09-25T11:23:45Z</time>
      </trkpt>
      <trkpt lat="43.14374" lon="3.09548">
        <ele>152.961</ele>
        <time>2021-09-25T11:23:47Z</time>
      </trkpt>
      <trkpt lat="43.14372" lon="3.09549">
        <ele>153.11</ele>
        <time>2021-09-25T11:23:49Z</time>
      </trkpt>
      <trkpt lat="43.14369" lon="3.09551">
        <ele>152.758</ele>
        <time>2021-09-25T11:23:51Z</time>
      </trkpt>
      <trkpt lat="43.14367" lon="3.09553">
        <ele>152.278</ele>
        <time>2021-09-25T11:23:53Z</time>
      </trkpt>
      <trkpt lat="43.14365" lon="3.09555">
        <ele>151.884</ele>
        <time>2021-09-25T11:23:55Z</time>
      </trkpt>
      <trkpt lat="43.14363" lon="3.09556">
        <ele>151.671</ele>
        <time>2021-09-25T11:23:57Z</time>
      </trkpt>
      <trkpt lat="43.14361" lon="3.09557">
        <ele>151.956</ele>
        <time>2021-09-25T11:23:59Z</time>
      </trkpt>
      <trkpt lat="43.14359" lon="3.09559">
        <ele>151.95</ele>
        <time>2021-09-25T11:24:01Z</time>
      </trkpt>
      <trkpt lat="43.14356" lon="3.0956">
        <ele>151.97</ele>
        <time>2021-09-25T11:24:03Z</time>
      </trkpt>
      <trkpt lat="43.14354" lon="3.09561">
        <ele>151.483</ele>
        <time>2021-09-25T11:24:05Z</time>
      </trkpt>
      <trkpt lat="43.14351" lon="3.09562">
        <ele>151.543</ele>
        <time>2021-09-25T11:24:07Z</time>
      </trkpt>
      <trkpt lat="43.14348" lon="3.09563">
        <ele>151.371</ele>
        <time>2021-09-25T11:24:09Z</time>
      </trkpt>
      <trkpt lat="43.14346" lon="3.09564">
        <ele>150.907</ele>
        <time>2021-09-25T11:24:11Z</time>
      </trkpt>
      <trkpt lat="43.14342" lon="3.09565">
        <ele>151.515</ele>
        <time>2021-09-25T11:24:14Z</time>
      </trkpt>
      <trkpt lat="43.1434" lon="3.09566">
        <ele>151.875</ele>
        <time>2021-09-25T11:24:16Z</time>
      </trkpt>
      <trkpt lat="43.14337" lon="3.09566">
        <ele>151.454</ele>
        <time>2021-09-25T11:24:18Z</time>
      </trkpt>
      <trkpt lat="43.14334" lon="3.09565">
        <ele>151.23</ele>
        <time>2021-09-25T11:24:20Z</time>
      </trkpt>
      <trkpt lat="43.14332" lon="3.09565">
        <ele>151.379</ele>
        <time>2021-09-25T11:24:22Z</time>
      </trkpt>
      <trkpt lat="43.14329" lon="3.09564">
        <ele>151.403</ele>
        <time>2021-09-25T11:24:24Z</time>
      </trkpt>
      <trkpt lat="43.14327" lon="3.09564">
        <ele>152.061</ele>
        <time>2021-09-25T11:24:26Z</time>
      </trkpt>
      <trkpt lat="43.14324" lon="3.09564">
        <ele>153.008</ele>
        <time>2021-09-25T11:24:28Z</time>
      </trkpt>
      <trkpt lat="43.14321" lon="3.09563">
        <ele>152.668</ele>
        <time>2021-09-25T11:24:30Z</time>
      </trkpt>
      <trkpt lat="43.14319" lon="3.09562">
        <ele>152.515</ele>
        <time>2021-09-25T11:24:32Z</time>
      </trkpt>
      <trkpt lat="43.14316" lon="3.09561">
        <ele>152.654</ele>
        <time>2021-09-25T11:24:34Z</time>
      </trkpt>
      <trkpt lat="43.14314" lon="3.09561">
        <ele>152.504</ele>
        <time>2021-09-25T11:24:36Z</time>
      </trkpt>
      <trkpt lat="43.14312" lon="3.0956">
        <ele>152.179</ele>
        <time>2021-09-25T11:24:38Z</time>
      </trkpt>
      <trkpt lat="43.14309" lon="3.09559">
        <ele>151.98</ele>
        <time>2021-09-25T11:24:40Z</time>
      </trkpt>
      <trkpt lat="43.14307" lon="3.09559">
        <ele>152.355</ele>
        <time>2021-09-25T11:24:42Z</time>
      </trkpt>
      <trkpt lat="43.14304" lon="3.09558">
        <ele>153.104</ele>
        <time>2021-09-25T11:24:44Z</time>
      </trkpt>
      <trkpt lat="43.14302" lon="3.09557">
        <ele>152.693</ele>
        <time>2021-09-25T11:24:46Z</time>
      </trkpt>
      <trkpt lat="43.14299" lon="3.09557">
        <ele>152.729</ele>
        <time>2021-09-25T11:24:48Z</time>
      </trkpt>
      <trkpt lat="43.14297" lon="3.09556">
        <ele>152.485</ele>
        <time>2021-09-25T11:24:50Z</time>
      </trkpt>
      <trkpt lat="43.14294" lon="3.09555">
        <ele>152.109</ele>
        <time>2021-09-25T11:24:52Z</time>
      </trkpt>
      <trkpt lat="43.14292" lon="3.09553">
        <ele>152.131</ele>
        <time>2021-09-25T11:24:54Z</time>
      </trkpt>
      <trkpt lat="43.14289" lon="3.09552">
        <ele>151.767</ele>
        <time>2021-09-25T11:24:56Z</time>
      </trkpt>
      <trkpt lat="43.14287" lon="3.0955">
        <ele>151.7</ele>
        <time>2021-09-25T11:24:58Z</time>
      </trkpt>
      <trkpt lat="43.14285" lon="3.09549">
        <ele>151.581</ele>
        <time>2021-09-25T11:25:00Z</time>
      </trkpt>
      <trkpt lat="43.14282" lon="3.09547">
        <ele>151.376</ele>
        <time>2021-09-25T11:25:02Z</time>
      </trkpt>
      <trkpt lat="43.1428" lon="3.09546">
        <ele>151.045</ele>
        <time>2021-09-25T11:25:04Z</time>
      </trkpt>
      <trkpt lat="43.14278" lon="3.09544">
        <ele>150.977</ele>
        <time>2021-09-25T11:25:06Z</time>
      </trkpt>
      <trkpt lat="43.14276" lon="3.09543">
        <ele>151.007</ele>
        <time>2021-09-25T11:25:08Z</time>
      </trkpt>
      <trkpt lat="43.14274" lon="3.09542">
        <ele>150.767</ele>
        <time>2021-09-25T11:25:10Z</time>
      </trkpt>
      <trkpt lat="43.14272" lon="3.0954">
        <ele>150.214</ele>
        <time>2021-09-25T11:25:12Z</time>
      </trkpt>
      <trkpt lat="43.14269" lon="3.09539">
        <ele>149.902</ele>
        <time>2021-09-25T11:25:14Z</time>
      </trkpt>
      <trkpt lat="43.14267" lon="3.09537">
        <ele>150.013</ele>
        <time>2021-09-25T11:25:16Z</time>
      </trkpt>
      <trkpt lat="43.14264" lon="3.09536">
        <ele>149.948</ele>
        <time>2021-09-25T11:25:18Z</time>
      </trkpt>
      <trkpt lat="43.14262" lon="3.09535">
        <ele>149.447</ele>
        <time>2021-09-25T11:25:20Z</time>
      </trkpt>
      <trkpt lat="43.14259" lon="3.09534">
        <ele>149.576</ele>
        <time>2021-09-25T11:25:22Z</time>
      </trkpt>
      <trkpt lat="43.14257" lon="3.09534">
        <ele>149.466</ele>
        <time>2021-09-25T11:25:24Z</time>
      </trkpt>
      <trkpt lat="43.14255" lon="3.09533">
        <ele>148.725</ele>
        <time>2021-09-25T11:25:26Z</time>
      </trkpt>
      <trkpt lat="43.14252" lon="3.09532">
        <ele>148.739</ele>
        <time>2021-09-25T11:25:28Z</time>
      </trkpt>
      <trkpt lat="43.1425" lon="3.09532">
        <ele>148.35</ele>
        <time>2021-09-25T11:25:30Z</time>
      </trkpt>
      <trkpt lat="43.14247" lon="3.09532">
        <ele>148.327</ele>
        <time>2021-09-25T11:25:32Z</time>
      </trkpt>
      <trkpt lat="43.14245" lon="3.09532">
        <ele>148.19</ele>
        <time>2021-09-25T11:25:34Z</time>
      </trkpt>
      <trkpt lat="43.14242" lon="3.09532">
        <ele>147.403</ele>
        <time>2021-09-25T11:25:36Z</time>
      </trkpt>
      <trkpt lat="43.1424" lon="3.09532">
        <ele>147.439</ele>
        <time>2021-09-25T11:25:38Z</time>
      </trkpt>
      <trkpt lat="43.14237" lon="3.09532">
        <ele>147.546</ele>
        <time>2021-09-25T11:25:40Z</time>
      </trkpt>
      <trkpt lat="43.14235" lon="3.09531">
        <ele>147.354</ele>
        <time>2021-09-25T11:25:42Z</time>
      </trkpt>
      <trkpt lat="43.14232" lon="3.09531">
        <ele>146.883</ele>
        <time>2021-09-25T11:25:44Z</time>
      </trkpt>
      <trkpt lat="43.1423" lon="3.09531">
        <ele>146.638</ele>
        <time>2021-09-25T11:25:46Z</time>
      </trkpt>
      <trkpt lat="43.14227" lon="3.09531">
        <ele>146.534</ele>
        <time>2021-09-25T11:25:48Z</time>
      </trkpt>
      <trkpt lat="43.14225" lon="3.09531">
        <ele>146.477</ele>
        <time>2021-09-25T11:25:50Z</time>
      </trkpt>
      <trkpt lat="43.14222" lon="3.09531">
        <ele>145.899</ele>
        <time>2021-09-25T11:25:52Z</time>
      </trkpt>
      <trkpt lat="43.1422" lon="3.09531">
        <ele>145.518</ele>
        <time>2021-09-25T11:25:54Z</time>
      </trkpt>
      <trkpt lat="43.14217" lon="3.09531">
        <ele>145.296</ele>
        <time>2021-09-25T11:25:56Z</time>
      </trkpt>
      <trkpt lat="43.14214" lon="3.09531">
        <ele>145.561</ele>
        <time>2021-09-25T11:25:58Z</time>
      </trkpt>
      <trkpt lat="43.14212" lon="3.0953">
        <ele>145.295</ele>
        <time>2021-09-25T11:26:00Z</time>
      </trkpt>
      <trkpt lat="43.14209" lon="3.0953">
        <ele>145.508</ele>
        <time>2021-09-25T11:26:02Z</time>
      </trkpt>
      <trkpt lat="43.14206" lon="3.0953">
        <ele>145.676</ele>
        <time>2021-09-25T11:26:04Z</time>
      </trkpt>
      <trkpt lat="43.14204" lon="3.09529">
        <ele>145.81</ele>
        <time>2021-09-25T11:26:06Z</time>
      </trkpt>
      <trkpt lat="43.14201" lon="3.09528">
        <ele>145.564</ele>
        <time>2021-09-25T11:26:08Z</time>
      </trkpt>
      <trkpt lat="43.14199" lon="3.09528">
        <ele>145.056</ele>
        <time>2021-09-25T11:26:10Z</time>
      </trkpt>
      <trkpt lat="43.14196" lon="3.09527">
        <ele>144.746</ele>
        <time>2021-09-25T11:26:12Z</time>
      </trkpt>
      <trkpt lat="43.14194" lon="3.09527">
        <ele>144.273</ele>
        <time>2021-09-25T11:26:14Z</time>
      </trkpt>
      <trkpt lat="43.14191" lon="3.09526">
        <ele>143.805</ele>
        <time>2021-09-25T11:26:16Z</time>
      </trkpt>
      <trkpt lat="43.14189" lon="3.09525">
        <ele>143.841</ele>
        <time>2021-09-25T11:26:18Z</time>
      </trkpt>
      <trkpt lat="43.14186" lon="3.09525">
        <ele>144.15</ele>
        <time>2021-09-25T11:26:20Z</time>
      </trkpt>
      <trkpt lat="43.14183" lon="3.09525">
        <ele>144.228</ele>
        <time>2021-09-25T11:26:22Z</time>
      </trkpt>
      <trkpt lat="43.14181" lon="3.09524">
        <ele>144.607</ele>
        <time>2021-09-25T11:26:24Z</time>
      </trkpt>
      <trkpt lat="43.14178" lon="3.09523">
        <ele>144.648</ele>
        <time>2021-09-25T11:26:26Z</time>
      </trkpt>
      <trkpt lat="43.14176" lon="3.09523">
        <ele>144.409</ele>
        <time>2021-09-25T11:26:28Z</time>
      </trkpt>
      <trkpt lat="43.14173" lon="3.09522">
        <ele>144.556</ele>
        <time>2021-09-25T11:26:30Z</time>
      </trkpt>
      <trkpt lat="43.1417" lon="3.09522">
        <ele>144.929</ele>
        <time>2021-09-25T11:26:32Z</time>
      </trkpt>
      <trkpt lat="43.14167" lon="3.09521">
        <ele>144.565</ele>
        <time>2021-09-25T11:26:34Z</time>
      </trkpt>
      <trkpt lat="43.14165" lon="3.0952">
        <ele>144.205</ele>
        <time>2021-09-25T11:26:36Z</time>
      </trkpt>
      <trkpt lat="43.14162" lon="3.09519">
        <ele>144.314</ele>
        <time>2021-09-25T11:26:38Z</time>
      </trkpt>
      <trkpt lat="43.1416" lon="3.09519">
        <ele>144.544</ele>
        <time>2021-09-25T11:26:40Z</time>
      </trkpt>
      <trkpt lat="43.14157" lon="3.09518">
        <ele>144.43</ele>
        <time>2021-09-25T11:26:42Z</time>
      </trkpt>
      <trkpt lat="43.14154" lon="3.09517">
        <ele>144.796</ele>
        <time>2021-09-25T11:26:44Z</time>
      </trkpt>
      <trkpt lat="43.14152" lon="3.09516">
        <ele>144.79</ele>
        <time>2021-09-25T11:26:46Z</time>
      </trkpt>
      <trkpt lat="43.14149" lon="3.09515">
        <ele>145.456</ele>
        <time>2021-09-25T11:26:48Z</time>
      </trkpt>
      <trkpt lat="43.14147" lon="3.09514">
        <ele>145.68</ele>
        <time>2021-09-25T11:26:50Z</time>
      </trkpt>
      <trkpt lat="43.14145" lon="3.09512">
        <ele>145.349</ele>
        <time>2021-09-25T11:26:52Z</time>
      </trkpt>
      <trkpt lat="43.14142" lon="3.09511">
        <ele>145.32</ele>
        <time>2021-09-25T11:26:54Z</time>
      </trkpt>
      <trkpt lat="43.1414" lon="3.0951">
        <ele>145.011</ele>
        <time>2021-09-25T11:26:56Z</time>
      </trkpt>
      <trkpt lat="43.14138" lon="3.09509">
        <ele>145.095</ele>
        <time>2021-09-25T11:26:58Z</time>
      </trkpt>
      <trkpt lat="43.14135" lon="3.09508">
        <ele>145.136</ele>
        <time>2021-09-25T11:27:00Z</time>
      </trkpt>
      <trkpt lat="43.14133" lon="3.09506">
        <ele>145.093</ele>
        <time>2021-09-25T11:27:02Z</time>
      </trkpt>
      <trkpt lat="43.1413" lon="3.09505">
        <ele>145.14</ele>
        <time>2021-09-25T11:27:04Z</time>
      </trkpt>
      <trkpt lat="43.14128" lon="3.09503">
        <ele>144.792</ele>
        <time>2021-09-25T11:27:06Z</time>
      </trkpt>
      <trkpt lat="43.14125" lon="3.09502">
        <ele>144.805</ele>
        <time>2021-09-25T11:27:08Z</time>
      </trkpt>
      <trkpt lat="43.14123" lon="3.095">
        <ele>144.922</ele>
        <time>2021-09-25T11:27:10Z</time>
      </trkpt>
      <trkpt lat="43.14121" lon="3.09499">
        <ele>144.869</ele>
        <time>2021-09-25T11:27:12Z</time>
      </trkpt>
      <trkpt lat="43.14119" lon="3.09497">
        <ele>145.443</ele>
        <time>2021-09-25T11:27:14Z</time>
      </trkpt>
      <trkpt lat="43.14118" lon="3.09496">
        <ele>145.016</ele>
        <time>2021-09-25T11:27:16Z</time>
      </trkpt>
      <trkpt lat="43.14118" lon="3.09496">
        <ele>145.012</ele>
        <time>2021-09-25T11:27:18Z</time>
      </trkpt>
      <trkpt lat="43.14118" lon="3.09496">
        <ele>145.014</ele>
        <time>2021-09-25T11:27:20Z</time>
      </trkpt>
      <trkpt lat="43.14118" lon="3.09496">
        <ele>145.007</ele>
        <time>2021-09-25T11:27:22Z</time>
      </trkpt>
      <trkpt lat="43.14118" lon="3.09496">
        <ele>145.064</ele>
        <time>2021-09-25T11:27:24Z</time>
      </trkpt>
      <trkpt lat="43.14117" lon="3.09495">
        <ele>144.998</ele>
        <time>2021-09-25T11:27:26Z</time>
      </trkpt>
      <trkpt lat="43.14116" lon="3.09494">
        <ele>144.893</ele>
        <time>2021-09-25T11:27:28Z</time>
      </trkpt>
      <trkpt lat="43.14116" lon="3.09493">
        <ele>144.801</ele>
        <time>2021-09-25T11:27:30Z</time>
      </trkpt>
      <trkpt lat="43.14113" lon="3.09492">
        <ele>145.968</ele>
        <time>2021-09-25T11:27:32Z</time>
      </trkpt>
      <trkpt lat="43.14111" lon="3.09491">
        <ele>145.956</ele>
        <time>2021-09-25T11:27:34Z</time>
      </trkpt>
      <trkpt lat="43.14109" lon="3.0949">
        <ele>146.322</ele>
        <time>2021-09-25T11:27:36Z</time>
      </trkpt>
      <trkpt lat="43.14107" lon="3.09489">
        <ele>146.558</ele>
        <time>2021-09-25T11:27:38Z</time>
      </trkpt>
      <trkpt lat="43.14105" lon="3.09488">
        <ele>146.87</ele>
        <time>2021-09-25T11:27:40Z</time>
      </trkpt>
      <trkpt lat="43.14103" lon="3.09487">
        <ele>146.922</ele>
        <time>2021-09-25T11:27:42Z</time>
      </trkpt>
      <trkpt lat="43.14101" lon="3.09485">
        <ele>146.791</ele>
        <time>2021-09-25T11:27:44Z</time>
      </trkpt>
      <trkpt lat="43.14098" lon="3.09483">
        <ele>147.499</ele>
        <time>2021-09-25T11:27:46Z</time>
      </trkpt>
      <trkpt lat="43.14095" lon="3.09482">
        <ele>147.797</ele>
        <time>2021-09-25T11:27:48Z</time>
      </trkpt>
      <trkpt lat="43.14093" lon="3.09481">
        <ele>148.094</ele>
        <time>2021-09-25T11:27:50Z</time>
      </trkpt>
      <trkpt lat="43.14091" lon="3.09481">
        <ele>147.81</ele>
        <time>2021-09-25T11:27:52Z</time>
      </trkpt>
      <trkpt lat="43.1409" lon="3.0948">
        <ele>148.256</ele>
        <time>2021-09-25T11:27:54Z</time>
      </trkpt>
      <trkpt lat="43.14089" lon="3.09479">
        <ele>147.435</ele>
        <time>2021-09-25T11:27:56Z</time>
      </trkpt>
      <trkpt lat="43.14087" lon="3.09479">
        <ele>147.599</ele>
        <time>2021-09-25T11:27:58Z</time>
      </trkpt>
      <trkpt lat="43.14086" lon="3.09478">
        <ele>147.159</ele>
        <time>2021-09-25T11:28:00Z</time>
      </trkpt>
      <trkpt lat="43.14085" lon="3.09477">
        <ele>147.428</ele>
        <time>2021-09-25T11:28:02Z</time>
      </trkpt>
      <trkpt lat="43.14083" lon="3.09477">
        <ele>147.379</ele>
        <time>2021-09-25T11:28:04Z</time>
      </trkpt>
      <trkpt lat="43.14082" lon="3.09476">
        <ele>147.328</ele>
        <time>2021-09-25T11:28:06Z</time>
      </trkpt>
      <trkpt lat="43.14081" lon="3.09476">
        <ele>147.086</ele>
        <time>2021-09-25T11:28:08Z</time>
      </trkpt>
      <trkpt lat="43.14079" lon="3.09475">
        <ele>147.574</ele>
        <time>2021-09-25T11:28:10Z</time>
      </trkpt>
      <trkpt lat="43.14078" lon="3.09475">
        <ele>147.363</ele>
        <time>2021-09-25T11:28:12Z</time>
      </trkpt>
      <trkpt lat="43.14076" lon="3.09474">
        <ele>147.365</ele>
        <time>2021-09-25T11:28:14Z</time>
      </trkpt>
      <trkpt lat="43.14074" lon="3.09474">
        <ele>147.386</ele>
        <time>2021-09-25T11:28:16Z</time>
      </trkpt>
      <trkpt lat="43.14073" lon="3.09473">
        <ele>147.362</ele>
        <time>2021-09-25T11:28:18Z</time>
      </trkpt>
      <trkpt lat="43.1407" lon="3.09473">
        <ele>146.829</ele>
        <time>2021-09-25T11:28:21Z</time>
      </trkpt>
      <trkpt lat="43.14068" lon="3.09472">
        <ele>146.92</ele>
        <time>2021-09-25T11:28:23Z</time>
      </trkpt>
      <trkpt lat="43.14066" lon="3.09472">
        <ele>147.166</ele>
        <time>2021-09-25T11:28:25Z</time>
      </trkpt>
      <trkpt lat="43.14065" lon="3.09472">
        <ele>147.186</ele>
        <time>2021-09-25T11:28:27Z</time>
      </trkpt>
      <trkpt lat="43.14063" lon="3.09471">
        <ele>146.429</ele>
        <time>2021-09-25T11:28:29Z</time>
      </trkpt>
      <trkpt lat="43.14062" lon="3.09471">
        <ele>146.764</ele>
        <time>2021-09-25T11:28:31Z</time>
      </trkpt>
      <trkpt lat="43.1406" lon="3.0947">
        <ele>146.231</ele>
        <time>2021-09-25T11:28:33Z</time>
      </trkpt>
      <trkpt lat="43.14058" lon="3.09469">
        <ele>145.794</ele>
        <time>2021-09-25T11:28:35Z</time>
      </trkpt>
      <trkpt lat="43.14057" lon="3.09469">
        <ele>145.424</ele>
        <time>2021-09-25T11:28:37Z</time>
      </trkpt>
      <trkpt lat="43.14055" lon="3.09468">
        <ele>145.717</ele>
        <time>2021-09-25T11:28:39Z</time>
      </trkpt>
      <trkpt lat="43.14053" lon="3.09468">
        <ele>145.614</ele>
        <time>2021-09-25T11:28:41Z</time>
      </trkpt>
      <trkpt lat="43.14051" lon="3.09468">
        <ele>145.119</ele>
        <time>2021-09-25T11:28:43Z</time>
      </trkpt>
      <trkpt lat="43.1405" lon="3.09467">
        <ele>144.868</ele>
        <time>2021-09-25T11:28:45Z</time>
      </trkpt>
      <trkpt lat="43.14048" lon="3.09466">
        <ele>144.875</ele>
        <time>2021-09-25T11:28:47Z</time>
      </trkpt>
      <trkpt lat="43.14046" lon="3.09466">
        <ele>144.278</ele>
        <time>2021-09-25T11:28:49Z</time>
      </trkpt>
      <trkpt lat="43.14044" lon="3.09465">
        <ele>144.327</ele>
        <time>2021-09-25T11:28:51Z</time>
      </trkpt>
      <trkpt lat="43.14042" lon="3.09465">
        <ele>144.203</ele>
        <time>2021-09-25T11:28:53Z</time>
      </trkpt>
      <trkpt lat="43.14041" lon="3.09464">
        <ele>143.649</ele>
        <time>2021-09-25T11:28:55Z</time>
      </trkpt>
      <trkpt lat="43.14039" lon="3.09464">
        <ele>143.52</ele>
        <time>2021-09-25T11:28:57Z</time>
      </trkpt>
      <trkpt lat="43.14037" lon="3.09463">
        <ele>143.274</ele>
        <time>2021-09-25T11:28:59Z</time>
      </trkpt>
      <trkpt lat="43.14035" lon="3.09463">
        <ele>143.343</ele>
        <time>2021-09-25T11:29:01Z</time>
      </trkpt>
      <trkpt lat="43.14033" lon="3.09463">
        <ele>143.552</ele>
        <time>2021-09-25T11:29:03Z</time>
      </trkpt>
      <trkpt lat="43.14031" lon="3.09464">
        <ele>143.452</ele>
        <time>2021-09-25T11:29:05Z</time>
      </trkpt>
      <trkpt lat="43.14029" lon="3.09465">
        <ele>143.645</ele>
        <time>2021-09-25T11:29:07Z</time>
      </trkpt>
      <trkpt lat="43.14027" lon="3.09465">
        <ele>143.4</ele>
        <time>2021-09-25T11:29:09Z</time>
      </trkpt>
      <trkpt lat="43.14025" lon="3.09466">
        <ele>142.995</ele>
        <time>2021-09-25T11:29:11Z</time>
      </trkpt>
      <trkpt lat="43.14024" lon="3.09467">
        <ele>143.297</ele>
        <time>2021-09-25T11:29:13Z</time>
      </trkpt>
      <trkpt lat="43.14022" lon="3.0947">
        <ele>143.049</ele>
        <time>2021-09-25T11:29:15Z</time>
      </trkpt>
      <trkpt lat="43.14022" lon="3.09472">
        <ele>143.614</ele>
        <time>2021-09-25T11:29:17Z</time>
      </trkpt>
      <trkpt lat="43.14022" lon="3.09472">
        <ele>143.615</ele>
        <time>2021-09-25T11:29:19Z</time>
      </trkpt>
      <trkpt lat="43.14022" lon="3.09472">
        <ele>143.618</ele>
        <time>2021-09-25T11:29:21Z</time>
      </trkpt>
      <trkpt lat="43.14022" lon="3.09472">
        <ele>143.617</ele>
        <time>2021-09-25T11:29:23Z</time>
      </trkpt>
      <trkpt lat="43.14022" lon="3.09472">
        <ele>143.615</ele>
        <time>2021-09-25T11:29:25Z</time>
      </trkpt>
      <trkpt lat="43.14022" lon="3.09472">
        <ele>143.616</ele>
        <time>2021-09-25T11:29:27Z</time>
      </trkpt>
      <trkpt lat="43.14022" lon="3.09472">
        <ele>143.616</ele>
        <time>2021-09-25T11:29:29Z</time>
      </trkpt>
      <trkpt lat="43.14022" lon="3.09472">
        <ele>143.623</ele>
        <time>2021-09-25T11:29:31Z</time>
      </trkpt>
      <trkpt lat="43.14022" lon="3.09472">
        <ele>143.63</ele>
        <time>2021-09-25T11:29:33Z</time>
      </trkpt>
      <trkpt lat="43.14022" lon="3.09472">
        <ele>143.645</ele>
        <time>2021-09-25T11:29:35Z</time>
      </trkpt>
      <trkpt lat="43.14022" lon="3.09472">
        <ele>143.927</ele>
        <time>2021-09-25T11:29:37Z</time>
      </trkpt>
      <trkpt lat="43.14021" lon="3.09472">
        <ele>143.897</ele>
        <time>2021-09-25T11:29:39Z</time>
      </trkpt>
      <trkpt lat="43.14021" lon="3.09473">
        <ele>143.673</ele>
        <time>2021-09-25T11:29:41Z</time>
      </trkpt>
      <trkpt lat="43.1402" lon="3.09474">
        <ele>143.977</ele>
        <time>2021-09-25T11:29:43Z</time>
      </trkpt>
      <trkpt lat="43.14019" lon="3.09474">
        <ele>143.882</ele>
        <time>2021-09-25T11:29:45Z</time>
      </trkpt>
      <trkpt lat="43.14018" lon="3.09475">
        <ele>143.872</ele>
        <time>2021-09-25T11:29:47Z</time>
      </trkpt>
      <trkpt lat="43.14018" lon="3.09475">
        <ele>144.13</ele>
        <time>2021-09-25T11:29:49Z</time>
      </trkpt>
      <trkpt lat="43.14018" lon="3.09475">
        <ele>144.136</ele>
        <time>2021-09-25T11:29:51Z</time>
      </trkpt>
      <trkpt lat="43.14017" lon="3.09474">
        <ele>143.995</ele>
        <time>2021-09-25T11:29:53Z</time>
      </trkpt>
      <trkpt lat="43.14018" lon="3.09473">
        <ele>144.029</ele>
        <time>2021-09-25T11:29:55Z</time>
      </trkpt>
      <trkpt lat="43.14018" lon="3.09473">
        <ele>144.023</ele>
        <time>2021-09-25T11:29:57Z</time>
      </trkpt>
      <trkpt lat="43.14018" lon="3.09473">
        <ele>144.02</ele>
        <time>2021-09-25T11:29:59Z</time>
      </trkpt>
      <trkpt lat="43.14018" lon="3.09473">
        <ele>144.017</ele>
        <time>2021-09-25T11:30:01Z</time>
      </trkpt>
      <trkpt lat="43.14018" lon="3.09473">
        <ele>144.016</ele>
        <time>2021-09-25T11:30:03Z</time>
      </trkpt>
      <trkpt lat="43.14018" lon="3.09473">
        <ele>144.014</ele>
        <time>2021-09-25T11:30:05Z</time>
      </trkpt>
      <trkpt lat="43.14018" lon="3.09473">
        <ele>144.012</ele>
        <time>2021-09-25T11:30:07Z</time>
      </trkpt>
      <trkpt lat="43.14018" lon="3.09472">
        <ele>143.861</ele>
        <time>2021-09-25T11:30:09Z</time>
      </trkpt>
      <trkpt lat="43.14018" lon="3.09472">
        <ele>143.866</ele>
        <time>2021-09-25T11:30:11Z</time>
      </trkpt>
      <trkpt lat="43.14018" lon="3.09472">
        <ele>143.865</ele>
        <time>2021-09-25T11:30:13Z</time>
      </trkpt>
      <trkpt lat="43.14019" lon="3.09472">
        <ele>143.573</ele>
        <time>2021-09-25T11:30:15Z</time>
      </trkpt>
      <trkpt lat="43.14021" lon="3.09478">
        <ele>144.027</ele>
        <time>2021-09-25T11:30:17Z</time>
      </trkpt>
      <trkpt lat="43.1402" lon="3.09478">
        <ele>144.297</ele>
        <time>2021-09-25T11:30:19Z</time>
      </trkpt>
      <trkpt lat="43.1402" lon="3.09477">
        <ele>144.291</ele>
        <time>2021-09-25T11:30:21Z</time>
      </trkpt>
      <trkpt lat="43.1402" lon="3.09477">
        <ele>144.288</ele>
        <time>2021-09-25T11:30:23Z</time>
      </trkpt>
      <trkpt lat="43.1402" lon="3.09477">
        <ele>144.283</ele>
        <time>2021-09-25T11:30:25Z</time>
      </trkpt>
      <trkpt lat="43.1402" lon="3.09477">
        <ele>144.282</ele>
        <time>2021-09-25T11:30:27Z</time>
      </trkpt>
      <trkpt lat="43.1402" lon="3.09477">
        <ele>144.286</ele>
        <time>2021-09-25T11:30:29Z</time>
      </trkpt>
      <trkpt lat="43.1402" lon="3.09477">
        <ele>144.292</ele>
        <time>2021-09-25T11:30:31Z</time>
      </trkpt>
      <trkpt lat="43.1402" lon="3.09477">
        <ele>144.295</ele>
        <time>2021-09-25T11:30:33Z</time>
      </trkpt>
      <trkpt lat="43.1402" lon="3.09477">
        <ele>144.303</ele>
        <time>2021-09-25T11:30:35Z</time>
      </trkpt>
      <trkpt lat="43.1402" lon="3.09477">
        <ele>144.307</ele>
        <time>2021-09-25T11:30:37Z</time>
      </trkpt>
      <trkpt lat="43.1402" lon="3.09477">
        <ele>144.107</ele>
        <time>2021-09-25T11:30:39Z</time>
      </trkpt>
      <trkpt lat="43.14021" lon="3.09475">
        <ele>143.886</ele>
        <time>2021-09-25T11:30:41Z</time>
      </trkpt>
      <trkpt lat="43.14022" lon="3.09473">
        <ele>144.047</ele>
        <time>2021-09-25T11:30:43Z</time>
      </trkpt>
      <trkpt lat="43.14024" lon="3.09471">
        <ele>144.937</ele>
        <time>2021-09-25T11:30:45Z</time>
      </trkpt>
      <trkpt lat="43.14025" lon="3.09469">
        <ele>145.65</ele>
        <time>2021-09-25T11:30:47Z</time>
      </trkpt>
      <trkpt lat="43.14026" lon="3.09468">
        <ele>145.553</ele>
        <time>2021-09-25T11:30:49Z</time>
      </trkpt>
      <trkpt lat="43.14027" lon="3.09467">
        <ele>146.421</ele>
        <time>2021-09-25T11:30:51Z</time>
      </trkpt>
      <trkpt lat="43.14029" lon="3.09464">
        <ele>146.65</ele>
        <time>2021-09-25T11:30:53Z</time>
      </trkpt>
      <trkpt lat="43.14031" lon="3.09463">
        <ele>146.622</ele>
        <time>2021-09-25T11:30:55Z</time>
      </trkpt>
      <trkpt lat="43.14033" lon="3.09462">
        <ele>146.323</ele>
        <time>2021-09-25T11:30:57Z</time>
      </trkpt>
      <trkpt lat="43.14034" lon="3.09462">
        <ele>146.882</ele>
        <time>2021-09-25T11:30:59Z</time>
      </trkpt>
      <trkpt lat="43.14036" lon="3.09461">
        <ele>147.06</ele>
        <time>2021-09-25T11:31:01Z</time>
      </trkpt>
      <trkpt lat="43.14036" lon="3.0946">
        <ele>147.039</ele>
        <time>2021-09-25T11:31:03Z</time>
      </trkpt>
      <trkpt lat="43.14036" lon="3.09461">
        <ele>147.04</ele>
        <time>2021-09-25T11:31:05Z</time>
      </trkpt>
      <trkpt lat="43.14036" lon="3.09461">
        <ele>147.034</ele>
        <time>2021-09-25T11:31:07Z</time>
      </trkpt>
      <trkpt lat="43.14036" lon="3.09461">
        <ele>147.029</ele>
        <time>2021-09-25T11:31:09Z</time>
      </trkpt>
      <trkpt lat="43.14036" lon="3.0946">
        <ele>147.087</ele>
        <time>2021-09-25T11:31:11Z</time>
      </trkpt>
      <trkpt lat="43.14036" lon="3.0946">
        <ele>147.099</ele>
        <time>2021-09-25T11:31:13Z</time>
      </trkpt>
      <trkpt lat="43.14036" lon="3.0946">
        <ele>147.101</ele>
        <time>2021-09-25T11:31:15Z</time>
      </trkpt>
      <trkpt lat="43.14036" lon="3.0946">
        <ele>147.016</ele>
        <time>2021-09-25T11:31:17Z</time>
      </trkpt>
      <trkpt lat="43.14037" lon="3.09461">
        <ele>146.625</ele>
        <time>2021-09-25T11:31:19Z</time>
      </trkpt>
      <trkpt lat="43.14038" lon="3.09462">
        <ele>146.105</ele>
        <time>2021-09-25T11:31:21Z</time>
      </trkpt>
      <trkpt lat="43.1404" lon="3.09463">
        <ele>146.253</ele>
        <time>2021-09-25T11:31:23Z</time>
      </trkpt>
      <trkpt lat="43.14041" lon="3.09464">
        <ele>146.004</ele>
        <time>2021-09-25T11:31:25Z</time>
      </trkpt>
      <trkpt lat="43.14043" lon="3.09464">
        <ele>145.737</ele>
        <time>2021-09-25T11:31:27Z</time>
      </trkpt>
      <trkpt lat="43.14045" lon="3.09465">
        <ele>145.572</ele>
        <time>2021-09-25T11:31:29Z</time>
      </trkpt>
      <trkpt lat="43.14046" lon="3.09466">
        <ele>145.218</ele>
        <time>2021-09-25T11:31:31Z</time>
      </trkpt>
      <trkpt lat="43.14048" lon="3.09466">
        <ele>145.031</ele>
        <time>2021-09-25T11:31:33Z</time>
      </trkpt>
      <trkpt lat="43.1405" lon="3.09467">
        <ele>145.233</ele>
        <time>2021-09-25T11:31:35Z</time>
      </trkpt>
      <trkpt lat="43.14051" lon="3.09468">
        <ele>145.403</ele>
        <time>2021-09-25T11:31:37Z</time>
      </trkpt>
      <trkpt lat="43.14053" lon="3.09469">
        <ele>145.61</ele>
        <time>2021-09-25T11:31:39Z</time>
      </trkpt>
      <trkpt lat="43.14055" lon="3.0947">
        <ele>145.525</ele>
        <time>2021-09-25T11:31:41Z</time>
      </trkpt>
      <trkpt lat="43.14056" lon="3.0947">
        <ele>145.394</ele>
        <time>2021-09-25T11:31:43Z</time>
      </trkpt>
      <trkpt lat="43.14058" lon="3.09471">
        <ele>145.288</ele>
        <time>2021-09-25T11:31:45Z</time>
      </trkpt>
      <trkpt lat="43.1406" lon="3.09471">
        <ele>145.006</ele>
        <time>2021-09-25T11:31:47Z</time>
      </trkpt>
      <trkpt lat="43.14062" lon="3.09472">
        <ele>144.929</ele>
        <time>2021-09-25T11:31:49Z</time>
      </trkpt>
      <trkpt lat="43.14063" lon="3.09473">
        <ele>144.88</ele>
        <time>2021-09-25T11:31:51Z</time>
      </trkpt>
      <trkpt lat="43.14065" lon="3.09473">
        <ele>144.943</ele>
        <time>2021-09-25T11:31:53Z</time>
      </trkpt>
      <trkpt lat="43.14066" lon="3.09474">
        <ele>144.912</ele>
        <time>2021-09-25T11:31:55Z</time>
      </trkpt>
      <trkpt lat="43.14068" lon="3.09475">
        <ele>145.241</ele>
        <time>2021-09-25T11:31:57Z</time>
      </trkpt>
      <trkpt lat="43.1407" lon="3.09476">
        <ele>145.792</ele>
        <time>2021-09-25T11:31:59Z</time>
      </trkpt>
      <trkpt lat="43.14072" lon="3.09476">
        <ele>145.766</ele>
        <time>2021-09-25T11:32:01Z</time>
      </trkpt>
      <trkpt lat="43.14074" lon="3.09477">
        <ele>145.798</ele>
        <time>2021-09-25T11:32:03Z</time>
      </trkpt>
      <trkpt lat="43.14075" lon="3.09478">
        <ele>146.162</ele>
        <time>2021-09-25T11:32:05Z</time>
      </trkpt>
      <trkpt lat="43.14077" lon="3.09479">
        <ele>146.447</ele>
        <time>2021-09-25T11:32:07Z</time>
      </trkpt>
      <trkpt lat="43.14078" lon="3.09479">
        <ele>147.093</ele>
        <time>2021-09-25T11:32:09Z</time>
      </trkpt>
      <trkpt lat="43.14078" lon="3.0948">
        <ele>147.062</ele>
        <time>2021-09-25T11:32:11Z</time>
      </trkpt>
      <trkpt lat="43.1408" lon="3.0948">
        <ele>146.414</ele>
        <time>2021-09-25T11:32:13Z</time>
      </trkpt>
      <trkpt lat="43.14082" lon="3.0948">
        <ele>145.509</ele>
        <time>2021-09-25T11:32:15Z</time>
      </trkpt>
      <trkpt lat="43.14083" lon="3.0948">
        <ele>145.257</ele>
        <time>2021-09-25T11:32:17Z</time>
      </trkpt>
      <trkpt lat="43.14083" lon="3.0948">
        <ele>145.254</ele>
        <time>2021-09-25T11:32:19Z</time>
      </trkpt>
      <trkpt lat="43.14083" lon="3.0948">
        <ele>145.25</ele>
        <time>2021-09-25T11:32:21Z</time>
      </trkpt>
      <trkpt lat="43.14083" lon="3.0948">
        <ele>145.248</ele>
        <time>2021-09-25T11:32:23Z</time>
      </trkpt>
      <trkpt lat="43.14083" lon="3.0948">
        <ele>145.247</ele>
        <time>2021-09-25T11:32:25Z</time>
      </trkpt>
      <trkpt lat="43.14083" lon="3.0948">
        <ele>145.244</ele>
        <time>2021-09-25T11:32:27Z</time>
      </trkpt>
      <trkpt lat="43.14083" lon="3.0948">
        <ele>145.241</ele>
        <time>2021-09-25T11:32:29Z</time>
      </trkpt>
      <trkpt lat="43.14083" lon="3.0948">
        <ele>145.188</ele>
        <time>2021-09-25T11:32:31Z</time>
      </trkpt>
      <trkpt lat="43.14084" lon="3.09481">
        <ele>145.785</ele>
        <time>2021-09-25T11:32:33Z</time>
      </trkpt>
      <trkpt lat="43.14085" lon="3.09481">
        <ele>145.576</ele>
        <time>2021-09-25T11:32:35Z</time>
      </trkpt>
      <trkpt lat="43.14085" lon="3.09481">
        <ele>145.772</ele>
        <time>2021-09-25T11:32:37Z</time>
      </trkpt>
      <trkpt lat="43.14087" lon="3.09481">
        <ele>145.587</ele>
        <time>2021-09-25T11:32:39Z</time>
      </trkpt>
      <trkpt lat="43.14089" lon="3.09481">
        <ele>146.037</ele>
        <time>2021-09-25T11:32:41Z</time>
      </trkpt>
      <trkpt lat="43.1409" lon="3.0948">
        <ele>147.476</ele>
        <time>2021-09-25T11:32:43Z</time>
      </trkpt>
      <trkpt lat="43.1409" lon="3.0948">
        <ele>147.294</ele>
        <time>2021-09-25T11:32:45Z</time>
      </trkpt>
      <trkpt lat="43.1409" lon="3.0948">
        <ele>147.285</ele>
        <time>2021-09-25T11:32:47Z</time>
      </trkpt>
      <trkpt lat="43.14089" lon="3.0948">
        <ele>147.172</ele>
        <time>2021-09-25T11:32:49Z</time>
      </trkpt>
      <trkpt lat="43.14089" lon="3.0948">
        <ele>147.023</ele>
        <time>2021-09-25T11:32:51Z</time>
      </trkpt>
      <trkpt lat="43.14089" lon="3.0948">
        <ele>147.016</ele>
        <time>2021-09-25T11:32:53Z</time>
      </trkpt>
      <trkpt lat="43.14089" lon="3.09481">
        <ele>147.153</ele>
        <time>2021-09-25T11:32:55Z</time>
      </trkpt>
      <trkpt lat="43.14089" lon="3.09481">
        <ele>147.305</ele>
        <time>2021-09-25T11:32:57Z</time>
      </trkpt>
      <trkpt lat="43.14089" lon="3.09482">
        <ele>146.87</ele>
        <time>2021-09-25T11:32:59Z</time>
      </trkpt>
      <trkpt lat="43.14089" lon="3.09482">
        <ele>146.872</ele>
        <time>2021-09-25T11:33:01Z</time>
      </trkpt>
      <trkpt lat="43.14089" lon="3.09482">
        <ele>146.753</ele>
        <time>2021-09-25T11:33:03Z</time>
      </trkpt>
      <trkpt lat="43.14089" lon="3.09482">
        <ele>146.726</ele>
        <time>2021-09-25T11:33:05Z</time>
      </trkpt>
      <trkpt lat="43.14089" lon="3.09482">
        <ele>146.525</ele>
        <time>2021-09-25T11:33:07Z</time>
      </trkpt>
      <trkpt lat="43.14089" lon="3.09482">
        <ele>146.534</ele>
        <time>2021-09-25T11:33:09Z</time>
      </trkpt>
      <trkpt lat="43.14089" lon="3.09482">
        <ele>146.532</ele>
        <time>2021-09-25T11:33:11Z</time>
      </trkpt>
      <trkpt lat="43.14089" lon="3.09482">
        <ele>146.532</ele>
        <time>2021-09-25T11:33:13Z</time>
      </trkpt>
      <trkpt lat="43.14089" lon="3.09482">
        <ele>146.522</ele>
        <time>2021-09-25T11:33:15Z</time>
      </trkpt>
      <trkpt lat="43.14089" lon="3.09482">
        <ele>146.519</ele>
        <time>2021-09-25T11:33:17Z</time>
      </trkpt>
      <trkpt lat="43.14089" lon="3.09482">
        <ele>146.513</ele>
        <time>2021-09-25T11:33:19Z</time>
      </trkpt>
      <trkpt lat="43.14089" lon="3.09482">
        <ele>146.513</ele>
        <time>2021-09-25T11:33:21Z</time>
      </trkpt>
      <trkpt lat="43.14089" lon="3.09482">
        <ele>146.51</ele>
        <time>2021-09-25T11:33:23Z</time>
      </trkpt>
      <trkpt lat="43.14089" lon="3.09482">
        <ele>146.517</ele>
        <time>2021-09-25T11:33:25Z</time>
      </trkpt>
      <trkpt lat="43.14089" lon="3.09482">
        <ele>146.518</ele>
        <time>2021-09-25T11:33:27Z</time>
      </trkpt>
      <trkpt lat="43.14089" lon="3.09482">
        <ele>146.413</ele>
        <time>2021-09-25T11:33:29Z</time>
      </trkpt>
      <trkpt lat="43.14088" lon="3.09481">
        <ele>146.395</ele>
        <time>2021-09-25T11:33:31Z</time>
      </trkpt>
      <trkpt lat="43.14087" lon="3.0948">
        <ele>146.427</ele>
        <time>2021-09-25T11:33:33Z</time>
      </trkpt>
      <trkpt lat="43.14085" lon="3.09479">
        <ele>146.122</ele>
        <time>2021-09-25T11:33:35Z</time>
      </trkpt>
      <trkpt lat="43.14083" lon="3.09479">
        <ele>145.885</ele>
        <time>2021-09-25T11:33:37Z</time>
      </trkpt>
      <trkpt lat="43.14081" lon="3.09478">
        <ele>145.751</ele>
        <time>2021-09-25T11:33:39Z</time>
      </trkpt>
      <trkpt lat="43.14079" lon="3.09477">
        <ele>145.855</ele>
        <time>2021-09-25T11:33:41Z</time>
      </trkpt>
      <trkpt lat="43.14076" lon="3.09476">
        <ele>145.881</ele>
        <time>2021-09-25T11:33:43Z</time>
      </trkpt>
      <trkpt lat="43.14074" lon="3.09475">
        <ele>146.371</ele>
        <time>2021-09-25T11:33:45Z</time>
      </trkpt>
      <trkpt lat="43.14071" lon="3.09475">
        <ele>146.858</ele>
        <time>2021-09-25T11:33:47Z</time>
      </trkpt>
      <trkpt lat="43.14069" lon="3.09474">
        <ele>146.248</ele>
        <time>2021-09-25T11:33:49Z</time>
      </trkpt>
      <trkpt lat="43.14067" lon="3.09473">
        <ele>146.215</ele>
        <time>2021-09-25T11:33:51Z</time>
      </trkpt>
      <trkpt lat="43.14065" lon="3.09473">
        <ele>145.976</ele>
        <time>2021-09-25T11:33:53Z</time>
      </trkpt>
      <trkpt lat="43.14063" lon="3.09472">
        <ele>145.708</ele>
        <time>2021-09-25T11:33:55Z</time>
      </trkpt>
      <trkpt lat="43.1406" lon="3.09471">
        <ele>146.442</ele>
        <time>2021-09-25T11:33:57Z</time>
      </trkpt>
      <trkpt lat="43.14058" lon="3.09471">
        <ele>147.11</ele>
        <time>2021-09-25T11:33:59Z</time>
      </trkpt>
      <trkpt lat="43.14055" lon="3.0947">
        <ele>147.126</ele>
        <time>2021-09-25T11:34:01Z</time>
      </trkpt>
      <trkpt lat="43.14053" lon="3.09469">
        <ele>146.903</ele>
        <time>2021-09-25T11:34:03Z</time>
      </trkpt>
      <trkpt lat="43.1405" lon="3.09468">
        <ele>147.255</ele>
        <time>2021-09-25T11:34:05Z</time>
      </trkpt>
      <trkpt lat="43.14047" lon="3.09467">
        <ele>147.247</ele>
        <time>2021-09-25T11:34:07Z</time>
      </trkpt>
      <trkpt lat="43.14045" lon="3.09466">
        <ele>147.308</ele>
        <time>2021-09-25T11:34:09Z</time>
      </trkpt>
      <trkpt lat="43.14043" lon="3.09465">
        <ele>146.661</ele>
        <time>2021-09-25T11:34:11Z</time>
      </trkpt>
      <trkpt lat="43.1404" lon="3.09464">
        <ele>146.675</ele>
        <time>2021-09-25T11:34:13Z</time>
      </trkpt>
      <trkpt lat="43.14037" lon="3.09464">
        <ele>146.645</ele>
        <time>2021-09-25T11:34:15Z</time>
      </trkpt>
      <trkpt lat="43.14035" lon="3.09463">
        <ele>146.574</ele>
        <time>2021-09-25T11:34:17Z</time>
      </trkpt>
      <trkpt lat="43.14032" lon="3.09463">
        <ele>146.766</ele>
        <time>2021-09-25T11:34:19Z</time>
      </trkpt>
      <trkpt lat="43.1403" lon="3.09462">
        <ele>146.478</ele>
        <time>2021-09-25T11:34:21Z</time>
      </trkpt>
      <trkpt lat="43.14027" lon="3.09461">
        <ele>146.655</ele>
        <time>2021-09-25T11:34:23Z</time>
      </trkpt>
      <trkpt lat="43.14024" lon="3.0946">
        <ele>146.732</ele>
        <time>2021-09-25T11:34:25Z</time>
      </trkpt>
      <trkpt lat="43.14022" lon="3.0946">
        <ele>146.478</ele>
        <time>2021-09-25T11:34:27Z</time>
      </trkpt>
      <trkpt lat="43.14019" lon="3.09459">
        <ele>146.534</ele>
        <time>2021-09-25T11:34:29Z</time>
      </trkpt>
      <trkpt lat="43.14017" lon="3.09458">
        <ele>146.401</ele>
        <time>2021-09-25T11:34:31Z</time>
      </trkpt>
      <trkpt lat="43.14014" lon="3.09456">
        <ele>146.827</ele>
        <time>2021-09-25T11:34:33Z</time>
      </trkpt>
      <trkpt lat="43.14011" lon="3.09455">
        <ele>146.299</ele>
        <time>2021-09-25T11:34:35Z</time>
      </trkpt>
      <trkpt lat="43.14009" lon="3.09454">
        <ele>145.322</ele>
        <time>2021-09-25T11:34:37Z</time>
      </trkpt>
      <trkpt lat="43.14006" lon="3.09452">
        <ele>145.347</ele>
        <time>2021-09-25T11:34:39Z</time>
      </trkpt>
      <trkpt lat="43.14004" lon="3.09451">
        <ele>144.848</ele>
        <time>2021-09-25T11:34:41Z</time>
      </trkpt>
      <trkpt lat="43.14001" lon="3.09449">
        <ele>144.66</ele>
        <time>2021-09-25T11:34:43Z</time>
      </trkpt>
      <trkpt lat="43.13999" lon="3.09448">
        <ele>144.274</ele>
        <time>2021-09-25T11:34:45Z</time>
      </trkpt>
      <trkpt lat="43.13996" lon="3.09446">
        <ele>144.141</ele>
        <time>2021-09-25T11:34:47Z</time>
      </trkpt>
      <trkpt lat="43.13994" lon="3.09445">
        <ele>143.943</ele>
        <time>2021-09-25T11:34:49Z</time>
      </trkpt>
      <trkpt lat="43.13991" lon="3.09444">
        <ele>143.726</ele>
        <time>2021-09-25T11:34:51Z</time>
      </trkpt>
      <trkpt lat="43.13989" lon="3.09443">
        <ele>143.51</ele>
        <time>2021-09-25T11:34:53Z</time>
      </trkpt>
      <trkpt lat="43.13987" lon="3.09441">
        <ele>143.64</ele>
        <time>2021-09-25T11:34:55Z</time>
      </trkpt>
      <trkpt lat="43.13984" lon="3.0944">
        <ele>143.568</ele>
        <time>2021-09-25T11:34:57Z</time>
      </trkpt>
      <trkpt lat="43.13982" lon="3.09439">
        <ele>143.268</ele>
        <time>2021-09-25T11:34:59Z</time>
      </trkpt>
      <trkpt lat="43.1398" lon="3.09438">
        <ele>143.309</ele>
        <time>2021-09-25T11:35:01Z</time>
      </trkpt>
      <trkpt lat="43.13978" lon="3.09436">
        <ele>143.108</ele>
        <time>2021-09-25T11:35:03Z</time>
      </trkpt>
      <trkpt lat="43.13976" lon="3.09434">
        <ele>142.35</ele>
        <time>2021-09-25T11:35:05Z</time>
      </trkpt>
      <trkpt lat="43.13974" lon="3.09432">
        <ele>142.318</ele>
        <time>2021-09-25T11:35:07Z</time>
      </trkpt>
      <trkpt lat="43.13972" lon="3.0943">
        <ele>142.079</ele>
        <time>2021-09-25T11:35:09Z</time>
      </trkpt>
      <trkpt lat="43.1397" lon="3.09428">
        <ele>141.714</ele>
        <time>2021-09-25T11:35:11Z</time>
      </trkpt>
      <trkpt lat="43.13968" lon="3.09425">
        <ele>141.317</ele>
        <time>2021-09-25T11:35:13Z</time>
      </trkpt>
      <trkpt lat="43.13966" lon="3.09423">
        <ele>141.665</ele>
        <time>2021-09-25T11:35:15Z</time>
      </trkpt>
      <trkpt lat="43.13965" lon="3.0942">
        <ele>141.207</ele>
        <time>2021-09-25T11:35:17Z</time>
      </trkpt>
      <trkpt lat="43.13963" lon="3.09417">
        <ele>142.365</ele>
        <time>2021-09-25T11:35:19Z</time>
      </trkpt>
      <trkpt lat="43.13962" lon="3.09413">
        <ele>142.162</ele>
        <time>2021-09-25T11:35:21Z</time>
      </trkpt>
      <trkpt lat="43.13961" lon="3.0941">
        <ele>142.089</ele>
        <time>2021-09-25T11:35:23Z</time>
      </trkpt>
      <trkpt lat="43.1396" lon="3.09408">
        <ele>142.149</ele>
        <time>2021-09-25T11:35:25Z</time>
      </trkpt>
      <trkpt lat="43.13959" lon="3.09405">
        <ele>141.963</ele>
        <time>2021-09-25T11:35:27Z</time>
      </trkpt>
      <trkpt lat="43.13958" lon="3.09402">
        <ele>141.815</ele>
        <time>2021-09-25T11:35:29Z</time>
      </trkpt>
      <trkpt lat="43.13957" lon="3.09399">
        <ele>141.587</ele>
        <time>2021-09-25T11:35:31Z</time>
      </trkpt>
      <trkpt lat="43.13956" lon="3.09396">
        <ele>140.688</ele>
        <time>2021-09-25T11:35:33Z</time>
      </trkpt>
      <trkpt lat="43.13954" lon="3.09393">
        <ele>140.403</ele>
        <time>2021-09-25T11:35:35Z</time>
      </trkpt>
      <trkpt lat="43.13952" lon="3.09391">
        <ele>140.704</ele>
        <time>2021-09-25T11:35:37Z</time>
      </trkpt>
      <trkpt lat="43.1395" lon="3.09388">
        <ele>141.997</ele>
        <time>2021-09-25T11:35:39Z</time>
      </trkpt>
      <trkpt lat="43.13948" lon="3.09386">
        <ele>141.685</ele>
        <time>2021-09-25T11:35:41Z</time>
      </trkpt>
      <trkpt lat="43.13946" lon="3.09384">
        <ele>142.128</ele>
        <time>2021-09-25T11:35:43Z</time>
      </trkpt>
      <trkpt lat="43.13944" lon="3.09382">
        <ele>142.268</ele>
        <time>2021-09-25T11:35:45Z</time>
      </trkpt>
      <trkpt lat="43.13942" lon="3.09379">
        <ele>142.375</ele>
        <time>2021-09-25T11:35:47Z</time>
      </trkpt>
      <trkpt lat="43.1394" lon="3.09377">
        <ele>141.921</ele>
        <time>2021-09-25T11:35:49Z</time>
      </trkpt>
      <trkpt lat="43.13938" lon="3.09375">
        <ele>141.42</ele>
        <time>2021-09-25T11:35:51Z</time>
      </trkpt>
      <trkpt lat="43.13937" lon="3.09373">
        <ele>141.891</ele>
        <time>2021-09-25T11:35:53Z</time>
      </trkpt>
      <trkpt lat="43.13934" lon="3.09372">
        <ele>140.936</ele>
        <time>2021-09-25T11:35:55Z</time>
      </trkpt>
      <trkpt lat="43.13932" lon="3.0937">
        <ele>140.217</ele>
        <time>2021-09-25T11:35:57Z</time>
      </trkpt>
      <trkpt lat="43.13929" lon="3.09368">
        <ele>140.367</ele>
        <time>2021-09-25T11:35:59Z</time>
      </trkpt>
      <trkpt lat="43.13927" lon="3.09367">
        <ele>140.352</ele>
        <time>2021-09-25T11:36:01Z</time>
      </trkpt>
      <trkpt lat="43.13924" lon="3.09366">
        <ele>140.015</ele>
        <time>2021-09-25T11:36:03Z</time>
      </trkpt>
      <trkpt lat="43.13922" lon="3.09365">
        <ele>139.468</ele>
        <time>2021-09-25T11:36:05Z</time>
      </trkpt>
      <trkpt lat="43.1392" lon="3.09364">
        <ele>139.046</ele>
        <time>2021-09-25T11:36:07Z</time>
      </trkpt>
      <trkpt lat="43.13917" lon="3.09364">
        <ele>139.289</ele>
        <time>2021-09-25T11:36:09Z</time>
      </trkpt>
      <trkpt lat="43.13915" lon="3.09363">
        <ele>139.296</ele>
        <time>2021-09-25T11:36:11Z</time>
      </trkpt>
      <trkpt lat="43.13913" lon="3.09362">
        <ele>138.81</ele>
        <time>2021-09-25T11:36:13Z</time>
      </trkpt>
      <trkpt lat="43.1391" lon="3.0936">
        <ele>138.765</ele>
        <time>2021-09-25T11:36:15Z</time>
      </trkpt>
      <trkpt lat="43.13908" lon="3.09358">
        <ele>138.783</ele>
        <time>2021-09-25T11:36:17Z</time>
      </trkpt>
      <trkpt lat="43.13906" lon="3.09357">
        <ele>138.601</ele>
        <time>2021-09-25T11:36:19Z</time>
      </trkpt>
      <trkpt lat="43.13904" lon="3.09355">
        <ele>139.051</ele>
        <time>2021-09-25T11:36:21Z</time>
      </trkpt>
      <trkpt lat="43.13902" lon="3.09353">
        <ele>139.255</ele>
        <time>2021-09-25T11:36:23Z</time>
      </trkpt>
      <trkpt lat="43.13901" lon="3.09351">
        <ele>138.65</ele>
        <time>2021-09-25T11:36:25Z</time>
      </trkpt>
      <trkpt lat="43.13899" lon="3.09348">
        <ele>138.682</ele>
        <time>2021-09-25T11:36:27Z</time>
      </trkpt>
      <trkpt lat="43.13897" lon="3.09345">
        <ele>138.61</ele>
        <time>2021-09-25T11:36:29Z</time>
      </trkpt>
      <trkpt lat="43.13896" lon="3.09343">
        <ele>138.757</ele>
        <time>2021-09-25T11:36:31Z</time>
      </trkpt>
      <trkpt lat="43.13894" lon="3.0934">
        <ele>139.833</ele>
        <time>2021-09-25T11:36:33Z</time>
      </trkpt>
      <trkpt lat="43.13892" lon="3.09337">
        <ele>140.276</ele>
        <time>2021-09-25T11:36:35Z</time>
      </trkpt>
      <trkpt lat="43.1389" lon="3.09335">
        <ele>140.061</ele>
        <time>2021-09-25T11:36:37Z</time>
      </trkpt>
      <trkpt lat="43.13889" lon="3.09333">
        <ele>140.021</ele>
        <time>2021-09-25T11:36:39Z</time>
      </trkpt>
      <trkpt lat="43.13887" lon="3.0933">
        <ele>139.716</ele>
        <time>2021-09-25T11:36:41Z</time>
      </trkpt>
      <trkpt lat="43.13886" lon="3.09328">
        <ele>140.305</ele>
        <time>2021-09-25T11:36:43Z</time>
      </trkpt>
      <trkpt lat="43.13884" lon="3.09326">
        <ele>140.343</ele>
        <time>2021-09-25T11:36:45Z</time>
      </trkpt>
      <trkpt lat="43.13882" lon="3.09323">
        <ele>139.986</ele>
        <time>2021-09-25T11:36:47Z</time>
      </trkpt>
      <trkpt lat="43.1388" lon="3.0932">
        <ele>139.984</ele>
        <time>2021-09-25T11:36:49Z</time>
      </trkpt>
      <trkpt lat="43.13878" lon="3.09317">
        <ele>139.671</ele>
        <time>2021-09-25T11:36:51Z</time>
      </trkpt>
      <trkpt lat="43.13876" lon="3.09315">
        <ele>139.912</ele>
        <time>2021-09-25T11:36:53Z</time>
      </trkpt>
      <trkpt lat="43.13875" lon="3.09313">
        <ele>139.754</ele>
        <time>2021-09-25T11:36:55Z</time>
      </trkpt>
      <trkpt lat="43.13873" lon="3.0931">
        <ele>139.634</ele>
        <time>2021-09-25T11:36:57Z</time>
      </trkpt>
      <trkpt lat="43.13871" lon="3.09307">
        <ele>139.956</ele>
        <time>2021-09-25T11:36:59Z</time>
      </trkpt>
      <trkpt lat="43.13869" lon="3.09305">
        <ele>139.219</ele>
        <time>2021-09-25T11:37:01Z</time>
      </trkpt>
      <trkpt lat="43.13868" lon="3.09302">
        <ele>139.423</ele>
        <time>2021-09-25T11:37:03Z</time>
      </trkpt>
      <trkpt lat="43.13866" lon="3.09299">
        <ele>139.844</ele>
        <time>2021-09-25T11:37:05Z</time>
      </trkpt>
      <trkpt lat="43.13864" lon="3.09297">
        <ele>140.346</ele>
        <time>2021-09-25T11:37:07Z</time>
      </trkpt>
      <trkpt lat="43.13862" lon="3.09294">
        <ele>140.987</ele>
        <time>2021-09-25T11:37:09Z</time>
      </trkpt>
      <trkpt lat="43.13861" lon="3.09292">
        <ele>141.499</ele>
        <time>2021-09-25T11:37:11Z</time>
      </trkpt>
      <trkpt lat="43.13859" lon="3.09291">
        <ele>141.464</ele>
        <time>2021-09-25T11:37:13Z</time>
      </trkpt>
      <trkpt lat="43.13857" lon="3.09289">
        <ele>141.037</ele>
        <time>2021-09-25T11:37:15Z</time>
      </trkpt>
      <trkpt lat="43.13855" lon="3.09287">
        <ele>140.212</ele>
        <time>2021-09-25T11:37:17Z</time>
      </trkpt>
      <trkpt lat="43.13853" lon="3.09285">
        <ele>139.995</ele>
        <time>2021-09-25T11:37:19Z</time>
      </trkpt>
      <trkpt lat="43.13851" lon="3.09283">
        <ele>139.962</ele>
        <time>2021-09-25T11:37:21Z</time>
      </trkpt>
      <trkpt lat="43.13849" lon="3.09281">
        <ele>140.248</ele>
        <time>2021-09-25T11:37:23Z</time>
      </trkpt>
      <trkpt lat="43.13847" lon="3.09279">
        <ele>139.445</ele>
        <time>2021-09-25T11:37:25Z</time>
      </trkpt>
      <trkpt lat="43.13846" lon="3.09276">
        <ele>139.617</ele>
        <time>2021-09-25T11:37:27Z</time>
      </trkpt>
      <trkpt lat="43.13845" lon="3.09273">
        <ele>139.112</ele>
        <time>2021-09-25T11:37:29Z</time>
      </trkpt>
      <trkpt lat="43.13844" lon="3.0927">
        <ele>138.634</ele>
        <time>2021-09-25T11:37:31Z</time>
      </trkpt>
      <trkpt lat="43.13842" lon="3.09267">
        <ele>140.34</ele>
        <time>2021-09-25T11:37:33Z</time>
      </trkpt>
      <trkpt lat="43.13841" lon="3.09264">
        <ele>140.529</ele>
        <time>2021-09-25T11:37:35Z</time>
      </trkpt>
      <trkpt lat="43.13841" lon="3.09264">
        <ele>138.673</ele>
        <time>2021-09-25T11:37:37Z</time>
      </trkpt>
      <trkpt lat="43.13844" lon="3.09264">
        <ele>137.857</ele>
        <time>2021-09-25T11:37:39Z</time>
      </trkpt>
      <trkpt lat="43.13845" lon="3.09264">
        <ele>137.768</ele>
        <time>2021-09-25T11:37:41Z</time>
      </trkpt>
      <trkpt lat="43.13845" lon="3.09263">
        <ele>137.725</ele>
        <time>2021-09-25T11:37:43Z</time>
      </trkpt>
      <trkpt lat="43.13842" lon="3.09265">
        <ele>137.149</ele>
        <time>2021-09-25T11:37:45Z</time>
      </trkpt>
      <trkpt lat="43.13841" lon="3.09264">
        <ele>137.235</ele>
        <time>2021-09-25T11:37:47Z</time>
      </trkpt>
      <trkpt lat="43.13841" lon="3.09262">
        <ele>136.63</ele>
        <time>2021-09-25T11:37:49Z</time>
      </trkpt>
      <trkpt lat="43.1384" lon="3.09261">
        <ele>136.389</ele>
        <time>2021-09-25T11:37:51Z</time>
      </trkpt>
      <trkpt lat="43.13839" lon="3.09259">
        <ele>136.429</ele>
        <time>2021-09-25T11:37:53Z</time>
      </trkpt>
      <trkpt lat="43.13839" lon="3.09259">
        <ele>136.677</ele>
        <time>2021-09-25T11:37:55Z</time>
      </trkpt>
      <trkpt lat="43.13839" lon="3.09259">
        <ele>137.035</ele>
        <time>2021-09-25T11:37:57Z</time>
      </trkpt>
      <trkpt lat="43.13839" lon="3.09259">
        <ele>136.972</ele>
        <time>2021-09-25T11:37:59Z</time>
      </trkpt>
      <trkpt lat="43.13838" lon="3.09259">
        <ele>136.876</ele>
        <time>2021-09-25T11:38:01Z</time>
      </trkpt>
      <trkpt lat="43.13837" lon="3.09259">
        <ele>136.83</ele>
        <time>2021-09-25T11:38:03Z</time>
      </trkpt>
      <trkpt lat="43.13836" lon="3.09259">
        <ele>136.603</ele>
        <time>2021-09-25T11:38:05Z</time>
      </trkpt>
      <trkpt lat="43.13835" lon="3.09259">
        <ele>136.304</ele>
        <time>2021-09-25T11:38:07Z</time>
      </trkpt>
      <trkpt lat="43.13835" lon="3.09258">
        <ele>136.298</ele>
        <time>2021-09-25T11:38:09Z</time>
      </trkpt>
      <trkpt lat="43.13834" lon="3.09258">
        <ele>135.871</ele>
        <time>2021-09-25T11:38:11Z</time>
      </trkpt>
      <trkpt lat="43.13834" lon="3.09258">
        <ele>135.601</ele>
        <time>2021-09-25T11:38:13Z</time>
      </trkpt>
      <trkpt lat="43.13833" lon="3.09257">
        <ele>135.295</ele>
        <time>2021-09-25T11:38:15Z</time>
      </trkpt>
      <trkpt lat="43.13833" lon="3.09257">
        <ele>135.3</ele>
        <time>2021-09-25T11:38:17Z</time>
      </trkpt>
      <trkpt lat="43.13833" lon="3.09257">
        <ele>135.299</ele>
        <time>2021-09-25T11:38:19Z</time>
      </trkpt>
      <trkpt lat="43.13833" lon="3.09257">
        <ele>135.305</ele>
        <time>2021-09-25T11:38:21Z</time>
      </trkpt>
      <trkpt lat="43.13833" lon="3.09257">
        <ele>135.319</ele>
        <time>2021-09-25T11:38:23Z</time>
      </trkpt>
      <trkpt lat="43.13833" lon="3.09257">
        <ele>135.319</ele>
        <time>2021-09-25T11:38:25Z</time>
      </trkpt>
      <trkpt lat="43.13833" lon="3.09257">
        <ele>135.321</ele>
        <time>2021-09-25T11:38:27Z</time>
      </trkpt>
      <trkpt lat="43.13833" lon="3.09257">
        <ele>135.324</ele>
        <time>2021-09-25T11:38:29Z</time>
      </trkpt>
      <trkpt lat="43.13833" lon="3.09257">
        <ele>135.318</ele>
        <time>2021-09-25T11:38:31Z</time>
      </trkpt>
      <trkpt lat="43.13833" lon="3.09257">
        <ele>135.319</ele>
        <time>2021-09-25T11:38:33Z</time>
      </trkpt>
      <trkpt lat="43.13833" lon="3.09257">
        <ele>135.105</ele>
        <time>2021-09-25T11:38:35Z</time>
      </trkpt>
      <trkpt lat="43.13831" lon="3.09257">
        <ele>135.169</ele>
        <time>2021-09-25T11:38:37Z</time>
      </trkpt>
      <trkpt lat="43.13831" lon="3.09258">
        <ele>134.083</ele>
        <time>2021-09-25T11:38:39Z</time>
      </trkpt>
      <trkpt lat="43.13832" lon="3.09258">
        <ele>133.698</ele>
        <time>2021-09-25T11:38:41Z</time>
      </trkpt>
      <trkpt lat="43.13832" lon="3.09258">
        <ele>133.696</ele>
        <time>2021-09-25T11:38:43Z</time>
      </trkpt>
      <trkpt lat="43.13832" lon="3.09258">
        <ele>133.703</ele>
        <time>2021-09-25T11:38:45Z</time>
      </trkpt>
      <trkpt lat="43.13832" lon="3.09259">
        <ele>134.034</ele>
        <time>2021-09-25T11:38:47Z</time>
      </trkpt>
      <trkpt lat="43.13831" lon="3.09258">
        <ele>135.153</ele>
        <time>2021-09-25T11:38:49Z</time>
      </trkpt>
      <trkpt lat="43.13829" lon="3.0926">
        <ele>135.317</ele>
        <time>2021-09-25T11:38:51Z</time>
      </trkpt>
      <trkpt lat="43.13829" lon="3.09262">
        <ele>133.873</ele>
        <time>2021-09-25T11:38:53Z</time>
      </trkpt>
      <trkpt lat="43.13828" lon="3.09264">
        <ele>133.289</ele>
        <time>2021-09-25T11:38:55Z</time>
      </trkpt>
      <trkpt lat="43.13827" lon="3.09266">
        <ele>132.868</ele>
        <time>2021-09-25T11:38:57Z</time>
      </trkpt>
      <trkpt lat="43.13825" lon="3.09267">
        <ele>132.485</ele>
        <time>2021-09-25T11:38:59Z</time>
      </trkpt>
      <trkpt lat="43.13824" lon="3.09267">
        <ele>132.472</ele>
        <time>2021-09-25T11:39:01Z</time>
      </trkpt>
      <trkpt lat="43.13823" lon="3.09269">
        <ele>133.274</ele>
        <time>2021-09-25T11:39:03Z</time>
      </trkpt>
      <trkpt lat="43.13822" lon="3.0927">
        <ele>132.783</ele>
        <time>2021-09-25T11:39:05Z</time>
      </trkpt>
      <trkpt lat="43.13821" lon="3.09271">
        <ele>132.977</ele>
        <time>2021-09-25T11:39:07Z</time>
      </trkpt>
      <trkpt lat="43.13819" lon="3.09272">
        <ele>132.17</ele>
        <time>2021-09-25T11:39:09Z</time>
      </trkpt>
      <trkpt lat="43.13817" lon="3.09274">
        <ele>131.94</ele>
        <time>2021-09-25T11:39:11Z</time>
      </trkpt>
      <trkpt lat="43.13816" lon="3.09275">
        <ele>131.133</ele>
        <time>2021-09-25T11:39:13Z</time>
      </trkpt>
      <trkpt lat="43.13815" lon="3.09275">
        <ele>131.028</ele>
        <time>2021-09-25T11:39:15Z</time>
      </trkpt>
      <trkpt lat="43.13814" lon="3.09277">
        <ele>131.389</ele>
        <time>2021-09-25T11:39:17Z</time>
      </trkpt>
      <trkpt lat="43.13814" lon="3.09278">
        <ele>131.632</ele>
        <time>2021-09-25T11:39:19Z</time>
      </trkpt>
      <trkpt lat="43.13814" lon="3.09279">
        <ele>131.955</ele>
        <time>2021-09-25T11:39:21Z</time>
      </trkpt>
      <trkpt lat="43.13814" lon="3.0928">
        <ele>131.643</ele>
        <time>2021-09-25T11:39:23Z</time>
      </trkpt>
      <trkpt lat="43.13814" lon="3.09281">
        <ele>131.739</ele>
        <time>2021-09-25T11:39:25Z</time>
      </trkpt>
      <trkpt lat="43.13814" lon="3.09281">
        <ele>132.291</ele>
        <time>2021-09-25T11:39:27Z</time>
      </trkpt>
      <trkpt lat="43.13814" lon="3.09281">
        <ele>132.137</ele>
        <time>2021-09-25T11:39:29Z</time>
      </trkpt>
      <trkpt lat="43.13814" lon="3.09281">
        <ele>132.142</ele>
        <time>2021-09-25T11:39:31Z</time>
      </trkpt>
      <trkpt lat="43.13814" lon="3.09281">
        <ele>132.143</ele>
        <time>2021-09-25T11:39:33Z</time>
      </trkpt>
      <trkpt lat="43.13814" lon="3.09281">
        <ele>132.144</ele>
        <time>2021-09-25T11:39:35Z</time>
      </trkpt>
      <trkpt lat="43.13814" lon="3.09281">
        <ele>132.142</ele>
        <time>2021-09-25T11:39:37Z</time>
      </trkpt>
      <trkpt lat="43.13814" lon="3.0928">
        <ele>132.342</ele>
        <time>2021-09-25T11:39:39Z</time>
      </trkpt>
      <trkpt lat="43.13814" lon="3.09279">
        <ele>132.031</ele>
        <time>2021-09-25T11:39:41Z</time>
      </trkpt>
      <trkpt lat="43.13813" lon="3.09277">
        <ele>131.803</ele>
        <time>2021-09-25T11:39:43Z</time>
      </trkpt>
      <trkpt lat="43.13813" lon="3.09277">
        <ele>131.674</ele>
        <time>2021-09-25T11:39:45Z</time>
      </trkpt>
      <trkpt lat="43.13812" lon="3.09277">
        <ele>131.745</ele>
        <time>2021-09-25T11:39:47Z</time>
      </trkpt>
      <trkpt lat="43.13812" lon="3.09277">
        <ele>131.75</ele>
        <time>2021-09-25T11:39:49Z</time>
      </trkpt>
      <trkpt lat="43.13812" lon="3.09277">
        <ele>131.75</ele>
        <time>2021-09-25T11:39:51Z</time>
      </trkpt>
      <trkpt lat="43.13813" lon="3.09276">
        <ele>131.179</ele>
        <time>2021-09-25T11:39:53Z</time>
      </trkpt>
      <trkpt lat="43.13814" lon="3.09274">
        <ele>131.433</ele>
        <time>2021-09-25T11:39:55Z</time>
      </trkpt>
      <trkpt lat="43.13814" lon="3.09273">
        <ele>131.163</ele>
        <time>2021-09-25T11:39:57Z</time>
      </trkpt>
      <trkpt lat="43.13814" lon="3.09272">
        <ele>131.203</ele>
        <time>2021-09-25T11:39:59Z</time>
      </trkpt>
      <trkpt lat="43.13814" lon="3.09272">
        <ele>131.211</ele>
        <time>2021-09-25T11:40:01Z</time>
      </trkpt>
      <trkpt lat="43.13815" lon="3.09273">
        <ele>131.265</ele>
        <time>2021-09-25T11:40:03Z</time>
      </trkpt>
      <trkpt lat="43.13816" lon="3.09271">
        <ele>130.36</ele>
        <time>2021-09-25T11:40:05Z</time>
      </trkpt>
      <trkpt lat="43.13816" lon="3.09269">
        <ele>130.529</ele>
        <time>2021-09-25T11:40:07Z</time>
      </trkpt>
      <trkpt lat="43.13816" lon="3.09266">
        <ele>130.671</ele>
        <time>2021-09-25T11:40:09Z</time>
      </trkpt>
      <trkpt lat="43.13815" lon="3.09263">
        <ele>130.633</ele>
        <time>2021-09-25T11:40:11Z</time>
      </trkpt>
      <trkpt lat="43.13815" lon="3.09261">
        <ele>130.898</ele>
        <time>2021-09-25T11:40:13Z</time>
      </trkpt>
      <trkpt lat="43.13815" lon="3.09258">
        <ele>130.251</ele>
        <time>2021-09-25T11:40:15Z</time>
      </trkpt>
      <trkpt lat="43.13814" lon="3.09256">
        <ele>129.389</ele>
        <time>2021-09-25T11:40:17Z</time>
      </trkpt>
      <trkpt lat="43.13813" lon="3.09254">
        <ele>128.813</ele>
        <time>2021-09-25T11:40:19Z</time>
      </trkpt>
      <trkpt lat="43.13813" lon="3.09254">
        <ele>128.55</ele>
        <time>2021-09-25T11:40:21Z</time>
      </trkpt>
      <trkpt lat="43.13814" lon="3.09252">
        <ele>128.894</ele>
        <time>2021-09-25T11:40:23Z</time>
      </trkpt>
      <trkpt lat="43.13815" lon="3.09251">
        <ele>129.232</ele>
        <time>2021-09-25T11:40:25Z</time>
      </trkpt>
      <trkpt lat="43.13816" lon="3.09249">
        <ele>129.207</ele>
        <time>2021-09-25T11:40:27Z</time>
      </trkpt>
      <trkpt lat="43.13816" lon="3.09247">
        <ele>128.968</ele>
        <time>2021-09-25T11:40:29Z</time>
      </trkpt>
      <trkpt lat="43.13817" lon="3.09246">
        <ele>128.67</ele>
        <time>2021-09-25T11:40:31Z</time>
      </trkpt>
      <trkpt lat="43.13817" lon="3.09247">
        <ele>128.682</ele>
        <time>2021-09-25T11:40:33Z</time>
      </trkpt>
      <trkpt lat="43.13817" lon="3.09247">
        <ele>128.681</ele>
        <time>2021-09-25T11:40:35Z</time>
      </trkpt>
      <trkpt lat="43.13817" lon="3.09247">
        <ele>128.685</ele>
        <time>2021-09-25T11:40:37Z</time>
      </trkpt>
      <trkpt lat="43.13817" lon="3.09247">
        <ele>128.68</ele>
        <time>2021-09-25T11:40:39Z</time>
      </trkpt>
      <trkpt lat="43.13817" lon="3.09247">
        <ele>128.681</ele>
        <time>2021-09-25T11:40:41Z</time>
      </trkpt>
      <trkpt lat="43.13817" lon="3.09247">
        <ele>128.68</ele>
        <time>2021-09-25T11:40:43Z</time>
      </trkpt>
      <trkpt lat="43.13817" lon="3.09247">
        <ele>128.678</ele>
        <time>2021-09-25T11:40:45Z</time>
      </trkpt>
      <trkpt lat="43.13817" lon="3.09247">
        <ele>128.672</ele>
        <time>2021-09-25T11:40:47Z</time>
      </trkpt>
      <trkpt lat="43.13817" lon="3.09247">
        <ele>128.66</ele>
        <time>2021-09-25T11:40:49Z</time>
      </trkpt>
      <trkpt lat="43.13817" lon="3.09247">
        <ele>128.642</ele>
        <time>2021-09-25T11:40:51Z</time>
      </trkpt>
      <trkpt lat="43.13817" lon="3.09247">
        <ele>128.639</ele>
        <time>2021-09-25T11:40:53Z</time>
      </trkpt>
      <trkpt lat="43.13817" lon="3.09247">
        <ele>128.638</ele>
        <time>2021-09-25T11:40:55Z</time>
      </trkpt>
      <trkpt lat="43.13817" lon="3.09247">
        <ele>128.632</ele>
        <time>2021-09-25T11:40:57Z</time>
      </trkpt>
      <trkpt lat="43.13817" lon="3.09246">
        <ele>128.525</ele>
        <time>2021-09-25T11:40:59Z</time>
      </trkpt>
      <trkpt lat="43.13817" lon="3.09246">
        <ele>128.771</ele>
        <time>2021-09-25T11:41:01Z</time>
      </trkpt>
      <trkpt lat="43.13817" lon="3.09246">
        <ele>128.44</ele>
        <time>2021-09-25T11:41:03Z</time>
      </trkpt>
      <trkpt lat="43.13817" lon="3.09246">
        <ele>128.748</ele>
        <time>2021-09-25T11:41:05Z</time>
      </trkpt>
      <trkpt lat="43.13817" lon="3.09247">
        <ele>128.667</ele>
        <time>2021-09-25T11:41:07Z</time>
      </trkpt>
      <trkpt lat="43.13817" lon="3.09247">
        <ele>128.537</ele>
        <time>2021-09-25T11:41:09Z</time>
      </trkpt>
      <trkpt lat="43.13818" lon="3.09248">
        <ele>128.749</ele>
        <time>2021-09-25T11:41:11Z</time>
      </trkpt>
      <trkpt lat="43.13819" lon="3.09248">
        <ele>128.57</ele>
        <time>2021-09-25T11:41:13Z</time>
      </trkpt>
      <trkpt lat="43.1382" lon="3.09247">
        <ele>128.966</ele>
        <time>2021-09-25T11:41:15Z</time>
      </trkpt>
      <trkpt lat="43.1382" lon="3.09246">
        <ele>128.76</ele>
        <time>2021-09-25T11:41:17Z</time>
      </trkpt>
      <trkpt lat="43.13821" lon="3.09245">
        <ele>129.321</ele>
        <time>2021-09-25T11:41:19Z</time>
      </trkpt>
      <trkpt lat="43.13821" lon="3.09245">
        <ele>129.733</ele>
        <time>2021-09-25T11:41:21Z</time>
      </trkpt>
      <trkpt lat="43.13821" lon="3.09243">
        <ele>129.678</ele>
        <time>2021-09-25T11:41:23Z</time>
      </trkpt>
      <trkpt lat="43.1382" lon="3.09243">
        <ele>130.228</ele>
        <time>2021-09-25T11:41:25Z</time>
      </trkpt>
      <trkpt lat="43.13819" lon="3.09243">
        <ele>130.248</ele>
        <time>2021-09-25T11:41:27Z</time>
      </trkpt>
      <trkpt lat="43.13819" lon="3.09243">
        <ele>130.106</ele>
        <time>2021-09-25T11:41:29Z</time>
      </trkpt>
      <trkpt lat="43.1382" lon="3.09244">
        <ele>129.604</ele>
        <time>2021-09-25T11:41:31Z</time>
      </trkpt>
      <trkpt lat="43.1382" lon="3.09244">
        <ele>129.604</ele>
        <time>2021-09-25T11:41:33Z</time>
      </trkpt>
      <trkpt lat="43.1382" lon="3.09244">
        <ele>129.603</ele>
        <time>2021-09-25T11:41:35Z</time>
      </trkpt>
      <trkpt lat="43.1382" lon="3.09244">
        <ele>129.595</ele>
        <time>2021-09-25T11:41:37Z</time>
      </trkpt>
      <trkpt lat="43.1382" lon="3.09244">
        <ele>129.595</ele>
        <time>2021-09-25T11:41:39Z</time>
      </trkpt>
      <trkpt lat="43.1382" lon="3.09244">
        <ele>129.596</ele>
        <time>2021-09-25T11:41:41Z</time>
      </trkpt>
      <trkpt lat="43.1382" lon="3.09244">
        <ele>129.594</ele>
        <time>2021-09-25T11:41:43Z</time>
      </trkpt>
      <trkpt lat="43.1382" lon="3.09244">
        <ele>129.593</ele>
        <time>2021-09-25T11:41:45Z</time>
      </trkpt>
      <trkpt lat="43.13819" lon="3.09244">
        <ele>129.468</ele>
        <time>2021-09-25T11:41:47Z</time>
      </trkpt>
      <trkpt lat="43.1382" lon="3.09247">
        <ele>128.818</ele>
        <time>2021-09-25T11:41:49Z</time>
      </trkpt>
      <trkpt lat="43.13821" lon="3.09249">
        <ele>129.426</ele>
        <time>2021-09-25T11:41:51Z</time>
      </trkpt>
      <trkpt lat="43.13822" lon="3.0925">
        <ele>129.208</ele>
        <time>2021-09-25T11:41:53Z</time>
      </trkpt>
      <trkpt lat="43.13823" lon="3.09251">
        <ele>129.114</ele>
        <time>2021-09-25T11:41:55Z</time>
      </trkpt>
      <trkpt lat="43.13824" lon="3.09251">
        <ele>129.589</ele>
        <time>2021-09-25T11:41:57Z</time>
      </trkpt>
      <trkpt lat="43.13825" lon="3.0925">
        <ele>130.272</ele>
        <time>2021-09-25T11:41:59Z</time>
      </trkpt>
      <trkpt lat="43.13826" lon="3.09249">
        <ele>130.025</ele>
        <time>2021-09-25T11:42:01Z</time>
      </trkpt>
      <trkpt lat="43.13827" lon="3.09249">
        <ele>130.231</ele>
        <time>2021-09-25T11:42:03Z</time>
      </trkpt>
      <trkpt lat="43.13828" lon="3.09248">
        <ele>131.23</ele>
        <time>2021-09-25T11:42:05Z</time>
      </trkpt>
      <trkpt lat="43.13828" lon="3.09247">
        <ele>131.804</ele>
        <time>2021-09-25T11:42:07Z</time>
      </trkpt>
      <trkpt lat="43.13828" lon="3.09247">
        <ele>131.794</ele>
        <time>2021-09-25T11:42:09Z</time>
      </trkpt>
      <trkpt lat="43.13829" lon="3.09247">
        <ele>131.733</ele>
        <time>2021-09-25T11:42:11Z</time>
      </trkpt>
      <trkpt lat="43.13829" lon="3.09247">
        <ele>131.264</ele>
        <time>2021-09-25T11:42:13Z</time>
      </trkpt>
      <trkpt lat="43.1383" lon="3.09246">
        <ele>132.169</ele>
        <time>2021-09-25T11:42:15Z</time>
      </trkpt>
      <trkpt lat="43.13831" lon="3.09247">
        <ele>132.439</ele>
        <time>2021-09-25T11:42:17Z</time>
      </trkpt>
      <trkpt lat="43.13832" lon="3.09247">
        <ele>133.401</ele>
        <time>2021-09-25T11:42:19Z</time>
      </trkpt>
      <trkpt lat="43.13833" lon="3.09249">
        <ele>133.607</ele>
        <time>2021-09-25T11:42:21Z</time>
      </trkpt>
      <trkpt lat="43.13833" lon="3.0925">
        <ele>133.928</ele>
        <time>2021-09-25T11:42:23Z</time>
      </trkpt>
      <trkpt lat="43.13833" lon="3.09252">
        <ele>134.012</ele>
        <time>2021-09-25T11:42:25Z</time>
      </trkpt>
      <trkpt lat="43.13833" lon="3.09254">
        <ele>134.693</ele>
        <time>2021-09-25T11:42:27Z</time>
      </trkpt>
      <trkpt lat="43.13833" lon="3.09254">
        <ele>134.176</ele>
        <time>2021-09-25T11:42:29Z</time>
      </trkpt>
      <trkpt lat="43.13833" lon="3.09254">
        <ele>134.17</ele>
        <time>2021-09-25T11:42:31Z</time>
      </trkpt>
      <trkpt lat="43.13832" lon="3.09254">
        <ele>134.373</ele>
        <time>2021-09-25T11:42:33Z</time>
      </trkpt>
      <trkpt lat="43.13832" lon="3.09254">
        <ele>134.372</ele>
        <time>2021-09-25T11:42:35Z</time>
      </trkpt>
      <trkpt lat="43.13832" lon="3.09254">
        <ele>134.369</ele>
        <time>2021-09-25T11:42:37Z</time>
      </trkpt>
      <trkpt lat="43.13832" lon="3.09254">
        <ele>134.368</ele>
        <time>2021-09-25T11:42:39Z</time>
      </trkpt>
      <trkpt lat="43.13832" lon="3.09254">
        <ele>134.366</ele>
        <time>2021-09-25T11:42:41Z</time>
      </trkpt>
      <trkpt lat="43.13832" lon="3.09254">
        <ele>134.366</ele>
        <time>2021-09-25T11:42:43Z</time>
      </trkpt>
      <trkpt lat="43.13832" lon="3.09254">
        <ele>134.365</ele>
        <time>2021-09-25T11:42:45Z</time>
      </trkpt>
      <trkpt lat="43.13832" lon="3.09254">
        <ele>134.364</ele>
        <time>2021-09-25T11:42:47Z</time>
      </trkpt>
      <trkpt lat="43.13832" lon="3.09254">
        <ele>134.361</ele>
        <time>2021-09-25T11:42:49Z</time>
      </trkpt>
      <trkpt lat="43.13832" lon="3.09254">
        <ele>134.359</ele>
        <time>2021-09-25T11:42:51Z</time>
      </trkpt>
      <trkpt lat="43.13832" lon="3.09254">
        <ele>134.357</ele>
        <time>2021-09-25T11:42:53Z</time>
      </trkpt>
      <trkpt lat="43.13832" lon="3.09254">
        <ele>134.406</ele>
        <time>2021-09-25T11:42:55Z</time>
      </trkpt>
      <trkpt lat="43.13832" lon="3.09254">
        <ele>134.868</ele>
        <time>2021-09-25T11:42:57Z</time>
      </trkpt>
      <trkpt lat="43.13832" lon="3.09253">
        <ele>135.01</ele>
        <time>2021-09-25T11:42:59Z</time>
      </trkpt>
      <trkpt lat="43.13833" lon="3.09251">
        <ele>135.371</ele>
        <time>2021-09-25T11:43:01Z</time>
      </trkpt>
      <trkpt lat="43.13833" lon="3.0925">
        <ele>135.286</ele>
        <time>2021-09-25T11:43:03Z</time>
      </trkpt>
      <trkpt lat="43.13834" lon="3.09249">
        <ele>135.301</ele>
        <time>2021-09-25T11:43:05Z</time>
      </trkpt>
      <trkpt lat="43.13835" lon="3.09248">
        <ele>135.746</ele>
        <time>2021-09-25T11:43:07Z</time>
      </trkpt>
      <trkpt lat="43.13836" lon="3.09247">
        <ele>135.968</ele>
        <time>2021-09-25T11:43:09Z</time>
      </trkpt>
      <trkpt lat="43.13837" lon="3.09246">
        <ele>135.717</ele>
        <time>2021-09-25T11:43:11Z</time>
      </trkpt>
      <trkpt lat="43.13838" lon="3.09244">
        <ele>136.071</ele>
        <time>2021-09-25T11:43:13Z</time>
      </trkpt>
      <trkpt lat="43.13838" lon="3.09243">
        <ele>136.05</ele>
        <time>2021-09-25T11:43:15Z</time>
      </trkpt>
      <trkpt lat="43.13839" lon="3.0924">
        <ele>136.904</ele>
        <time>2021-09-25T11:43:17Z</time>
      </trkpt>
      <trkpt lat="43.1384" lon="3.09238">
        <ele>137.488</ele>
        <time>2021-09-25T11:43:19Z</time>
      </trkpt>
      <trkpt lat="43.1384" lon="3.09236">
        <ele>138.254</ele>
        <time>2021-09-25T11:43:21Z</time>
      </trkpt>
      <trkpt lat="43.13841" lon="3.09233">
        <ele>138.788</ele>
        <time>2021-09-25T11:43:23Z</time>
      </trkpt>
      <trkpt lat="43.13843" lon="3.0923">
        <ele>137.904</ele>
        <time>2021-09-25T11:43:25Z</time>
      </trkpt>
      <trkpt lat="43.13842" lon="3.09227">
        <ele>138.762</ele>
        <time>2021-09-25T11:43:27Z</time>
      </trkpt>
      <trkpt lat="43.13841" lon="3.09224">
        <ele>138.314</ele>
        <time>2021-09-25T11:43:29Z</time>
      </trkpt>
      <trkpt lat="43.13841" lon="3.09221">
        <ele>137.864</ele>
        <time>2021-09-25T11:43:31Z</time>
      </trkpt>
      <trkpt lat="43.13841" lon="3.09218">
        <ele>138.101</ele>
        <time>2021-09-25T11:43:33Z</time>
      </trkpt>
      <trkpt lat="43.1384" lon="3.09216">
        <ele>138.588</ele>
        <time>2021-09-25T11:43:35Z</time>
      </trkpt>
      <trkpt lat="43.13839" lon="3.09214">
        <ele>136.722</ele>
        <time>2021-09-25T11:43:37Z</time>
      </trkpt>
      <trkpt lat="43.13839" lon="3.09213">
        <ele>136.171</ele>
        <time>2021-09-25T11:43:39Z</time>
      </trkpt>
      <trkpt lat="43.13838" lon="3.0921">
        <ele>136.682</ele>
        <time>2021-09-25T11:43:41Z</time>
      </trkpt>
      <trkpt lat="43.13839" lon="3.09207">
        <ele>136.284</ele>
        <time>2021-09-25T11:43:43Z</time>
      </trkpt>
      <trkpt lat="43.13839" lon="3.09205">
        <ele>136.264</ele>
        <time>2021-09-25T11:43:45Z</time>
      </trkpt>
      <trkpt lat="43.13838" lon="3.09203">
        <ele>136.674</ele>
        <time>2021-09-25T11:43:47Z</time>
      </trkpt>
      <trkpt lat="43.13838" lon="3.092">
        <ele>137.235</ele>
        <time>2021-09-25T11:43:49Z</time>
      </trkpt>
      <trkpt lat="43.13838" lon="3.09198">
        <ele>137.048</ele>
        <time>2021-09-25T11:43:51Z</time>
      </trkpt>
      <trkpt lat="43.13838" lon="3.09195">
        <ele>137.266</ele>
        <time>2021-09-25T11:43:53Z</time>
      </trkpt>
      <trkpt lat="43.13837" lon="3.09192">
        <ele>137.251</ele>
        <time>2021-09-25T11:43:55Z</time>
      </trkpt>
      <trkpt lat="43.13837" lon="3.09189">
        <ele>137.422</ele>
        <time>2021-09-25T11:43:57Z</time>
      </trkpt>
      <trkpt lat="43.13836" lon="3.09187">
        <ele>137.739</ele>
        <time>2021-09-25T11:43:59Z</time>
      </trkpt>
      <trkpt lat="43.13835" lon="3.09184">
        <ele>138.201</ele>
        <time>2021-09-25T11:44:01Z</time>
      </trkpt>
      <trkpt lat="43.13834" lon="3.09181">
        <ele>138.556</ele>
        <time>2021-09-25T11:44:03Z</time>
      </trkpt>
      <trkpt lat="43.13833" lon="3.09179">
        <ele>138.616</ele>
        <time>2021-09-25T11:44:05Z</time>
      </trkpt>
      <trkpt lat="43.13833" lon="3.09177">
        <ele>138.92</ele>
        <time>2021-09-25T11:44:07Z</time>
      </trkpt>
      <trkpt lat="43.13832" lon="3.09175">
        <ele>139.844</ele>
        <time>2021-09-25T11:44:09Z</time>
      </trkpt>
      <trkpt lat="43.13831" lon="3.09172">
        <ele>140.076</ele>
        <time>2021-09-25T11:44:11Z</time>
      </trkpt>
      <trkpt lat="43.13831" lon="3.0917">
        <ele>140.195</ele>
        <time>2021-09-25T11:44:13Z</time>
      </trkpt>
      <trkpt lat="43.1383" lon="3.09168">
        <ele>140.144</ele>
        <time>2021-09-25T11:44:15Z</time>
      </trkpt>
      <trkpt lat="43.13829" lon="3.09165">
        <ele>140.278</ele>
        <time>2021-09-25T11:44:17Z</time>
      </trkpt>
      <trkpt lat="43.13829" lon="3.09162">
        <ele>139.892</ele>
        <time>2021-09-25T11:44:19Z</time>
      </trkpt>
      <trkpt lat="43.13828" lon="3.0916">
        <ele>140.091</ele>
        <time>2021-09-25T11:44:21Z</time>
      </trkpt>
      <trkpt lat="43.13828" lon="3.09157">
        <ele>140.222</ele>
        <time>2021-09-25T11:44:23Z</time>
      </trkpt>
      <trkpt lat="43.13828" lon="3.09154">
        <ele>140.157</ele>
        <time>2021-09-25T11:44:25Z</time>
      </trkpt>
      <trkpt lat="43.13827" lon="3.09151">
        <ele>140.371</ele>
        <time>2021-09-25T11:44:27Z</time>
      </trkpt>
      <trkpt lat="43.13827" lon="3.0915">
        <ele>140.234</ele>
        <time>2021-09-25T11:44:29Z</time>
      </trkpt>
      <trkpt lat="43.13827" lon="3.0915">
        <ele>140.238</ele>
        <time>2021-09-25T11:44:31Z</time>
      </trkpt>
      <trkpt lat="43.13826" lon="3.0915">
        <ele>140.055</ele>
        <time>2021-09-25T11:44:33Z</time>
      </trkpt>
      <trkpt lat="43.13825" lon="3.09148">
        <ele>140.228</ele>
        <time>2021-09-25T11:44:35Z</time>
      </trkpt>
      <trkpt lat="43.13824" lon="3.09145">
        <ele>139.567</ele>
        <time>2021-09-25T11:44:37Z</time>
      </trkpt>
      <trkpt lat="43.13824" lon="3.09143">
        <ele>139.547</ele>
        <time>2021-09-25T11:44:39Z</time>
      </trkpt>
      <trkpt lat="43.13823" lon="3.0914">
        <ele>138.257</ele>
        <time>2021-09-25T11:44:41Z</time>
      </trkpt>
      <trkpt lat="43.13822" lon="3.09138">
        <ele>138.317</ele>
        <time>2021-09-25T11:44:43Z</time>
      </trkpt>
      <trkpt lat="43.13821" lon="3.09135">
        <ele>138.775</ele>
        <time>2021-09-25T11:44:45Z</time>
      </trkpt>
      <trkpt lat="43.13821" lon="3.09132">
        <ele>138.852</ele>
        <time>2021-09-25T11:44:47Z</time>
      </trkpt>
      <trkpt lat="43.1382" lon="3.0913">
        <ele>138.953</ele>
        <time>2021-09-25T11:44:49Z</time>
      </trkpt>
      <trkpt lat="43.13818" lon="3.09127">
        <ele>139.674</ele>
        <time>2021-09-25T11:44:51Z</time>
      </trkpt>
      <trkpt lat="43.13817" lon="3.09126">
        <ele>140.033</ele>
        <time>2021-09-25T11:44:53Z</time>
      </trkpt>
      <trkpt lat="43.13816" lon="3.09124">
        <ele>140.793</ele>
        <time>2021-09-25T11:44:55Z</time>
      </trkpt>
      <trkpt lat="43.13815" lon="3.09122">
        <ele>140.966</ele>
        <time>2021-09-25T11:44:57Z</time>
      </trkpt>
      <trkpt lat="43.13813" lon="3.0912">
        <ele>141.098</ele>
        <time>2021-09-25T11:44:59Z</time>
      </trkpt>
      <trkpt lat="43.13811" lon="3.09119">
        <ele>140.97</ele>
        <time>2021-09-25T11:45:01Z</time>
      </trkpt>
      <trkpt lat="43.1381" lon="3.09118">
        <ele>141.856</ele>
        <time>2021-09-25T11:45:03Z</time>
      </trkpt>
      <trkpt lat="43.1381" lon="3.09118">
        <ele>141.844</ele>
        <time>2021-09-25T11:45:05Z</time>
      </trkpt>
      <trkpt lat="43.13809" lon="3.09117">
        <ele>142.052</ele>
        <time>2021-09-25T11:45:07Z</time>
      </trkpt>
      <trkpt lat="43.13806" lon="3.09117">
        <ele>142.921</ele>
        <time>2021-09-25T11:45:09Z</time>
      </trkpt>
      <trkpt lat="43.13805" lon="3.09115">
        <ele>142.433</ele>
        <time>2021-09-25T11:45:11Z</time>
      </trkpt>
      <trkpt lat="43.13803" lon="3.09114">
        <ele>142.361</ele>
        <time>2021-09-25T11:45:13Z</time>
      </trkpt>
      <trkpt lat="43.13802" lon="3.09113">
        <ele>142.583</ele>
        <time>2021-09-25T11:45:15Z</time>
      </trkpt>
      <trkpt lat="43.138" lon="3.09112">
        <ele>142.803</ele>
        <time>2021-09-25T11:45:17Z</time>
      </trkpt>
      <trkpt lat="43.13798" lon="3.0911">
        <ele>143.016</ele>
        <time>2021-09-25T11:45:19Z</time>
      </trkpt>
      <trkpt lat="43.13796" lon="3.09108">
        <ele>143.079</ele>
        <time>2021-09-25T11:45:21Z</time>
      </trkpt>
      <trkpt lat="43.13794" lon="3.09106">
        <ele>143.159</ele>
        <time>2021-09-25T11:45:23Z</time>
      </trkpt>
      <trkpt lat="43.13793" lon="3.09105">
        <ele>143.687</ele>
        <time>2021-09-25T11:45:25Z</time>
      </trkpt>
      <trkpt lat="43.1379" lon="3.09104">
        <ele>143.533</ele>
        <time>2021-09-25T11:45:27Z</time>
      </trkpt>
      <trkpt lat="43.13788" lon="3.09103">
        <ele>143.796</ele>
        <time>2021-09-25T11:45:29Z</time>
      </trkpt>
      <trkpt lat="43.13787" lon="3.09105">
        <ele>144.109</ele>
        <time>2021-09-25T11:45:31Z</time>
      </trkpt>
      <trkpt lat="43.13786" lon="3.09108">
        <ele>144.598</ele>
        <time>2021-09-25T11:45:33Z</time>
      </trkpt>
      <trkpt lat="43.13785" lon="3.0911">
        <ele>144.806</ele>
        <time>2021-09-25T11:45:35Z</time>
      </trkpt>
      <trkpt lat="43.13784" lon="3.09112">
        <ele>145.327</ele>
        <time>2021-09-25T11:45:37Z</time>
      </trkpt>
      <trkpt lat="43.13783" lon="3.09115">
        <ele>145.648</ele>
        <time>2021-09-25T11:45:39Z</time>
      </trkpt>
      <trkpt lat="43.13782" lon="3.09117">
        <ele>145.378</ele>
        <time>2021-09-25T11:45:41Z</time>
      </trkpt>
      <trkpt lat="43.1378" lon="3.0912">
        <ele>145.651</ele>
        <time>2021-09-25T11:45:43Z</time>
      </trkpt>
      <trkpt lat="43.13778" lon="3.09123">
        <ele>146.666</ele>
        <time>2021-09-25T11:45:45Z</time>
      </trkpt>
      <trkpt lat="43.13776" lon="3.09125">
        <ele>147.5</ele>
        <time>2021-09-25T11:45:47Z</time>
      </trkpt>
      <trkpt lat="43.13775" lon="3.09127">
        <ele>147.505</ele>
        <time>2021-09-25T11:45:49Z</time>
      </trkpt>
      <trkpt lat="43.13774" lon="3.09129">
        <ele>147.701</ele>
        <time>2021-09-25T11:45:51Z</time>
      </trkpt>
      <trkpt lat="43.13774" lon="3.09131">
        <ele>147.825</ele>
        <time>2021-09-25T11:45:53Z</time>
      </trkpt>
      <trkpt lat="43.13773" lon="3.09134">
        <ele>147.942</ele>
        <time>2021-09-25T11:45:55Z</time>
      </trkpt>
      <trkpt lat="43.13771" lon="3.09135">
        <ele>148.133</ele>
        <time>2021-09-25T11:45:57Z</time>
      </trkpt>
      <trkpt lat="43.13769" lon="3.09136">
        <ele>147.891</ele>
        <time>2021-09-25T11:45:59Z</time>
      </trkpt>
      <trkpt lat="43.13767" lon="3.09137">
        <ele>147.454</ele>
        <time>2021-09-25T11:46:01Z</time>
      </trkpt>
      <trkpt lat="43.13766" lon="3.09137">
        <ele>147.536</ele>
        <time>2021-09-25T11:46:03Z</time>
      </trkpt>
      <trkpt lat="43.13764" lon="3.09139">
        <ele>148.339</ele>
        <time>2021-09-25T11:46:05Z</time>
      </trkpt>
      <trkpt lat="43.13763" lon="3.09141">
        <ele>148.184</ele>
        <time>2021-09-25T11:46:07Z</time>
      </trkpt>
      <trkpt lat="43.13761" lon="3.09143">
        <ele>148.24</ele>
        <time>2021-09-25T11:46:09Z</time>
      </trkpt>
      <trkpt lat="43.1376" lon="3.09144">
        <ele>148.028</ele>
        <time>2021-09-25T11:46:11Z</time>
      </trkpt>
      <trkpt lat="43.13758" lon="3.09144">
        <ele>148.077</ele>
        <time>2021-09-25T11:46:13Z</time>
      </trkpt>
      <trkpt lat="43.13755" lon="3.09144">
        <ele>148.52</ele>
        <time>2021-09-25T11:46:15Z</time>
      </trkpt>
      <trkpt lat="43.13754" lon="3.09144">
        <ele>148.279</ele>
        <time>2021-09-25T11:46:17Z</time>
      </trkpt>
      <trkpt lat="43.13752" lon="3.09143">
        <ele>148.468</ele>
        <time>2021-09-25T11:46:19Z</time>
      </trkpt>
      <trkpt lat="43.13749" lon="3.09142">
        <ele>149.085</ele>
        <time>2021-09-25T11:46:21Z</time>
      </trkpt>
      <trkpt lat="43.13747" lon="3.09142">
        <ele>148.466</ele>
        <time>2021-09-25T11:46:23Z</time>
      </trkpt>
      <trkpt lat="43.13745" lon="3.09142">
        <ele>148.371</ele>
        <time>2021-09-25T11:46:25Z</time>
      </trkpt>
      <trkpt lat="43.13743" lon="3.0914">
        <ele>147.844</ele>
        <time>2021-09-25T11:46:27Z</time>
      </trkpt>
      <trkpt lat="43.13741" lon="3.09138">
        <ele>148.302</ele>
        <time>2021-09-25T11:46:29Z</time>
      </trkpt>
      <trkpt lat="43.13739" lon="3.09138">
        <ele>148.51</ele>
        <time>2021-09-25T11:46:31Z</time>
      </trkpt>
      <trkpt lat="43.13737" lon="3.09138">
        <ele>148.599</ele>
        <time>2021-09-25T11:46:33Z</time>
      </trkpt>
      <trkpt lat="43.13735" lon="3.09136">
        <ele>148.228</ele>
        <time>2021-09-25T11:46:35Z</time>
      </trkpt>
      <trkpt lat="43.13733" lon="3.09134">
        <ele>148.26</ele>
        <time>2021-09-25T11:46:37Z</time>
      </trkpt>
      <trkpt lat="43.13731" lon="3.09132">
        <ele>147.939</ele>
        <time>2021-09-25T11:46:39Z</time>
      </trkpt>
      <trkpt lat="43.13729" lon="3.0913">
        <ele>147.558</ele>
        <time>2021-09-25T11:46:41Z</time>
      </trkpt>
      <trkpt lat="43.13727" lon="3.0913">
        <ele>147.712</ele>
        <time>2021-09-25T11:46:43Z</time>
      </trkpt>
      <trkpt lat="43.13725" lon="3.09129">
        <ele>147.238</ele>
        <time>2021-09-25T11:46:45Z</time>
      </trkpt>
      <trkpt lat="43.13723" lon="3.09129">
        <ele>147.206</ele>
        <time>2021-09-25T11:46:47Z</time>
      </trkpt>
      <trkpt lat="43.13721" lon="3.09127">
        <ele>146.951</ele>
        <time>2021-09-25T11:46:49Z</time>
      </trkpt>
      <trkpt lat="43.1372" lon="3.09124">
        <ele>147.109</ele>
        <time>2021-09-25T11:46:51Z</time>
      </trkpt>
      <trkpt lat="43.13719" lon="3.09122">
        <ele>146.522</ele>
        <time>2021-09-25T11:46:53Z</time>
      </trkpt>
      <trkpt lat="43.1372" lon="3.09119">
        <ele>147.096</ele>
        <time>2021-09-25T11:46:55Z</time>
      </trkpt>
      <trkpt lat="43.13719" lon="3.09117">
        <ele>146.967</ele>
        <time>2021-09-25T11:46:57Z</time>
      </trkpt>
      <trkpt lat="43.13718" lon="3.09116">
        <ele>147.152</ele>
        <time>2021-09-25T11:46:59Z</time>
      </trkpt>
      <trkpt lat="43.13716" lon="3.09114">
        <ele>147.1</ele>
        <time>2021-09-25T11:47:01Z</time>
      </trkpt>
      <trkpt lat="43.13715" lon="3.09112">
        <ele>147.338</ele>
        <time>2021-09-25T11:47:03Z</time>
      </trkpt>
      <trkpt lat="43.13713" lon="3.0911">
        <ele>147.073</ele>
        <time>2021-09-25T11:47:05Z</time>
      </trkpt>
      <trkpt lat="43.13712" lon="3.09109">
        <ele>146.841</ele>
        <time>2021-09-25T11:47:07Z</time>
      </trkpt>
      <trkpt lat="43.13711" lon="3.09107">
        <ele>146.753</ele>
        <time>2021-09-25T11:47:09Z</time>
      </trkpt>
      <trkpt lat="43.1371" lon="3.09104">
        <ele>146.859</ele>
        <time>2021-09-25T11:47:11Z</time>
      </trkpt>
      <trkpt lat="43.13709" lon="3.09102">
        <ele>146.798</ele>
        <time>2021-09-25T11:47:13Z</time>
      </trkpt>
      <trkpt lat="43.13708" lon="3.09099">
        <ele>147.052</ele>
        <time>2021-09-25T11:47:15Z</time>
      </trkpt>
      <trkpt lat="43.13707" lon="3.09098">
        <ele>147.155</ele>
        <time>2021-09-25T11:47:17Z</time>
      </trkpt>
      <trkpt lat="43.13706" lon="3.09096">
        <ele>146.772</ele>
        <time>2021-09-25T11:47:19Z</time>
      </trkpt>
      <trkpt lat="43.13706" lon="3.09093">
        <ele>146.376</ele>
        <time>2021-09-25T11:47:21Z</time>
      </trkpt>
      <trkpt lat="43.13706" lon="3.0909">
        <ele>146.393</ele>
        <time>2021-09-25T11:47:23Z</time>
      </trkpt>
      <trkpt lat="43.13705" lon="3.09087">
        <ele>146.711</ele>
        <time>2021-09-25T11:47:25Z</time>
      </trkpt>
      <trkpt lat="43.13704" lon="3.09084">
        <ele>146.536</ele>
        <time>2021-09-25T11:47:27Z</time>
      </trkpt>
      <trkpt lat="43.13703" lon="3.09082">
        <ele>146.63</ele>
        <time>2021-09-25T11:47:29Z</time>
      </trkpt>
      <trkpt lat="43.13702" lon="3.0908">
        <ele>146.661</ele>
        <time>2021-09-25T11:47:31Z</time>
      </trkpt>
      <trkpt lat="43.13701" lon="3.09078">
        <ele>146.482</ele>
        <time>2021-09-25T11:47:33Z</time>
      </trkpt>
      <trkpt lat="43.13701" lon="3.09075">
        <ele>146.355</ele>
        <time>2021-09-25T11:47:35Z</time>
      </trkpt>
      <trkpt lat="43.137" lon="3.09072">
        <ele>146.088</ele>
        <time>2021-09-25T11:47:37Z</time>
      </trkpt>
      <trkpt lat="43.13699" lon="3.0907">
        <ele>145.673</ele>
        <time>2021-09-25T11:47:39Z</time>
      </trkpt>
      <trkpt lat="43.13699" lon="3.09069">
        <ele>146.073</ele>
        <time>2021-09-25T11:47:41Z</time>
      </trkpt>
      <trkpt lat="43.13699" lon="3.09068">
        <ele>145.875</ele>
        <time>2021-09-25T11:47:43Z</time>
      </trkpt>
      <trkpt lat="43.137" lon="3.09066">
        <ele>145.811</ele>
        <time>2021-09-25T11:47:45Z</time>
      </trkpt>
      <trkpt lat="43.13702" lon="3.09065">
        <ele>145.506</ele>
        <time>2021-09-25T11:47:47Z</time>
      </trkpt>
      <trkpt lat="43.13704" lon="3.09066">
        <ele>146.342</ele>
        <time>2021-09-25T11:47:49Z</time>
      </trkpt>
      <trkpt lat="43.13706" lon="3.09066">
        <ele>146.817</ele>
        <time>2021-09-25T11:47:51Z</time>
      </trkpt>
      <trkpt lat="43.13707" lon="3.09066">
        <ele>146.284</ele>
        <time>2021-09-25T11:47:53Z</time>
      </trkpt>
      <trkpt lat="43.13709" lon="3.09066">
        <ele>145.43</ele>
        <time>2021-09-25T11:47:55Z</time>
      </trkpt>
      <trkpt lat="43.1371" lon="3.09066">
        <ele>145.092</ele>
        <time>2021-09-25T11:47:57Z</time>
      </trkpt>
      <trkpt lat="43.13712" lon="3.09065">
        <ele>145.311</ele>
        <time>2021-09-25T11:47:59Z</time>
      </trkpt>
      <trkpt lat="43.13712" lon="3.09065">
        <ele>146.07</ele>
        <time>2021-09-25T11:48:01Z</time>
      </trkpt>
      <trkpt lat="43.13712" lon="3.09064">
        <ele>146.083</ele>
        <time>2021-09-25T11:48:03Z</time>
      </trkpt>
      <trkpt lat="43.13712" lon="3.09064">
        <ele>145.71</ele>
        <time>2021-09-25T11:48:05Z</time>
      </trkpt>
      <trkpt lat="43.13712" lon="3.09064">
        <ele>145.718</ele>
        <time>2021-09-25T11:48:07Z</time>
      </trkpt>
      <trkpt lat="43.13712" lon="3.09064">
        <ele>145.713</ele>
        <time>2021-09-25T11:48:09Z</time>
      </trkpt>
      <trkpt lat="43.13713" lon="3.09063">
        <ele>145.598</ele>
        <time>2021-09-25T11:48:11Z</time>
      </trkpt>
      <trkpt lat="43.13714" lon="3.09061">
        <ele>145.281</ele>
        <time>2021-09-25T11:48:13Z</time>
      </trkpt>
      <trkpt lat="43.13713" lon="3.09062">
        <ele>145.268</ele>
        <time>2021-09-25T11:48:15Z</time>
      </trkpt>
      <trkpt lat="43.13713" lon="3.09062">
        <ele>145.266</ele>
        <time>2021-09-25T11:48:17Z</time>
      </trkpt>
      <trkpt lat="43.13714" lon="3.09061">
        <ele>144.846</ele>
        <time>2021-09-25T11:48:19Z</time>
      </trkpt>
      <trkpt lat="43.13713" lon="3.09059">
        <ele>144.939</ele>
        <time>2021-09-25T11:48:21Z</time>
      </trkpt>
      <trkpt lat="43.13713" lon="3.09059">
        <ele>144.91</ele>
        <time>2021-09-25T11:48:23Z</time>
      </trkpt>
      <trkpt lat="43.13713" lon="3.09057">
        <ele>143.94</ele>
        <time>2021-09-25T11:48:25Z</time>
      </trkpt>
      <trkpt lat="43.13713" lon="3.09056">
        <ele>143.68</ele>
        <time>2021-09-25T11:48:27Z</time>
      </trkpt>
      <trkpt lat="43.13712" lon="3.09055">
        <ele>142.872</ele>
        <time>2021-09-25T11:48:29Z</time>
      </trkpt>
      <trkpt lat="43.13711" lon="3.09055">
        <ele>142.509</ele>
        <time>2021-09-25T11:48:31Z</time>
      </trkpt>
      <trkpt lat="43.13711" lon="3.09054">
        <ele>142.403</ele>
        <time>2021-09-25T11:48:33Z</time>
      </trkpt>
      <trkpt lat="43.1371" lon="3.09055">
        <ele>141.742</ele>
        <time>2021-09-25T11:48:35Z</time>
      </trkpt>
      <trkpt lat="43.1371" lon="3.09055">
        <ele>141.282</ele>
        <time>2021-09-25T11:48:37Z</time>
      </trkpt>
      <trkpt lat="43.13709" lon="3.09056">
        <ele>141.118</ele>
        <time>2021-09-25T11:48:39Z</time>
      </trkpt>
      <trkpt lat="43.1371" lon="3.09057">
        <ele>140.221</ele>
        <time>2021-09-25T11:48:41Z</time>
      </trkpt>
      <trkpt lat="43.1371" lon="3.09057">
        <ele>140.219</ele>
        <time>2021-09-25T11:48:43Z</time>
      </trkpt>
      <trkpt lat="43.1371" lon="3.09057">
        <ele>140.218</ele>
        <time>2021-09-25T11:48:45Z</time>
      </trkpt>
      <trkpt lat="43.1371" lon="3.09057">
        <ele>140.225</ele>
        <time>2021-09-25T11:48:47Z</time>
      </trkpt>
      <trkpt lat="43.1371" lon="3.09057">
        <ele>140.223</ele>
        <time>2021-09-25T11:48:49Z</time>
      </trkpt>
      <trkpt lat="43.1371" lon="3.09057">
        <ele>140.226</ele>
        <time>2021-09-25T11:48:51Z</time>
      </trkpt>
      <trkpt lat="43.1371" lon="3.09057">
        <ele>140.227</ele>
        <time>2021-09-25T11:48:53Z</time>
      </trkpt>
      <trkpt lat="43.1371" lon="3.09057">
        <ele>139.884</ele>
        <time>2021-09-25T11:48:55Z</time>
      </trkpt>
      <trkpt lat="43.1371" lon="3.09057">
        <ele>139.877</ele>
        <time>2021-09-25T11:48:57Z</time>
      </trkpt>
      <trkpt lat="43.1371" lon="3.09057">
        <ele>139.878</ele>
        <time>2021-09-25T11:48:59Z</time>
      </trkpt>
      <trkpt lat="43.1371" lon="3.09057">
        <ele>139.881</ele>
        <time>2021-09-25T11:49:01Z</time>
      </trkpt>
      <trkpt lat="43.1371" lon="3.09057">
        <ele>139.878</ele>
        <time>2021-09-25T11:49:03Z</time>
      </trkpt>
      <trkpt lat="43.1371" lon="3.09057">
        <ele>139.875</ele>
        <time>2021-09-25T11:49:05Z</time>
      </trkpt>
      <trkpt lat="43.1371" lon="3.09057">
        <ele>139.874</ele>
        <time>2021-09-25T11:49:07Z</time>
      </trkpt>
      <trkpt lat="43.1371" lon="3.09057">
        <ele>139.871</ele>
        <time>2021-09-25T11:49:09Z</time>
      </trkpt>
      <trkpt lat="43.1371" lon="3.09057">
        <ele>139.87</ele>
        <time>2021-09-25T11:49:11Z</time>
      </trkpt>
      <trkpt lat="43.1371" lon="3.09057">
        <ele>139.66</ele>
        <time>2021-09-25T11:49:13Z</time>
      </trkpt>
      <trkpt lat="43.13711" lon="3.09056">
        <ele>139.391</ele>
        <time>2021-09-25T11:49:15Z</time>
      </trkpt>
      <trkpt lat="43.1371" lon="3.09054">
        <ele>140.078</ele>
        <time>2021-09-25T11:49:17Z</time>
      </trkpt>
      <trkpt lat="43.13709" lon="3.09053">
        <ele>139.358</ele>
        <time>2021-09-25T11:49:19Z</time>
      </trkpt>
      <trkpt lat="43.13708" lon="3.09051">
        <ele>138.761</ele>
        <time>2021-09-25T11:49:21Z</time>
      </trkpt>
      <trkpt lat="43.13709" lon="3.0905">
        <ele>138.184</ele>
        <time>2021-09-25T11:49:23Z</time>
      </trkpt>
      <trkpt lat="43.1371" lon="3.09049">
        <ele>138.29</ele>
        <time>2021-09-25T11:49:25Z</time>
      </trkpt>
      <trkpt lat="43.1371" lon="3.09047">
        <ele>138.397</ele>
        <time>2021-09-25T11:49:27Z</time>
      </trkpt>
      <trkpt lat="43.1371" lon="3.09045">
        <ele>139.169</ele>
        <time>2021-09-25T11:49:29Z</time>
      </trkpt>
      <trkpt lat="43.13709" lon="3.09045">
        <ele>139.575</ele>
        <time>2021-09-25T11:49:31Z</time>
      </trkpt>
      <trkpt lat="43.13708" lon="3.09044">
        <ele>139.39</ele>
        <time>2021-09-25T11:49:33Z</time>
      </trkpt>
      <trkpt lat="43.13707" lon="3.09045">
        <ele>138.517</ele>
        <time>2021-09-25T11:49:35Z</time>
      </trkpt>
      <trkpt lat="43.13706" lon="3.09043">
        <ele>137.397</ele>
        <time>2021-09-25T11:49:37Z</time>
      </trkpt>
      <trkpt lat="43.13707" lon="3.09042">
        <ele>137.048</ele>
        <time>2021-09-25T11:49:39Z</time>
      </trkpt>
      <trkpt lat="43.13708" lon="3.09041">
        <ele>136.25</ele>
        <time>2021-09-25T11:49:41Z</time>
      </trkpt>
      <trkpt lat="43.13707" lon="3.0904">
        <ele>135.76</ele>
        <time>2021-09-25T11:49:43Z</time>
      </trkpt>
      <trkpt lat="43.13707" lon="3.09039">
        <ele>135.481</ele>
        <time>2021-09-25T11:49:45Z</time>
      </trkpt>
      <trkpt lat="43.13707" lon="3.09039">
        <ele>135.48</ele>
        <time>2021-09-25T11:49:47Z</time>
      </trkpt>
      <trkpt lat="43.13707" lon="3.09039">
        <ele>135.479</ele>
        <time>2021-09-25T11:49:49Z</time>
      </trkpt>
      <trkpt lat="43.13707" lon="3.09039">
        <ele>135.475</ele>
        <time>2021-09-25T11:49:51Z</time>
      </trkpt>
      <trkpt lat="43.13707" lon="3.09039">
        <ele>135.471</ele>
        <time>2021-09-25T11:49:53Z</time>
      </trkpt>
      <trkpt lat="43.13707" lon="3.09039">
        <ele>135.475</ele>
        <time>2021-09-25T11:49:55Z</time>
      </trkpt>
      <trkpt lat="43.13707" lon="3.09039">
        <ele>135.469</ele>
        <time>2021-09-25T11:49:57Z</time>
      </trkpt>
      <trkpt lat="43.13707" lon="3.09039">
        <ele>135.714</ele>
        <time>2021-09-25T11:49:59Z</time>
      </trkpt>
      <trkpt lat="43.13707" lon="3.0904">
        <ele>135.884</ele>
        <time>2021-09-25T11:50:01Z</time>
      </trkpt>
      <trkpt lat="43.13707" lon="3.0904">
        <ele>135.902</ele>
        <time>2021-09-25T11:50:03Z</time>
      </trkpt>
      <trkpt lat="43.13707" lon="3.0904">
        <ele>135.895</ele>
        <time>2021-09-25T11:50:05Z</time>
      </trkpt>
      <trkpt lat="43.13707" lon="3.0904">
        <ele>135.897</ele>
        <time>2021-09-25T11:50:07Z</time>
      </trkpt>
      <trkpt lat="43.13707" lon="3.09041">
        <ele>136.293</ele>
        <time>2021-09-25T11:50:09Z</time>
      </trkpt>
      <trkpt lat="43.13707" lon="3.09042">
        <ele>134.974</ele>
        <time>2021-09-25T11:50:11Z</time>
      </trkpt>
      <trkpt lat="43.13707" lon="3.09045">
        <ele>134.974</ele>
        <time>2021-09-25T11:50:13Z</time>
      </trkpt>
      <trkpt lat="43.13708" lon="3.09047">
        <ele>135.514</ele>
        <time>2021-09-25T11:50:15Z</time>
      </trkpt>
      <trkpt lat="43.13709" lon="3.09049">
        <ele>135.854</ele>
        <time>2021-09-25T11:50:17Z</time>
      </trkpt>
      <trkpt lat="43.1371" lon="3.0905">
        <ele>135.527</ele>
        <time>2021-09-25T11:50:19Z</time>
      </trkpt>
      <trkpt lat="43.1371" lon="3.09051">
        <ele>135.45</ele>
        <time>2021-09-25T11:50:21Z</time>
      </trkpt>
      <trkpt lat="43.13709" lon="3.09052">
        <ele>135.735</ele>
        <time>2021-09-25T11:50:23Z</time>
      </trkpt>
      <trkpt lat="43.13708" lon="3.09054">
        <ele>136.74</ele>
        <time>2021-09-25T11:50:25Z</time>
      </trkpt>
      <trkpt lat="43.13709" lon="3.09055">
        <ele>137.225</ele>
        <time>2021-09-25T11:50:27Z</time>
      </trkpt>
      <trkpt lat="43.13709" lon="3.09056">
        <ele>137.247</ele>
        <time>2021-09-25T11:50:29Z</time>
      </trkpt>
      <trkpt lat="43.13709" lon="3.09058">
        <ele>137.694</ele>
        <time>2021-09-25T11:50:31Z</time>
      </trkpt>
      <trkpt lat="43.13709" lon="3.0906">
        <ele>138.014</ele>
        <time>2021-09-25T11:50:33Z</time>
      </trkpt>
      <trkpt lat="43.1371" lon="3.09061">
        <ele>138.701</ele>
        <time>2021-09-25T11:50:35Z</time>
      </trkpt>
      <trkpt lat="43.13711" lon="3.09062">
        <ele>139.379</ele>
        <time>2021-09-25T11:50:37Z</time>
      </trkpt>
      <trkpt lat="43.13712" lon="3.09063">
        <ele>140.557</ele>
        <time>2021-09-25T11:50:39Z</time>
      </trkpt>
      <trkpt lat="43.13713" lon="3.09064">
        <ele>141.06</ele>
        <time>2021-09-25T11:50:41Z</time>
      </trkpt>
      <trkpt lat="43.13714" lon="3.09064">
        <ele>141.321</ele>
        <time>2021-09-25T11:50:43Z</time>
      </trkpt>
      <trkpt lat="43.13714" lon="3.09064">
        <ele>141.482</ele>
        <time>2021-09-25T11:50:45Z</time>
      </trkpt>
      <trkpt lat="43.13714" lon="3.09064">
        <ele>141.485</ele>
        <time>2021-09-25T11:50:47Z</time>
      </trkpt>
      <trkpt lat="43.13714" lon="3.09064">
        <ele>141.403</ele>
        <time>2021-09-25T11:50:49Z</time>
      </trkpt>
      <trkpt lat="43.13714" lon="3.09065">
        <ele>140.959</ele>
        <time>2021-09-25T11:50:51Z</time>
      </trkpt>
      <trkpt lat="43.13713" lon="3.09066">
        <ele>141.001</ele>
        <time>2021-09-25T11:50:53Z</time>
      </trkpt>
      <trkpt lat="43.13712" lon="3.09067">
        <ele>141.655</ele>
        <time>2021-09-25T11:50:55Z</time>
      </trkpt>
      <trkpt lat="43.1371" lon="3.09067">
        <ele>141.864</ele>
        <time>2021-09-25T11:50:57Z</time>
      </trkpt>
      <trkpt lat="43.13709" lon="3.09067">
        <ele>142.214</ele>
        <time>2021-09-25T11:50:59Z</time>
      </trkpt>
      <trkpt lat="43.13707" lon="3.09066">
        <ele>142.07</ele>
        <time>2021-09-25T11:51:01Z</time>
      </trkpt>
      <trkpt lat="43.13705" lon="3.09066">
        <ele>143.017</ele>
        <time>2021-09-25T11:51:03Z</time>
      </trkpt>
      <trkpt lat="43.13703" lon="3.09066">
        <ele>142.941</ele>
        <time>2021-09-25T11:51:05Z</time>
      </trkpt>
      <trkpt lat="43.13701" lon="3.09066">
        <ele>143.09</ele>
        <time>2021-09-25T11:51:07Z</time>
      </trkpt>
      <trkpt lat="43.13699" lon="3.09067">
        <ele>143.276</ele>
        <time>2021-09-25T11:51:09Z</time>
      </trkpt>
      <trkpt lat="43.13698" lon="3.09068">
        <ele>143.873</ele>
        <time>2021-09-25T11:51:11Z</time>
      </trkpt>
      <trkpt lat="43.13697" lon="3.09069">
        <ele>144.431</ele>
        <time>2021-09-25T11:51:13Z</time>
      </trkpt>
      <trkpt lat="43.13695" lon="3.09069">
        <ele>145.084</ele>
        <time>2021-09-25T11:51:15Z</time>
      </trkpt>
      <trkpt lat="43.13693" lon="3.09068">
        <ele>145.196</ele>
        <time>2021-09-25T11:51:17Z</time>
      </trkpt>
      <trkpt lat="43.13693" lon="3.09068">
        <ele>145.573</ele>
        <time>2021-09-25T11:51:19Z</time>
      </trkpt>
      <trkpt lat="43.13692" lon="3.09068">
        <ele>145.558</ele>
        <time>2021-09-25T11:51:21Z</time>
      </trkpt>
      <trkpt lat="43.1369" lon="3.09067">
        <ele>146.262</ele>
        <time>2021-09-25T11:51:23Z</time>
      </trkpt>
      <trkpt lat="43.13689" lon="3.09065">
        <ele>146.565</ele>
        <time>2021-09-25T11:51:25Z</time>
      </trkpt>
      <trkpt lat="43.13687" lon="3.09064">
        <ele>146.794</ele>
        <time>2021-09-25T11:51:27Z</time>
      </trkpt>
      <trkpt lat="43.13685" lon="3.09063">
        <ele>147.073</ele>
        <time>2021-09-25T11:51:29Z</time>
      </trkpt>
      <trkpt lat="43.13684" lon="3.09061">
        <ele>147.142</ele>
        <time>2021-09-25T11:51:31Z</time>
      </trkpt>
      <trkpt lat="43.13682" lon="3.0906">
        <ele>147.093</ele>
        <time>2021-09-25T11:51:33Z</time>
      </trkpt>
      <trkpt lat="43.1368" lon="3.0906">
        <ele>147.153</ele>
        <time>2021-09-25T11:51:35Z</time>
      </trkpt>
      <trkpt lat="43.13679" lon="3.09059">
        <ele>147.067</ele>
        <time>2021-09-25T11:51:37Z</time>
      </trkpt>
      <trkpt lat="43.13677" lon="3.09058">
        <ele>147.398</ele>
        <time>2021-09-25T11:51:39Z</time>
      </trkpt>
      <trkpt lat="43.13676" lon="3.09057">
        <ele>147.171</ele>
        <time>2021-09-25T11:51:41Z</time>
      </trkpt>
      <trkpt lat="43.13674" lon="3.09055">
        <ele>147.58</ele>
        <time>2021-09-25T11:51:43Z</time>
      </trkpt>
      <trkpt lat="43.13672" lon="3.09053">
        <ele>147.235</ele>
        <time>2021-09-25T11:51:45Z</time>
      </trkpt>
      <trkpt lat="43.13671" lon="3.09054">
        <ele>147.632</ele>
        <time>2021-09-25T11:51:47Z</time>
      </trkpt>
      <trkpt lat="43.1367" lon="3.09056">
        <ele>147.233</ele>
        <time>2021-09-25T11:51:49Z</time>
      </trkpt>
      <trkpt lat="43.1367" lon="3.09059">
        <ele>147.229</ele>
        <time>2021-09-25T11:51:51Z</time>
      </trkpt>
      <trkpt lat="43.13672" lon="3.09062">
        <ele>147.357</ele>
        <time>2021-09-25T11:51:53Z</time>
      </trkpt>
      <trkpt lat="43.13674" lon="3.09064">
        <ele>147.897</ele>
        <time>2021-09-25T11:51:55Z</time>
      </trkpt>
      <trkpt lat="43.13676" lon="3.09065">
        <ele>147.908</ele>
        <time>2021-09-25T11:51:57Z</time>
      </trkpt>
      <trkpt lat="43.13678" lon="3.09066">
        <ele>148.313</ele>
        <time>2021-09-25T11:51:59Z</time>
      </trkpt>
      <trkpt lat="43.13679" lon="3.09068">
        <ele>148.584</ele>
        <time>2021-09-25T11:52:01Z</time>
      </trkpt>
      <trkpt lat="43.13681" lon="3.0907">
        <ele>148.772</ele>
        <time>2021-09-25T11:52:03Z</time>
      </trkpt>
      <trkpt lat="43.13683" lon="3.09071">
        <ele>148.863</ele>
        <time>2021-09-25T11:52:05Z</time>
      </trkpt>
      <trkpt lat="43.13684" lon="3.09072">
        <ele>149.189</ele>
        <time>2021-09-25T11:52:07Z</time>
      </trkpt>
      <trkpt lat="43.13685" lon="3.09072">
        <ele>149.207</ele>
        <time>2021-09-25T11:52:09Z</time>
      </trkpt>
      <trkpt lat="43.13685" lon="3.09072">
        <ele>149.202</ele>
        <time>2021-09-25T11:52:11Z</time>
      </trkpt>
      <trkpt lat="43.13686" lon="3.09072">
        <ele>149.093</ele>
        <time>2021-09-25T11:52:13Z</time>
      </trkpt>
      <trkpt lat="43.13688" lon="3.09072">
        <ele>148.864</ele>
        <time>2021-09-25T11:52:15Z</time>
      </trkpt>
      <trkpt lat="43.1369" lon="3.09072">
        <ele>148.976</ele>
        <time>2021-09-25T11:52:17Z</time>
      </trkpt>
      <trkpt lat="43.13692" lon="3.09072">
        <ele>148.88</ele>
        <time>2021-09-25T11:52:19Z</time>
      </trkpt>
      <trkpt lat="43.13694" lon="3.09072">
        <ele>148.865</ele>
        <time>2021-09-25T11:52:21Z</time>
      </trkpt>
      <trkpt lat="43.13696" lon="3.09073">
        <ele>148.539</ele>
        <time>2021-09-25T11:52:23Z</time>
      </trkpt>
      <trkpt lat="43.13698" lon="3.09074">
        <ele>148.321</ele>
        <time>2021-09-25T11:52:25Z</time>
      </trkpt>
      <trkpt lat="43.137" lon="3.09075">
        <ele>148.736</ele>
        <time>2021-09-25T11:52:27Z</time>
      </trkpt>
      <trkpt lat="43.137" lon="3.09076">
        <ele>148.993</ele>
        <time>2021-09-25T11:52:29Z</time>
      </trkpt>
      <trkpt lat="43.137" lon="3.09076">
        <ele>148.986</ele>
        <time>2021-09-25T11:52:31Z</time>
      </trkpt>
      <trkpt lat="43.13701" lon="3.09076">
        <ele>148.915</ele>
        <time>2021-09-25T11:52:33Z</time>
      </trkpt>
      <trkpt lat="43.13702" lon="3.09077">
        <ele>148.493</ele>
        <time>2021-09-25T11:52:35Z</time>
      </trkpt>
      <trkpt lat="43.13703" lon="3.09079">
        <ele>148.602</ele>
        <time>2021-09-25T11:52:37Z</time>
      </trkpt>
      <trkpt lat="43.13704" lon="3.09081">
        <ele>148.807</ele>
        <time>2021-09-25T11:52:39Z</time>
      </trkpt>
      <trkpt lat="43.13705" lon="3.09083">
        <ele>148.835</ele>
        <time>2021-09-25T11:52:41Z</time>
      </trkpt>
      <trkpt lat="43.13706" lon="3.09085">
        <ele>148.683</ele>
        <time>2021-09-25T11:52:43Z</time>
      </trkpt>
      <trkpt lat="43.13707" lon="3.09085">
        <ele>148.737</ele>
        <time>2021-09-25T11:52:45Z</time>
      </trkpt>
      <trkpt lat="43.13709" lon="3.09084">
        <ele>148.195</ele>
        <time>2021-09-25T11:52:47Z</time>
      </trkpt>
      <trkpt lat="43.13711" lon="3.09085">
        <ele>148.17</ele>
        <time>2021-09-25T11:52:49Z</time>
      </trkpt>
      <trkpt lat="43.13713" lon="3.09085">
        <ele>147.875</ele>
        <time>2021-09-25T11:52:51Z</time>
      </trkpt>
      <trkpt lat="43.13714" lon="3.09083">
        <ele>147.321</ele>
        <time>2021-09-25T11:52:53Z</time>
      </trkpt>
      <trkpt lat="43.13715" lon="3.09082">
        <ele>147.645</ele>
        <time>2021-09-25T11:52:55Z</time>
      </trkpt>
      <trkpt lat="43.13717" lon="3.09082">
        <ele>147.952</ele>
        <time>2021-09-25T11:52:57Z</time>
      </trkpt>
      <trkpt lat="43.13719" lon="3.09081">
        <ele>147.641</ele>
        <time>2021-09-25T11:52:59Z</time>
      </trkpt>
      <trkpt lat="43.1372" lon="3.0908">
        <ele>147.331</ele>
        <time>2021-09-25T11:53:01Z</time>
      </trkpt>
      <trkpt lat="43.13721" lon="3.0908">
        <ele>147.71</ele>
        <time>2021-09-25T11:53:03Z</time>
      </trkpt>
      <trkpt lat="43.13721" lon="3.0908">
        <ele>147.736</ele>
        <time>2021-09-25T11:53:05Z</time>
      </trkpt>
      <trkpt lat="43.13722" lon="3.0908">
        <ele>147.611</ele>
        <time>2021-09-25T11:53:07Z</time>
      </trkpt>
      <trkpt lat="43.13724" lon="3.09081">
        <ele>147.418</ele>
        <time>2021-09-25T11:53:09Z</time>
      </trkpt>
      <trkpt lat="43.13726" lon="3.09083">
        <ele>147.162</ele>
        <time>2021-09-25T11:53:11Z</time>
      </trkpt>
      <trkpt lat="43.13728" lon="3.09083">
        <ele>147.74</ele>
        <time>2021-09-25T11:53:13Z</time>
      </trkpt>
      <trkpt lat="43.1373" lon="3.09083">
        <ele>147.875</ele>
        <time>2021-09-25T11:53:15Z</time>
      </trkpt>
      <trkpt lat="43.13732" lon="3.09083">
        <ele>147.766</ele>
        <time>2021-09-25T11:53:17Z</time>
      </trkpt>
      <trkpt lat="43.13734" lon="3.09082">
        <ele>148.002</ele>
        <time>2021-09-25T11:53:19Z</time>
      </trkpt>
      <trkpt lat="43.13735" lon="3.0908">
        <ele>147.686</ele>
        <time>2021-09-25T11:53:21Z</time>
      </trkpt>
      <trkpt lat="43.13735" lon="3.0908">
        <ele>147.773</ele>
        <time>2021-09-25T11:53:23Z</time>
      </trkpt>
      <trkpt lat="43.13735" lon="3.09079">
        <ele>147.721</ele>
        <time>2021-09-25T11:53:25Z</time>
      </trkpt>
      <trkpt lat="43.13735" lon="3.09077">
        <ele>147.492</ele>
        <time>2021-09-25T11:53:27Z</time>
      </trkpt>
      <trkpt lat="43.13736" lon="3.09075">
        <ele>147.255</ele>
        <time>2021-09-25T11:53:29Z</time>
      </trkpt>
      <trkpt lat="43.13738" lon="3.09072">
        <ele>147.06</ele>
        <time>2021-09-25T11:53:31Z</time>
      </trkpt>
      <trkpt lat="43.1374" lon="3.0907">
        <ele>147.324</ele>
        <time>2021-09-25T11:53:33Z</time>
      </trkpt>
      <trkpt lat="43.1374" lon="3.09069">
        <ele>147.805</ele>
        <time>2021-09-25T11:53:35Z</time>
      </trkpt>
      <trkpt lat="43.13741" lon="3.09066">
        <ele>147.467</ele>
        <time>2021-09-25T11:53:37Z</time>
      </trkpt>
      <trkpt lat="43.13741" lon="3.09063">
        <ele>146.867</ele>
        <time>2021-09-25T11:53:39Z</time>
      </trkpt>
      <trkpt lat="43.13741" lon="3.09061">
        <ele>146.811</ele>
        <time>2021-09-25T11:53:41Z</time>
      </trkpt>
      <trkpt lat="43.13743" lon="3.09061">
        <ele>146.709</ele>
        <time>2021-09-25T11:53:43Z</time>
      </trkpt>
      <trkpt lat="43.13744" lon="3.0906">
        <ele>146.672</ele>
        <time>2021-09-25T11:53:45Z</time>
      </trkpt>
      <trkpt lat="43.13745" lon="3.09059">
        <ele>146.42</ele>
        <time>2021-09-25T11:53:47Z</time>
      </trkpt>
      <trkpt lat="43.13747" lon="3.09057">
        <ele>146.509</ele>
        <time>2021-09-25T11:53:49Z</time>
      </trkpt>
      <trkpt lat="43.13748" lon="3.09056">
        <ele>146.365</ele>
        <time>2021-09-25T11:53:51Z</time>
      </trkpt>
      <trkpt lat="43.1375" lon="3.09055">
        <ele>146.027</ele>
        <time>2021-09-25T11:53:53Z</time>
      </trkpt>
      <trkpt lat="43.13751" lon="3.09053">
        <ele>145.064</ele>
        <time>2021-09-25T11:53:55Z</time>
      </trkpt>
      <trkpt lat="43.13752" lon="3.09051">
        <ele>144.138</ele>
        <time>2021-09-25T11:53:57Z</time>
      </trkpt>
      <trkpt lat="43.13753" lon="3.09049">
        <ele>143.571</ele>
        <time>2021-09-25T11:53:59Z</time>
      </trkpt>
      <trkpt lat="43.13755" lon="3.09047">
        <ele>143.059</ele>
        <time>2021-09-25T11:54:01Z</time>
      </trkpt>
      <trkpt lat="43.13755" lon="3.09044">
        <ele>142.878</ele>
        <time>2021-09-25T11:54:03Z</time>
      </trkpt>
      <trkpt lat="43.13756" lon="3.09042">
        <ele>143.49</ele>
        <time>2021-09-25T11:54:05Z</time>
      </trkpt>
      <trkpt lat="43.13755" lon="3.09039">
        <ele>143.314</ele>
        <time>2021-09-25T11:54:07Z</time>
      </trkpt>
      <trkpt lat="43.13757" lon="3.0904">
        <ele>142.756</ele>
        <time>2021-09-25T11:54:09Z</time>
      </trkpt>
      <trkpt lat="43.13757" lon="3.09038">
        <ele>142.825</ele>
        <time>2021-09-25T11:54:11Z</time>
      </trkpt>
      <trkpt lat="43.13757" lon="3.09037">
        <ele>142.72</ele>
        <time>2021-09-25T11:54:13Z</time>
      </trkpt>
      <trkpt lat="43.1376" lon="3.09034">
        <ele>142.414</ele>
        <time>2021-09-25T11:54:16Z</time>
      </trkpt>
      <trkpt lat="43.13762" lon="3.09033">
        <ele>142.129</ele>
        <time>2021-09-25T11:54:18Z</time>
      </trkpt>
      <trkpt lat="43.13764" lon="3.09031">
        <ele>141.818</ele>
        <time>2021-09-25T11:54:20Z</time>
      </trkpt>
      <trkpt lat="43.13764" lon="3.0903">
        <ele>142.318</ele>
        <time>2021-09-25T11:54:22Z</time>
      </trkpt>
      <trkpt lat="43.13765" lon="3.0903">
        <ele>142.316</ele>
        <time>2021-09-25T11:54:24Z</time>
      </trkpt>
      <trkpt lat="43.13765" lon="3.09027">
        <ele>142.152</ele>
        <time>2021-09-25T11:54:26Z</time>
      </trkpt>
      <trkpt lat="43.13766" lon="3.09025">
        <ele>141.506</ele>
        <time>2021-09-25T11:54:28Z</time>
      </trkpt>
      <trkpt lat="43.13767" lon="3.09022">
        <ele>141.504</ele>
        <time>2021-09-25T11:54:30Z</time>
      </trkpt>
      <trkpt lat="43.13769" lon="3.0902">
        <ele>141.184</ele>
        <time>2021-09-25T11:54:32Z</time>
      </trkpt>
      <trkpt lat="43.1377" lon="3.09018">
        <ele>140.293</ele>
        <time>2021-09-25T11:54:34Z</time>
      </trkpt>
      <trkpt lat="43.13772" lon="3.09016">
        <ele>139.923</ele>
        <time>2021-09-25T11:54:36Z</time>
      </trkpt>
      <trkpt lat="43.13773" lon="3.09013">
        <ele>139.226</ele>
        <time>2021-09-25T11:54:38Z</time>
      </trkpt>
      <trkpt lat="43.13774" lon="3.0901">
        <ele>138.814</ele>
        <time>2021-09-25T11:54:40Z</time>
      </trkpt>
      <trkpt lat="43.13776" lon="3.09008">
        <ele>138.79</ele>
        <time>2021-09-25T11:54:42Z</time>
      </trkpt>
      <trkpt lat="43.13777" lon="3.09007">
        <ele>138.739</ele>
        <time>2021-09-25T11:54:44Z</time>
      </trkpt>
      <trkpt lat="43.13779" lon="3.09005">
        <ele>138.861</ele>
        <time>2021-09-25T11:54:46Z</time>
      </trkpt>
      <trkpt lat="43.1378" lon="3.09003">
        <ele>138.881</ele>
        <time>2021-09-25T11:54:48Z</time>
      </trkpt>
      <trkpt lat="43.13781" lon="3.09001">
        <ele>138.797</ele>
        <time>2021-09-25T11:54:50Z</time>
      </trkpt>
      <trkpt lat="43.13783" lon="3.09">
        <ele>138.327</ele>
        <time>2021-09-25T11:54:52Z</time>
      </trkpt>
      <trkpt lat="43.13785" lon="3.08998">
        <ele>138.54</ele>
        <time>2021-09-25T11:54:54Z</time>
      </trkpt>
      <trkpt lat="43.13786" lon="3.08997">
        <ele>136.879</ele>
        <time>2021-09-25T11:54:56Z</time>
      </trkpt>
      <trkpt lat="43.13787" lon="3.08995">
        <ele>136.11</ele>
        <time>2021-09-25T11:54:58Z</time>
      </trkpt>
      <trkpt lat="43.13788" lon="3.08994">
        <ele>135.831</ele>
        <time>2021-09-25T11:55:00Z</time>
      </trkpt>
      <trkpt lat="43.1379" lon="3.08992">
        <ele>135.643</ele>
        <time>2021-09-25T11:55:02Z</time>
      </trkpt>
      <trkpt lat="43.13791" lon="3.08991">
        <ele>135.281</ele>
        <time>2021-09-25T11:55:04Z</time>
      </trkpt>
      <trkpt lat="43.13792" lon="3.08988">
        <ele>135.097</ele>
        <time>2021-09-25T11:55:06Z</time>
      </trkpt>
      <trkpt lat="43.13794" lon="3.08986">
        <ele>134.526</ele>
        <time>2021-09-25T11:55:08Z</time>
      </trkpt>
      <trkpt lat="43.13795" lon="3.08985">
        <ele>134.733</ele>
        <time>2021-09-25T11:55:10Z</time>
      </trkpt>
      <trkpt lat="43.13796" lon="3.08983">
        <ele>134.652</ele>
        <time>2021-09-25T11:55:12Z</time>
      </trkpt>
      <trkpt lat="43.13797" lon="3.08981">
        <ele>133.797</ele>
        <time>2021-09-25T11:55:14Z</time>
      </trkpt>
      <trkpt lat="43.13799" lon="3.08979">
        <ele>133.635</ele>
        <time>2021-09-25T11:55:16Z</time>
      </trkpt>
      <trkpt lat="43.13801" lon="3.08978">
        <ele>132.983</ele>
        <time>2021-09-25T11:55:18Z</time>
      </trkpt>
      <trkpt lat="43.13803" lon="3.08977">
        <ele>132.554</ele>
        <time>2021-09-25T11:55:20Z</time>
      </trkpt>
      <trkpt lat="43.13804" lon="3.08975">
        <ele>131.725</ele>
        <time>2021-09-25T11:55:22Z</time>
      </trkpt>
      <trkpt lat="43.13806" lon="3.08974">
        <ele>131.573</ele>
        <time>2021-09-25T11:55:24Z</time>
      </trkpt>
      <trkpt lat="43.13808" lon="3.08973">
        <ele>131.535</ele>
        <time>2021-09-25T11:55:26Z</time>
      </trkpt>
      <trkpt lat="43.1381" lon="3.08971">
        <ele>131.262</ele>
        <time>2021-09-25T11:55:28Z</time>
      </trkpt>
      <trkpt lat="43.13812" lon="3.08971">
        <ele>131.066</ele>
        <time>2021-09-25T11:55:30Z</time>
      </trkpt>
      <trkpt lat="43.13814" lon="3.0897">
        <ele>131.197</ele>
        <time>2021-09-25T11:55:32Z</time>
      </trkpt>
      <trkpt lat="43.13816" lon="3.08969">
        <ele>130.645</ele>
        <time>2021-09-25T11:55:34Z</time>
      </trkpt>
      <trkpt lat="43.13818" lon="3.08968">
        <ele>130.693</ele>
        <time>2021-09-25T11:55:36Z</time>
      </trkpt>
      <trkpt lat="43.1382" lon="3.08966">
        <ele>130.737</ele>
        <time>2021-09-25T11:55:38Z</time>
      </trkpt>
      <trkpt lat="43.13823" lon="3.08966">
        <ele>130.52</ele>
        <time>2021-09-25T11:55:40Z</time>
      </trkpt>
      <trkpt lat="43.13825" lon="3.08965">
        <ele>130.031</ele>
        <time>2021-09-25T11:55:42Z</time>
      </trkpt>
      <trkpt lat="43.13826" lon="3.08963">
        <ele>129.477</ele>
        <time>2021-09-25T11:55:44Z</time>
      </trkpt>
      <trkpt lat="43.13826" lon="3.08963">
        <ele>129.651</ele>
        <time>2021-09-25T11:55:46Z</time>
      </trkpt>
      <trkpt lat="43.13826" lon="3.08963">
        <ele>129.648</ele>
        <time>2021-09-25T11:55:48Z</time>
      </trkpt>
      <trkpt lat="43.13826" lon="3.08963">
        <ele>129.645</ele>
        <time>2021-09-25T11:55:50Z</time>
      </trkpt>
      <trkpt lat="43.13826" lon="3.08962">
        <ele>129.22</ele>
        <time>2021-09-25T11:55:52Z</time>
      </trkpt>
      <trkpt lat="43.13827" lon="3.08959">
        <ele>128.446</ele>
        <time>2021-09-25T11:55:54Z</time>
      </trkpt>
      <trkpt lat="43.13829" lon="3.08957">
        <ele>128.173</ele>
        <time>2021-09-25T11:55:56Z</time>
      </trkpt>
      <trkpt lat="43.1383" lon="3.08955">
        <ele>127.73</ele>
        <time>2021-09-25T11:55:58Z</time>
      </trkpt>
      <trkpt lat="43.13831" lon="3.08953">
        <ele>127.827</ele>
        <time>2021-09-25T11:56:00Z</time>
      </trkpt>
      <trkpt lat="43.13833" lon="3.08952">
        <ele>126.948</ele>
        <time>2021-09-25T11:56:02Z</time>
      </trkpt>
      <trkpt lat="43.13834" lon="3.0895">
        <ele>126.301</ele>
        <time>2021-09-25T11:56:04Z</time>
      </trkpt>
      <trkpt lat="43.13836" lon="3.08949">
        <ele>126.312</ele>
        <time>2021-09-25T11:56:06Z</time>
      </trkpt>
      <trkpt lat="43.13837" lon="3.08948">
        <ele>126.124</ele>
        <time>2021-09-25T11:56:08Z</time>
      </trkpt>
      <trkpt lat="43.13839" lon="3.08947">
        <ele>125.599</ele>
        <time>2021-09-25T11:56:10Z</time>
      </trkpt>
      <trkpt lat="43.13839" lon="3.08946">
        <ele>124.75</ele>
        <time>2021-09-25T11:56:12Z</time>
      </trkpt>
      <trkpt lat="43.1384" lon="3.08944">
        <ele>124.122</ele>
        <time>2021-09-25T11:56:14Z</time>
      </trkpt>
      <trkpt lat="43.1384" lon="3.08943">
        <ele>123.724</ele>
        <time>2021-09-25T11:56:16Z</time>
      </trkpt>
      <trkpt lat="43.1384" lon="3.08941">
        <ele>122.964</ele>
        <time>2021-09-25T11:56:18Z</time>
      </trkpt>
      <trkpt lat="43.13839" lon="3.08939">
        <ele>122.492</ele>
        <time>2021-09-25T11:56:20Z</time>
      </trkpt>
      <trkpt lat="43.1384" lon="3.08938">
        <ele>122.064</ele>
        <time>2021-09-25T11:56:22Z</time>
      </trkpt>
      <trkpt lat="43.13839" lon="3.08938">
        <ele>121.687</ele>
        <time>2021-09-25T11:56:24Z</time>
      </trkpt>
      <trkpt lat="43.13839" lon="3.08936">
        <ele>121.402</ele>
        <time>2021-09-25T11:56:26Z</time>
      </trkpt>
      <trkpt lat="43.13839" lon="3.08935">
        <ele>121.505</ele>
        <time>2021-09-25T11:56:28Z</time>
      </trkpt>
      <trkpt lat="43.13839" lon="3.08935">
        <ele>121.493</ele>
        <time>2021-09-25T11:56:30Z</time>
      </trkpt>
      <trkpt lat="43.13838" lon="3.08935">
        <ele>121.31</ele>
        <time>2021-09-25T11:56:32Z</time>
      </trkpt>
      <trkpt lat="43.13837" lon="3.08932">
        <ele>119.818</ele>
        <time>2021-09-25T11:56:34Z</time>
      </trkpt>
      <trkpt lat="43.13837" lon="3.08931">
        <ele>118.263</ele>
        <time>2021-09-25T11:56:36Z</time>
      </trkpt>
      <trkpt lat="43.13836" lon="3.0893">
        <ele>117.934</ele>
        <time>2021-09-25T11:56:38Z</time>
      </trkpt>
      <trkpt lat="43.13837" lon="3.08928">
        <ele>117.293</ele>
        <time>2021-09-25T11:56:40Z</time>
      </trkpt>
      <trkpt lat="43.13837" lon="3.08928">
        <ele>117.073</ele>
        <time>2021-09-25T11:56:42Z</time>
      </trkpt>
      <trkpt lat="43.13837" lon="3.08929">
        <ele>117.083</ele>
        <time>2021-09-25T11:56:44Z</time>
      </trkpt>
      <trkpt lat="43.13837" lon="3.08929">
        <ele>117.198</ele>
        <time>2021-09-25T11:56:46Z</time>
      </trkpt>
      <trkpt lat="43.13837" lon="3.08928">
        <ele>117.095</ele>
        <time>2021-09-25T11:56:48Z</time>
      </trkpt>
      <trkpt lat="43.13838" lon="3.08928">
        <ele>117.593</ele>
        <time>2021-09-25T11:56:50Z</time>
      </trkpt>
      <trkpt lat="43.13839" lon="3.08926">
        <ele>116.827</ele>
        <time>2021-09-25T11:56:52Z</time>
      </trkpt>
      <trkpt lat="43.13839" lon="3.08926">
        <ele>116.414</ele>
        <time>2021-09-25T11:56:54Z</time>
      </trkpt>
      <trkpt lat="43.13839" lon="3.08926">
        <ele>116.679</ele>
        <time>2021-09-25T11:56:56Z</time>
      </trkpt>
      <trkpt lat="43.13839" lon="3.08926">
        <ele>116.674</ele>
        <time>2021-09-25T11:56:58Z</time>
      </trkpt>
      <trkpt lat="43.13839" lon="3.08926">
        <ele>116.671</ele>
        <time>2021-09-25T11:57:00Z</time>
      </trkpt>
      <trkpt lat="43.13839" lon="3.08926">
        <ele>116.148</ele>
        <time>2021-09-25T11:57:02Z</time>
      </trkpt>
      <trkpt lat="43.1384" lon="3.08927">
        <ele>115.455</ele>
        <time>2021-09-25T11:57:04Z</time>
      </trkpt>
      <trkpt lat="43.13841" lon="3.08927">
        <ele>116.619</ele>
        <time>2021-09-25T11:57:06Z</time>
      </trkpt>
      <trkpt lat="43.13842" lon="3.08927">
        <ele>116.606</ele>
        <time>2021-09-25T11:57:08Z</time>
      </trkpt>
      <trkpt lat="43.13842" lon="3.08927">
        <ele>116.613</ele>
        <time>2021-09-25T11:57:10Z</time>
      </trkpt>
      <trkpt lat="43.13842" lon="3.08927">
        <ele>116.612</ele>
        <time>2021-09-25T11:57:12Z</time>
      </trkpt>
      <trkpt lat="43.13842" lon="3.08927">
        <ele>116.626</ele>
        <time>2021-09-25T11:57:14Z</time>
      </trkpt>
      <trkpt lat="43.13842" lon="3.08927">
        <ele>116.627</ele>
        <time>2021-09-25T11:57:16Z</time>
      </trkpt>
      <trkpt lat="43.13842" lon="3.08928">
        <ele>116.56</ele>
        <time>2021-09-25T11:57:18Z</time>
      </trkpt>
      <trkpt lat="43.13842" lon="3.08928">
        <ele>116.563</ele>
        <time>2021-09-25T11:57:20Z</time>
      </trkpt>
      <trkpt lat="43.13842" lon="3.08927">
        <ele>116.392</ele>
        <time>2021-09-25T11:57:22Z</time>
      </trkpt>
      <trkpt lat="43.13842" lon="3.08927">
        <ele>116.321</ele>
        <time>2021-09-25T11:57:24Z</time>
      </trkpt>
      <trkpt lat="43.13843" lon="3.08926">
        <ele>115.997</ele>
        <time>2021-09-25T11:57:26Z</time>
      </trkpt>
      <trkpt lat="43.13844" lon="3.08925">
        <ele>115.555</ele>
        <time>2021-09-25T11:57:28Z</time>
      </trkpt>
      <trkpt lat="43.13844" lon="3.08923">
        <ele>114.425</ele>
        <time>2021-09-25T11:57:30Z</time>
      </trkpt>
      <trkpt lat="43.13844" lon="3.08921">
        <ele>113.707</ele>
        <time>2021-09-25T11:57:32Z</time>
      </trkpt>
      <trkpt lat="43.13844" lon="3.0892">
        <ele>113.782</ele>
        <time>2021-09-25T11:57:34Z</time>
      </trkpt>
      <trkpt lat="43.13844" lon="3.08919">
        <ele>112.741</ele>
        <time>2021-09-25T11:57:36Z</time>
      </trkpt>
      <trkpt lat="43.13845" lon="3.08917">
        <ele>113.206</ele>
        <time>2021-09-25T11:57:38Z</time>
      </trkpt>
      <trkpt lat="43.13846" lon="3.08917">
        <ele>112.945</ele>
        <time>2021-09-25T11:57:40Z</time>
      </trkpt>
      <trkpt lat="43.13847" lon="3.08917">
        <ele>112.551</ele>
        <time>2021-09-25T11:57:42Z</time>
      </trkpt>
      <trkpt lat="43.13848" lon="3.08917">
        <ele>112.581</ele>
        <time>2021-09-25T11:57:44Z</time>
      </trkpt>
      <trkpt lat="43.1385" lon="3.08917">
        <ele>112.605</ele>
        <time>2021-09-25T11:57:46Z</time>
      </trkpt>
      <trkpt lat="43.13851" lon="3.08917">
        <ele>112.49</ele>
        <time>2021-09-25T11:57:48Z</time>
      </trkpt>
      <trkpt lat="43.13851" lon="3.08916">
        <ele>112.712</ele>
        <time>2021-09-25T11:57:50Z</time>
      </trkpt>
      <trkpt lat="43.13852" lon="3.08915">
        <ele>113.182</ele>
        <time>2021-09-25T11:57:52Z</time>
      </trkpt>
      <trkpt lat="43.13853" lon="3.08914">
        <ele>113.357</ele>
        <time>2021-09-25T11:57:54Z</time>
      </trkpt>
      <trkpt lat="43.13854" lon="3.08913">
        <ele>113.453</ele>
        <time>2021-09-25T11:57:56Z</time>
      </trkpt>
      <trkpt lat="43.13853" lon="3.08912">
        <ele>112.36</ele>
        <time>2021-09-25T11:57:58Z</time>
      </trkpt>
      <trkpt lat="43.13852" lon="3.08911">
        <ele>112.03</ele>
        <time>2021-09-25T11:58:00Z</time>
      </trkpt>
      <trkpt lat="43.13852" lon="3.0891">
        <ele>111.575</ele>
        <time>2021-09-25T11:58:02Z</time>
      </trkpt>
      <trkpt lat="43.13852" lon="3.0891">
        <ele>111.87</ele>
        <time>2021-09-25T11:58:04Z</time>
      </trkpt>
      <trkpt lat="43.13853" lon="3.08909">
        <ele>111.849</ele>
        <time>2021-09-25T11:58:06Z</time>
      </trkpt>
      <trkpt lat="43.13853" lon="3.08907">
        <ele>111.353</ele>
        <time>2021-09-25T11:58:08Z</time>
      </trkpt>
      <trkpt lat="43.13852" lon="3.08905">
        <ele>110.809</ele>
        <time>2021-09-25T11:58:10Z</time>
      </trkpt>
      <trkpt lat="43.13852" lon="3.08903">
        <ele>110.391</ele>
        <time>2021-09-25T11:58:12Z</time>
      </trkpt>
      <trkpt lat="43.13853" lon="3.08902">
        <ele>109.803</ele>
        <time>2021-09-25T11:58:14Z</time>
      </trkpt>
      <trkpt lat="43.13853" lon="3.089">
        <ele>108.961</ele>
        <time>2021-09-25T11:58:16Z</time>
      </trkpt>
      <trkpt lat="43.13852" lon="3.089">
        <ele>108.948</ele>
        <time>2021-09-25T11:58:18Z</time>
      </trkpt>
      <trkpt lat="43.13852" lon="3.08901">
        <ele>108.95</ele>
        <time>2021-09-25T11:58:20Z</time>
      </trkpt>
      <trkpt lat="43.13852" lon="3.08901">
        <ele>108.941</ele>
        <time>2021-09-25T11:58:22Z</time>
      </trkpt>
      <trkpt lat="43.13852" lon="3.08901">
        <ele>108.928</ele>
        <time>2021-09-25T11:58:24Z</time>
      </trkpt>
      <trkpt lat="43.13852" lon="3.08901">
        <ele>108.92</ele>
        <time>2021-09-25T11:58:26Z</time>
      </trkpt>
      <trkpt lat="43.13852" lon="3.08901">
        <ele>108.916</ele>
        <time>2021-09-25T11:58:28Z</time>
      </trkpt>
      <trkpt lat="43.13852" lon="3.08901">
        <ele>108.919</ele>
        <time>2021-09-25T11:58:30Z</time>
      </trkpt>
      <trkpt lat="43.13852" lon="3.089">
        <ele>109.055</ele>
        <time>2021-09-25T11:58:32Z</time>
      </trkpt>
      <trkpt lat="43.13852" lon="3.08898">
        <ele>109.05</ele>
        <time>2021-09-25T11:58:34Z</time>
      </trkpt>
      <trkpt lat="43.13852" lon="3.08898">
        <ele>108.58</ele>
        <time>2021-09-25T11:58:36Z</time>
      </trkpt>
      <trkpt lat="43.13853" lon="3.08898">
        <ele>108.503</ele>
        <time>2021-09-25T11:58:38Z</time>
      </trkpt>
      <trkpt lat="43.13854" lon="3.08897">
        <ele>108.225</ele>
        <time>2021-09-25T11:58:40Z</time>
      </trkpt>
      <trkpt lat="43.13854" lon="3.08895">
        <ele>107.959</ele>
        <time>2021-09-25T11:58:42Z</time>
      </trkpt>
      <trkpt lat="43.13855" lon="3.08893">
        <ele>107.727</ele>
        <time>2021-09-25T11:58:44Z</time>
      </trkpt>
      <trkpt lat="43.13855" lon="3.08892">
        <ele>107.56</ele>
        <time>2021-09-25T11:58:46Z</time>
      </trkpt>
      <trkpt lat="43.13856" lon="3.0889">
        <ele>107.664</ele>
        <time>2021-09-25T11:58:48Z</time>
      </trkpt>
      <trkpt lat="43.13856" lon="3.08887">
        <ele>106.647</ele>
        <time>2021-09-25T11:58:50Z</time>
      </trkpt>
      <trkpt lat="43.13856" lon="3.08885">
        <ele>106.174</ele>
        <time>2021-09-25T11:58:52Z</time>
      </trkpt>
      <trkpt lat="43.13857" lon="3.08883">
        <ele>105.242</ele>
        <time>2021-09-25T11:58:54Z</time>
      </trkpt>
      <trkpt lat="43.13857" lon="3.08881">
        <ele>104.912</ele>
        <time>2021-09-25T11:58:56Z</time>
      </trkpt>
      <trkpt lat="43.13856" lon="3.08879">
        <ele>104.451</ele>
        <time>2021-09-25T11:58:58Z</time>
      </trkpt>
      <trkpt lat="43.13855" lon="3.08877">
        <ele>104.28</ele>
        <time>2021-09-25T11:59:00Z</time>
      </trkpt>
      <trkpt lat="43.13854" lon="3.08875">
        <ele>104.017</ele>
        <time>2021-09-25T11:59:02Z</time>
      </trkpt>
      <trkpt lat="43.13854" lon="3.08872">
        <ele>104.021</ele>
        <time>2021-09-25T11:59:04Z</time>
      </trkpt>
      <trkpt lat="43.13854" lon="3.0887">
        <ele>103.877</ele>
        <time>2021-09-25T11:59:06Z</time>
      </trkpt>
      <trkpt lat="43.13853" lon="3.08868">
        <ele>103.419</ele>
        <time>2021-09-25T11:59:08Z</time>
      </trkpt>
      <trkpt lat="43.13852" lon="3.08866">
        <ele>103.287</ele>
        <time>2021-09-25T11:59:10Z</time>
      </trkpt>
      <trkpt lat="43.13851" lon="3.08865">
        <ele>102.599</ele>
        <time>2021-09-25T11:59:12Z</time>
      </trkpt>
      <trkpt lat="43.1385" lon="3.08864">
        <ele>101.647</ele>
        <time>2021-09-25T11:59:14Z</time>
      </trkpt>
      <trkpt lat="43.1385" lon="3.08863">
        <ele>101.266</ele>
        <time>2021-09-25T11:59:16Z</time>
      </trkpt>
      <trkpt lat="43.1385" lon="3.08861">
        <ele>100.849</ele>
        <time>2021-09-25T11:59:18Z</time>
      </trkpt>
      <trkpt lat="43.1385" lon="3.08858">
        <ele>101.865</ele>
        <time>2021-09-25T11:59:20Z</time>
      </trkpt>
      <trkpt lat="43.13849" lon="3.08857">
        <ele>100.765</ele>
        <time>2021-09-25T11:59:22Z</time>
      </trkpt>
      <trkpt lat="43.13849" lon="3.08857">
        <ele>100.077</ele>
        <time>2021-09-25T11:59:24Z</time>
      </trkpt>
      <trkpt lat="43.13848" lon="3.08856">
        <ele>100.602</ele>
        <time>2021-09-25T11:59:26Z</time>
      </trkpt>
      <trkpt lat="43.13847" lon="3.08855">
        <ele>101.612</ele>
        <time>2021-09-25T11:59:28Z</time>
      </trkpt>
      <trkpt lat="43.13846" lon="3.08855">
        <ele>100.893</ele>
        <time>2021-09-25T11:59:30Z</time>
      </trkpt>
      <trkpt lat="43.13845" lon="3.08854">
        <ele>100.916</ele>
        <time>2021-09-25T11:59:32Z</time>
      </trkpt>
      <trkpt lat="43.13844" lon="3.08854">
        <ele>100.561</ele>
        <time>2021-09-25T11:59:34Z</time>
      </trkpt>
      <trkpt lat="43.13844" lon="3.08853">
        <ele>100.177</ele>
        <time>2021-09-25T11:59:36Z</time>
      </trkpt>
      <trkpt lat="43.13843" lon="3.08853">
        <ele>99.405</ele>
        <time>2021-09-25T11:59:38Z</time>
      </trkpt>
      <trkpt lat="43.13842" lon="3.08853">
        <ele>98.942</ele>
        <time>2021-09-25T11:59:40Z</time>
      </trkpt>
      <trkpt lat="43.13841" lon="3.08851">
        <ele>98.62</ele>
        <time>2021-09-25T11:59:42Z</time>
      </trkpt>
      <trkpt lat="43.13841" lon="3.08851">
        <ele>98.35</ele>
        <time>2021-09-25T11:59:44Z</time>
      </trkpt>
      <trkpt lat="43.13841" lon="3.08852">
        <ele>98.886</ele>
        <time>2021-09-25T11:59:46Z</time>
      </trkpt>
      <trkpt lat="43.13841" lon="3.08853">
        <ele>98.883</ele>
        <time>2021-09-25T11:59:48Z</time>
      </trkpt>
      <trkpt lat="43.13841" lon="3.08853">
        <ele>98.882</ele>
        <time>2021-09-25T11:59:50Z</time>
      </trkpt>
      <trkpt lat="43.13841" lon="3.08853">
        <ele>98.733</ele>
        <time>2021-09-25T11:59:52Z</time>
      </trkpt>
      <trkpt lat="43.1384" lon="3.08852">
        <ele>98.249</ele>
        <time>2021-09-25T11:59:54Z</time>
      </trkpt>
      <trkpt lat="43.13839" lon="3.08851">
        <ele>98.648</ele>
        <time>2021-09-25T11:59:56Z</time>
      </trkpt>
      <trkpt lat="43.13838" lon="3.0885">
        <ele>97.453</ele>
        <time>2021-09-25T11:59:58Z</time>
      </trkpt>
      <trkpt lat="43.13839" lon="3.08851">
        <ele>97.134</ele>
        <time>2021-09-25T12:00:00Z</time>
      </trkpt>
      <trkpt lat="43.13839" lon="3.08851">
        <ele>97.133</ele>
        <time>2021-09-25T12:00:02Z</time>
      </trkpt>
      <trkpt lat="43.13839" lon="3.08851">
        <ele>97.13</ele>
        <time>2021-09-25T12:00:04Z</time>
      </trkpt>
      <trkpt lat="43.13839" lon="3.08849">
        <ele>96.774</ele>
        <time>2021-09-25T12:00:06Z</time>
      </trkpt>
      <trkpt lat="43.13838" lon="3.08848">
        <ele>96.577</ele>
        <time>2021-09-25T12:00:08Z</time>
      </trkpt>
      <trkpt lat="43.13838" lon="3.08848">
        <ele>96.48</ele>
        <time>2021-09-25T12:00:10Z</time>
      </trkpt>
      <trkpt lat="43.13838" lon="3.08848">
        <ele>96.483</ele>
        <time>2021-09-25T12:00:12Z</time>
      </trkpt>
      <trkpt lat="43.13838" lon="3.08848">
        <ele>96.472</ele>
        <time>2021-09-25T12:00:14Z</time>
      </trkpt>
      <trkpt lat="43.13838" lon="3.08847">
        <ele>95.462</ele>
        <time>2021-09-25T12:00:16Z</time>
      </trkpt>
      <trkpt lat="43.13838" lon="3.08845">
        <ele>94.795</ele>
        <time>2021-09-25T12:00:18Z</time>
      </trkpt>
      <trkpt lat="43.13837" lon="3.08844">
        <ele>93.751</ele>
        <time>2021-09-25T12:00:20Z</time>
      </trkpt>
      <trkpt lat="43.13837" lon="3.08845">
        <ele>93.749</ele>
        <time>2021-09-25T12:00:22Z</time>
      </trkpt>
      <trkpt lat="43.13837" lon="3.08845">
        <ele>93.743</ele>
        <time>2021-09-25T12:00:24Z</time>
      </trkpt>
      <trkpt lat="43.13836" lon="3.08845">
        <ele>93.719</ele>
        <time>2021-09-25T12:00:26Z</time>
      </trkpt>
      <trkpt lat="43.13836" lon="3.08845">
        <ele>93.733</ele>
        <time>2021-09-25T12:00:28Z</time>
      </trkpt>
      <trkpt lat="43.13836" lon="3.08845">
        <ele>93.731</ele>
        <time>2021-09-25T12:00:30Z</time>
      </trkpt>
      <trkpt lat="43.13836" lon="3.08845">
        <ele>93.725</ele>
        <time>2021-09-25T12:00:32Z</time>
      </trkpt>
      <trkpt lat="43.13836" lon="3.08845">
        <ele>93.726</ele>
        <time>2021-09-25T12:00:34Z</time>
      </trkpt>
      <trkpt lat="43.13836" lon="3.08845">
        <ele>93.728</ele>
        <time>2021-09-25T12:00:36Z</time>
      </trkpt>
      <trkpt lat="43.13836" lon="3.08845">
        <ele>93.719</ele>
        <time>2021-09-25T12:00:38Z</time>
      </trkpt>
      <trkpt lat="43.13836" lon="3.08845">
        <ele>93.711</ele>
        <time>2021-09-25T12:00:40Z</time>
      </trkpt>
      <trkpt lat="43.13836" lon="3.08845">
        <ele>93.712</ele>
        <time>2021-09-25T12:00:42Z</time>
      </trkpt>
      <trkpt lat="43.13836" lon="3.08845">
        <ele>93.712</ele>
        <time>2021-09-25T12:00:44Z</time>
      </trkpt>
      <trkpt lat="43.13836" lon="3.08845">
        <ele>93.713</ele>
        <time>2021-09-25T12:00:46Z</time>
      </trkpt>
      <trkpt lat="43.13836" lon="3.08845">
        <ele>93.717</ele>
        <time>2021-09-25T12:00:48Z</time>
      </trkpt>
      <trkpt lat="43.13836" lon="3.08845">
        <ele>93.719</ele>
        <time>2021-09-25T12:00:50Z</time>
      </trkpt>
      <trkpt lat="43.13836" lon="3.08845">
        <ele>93.719</ele>
        <time>2021-09-25T12:00:52Z</time>
      </trkpt>
      <trkpt lat="43.13836" lon="3.08845">
        <ele>93.715</ele>
        <time>2021-09-25T12:00:54Z</time>
      </trkpt>
      <trkpt lat="43.13836" lon="3.08845">
        <ele>93.706</ele>
        <time>2021-09-25T12:00:56Z</time>
      </trkpt>
      <trkpt lat="43.13836" lon="3.08845">
        <ele>93.702</ele>
        <time>2021-09-25T12:00:58Z</time>
      </trkpt>
      <trkpt lat="43.13836" lon="3.08845">
        <ele>93.703</ele>
        <time>2021-09-25T12:01:00Z</time>
      </trkpt>
      <trkpt lat="43.13836" lon="3.08845">
        <ele>93.621</ele>
        <time>2021-09-25T12:01:02Z</time>
      </trkpt>
      <trkpt lat="43.13836" lon="3.08845">
        <ele>93.63</ele>
        <time>2021-09-25T12:01:04Z</time>
      </trkpt>
      <trkpt lat="43.13836" lon="3.08845">
        <ele>93.696</ele>
        <time>2021-09-25T12:01:06Z</time>
      </trkpt>
      <trkpt lat="43.13836" lon="3.08845">
        <ele>93.751</ele>
        <time>2021-09-25T12:01:08Z</time>
      </trkpt>
      <trkpt lat="43.13836" lon="3.08845">
        <ele>93.555</ele>
        <time>2021-09-25T12:01:10Z</time>
      </trkpt>
      <trkpt lat="43.13834" lon="3.08845">
        <ele>93.187</ele>
        <time>2021-09-25T12:01:12Z</time>
      </trkpt>
      <trkpt lat="43.13833" lon="3.08844">
        <ele>92.541</ele>
        <time>2021-09-25T12:01:14Z</time>
      </trkpt>
      <trkpt lat="43.13832" lon="3.08842">
        <ele>91.6</ele>
        <time>2021-09-25T12:01:16Z</time>
      </trkpt>
      <trkpt lat="43.13832" lon="3.08841">
        <ele>91.079</ele>
        <time>2021-09-25T12:01:18Z</time>
      </trkpt>
      <trkpt lat="43.13831" lon="3.08842">
        <ele>90.802</ele>
        <time>2021-09-25T12:01:20Z</time>
      </trkpt>
      <trkpt lat="43.13832" lon="3.08843">
        <ele>90.499</ele>
        <time>2021-09-25T12:01:22Z</time>
      </trkpt>
      <trkpt lat="43.13832" lon="3.08843">
        <ele>90.5</ele>
        <time>2021-09-25T12:01:24Z</time>
      </trkpt>
      <trkpt lat="43.13832" lon="3.08843">
        <ele>90.499</ele>
        <time>2021-09-25T12:01:26Z</time>
      </trkpt>
      <trkpt lat="43.13832" lon="3.08843">
        <ele>90.498</ele>
        <time>2021-09-25T12:01:28Z</time>
      </trkpt>
      <trkpt lat="43.13831" lon="3.08843">
        <ele>90.197</ele>
        <time>2021-09-25T12:01:30Z</time>
      </trkpt>
      <trkpt lat="43.13831" lon="3.08842">
        <ele>89.592</ele>
        <time>2021-09-25T12:01:32Z</time>
      </trkpt>
      <trkpt lat="43.13831" lon="3.08842">
        <ele>89.375</ele>
        <time>2021-09-25T12:01:34Z</time>
      </trkpt>
      <trkpt lat="43.13831" lon="3.08842">
        <ele>89.375</ele>
        <time>2021-09-25T12:01:36Z</time>
      </trkpt>
      <trkpt lat="43.13831" lon="3.08842">
        <ele>89.374</ele>
        <time>2021-09-25T12:01:38Z</time>
      </trkpt>
      <trkpt lat="43.13831" lon="3.08842">
        <ele>89.374</ele>
        <time>2021-09-25T12:01:40Z</time>
      </trkpt>
      <trkpt lat="43.13831" lon="3.08842">
        <ele>88.996</ele>
        <time>2021-09-25T12:01:42Z</time>
      </trkpt>
      <trkpt lat="43.13831" lon="3.08842">
        <ele>88.994</ele>
        <time>2021-09-25T12:01:44Z</time>
      </trkpt>
      <trkpt lat="43.13831" lon="3.08841">
        <ele>88.749</ele>
        <time>2021-09-25T12:01:46Z</time>
      </trkpt>
      <trkpt lat="43.1383" lon="3.08839">
        <ele>88.889</ele>
        <time>2021-09-25T12:01:48Z</time>
      </trkpt>
      <trkpt lat="43.13829" lon="3.08838">
        <ele>88.344</ele>
        <time>2021-09-25T12:01:50Z</time>
      </trkpt>
      <trkpt lat="43.13829" lon="3.08838">
        <ele>88.285</ele>
        <time>2021-09-25T12:01:52Z</time>
      </trkpt>
      <trkpt lat="43.13829" lon="3.08836">
        <ele>87.904</ele>
        <time>2021-09-25T12:01:54Z</time>
      </trkpt>
      <trkpt lat="43.13828" lon="3.08834">
        <ele>87.829</ele>
        <time>2021-09-25T12:01:56Z</time>
      </trkpt>
      <trkpt lat="43.13828" lon="3.08833">
        <ele>87.178</ele>
        <time>2021-09-25T12:01:58Z</time>
      </trkpt>
      <trkpt lat="43.13828" lon="3.08834">
        <ele>86.966</ele>
        <time>2021-09-25T12:02:00Z</time>
      </trkpt>
      <trkpt lat="43.13828" lon="3.08833">
        <ele>85.978</ele>
        <time>2021-09-25T12:02:02Z</time>
      </trkpt>
      <trkpt lat="43.13827" lon="3.08834">
        <ele>85.394</ele>
        <time>2021-09-25T12:02:04Z</time>
      </trkpt>
      <trkpt lat="43.13827" lon="3.08834">
        <ele>85.393</ele>
        <time>2021-09-25T12:02:06Z</time>
      </trkpt>
      <trkpt lat="43.13827" lon="3.08834">
        <ele>84.867</ele>
        <time>2021-09-25T12:02:08Z</time>
      </trkpt>
      <trkpt lat="43.13827" lon="3.08835">
        <ele>84.475</ele>
        <time>2021-09-25T12:02:10Z</time>
      </trkpt>
      <trkpt lat="43.13826" lon="3.08835">
        <ele>83.883</ele>
        <time>2021-09-25T12:02:12Z</time>
      </trkpt>
      <trkpt lat="43.13825" lon="3.08836">
        <ele>83.848</ele>
        <time>2021-09-25T12:02:14Z</time>
      </trkpt>
      <trkpt lat="43.13825" lon="3.08836">
        <ele>84.323</ele>
        <time>2021-09-25T12:02:16Z</time>
      </trkpt>
      <trkpt lat="43.13826" lon="3.08836">
        <ele>83.543</ele>
        <time>2021-09-25T12:02:18Z</time>
      </trkpt>
      <trkpt lat="43.13826" lon="3.08836">
        <ele>83.546</ele>
        <time>2021-09-25T12:02:20Z</time>
      </trkpt>
      <trkpt lat="43.13826" lon="3.08836">
        <ele>83.563</ele>
        <time>2021-09-25T12:02:22Z</time>
      </trkpt>
      <trkpt lat="43.13826" lon="3.08836">
        <ele>83.562</ele>
        <time>2021-09-25T12:02:24Z</time>
      </trkpt>
      <trkpt lat="43.13825" lon="3.08836">
        <ele>83.402</ele>
        <time>2021-09-25T12:02:26Z</time>
      </trkpt>
      <trkpt lat="43.13824" lon="3.08836">
        <ele>83.481</ele>
        <time>2021-09-25T12:02:28Z</time>
      </trkpt>
      <trkpt lat="43.13822" lon="3.08835">
        <ele>84.178</ele>
        <time>2021-09-25T12:02:30Z</time>
      </trkpt>
      <trkpt lat="43.13823" lon="3.08836">
        <ele>82.479</ele>
        <time>2021-09-25T12:02:32Z</time>
      </trkpt>
      <trkpt lat="43.13822" lon="3.08837">
        <ele>84.571</ele>
        <time>2021-09-25T12:02:34Z</time>
      </trkpt>
      <trkpt lat="43.13821" lon="3.08837">
        <ele>85.043</ele>
        <time>2021-09-25T12:02:36Z</time>
      </trkpt>
      <trkpt lat="43.13822" lon="3.08837">
        <ele>83.286</ele>
        <time>2021-09-25T12:02:38Z</time>
      </trkpt>
      <trkpt lat="43.1382" lon="3.08838">
        <ele>86.641</ele>
        <time>2021-09-25T12:02:40Z</time>
      </trkpt>
      <trkpt lat="43.13821" lon="3.08837">
        <ele>85.569</ele>
        <time>2021-09-25T12:02:42Z</time>
      </trkpt>
      <trkpt lat="43.13822" lon="3.08835">
        <ele>84.211</ele>
        <time>2021-09-25T12:02:44Z</time>
      </trkpt>
      <trkpt lat="43.13822" lon="3.08836">
        <ele>84.649</ele>
        <time>2021-09-25T12:02:46Z</time>
      </trkpt>
      <trkpt lat="43.13822" lon="3.08837">
        <ele>84.7</ele>
        <time>2021-09-25T12:02:48Z</time>
      </trkpt>
      <trkpt lat="43.13822" lon="3.08837">
        <ele>83.436</ele>
        <time>2021-09-25T12:02:50Z</time>
      </trkpt>
      <trkpt lat="43.13822" lon="3.08836">
        <ele>82.322</ele>
        <time>2021-09-25T12:02:52Z</time>
      </trkpt>
      <trkpt lat="43.13822" lon="3.08836">
        <ele>82.275</ele>
        <time>2021-09-25T12:02:54Z</time>
      </trkpt>
      <trkpt lat="43.13822" lon="3.08837">
        <ele>81.921</ele>
        <time>2021-09-25T12:02:56Z</time>
      </trkpt>
      <trkpt lat="43.13823" lon="3.08837">
        <ele>81.619</ele>
        <time>2021-09-25T12:02:58Z</time>
      </trkpt>
      <trkpt lat="43.13823" lon="3.08837">
        <ele>81.612</ele>
        <time>2021-09-25T12:03:00Z</time>
      </trkpt>
      <trkpt lat="43.13823" lon="3.08836">
        <ele>81.325</ele>
        <time>2021-09-25T12:03:02Z</time>
      </trkpt>
      <trkpt lat="43.13822" lon="3.08837">
        <ele>80.349</ele>
        <time>2021-09-25T12:03:04Z</time>
      </trkpt>
      <trkpt lat="43.13822" lon="3.08839">
        <ele>79.576</ele>
        <time>2021-09-25T12:03:06Z</time>
      </trkpt>
      <trkpt lat="43.1382" lon="3.08841">
        <ele>79.331</ele>
        <time>2021-09-25T12:03:08Z</time>
      </trkpt>
      <trkpt lat="43.13819" lon="3.08843">
        <ele>79.289</ele>
        <time>2021-09-25T12:03:10Z</time>
      </trkpt>
      <trkpt lat="43.13818" lon="3.08846">
        <ele>80.917</ele>
        <time>2021-09-25T12:03:12Z</time>
      </trkpt>
      <trkpt lat="43.13817" lon="3.08848">
        <ele>80.299</ele>
        <time>2021-09-25T12:03:14Z</time>
      </trkpt>
      <trkpt lat="43.13816" lon="3.0885">
        <ele>79.753</ele>
        <time>2021-09-25T12:03:16Z</time>
      </trkpt>
      <trkpt lat="43.13815" lon="3.08851">
        <ele>80.063</ele>
        <time>2021-09-25T12:03:18Z</time>
      </trkpt>
      <trkpt lat="43.13814" lon="3.08853">
        <ele>80.654</ele>
        <time>2021-09-25T12:03:20Z</time>
      </trkpt>
      <trkpt lat="43.13813" lon="3.08854">
        <ele>80.302</ele>
        <time>2021-09-25T12:03:22Z</time>
      </trkpt>
      <trkpt lat="43.13812" lon="3.08855">
        <ele>79.722</ele>
        <time>2021-09-25T12:03:24Z</time>
      </trkpt>
      <trkpt lat="43.13811" lon="3.08857">
        <ele>80.258</ele>
        <time>2021-09-25T12:03:26Z</time>
      </trkpt>
      <trkpt lat="43.13812" lon="3.08855">
        <ele>76.975</ele>
        <time>2021-09-25T12:03:28Z</time>
      </trkpt>
      <trkpt lat="43.1381" lon="3.08855">
        <ele>77.39</ele>
        <time>2021-09-25T12:03:30Z</time>
      </trkpt>
      <trkpt lat="43.1381" lon="3.08855">
        <ele>77.693</ele>
        <time>2021-09-25T12:03:32Z</time>
      </trkpt>
      <trkpt lat="43.13809" lon="3.08856">
        <ele>77.409</ele>
        <time>2021-09-25T12:03:34Z</time>
      </trkpt>
      <trkpt lat="43.13808" lon="3.08857">
        <ele>76.819</ele>
        <time>2021-09-25T12:03:36Z</time>
      </trkpt>
      <trkpt lat="43.13807" lon="3.08859">
        <ele>76.711</ele>
        <time>2021-09-25T12:03:38Z</time>
      </trkpt>
      <trkpt lat="43.13805" lon="3.08861">
        <ele>76.582</ele>
        <time>2021-09-25T12:03:40Z</time>
      </trkpt>
      <trkpt lat="43.13804" lon="3.08863">
        <ele>76.051</ele>
        <time>2021-09-25T12:03:42Z</time>
      </trkpt>
      <trkpt lat="43.13803" lon="3.08864">
        <ele>75.939</ele>
        <time>2021-09-25T12:03:44Z</time>
      </trkpt>
      <trkpt lat="43.13801" lon="3.08865">
        <ele>75.984</ele>
        <time>2021-09-25T12:03:46Z</time>
      </trkpt>
      <trkpt lat="43.13801" lon="3.08865">
        <ele>75.225</ele>
        <time>2021-09-25T12:03:48Z</time>
      </trkpt>
      <trkpt lat="43.13801" lon="3.08864">
        <ele>73.926</ele>
        <time>2021-09-25T12:03:50Z</time>
      </trkpt>
      <trkpt lat="43.13802" lon="3.08864">
        <ele>73.923</ele>
        <time>2021-09-25T12:03:52Z</time>
      </trkpt>
      <trkpt lat="43.13802" lon="3.08864">
        <ele>73.918</ele>
        <time>2021-09-25T12:03:54Z</time>
      </trkpt>
      <trkpt lat="43.13801" lon="3.08864">
        <ele>74.151</ele>
        <time>2021-09-25T12:03:56Z</time>
      </trkpt>
      <trkpt lat="43.138" lon="3.08863">
        <ele>74.765</ele>
        <time>2021-09-25T12:03:58Z</time>
      </trkpt>
      <trkpt lat="43.138" lon="3.08863">
        <ele>74.76</ele>
        <time>2021-09-25T12:04:00Z</time>
      </trkpt>
      <trkpt lat="43.13799" lon="3.08863">
        <ele>74.8</ele>
        <time>2021-09-25T12:04:02Z</time>
      </trkpt>
      <trkpt lat="43.13797" lon="3.08864">
        <ele>74.499</ele>
        <time>2021-09-25T12:04:04Z</time>
      </trkpt>
      <trkpt lat="43.13797" lon="3.08864">
        <ele>73.729</ele>
        <time>2021-09-25T12:04:06Z</time>
      </trkpt>
      <trkpt lat="43.13796" lon="3.08864">
        <ele>73.188</ele>
        <time>2021-09-25T12:04:08Z</time>
      </trkpt>
      <trkpt lat="43.13796" lon="3.08864">
        <ele>73.158</ele>
        <time>2021-09-25T12:04:10Z</time>
      </trkpt>
      <trkpt lat="43.13796" lon="3.08864">
        <ele>73.253</ele>
        <time>2021-09-25T12:04:12Z</time>
      </trkpt>
      <trkpt lat="43.13795" lon="3.08863">
        <ele>72.796</ele>
        <time>2021-09-25T12:04:14Z</time>
      </trkpt>
      <trkpt lat="43.13794" lon="3.08864">
        <ele>73.531</ele>
        <time>2021-09-25T12:04:16Z</time>
      </trkpt>
      <trkpt lat="43.13793" lon="3.08864">
        <ele>73.891</ele>
        <time>2021-09-25T12:04:18Z</time>
      </trkpt>
      <trkpt lat="43.13793" lon="3.08865">
        <ele>73.907</ele>
        <time>2021-09-25T12:04:20Z</time>
      </trkpt>
      <trkpt lat="43.13791" lon="3.08866">
        <ele>74.348</ele>
        <time>2021-09-25T12:04:22Z</time>
      </trkpt>
      <trkpt lat="43.1379" lon="3.08867">
        <ele>75.833</ele>
        <time>2021-09-25T12:04:24Z</time>
      </trkpt>
      <trkpt lat="43.13788" lon="3.08868">
        <ele>76.733</ele>
        <time>2021-09-25T12:04:26Z</time>
      </trkpt>
      <trkpt lat="43.13786" lon="3.08869">
        <ele>76.878</ele>
        <time>2021-09-25T12:04:28Z</time>
      </trkpt>
      <trkpt lat="43.13786" lon="3.0887">
        <ele>78.3</ele>
        <time>2021-09-25T12:04:30Z</time>
      </trkpt>
      <trkpt lat="43.13785" lon="3.08871">
        <ele>79.142</ele>
        <time>2021-09-25T12:04:32Z</time>
      </trkpt>
      <trkpt lat="43.13784" lon="3.08872">
        <ele>79.022</ele>
        <time>2021-09-25T12:04:34Z</time>
      </trkpt>
      <trkpt lat="43.13785" lon="3.08872">
        <ele>77.96</ele>
        <time>2021-09-25T12:04:36Z</time>
      </trkpt>
      <trkpt lat="43.13784" lon="3.08872">
        <ele>78.5</ele>
        <time>2021-09-25T12:04:38Z</time>
      </trkpt>
      <trkpt lat="43.13784" lon="3.08872">
        <ele>78.396</ele>
        <time>2021-09-25T12:04:40Z</time>
      </trkpt>
      <trkpt lat="43.13785" lon="3.08872">
        <ele>77.28</ele>
        <time>2021-09-25T12:04:42Z</time>
      </trkpt>
      <trkpt lat="43.13784" lon="3.08872">
        <ele>77.667</ele>
        <time>2021-09-25T12:04:44Z</time>
      </trkpt>
      <trkpt lat="43.13783" lon="3.08872">
        <ele>77.528</ele>
        <time>2021-09-25T12:04:46Z</time>
      </trkpt>
      <trkpt lat="43.13782" lon="3.08871">
        <ele>77.411</ele>
        <time>2021-09-25T12:04:48Z</time>
      </trkpt>
      <trkpt lat="43.13781" lon="3.08871">
        <ele>77.972</ele>
        <time>2021-09-25T12:04:50Z</time>
      </trkpt>
      <trkpt lat="43.13781" lon="3.08872">
        <ele>78.368</ele>
        <time>2021-09-25T12:04:52Z</time>
      </trkpt>
      <trkpt lat="43.1378" lon="3.08873">
        <ele>79.497</ele>
        <time>2021-09-25T12:04:54Z</time>
      </trkpt>
      <trkpt lat="43.13779" lon="3.08873">
        <ele>79.403</ele>
        <time>2021-09-25T12:04:56Z</time>
      </trkpt>
      <trkpt lat="43.13781" lon="3.08873">
        <ele>79.203</ele>
        <time>2021-09-25T12:04:58Z</time>
      </trkpt>
      <trkpt lat="43.1378" lon="3.08874">
        <ele>80.1</ele>
        <time>2021-09-25T12:05:00Z</time>
      </trkpt>
      <trkpt lat="43.13781" lon="3.08875">
        <ele>80.772</ele>
        <time>2021-09-25T12:05:02Z</time>
      </trkpt>
      <trkpt lat="43.1378" lon="3.08877">
        <ele>79.223</ele>
        <time>2021-09-25T12:05:04Z</time>
      </trkpt>
      <trkpt lat="43.13779" lon="3.08876">
        <ele>78.75</ele>
        <time>2021-09-25T12:05:06Z</time>
      </trkpt>
      <trkpt lat="43.13779" lon="3.08876">
        <ele>78.741</ele>
        <time>2021-09-25T12:05:08Z</time>
      </trkpt>
      <trkpt lat="43.13779" lon="3.08876">
        <ele>78.428</ele>
        <time>2021-09-25T12:05:10Z</time>
      </trkpt>
      <trkpt lat="43.13779" lon="3.08876">
        <ele>77.954</ele>
        <time>2021-09-25T12:05:12Z</time>
      </trkpt>
      <trkpt lat="43.13779" lon="3.08876">
        <ele>77.951</ele>
        <time>2021-09-25T12:05:14Z</time>
      </trkpt>
      <trkpt lat="43.13778" lon="3.08876">
        <ele>78.98</ele>
        <time>2021-09-25T12:05:16Z</time>
      </trkpt>
      <trkpt lat="43.13778" lon="3.08874">
        <ele>79.206</ele>
        <time>2021-09-25T12:05:18Z</time>
      </trkpt>
      <trkpt lat="43.13776" lon="3.08873">
        <ele>78.923</ele>
        <time>2021-09-25T12:05:20Z</time>
      </trkpt>
      <trkpt lat="43.13775" lon="3.08871">
        <ele>78.814</ele>
        <time>2021-09-25T12:05:22Z</time>
      </trkpt>
      <trkpt lat="43.13773" lon="3.0887">
        <ele>78.57</ele>
        <time>2021-09-25T12:05:24Z</time>
      </trkpt>
      <trkpt lat="43.13772" lon="3.08868">
        <ele>78.305</ele>
        <time>2021-09-25T12:05:26Z</time>
      </trkpt>
      <trkpt lat="43.13771" lon="3.08868">
        <ele>77.891</ele>
        <time>2021-09-25T12:05:28Z</time>
      </trkpt>
      <trkpt lat="43.13769" lon="3.08868">
        <ele>77.776</ele>
        <time>2021-09-25T12:05:30Z</time>
      </trkpt>
      <trkpt lat="43.13768" lon="3.08869">
        <ele>76.297</ele>
        <time>2021-09-25T12:05:32Z</time>
      </trkpt>
      <trkpt lat="43.13769" lon="3.08869">
        <ele>73.251</ele>
        <time>2021-09-25T12:05:34Z</time>
      </trkpt>
      <trkpt lat="43.13769" lon="3.08869">
        <ele>73.552</ele>
        <time>2021-09-25T12:05:36Z</time>
      </trkpt>
      <trkpt lat="43.13768" lon="3.08869">
        <ele>74.551</ele>
        <time>2021-09-25T12:05:38Z</time>
      </trkpt>
      <trkpt lat="43.13766" lon="3.0887">
        <ele>74.63</ele>
        <time>2021-09-25T12:05:40Z</time>
      </trkpt>
      <trkpt lat="43.13764" lon="3.08869">
        <ele>73.791</ele>
        <time>2021-09-25T12:05:42Z</time>
      </trkpt>
      <trkpt lat="43.13762" lon="3.08869">
        <ele>74.43</ele>
        <time>2021-09-25T12:05:44Z</time>
      </trkpt>
      <trkpt lat="43.13761" lon="3.08867">
        <ele>74.473</ele>
        <time>2021-09-25T12:05:46Z</time>
      </trkpt>
      <trkpt lat="43.13759" lon="3.08866">
        <ele>75.557</ele>
        <time>2021-09-25T12:05:48Z</time>
      </trkpt>
      <trkpt lat="43.13757" lon="3.08866">
        <ele>75.915</ele>
        <time>2021-09-25T12:05:50Z</time>
      </trkpt>
      <trkpt lat="43.13755" lon="3.08865">
        <ele>76.699</ele>
        <time>2021-09-25T12:05:52Z</time>
      </trkpt>
      <trkpt lat="43.13753" lon="3.08864">
        <ele>76.47</ele>
        <time>2021-09-25T12:05:54Z</time>
      </trkpt>
      <trkpt lat="43.13751" lon="3.08864">
        <ele>75.229</ele>
        <time>2021-09-25T12:05:56Z</time>
      </trkpt>
      <trkpt lat="43.1375" lon="3.08864">
        <ele>74.566</ele>
        <time>2021-09-25T12:05:58Z</time>
      </trkpt>
      <trkpt lat="43.13749" lon="3.08865">
        <ele>74.455</ele>
        <time>2021-09-25T12:06:00Z</time>
      </trkpt>
      <trkpt lat="43.1375" lon="3.08864">
        <ele>73.051</ele>
        <time>2021-09-25T12:06:02Z</time>
      </trkpt>
      <trkpt lat="43.13748" lon="3.08863">
        <ele>73.036</ele>
        <time>2021-09-25T12:06:04Z</time>
      </trkpt>
      <trkpt lat="43.13746" lon="3.08861">
        <ele>73.525</ele>
        <time>2021-09-25T12:06:06Z</time>
      </trkpt>
      <trkpt lat="43.13743" lon="3.08861">
        <ele>74.684</ele>
        <time>2021-09-25T12:06:08Z</time>
      </trkpt>
      <trkpt lat="43.13741" lon="3.08861">
        <ele>74.816</ele>
        <time>2021-09-25T12:06:10Z</time>
      </trkpt>
      <trkpt lat="43.13739" lon="3.08859">
        <ele>75.181</ele>
        <time>2021-09-25T12:06:12Z</time>
      </trkpt>
      <trkpt lat="43.13736" lon="3.08858">
        <ele>75.482</ele>
        <time>2021-09-25T12:06:14Z</time>
      </trkpt>
      <trkpt lat="43.13734" lon="3.08857">
        <ele>75.143</ele>
        <time>2021-09-25T12:06:16Z</time>
      </trkpt>
      <trkpt lat="43.13732" lon="3.08856">
        <ele>75.29</ele>
        <time>2021-09-25T12:06:18Z</time>
      </trkpt>
      <trkpt lat="43.1373" lon="3.08854">
        <ele>75.243</ele>
        <time>2021-09-25T12:06:20Z</time>
      </trkpt>
      <trkpt lat="43.13728" lon="3.08853">
        <ele>74.687</ele>
        <time>2021-09-25T12:06:22Z</time>
      </trkpt>
      <trkpt lat="43.13726" lon="3.08852">
        <ele>74.899</ele>
        <time>2021-09-25T12:06:24Z</time>
      </trkpt>
      <trkpt lat="43.13724" lon="3.08852">
        <ele>74.786</ele>
        <time>2021-09-25T12:06:26Z</time>
      </trkpt>
      <trkpt lat="43.13721" lon="3.08852">
        <ele>75.845</ele>
        <time>2021-09-25T12:06:28Z</time>
      </trkpt>
      <trkpt lat="43.1372" lon="3.08852">
        <ele>76.024</ele>
        <time>2021-09-25T12:06:30Z</time>
      </trkpt>
      <trkpt lat="43.13718" lon="3.08852">
        <ele>76.325</ele>
        <time>2021-09-25T12:06:32Z</time>
      </trkpt>
      <trkpt lat="43.13716" lon="3.08851">
        <ele>75.535</ele>
        <time>2021-09-25T12:06:34Z</time>
      </trkpt>
      <trkpt lat="43.13714" lon="3.08851">
        <ele>75.157</ele>
        <time>2021-09-25T12:06:36Z</time>
      </trkpt>
      <trkpt lat="43.13712" lon="3.08851">
        <ele>75.277</ele>
        <time>2021-09-25T12:06:38Z</time>
      </trkpt>
      <trkpt lat="43.1371" lon="3.08853">
        <ele>76.505</ele>
        <time>2021-09-25T12:06:40Z</time>
      </trkpt>
      <trkpt lat="43.13709" lon="3.08854">
        <ele>74.827</ele>
        <time>2021-09-25T12:06:42Z</time>
      </trkpt>
      <trkpt lat="43.13709" lon="3.08854">
        <ele>74.755</ele>
        <time>2021-09-25T12:06:44Z</time>
      </trkpt>
      <trkpt lat="43.13709" lon="3.08853">
        <ele>74.798</ele>
        <time>2021-09-25T12:06:46Z</time>
      </trkpt>
      <trkpt lat="43.13709" lon="3.08852">
        <ele>75.74</ele>
        <time>2021-09-25T12:06:48Z</time>
      </trkpt>
      <trkpt lat="43.13707" lon="3.08851">
        <ele>75.565</ele>
        <time>2021-09-25T12:06:50Z</time>
      </trkpt>
      <trkpt lat="43.13705" lon="3.0885">
        <ele>75.273</ele>
        <time>2021-09-25T12:06:52Z</time>
      </trkpt>
      <trkpt lat="43.13703" lon="3.08849">
        <ele>74.936</ele>
        <time>2021-09-25T12:06:54Z</time>
      </trkpt>
      <trkpt lat="43.13701" lon="3.08847">
        <ele>74.811</ele>
        <time>2021-09-25T12:06:56Z</time>
      </trkpt>
      <trkpt lat="43.13699" lon="3.08847">
        <ele>75.303</ele>
        <time>2021-09-25T12:06:58Z</time>
      </trkpt>
      <trkpt lat="43.13696" lon="3.08848">
        <ele>76.214</ele>
        <time>2021-09-25T12:07:00Z</time>
      </trkpt>
      <trkpt lat="43.13697" lon="3.08847">
        <ele>74.876</ele>
        <time>2021-09-25T12:07:02Z</time>
      </trkpt>
      <trkpt lat="43.13697" lon="3.08847">
        <ele>75.022</ele>
        <time>2021-09-25T12:07:04Z</time>
      </trkpt>
      <trkpt lat="43.13697" lon="3.08845">
        <ele>74.2</ele>
        <time>2021-09-25T12:07:06Z</time>
      </trkpt>
      <trkpt lat="43.13696" lon="3.08842">
        <ele>74.475</ele>
        <time>2021-09-25T12:07:08Z</time>
      </trkpt>
      <trkpt lat="43.13694" lon="3.0884">
        <ele>75.859</ele>
        <time>2021-09-25T12:07:10Z</time>
      </trkpt>
      <trkpt lat="43.13693" lon="3.08838">
        <ele>77.093</ele>
        <time>2021-09-25T12:07:12Z</time>
      </trkpt>
      <trkpt lat="43.13692" lon="3.08836">
        <ele>77.516</ele>
        <time>2021-09-25T12:07:14Z</time>
      </trkpt>
      <trkpt lat="43.1369" lon="3.08834">
        <ele>77.906</ele>
        <time>2021-09-25T12:07:16Z</time>
      </trkpt>
      <trkpt lat="43.1369" lon="3.08832">
        <ele>77.4</ele>
        <time>2021-09-25T12:07:18Z</time>
      </trkpt>
      <trkpt lat="43.13689" lon="3.0883">
        <ele>75.456</ele>
        <time>2021-09-25T12:07:20Z</time>
      </trkpt>
      <trkpt lat="43.13689" lon="3.08828">
        <ele>74.345</ele>
        <time>2021-09-25T12:07:22Z</time>
      </trkpt>
      <trkpt lat="43.13688" lon="3.08826">
        <ele>73.243</ele>
        <time>2021-09-25T12:07:24Z</time>
      </trkpt>
      <trkpt lat="43.13687" lon="3.08823">
        <ele>72.385</ele>
        <time>2021-09-25T12:07:26Z</time>
      </trkpt>
      <trkpt lat="43.13685" lon="3.08821">
        <ele>72.824</ele>
        <time>2021-09-25T12:07:28Z</time>
      </trkpt>
      <trkpt lat="43.13684" lon="3.08819">
        <ele>73.244</ele>
        <time>2021-09-25T12:07:30Z</time>
      </trkpt>
      <trkpt lat="43.13683" lon="3.08816">
        <ele>74.321</ele>
        <time>2021-09-25T12:07:32Z</time>
      </trkpt>
      <trkpt lat="43.13681" lon="3.08813">
        <ele>74.909</ele>
        <time>2021-09-25T12:07:34Z</time>
      </trkpt>
      <trkpt lat="43.1368" lon="3.08813">
        <ele>74.957</ele>
        <time>2021-09-25T12:07:36Z</time>
      </trkpt>
      <trkpt lat="43.13679" lon="3.08814">
        <ele>75.051</ele>
        <time>2021-09-25T12:07:38Z</time>
      </trkpt>
      <trkpt lat="43.13679" lon="3.08815">
        <ele>76.48</ele>
        <time>2021-09-25T12:07:40Z</time>
      </trkpt>
      <trkpt lat="43.13679" lon="3.08815">
        <ele>76.473</ele>
        <time>2021-09-25T12:07:42Z</time>
      </trkpt>
      <trkpt lat="43.13679" lon="3.08815">
        <ele>76.475</ele>
        <time>2021-09-25T12:07:44Z</time>
      </trkpt>
      <trkpt lat="43.13679" lon="3.08815">
        <ele>76.477</ele>
        <time>2021-09-25T12:07:46Z</time>
      </trkpt>
      <trkpt lat="43.13679" lon="3.08814">
        <ele>75.005</ele>
        <time>2021-09-25T12:07:48Z</time>
      </trkpt>
      <trkpt lat="43.13679" lon="3.08812">
        <ele>73.346</ele>
        <time>2021-09-25T12:07:50Z</time>
      </trkpt>
      <trkpt lat="43.13675" lon="3.0881">
        <ele>72.221</ele>
        <time>2021-09-25T12:07:52Z</time>
      </trkpt>
      <trkpt lat="43.13674" lon="3.08807">
        <ele>72.015</ele>
        <time>2021-09-25T12:07:54Z</time>
      </trkpt>
      <trkpt lat="43.13674" lon="3.08805">
        <ele>72.16</ele>
        <time>2021-09-25T12:07:56Z</time>
      </trkpt>
      <trkpt lat="43.13674" lon="3.08801">
        <ele>72.673</ele>
        <time>2021-09-25T12:07:58Z</time>
      </trkpt>
      <trkpt lat="43.13673" lon="3.08798">
        <ele>73.108</ele>
        <time>2021-09-25T12:08:00Z</time>
      </trkpt>
      <trkpt lat="43.13672" lon="3.08796">
        <ele>70.879</ele>
        <time>2021-09-25T12:08:02Z</time>
      </trkpt>
      <trkpt lat="43.1367" lon="3.08795">
        <ele>70.868</ele>
        <time>2021-09-25T12:08:04Z</time>
      </trkpt>
      <trkpt lat="43.13669" lon="3.08793">
        <ele>70.276</ele>
        <time>2021-09-25T12:08:06Z</time>
      </trkpt>
      <trkpt lat="43.13668" lon="3.08792">
        <ele>70.494</ele>
        <time>2021-09-25T12:08:08Z</time>
      </trkpt>
      <trkpt lat="43.13666" lon="3.08791">
        <ele>71.145</ele>
        <time>2021-09-25T12:08:10Z</time>
      </trkpt>
      <trkpt lat="43.13664" lon="3.08791">
        <ele>71.7</ele>
        <time>2021-09-25T12:08:12Z</time>
      </trkpt>
      <trkpt lat="43.13663" lon="3.08791">
        <ele>72.018</ele>
        <time>2021-09-25T12:08:14Z</time>
      </trkpt>
      <trkpt lat="43.13662" lon="3.08791">
        <ele>72.362</ele>
        <time>2021-09-25T12:08:16Z</time>
      </trkpt>
      <trkpt lat="43.13661" lon="3.08791">
        <ele>73.2</ele>
        <time>2021-09-25T12:08:18Z</time>
      </trkpt>
      <trkpt lat="43.1366" lon="3.08791">
        <ele>74.023</ele>
        <time>2021-09-25T12:08:20Z</time>
      </trkpt>
      <trkpt lat="43.13659" lon="3.08791">
        <ele>73.992</ele>
        <time>2021-09-25T12:08:22Z</time>
      </trkpt>
      <trkpt lat="43.13658" lon="3.08789">
        <ele>73.989</ele>
        <time>2021-09-25T12:08:24Z</time>
      </trkpt>
      <trkpt lat="43.13656" lon="3.08788">
        <ele>74.019</ele>
        <time>2021-09-25T12:08:26Z</time>
      </trkpt>
      <trkpt lat="43.13656" lon="3.08786">
        <ele>73.81</ele>
        <time>2021-09-25T12:08:28Z</time>
      </trkpt>
      <trkpt lat="43.13654" lon="3.08785">
        <ele>73.668</ele>
        <time>2021-09-25T12:08:30Z</time>
      </trkpt>
      <trkpt lat="43.13653" lon="3.08783">
        <ele>72.69</ele>
        <time>2021-09-25T12:08:32Z</time>
      </trkpt>
      <trkpt lat="43.13651" lon="3.08783">
        <ele>72.504</ele>
        <time>2021-09-25T12:08:34Z</time>
      </trkpt>
      <trkpt lat="43.13651" lon="3.08783">
        <ele>72.684</ele>
        <time>2021-09-25T12:08:36Z</time>
      </trkpt>
      <trkpt lat="43.1365" lon="3.08783">
        <ele>73.568</ele>
        <time>2021-09-25T12:08:38Z</time>
      </trkpt>
      <trkpt lat="43.13651" lon="3.08784">
        <ele>73.264</ele>
        <time>2021-09-25T12:08:40Z</time>
      </trkpt>
      <trkpt lat="43.13651" lon="3.08784">
        <ele>73.625</ele>
        <time>2021-09-25T12:08:42Z</time>
      </trkpt>
      <trkpt lat="43.13651" lon="3.08784">
        <ele>73.545</ele>
        <time>2021-09-25T12:08:44Z</time>
      </trkpt>
      <trkpt lat="43.13651" lon="3.08784">
        <ele>73.538</ele>
        <time>2021-09-25T12:08:46Z</time>
      </trkpt>
      <trkpt lat="43.13651" lon="3.08784">
        <ele>73.581</ele>
        <time>2021-09-25T12:08:48Z</time>
      </trkpt>
      <trkpt lat="43.13651" lon="3.08784">
        <ele>73.93</ele>
        <time>2021-09-25T12:08:50Z</time>
      </trkpt>
      <trkpt lat="43.13651" lon="3.08784">
        <ele>73.928</ele>
        <time>2021-09-25T12:08:52Z</time>
      </trkpt>
      <trkpt lat="43.13651" lon="3.08784">
        <ele>74.316</ele>
        <time>2021-09-25T12:08:54Z</time>
      </trkpt>
      <trkpt lat="43.13651" lon="3.08784">
        <ele>74.306</ele>
        <time>2021-09-25T12:08:56Z</time>
      </trkpt>
      <trkpt lat="43.13651" lon="3.08784">
        <ele>74.121</ele>
        <time>2021-09-25T12:08:58Z</time>
      </trkpt>
      <trkpt lat="43.1365" lon="3.08784">
        <ele>74.158</ele>
        <time>2021-09-25T12:09:00Z</time>
      </trkpt>
      <trkpt lat="43.1365" lon="3.08784">
        <ele>74.154</ele>
        <time>2021-09-25T12:09:02Z</time>
      </trkpt>
      <trkpt lat="43.1365" lon="3.08784">
        <ele>74.147</ele>
        <time>2021-09-25T12:09:04Z</time>
      </trkpt>
      <trkpt lat="43.1365" lon="3.08784">
        <ele>74.139</ele>
        <time>2021-09-25T12:09:06Z</time>
      </trkpt>
      <trkpt lat="43.1365" lon="3.08784">
        <ele>74.136</ele>
        <time>2021-09-25T12:09:08Z</time>
      </trkpt>
      <trkpt lat="43.1365" lon="3.08784">
        <ele>74.136</ele>
        <time>2021-09-25T12:09:10Z</time>
      </trkpt>
      <trkpt lat="43.1365" lon="3.08784">
        <ele>74.138</ele>
        <time>2021-09-25T12:09:12Z</time>
      </trkpt>
      <trkpt lat="43.1365" lon="3.08784">
        <ele>74.136</ele>
        <time>2021-09-25T12:09:14Z</time>
      </trkpt>
      <trkpt lat="43.1365" lon="3.08784">
        <ele>74.136</ele>
        <time>2021-09-25T12:09:16Z</time>
      </trkpt>
      <trkpt lat="43.1365" lon="3.08784">
        <ele>74.133</ele>
        <time>2021-09-25T12:09:18Z</time>
      </trkpt>
      <trkpt lat="43.1365" lon="3.08784">
        <ele>74.132</ele>
        <time>2021-09-25T12:09:19Z</time>
      </trkpt>
      <trkpt lat="43.1365" lon="3.08784">
        <ele>74.131</ele>
        <time>2021-09-25T12:09:22Z</time>
      </trkpt>
      <trkpt lat="43.1365" lon="3.08784">
        <ele>74.131</ele>
        <time>2021-09-25T12:09:24Z</time>
      </trkpt>
      <trkpt lat="43.1365" lon="3.08784">
        <ele>74.133</ele>
        <time>2021-09-25T12:09:26Z</time>
      </trkpt>
      <trkpt lat="43.1365" lon="3.08784">
        <ele>74.139</ele>
        <time>2021-09-25T12:09:28Z</time>
      </trkpt>
      <trkpt lat="43.1365" lon="3.08784">
        <ele>74.143</ele>
        <time>2021-09-25T12:09:30Z</time>
      </trkpt>
      <trkpt lat="43.1365" lon="3.08784">
        <ele>74.144</ele>
        <time>2021-09-25T12:09:32Z</time>
      </trkpt>
      <trkpt lat="43.1365" lon="3.08784">
        <ele>74.148</ele>
        <time>2021-09-25T12:09:34Z</time>
      </trkpt>
      <trkpt lat="43.1365" lon="3.08784">
        <ele>74.151</ele>
        <time>2021-09-25T12:09:36Z</time>
      </trkpt>
      <trkpt lat="43.1365" lon="3.08784">
        <ele>74.157</ele>
        <time>2021-09-25T12:09:38Z</time>
      </trkpt>
      <trkpt lat="43.1365" lon="3.08784">
        <ele>74.16</ele>
        <time>2021-09-25T12:09:40Z</time>
      </trkpt>
      <trkpt lat="43.1365" lon="3.08784">
        <ele>74.162</ele>
        <time>2021-09-25T12:09:42Z</time>
      </trkpt>
      <trkpt lat="43.1365" lon="3.08784">
        <ele>74.163</ele>
        <time>2021-09-25T12:09:44Z</time>
      </trkpt>
      <trkpt lat="43.1365" lon="3.08784">
        <ele>74.167</ele>
        <time>2021-09-25T12:09:46Z</time>
      </trkpt>
      <trkpt lat="43.1365" lon="3.08784">
        <ele>74.163</ele>
        <time>2021-09-25T12:09:48Z</time>
      </trkpt>
      <trkpt lat="43.1365" lon="3.08784">
        <ele>74.158</ele>
        <time>2021-09-25T12:09:50Z</time>
      </trkpt>
      <trkpt lat="43.1365" lon="3.08784">
        <ele>74.157</ele>
        <time>2021-09-25T12:09:52Z</time>
      </trkpt>
      <trkpt lat="43.1365" lon="3.08784">
        <ele>74.152</ele>
        <time>2021-09-25T12:09:54Z</time>
      </trkpt>
      <trkpt lat="43.1365" lon="3.08784">
        <ele>74.145</ele>
        <time>2021-09-25T12:09:56Z</time>
      </trkpt>
      <trkpt lat="43.1365" lon="3.08784">
        <ele>74.139</ele>
        <time>2021-09-25T12:09:58Z</time>
      </trkpt>
      <trkpt lat="43.1365" lon="3.08784">
        <ele>73.914</ele>
        <time>2021-09-25T12:10:00Z</time>
      </trkpt>
      <trkpt lat="43.1365" lon="3.08784">
        <ele>73.692</ele>
        <time>2021-09-25T12:10:02Z</time>
      </trkpt>
      <trkpt lat="43.1365" lon="3.08784">
        <ele>75.536</ele>
        <time>2021-09-25T12:10:04Z</time>
      </trkpt>
      <trkpt lat="43.1365" lon="3.08784">
        <ele>74.975</ele>
        <time>2021-09-25T12:10:06Z</time>
      </trkpt>
      <trkpt lat="43.1365" lon="3.08784">
        <ele>75.285</ele>
        <time>2021-09-25T12:10:08Z</time>
      </trkpt>
      <trkpt lat="43.1365" lon="3.08784">
        <ele>75.285</ele>
        <time>2021-09-25T12:10:10Z</time>
      </trkpt>
      <trkpt lat="43.1365" lon="3.08784">
        <ele>74.879</ele>
        <time>2021-09-25T12:10:12Z</time>
      </trkpt>
      <trkpt lat="43.1365" lon="3.08784">
        <ele>74.861</ele>
        <time>2021-09-25T12:10:14Z</time>
      </trkpt>
      <trkpt lat="43.1365" lon="3.08784">
        <ele>74.872</ele>
        <time>2021-09-25T12:10:16Z</time>
      </trkpt>
      <trkpt lat="43.1365" lon="3.08784">
        <ele>74.883</ele>
        <time>2021-09-25T12:10:18Z</time>
      </trkpt>
      <trkpt lat="43.1365" lon="3.08784">
        <ele>74.885</ele>
        <time>2021-09-25T12:10:20Z</time>
      </trkpt>
      <trkpt lat="43.1365" lon="3.08784">
        <ele>74.891</ele>
        <time>2021-09-25T12:10:22Z</time>
      </trkpt>
      <trkpt lat="43.1365" lon="3.08784">
        <ele>74.888</ele>
        <time>2021-09-25T12:10:24Z</time>
      </trkpt>
      <trkpt lat="43.1365" lon="3.08784">
        <ele>74.89</ele>
        <time>2021-09-25T12:10:26Z</time>
      </trkpt>
      <trkpt lat="43.1365" lon="3.08784">
        <ele>74.882</ele>
        <time>2021-09-25T12:10:28Z</time>
      </trkpt>
      <trkpt lat="43.1365" lon="3.08784">
        <ele>74.88</ele>
        <time>2021-09-25T12:10:30Z</time>
      </trkpt>
      <trkpt lat="43.1365" lon="3.08784">
        <ele>75.081</ele>
        <time>2021-09-25T12:10:32Z</time>
      </trkpt>
      <trkpt lat="43.13649" lon="3.08784">
        <ele>75.08</ele>
        <time>2021-09-25T12:10:34Z</time>
      </trkpt>
      <trkpt lat="43.13649" lon="3.08784">
        <ele>75.082</ele>
        <time>2021-09-25T12:10:36Z</time>
      </trkpt>
      <trkpt lat="43.13649" lon="3.08784">
        <ele>75.067</ele>
        <time>2021-09-25T12:10:38Z</time>
      </trkpt>
      <trkpt lat="43.13649" lon="3.08784">
        <ele>74.348</ele>
        <time>2021-09-25T12:10:40Z</time>
      </trkpt>
      <trkpt lat="43.13649" lon="3.08784">
        <ele>74.345</ele>
        <time>2021-09-25T12:10:42Z</time>
      </trkpt>
      <trkpt lat="43.13649" lon="3.08784">
        <ele>74.342</ele>
        <time>2021-09-25T12:10:44Z</time>
      </trkpt>
      <trkpt lat="43.13649" lon="3.08784">
        <ele>74.327</ele>
        <time>2021-09-25T12:10:46Z</time>
      </trkpt>
      <trkpt lat="43.13649" lon="3.08784">
        <ele>74.315</ele>
        <time>2021-09-25T12:10:48Z</time>
      </trkpt>
      <trkpt lat="43.13649" lon="3.08784">
        <ele>74.303</ele>
        <time>2021-09-25T12:10:50Z</time>
      </trkpt>
      <trkpt lat="43.13649" lon="3.08784">
        <ele>73.984</ele>
        <time>2021-09-25T12:10:52Z</time>
      </trkpt>
      <trkpt lat="43.13648" lon="3.08783">
        <ele>74.321</ele>
        <time>2021-09-25T12:10:54Z</time>
      </trkpt>
      <trkpt lat="43.13644" lon="3.08782">
        <ele>75.027</ele>
        <time>2021-09-25T12:10:56Z</time>
      </trkpt>
      <trkpt lat="43.13641" lon="3.08781">
        <ele>76.176</ele>
        <time>2021-09-25T12:10:58Z</time>
      </trkpt>
      <trkpt lat="43.1364" lon="3.08779">
        <ele>76.99</ele>
        <time>2021-09-25T12:11:00Z</time>
      </trkpt>
      <trkpt lat="43.13639" lon="3.08776">
        <ele>73.728</ele>
        <time>2021-09-25T12:11:02Z</time>
      </trkpt>
      <trkpt lat="43.13639" lon="3.08774">
        <ele>71.219</ele>
        <time>2021-09-25T12:11:04Z</time>
      </trkpt>
      <trkpt lat="43.13637" lon="3.08773">
        <ele>72.19</ele>
        <time>2021-09-25T12:11:06Z</time>
      </trkpt>
      <trkpt lat="43.13637" lon="3.0877">
        <ele>72.724</ele>
        <time>2021-09-25T12:11:08Z</time>
      </trkpt>
      <trkpt lat="43.13636" lon="3.08768">
        <ele>71.978</ele>
        <time>2021-09-25T12:11:10Z</time>
      </trkpt>
      <trkpt lat="43.13635" lon="3.08767">
        <ele>71.566</ele>
        <time>2021-09-25T12:11:12Z</time>
      </trkpt>
      <trkpt lat="43.13633" lon="3.08765">
        <ele>72.78</ele>
        <time>2021-09-25T12:11:14Z</time>
      </trkpt>
      <trkpt lat="43.13632" lon="3.08763">
        <ele>72.271</ele>
        <time>2021-09-25T12:11:16Z</time>
      </trkpt>
      <trkpt lat="43.1363" lon="3.08762">
        <ele>70.977</ele>
        <time>2021-09-25T12:11:18Z</time>
      </trkpt>
      <trkpt lat="43.13629" lon="3.08761">
        <ele>71.113</ele>
        <time>2021-09-25T12:11:20Z</time>
      </trkpt>
      <trkpt lat="43.13629" lon="3.0876">
        <ele>70.998</ele>
        <time>2021-09-25T12:11:22Z</time>
      </trkpt>
      <trkpt lat="43.13629" lon="3.0876">
        <ele>71.195</ele>
        <time>2021-09-25T12:11:24Z</time>
      </trkpt>
      <trkpt lat="43.13629" lon="3.0876">
        <ele>71.119</ele>
        <time>2021-09-25T12:11:26Z</time>
      </trkpt>
      <trkpt lat="43.13628" lon="3.08759">
        <ele>70.461</ele>
        <time>2021-09-25T12:11:28Z</time>
      </trkpt>
      <trkpt lat="43.13626" lon="3.08757">
        <ele>70.231</ele>
        <time>2021-09-25T12:11:30Z</time>
      </trkpt>
      <trkpt lat="43.13623" lon="3.08756">
        <ele>70.112</ele>
        <time>2021-09-25T12:11:32Z</time>
      </trkpt>
      <trkpt lat="43.1362" lon="3.08754">
        <ele>69.954</ele>
        <time>2021-09-25T12:11:34Z</time>
      </trkpt>
      <trkpt lat="43.13618" lon="3.08753">
        <ele>69.537</ele>
        <time>2021-09-25T12:11:36Z</time>
      </trkpt>
      <trkpt lat="43.13616" lon="3.0875">
        <ele>69.698</ele>
        <time>2021-09-25T12:11:38Z</time>
      </trkpt>
      <trkpt lat="43.13614" lon="3.08748">
        <ele>70.505</ele>
        <time>2021-09-25T12:11:40Z</time>
      </trkpt>
      <trkpt lat="43.13612" lon="3.08746">
        <ele>71.02</ele>
        <time>2021-09-25T12:11:42Z</time>
      </trkpt>
      <trkpt lat="43.1361" lon="3.08744">
        <ele>71.122</ele>
        <time>2021-09-25T12:11:44Z</time>
      </trkpt>
      <trkpt lat="43.13608" lon="3.08743">
        <ele>70.3</ele>
        <time>2021-09-25T12:11:46Z</time>
      </trkpt>
      <trkpt lat="43.13607" lon="3.08742">
        <ele>70.785</ele>
        <time>2021-09-25T12:11:48Z</time>
      </trkpt>
      <trkpt lat="43.13605" lon="3.0874">
        <ele>71.294</ele>
        <time>2021-09-25T12:11:50Z</time>
      </trkpt>
      <trkpt lat="43.13603" lon="3.08739">
        <ele>70.91</ele>
        <time>2021-09-25T12:11:52Z</time>
      </trkpt>
      <trkpt lat="43.13601" lon="3.08738">
        <ele>70.931</ele>
        <time>2021-09-25T12:11:54Z</time>
      </trkpt>
      <trkpt lat="43.13599" lon="3.08737">
        <ele>70.394</ele>
        <time>2021-09-25T12:11:56Z</time>
      </trkpt>
      <trkpt lat="43.13597" lon="3.08736">
        <ele>70.084</ele>
        <time>2021-09-25T12:11:58Z</time>
      </trkpt>
      <trkpt lat="43.13595" lon="3.08734">
        <ele>69.964</ele>
        <time>2021-09-25T12:12:00Z</time>
      </trkpt>
      <trkpt lat="43.13593" lon="3.08733">
        <ele>69.214</ele>
        <time>2021-09-25T12:12:02Z</time>
      </trkpt>
      <trkpt lat="43.13591" lon="3.08733">
        <ele>69.069</ele>
        <time>2021-09-25T12:12:04Z</time>
      </trkpt>
      <trkpt lat="43.13589" lon="3.08732">
        <ele>68.609</ele>
        <time>2021-09-25T12:12:06Z</time>
      </trkpt>
      <trkpt lat="43.13587" lon="3.0873">
        <ele>68.808</ele>
        <time>2021-09-25T12:12:08Z</time>
      </trkpt>
      <trkpt lat="43.13585" lon="3.0873">
        <ele>68.901</ele>
        <time>2021-09-25T12:12:10Z</time>
      </trkpt>
      <trkpt lat="43.13583" lon="3.08728">
        <ele>68.474</ele>
        <time>2021-09-25T12:12:12Z</time>
      </trkpt>
      <trkpt lat="43.1358" lon="3.08726">
        <ele>67.678</ele>
        <time>2021-09-25T12:12:14Z</time>
      </trkpt>
      <trkpt lat="43.13579" lon="3.08725">
        <ele>65.91</ele>
        <time>2021-09-25T12:12:16Z</time>
      </trkpt>
      <trkpt lat="43.13577" lon="3.08724">
        <ele>66.004</ele>
        <time>2021-09-25T12:12:18Z</time>
      </trkpt>
      <trkpt lat="43.13575" lon="3.0872">
        <ele>67.014</ele>
        <time>2021-09-25T12:12:20Z</time>
      </trkpt>
      <trkpt lat="43.13574" lon="3.08716">
        <ele>69.059</ele>
        <time>2021-09-25T12:12:22Z</time>
      </trkpt>
      <trkpt lat="43.13572" lon="3.08711">
        <ele>73.627</ele>
        <time>2021-09-25T12:12:24Z</time>
      </trkpt>
      <trkpt lat="43.13569" lon="3.08708">
        <ele>73.939</ele>
        <time>2021-09-25T12:12:26Z</time>
      </trkpt>
      <trkpt lat="43.13567" lon="3.08706">
        <ele>73.999</ele>
        <time>2021-09-25T12:12:28Z</time>
      </trkpt>
      <trkpt lat="43.13565" lon="3.08706">
        <ele>74.581</ele>
        <time>2021-09-25T12:12:30Z</time>
      </trkpt>
      <trkpt lat="43.13563" lon="3.08706">
        <ele>73.676</ele>
        <time>2021-09-25T12:12:32Z</time>
      </trkpt>
      <trkpt lat="43.13561" lon="3.08707">
        <ele>72.913</ele>
        <time>2021-09-25T12:12:34Z</time>
      </trkpt>
      <trkpt lat="43.13559" lon="3.08708">
        <ele>72.019</ele>
        <time>2021-09-25T12:12:36Z</time>
      </trkpt>
      <trkpt lat="43.13557" lon="3.0871">
        <ele>70.657</ele>
        <time>2021-09-25T12:12:38Z</time>
      </trkpt>
      <trkpt lat="43.13554" lon="3.0871">
        <ele>70.846</ele>
        <time>2021-09-25T12:12:40Z</time>
      </trkpt>
      <trkpt lat="43.13552" lon="3.08711">
        <ele>69.866</ele>
        <time>2021-09-25T12:12:42Z</time>
      </trkpt>
      <trkpt lat="43.1355" lon="3.08711">
        <ele>69.023</ele>
        <time>2021-09-25T12:12:44Z</time>
      </trkpt>
      <trkpt lat="43.13549" lon="3.08709">
        <ele>71.193</ele>
        <time>2021-09-25T12:12:46Z</time>
      </trkpt>
      <trkpt lat="43.13551" lon="3.08709">
        <ele>70.078</ele>
        <time>2021-09-25T12:12:48Z</time>
      </trkpt>
      <trkpt lat="43.1355" lon="3.08708">
        <ele>71.062</ele>
        <time>2021-09-25T12:12:50Z</time>
      </trkpt>
      <trkpt lat="43.1355" lon="3.08708">
        <ele>69.578</ele>
        <time>2021-09-25T12:12:52Z</time>
      </trkpt>
      <trkpt lat="43.1355" lon="3.0871">
        <ele>68.088</ele>
        <time>2021-09-25T12:12:54Z</time>
      </trkpt>
      <trkpt lat="43.1355" lon="3.0871">
        <ele>68.085</ele>
        <time>2021-09-25T12:12:56Z</time>
      </trkpt>
      <trkpt lat="43.1355" lon="3.0871">
        <ele>68.085</ele>
        <time>2021-09-25T12:12:58Z</time>
      </trkpt>
      <trkpt lat="43.1355" lon="3.0871">
        <ele>67.954</ele>
        <time>2021-09-25T12:13:00Z</time>
      </trkpt>
      <trkpt lat="43.13549" lon="3.0871">
        <ele>68.054</ele>
        <time>2021-09-25T12:13:02Z</time>
      </trkpt>
      <trkpt lat="43.13548" lon="3.0871">
        <ele>68.085</ele>
        <time>2021-09-25T12:13:04Z</time>
      </trkpt>
      <trkpt lat="43.13546" lon="3.08711">
        <ele>68.126</ele>
        <time>2021-09-25T12:13:06Z</time>
      </trkpt>
      <trkpt lat="43.13546" lon="3.08711">
        <ele>69.227</ele>
        <time>2021-09-25T12:13:08Z</time>
      </trkpt>
      <trkpt lat="43.13546" lon="3.08711">
        <ele>69.229</ele>
        <time>2021-09-25T12:13:10Z</time>
      </trkpt>
      <trkpt lat="43.13545" lon="3.08711">
        <ele>68.672</ele>
        <time>2021-09-25T12:13:12Z</time>
      </trkpt>
      <trkpt lat="43.13544" lon="3.08714">
        <ele>68.754</ele>
        <time>2021-09-25T12:13:14Z</time>
      </trkpt>
      <trkpt lat="43.13541" lon="3.08713">
        <ele>69.274</ele>
        <time>2021-09-25T12:13:16Z</time>
      </trkpt>
      <trkpt lat="43.13539" lon="3.08713">
        <ele>69.646</ele>
        <time>2021-09-25T12:13:18Z</time>
      </trkpt>
      <trkpt lat="43.13536" lon="3.08712">
        <ele>68.936</ele>
        <time>2021-09-25T12:13:20Z</time>
      </trkpt>
      <trkpt lat="43.13534" lon="3.08713">
        <ele>68.437</ele>
        <time>2021-09-25T12:13:22Z</time>
      </trkpt>
      <trkpt lat="43.13533" lon="3.08714">
        <ele>68.409</ele>
        <time>2021-09-25T12:13:24Z</time>
      </trkpt>
      <trkpt lat="43.13531" lon="3.08715">
        <ele>67.44</ele>
        <time>2021-09-25T12:13:26Z</time>
      </trkpt>
      <trkpt lat="43.13529" lon="3.08715">
        <ele>68.403</ele>
        <time>2021-09-25T12:13:28Z</time>
      </trkpt>
      <trkpt lat="43.13526" lon="3.08716">
        <ele>69.501</ele>
        <time>2021-09-25T12:13:30Z</time>
      </trkpt>
      <trkpt lat="43.13524" lon="3.08717">
        <ele>70.822</ele>
        <time>2021-09-25T12:13:32Z</time>
      </trkpt>
      <trkpt lat="43.13522" lon="3.08717">
        <ele>71.088</ele>
        <time>2021-09-25T12:13:34Z</time>
      </trkpt>
      <trkpt lat="43.1352" lon="3.08718">
        <ele>71.598</ele>
        <time>2021-09-25T12:13:36Z</time>
      </trkpt>
      <trkpt lat="43.13518" lon="3.08719">
        <ele>71.029</ele>
        <time>2021-09-25T12:13:38Z</time>
      </trkpt>
      <trkpt lat="43.13516" lon="3.0872">
        <ele>71.571</ele>
        <time>2021-09-25T12:13:40Z</time>
      </trkpt>
      <trkpt lat="43.13514" lon="3.08721">
        <ele>72.35</ele>
        <time>2021-09-25T12:13:42Z</time>
      </trkpt>
      <trkpt lat="43.13512" lon="3.08722">
        <ele>72.474</ele>
        <time>2021-09-25T12:13:44Z</time>
      </trkpt>
      <trkpt lat="43.1351" lon="3.08723">
        <ele>74.184</ele>
        <time>2021-09-25T12:13:46Z</time>
      </trkpt>
      <trkpt lat="43.13508" lon="3.08724">
        <ele>74.112</ele>
        <time>2021-09-25T12:13:48Z</time>
      </trkpt>
      <trkpt lat="43.13506" lon="3.08725">
        <ele>73.731</ele>
        <time>2021-09-25T12:13:50Z</time>
      </trkpt>
      <trkpt lat="43.13504" lon="3.08726">
        <ele>73.88</ele>
        <time>2021-09-25T12:13:52Z</time>
      </trkpt>
      <trkpt lat="43.13503" lon="3.08727">
        <ele>72.796</ele>
        <time>2021-09-25T12:13:54Z</time>
      </trkpt>
      <trkpt lat="43.13501" lon="3.08728">
        <ele>72.766</ele>
        <time>2021-09-25T12:13:56Z</time>
      </trkpt>
      <trkpt lat="43.13498" lon="3.08729">
        <ele>73.023</ele>
        <time>2021-09-25T12:13:58Z</time>
      </trkpt>
      <trkpt lat="43.13496" lon="3.0873">
        <ele>73.192</ele>
        <time>2021-09-25T12:14:00Z</time>
      </trkpt>
      <trkpt lat="43.13494" lon="3.0873">
        <ele>72.808</ele>
        <time>2021-09-25T12:14:02Z</time>
      </trkpt>
      <trkpt lat="43.13492" lon="3.08731">
        <ele>72.873</ele>
        <time>2021-09-25T12:14:04Z</time>
      </trkpt>
      <trkpt lat="43.1349" lon="3.08732">
        <ele>73.258</ele>
        <time>2021-09-25T12:14:06Z</time>
      </trkpt>
      <trkpt lat="43.1349" lon="3.08733">
        <ele>71.754</ele>
        <time>2021-09-25T12:14:08Z</time>
      </trkpt>
      <trkpt lat="43.13489" lon="3.08734">
        <ele>73.156</ele>
        <time>2021-09-25T12:14:10Z</time>
      </trkpt>
      <trkpt lat="43.1349" lon="3.08734">
        <ele>73.267</ele>
        <time>2021-09-25T12:14:12Z</time>
      </trkpt>
      <trkpt lat="43.13488" lon="3.08735">
        <ele>73.558</ele>
        <time>2021-09-25T12:14:14Z</time>
      </trkpt>
      <trkpt lat="43.13485" lon="3.08737">
        <ele>73.603</ele>
        <time>2021-09-25T12:14:17Z</time>
      </trkpt>
      <trkpt lat="43.13483" lon="3.08737">
        <ele>72.413</ele>
        <time>2021-09-25T12:14:19Z</time>
      </trkpt>
      <trkpt lat="43.13481" lon="3.08738">
        <ele>72.522</ele>
        <time>2021-09-25T12:14:21Z</time>
      </trkpt>
      <trkpt lat="43.13479" lon="3.08738">
        <ele>71.978</ele>
        <time>2021-09-25T12:14:23Z</time>
      </trkpt>
      <trkpt lat="43.13477" lon="3.08739">
        <ele>71.584</ele>
        <time>2021-09-25T12:14:25Z</time>
      </trkpt>
      <trkpt lat="43.13474" lon="3.08739">
        <ele>71.712</ele>
        <time>2021-09-25T12:14:27Z</time>
      </trkpt>
      <trkpt lat="43.13472" lon="3.0874">
        <ele>71.039</ele>
        <time>2021-09-25T12:14:29Z</time>
      </trkpt>
      <trkpt lat="43.1347" lon="3.08742">
        <ele>71.073</ele>
        <time>2021-09-25T12:14:31Z</time>
      </trkpt>
      <trkpt lat="43.13468" lon="3.08743">
        <ele>70.868</ele>
        <time>2021-09-25T12:14:33Z</time>
      </trkpt>
      <trkpt lat="43.13466" lon="3.08744">
        <ele>70.61</ele>
        <time>2021-09-25T12:14:35Z</time>
      </trkpt>
      <trkpt lat="43.13464" lon="3.08745">
        <ele>70.779</ele>
        <time>2021-09-25T12:14:37Z</time>
      </trkpt>
      <trkpt lat="43.13462" lon="3.08746">
        <ele>70.366</ele>
        <time>2021-09-25T12:14:39Z</time>
      </trkpt>
      <trkpt lat="43.1346" lon="3.08747">
        <ele>70.233</ele>
        <time>2021-09-25T12:14:41Z</time>
      </trkpt>
      <trkpt lat="43.13458" lon="3.08748">
        <ele>69.976</ele>
        <time>2021-09-25T12:14:43Z</time>
      </trkpt>
      <trkpt lat="43.13456" lon="3.08749">
        <ele>69.626</ele>
        <time>2021-09-25T12:14:45Z</time>
      </trkpt>
      <trkpt lat="43.13454" lon="3.0875">
        <ele>69.348</ele>
        <time>2021-09-25T12:14:47Z</time>
      </trkpt>
      <trkpt lat="43.13452" lon="3.08751">
        <ele>69.575</ele>
        <time>2021-09-25T12:14:49Z</time>
      </trkpt>
      <trkpt lat="43.1345" lon="3.08752">
        <ele>69.611</ele>
        <time>2021-09-25T12:14:51Z</time>
      </trkpt>
      <trkpt lat="43.13447" lon="3.08753">
        <ele>68.943</ele>
        <time>2021-09-25T12:14:53Z</time>
      </trkpt>
      <trkpt lat="43.13445" lon="3.08754">
        <ele>68.792</ele>
        <time>2021-09-25T12:14:55Z</time>
      </trkpt>
      <trkpt lat="43.13443" lon="3.08755">
        <ele>68.519</ele>
        <time>2021-09-25T12:14:57Z</time>
      </trkpt>
      <trkpt lat="43.13441" lon="3.08756">
        <ele>68.717</ele>
        <time>2021-09-25T12:14:59Z</time>
      </trkpt>
      <trkpt lat="43.13439" lon="3.08757">
        <ele>69.393</ele>
        <time>2021-09-25T12:15:01Z</time>
      </trkpt>
      <trkpt lat="43.13437" lon="3.08758">
        <ele>69.139</ele>
        <time>2021-09-25T12:15:03Z</time>
      </trkpt>
      <trkpt lat="43.13435" lon="3.08759">
        <ele>69.189</ele>
        <time>2021-09-25T12:15:05Z</time>
      </trkpt>
      <trkpt lat="43.13433" lon="3.08761">
        <ele>68.638</ele>
        <time>2021-09-25T12:15:07Z</time>
      </trkpt>
      <trkpt lat="43.13431" lon="3.08762">
        <ele>68.592</ele>
        <time>2021-09-25T12:15:09Z</time>
      </trkpt>
      <trkpt lat="43.13429" lon="3.08763">
        <ele>68.692</ele>
        <time>2021-09-25T12:15:11Z</time>
      </trkpt>
      <trkpt lat="43.13426" lon="3.08764">
        <ele>68.719</ele>
        <time>2021-09-25T12:15:13Z</time>
      </trkpt>
      <trkpt lat="43.13424" lon="3.08765">
        <ele>69.317</ele>
        <time>2021-09-25T12:15:15Z</time>
      </trkpt>
      <trkpt lat="43.13422" lon="3.08766">
        <ele>69.574</ele>
        <time>2021-09-25T12:15:17Z</time>
      </trkpt>
      <trkpt lat="43.1342" lon="3.08767">
        <ele>69.992</ele>
        <time>2021-09-25T12:15:19Z</time>
      </trkpt>
      <trkpt lat="43.13418" lon="3.08768">
        <ele>69.689</ele>
        <time>2021-09-25T12:15:21Z</time>
      </trkpt>
      <trkpt lat="43.13416" lon="3.08769">
        <ele>69.545</ele>
        <time>2021-09-25T12:15:23Z</time>
      </trkpt>
      <trkpt lat="43.13414" lon="3.08769">
        <ele>69.634</ele>
        <time>2021-09-25T12:15:25Z</time>
      </trkpt>
      <trkpt lat="43.13412" lon="3.08771">
        <ele>71.798</ele>
        <time>2021-09-25T12:15:27Z</time>
      </trkpt>
      <trkpt lat="43.13411" lon="3.08772">
        <ele>72.476</ele>
        <time>2021-09-25T12:15:29Z</time>
      </trkpt>
      <trkpt lat="43.13409" lon="3.08772">
        <ele>72.315</ele>
        <time>2021-09-25T12:15:31Z</time>
      </trkpt>
      <trkpt lat="43.13407" lon="3.08773">
        <ele>72.796</ele>
        <time>2021-09-25T12:15:33Z</time>
      </trkpt>
      <trkpt lat="43.13405" lon="3.08773">
        <ele>72.944</ele>
        <time>2021-09-25T12:15:35Z</time>
      </trkpt>
      <trkpt lat="43.13403" lon="3.08773">
        <ele>73.279</ele>
        <time>2021-09-25T12:15:37Z</time>
      </trkpt>
      <trkpt lat="43.13401" lon="3.08774">
        <ele>73.892</ele>
        <time>2021-09-25T12:15:39Z</time>
      </trkpt>
      <trkpt lat="43.13399" lon="3.08774">
        <ele>74.246</ele>
        <time>2021-09-25T12:15:41Z</time>
      </trkpt>
      <trkpt lat="43.13397" lon="3.08775">
        <ele>73.534</ele>
        <time>2021-09-25T12:15:43Z</time>
      </trkpt>
      <trkpt lat="43.13395" lon="3.08775">
        <ele>73.178</ele>
        <time>2021-09-25T12:15:45Z</time>
      </trkpt>
      <trkpt lat="43.13392" lon="3.08774">
        <ele>73.431</ele>
        <time>2021-09-25T12:15:47Z</time>
      </trkpt>
      <trkpt lat="43.13391" lon="3.08774">
        <ele>73.118</ele>
        <time>2021-09-25T12:15:49Z</time>
      </trkpt>
      <trkpt lat="43.1339" lon="3.08774">
        <ele>72.517</ele>
        <time>2021-09-25T12:15:51Z</time>
      </trkpt>
      <trkpt lat="43.1339" lon="3.08774">
        <ele>72.513</ele>
        <time>2021-09-25T12:15:53Z</time>
      </trkpt>
      <trkpt lat="43.1339" lon="3.08774">
        <ele>72.507</ele>
        <time>2021-09-25T12:15:55Z</time>
      </trkpt>
      <trkpt lat="43.1339" lon="3.08774">
        <ele>72.022</ele>
        <time>2021-09-25T12:15:57Z</time>
      </trkpt>
      <trkpt lat="43.13388" lon="3.08774">
        <ele>72.053</ele>
        <time>2021-09-25T12:15:59Z</time>
      </trkpt>
      <trkpt lat="43.13386" lon="3.08774">
        <ele>72.068</ele>
        <time>2021-09-25T12:16:01Z</time>
      </trkpt>
      <trkpt lat="43.13384" lon="3.08774">
        <ele>72.037</ele>
        <time>2021-09-25T12:16:03Z</time>
      </trkpt>
      <trkpt lat="43.13382" lon="3.08774">
        <ele>72.184</ele>
        <time>2021-09-25T12:16:05Z</time>
      </trkpt>
      <trkpt lat="43.13381" lon="3.08775">
        <ele>71.892</ele>
        <time>2021-09-25T12:16:07Z</time>
      </trkpt>
      <trkpt lat="43.1338" lon="3.08776">
        <ele>71.037</ele>
        <time>2021-09-25T12:16:09Z</time>
      </trkpt>
      <trkpt lat="43.1338" lon="3.08776">
        <ele>70.554</ele>
        <time>2021-09-25T12:16:11Z</time>
      </trkpt>
      <trkpt lat="43.1338" lon="3.08776">
        <ele>70.553</ele>
        <time>2021-09-25T12:16:13Z</time>
      </trkpt>
      <trkpt lat="43.13379" lon="3.08777">
        <ele>70.349</ele>
        <time>2021-09-25T12:16:15Z</time>
      </trkpt>
      <trkpt lat="43.13378" lon="3.08777">
        <ele>70.732</ele>
        <time>2021-09-25T12:16:17Z</time>
      </trkpt>
      <trkpt lat="43.13376" lon="3.08777">
        <ele>70.597</ele>
        <time>2021-09-25T12:16:19Z</time>
      </trkpt>
      <trkpt lat="43.13374" lon="3.08777">
        <ele>70.376</ele>
        <time>2021-09-25T12:16:21Z</time>
      </trkpt>
      <trkpt lat="43.13372" lon="3.08777">
        <ele>70.351</ele>
        <time>2021-09-25T12:16:23Z</time>
      </trkpt>
      <trkpt lat="43.13371" lon="3.08778">
        <ele>70.005</ele>
        <time>2021-09-25T12:16:25Z</time>
      </trkpt>
      <trkpt lat="43.13371" lon="3.08777">
        <ele>69.657</ele>
        <time>2021-09-25T12:16:27Z</time>
      </trkpt>
      <trkpt lat="43.13371" lon="3.08777">
        <ele>69.643</ele>
        <time>2021-09-25T12:16:29Z</time>
      </trkpt>
      <trkpt lat="43.13371" lon="3.08777">
        <ele>69.631</ele>
        <time>2021-09-25T12:16:31Z</time>
      </trkpt>
      <trkpt lat="43.13371" lon="3.08777">
        <ele>69.622</ele>
        <time>2021-09-25T12:16:33Z</time>
      </trkpt>
      <trkpt lat="43.13371" lon="3.08777">
        <ele>69.613</ele>
        <time>2021-09-25T12:16:35Z</time>
      </trkpt>
      <trkpt lat="43.13371" lon="3.08777">
        <ele>69.602</ele>
        <time>2021-09-25T12:16:37Z</time>
      </trkpt>
      <trkpt lat="43.13371" lon="3.08777">
        <ele>69.592</ele>
        <time>2021-09-25T12:16:39Z</time>
      </trkpt>
      <trkpt lat="43.13371" lon="3.08778">
        <ele>69.761</ele>
        <time>2021-09-25T12:16:41Z</time>
      </trkpt>
      <trkpt lat="43.13373" lon="3.08778">
        <ele>68.914</ele>
        <time>2021-09-25T12:16:43Z</time>
      </trkpt>
      <trkpt lat="43.13375" lon="3.08778">
        <ele>68.041</ele>
        <time>2021-09-25T12:16:45Z</time>
      </trkpt>
      <trkpt lat="43.13377" lon="3.08779">
        <ele>67.011</ele>
        <time>2021-09-25T12:16:47Z</time>
      </trkpt>
      <trkpt lat="43.13378" lon="3.0878">
        <ele>66.122</ele>
        <time>2021-09-25T12:16:49Z</time>
      </trkpt>
      <trkpt lat="43.1338" lon="3.08781">
        <ele>65.46</ele>
        <time>2021-09-25T12:16:51Z</time>
      </trkpt>
      <trkpt lat="43.13381" lon="3.08783">
        <ele>65.4</ele>
        <time>2021-09-25T12:16:53Z</time>
      </trkpt>
      <trkpt lat="43.13383" lon="3.08785">
        <ele>64.384</ele>
        <time>2021-09-25T12:16:55Z</time>
      </trkpt>
      <trkpt lat="43.13384" lon="3.08787">
        <ele>63.527</ele>
        <time>2021-09-25T12:16:57Z</time>
      </trkpt>
      <trkpt lat="43.13386" lon="3.08789">
        <ele>63.083</ele>
        <time>2021-09-25T12:16:59Z</time>
      </trkpt>
      <trkpt lat="43.13388" lon="3.08791">
        <ele>62.687</ele>
        <time>2021-09-25T12:17:01Z</time>
      </trkpt>
      <trkpt lat="43.13389" lon="3.08793">
        <ele>62.911</ele>
        <time>2021-09-25T12:17:03Z</time>
      </trkpt>
      <trkpt lat="43.1339" lon="3.08796">
        <ele>62.637</ele>
        <time>2021-09-25T12:17:05Z</time>
      </trkpt>
      <trkpt lat="43.13391" lon="3.08798">
        <ele>61.989</ele>
        <time>2021-09-25T12:17:07Z</time>
      </trkpt>
      <trkpt lat="43.13392" lon="3.08801">
        <ele>61.271</ele>
        <time>2021-09-25T12:17:09Z</time>
      </trkpt>
      <trkpt lat="43.13393" lon="3.08804">
        <ele>61.632</ele>
        <time>2021-09-25T12:17:11Z</time>
      </trkpt>
      <trkpt lat="43.13394" lon="3.08807">
        <ele>61.404</ele>
        <time>2021-09-25T12:17:13Z</time>
      </trkpt>
      <trkpt lat="43.13396" lon="3.08809">
        <ele>60.193</ele>
        <time>2021-09-25T12:17:15Z</time>
      </trkpt>
      <trkpt lat="43.13397" lon="3.08811">
        <ele>59.903</ele>
        <time>2021-09-25T12:17:17Z</time>
      </trkpt>
      <trkpt lat="43.13398" lon="3.08814">
        <ele>59.737</ele>
        <time>2021-09-25T12:17:19Z</time>
      </trkpt>
      <trkpt lat="43.13399" lon="3.08817">
        <ele>59.284</ele>
        <time>2021-09-25T12:17:21Z</time>
      </trkpt>
      <trkpt lat="43.134" lon="3.08819">
        <ele>58.789</ele>
        <time>2021-09-25T12:17:23Z</time>
      </trkpt>
      <trkpt lat="43.13401" lon="3.08822">
        <ele>58.399</ele>
        <time>2021-09-25T12:17:25Z</time>
      </trkpt>
      <trkpt lat="43.13402" lon="3.08824">
        <ele>58.463</ele>
        <time>2021-09-25T12:17:27Z</time>
      </trkpt>
      <trkpt lat="43.13403" lon="3.08827">
        <ele>58.575</ele>
        <time>2021-09-25T12:17:29Z</time>
      </trkpt>
      <trkpt lat="43.13404" lon="3.08829">
        <ele>58.074</ele>
        <time>2021-09-25T12:17:31Z</time>
      </trkpt>
      <trkpt lat="43.13405" lon="3.08831">
        <ele>58.189</ele>
        <time>2021-09-25T12:17:33Z</time>
      </trkpt>
      <trkpt lat="43.13406" lon="3.08834">
        <ele>57.886</ele>
        <time>2021-09-25T12:17:35Z</time>
      </trkpt>
      <trkpt lat="43.13407" lon="3.08836">
        <ele>57.866</ele>
        <time>2021-09-25T12:17:37Z</time>
      </trkpt>
      <trkpt lat="43.13407" lon="3.08838">
        <ele>59.267</ele>
        <time>2021-09-25T12:17:39Z</time>
      </trkpt>
      <trkpt lat="43.13407" lon="3.08838">
        <ele>59.245</ele>
        <time>2021-09-25T12:17:41Z</time>
      </trkpt>
      <trkpt lat="43.13407" lon="3.08838">
        <ele>59.254</ele>
        <time>2021-09-25T12:17:43Z</time>
      </trkpt>
      <trkpt lat="43.13407" lon="3.08838">
        <ele>59.473</ele>
        <time>2021-09-25T12:17:45Z</time>
      </trkpt>
      <trkpt lat="43.13407" lon="3.08838">
        <ele>59.477</ele>
        <time>2021-09-25T12:17:47Z</time>
      </trkpt>
      <trkpt lat="43.13407" lon="3.08837">
        <ele>59.565</ele>
        <time>2021-09-25T12:17:49Z</time>
      </trkpt>
      <trkpt lat="43.13407" lon="3.08837">
        <ele>59.559</ele>
        <time>2021-09-25T12:17:51Z</time>
      </trkpt>
      <trkpt lat="43.13407" lon="3.08837">
        <ele>59.561</ele>
        <time>2021-09-25T12:17:53Z</time>
      </trkpt>
      <trkpt lat="43.13407" lon="3.08837">
        <ele>59.561</ele>
        <time>2021-09-25T12:17:55Z</time>
      </trkpt>
      <trkpt lat="43.13407" lon="3.08837">
        <ele>59.792</ele>
        <time>2021-09-25T12:17:57Z</time>
      </trkpt>
      <trkpt lat="43.13406" lon="3.08836">
        <ele>59.811</ele>
        <time>2021-09-25T12:17:59Z</time>
      </trkpt>
      <trkpt lat="43.13405" lon="3.08834">
        <ele>60.293</ele>
        <time>2021-09-25T12:18:01Z</time>
      </trkpt>
      <trkpt lat="43.13405" lon="3.08832">
        <ele>60.157</ele>
        <time>2021-09-25T12:18:03Z</time>
      </trkpt>
      <trkpt lat="43.13405" lon="3.0883">
        <ele>59.893</ele>
        <time>2021-09-25T12:18:05Z</time>
      </trkpt>
      <trkpt lat="43.13404" lon="3.0883">
        <ele>59.95</ele>
        <time>2021-09-25T12:18:07Z</time>
      </trkpt>
      <trkpt lat="43.13404" lon="3.0883">
        <ele>59.956</ele>
        <time>2021-09-25T12:18:09Z</time>
      </trkpt>
      <trkpt lat="43.13404" lon="3.0883">
        <ele>59.961</ele>
        <time>2021-09-25T12:18:11Z</time>
      </trkpt>
      <trkpt lat="43.13404" lon="3.0883">
        <ele>59.967</ele>
        <time>2021-09-25T12:18:13Z</time>
      </trkpt>
      <trkpt lat="43.13404" lon="3.0883">
        <ele>59.743</ele>
        <time>2021-09-25T12:18:15Z</time>
      </trkpt>
      <trkpt lat="43.13405" lon="3.0883">
        <ele>60.121</ele>
        <time>2021-09-25T12:18:17Z</time>
      </trkpt>
      <trkpt lat="43.13405" lon="3.0883">
        <ele>60.174</ele>
        <time>2021-09-25T12:18:19Z</time>
      </trkpt>
      <trkpt lat="43.13405" lon="3.08829">
        <ele>60.702</ele>
        <time>2021-09-25T12:18:21Z</time>
      </trkpt>
      <trkpt lat="43.13405" lon="3.08829">
        <ele>60.706</ele>
        <time>2021-09-25T12:18:23Z</time>
      </trkpt>
      <trkpt lat="43.13405" lon="3.08829">
        <ele>60.71</ele>
        <time>2021-09-25T12:18:25Z</time>
      </trkpt>
      <trkpt lat="43.13405" lon="3.08829">
        <ele>60.715</ele>
        <time>2021-09-25T12:18:27Z</time>
      </trkpt>
      <trkpt lat="43.13405" lon="3.08829">
        <ele>60.722</ele>
        <time>2021-09-25T12:18:29Z</time>
      </trkpt>
      <trkpt lat="43.13405" lon="3.08829">
        <ele>60.721</ele>
        <time>2021-09-25T12:18:31Z</time>
      </trkpt>
      <trkpt lat="43.13405" lon="3.08829">
        <ele>60.714</ele>
        <time>2021-09-25T12:18:33Z</time>
      </trkpt>
      <trkpt lat="43.13405" lon="3.08829">
        <ele>60.711</ele>
        <time>2021-09-25T12:18:35Z</time>
      </trkpt>
      <trkpt lat="43.13405" lon="3.08829">
        <ele>60.976</ele>
        <time>2021-09-25T12:18:37Z</time>
      </trkpt>
      <trkpt lat="43.13404" lon="3.08829">
        <ele>60.602</ele>
        <time>2021-09-25T12:18:39Z</time>
      </trkpt>
      <trkpt lat="43.13404" lon="3.08829">
        <ele>60.599</ele>
        <time>2021-09-25T12:18:41Z</time>
      </trkpt>
      <trkpt lat="43.13404" lon="3.08829">
        <ele>60.598</ele>
        <time>2021-09-25T12:18:42Z</time>
      </trkpt>
      <trkpt lat="43.13404" lon="3.08829">
        <ele>60.6</ele>
        <time>2021-09-25T12:18:45Z</time>
      </trkpt>
      <trkpt lat="43.13404" lon="3.08829">
        <ele>60.598</ele>
        <time>2021-09-25T12:18:47Z</time>
      </trkpt>
      <trkpt lat="43.13404" lon="3.08829">
        <ele>60.591</ele>
        <time>2021-09-25T12:18:49Z</time>
      </trkpt>
      <trkpt lat="43.13404" lon="3.08829">
        <ele>60.58</ele>
        <time>2021-09-25T12:18:51Z</time>
      </trkpt>
      <trkpt lat="43.13404" lon="3.08829">
        <ele>60.568</ele>
        <time>2021-09-25T12:18:53Z</time>
      </trkpt>
      <trkpt lat="43.13404" lon="3.08829">
        <ele>60.567</ele>
        <time>2021-09-25T12:18:55Z</time>
      </trkpt>
      <trkpt lat="43.13404" lon="3.08829">
        <ele>60.572</ele>
        <time>2021-09-25T12:18:57Z</time>
      </trkpt>
      <trkpt lat="43.13404" lon="3.08829">
        <ele>60.569</ele>
        <time>2021-09-25T12:18:59Z</time>
      </trkpt>
      <trkpt lat="43.13404" lon="3.08829">
        <ele>60.915</ele>
        <time>2021-09-25T12:19:01Z</time>
      </trkpt>
      <trkpt lat="43.13404" lon="3.08827">
        <ele>61.772</ele>
        <time>2021-09-25T12:19:03Z</time>
      </trkpt>
      <trkpt lat="43.13404" lon="3.08824">
        <ele>62.162</ele>
        <time>2021-09-25T12:19:05Z</time>
      </trkpt>
      <trkpt lat="43.13404" lon="3.08822">
        <ele>62.187</ele>
        <time>2021-09-25T12:19:07Z</time>
      </trkpt>
      <trkpt lat="43.13403" lon="3.0882">
        <ele>62.029</ele>
        <time>2021-09-25T12:19:09Z</time>
      </trkpt>
      <trkpt lat="43.13401" lon="3.08819">
        <ele>61.365</ele>
        <time>2021-09-25T12:19:11Z</time>
      </trkpt>
      <trkpt lat="43.13401" lon="3.08817">
        <ele>61.186</ele>
        <time>2021-09-25T12:19:13Z</time>
      </trkpt>
      <trkpt lat="43.134" lon="3.08815">
        <ele>61.219</ele>
        <time>2021-09-25T12:19:15Z</time>
      </trkpt>
      <trkpt lat="43.13399" lon="3.08812">
        <ele>60.862</ele>
        <time>2021-09-25T12:19:17Z</time>
      </trkpt>
      <trkpt lat="43.13398" lon="3.0881">
        <ele>61.585</ele>
        <time>2021-09-25T12:19:19Z</time>
      </trkpt>
      <trkpt lat="43.13397" lon="3.08808">
        <ele>62.153</ele>
        <time>2021-09-25T12:19:21Z</time>
      </trkpt>
      <trkpt lat="43.13396" lon="3.08806">
        <ele>61.088</ele>
        <time>2021-09-25T12:19:23Z</time>
      </trkpt>
      <trkpt lat="43.13395" lon="3.08804">
        <ele>60.598</ele>
        <time>2021-09-25T12:19:25Z</time>
      </trkpt>
      <trkpt lat="43.13394" lon="3.08801">
        <ele>61.201</ele>
        <time>2021-09-25T12:19:27Z</time>
      </trkpt>
      <trkpt lat="43.13392" lon="3.08799">
        <ele>61.25</ele>
        <time>2021-09-25T12:19:29Z</time>
      </trkpt>
      <trkpt lat="43.13391" lon="3.08796">
        <ele>61.337</ele>
        <time>2021-09-25T12:19:31Z</time>
      </trkpt>
      <trkpt lat="43.1339" lon="3.08794">
        <ele>61.21</ele>
        <time>2021-09-25T12:19:33Z</time>
      </trkpt>
      <trkpt lat="43.13388" lon="3.08791">
        <ele>61.642</ele>
        <time>2021-09-25T12:19:35Z</time>
      </trkpt>
      <trkpt lat="43.13387" lon="3.08788">
        <ele>62.378</ele>
        <time>2021-09-25T12:19:37Z</time>
      </trkpt>
      <trkpt lat="43.13385" lon="3.08786">
        <ele>62.698</ele>
        <time>2021-09-25T12:19:39Z</time>
      </trkpt>
      <trkpt lat="43.13384" lon="3.08784">
        <ele>63.015</ele>
        <time>2021-09-25T12:19:41Z</time>
      </trkpt>
      <trkpt lat="43.13383" lon="3.08782">
        <ele>63.06</ele>
        <time>2021-09-25T12:19:43Z</time>
      </trkpt>
      <trkpt lat="43.13382" lon="3.0878">
        <ele>63.626</ele>
        <time>2021-09-25T12:19:45Z</time>
      </trkpt>
      <trkpt lat="43.1338" lon="3.08778">
        <ele>63.535</ele>
        <time>2021-09-25T12:19:47Z</time>
      </trkpt>
      <trkpt lat="43.13378" lon="3.08777">
        <ele>64.262</ele>
        <time>2021-09-25T12:19:49Z</time>
      </trkpt>
      <trkpt lat="43.13377" lon="3.08776">
        <ele>64.554</ele>
        <time>2021-09-25T12:19:51Z</time>
      </trkpt>
      <trkpt lat="43.13375" lon="3.08774">
        <ele>64.305</ele>
        <time>2021-09-25T12:19:53Z</time>
      </trkpt>
      <trkpt lat="43.13373" lon="3.08773">
        <ele>64.844</ele>
        <time>2021-09-25T12:19:55Z</time>
      </trkpt>
      <trkpt lat="43.13371" lon="3.08773">
        <ele>64.309</ele>
        <time>2021-09-25T12:19:57Z</time>
      </trkpt>
      <trkpt lat="43.1337" lon="3.08773">
        <ele>64.037</ele>
        <time>2021-09-25T12:19:59Z</time>
      </trkpt>
      <trkpt lat="43.13368" lon="3.08772">
        <ele>63.601</ele>
        <time>2021-09-25T12:20:01Z</time>
      </trkpt>
      <trkpt lat="43.13366" lon="3.08772">
        <ele>64.079</ele>
        <time>2021-09-25T12:20:03Z</time>
      </trkpt>
      <trkpt lat="43.13364" lon="3.08771">
        <ele>64.772</ele>
        <time>2021-09-25T12:20:05Z</time>
      </trkpt>
      <trkpt lat="43.13362" lon="3.08771">
        <ele>65.321</ele>
        <time>2021-09-25T12:20:07Z</time>
      </trkpt>
      <trkpt lat="43.1336" lon="3.08772">
        <ele>65.034</ele>
        <time>2021-09-25T12:20:09Z</time>
      </trkpt>
      <trkpt lat="43.13358" lon="3.08772">
        <ele>65.759</ele>
        <time>2021-09-25T12:20:11Z</time>
      </trkpt>
      <trkpt lat="43.13356" lon="3.08771">
        <ele>65.488</ele>
        <time>2021-09-25T12:20:13Z</time>
      </trkpt>
      <trkpt lat="43.13354" lon="3.0877">
        <ele>64.788</ele>
        <time>2021-09-25T12:20:15Z</time>
      </trkpt>
      <trkpt lat="43.13352" lon="3.0877">
        <ele>64.81</ele>
        <time>2021-09-25T12:20:17Z</time>
      </trkpt>
      <trkpt lat="43.1335" lon="3.08769">
        <ele>64.418</ele>
        <time>2021-09-25T12:20:19Z</time>
      </trkpt>
      <trkpt lat="43.13348" lon="3.08767">
        <ele>64.081</ele>
        <time>2021-09-25T12:20:21Z</time>
      </trkpt>
      <trkpt lat="43.13346" lon="3.08766">
        <ele>63.961</ele>
        <time>2021-09-25T12:20:23Z</time>
      </trkpt>
      <trkpt lat="43.13344" lon="3.08764">
        <ele>64.11</ele>
        <time>2021-09-25T12:20:25Z</time>
      </trkpt>
      <trkpt lat="43.13343" lon="3.08762">
        <ele>63.109</ele>
        <time>2021-09-25T12:20:27Z</time>
      </trkpt>
      <trkpt lat="43.13341" lon="3.08761">
        <ele>63.045</ele>
        <time>2021-09-25T12:20:29Z</time>
      </trkpt>
      <trkpt lat="43.13339" lon="3.08758">
        <ele>63.995</ele>
        <time>2021-09-25T12:20:31Z</time>
      </trkpt>
      <trkpt lat="43.13337" lon="3.08756">
        <ele>65.302</ele>
        <time>2021-09-25T12:20:33Z</time>
      </trkpt>
      <trkpt lat="43.13336" lon="3.08757">
        <ele>64.809</ele>
        <time>2021-09-25T12:20:35Z</time>
      </trkpt>
      <trkpt lat="43.13336" lon="3.08758">
        <ele>64.84</ele>
        <time>2021-09-25T12:20:37Z</time>
      </trkpt>
      <trkpt lat="43.13336" lon="3.08758">
        <ele>64.84</ele>
        <time>2021-09-25T12:20:39Z</time>
      </trkpt>
      <trkpt lat="43.13336" lon="3.08758">
        <ele>64.836</ele>
        <time>2021-09-25T12:20:41Z</time>
      </trkpt>
      <trkpt lat="43.13336" lon="3.08758">
        <ele>64.825</ele>
        <time>2021-09-25T12:20:43Z</time>
      </trkpt>
      <trkpt lat="43.13336" lon="3.08758">
        <ele>64.832</ele>
        <time>2021-09-25T12:20:45Z</time>
      </trkpt>
      <trkpt lat="43.13336" lon="3.08758">
        <ele>64.832</ele>
        <time>2021-09-25T12:20:47Z</time>
      </trkpt>
      <trkpt lat="43.13336" lon="3.08758">
        <ele>64.543</ele>
        <time>2021-09-25T12:20:49Z</time>
      </trkpt>
      <trkpt lat="43.13336" lon="3.08758">
        <ele>64.538</ele>
        <time>2021-09-25T12:20:51Z</time>
      </trkpt>
      <trkpt lat="43.13336" lon="3.08757">
        <ele>64.536</ele>
        <time>2021-09-25T12:20:53Z</time>
      </trkpt>
      <trkpt lat="43.13336" lon="3.08757">
        <ele>63.938</ele>
        <time>2021-09-25T12:20:55Z</time>
      </trkpt>
      <trkpt lat="43.13335" lon="3.08755">
        <ele>64.019</ele>
        <time>2021-09-25T12:20:57Z</time>
      </trkpt>
      <trkpt lat="43.13333" lon="3.08753">
        <ele>63.595</ele>
        <time>2021-09-25T12:20:59Z</time>
      </trkpt>
      <trkpt lat="43.13332" lon="3.08751">
        <ele>63.444</ele>
        <time>2021-09-25T12:21:01Z</time>
      </trkpt>
      <trkpt lat="43.1333" lon="3.08749">
        <ele>63.308</ele>
        <time>2021-09-25T12:21:03Z</time>
      </trkpt>
      <trkpt lat="43.13329" lon="3.08747">
        <ele>63.53</ele>
        <time>2021-09-25T12:21:05Z</time>
      </trkpt>
      <trkpt lat="43.13327" lon="3.08744">
        <ele>62.698</ele>
        <time>2021-09-25T12:21:07Z</time>
      </trkpt>
      <trkpt lat="43.13326" lon="3.08742">
        <ele>62.893</ele>
        <time>2021-09-25T12:21:09Z</time>
      </trkpt>
      <trkpt lat="43.13324" lon="3.0874">
        <ele>62.514</ele>
        <time>2021-09-25T12:21:11Z</time>
      </trkpt>
      <trkpt lat="43.13323" lon="3.08738">
        <ele>62.032</ele>
        <time>2021-09-25T12:21:13Z</time>
      </trkpt>
      <trkpt lat="43.13322" lon="3.08736">
        <ele>61.441</ele>
        <time>2021-09-25T12:21:15Z</time>
      </trkpt>
      <trkpt lat="43.1332" lon="3.08734">
        <ele>61.073</ele>
        <time>2021-09-25T12:21:17Z</time>
      </trkpt>
      <trkpt lat="43.13319" lon="3.08732">
        <ele>61.264</ele>
        <time>2021-09-25T12:21:19Z</time>
      </trkpt>
      <trkpt lat="43.13317" lon="3.0873">
        <ele>61.421</ele>
        <time>2021-09-25T12:21:21Z</time>
      </trkpt>
      <trkpt lat="43.13316" lon="3.08728">
        <ele>61.571</ele>
        <time>2021-09-25T12:21:23Z</time>
      </trkpt>
      <trkpt lat="43.13314" lon="3.08726">
        <ele>61.316</ele>
        <time>2021-09-25T12:21:25Z</time>
      </trkpt>
      <trkpt lat="43.13313" lon="3.08723">
        <ele>60.925</ele>
        <time>2021-09-25T12:21:27Z</time>
      </trkpt>
      <trkpt lat="43.13311" lon="3.08722">
        <ele>61.296</ele>
        <time>2021-09-25T12:21:29Z</time>
      </trkpt>
      <trkpt lat="43.13309" lon="3.0872">
        <ele>60.821</ele>
        <time>2021-09-25T12:21:31Z</time>
      </trkpt>
      <trkpt lat="43.13307" lon="3.08718">
        <ele>60.53</ele>
        <time>2021-09-25T12:21:33Z</time>
      </trkpt>
      <trkpt lat="43.13305" lon="3.08715">
        <ele>59.415</ele>
        <time>2021-09-25T12:21:35Z</time>
      </trkpt>
      <trkpt lat="43.13303" lon="3.08713">
        <ele>58.671</ele>
        <time>2021-09-25T12:21:37Z</time>
      </trkpt>
      <trkpt lat="43.13302" lon="3.08711">
        <ele>58.496</ele>
        <time>2021-09-25T12:21:39Z</time>
      </trkpt>
      <trkpt lat="43.133" lon="3.08709">
        <ele>58.268</ele>
        <time>2021-09-25T12:21:41Z</time>
      </trkpt>
      <trkpt lat="43.13298" lon="3.08707">
        <ele>58.098</ele>
        <time>2021-09-25T12:21:43Z</time>
      </trkpt>
      <trkpt lat="43.13296" lon="3.08705">
        <ele>57.911</ele>
        <time>2021-09-25T12:21:45Z</time>
      </trkpt>
      <trkpt lat="43.13294" lon="3.08704">
        <ele>57.761</ele>
        <time>2021-09-25T12:21:47Z</time>
      </trkpt>
      <trkpt lat="43.13292" lon="3.08702">
        <ele>57.636</ele>
        <time>2021-09-25T12:21:49Z</time>
      </trkpt>
      <trkpt lat="43.1329" lon="3.08701">
        <ele>57.561</ele>
        <time>2021-09-25T12:21:51Z</time>
      </trkpt>
      <trkpt lat="43.13289" lon="3.08699">
        <ele>57.178</ele>
        <time>2021-09-25T12:21:53Z</time>
      </trkpt>
      <trkpt lat="43.13287" lon="3.08697">
        <ele>57.948</ele>
        <time>2021-09-25T12:21:55Z</time>
      </trkpt>
      <trkpt lat="43.13285" lon="3.08696">
        <ele>57.932</ele>
        <time>2021-09-25T12:21:57Z</time>
      </trkpt>
      <trkpt lat="43.13283" lon="3.08695">
        <ele>57.697</ele>
        <time>2021-09-25T12:21:59Z</time>
      </trkpt>
      <trkpt lat="43.13282" lon="3.08693">
        <ele>57.465</ele>
        <time>2021-09-25T12:22:01Z</time>
      </trkpt>
      <trkpt lat="43.13279" lon="3.08692">
        <ele>57.772</ele>
        <time>2021-09-25T12:22:03Z</time>
      </trkpt>
      <trkpt lat="43.13278" lon="3.08691">
        <ele>57.962</ele>
        <time>2021-09-25T12:22:05Z</time>
      </trkpt>
      <trkpt lat="43.13275" lon="3.0869">
        <ele>58.31</ele>
        <time>2021-09-25T12:22:07Z</time>
      </trkpt>
      <trkpt lat="43.13274" lon="3.08688">
        <ele>58.713</ele>
        <time>2021-09-25T12:22:09Z</time>
      </trkpt>
      <trkpt lat="43.13272" lon="3.08686">
        <ele>57.969</ele>
        <time>2021-09-25T12:22:11Z</time>
      </trkpt>
      <trkpt lat="43.1327" lon="3.08685">
        <ele>58.772</ele>
        <time>2021-09-25T12:22:13Z</time>
      </trkpt>
      <trkpt lat="43.13268" lon="3.08683">
        <ele>59.017</ele>
        <time>2021-09-25T12:22:15Z</time>
      </trkpt>
      <trkpt lat="43.13266" lon="3.08682">
        <ele>58.564</ele>
        <time>2021-09-25T12:22:17Z</time>
      </trkpt>
      <trkpt lat="43.13264" lon="3.0868">
        <ele>58.352</ele>
        <time>2021-09-25T12:22:19Z</time>
      </trkpt>
      <trkpt lat="43.13263" lon="3.08678">
        <ele>57.886</ele>
        <time>2021-09-25T12:22:21Z</time>
      </trkpt>
      <trkpt lat="43.13261" lon="3.08676">
        <ele>58.256</ele>
        <time>2021-09-25T12:22:23Z</time>
      </trkpt>
      <trkpt lat="43.1326" lon="3.08674">
        <ele>58.09</ele>
        <time>2021-09-25T12:22:25Z</time>
      </trkpt>
      <trkpt lat="43.13259" lon="3.08671">
        <ele>58.398</ele>
        <time>2021-09-25T12:22:27Z</time>
      </trkpt>
      <trkpt lat="43.13257" lon="3.08669">
        <ele>59.218</ele>
        <time>2021-09-25T12:22:29Z</time>
      </trkpt>
      <trkpt lat="43.13256" lon="3.08666">
        <ele>59.593</ele>
        <time>2021-09-25T12:22:31Z</time>
      </trkpt>
      <trkpt lat="43.13255" lon="3.08664">
        <ele>59.314</ele>
        <time>2021-09-25T12:22:33Z</time>
      </trkpt>
      <trkpt lat="43.13253" lon="3.08661">
        <ele>59.591</ele>
        <time>2021-09-25T12:22:35Z</time>
      </trkpt>
      <trkpt lat="43.13252" lon="3.08659">
        <ele>59.675</ele>
        <time>2021-09-25T12:22:37Z</time>
      </trkpt>
      <trkpt lat="43.13251" lon="3.08656">
        <ele>60.617</ele>
        <time>2021-09-25T12:22:39Z</time>
      </trkpt>
      <trkpt lat="43.1325" lon="3.08651">
        <ele>60.837</ele>
        <time>2021-09-25T12:22:41Z</time>
      </trkpt>
      <trkpt lat="43.13249" lon="3.08649">
        <ele>62.054</ele>
        <time>2021-09-25T12:22:43Z</time>
      </trkpt>
      <trkpt lat="43.13247" lon="3.08646">
        <ele>63.651</ele>
        <time>2021-09-25T12:22:45Z</time>
      </trkpt>
      <trkpt lat="43.13246" lon="3.08643">
        <ele>64.563</ele>
        <time>2021-09-25T12:22:47Z</time>
      </trkpt>
      <trkpt lat="43.13245" lon="3.0864">
        <ele>64.788</ele>
        <time>2021-09-25T12:22:49Z</time>
      </trkpt>
      <trkpt lat="43.13244" lon="3.08636">
        <ele>65.81</ele>
        <time>2021-09-25T12:22:51Z</time>
      </trkpt>
      <trkpt lat="43.13243" lon="3.08632">
        <ele>65.242</ele>
        <time>2021-09-25T12:22:53Z</time>
      </trkpt>
      <trkpt lat="43.13242" lon="3.0863">
        <ele>65.19</ele>
        <time>2021-09-25T12:22:55Z</time>
      </trkpt>
      <trkpt lat="43.13241" lon="3.08627">
        <ele>65.322</ele>
        <time>2021-09-25T12:22:57Z</time>
      </trkpt>
      <trkpt lat="43.1324" lon="3.08625">
        <ele>65.675</ele>
        <time>2021-09-25T12:22:59Z</time>
      </trkpt>
      <trkpt lat="43.1324" lon="3.08624">
        <ele>66.181</ele>
        <time>2021-09-25T12:23:01Z</time>
      </trkpt>
      <trkpt lat="43.1324" lon="3.08624">
        <ele>66.043</ele>
        <time>2021-09-25T12:23:03Z</time>
      </trkpt>
      <trkpt lat="43.13239" lon="3.08622">
        <ele>65.959</ele>
        <time>2021-09-25T12:23:05Z</time>
      </trkpt>
      <trkpt lat="43.13238" lon="3.0862">
        <ele>66.758</ele>
        <time>2021-09-25T12:23:07Z</time>
      </trkpt>
      <trkpt lat="43.13238" lon="3.0862">
        <ele>66.749</ele>
        <time>2021-09-25T12:23:09Z</time>
      </trkpt>
      <trkpt lat="43.13238" lon="3.0862">
        <ele>66.757</ele>
        <time>2021-09-25T12:23:11Z</time>
      </trkpt>
      <trkpt lat="43.13238" lon="3.0862">
        <ele>66.758</ele>
        <time>2021-09-25T12:23:13Z</time>
      </trkpt>
      <trkpt lat="43.13238" lon="3.0862">
        <ele>66.76</ele>
        <time>2021-09-25T12:23:15Z</time>
      </trkpt>
      <trkpt lat="43.13238" lon="3.0862">
        <ele>66.755</ele>
        <time>2021-09-25T12:23:17Z</time>
      </trkpt>
      <trkpt lat="43.13238" lon="3.0862">
        <ele>66.75</ele>
        <time>2021-09-25T12:23:19Z</time>
      </trkpt>
      <trkpt lat="43.13238" lon="3.0862">
        <ele>66.745</ele>
        <time>2021-09-25T12:23:21Z</time>
      </trkpt>
      <trkpt lat="43.13238" lon="3.0862">
        <ele>66.734</ele>
        <time>2021-09-25T12:23:23Z</time>
      </trkpt>
      <trkpt lat="43.13238" lon="3.08619">
        <ele>67.041</ele>
        <time>2021-09-25T12:23:25Z</time>
      </trkpt>
      <trkpt lat="43.13237" lon="3.08618">
        <ele>68.328</ele>
        <time>2021-09-25T12:23:27Z</time>
      </trkpt>
      <trkpt lat="43.13237" lon="3.08617">
        <ele>67.481</ele>
        <time>2021-09-25T12:23:29Z</time>
      </trkpt>
      <trkpt lat="43.13237" lon="3.08617">
        <ele>67.164</ele>
        <time>2021-09-25T12:23:31Z</time>
      </trkpt>
      <trkpt lat="43.13237" lon="3.08616">
        <ele>67.297</ele>
        <time>2021-09-25T12:23:33Z</time>
      </trkpt>
      <trkpt lat="43.13237" lon="3.08616">
        <ele>67.304</ele>
        <time>2021-09-25T12:23:35Z</time>
      </trkpt>
      <trkpt lat="43.13237" lon="3.08616">
        <ele>67.308</ele>
        <time>2021-09-25T12:23:37Z</time>
      </trkpt>
      <trkpt lat="43.13237" lon="3.08616">
        <ele>67.305</ele>
        <time>2021-09-25T12:23:39Z</time>
      </trkpt>
      <trkpt lat="43.13237" lon="3.08616">
        <ele>67.3</ele>
        <time>2021-09-25T12:23:41Z</time>
      </trkpt>
      <trkpt lat="43.13237" lon="3.08616">
        <ele>67.296</ele>
        <time>2021-09-25T12:23:43Z</time>
      </trkpt>
      <trkpt lat="43.13237" lon="3.08616">
        <ele>67.296</ele>
        <time>2021-09-25T12:23:45Z</time>
      </trkpt>
      <trkpt lat="43.13237" lon="3.08616">
        <ele>67.298</ele>
        <time>2021-09-25T12:23:47Z</time>
      </trkpt>
      <trkpt lat="43.13237" lon="3.08616">
        <ele>67.299</ele>
        <time>2021-09-25T12:23:49Z</time>
      </trkpt>
      <trkpt lat="43.13237" lon="3.08616">
        <ele>67.307</ele>
        <time>2021-09-25T12:23:51Z</time>
      </trkpt>
      <trkpt lat="43.13237" lon="3.08616">
        <ele>67.311</ele>
        <time>2021-09-25T12:23:53Z</time>
      </trkpt>
      <trkpt lat="43.13237" lon="3.08616">
        <ele>67.318</ele>
        <time>2021-09-25T12:23:55Z</time>
      </trkpt>
      <trkpt lat="43.13237" lon="3.08616">
        <ele>67.328</ele>
        <time>2021-09-25T12:23:57Z</time>
      </trkpt>
      <trkpt lat="43.13237" lon="3.08615">
        <ele>67.092</ele>
        <time>2021-09-25T12:23:59Z</time>
      </trkpt>
      <trkpt lat="43.13236" lon="3.08613">
        <ele>67.352</ele>
        <time>2021-09-25T12:24:01Z</time>
      </trkpt>
      <trkpt lat="43.13235" lon="3.08612">
        <ele>67.812</ele>
        <time>2021-09-25T12:24:03Z</time>
      </trkpt>
      <trkpt lat="43.13235" lon="3.08611">
        <ele>68.057</ele>
        <time>2021-09-25T12:24:05Z</time>
      </trkpt>
      <trkpt lat="43.13236" lon="3.08611">
        <ele>67.719</ele>
        <time>2021-09-25T12:24:07Z</time>
      </trkpt>
      <trkpt lat="43.13236" lon="3.08611">
        <ele>67.72</ele>
        <time>2021-09-25T12:24:09Z</time>
      </trkpt>
      <trkpt lat="43.13236" lon="3.08611">
        <ele>67.72</ele>
        <time>2021-09-25T12:24:11Z</time>
      </trkpt>
      <trkpt lat="43.13236" lon="3.08611">
        <ele>67.724</ele>
        <time>2021-09-25T12:24:13Z</time>
      </trkpt>
      <trkpt lat="43.13236" lon="3.08611">
        <ele>67.725</ele>
        <time>2021-09-25T12:24:15Z</time>
      </trkpt>
      <trkpt lat="43.13236" lon="3.08611">
        <ele>67.731</ele>
        <time>2021-09-25T12:24:17Z</time>
      </trkpt>
      <trkpt lat="43.13236" lon="3.08611">
        <ele>67.739</ele>
        <time>2021-09-25T12:24:19Z</time>
      </trkpt>
      <trkpt lat="43.13236" lon="3.08611">
        <ele>67.737</ele>
        <time>2021-09-25T12:24:21Z</time>
      </trkpt>
      <trkpt lat="43.13237" lon="3.0861">
        <ele>67.625</ele>
        <time>2021-09-25T12:24:23Z</time>
      </trkpt>
      <trkpt lat="43.13237" lon="3.0861">
        <ele>67.856</ele>
        <time>2021-09-25T12:24:25Z</time>
      </trkpt>
      <trkpt lat="43.13238" lon="3.08609">
        <ele>68.362</ele>
        <time>2021-09-25T12:24:27Z</time>
      </trkpt>
      <trkpt lat="43.13238" lon="3.08609">
        <ele>68.36</ele>
        <time>2021-09-25T12:24:29Z</time>
      </trkpt>
      <trkpt lat="43.13238" lon="3.08609">
        <ele>68.624</ele>
        <time>2021-09-25T12:24:31Z</time>
      </trkpt>
      <trkpt lat="43.13238" lon="3.08609">
        <ele>69.22</ele>
        <time>2021-09-25T12:24:33Z</time>
      </trkpt>
      <trkpt lat="43.13238" lon="3.08609">
        <ele>69.217</ele>
        <time>2021-09-25T12:24:35Z</time>
      </trkpt>
      <trkpt lat="43.13238" lon="3.08609">
        <ele>69.212</ele>
        <time>2021-09-25T12:24:37Z</time>
      </trkpt>
      <trkpt lat="43.13238" lon="3.08609">
        <ele>69.211</ele>
        <time>2021-09-25T12:24:39Z</time>
      </trkpt>
      <trkpt lat="43.13238" lon="3.08609">
        <ele>69.21</ele>
        <time>2021-09-25T12:24:41Z</time>
      </trkpt>
      <trkpt lat="43.13238" lon="3.08609">
        <ele>69.21</ele>
        <time>2021-09-25T12:24:43Z</time>
      </trkpt>
      <trkpt lat="43.13238" lon="3.08609">
        <ele>69.209</ele>
        <time>2021-09-25T12:24:45Z</time>
      </trkpt>
      <trkpt lat="43.13238" lon="3.08609">
        <ele>69.204</ele>
        <time>2021-09-25T12:24:47Z</time>
      </trkpt>
      <trkpt lat="43.13238" lon="3.08609">
        <ele>69.207</ele>
        <time>2021-09-25T12:24:49Z</time>
      </trkpt>
      <trkpt lat="43.13238" lon="3.08609">
        <ele>69.207</ele>
        <time>2021-09-25T12:24:51Z</time>
      </trkpt>
      <trkpt lat="43.13238" lon="3.08609">
        <ele>69.212</ele>
        <time>2021-09-25T12:24:53Z</time>
      </trkpt>
      <trkpt lat="43.13238" lon="3.08609">
        <ele>69.216</ele>
        <time>2021-09-25T12:24:55Z</time>
      </trkpt>
      <trkpt lat="43.13238" lon="3.08609">
        <ele>69.218</ele>
        <time>2021-09-25T12:24:57Z</time>
      </trkpt>
      <trkpt lat="43.13238" lon="3.08609">
        <ele>69.22</ele>
        <time>2021-09-25T12:24:59Z</time>
      </trkpt>
      <trkpt lat="43.13238" lon="3.08609">
        <ele>69.223</ele>
        <time>2021-09-25T12:25:01Z</time>
      </trkpt>
      <trkpt lat="43.13238" lon="3.08609">
        <ele>69.227</ele>
        <time>2021-09-25T12:25:03Z</time>
      </trkpt>
      <trkpt lat="43.13238" lon="3.08609">
        <ele>69.234</ele>
        <time>2021-09-25T12:25:05Z</time>
      </trkpt>
      <trkpt lat="43.13238" lon="3.08609">
        <ele>69.242</ele>
        <time>2021-09-25T12:25:07Z</time>
      </trkpt>
      <trkpt lat="43.13238" lon="3.08609">
        <ele>69.25</ele>
        <time>2021-09-25T12:25:09Z</time>
      </trkpt>
      <trkpt lat="43.13238" lon="3.08609">
        <ele>69.254</ele>
        <time>2021-09-25T12:25:11Z</time>
      </trkpt>
      <trkpt lat="43.13238" lon="3.08609">
        <ele>69.257</ele>
        <time>2021-09-25T12:25:13Z</time>
      </trkpt>
      <trkpt lat="43.13238" lon="3.08609">
        <ele>69.261</ele>
        <time>2021-09-25T12:25:15Z</time>
      </trkpt>
      <trkpt lat="43.13238" lon="3.08609">
        <ele>69.264</ele>
        <time>2021-09-25T12:25:17Z</time>
      </trkpt>
      <trkpt lat="43.13238" lon="3.08609">
        <ele>69.268</ele>
        <time>2021-09-25T12:25:19Z</time>
      </trkpt>
      <trkpt lat="43.13238" lon="3.08609">
        <ele>69.271</ele>
        <time>2021-09-25T12:25:21Z</time>
      </trkpt>
      <trkpt lat="43.13238" lon="3.08609">
        <ele>69.274</ele>
        <time>2021-09-25T12:25:23Z</time>
      </trkpt>
      <trkpt lat="43.13238" lon="3.08609">
        <ele>69.281</ele>
        <time>2021-09-25T12:25:25Z</time>
      </trkpt>
      <trkpt lat="43.13238" lon="3.08609">
        <ele>69.285</ele>
        <time>2021-09-25T12:25:27Z</time>
      </trkpt>
      <trkpt lat="43.13238" lon="3.08609">
        <ele>69.291</ele>
        <time>2021-09-25T12:25:29Z</time>
      </trkpt>
      <trkpt lat="43.13238" lon="3.08609">
        <ele>69.295</ele>
        <time>2021-09-25T12:25:31Z</time>
      </trkpt>
      <trkpt lat="43.13238" lon="3.08609">
        <ele>69.301</ele>
        <time>2021-09-25T12:25:33Z</time>
      </trkpt>
      <trkpt lat="43.13238" lon="3.08609">
        <ele>69.307</ele>
        <time>2021-09-25T12:25:35Z</time>
      </trkpt>
      <trkpt lat="43.13238" lon="3.08609">
        <ele>69.311</ele>
        <time>2021-09-25T12:25:37Z</time>
      </trkpt>
      <trkpt lat="43.13238" lon="3.08609">
        <ele>69.314</ele>
        <time>2021-09-25T12:25:39Z</time>
      </trkpt>
      <trkpt lat="43.13238" lon="3.08609">
        <ele>69.316</ele>
        <time>2021-09-25T12:25:41Z</time>
      </trkpt>
      <trkpt lat="43.13238" lon="3.08609">
        <ele>69.32</ele>
        <time>2021-09-25T12:25:43Z</time>
      </trkpt>
      <trkpt lat="43.13238" lon="3.08609">
        <ele>69.318</ele>
        <time>2021-09-25T12:25:45Z</time>
      </trkpt>
      <trkpt lat="43.13238" lon="3.08609">
        <ele>69.317</ele>
        <time>2021-09-25T12:25:47Z</time>
      </trkpt>
      <trkpt lat="43.13238" lon="3.08609">
        <ele>69.32</ele>
        <time>2021-09-25T12:25:49Z</time>
      </trkpt>
      <trkpt lat="43.13238" lon="3.08609">
        <ele>69.325</ele>
        <time>2021-09-25T12:25:51Z</time>
      </trkpt>
      <trkpt lat="43.13238" lon="3.08609">
        <ele>69.326</ele>
        <time>2021-09-25T12:25:53Z</time>
      </trkpt>
      <trkpt lat="43.13238" lon="3.08609">
        <ele>69.33</ele>
        <time>2021-09-25T12:25:55Z</time>
      </trkpt>
      <trkpt lat="43.13238" lon="3.08609">
        <ele>69.333</ele>
        <time>2021-09-25T12:25:57Z</time>
      </trkpt>
      <trkpt lat="43.13238" lon="3.08609">
        <ele>69.34</ele>
        <time>2021-09-25T12:25:59Z</time>
      </trkpt>
      <trkpt lat="43.13238" lon="3.08609">
        <ele>69.348</ele>
        <time>2021-09-25T12:26:01Z</time>
      </trkpt>
      <trkpt lat="43.13238" lon="3.08609">
        <ele>69.359</ele>
        <time>2021-09-25T12:26:03Z</time>
      </trkpt>
      <trkpt lat="43.13238" lon="3.08609">
        <ele>69.36</ele>
        <time>2021-09-25T12:26:05Z</time>
      </trkpt>
      <trkpt lat="43.13238" lon="3.08609">
        <ele>69.359</ele>
        <time>2021-09-25T12:26:07Z</time>
      </trkpt>
      <trkpt lat="43.13238" lon="3.08609">
        <ele>69.363</ele>
        <time>2021-09-25T12:26:09Z</time>
      </trkpt>
      <trkpt lat="43.13238" lon="3.08609">
        <ele>69.365</ele>
        <time>2021-09-25T12:26:11Z</time>
      </trkpt>
      <trkpt lat="43.13238" lon="3.08609">
        <ele>69.361</ele>
        <time>2021-09-25T12:26:13Z</time>
      </trkpt>
      <trkpt lat="43.13238" lon="3.08609">
        <ele>69.363</ele>
        <time>2021-09-25T12:26:15Z</time>
      </trkpt>
      <trkpt lat="43.13238" lon="3.08609">
        <ele>69.36</ele>
        <time>2021-09-25T12:26:17Z</time>
      </trkpt>
      <trkpt lat="43.13238" lon="3.08609">
        <ele>69.359</ele>
        <time>2021-09-25T12:26:19Z</time>
      </trkpt>
      <trkpt lat="43.13238" lon="3.08609">
        <ele>69.36</ele>
        <time>2021-09-25T12:26:21Z</time>
      </trkpt>
      <trkpt lat="43.13238" lon="3.08609">
        <ele>69.363</ele>
        <time>2021-09-25T12:26:23Z</time>
      </trkpt>
      <trkpt lat="43.13238" lon="3.08609">
        <ele>69.362</ele>
        <time>2021-09-25T12:26:25Z</time>
      </trkpt>
      <trkpt lat="43.13238" lon="3.08609">
        <ele>69.367</ele>
        <time>2021-09-25T12:26:27Z</time>
      </trkpt>
      <trkpt lat="43.13238" lon="3.08609">
        <ele>69.376</ele>
        <time>2021-09-25T12:26:29Z</time>
      </trkpt>
      <trkpt lat="43.13238" lon="3.08609">
        <ele>69.387</ele>
        <time>2021-09-25T12:26:31Z</time>
      </trkpt>
      <trkpt lat="43.13238" lon="3.08609">
        <ele>69.395</ele>
        <time>2021-09-25T12:26:33Z</time>
      </trkpt>
      <trkpt lat="43.13238" lon="3.08609">
        <ele>69.394</ele>
        <time>2021-09-25T12:26:35Z</time>
      </trkpt>
      <trkpt lat="43.13238" lon="3.08609">
        <ele>69.394</ele>
        <time>2021-09-25T12:26:37Z</time>
      </trkpt>
      <trkpt lat="43.13238" lon="3.08609">
        <ele>69.398</ele>
        <time>2021-09-25T12:26:39Z</time>
      </trkpt>
      <trkpt lat="43.13238" lon="3.08609">
        <ele>69.398</ele>
        <time>2021-09-25T12:26:41Z</time>
      </trkpt>
      <trkpt lat="43.13238" lon="3.08609">
        <ele>69.397</ele>
        <time>2021-09-25T12:26:43Z</time>
      </trkpt>
      <trkpt lat="43.13238" lon="3.08609">
        <ele>69.399</ele>
        <time>2021-09-25T12:26:45Z</time>
      </trkpt>
      <trkpt lat="43.13238" lon="3.08609">
        <ele>69.396</ele>
        <time>2021-09-25T12:26:47Z</time>
      </trkpt>
      <trkpt lat="43.13238" lon="3.0861">
        <ele>69.592</ele>
        <time>2021-09-25T12:26:49Z</time>
      </trkpt>
      <trkpt lat="43.13238" lon="3.0861">
        <ele>69.597</ele>
        <time>2021-09-25T12:26:51Z</time>
      </trkpt>
      <trkpt lat="43.13238" lon="3.0861">
        <ele>69.606</ele>
        <time>2021-09-25T12:26:53Z</time>
      </trkpt>
      <trkpt lat="43.13238" lon="3.0861">
        <ele>69.613</ele>
        <time>2021-09-25T12:26:55Z</time>
      </trkpt>
      <trkpt lat="43.13238" lon="3.0861">
        <ele>69.611</ele>
        <time>2021-09-25T12:26:57Z</time>
      </trkpt>
      <trkpt lat="43.13238" lon="3.0861">
        <ele>69.618</ele>
        <time>2021-09-25T12:26:59Z</time>
      </trkpt>
      <trkpt lat="43.13238" lon="3.0861">
        <ele>69.622</ele>
        <time>2021-09-25T12:27:01Z</time>
      </trkpt>
      <trkpt lat="43.13238" lon="3.0861">
        <ele>69.628</ele>
        <time>2021-09-25T12:27:03Z</time>
      </trkpt>
      <trkpt lat="43.13238" lon="3.0861">
        <ele>69.629</ele>
        <time>2021-09-25T12:27:05Z</time>
      </trkpt>
      <trkpt lat="43.13238" lon="3.08609">
        <ele>69.591</ele>
        <time>2021-09-25T12:27:07Z</time>
      </trkpt>
      <trkpt lat="43.13238" lon="3.08609">
        <ele>69.579</ele>
        <time>2021-09-25T12:27:09Z</time>
      </trkpt>
      <trkpt lat="43.13238" lon="3.08609">
        <ele>69.577</ele>
        <time>2021-09-25T12:27:11Z</time>
      </trkpt>
      <trkpt lat="43.13238" lon="3.08609">
        <ele>69.573</ele>
        <time>2021-09-25T12:27:13Z</time>
      </trkpt>
      <trkpt lat="43.13238" lon="3.08609">
        <ele>69.568</ele>
        <time>2021-09-25T12:27:15Z</time>
      </trkpt>
      <trkpt lat="43.13238" lon="3.08609">
        <ele>69.567</ele>
        <time>2021-09-25T12:27:17Z</time>
      </trkpt>
      <trkpt lat="43.13238" lon="3.08609">
        <ele>69.566</ele>
        <time>2021-09-25T12:27:19Z</time>
      </trkpt>
      <trkpt lat="43.13238" lon="3.08609">
        <ele>69.566</ele>
        <time>2021-09-25T12:27:21Z</time>
      </trkpt>
      <trkpt lat="43.13238" lon="3.08609">
        <ele>69.568</ele>
        <time>2021-09-25T12:27:23Z</time>
      </trkpt>
      <trkpt lat="43.13238" lon="3.08609">
        <ele>69.57</ele>
        <time>2021-09-25T12:27:25Z</time>
      </trkpt>
      <trkpt lat="43.13238" lon="3.08609">
        <ele>69.574</ele>
        <time>2021-09-25T12:27:27Z</time>
      </trkpt>
      <trkpt lat="43.13238" lon="3.0861">
        <ele>68.782</ele>
        <time>2021-09-25T12:27:29Z</time>
      </trkpt>
      <trkpt lat="43.13238" lon="3.0861">
        <ele>68.724</ele>
        <time>2021-09-25T12:27:31Z</time>
      </trkpt>
      <trkpt lat="43.13238" lon="3.08611">
        <ele>69.085</ele>
        <time>2021-09-25T12:27:33Z</time>
      </trkpt>
      <trkpt lat="43.13238" lon="3.08611">
        <ele>69.079</ele>
        <time>2021-09-25T12:27:35Z</time>
      </trkpt>
      <trkpt lat="43.13238" lon="3.08611">
        <ele>69.067</ele>
        <time>2021-09-25T12:27:38Z</time>
      </trkpt>
      <trkpt lat="43.13238" lon="3.08611">
        <ele>69.065</ele>
        <time>2021-09-25T12:27:40Z</time>
      </trkpt>
      <trkpt lat="43.13238" lon="3.08611">
        <ele>69.07</ele>
        <time>2021-09-25T12:27:42Z</time>
      </trkpt>
      <trkpt lat="43.13238" lon="3.08611">
        <ele>69.071</ele>
        <time>2021-09-25T12:27:44Z</time>
      </trkpt>
      <trkpt lat="43.13238" lon="3.08611">
        <ele>69.066</ele>
        <time>2021-09-25T12:27:46Z</time>
      </trkpt>
      <trkpt lat="43.13238" lon="3.08611">
        <ele>69.062</ele>
        <time>2021-09-25T12:27:48Z</time>
      </trkpt>
      <trkpt lat="43.13238" lon="3.08611">
        <ele>69.061</ele>
        <time>2021-09-25T12:27:50Z</time>
      </trkpt>
      <trkpt lat="43.13238" lon="3.08611">
        <ele>69.063</ele>
        <time>2021-09-25T12:27:52Z</time>
      </trkpt>
      <trkpt lat="43.13238" lon="3.08611">
        <ele>69.063</ele>
        <time>2021-09-25T12:27:54Z</time>
      </trkpt>
      <trkpt lat="43.13238" lon="3.08611">
        <ele>69.062</ele>
        <time>2021-09-25T12:27:56Z</time>
      </trkpt>
      <trkpt lat="43.13238" lon="3.08611">
        <ele>69.064</ele>
        <time>2021-09-25T12:27:58Z</time>
      </trkpt>
      <trkpt lat="43.13238" lon="3.08611">
        <ele>69.065</ele>
        <time>2021-09-25T12:28:00Z</time>
      </trkpt>
      <trkpt lat="43.13238" lon="3.08611">
        <ele>69.063</ele>
        <time>2021-09-25T12:28:02Z</time>
      </trkpt>
      <trkpt lat="43.13238" lon="3.08611">
        <ele>69.059</ele>
        <time>2021-09-25T12:28:04Z</time>
      </trkpt>
      <trkpt lat="43.13238" lon="3.08611">
        <ele>69.057</ele>
        <time>2021-09-25T12:28:06Z</time>
      </trkpt>
      <trkpt lat="43.13238" lon="3.08611">
        <ele>69.056</ele>
        <time>2021-09-25T12:28:08Z</time>
      </trkpt>
      <trkpt lat="43.13238" lon="3.08611">
        <ele>69.061</ele>
        <time>2021-09-25T12:28:10Z</time>
      </trkpt>
      <trkpt lat="43.13238" lon="3.08611">
        <ele>69.063</ele>
        <time>2021-09-25T12:28:12Z</time>
      </trkpt>
      <trkpt lat="43.13238" lon="3.08611">
        <ele>69.064</ele>
        <time>2021-09-25T12:28:14Z</time>
      </trkpt>
      <trkpt lat="43.13238" lon="3.08611">
        <ele>69.067</ele>
        <time>2021-09-25T12:28:16Z</time>
      </trkpt>
      <trkpt lat="43.13238" lon="3.08611">
        <ele>69.07</ele>
        <time>2021-09-25T12:28:18Z</time>
      </trkpt>
      <trkpt lat="43.13238" lon="3.08611">
        <ele>69.068</ele>
        <time>2021-09-25T12:28:20Z</time>
      </trkpt>
      <trkpt lat="43.13238" lon="3.08611">
        <ele>69.072</ele>
        <time>2021-09-25T12:28:22Z</time>
      </trkpt>
      <trkpt lat="43.13238" lon="3.08611">
        <ele>69.071</ele>
        <time>2021-09-25T12:28:24Z</time>
      </trkpt>
      <trkpt lat="43.13238" lon="3.08611">
        <ele>69.074</ele>
        <time>2021-09-25T12:28:26Z</time>
      </trkpt>
      <trkpt lat="43.13238" lon="3.08611">
        <ele>69.074</ele>
        <time>2021-09-25T12:28:28Z</time>
      </trkpt>
      <trkpt lat="43.13238" lon="3.08611">
        <ele>69.075</ele>
        <time>2021-09-25T12:28:30Z</time>
      </trkpt>
      <trkpt lat="43.13238" lon="3.08611">
        <ele>69.082</ele>
        <time>2021-09-25T12:28:32Z</time>
      </trkpt>
      <trkpt lat="43.13238" lon="3.08611">
        <ele>69.08</ele>
        <time>2021-09-25T12:28:34Z</time>
      </trkpt>
      <trkpt lat="43.13238" lon="3.08611">
        <ele>69.079</ele>
        <time>2021-09-25T12:28:36Z</time>
      </trkpt>
      <trkpt lat="43.13238" lon="3.08611">
        <ele>69.079</ele>
        <time>2021-09-25T12:28:38Z</time>
      </trkpt>
      <trkpt lat="43.13238" lon="3.08611">
        <ele>69.082</ele>
        <time>2021-09-25T12:28:40Z</time>
      </trkpt>
      <trkpt lat="43.13238" lon="3.08611">
        <ele>69.078</ele>
        <time>2021-09-25T12:28:42Z</time>
      </trkpt>
      <trkpt lat="43.13238" lon="3.08611">
        <ele>69.078</ele>
        <time>2021-09-25T12:28:44Z</time>
      </trkpt>
      <trkpt lat="43.13238" lon="3.08611">
        <ele>69.077</ele>
        <time>2021-09-25T12:28:46Z</time>
      </trkpt>
      <trkpt lat="43.13238" lon="3.08611">
        <ele>69.076</ele>
        <time>2021-09-25T12:28:48Z</time>
      </trkpt>
      <trkpt lat="43.13238" lon="3.08611">
        <ele>69.072</ele>
        <time>2021-09-25T12:28:50Z</time>
      </trkpt>
      <trkpt lat="43.13238" lon="3.08611">
        <ele>69.069</ele>
        <time>2021-09-25T12:28:52Z</time>
      </trkpt>
      <trkpt lat="43.13238" lon="3.08611">
        <ele>69.064</ele>
        <time>2021-09-25T12:28:54Z</time>
      </trkpt>
      <trkpt lat="43.13238" lon="3.08611">
        <ele>69.061</ele>
        <time>2021-09-25T12:28:56Z</time>
      </trkpt>
      <trkpt lat="43.13238" lon="3.08611">
        <ele>69.057</ele>
        <time>2021-09-25T12:28:58Z</time>
      </trkpt>
      <trkpt lat="43.13238" lon="3.08611">
        <ele>69.054</ele>
        <time>2021-09-25T12:29:00Z</time>
      </trkpt>
      <trkpt lat="43.13239" lon="3.0861">
        <ele>69.219</ele>
        <time>2021-09-25T12:29:02Z</time>
      </trkpt>
      <trkpt lat="43.13238" lon="3.08611">
        <ele>68.848</ele>
        <time>2021-09-25T12:29:04Z</time>
      </trkpt>
      <trkpt lat="43.13238" lon="3.08611">
        <ele>68.835</ele>
        <time>2021-09-25T12:29:06Z</time>
      </trkpt>
      <trkpt lat="43.13238" lon="3.08611">
        <ele>68.753</ele>
        <time>2021-09-25T12:29:08Z</time>
      </trkpt>
      <trkpt lat="43.13238" lon="3.08611">
        <ele>68.749</ele>
        <time>2021-09-25T12:29:10Z</time>
      </trkpt>
      <trkpt lat="43.13238" lon="3.08611">
        <ele>68.752</ele>
        <time>2021-09-25T12:29:12Z</time>
      </trkpt>
      <trkpt lat="43.13238" lon="3.08611">
        <ele>68.758</ele>
        <time>2021-09-25T12:29:14Z</time>
      </trkpt>
      <trkpt lat="43.13238" lon="3.08611">
        <ele>68.756</ele>
        <time>2021-09-25T12:29:16Z</time>
      </trkpt>
      <trkpt lat="43.13238" lon="3.08611">
        <ele>68.753</ele>
        <time>2021-09-25T12:29:18Z</time>
      </trkpt>
      <trkpt lat="43.13238" lon="3.08611">
        <ele>68.746</ele>
        <time>2021-09-25T12:29:20Z</time>
      </trkpt>
      <trkpt lat="43.13238" lon="3.08611">
        <ele>68.748</ele>
        <time>2021-09-25T12:29:22Z</time>
      </trkpt>
      <trkpt lat="43.13238" lon="3.08611">
        <ele>68.741</ele>
        <time>2021-09-25T12:29:24Z</time>
      </trkpt>
      <trkpt lat="43.13238" lon="3.08611">
        <ele>68.738</ele>
        <time>2021-09-25T12:29:26Z</time>
      </trkpt>
      <trkpt lat="43.13238" lon="3.08611">
        <ele>68.736</ele>
        <time>2021-09-25T12:29:28Z</time>
      </trkpt>
      <trkpt lat="43.13238" lon="3.08611">
        <ele>68.743</ele>
        <time>2021-09-25T12:29:30Z</time>
      </trkpt>
      <trkpt lat="43.13238" lon="3.0861">
        <ele>68.681</ele>
        <time>2021-09-25T12:29:32Z</time>
      </trkpt>
      <trkpt lat="43.13238" lon="3.08609">
        <ele>69.116</ele>
        <time>2021-09-25T12:29:34Z</time>
      </trkpt>
      <trkpt lat="43.13238" lon="3.0861">
        <ele>69.132</ele>
        <time>2021-09-25T12:29:36Z</time>
      </trkpt>
      <trkpt lat="43.13239" lon="3.0861">
        <ele>68.916</ele>
        <time>2021-09-25T12:29:38Z</time>
      </trkpt>
      <trkpt lat="43.13239" lon="3.08611">
        <ele>68.884</ele>
        <time>2021-09-25T12:29:40Z</time>
      </trkpt>
      <trkpt lat="43.13239" lon="3.08611">
        <ele>68.887</ele>
        <time>2021-09-25T12:29:42Z</time>
      </trkpt>
      <trkpt lat="43.13239" lon="3.08611">
        <ele>68.889</ele>
        <time>2021-09-25T12:29:44Z</time>
      </trkpt>
      <trkpt lat="43.13239" lon="3.08611">
        <ele>68.888</ele>
        <time>2021-09-25T12:29:46Z</time>
      </trkpt>
      <trkpt lat="43.13239" lon="3.08611">
        <ele>68.896</ele>
        <time>2021-09-25T12:29:48Z</time>
      </trkpt>
      <trkpt lat="43.13239" lon="3.0861">
        <ele>68.892</ele>
        <time>2021-09-25T12:29:50Z</time>
      </trkpt>
      <trkpt lat="43.13239" lon="3.0861">
        <ele>68.886</ele>
        <time>2021-09-25T12:29:52Z</time>
      </trkpt>
      <trkpt lat="43.13239" lon="3.0861">
        <ele>68.887</ele>
        <time>2021-09-25T12:29:54Z</time>
      </trkpt>
      <trkpt lat="43.13239" lon="3.0861">
        <ele>68.893</ele>
        <time>2021-09-25T12:29:56Z</time>
      </trkpt>
      <trkpt lat="43.13239" lon="3.0861">
        <ele>68.896</ele>
        <time>2021-09-25T12:29:58Z</time>
      </trkpt>
      <trkpt lat="43.13238" lon="3.0861">
        <ele>68.511</ele>
        <time>2021-09-25T12:30:00Z</time>
      </trkpt>
      <trkpt lat="43.13238" lon="3.0861">
        <ele>68.34</ele>
        <time>2021-09-25T12:30:02Z</time>
      </trkpt>
      <trkpt lat="43.13237" lon="3.0861">
        <ele>68.883</ele>
        <time>2021-09-25T12:30:04Z</time>
      </trkpt>
      <trkpt lat="43.13236" lon="3.08611">
        <ele>68.233</ele>
        <time>2021-09-25T12:30:06Z</time>
      </trkpt>
      <trkpt lat="43.13235" lon="3.08611">
        <ele>68.435</ele>
        <time>2021-09-25T12:30:08Z</time>
      </trkpt>
      <trkpt lat="43.13235" lon="3.0861">
        <ele>68.029</ele>
        <time>2021-09-25T12:30:10Z</time>
      </trkpt>
      <trkpt lat="43.13235" lon="3.0861">
        <ele>67.794</ele>
        <time>2021-09-25T12:30:12Z</time>
      </trkpt>
      <trkpt lat="43.13235" lon="3.0861">
        <ele>67.788</ele>
        <time>2021-09-25T12:30:14Z</time>
      </trkpt>
      <trkpt lat="43.13235" lon="3.0861">
        <ele>67.783</ele>
        <time>2021-09-25T12:30:16Z</time>
      </trkpt>
      <trkpt lat="43.13235" lon="3.0861">
        <ele>67.79</ele>
        <time>2021-09-25T12:30:18Z</time>
      </trkpt>
      <trkpt lat="43.13235" lon="3.0861">
        <ele>67.789</ele>
        <time>2021-09-25T12:30:20Z</time>
      </trkpt>
      <trkpt lat="43.13235" lon="3.0861">
        <ele>67.794</ele>
        <time>2021-09-25T12:30:22Z</time>
      </trkpt>
      <trkpt lat="43.13235" lon="3.0861">
        <ele>67.797</ele>
        <time>2021-09-25T12:30:24Z</time>
      </trkpt>
      <trkpt lat="43.13235" lon="3.0861">
        <ele>67.53</ele>
        <time>2021-09-25T12:30:26Z</time>
      </trkpt>
      <trkpt lat="43.13235" lon="3.0861">
        <ele>67.445</ele>
        <time>2021-09-25T12:30:28Z</time>
      </trkpt>
      <trkpt lat="43.13234" lon="3.0861">
        <ele>67.522</ele>
        <time>2021-09-25T12:30:30Z</time>
      </trkpt>
      <trkpt lat="43.13234" lon="3.0861">
        <ele>67.53</ele>
        <time>2021-09-25T12:30:32Z</time>
      </trkpt>
      <trkpt lat="43.13234" lon="3.0861">
        <ele>67.529</ele>
        <time>2021-09-25T12:30:34Z</time>
      </trkpt>
      <trkpt lat="43.13234" lon="3.0861">
        <ele>67.53</ele>
        <time>2021-09-25T12:30:36Z</time>
      </trkpt>
      <trkpt lat="43.13234" lon="3.0861">
        <ele>67.534</ele>
        <time>2021-09-25T12:30:38Z</time>
      </trkpt>
      <trkpt lat="43.13234" lon="3.0861">
        <ele>67.536</ele>
        <time>2021-09-25T12:30:40Z</time>
      </trkpt>
      <trkpt lat="43.13234" lon="3.0861">
        <ele>67.526</ele>
        <time>2021-09-25T12:30:42Z</time>
      </trkpt>
      <trkpt lat="43.13234" lon="3.0861">
        <ele>67.521</ele>
        <time>2021-09-25T12:30:44Z</time>
      </trkpt>
      <trkpt lat="43.13234" lon="3.0861">
        <ele>67.515</ele>
        <time>2021-09-25T12:30:46Z</time>
      </trkpt>
      <trkpt lat="43.13234" lon="3.0861">
        <ele>67.505</ele>
        <time>2021-09-25T12:30:48Z</time>
      </trkpt>
      <trkpt lat="43.13234" lon="3.0861">
        <ele>67.493</ele>
        <time>2021-09-25T12:30:50Z</time>
      </trkpt>
      <trkpt lat="43.13234" lon="3.0861">
        <ele>67.489</ele>
        <time>2021-09-25T12:30:52Z</time>
      </trkpt>
      <trkpt lat="43.13235" lon="3.0861">
        <ele>67.236</ele>
        <time>2021-09-25T12:30:54Z</time>
      </trkpt>
      <trkpt lat="43.13235" lon="3.0861">
        <ele>67.241</ele>
        <time>2021-09-25T12:30:56Z</time>
      </trkpt>
      <trkpt lat="43.13235" lon="3.08609">
        <ele>67.584</ele>
        <time>2021-09-25T12:30:58Z</time>
      </trkpt>
      <trkpt lat="43.13234" lon="3.08607">
        <ele>67.678</ele>
        <time>2021-09-25T12:31:00Z</time>
      </trkpt>
      <trkpt lat="43.13232" lon="3.08604">
        <ele>67.443</ele>
        <time>2021-09-25T12:31:02Z</time>
      </trkpt>
      <trkpt lat="43.1323" lon="3.08602">
        <ele>67.591</ele>
        <time>2021-09-25T12:31:04Z</time>
      </trkpt>
      <trkpt lat="43.13229" lon="3.08599">
        <ele>67.56</ele>
        <time>2021-09-25T12:31:06Z</time>
      </trkpt>
      <trkpt lat="43.13227" lon="3.08597">
        <ele>67.248</ele>
        <time>2021-09-25T12:31:08Z</time>
      </trkpt>
      <trkpt lat="43.13226" lon="3.08594">
        <ele>67.257</ele>
        <time>2021-09-25T12:31:10Z</time>
      </trkpt>
      <trkpt lat="43.13225" lon="3.08592">
        <ele>67.797</ele>
        <time>2021-09-25T12:31:12Z</time>
      </trkpt>
      <trkpt lat="43.13224" lon="3.08589">
        <ele>67.806</ele>
        <time>2021-09-25T12:31:14Z</time>
      </trkpt>
      <trkpt lat="43.13222" lon="3.08588">
        <ele>67.736</ele>
        <time>2021-09-25T12:31:16Z</time>
      </trkpt>
      <trkpt lat="43.1322" lon="3.08585">
        <ele>67.772</ele>
        <time>2021-09-25T12:31:18Z</time>
      </trkpt>
      <trkpt lat="43.13219" lon="3.08583">
        <ele>67.448</ele>
        <time>2021-09-25T12:31:20Z</time>
      </trkpt>
      <trkpt lat="43.13217" lon="3.08581">
        <ele>67.078</ele>
        <time>2021-09-25T12:31:22Z</time>
      </trkpt>
      <trkpt lat="43.13215" lon="3.08579">
        <ele>67.156</ele>
        <time>2021-09-25T12:31:24Z</time>
      </trkpt>
      <trkpt lat="43.13213" lon="3.08577">
        <ele>67.288</ele>
        <time>2021-09-25T12:31:26Z</time>
      </trkpt>
      <trkpt lat="43.13212" lon="3.08575">
        <ele>67.06</ele>
        <time>2021-09-25T12:31:28Z</time>
      </trkpt>
      <trkpt lat="43.1321" lon="3.08573">
        <ele>66.882</ele>
        <time>2021-09-25T12:31:30Z</time>
      </trkpt>
      <trkpt lat="43.13208" lon="3.08571">
        <ele>66.911</ele>
        <time>2021-09-25T12:31:32Z</time>
      </trkpt>
      <trkpt lat="43.13208" lon="3.08571">
        <ele>66.613</ele>
        <time>2021-09-25T12:31:34Z</time>
      </trkpt>
      <trkpt lat="43.13209" lon="3.08572">
        <ele>67.007</ele>
        <time>2021-09-25T12:31:42Z</time>
      </trkpt>
      <trkpt lat="43.13208" lon="3.08571">
        <ele>67.704</ele>
        <time>2021-09-25T12:31:45Z</time>
      </trkpt>
      <trkpt lat="43.13206" lon="3.0857">
        <ele>67.97</ele>
        <time>2021-09-25T12:31:47Z</time>
      </trkpt>
      <trkpt lat="43.13205" lon="3.08567">
        <ele>69.358</ele>
        <time>2021-09-25T12:31:49Z</time>
      </trkpt>
      <trkpt lat="43.13204" lon="3.08566">
        <ele>68.862</ele>
        <time>2021-09-25T12:31:51Z</time>
      </trkpt>
      <trkpt lat="43.13203" lon="3.08566">
        <ele>68.875</ele>
        <time>2021-09-25T12:31:53Z</time>
      </trkpt>
      <trkpt lat="43.13203" lon="3.08566">
        <ele>68.878</ele>
        <time>2021-09-25T12:31:55Z</time>
      </trkpt>
      <trkpt lat="43.13203" lon="3.08566">
        <ele>68.868</ele>
        <time>2021-09-25T12:31:57Z</time>
      </trkpt>
      <trkpt lat="43.13203" lon="3.08566">
        <ele>68.856</ele>
        <time>2021-09-25T12:31:59Z</time>
      </trkpt>
      <trkpt lat="43.13203" lon="3.08566">
        <ele>68.834</ele>
        <time>2021-09-25T12:32:01Z</time>
      </trkpt>
      <trkpt lat="43.13203" lon="3.08566">
        <ele>68.829</ele>
        <time>2021-09-25T12:32:03Z</time>
      </trkpt>
      <trkpt lat="43.13203" lon="3.08566">
        <ele>68.833</ele>
        <time>2021-09-25T12:32:05Z</time>
      </trkpt>
      <trkpt lat="43.13203" lon="3.08566">
        <ele>68.824</ele>
        <time>2021-09-25T12:32:07Z</time>
      </trkpt>
      <trkpt lat="43.13203" lon="3.08566">
        <ele>68.816</ele>
        <time>2021-09-25T12:32:09Z</time>
      </trkpt>
      <trkpt lat="43.13203" lon="3.08566">
        <ele>68.828</ele>
        <time>2021-09-25T12:32:11Z</time>
      </trkpt>
      <trkpt lat="43.13203" lon="3.08566">
        <ele>68.817</ele>
        <time>2021-09-25T12:32:13Z</time>
      </trkpt>
      <trkpt lat="43.13203" lon="3.08565">
        <ele>68.612</ele>
        <time>2021-09-25T12:32:15Z</time>
      </trkpt>
      <trkpt lat="43.13203" lon="3.08564">
        <ele>68.078</ele>
        <time>2021-09-25T12:32:17Z</time>
      </trkpt>
      <trkpt lat="43.13203" lon="3.08564">
        <ele>68.06</ele>
        <time>2021-09-25T12:32:19Z</time>
      </trkpt>
      <trkpt lat="43.13203" lon="3.08564">
        <ele>68.055</ele>
        <time>2021-09-25T12:32:21Z</time>
      </trkpt>
      <trkpt lat="43.13203" lon="3.08564">
        <ele>68.043</ele>
        <time>2021-09-25T12:32:23Z</time>
      </trkpt>
      <trkpt lat="43.13203" lon="3.08564">
        <ele>68.025</ele>
        <time>2021-09-25T12:32:25Z</time>
      </trkpt>
      <trkpt lat="43.13203" lon="3.08564">
        <ele>68.022</ele>
        <time>2021-09-25T12:32:27Z</time>
      </trkpt>
      <trkpt lat="43.13203" lon="3.08564">
        <ele>68.01</ele>
        <time>2021-09-25T12:32:29Z</time>
      </trkpt>
      <trkpt lat="43.13203" lon="3.08564">
        <ele>68.004</ele>
        <time>2021-09-25T12:32:31Z</time>
      </trkpt>
      <trkpt lat="43.13203" lon="3.08564">
        <ele>68.011</ele>
        <time>2021-09-25T12:32:33Z</time>
      </trkpt>
      <trkpt lat="43.13203" lon="3.08564">
        <ele>68.01</ele>
        <time>2021-09-25T12:32:35Z</time>
      </trkpt>
      <trkpt lat="43.13203" lon="3.08564">
        <ele>68.013</ele>
        <time>2021-09-25T12:32:37Z</time>
      </trkpt>
      <trkpt lat="43.13203" lon="3.08564">
        <ele>68.008</ele>
        <time>2021-09-25T12:32:39Z</time>
      </trkpt>
      <trkpt lat="43.13203" lon="3.08564">
        <ele>68.005</ele>
        <time>2021-09-25T12:32:41Z</time>
      </trkpt>
      <trkpt lat="43.13203" lon="3.08564">
        <ele>68.011</ele>
        <time>2021-09-25T12:32:43Z</time>
      </trkpt>
      <trkpt lat="43.13203" lon="3.08564">
        <ele>68.009</ele>
        <time>2021-09-25T12:32:45Z</time>
      </trkpt>
      <trkpt lat="43.13203" lon="3.08563">
        <ele>67.794</ele>
        <time>2021-09-25T12:32:47Z</time>
      </trkpt>
      <trkpt lat="43.13203" lon="3.08563">
        <ele>67.778</ele>
        <time>2021-09-25T12:32:49Z</time>
      </trkpt>
      <trkpt lat="43.13203" lon="3.08563">
        <ele>67.611</ele>
        <time>2021-09-25T12:32:51Z</time>
      </trkpt>
      <trkpt lat="43.13205" lon="3.08566">
        <ele>68.397</ele>
        <time>2021-09-25T12:32:53Z</time>
      </trkpt>
      <trkpt lat="43.13206" lon="3.08568">
        <ele>68.469</ele>
        <time>2021-09-25T12:32:55Z</time>
      </trkpt>
      <trkpt lat="43.13208" lon="3.08569">
        <ele>67.998</ele>
        <time>2021-09-25T12:32:57Z</time>
      </trkpt>
      <trkpt lat="43.13209" lon="3.08571">
        <ele>67.909</ele>
        <time>2021-09-25T12:32:59Z</time>
      </trkpt>
      <trkpt lat="43.13209" lon="3.0857">
        <ele>67.792</ele>
        <time>2021-09-25T12:33:01Z</time>
      </trkpt>
      <trkpt lat="43.13209" lon="3.0857">
        <ele>67.794</ele>
        <time>2021-09-25T12:33:03Z</time>
      </trkpt>
      <trkpt lat="43.13209" lon="3.0857">
        <ele>67.801</ele>
        <time>2021-09-25T12:33:05Z</time>
      </trkpt>
      <trkpt lat="43.13209" lon="3.0857">
        <ele>67.798</ele>
        <time>2021-09-25T12:33:07Z</time>
      </trkpt>
      <trkpt lat="43.13209" lon="3.0857">
        <ele>67.799</ele>
        <time>2021-09-25T12:33:09Z</time>
      </trkpt>
      <trkpt lat="43.13209" lon="3.0857">
        <ele>67.81</ele>
        <time>2021-09-25T12:33:11Z</time>
      </trkpt>
      <trkpt lat="43.13209" lon="3.0857">
        <ele>67.817</ele>
        <time>2021-09-25T12:33:13Z</time>
      </trkpt>
      <trkpt lat="43.13209" lon="3.0857">
        <ele>67.821</ele>
        <time>2021-09-25T12:33:15Z</time>
      </trkpt>
      <trkpt lat="43.13209" lon="3.0857">
        <ele>67.826</ele>
        <time>2021-09-25T12:33:17Z</time>
      </trkpt>
      <trkpt lat="43.13209" lon="3.0857">
        <ele>67.828</ele>
        <time>2021-09-25T12:33:19Z</time>
      </trkpt>
      <trkpt lat="43.13209" lon="3.0857">
        <ele>67.832</ele>
        <time>2021-09-25T12:33:21Z</time>
      </trkpt>
      <trkpt lat="43.13209" lon="3.0857">
        <ele>67.837</ele>
        <time>2021-09-25T12:33:23Z</time>
      </trkpt>
      <trkpt lat="43.13209" lon="3.0857">
        <ele>67.842</ele>
        <time>2021-09-25T12:33:25Z</time>
      </trkpt>
      <trkpt lat="43.13209" lon="3.0857">
        <ele>67.848</ele>
        <time>2021-09-25T12:33:27Z</time>
      </trkpt>
      <trkpt lat="43.13209" lon="3.0857">
        <ele>67.851</ele>
        <time>2021-09-25T12:33:29Z</time>
      </trkpt>
      <trkpt lat="43.13209" lon="3.0857">
        <ele>67.853</ele>
        <time>2021-09-25T12:33:31Z</time>
      </trkpt>
      <trkpt lat="43.13209" lon="3.08571">
        <ele>67.842</ele>
        <time>2021-09-25T12:33:33Z</time>
      </trkpt>
      <trkpt lat="43.1321" lon="3.08571">
        <ele>68.027</ele>
        <time>2021-09-25T12:33:35Z</time>
      </trkpt>
      <trkpt lat="43.1321" lon="3.08571">
        <ele>68.037</ele>
        <time>2021-09-25T12:33:37Z</time>
      </trkpt>
      <trkpt lat="43.13209" lon="3.08571">
        <ele>67.741</ele>
        <time>2021-09-25T12:33:39Z</time>
      </trkpt>
      <trkpt lat="43.13207" lon="3.08569">
        <ele>67.429</ele>
        <time>2021-09-25T12:33:41Z</time>
      </trkpt>
      <trkpt lat="43.13205" lon="3.08566">
        <ele>67.164</ele>
        <time>2021-09-25T12:33:43Z</time>
      </trkpt>
      <trkpt lat="43.13203" lon="3.08564">
        <ele>67.416</ele>
        <time>2021-09-25T12:33:45Z</time>
      </trkpt>
      <trkpt lat="43.13201" lon="3.08561">
        <ele>67.405</ele>
        <time>2021-09-25T12:33:47Z</time>
      </trkpt>
      <trkpt lat="43.13199" lon="3.08559">
        <ele>66.665</ele>
        <time>2021-09-25T12:33:49Z</time>
      </trkpt>
      <trkpt lat="43.13198" lon="3.08555">
        <ele>64.657</ele>
        <time>2021-09-25T12:33:51Z</time>
      </trkpt>
      <trkpt lat="43.13197" lon="3.08549">
        <ele>63.134</ele>
        <time>2021-09-25T12:33:53Z</time>
      </trkpt>
      <trkpt lat="43.13194" lon="3.0854">
        <ele>64.081</ele>
        <time>2021-09-25T12:33:55Z</time>
      </trkpt>
      <trkpt lat="43.13191" lon="3.08532">
        <ele>64.149</ele>
        <time>2021-09-25T12:33:57Z</time>
      </trkpt>
      <trkpt lat="43.13188" lon="3.08524">
        <ele>65.66</ele>
        <time>2021-09-25T12:33:59Z</time>
      </trkpt>
      <trkpt lat="43.13186" lon="3.08516">
        <ele>66.427</ele>
        <time>2021-09-25T12:34:01Z</time>
      </trkpt>
      <trkpt lat="43.13183" lon="3.08508">
        <ele>66.487</ele>
        <time>2021-09-25T12:34:03Z</time>
      </trkpt>
      <trkpt lat="43.13181" lon="3.085">
        <ele>67.47</ele>
        <time>2021-09-25T12:34:05Z</time>
      </trkpt>
      <trkpt lat="43.13178" lon="3.08492">
        <ele>68.703</ele>
        <time>2021-09-25T12:34:07Z</time>
      </trkpt>
      <trkpt lat="43.13176" lon="3.08485">
        <ele>69.04</ele>
        <time>2021-09-25T12:34:09Z</time>
      </trkpt>
      <trkpt lat="43.13173" lon="3.08478">
        <ele>69.327</ele>
        <time>2021-09-25T12:34:11Z</time>
      </trkpt>
      <trkpt lat="43.13171" lon="3.08471">
        <ele>69.296</ele>
        <time>2021-09-25T12:34:13Z</time>
      </trkpt>
      <trkpt lat="43.13169" lon="3.08464">
        <ele>69.344</ele>
        <time>2021-09-25T12:34:15Z</time>
      </trkpt>
      <trkpt lat="43.13166" lon="3.08458">
        <ele>69.756</ele>
        <time>2021-09-25T12:34:17Z</time>
      </trkpt>
      <trkpt lat="43.13164" lon="3.08452">
        <ele>69.738</ele>
        <time>2021-09-25T12:34:19Z</time>
      </trkpt>
      <trkpt lat="43.13162" lon="3.08446">
        <ele>69.7</ele>
        <time>2021-09-25T12:34:21Z</time>
      </trkpt>
      <trkpt lat="43.1316" lon="3.08439">
        <ele>70.361</ele>
        <time>2021-09-25T12:34:23Z</time>
      </trkpt>
      <trkpt lat="43.13158" lon="3.08432">
        <ele>70.462</ele>
        <time>2021-09-25T12:34:25Z</time>
      </trkpt>
      <trkpt lat="43.13156" lon="3.08426">
        <ele>70.372</ele>
        <time>2021-09-25T12:34:27Z</time>
      </trkpt>
      <trkpt lat="43.13156" lon="3.0842">
        <ele>70.54</ele>
        <time>2021-09-25T12:34:29Z</time>
      </trkpt>
      <trkpt lat="43.13155" lon="3.08413">
        <ele>71.01</ele>
        <time>2021-09-25T12:34:31Z</time>
      </trkpt>
      <trkpt lat="43.13154" lon="3.08406">
        <ele>71.475</ele>
        <time>2021-09-25T12:34:33Z</time>
      </trkpt>
      <trkpt lat="43.13153" lon="3.08399">
        <ele>71.684</ele>
        <time>2021-09-25T12:34:35Z</time>
      </trkpt>
      <trkpt lat="43.13151" lon="3.08392">
        <ele>71.463</ele>
        <time>2021-09-25T12:34:37Z</time>
      </trkpt>
      <trkpt lat="43.13149" lon="3.08386">
        <ele>71.419</ele>
        <time>2021-09-25T12:34:39Z</time>
      </trkpt>
      <trkpt lat="43.13146" lon="3.0838">
        <ele>72.225</ele>
        <time>2021-09-25T12:34:41Z</time>
      </trkpt>
      <trkpt lat="43.13143" lon="3.08373">
        <ele>72.71</ele>
        <time>2021-09-25T12:34:43Z</time>
      </trkpt>
      <trkpt lat="43.13141" lon="3.08367">
        <ele>73.84</ele>
        <time>2021-09-25T12:34:45Z</time>
      </trkpt>
      <trkpt lat="43.13138" lon="3.08361">
        <ele>73.492</ele>
        <time>2021-09-25T12:34:47Z</time>
      </trkpt>
      <trkpt lat="43.13136" lon="3.08356">
        <ele>72.823</ele>
        <time>2021-09-25T12:34:49Z</time>
      </trkpt>
      <trkpt lat="43.13133" lon="3.08351">
        <ele>72.657</ele>
        <time>2021-09-25T12:34:51Z</time>
      </trkpt>
      <trkpt lat="43.1313" lon="3.08347">
        <ele>73.287</ele>
        <time>2021-09-25T12:34:53Z</time>
      </trkpt>
      <trkpt lat="43.13128" lon="3.08343">
        <ele>74.604</ele>
        <time>2021-09-25T12:34:55Z</time>
      </trkpt>
      <trkpt lat="43.13127" lon="3.08341">
        <ele>74.747</ele>
        <time>2021-09-25T12:34:57Z</time>
      </trkpt>
      <trkpt lat="43.13126" lon="3.08338">
        <ele>74.679</ele>
        <time>2021-09-25T12:34:59Z</time>
      </trkpt>
      <trkpt lat="43.13124" lon="3.08336">
        <ele>74.523</ele>
        <time>2021-09-25T12:35:01Z</time>
      </trkpt>
      <trkpt lat="43.13123" lon="3.08334">
        <ele>75.002</ele>
        <time>2021-09-25T12:35:03Z</time>
      </trkpt>
      <trkpt lat="43.13121" lon="3.08332">
        <ele>75.007</ele>
        <time>2021-09-25T12:35:05Z</time>
      </trkpt>
      <trkpt lat="43.1312" lon="3.08329">
        <ele>75.536</ele>
        <time>2021-09-25T12:35:07Z</time>
      </trkpt>
      <trkpt lat="43.13118" lon="3.08326">
        <ele>75.988</ele>
        <time>2021-09-25T12:35:09Z</time>
      </trkpt>
      <trkpt lat="43.13117" lon="3.08324">
        <ele>77.219</ele>
        <time>2021-09-25T12:35:11Z</time>
      </trkpt>
      <trkpt lat="43.13115" lon="3.08321">
        <ele>78.314</ele>
        <time>2021-09-25T12:35:13Z</time>
      </trkpt>
      <trkpt lat="43.13114" lon="3.08318">
        <ele>78.048</ele>
        <time>2021-09-25T12:35:15Z</time>
      </trkpt>
      <trkpt lat="43.13112" lon="3.08315">
        <ele>77.822</ele>
        <time>2021-09-25T12:35:17Z</time>
      </trkpt>
      <trkpt lat="43.13111" lon="3.08312">
        <ele>77.883</ele>
        <time>2021-09-25T12:35:19Z</time>
      </trkpt>
      <trkpt lat="43.1311" lon="3.08307">
        <ele>78.537</ele>
        <time>2021-09-25T12:35:21Z</time>
      </trkpt>
      <trkpt lat="43.13109" lon="3.08304">
        <ele>79.303</ele>
        <time>2021-09-25T12:35:23Z</time>
      </trkpt>
      <trkpt lat="43.1311" lon="3.08299">
        <ele>79.493</ele>
        <time>2021-09-25T12:35:25Z</time>
      </trkpt>
      <trkpt lat="43.1311" lon="3.08296">
        <ele>80.093</ele>
        <time>2021-09-25T12:35:27Z</time>
      </trkpt>
      <trkpt lat="43.13109" lon="3.08292">
        <ele>80.613</ele>
        <time>2021-09-25T12:35:29Z</time>
      </trkpt>
      <trkpt lat="43.13107" lon="3.08288">
        <ele>80.888</ele>
        <time>2021-09-25T12:35:31Z</time>
      </trkpt>
      <trkpt lat="43.13106" lon="3.08285">
        <ele>80.99</ele>
        <time>2021-09-25T12:35:33Z</time>
      </trkpt>
      <trkpt lat="43.13105" lon="3.08282">
        <ele>80.059</ele>
        <time>2021-09-25T12:35:35Z</time>
      </trkpt>
      <trkpt lat="43.13103" lon="3.08279">
        <ele>79.227</ele>
        <time>2021-09-25T12:35:37Z</time>
      </trkpt>
      <trkpt lat="43.13102" lon="3.08275">
        <ele>78.966</ele>
        <time>2021-09-25T12:35:39Z</time>
      </trkpt>
      <trkpt lat="43.13101" lon="3.08271">
        <ele>78.938</ele>
        <time>2021-09-25T12:35:41Z</time>
      </trkpt>
      <trkpt lat="43.13099" lon="3.08268">
        <ele>78.342</ele>
        <time>2021-09-25T12:35:43Z</time>
      </trkpt>
      <trkpt lat="43.13097" lon="3.08264">
        <ele>79.487</ele>
        <time>2021-09-25T12:35:45Z</time>
      </trkpt>
      <trkpt lat="43.13095" lon="3.08261">
        <ele>82.027</ele>
        <time>2021-09-25T12:35:47Z</time>
      </trkpt>
      <trkpt lat="43.13094" lon="3.08258">
        <ele>82.581</ele>
        <time>2021-09-25T12:35:49Z</time>
      </trkpt>
      <trkpt lat="43.13093" lon="3.08255">
        <ele>81.379</ele>
        <time>2021-09-25T12:35:51Z</time>
      </trkpt>
      <trkpt lat="43.13092" lon="3.08253">
        <ele>81.524</ele>
        <time>2021-09-25T12:35:53Z</time>
      </trkpt>
      <trkpt lat="43.1309" lon="3.08251">
        <ele>81.648</ele>
        <time>2021-09-25T12:35:55Z</time>
      </trkpt>
      <trkpt lat="43.13089" lon="3.08247">
        <ele>81.374</ele>
        <time>2021-09-25T12:35:57Z</time>
      </trkpt>
      <trkpt lat="43.13088" lon="3.08244">
        <ele>80.041</ele>
        <time>2021-09-25T12:35:59Z</time>
      </trkpt>
      <trkpt lat="43.13088" lon="3.08239">
        <ele>80.281</ele>
        <time>2021-09-25T12:36:01Z</time>
      </trkpt>
      <trkpt lat="43.13087" lon="3.08233">
        <ele>78.363</ele>
        <time>2021-09-25T12:36:03Z</time>
      </trkpt>
      <trkpt lat="43.13085" lon="3.08226">
        <ele>78.431</ele>
        <time>2021-09-25T12:36:05Z</time>
      </trkpt>
      <trkpt lat="43.13084" lon="3.0822">
        <ele>78.311</ele>
        <time>2021-09-25T12:36:07Z</time>
      </trkpt>
      <trkpt lat="43.13083" lon="3.08214">
        <ele>78.514</ele>
        <time>2021-09-25T12:36:09Z</time>
      </trkpt>
      <trkpt lat="43.13081" lon="3.08207">
        <ele>78.653</ele>
        <time>2021-09-25T12:36:11Z</time>
      </trkpt>
      <trkpt lat="43.1308" lon="3.082">
        <ele>78.465</ele>
        <time>2021-09-25T12:36:13Z</time>
      </trkpt>
      <trkpt lat="43.1308" lon="3.08193">
        <ele>78.393</ele>
        <time>2021-09-25T12:36:15Z</time>
      </trkpt>
      <trkpt lat="43.13078" lon="3.08186">
        <ele>78.291</ele>
        <time>2021-09-25T12:36:17Z</time>
      </trkpt>
      <trkpt lat="43.13077" lon="3.08179">
        <ele>79.352</ele>
        <time>2021-09-25T12:36:19Z</time>
      </trkpt>
      <trkpt lat="43.13075" lon="3.08172">
        <ele>79.859</ele>
        <time>2021-09-25T12:36:21Z</time>
      </trkpt>
      <trkpt lat="43.13074" lon="3.08165">
        <ele>81.049</ele>
        <time>2021-09-25T12:36:23Z</time>
      </trkpt>
      <trkpt lat="43.13072" lon="3.08158">
        <ele>81.179</ele>
        <time>2021-09-25T12:36:25Z</time>
      </trkpt>
      <trkpt lat="43.1307" lon="3.08152">
        <ele>80.864</ele>
        <time>2021-09-25T12:36:27Z</time>
      </trkpt>
      <trkpt lat="43.13069" lon="3.08145">
        <ele>80.887</ele>
        <time>2021-09-25T12:36:29Z</time>
      </trkpt>
      <trkpt lat="43.13067" lon="3.08139">
        <ele>80.915</ele>
        <time>2021-09-25T12:36:31Z</time>
      </trkpt>
      <trkpt lat="43.13066" lon="3.08133">
        <ele>81.586</ele>
        <time>2021-09-25T12:36:33Z</time>
      </trkpt>
      <trkpt lat="43.13064" lon="3.08127">
        <ele>81.033</ele>
        <time>2021-09-25T12:36:35Z</time>
      </trkpt>
      <trkpt lat="43.13062" lon="3.08121">
        <ele>81.607</ele>
        <time>2021-09-25T12:36:37Z</time>
      </trkpt>
      <trkpt lat="43.13059" lon="3.08114">
        <ele>82.002</ele>
        <time>2021-09-25T12:36:39Z</time>
      </trkpt>
      <trkpt lat="43.13057" lon="3.08109">
        <ele>82.371</ele>
        <time>2021-09-25T12:36:41Z</time>
      </trkpt>
      <trkpt lat="43.13055" lon="3.08103">
        <ele>82.91</ele>
        <time>2021-09-25T12:36:43Z</time>
      </trkpt>
      <trkpt lat="43.13052" lon="3.08097">
        <ele>83.256</ele>
        <time>2021-09-25T12:36:45Z</time>
      </trkpt>
      <trkpt lat="43.1305" lon="3.08091">
        <ele>83.236</ele>
        <time>2021-09-25T12:36:47Z</time>
      </trkpt>
      <trkpt lat="43.13048" lon="3.08085">
        <ele>83.268</ele>
        <time>2021-09-25T12:36:49Z</time>
      </trkpt>
      <trkpt lat="43.13046" lon="3.08079">
        <ele>83.367</ele>
        <time>2021-09-25T12:36:51Z</time>
      </trkpt>
      <trkpt lat="43.13044" lon="3.08073">
        <ele>83.134</ele>
        <time>2021-09-25T12:36:53Z</time>
      </trkpt>
      <trkpt lat="43.13041" lon="3.08068">
        <ele>83.073</ele>
        <time>2021-09-25T12:36:55Z</time>
      </trkpt>
      <trkpt lat="43.13039" lon="3.08062">
        <ele>83.065</ele>
        <time>2021-09-25T12:36:57Z</time>
      </trkpt>
      <trkpt lat="43.13037" lon="3.08057">
        <ele>83.028</ele>
        <time>2021-09-25T12:36:59Z</time>
      </trkpt>
      <trkpt lat="43.13035" lon="3.08051">
        <ele>83.16</ele>
        <time>2021-09-25T12:37:01Z</time>
      </trkpt>
      <trkpt lat="43.13033" lon="3.08045">
        <ele>83.052</ele>
        <time>2021-09-25T12:37:03Z</time>
      </trkpt>
      <trkpt lat="43.13031" lon="3.08039">
        <ele>82.801</ele>
        <time>2021-09-25T12:37:05Z</time>
      </trkpt>
      <trkpt lat="43.13029" lon="3.08033">
        <ele>82.703</ele>
        <time>2021-09-25T12:37:07Z</time>
      </trkpt>
      <trkpt lat="43.13028" lon="3.08027">
        <ele>82.793</ele>
        <time>2021-09-25T12:37:09Z</time>
      </trkpt>
      <trkpt lat="43.13026" lon="3.0802">
        <ele>82.823</ele>
        <time>2021-09-25T12:37:11Z</time>
      </trkpt>
      <trkpt lat="43.13025" lon="3.08014">
        <ele>82.843</ele>
        <time>2021-09-25T12:37:13Z</time>
      </trkpt>
      <trkpt lat="43.13024" lon="3.08008">
        <ele>83.061</ele>
        <time>2021-09-25T12:37:15Z</time>
      </trkpt>
      <trkpt lat="43.13022" lon="3.08002">
        <ele>82.948</ele>
        <time>2021-09-25T12:37:17Z</time>
      </trkpt>
      <trkpt lat="43.13021" lon="3.07995">
        <ele>83.526</ele>
        <time>2021-09-25T12:37:19Z</time>
      </trkpt>
      <trkpt lat="43.1302" lon="3.07989">
        <ele>83.992</ele>
        <time>2021-09-25T12:37:21Z</time>
      </trkpt>
      <trkpt lat="43.13018" lon="3.07983">
        <ele>83.524</ele>
        <time>2021-09-25T12:37:23Z</time>
      </trkpt>
      <trkpt lat="43.13017" lon="3.07976">
        <ele>83.259</ele>
        <time>2021-09-25T12:37:25Z</time>
      </trkpt>
      <trkpt lat="43.13016" lon="3.0797">
        <ele>82.999</ele>
        <time>2021-09-25T12:37:27Z</time>
      </trkpt>
      <trkpt lat="43.13015" lon="3.07964">
        <ele>82.554</ele>
        <time>2021-09-25T12:37:29Z</time>
      </trkpt>
      <trkpt lat="43.13013" lon="3.07959">
        <ele>83.608</ele>
        <time>2021-09-25T12:37:31Z</time>
      </trkpt>
      <trkpt lat="43.13012" lon="3.07955">
        <ele>84.593</ele>
        <time>2021-09-25T12:37:33Z</time>
      </trkpt>
      <trkpt lat="43.13012" lon="3.07951">
        <ele>85.105</ele>
        <time>2021-09-25T12:37:35Z</time>
      </trkpt>
      <trkpt lat="43.13011" lon="3.07947">
        <ele>84.721</ele>
        <time>2021-09-25T12:37:37Z</time>
      </trkpt>
      <trkpt lat="43.1301" lon="3.07944">
        <ele>84.611</ele>
        <time>2021-09-25T12:37:39Z</time>
      </trkpt>
      <trkpt lat="43.1301" lon="3.07941">
        <ele>84.014</ele>
        <time>2021-09-25T12:37:41Z</time>
      </trkpt>
      <trkpt lat="43.13009" lon="3.07937">
        <ele>83.84</ele>
        <time>2021-09-25T12:37:43Z</time>
      </trkpt>
      <trkpt lat="43.1301" lon="3.07934">
        <ele>83.98</ele>
        <time>2021-09-25T12:37:45Z</time>
      </trkpt>
      <trkpt lat="43.13009" lon="3.0793">
        <ele>84.132</ele>
        <time>2021-09-25T12:37:47Z</time>
      </trkpt>
      <trkpt lat="43.13009" lon="3.07927">
        <ele>83.978</ele>
        <time>2021-09-25T12:37:49Z</time>
      </trkpt>
      <trkpt lat="43.13008" lon="3.07923">
        <ele>84.353</ele>
        <time>2021-09-25T12:37:51Z</time>
      </trkpt>
      <trkpt lat="43.13007" lon="3.0792">
        <ele>84.127</ele>
        <time>2021-09-25T12:37:53Z</time>
      </trkpt>
      <trkpt lat="43.13007" lon="3.07916">
        <ele>84.259</ele>
        <time>2021-09-25T12:37:55Z</time>
      </trkpt>
      <trkpt lat="43.13006" lon="3.07913">
        <ele>83.516</ele>
        <time>2021-09-25T12:37:57Z</time>
      </trkpt>
      <trkpt lat="43.13006" lon="3.0791">
        <ele>83.667</ele>
        <time>2021-09-25T12:37:59Z</time>
      </trkpt>
      <trkpt lat="43.13006" lon="3.07907">
        <ele>83.642</ele>
        <time>2021-09-25T12:38:01Z</time>
      </trkpt>
      <trkpt lat="43.13005" lon="3.07904">
        <ele>83.296</ele>
        <time>2021-09-25T12:38:03Z</time>
      </trkpt>
      <trkpt lat="43.13004" lon="3.07901">
        <ele>83.578</ele>
        <time>2021-09-25T12:38:05Z</time>
      </trkpt>
      <trkpt lat="43.13004" lon="3.07898">
        <ele>83.344</ele>
        <time>2021-09-25T12:38:07Z</time>
      </trkpt>
      <trkpt lat="43.13004" lon="3.07894">
        <ele>82.897</ele>
        <time>2021-09-25T12:38:09Z</time>
      </trkpt>
      <trkpt lat="43.13004" lon="3.0789">
        <ele>82.8</ele>
        <time>2021-09-25T12:38:11Z</time>
      </trkpt>
      <trkpt lat="43.13003" lon="3.07886">
        <ele>82.709</ele>
        <time>2021-09-25T12:38:13Z</time>
      </trkpt>
      <trkpt lat="43.13003" lon="3.07883">
        <ele>82.469</ele>
        <time>2021-09-25T12:38:15Z</time>
      </trkpt>
      <trkpt lat="43.13003" lon="3.07879">
        <ele>82.395</ele>
        <time>2021-09-25T12:38:17Z</time>
      </trkpt>
      <trkpt lat="43.13002" lon="3.07875">
        <ele>82.13</ele>
        <time>2021-09-25T12:38:19Z</time>
      </trkpt>
      <trkpt lat="43.13002" lon="3.07871">
        <ele>81.823</ele>
        <time>2021-09-25T12:38:21Z</time>
      </trkpt>
      <trkpt lat="43.13001" lon="3.07867">
        <ele>81.56</ele>
        <time>2021-09-25T12:38:23Z</time>
      </trkpt>
      <trkpt lat="43.13001" lon="3.07863">
        <ele>81.491</ele>
        <time>2021-09-25T12:38:25Z</time>
      </trkpt>
      <trkpt lat="43.13" lon="3.07859">
        <ele>81.247</ele>
        <time>2021-09-25T12:38:27Z</time>
      </trkpt>
      <trkpt lat="43.12999" lon="3.07856">
        <ele>81.267</ele>
        <time>2021-09-25T12:38:29Z</time>
      </trkpt>
      <trkpt lat="43.12999" lon="3.07853">
        <ele>81.763</ele>
        <time>2021-09-25T12:38:31Z</time>
      </trkpt>
      <trkpt lat="43.12998" lon="3.0785">
        <ele>81.654</ele>
        <time>2021-09-25T12:38:33Z</time>
      </trkpt>
      <trkpt lat="43.12997" lon="3.07847">
        <ele>81.753</ele>
        <time>2021-09-25T12:38:35Z</time>
      </trkpt>
      <trkpt lat="43.12996" lon="3.07844">
        <ele>81.504</ele>
        <time>2021-09-25T12:38:37Z</time>
      </trkpt>
      <trkpt lat="43.12996" lon="3.0784">
        <ele>81.927</ele>
        <time>2021-09-25T12:38:39Z</time>
      </trkpt>
      <trkpt lat="43.12995" lon="3.07837">
        <ele>81.937</ele>
        <time>2021-09-25T12:38:41Z</time>
      </trkpt>
      <trkpt lat="43.12994" lon="3.07834">
        <ele>81.822</ele>
        <time>2021-09-25T12:38:43Z</time>
      </trkpt>
      <trkpt lat="43.12994" lon="3.07832">
        <ele>82.854</ele>
        <time>2021-09-25T12:38:45Z</time>
      </trkpt>
      <trkpt lat="43.12994" lon="3.07832">
        <ele>82.854</ele>
        <time>2021-09-25T12:38:47Z</time>
      </trkpt>
      <trkpt lat="43.12994" lon="3.07832">
        <ele>82.853</ele>
        <time>2021-09-25T12:38:49Z</time>
      </trkpt>
      <trkpt lat="43.12994" lon="3.07832">
        <ele>82.859</ele>
        <time>2021-09-25T12:38:51Z</time>
      </trkpt>
      <trkpt lat="43.12994" lon="3.07832">
        <ele>82.86</ele>
        <time>2021-09-25T12:38:53Z</time>
      </trkpt>
      <trkpt lat="43.12994" lon="3.07832">
        <ele>82.859</ele>
        <time>2021-09-25T12:38:55Z</time>
      </trkpt>
      <trkpt lat="43.12994" lon="3.07832">
        <ele>82.856</ele>
        <time>2021-09-25T12:38:57Z</time>
      </trkpt>
      <trkpt lat="43.12994" lon="3.07832">
        <ele>82.86</ele>
        <time>2021-09-25T12:38:59Z</time>
      </trkpt>
      <trkpt lat="43.12994" lon="3.07832">
        <ele>82.866</ele>
        <time>2021-09-25T12:39:01Z</time>
      </trkpt>
      <trkpt lat="43.12994" lon="3.07832">
        <ele>82.865</ele>
        <time>2021-09-25T12:39:03Z</time>
      </trkpt>
      <trkpt lat="43.12994" lon="3.07832">
        <ele>82.867</ele>
        <time>2021-09-25T12:39:05Z</time>
      </trkpt>
      <trkpt lat="43.12994" lon="3.07832">
        <ele>82.864</ele>
        <time>2021-09-25T12:39:07Z</time>
      </trkpt>
      <trkpt lat="43.12994" lon="3.07832">
        <ele>82.856</ele>
        <time>2021-09-25T12:39:09Z</time>
      </trkpt>
      <trkpt lat="43.12994" lon="3.07832">
        <ele>82.85</ele>
        <time>2021-09-25T12:39:11Z</time>
      </trkpt>
      <trkpt lat="43.12993" lon="3.07831">
        <ele>82.699</ele>
        <time>2021-09-25T12:39:13Z</time>
      </trkpt>
      <trkpt lat="43.12993" lon="3.07828">
        <ele>82.847</ele>
        <time>2021-09-25T12:39:15Z</time>
      </trkpt>
      <trkpt lat="43.12992" lon="3.07826">
        <ele>82.888</ele>
        <time>2021-09-25T12:39:17Z</time>
      </trkpt>
      <trkpt lat="43.12991" lon="3.07823">
        <ele>82.648</ele>
        <time>2021-09-25T12:39:19Z</time>
      </trkpt>
      <trkpt lat="43.1299" lon="3.0782">
        <ele>82.507</ele>
        <time>2021-09-25T12:39:21Z</time>
      </trkpt>
      <trkpt lat="43.12989" lon="3.07817">
        <ele>82.434</ele>
        <time>2021-09-25T12:39:23Z</time>
      </trkpt>
      <trkpt lat="43.12989" lon="3.07814">
        <ele>82.169</ele>
        <time>2021-09-25T12:39:25Z</time>
      </trkpt>
      <trkpt lat="43.12988" lon="3.07811">
        <ele>82.293</ele>
        <time>2021-09-25T12:39:27Z</time>
      </trkpt>
      <trkpt lat="43.12988" lon="3.07808">
        <ele>82.095</ele>
        <time>2021-09-25T12:39:29Z</time>
      </trkpt>
      <trkpt lat="43.12987" lon="3.07806">
        <ele>82.34</ele>
        <time>2021-09-25T12:39:31Z</time>
      </trkpt>
      <trkpt lat="43.12987" lon="3.07806">
        <ele>82.346</ele>
        <time>2021-09-25T12:39:33Z</time>
      </trkpt>
      <trkpt lat="43.12987" lon="3.07806">
        <ele>82.353</ele>
        <time>2021-09-25T12:39:35Z</time>
      </trkpt>
      <trkpt lat="43.12987" lon="3.07806">
        <ele>82.363</ele>
        <time>2021-09-25T12:39:37Z</time>
      </trkpt>
      <trkpt lat="43.12987" lon="3.07806">
        <ele>82.367</ele>
        <time>2021-09-25T12:39:39Z</time>
      </trkpt>
      <trkpt lat="43.12987" lon="3.07805">
        <ele>82.602</ele>
        <time>2021-09-25T12:39:41Z</time>
      </trkpt>
      <trkpt lat="43.12987" lon="3.07802">
        <ele>82.271</ele>
        <time>2021-09-25T12:39:43Z</time>
      </trkpt>
      <trkpt lat="43.12987" lon="3.07799">
        <ele>82.597</ele>
        <time>2021-09-25T12:39:45Z</time>
      </trkpt>
      <trkpt lat="43.12987" lon="3.07797">
        <ele>82.014</ele>
        <time>2021-09-25T12:39:47Z</time>
      </trkpt>
      <trkpt lat="43.12987" lon="3.07794">
        <ele>81.475</ele>
        <time>2021-09-25T12:39:49Z</time>
      </trkpt>
      <trkpt lat="43.12987" lon="3.07791">
        <ele>81.488</ele>
        <time>2021-09-25T12:39:51Z</time>
      </trkpt>
      <trkpt lat="43.12986" lon="3.07788">
        <ele>82.254</ele>
        <time>2021-09-25T12:39:53Z</time>
      </trkpt>
      <trkpt lat="43.12986" lon="3.07785">
        <ele>82.301</ele>
        <time>2021-09-25T12:39:55Z</time>
      </trkpt>
      <trkpt lat="43.12986" lon="3.07782">
        <ele>81.91</ele>
        <time>2021-09-25T12:39:57Z</time>
      </trkpt>
      <trkpt lat="43.12987" lon="3.07775">
        <ele>81.211</ele>
        <time>2021-09-25T12:39:59Z</time>
      </trkpt>
      <trkpt lat="43.12988" lon="3.07766">
        <ele>80.53</ele>
        <time>2021-09-25T12:40:01Z</time>
      </trkpt>
      <trkpt lat="43.12989" lon="3.07756">
        <ele>80.565</ele>
        <time>2021-09-25T12:40:03Z</time>
      </trkpt>
      <trkpt lat="43.12989" lon="3.07747">
        <ele>80.056</ele>
        <time>2021-09-25T12:40:05Z</time>
      </trkpt>
      <trkpt lat="43.1299" lon="3.07738">
        <ele>79.479</ele>
        <time>2021-09-25T12:40:07Z</time>
      </trkpt>
      <trkpt lat="43.12991" lon="3.0773">
        <ele>79.563</ele>
        <time>2021-09-25T12:40:09Z</time>
      </trkpt>
      <trkpt lat="43.12991" lon="3.07722">
        <ele>79.679</ele>
        <time>2021-09-25T12:40:11Z</time>
      </trkpt>
      <trkpt lat="43.12991" lon="3.07714">
        <ele>79.466</ele>
        <time>2021-09-25T12:40:13Z</time>
      </trkpt>
      <trkpt lat="43.12991" lon="3.07705">
        <ele>79.123</ele>
        <time>2021-09-25T12:40:15Z</time>
      </trkpt>
      <trkpt lat="43.12991" lon="3.07697">
        <ele>78.663</ele>
        <time>2021-09-25T12:40:17Z</time>
      </trkpt>
      <trkpt lat="43.12991" lon="3.07688">
        <ele>78.541</ele>
        <time>2021-09-25T12:40:19Z</time>
      </trkpt>
      <trkpt lat="43.12991" lon="3.07679">
        <ele>78.537</ele>
        <time>2021-09-25T12:40:21Z</time>
      </trkpt>
      <trkpt lat="43.12991" lon="3.07671">
        <ele>78.68</ele>
        <time>2021-09-25T12:40:23Z</time>
      </trkpt>
      <trkpt lat="43.1299" lon="3.07664">
        <ele>78.525</ele>
        <time>2021-09-25T12:40:25Z</time>
      </trkpt>
      <trkpt lat="43.12989" lon="3.07656">
        <ele>77.832</ele>
        <time>2021-09-25T12:40:27Z</time>
      </trkpt>
      <trkpt lat="43.12988" lon="3.07648">
        <ele>77.31</ele>
        <time>2021-09-25T12:40:29Z</time>
      </trkpt>
      <trkpt lat="43.12988" lon="3.0764">
        <ele>77.188</ele>
        <time>2021-09-25T12:40:31Z</time>
      </trkpt>
      <trkpt lat="43.12987" lon="3.07632">
        <ele>76.478</ele>
        <time>2021-09-25T12:40:33Z</time>
      </trkpt>
      <trkpt lat="43.12988" lon="3.07623">
        <ele>75.966</ele>
        <time>2021-09-25T12:40:35Z</time>
      </trkpt>
      <trkpt lat="43.1299" lon="3.07615">
        <ele>76.432</ele>
        <time>2021-09-25T12:40:37Z</time>
      </trkpt>
      <trkpt lat="43.12992" lon="3.07608">
        <ele>76.51</ele>
        <time>2021-09-25T12:40:39Z</time>
      </trkpt>
      <trkpt lat="43.12994" lon="3.076">
        <ele>76.587</ele>
        <time>2021-09-25T12:40:41Z</time>
      </trkpt>
      <trkpt lat="43.12996" lon="3.07593">
        <ele>76.241</ele>
        <time>2021-09-25T12:40:43Z</time>
      </trkpt>
      <trkpt lat="43.12997" lon="3.07585">
        <ele>77.564</ele>
        <time>2021-09-25T12:40:45Z</time>
      </trkpt>
      <trkpt lat="43.12999" lon="3.07578">
        <ele>77.859</ele>
        <time>2021-09-25T12:40:47Z</time>
      </trkpt>
      <trkpt lat="43.13001" lon="3.07571">
        <ele>78.445</ele>
        <time>2021-09-25T12:40:49Z</time>
      </trkpt>
      <trkpt lat="43.13003" lon="3.07564">
        <ele>78.423</ele>
        <time>2021-09-25T12:40:51Z</time>
      </trkpt>
      <trkpt lat="43.13005" lon="3.07557">
        <ele>78.344</ele>
        <time>2021-09-25T12:40:53Z</time>
      </trkpt>
      <trkpt lat="43.13007" lon="3.0755">
        <ele>77.785</ele>
        <time>2021-09-25T12:40:55Z</time>
      </trkpt>
      <trkpt lat="43.1301" lon="3.07544">
        <ele>77.469</ele>
        <time>2021-09-25T12:40:57Z</time>
      </trkpt>
      <trkpt lat="43.13013" lon="3.07537">
        <ele>78.591</ele>
        <time>2021-09-25T12:40:59Z</time>
      </trkpt>
      <trkpt lat="43.13017" lon="3.07532">
        <ele>78.444</ele>
        <time>2021-09-25T12:41:01Z</time>
      </trkpt>
      <trkpt lat="43.1302" lon="3.07526">
        <ele>78.384</ele>
        <time>2021-09-25T12:41:03Z</time>
      </trkpt>
      <trkpt lat="43.13024" lon="3.07521">
        <ele>78.949</ele>
        <time>2021-09-25T12:41:05Z</time>
      </trkpt>
      <trkpt lat="43.13027" lon="3.07516">
        <ele>78.099</ele>
        <time>2021-09-25T12:41:07Z</time>
      </trkpt>
      <trkpt lat="43.13031" lon="3.0751">
        <ele>79.469</ele>
        <time>2021-09-25T12:41:09Z</time>
      </trkpt>
      <trkpt lat="43.13035" lon="3.07505">
        <ele>79.191</ele>
        <time>2021-09-25T12:41:11Z</time>
      </trkpt>
      <trkpt lat="43.13038" lon="3.075">
        <ele>79.599</ele>
        <time>2021-09-25T12:41:13Z</time>
      </trkpt>
      <trkpt lat="43.13041" lon="3.07494">
        <ele>80.599</ele>
        <time>2021-09-25T12:41:15Z</time>
      </trkpt>
      <trkpt lat="43.13043" lon="3.07489">
        <ele>79.896</ele>
        <time>2021-09-25T12:41:17Z</time>
      </trkpt>
      <trkpt lat="43.13044" lon="3.07482">
        <ele>79.371</ele>
        <time>2021-09-25T12:41:19Z</time>
      </trkpt>
      <trkpt lat="43.13046" lon="3.07476">
        <ele>79.234</ele>
        <time>2021-09-25T12:41:21Z</time>
      </trkpt>
      <trkpt lat="43.13047" lon="3.0747">
        <ele>79.581</ele>
        <time>2021-09-25T12:41:23Z</time>
      </trkpt>
      <trkpt lat="43.13047" lon="3.07464">
        <ele>79.574</ele>
        <time>2021-09-25T12:41:25Z</time>
      </trkpt>
      <trkpt lat="43.13048" lon="3.07458">
        <ele>79.751</ele>
        <time>2021-09-25T12:41:27Z</time>
      </trkpt>
      <trkpt lat="43.13047" lon="3.07451">
        <ele>80.778</ele>
        <time>2021-09-25T12:41:29Z</time>
      </trkpt>
      <trkpt lat="43.13046" lon="3.07445">
        <ele>81.815</ele>
        <time>2021-09-25T12:41:31Z</time>
      </trkpt>
      <trkpt lat="43.13044" lon="3.07443">
        <ele>80.2</ele>
        <time>2021-09-25T12:41:33Z</time>
      </trkpt>
      <trkpt lat="43.13042" lon="3.07443">
        <ele>79.858</ele>
        <time>2021-09-25T12:41:35Z</time>
      </trkpt>
      <trkpt lat="43.13041" lon="3.07443">
        <ele>79.9</ele>
        <time>2021-09-25T12:41:37Z</time>
      </trkpt>
      <trkpt lat="43.1304" lon="3.07443">
        <ele>79.635</ele>
        <time>2021-09-25T12:41:39Z</time>
      </trkpt>
      <trkpt lat="43.13039" lon="3.07443">
        <ele>79.846</ele>
        <time>2021-09-25T12:41:41Z</time>
      </trkpt>
      <trkpt lat="43.13038" lon="3.07442">
        <ele>79.658</ele>
        <time>2021-09-25T12:41:43Z</time>
      </trkpt>
      <trkpt lat="43.13038" lon="3.07441">
        <ele>79.747</ele>
        <time>2021-09-25T12:41:45Z</time>
      </trkpt>
      <trkpt lat="43.13037" lon="3.07443">
        <ele>79.377</ele>
        <time>2021-09-25T12:41:47Z</time>
      </trkpt>
      <trkpt lat="43.13037" lon="3.07443">
        <ele>79.41</ele>
        <time>2021-09-25T12:41:49Z</time>
      </trkpt>
      <trkpt lat="43.13037" lon="3.07443">
        <ele>79.412</ele>
        <time>2021-09-25T12:41:51Z</time>
      </trkpt>
      <trkpt lat="43.13037" lon="3.07443">
        <ele>79.41</ele>
        <time>2021-09-25T12:41:53Z</time>
      </trkpt>
      <trkpt lat="43.13037" lon="3.07443">
        <ele>79.407</ele>
        <time>2021-09-25T12:41:55Z</time>
      </trkpt>
      <trkpt lat="43.13038" lon="3.07444">
        <ele>79.197</ele>
        <time>2021-09-25T12:41:57Z</time>
      </trkpt>
      <trkpt lat="43.13039" lon="3.07444">
        <ele>79.877</ele>
        <time>2021-09-25T12:41:59Z</time>
      </trkpt>
      <trkpt lat="43.1304" lon="3.07443">
        <ele>79.218</ele>
        <time>2021-09-25T12:42:01Z</time>
      </trkpt>
      <trkpt lat="43.1304" lon="3.07442">
        <ele>79.207</ele>
        <time>2021-09-25T12:42:03Z</time>
      </trkpt>
      <trkpt lat="43.13039" lon="3.07442">
        <ele>79.19</ele>
        <time>2021-09-25T12:42:05Z</time>
      </trkpt>
      <trkpt lat="43.13039" lon="3.07441">
        <ele>78.14</ele>
        <time>2021-09-25T12:42:07Z</time>
      </trkpt>
      <trkpt lat="43.13038" lon="3.07442">
        <ele>78.864</ele>
        <time>2021-09-25T12:42:09Z</time>
      </trkpt>
      <trkpt lat="43.13037" lon="3.07443">
        <ele>78.563</ele>
        <time>2021-09-25T12:42:11Z</time>
      </trkpt>
      <trkpt lat="43.13038" lon="3.07442">
        <ele>79.34</ele>
        <time>2021-09-25T12:42:13Z</time>
      </trkpt>
      <trkpt lat="43.13039" lon="3.07443">
        <ele>79.681</ele>
        <time>2021-09-25T12:42:15Z</time>
      </trkpt>
      <trkpt lat="43.13041" lon="3.07445">
        <ele>77.961</ele>
        <time>2021-09-25T12:42:17Z</time>
      </trkpt>
      <trkpt lat="43.13042" lon="3.07444">
        <ele>77.763</ele>
        <time>2021-09-25T12:42:19Z</time>
      </trkpt>
      <trkpt lat="43.13042" lon="3.07444">
        <ele>78.042</ele>
        <time>2021-09-25T12:42:21Z</time>
      </trkpt>
      <trkpt lat="43.13043" lon="3.07444">
        <ele>77.55</ele>
        <time>2021-09-25T12:42:23Z</time>
      </trkpt>
      <trkpt lat="43.13044" lon="3.07444">
        <ele>78.795</ele>
        <time>2021-09-25T12:42:25Z</time>
      </trkpt>
      <trkpt lat="43.13044" lon="3.07443">
        <ele>79.24</ele>
        <time>2021-09-25T12:42:27Z</time>
      </trkpt>
      <trkpt lat="43.13044" lon="3.07443">
        <ele>79.275</ele>
        <time>2021-09-25T12:42:29Z</time>
      </trkpt>
      <trkpt lat="43.13044" lon="3.07443">
        <ele>79.276</ele>
        <time>2021-09-25T12:42:31Z</time>
      </trkpt>
      <trkpt lat="43.13046" lon="3.07443">
        <ele>79.342</ele>
        <time>2021-09-25T12:42:33Z</time>
      </trkpt>
      <trkpt lat="43.13047" lon="3.07445">
        <ele>78.821</ele>
        <time>2021-09-25T12:42:35Z</time>
      </trkpt>
      <trkpt lat="43.13047" lon="3.07453">
        <ele>79.404</ele>
        <time>2021-09-25T12:42:37Z</time>
      </trkpt>
      <trkpt lat="43.13048" lon="3.07464">
        <ele>79.779</ele>
        <time>2021-09-25T12:42:39Z</time>
      </trkpt>
      <trkpt lat="43.13046" lon="3.07484">
        <ele>77.734</ele>
        <time>2021-09-25T12:42:41Z</time>
      </trkpt>
      <trkpt lat="43.13036" lon="3.07503">
        <ele>77.219</ele>
        <time>2021-09-25T12:42:43Z</time>
      </trkpt>
      <trkpt lat="43.1302" lon="3.07523">
        <ele>76.62</ele>
        <time>2021-09-25T12:42:45Z</time>
      </trkpt>
      <trkpt lat="43.13007" lon="3.07541">
        <ele>74.737</ele>
        <time>2021-09-25T12:42:47Z</time>
      </trkpt>
      <trkpt lat="43.12999" lon="3.07568">
        <ele>77.392</ele>
        <time>2021-09-25T12:42:49Z</time>
      </trkpt>
      <trkpt lat="43.1299" lon="3.07599">
        <ele>76.938</ele>
        <time>2021-09-25T12:42:51Z</time>
      </trkpt>
      <trkpt lat="43.12988" lon="3.07632">
        <ele>77.273</ele>
        <time>2021-09-25T12:42:53Z</time>
      </trkpt>
      <trkpt lat="43.12989" lon="3.07666">
        <ele>76.91</ele>
        <time>2021-09-25T12:42:55Z</time>
      </trkpt>
      <trkpt lat="43.12989" lon="3.07702">
        <ele>77.669</ele>
        <time>2021-09-25T12:42:57Z</time>
      </trkpt>
      <trkpt lat="43.12989" lon="3.07735">
        <ele>75.604</ele>
        <time>2021-09-25T12:42:59Z</time>
      </trkpt>
      <trkpt lat="43.12986" lon="3.0777">
        <ele>77.444</ele>
        <time>2021-09-25T12:43:01Z</time>
      </trkpt>
      <trkpt lat="43.12989" lon="3.07802">
        <ele>76.432</ele>
        <time>2021-09-25T12:43:03Z</time>
      </trkpt>
      <trkpt lat="43.12999" lon="3.07841">
        <ele>71.972</ele>
        <time>2021-09-25T12:43:05Z</time>
      </trkpt>
      <trkpt lat="43.13004" lon="3.07881">
        <ele>74.197</ele>
        <time>2021-09-25T12:43:07Z</time>
      </trkpt>
      <trkpt lat="43.13008" lon="3.07921">
        <ele>75.326</ele>
        <time>2021-09-25T12:43:09Z</time>
      </trkpt>
      <trkpt lat="43.13012" lon="3.07961">
        <ele>77.264</ele>
        <time>2021-09-25T12:43:11Z</time>
      </trkpt>
      <trkpt lat="43.1302" lon="3.07995">
        <ele>78.187</ele>
        <time>2021-09-25T12:43:13Z</time>
      </trkpt>
      <trkpt lat="43.13032" lon="3.08033">
        <ele>76.897</ele>
        <time>2021-09-25T12:43:15Z</time>
      </trkpt>
      <trkpt lat="43.13044" lon="3.08068">
        <ele>75.826</ele>
        <time>2021-09-25T12:43:17Z</time>
      </trkpt>
      <trkpt lat="43.13056" lon="3.08106">
        <ele>75.239</ele>
        <time>2021-09-25T12:43:19Z</time>
      </trkpt>
      <trkpt lat="43.13065" lon="3.08135">
        <ele>77.489</ele>
        <time>2021-09-25T12:43:21Z</time>
      </trkpt>
      <trkpt lat="43.13074" lon="3.08167">
        <ele>76.859</ele>
        <time>2021-09-25T12:43:23Z</time>
      </trkpt>
      <trkpt lat="43.1308" lon="3.08199">
        <ele>74.776</ele>
        <time>2021-09-25T12:43:25Z</time>
      </trkpt>
      <trkpt lat="43.13087" lon="3.08232">
        <ele>74.291</ele>
        <time>2021-09-25T12:43:27Z</time>
      </trkpt>
      <trkpt lat="43.13095" lon="3.0826">
        <ele>73.847</ele>
        <time>2021-09-25T12:43:29Z</time>
      </trkpt>
      <trkpt lat="43.13102" lon="3.08286">
        <ele>74.192</ele>
        <time>2021-09-25T12:43:31Z</time>
      </trkpt>
      <trkpt lat="43.1311" lon="3.08309">
        <ele>72.901</ele>
        <time>2021-09-25T12:43:33Z</time>
      </trkpt>
      <trkpt lat="43.13118" lon="3.08329">
        <ele>72.958</ele>
        <time>2021-09-25T12:43:35Z</time>
      </trkpt>
      <trkpt lat="43.13129" lon="3.08347">
        <ele>72.93</ele>
        <time>2021-09-25T12:43:37Z</time>
      </trkpt>
      <trkpt lat="43.13134" lon="3.08361">
        <ele>72.495</ele>
        <time>2021-09-25T12:43:39Z</time>
      </trkpt>
      <trkpt lat="43.13138" lon="3.08375">
        <ele>69.749</ele>
        <time>2021-09-25T12:43:41Z</time>
      </trkpt>
      <trkpt lat="43.13142" lon="3.08387">
        <ele>69.076</ele>
        <time>2021-09-25T12:43:43Z</time>
      </trkpt>
      <trkpt lat="43.13146" lon="3.08396">
        <ele>69.001</ele>
        <time>2021-09-25T12:43:45Z</time>
      </trkpt>
      <trkpt lat="43.1315" lon="3.08404">
        <ele>69.535</ele>
        <time>2021-09-25T12:43:47Z</time>
      </trkpt>
      <trkpt lat="43.13151" lon="3.0841">
        <ele>68.328</ele>
        <time>2021-09-25T12:43:49Z</time>
      </trkpt>
      <trkpt lat="43.13152" lon="3.08414">
        <ele>67.687</ele>
        <time>2021-09-25T12:43:51Z</time>
      </trkpt>
      <trkpt lat="43.13154" lon="3.08416">
        <ele>69.533</ele>
        <time>2021-09-25T12:43:53Z</time>
      </trkpt>
      <trkpt lat="43.13155" lon="3.0842">
        <ele>69.254</ele>
        <time>2021-09-25T12:43:55Z</time>
      </trkpt>
      <trkpt lat="43.13157" lon="3.0842">
        <ele>69.947</ele>
        <time>2021-09-25T12:43:57Z</time>
      </trkpt>
      <trkpt lat="43.13157" lon="3.0842">
        <ele>69.846</ele>
        <time>2021-09-25T12:43:59Z</time>
      </trkpt>
      <trkpt lat="43.13157" lon="3.08424">
        <ele>71.502</ele>
        <time>2021-09-25T12:44:01Z</time>
      </trkpt>
      <trkpt lat="43.1316" lon="3.08431">
        <ele>69.607</ele>
        <time>2021-09-25T12:44:03Z</time>
      </trkpt>
      <trkpt lat="43.13163" lon="3.08442">
        <ele>69.59</ele>
        <time>2021-09-25T12:44:05Z</time>
      </trkpt>
      <trkpt lat="43.13168" lon="3.08452">
        <ele>67.564</ele>
        <time>2021-09-25T12:44:07Z</time>
      </trkpt>
      <trkpt lat="43.13174" lon="3.08468">
        <ele>67.4</ele>
        <time>2021-09-25T12:44:09Z</time>
      </trkpt>
      <trkpt lat="43.13177" lon="3.08486">
        <ele>67.501</ele>
        <time>2021-09-25T12:44:11Z</time>
      </trkpt>
      <trkpt lat="43.13186" lon="3.0851">
        <ele>66.503</ele>
        <time>2021-09-25T12:44:13Z</time>
      </trkpt>
      <trkpt lat="43.13192" lon="3.08532">
        <ele>65.692</ele>
        <time>2021-09-25T12:44:15Z</time>
      </trkpt>
      <trkpt lat="43.13198" lon="3.08552">
        <ele>65.351</ele>
        <time>2021-09-25T12:44:17Z</time>
      </trkpt>
      <trkpt lat="43.13205" lon="3.08565">
        <ele>67.71</ele>
        <time>2021-09-25T12:44:19Z</time>
      </trkpt>
      <trkpt lat="43.13214" lon="3.08575">
        <ele>64.769</ele>
        <time>2021-09-25T12:44:21Z</time>
      </trkpt>
      <trkpt lat="43.13229" lon="3.08584">
        <ele>66.833</ele>
        <time>2021-09-25T12:44:23Z</time>
      </trkpt>
      <trkpt lat="43.13231" lon="3.08589">
        <ele>68.578</ele>
        <time>2021-09-25T12:44:25Z</time>
      </trkpt>
      <trkpt lat="43.1323" lon="3.08589">
        <ele>66.978</ele>
        <time>2021-09-25T12:44:27Z</time>
      </trkpt>
      <trkpt lat="43.1323" lon="3.0859">
        <ele>66.326</ele>
        <time>2021-09-25T12:44:29Z</time>
      </trkpt>
      <trkpt lat="43.13231" lon="3.08591">
        <ele>67.073</ele>
        <time>2021-09-25T12:44:31Z</time>
      </trkpt>
      <trkpt lat="43.13231" lon="3.08594">
        <ele>66.718</ele>
        <time>2021-09-25T12:44:33Z</time>
      </trkpt>
      <trkpt lat="43.13232" lon="3.08602">
        <ele>66.283</ele>
        <time>2021-09-25T12:44:35Z</time>
      </trkpt>
      <trkpt lat="43.13234" lon="3.08609">
        <ele>66.717</ele>
        <time>2021-09-25T12:44:37Z</time>
      </trkpt>
      <trkpt lat="43.13236" lon="3.08612">
        <ele>67.614</ele>
        <time>2021-09-25T12:44:39Z</time>
      </trkpt>
      <trkpt lat="43.13236" lon="3.08612">
        <ele>68.889</ele>
        <time>2021-09-25T12:44:41Z</time>
      </trkpt>
      <trkpt lat="43.13236" lon="3.08613">
        <ele>68.674</ele>
        <time>2021-09-25T12:44:43Z</time>
      </trkpt>
      <trkpt lat="43.13236" lon="3.08612">
        <ele>67.255</ele>
        <time>2021-09-25T12:44:45Z</time>
      </trkpt>
      <trkpt lat="43.13235" lon="3.08611">
        <ele>67.833</ele>
        <time>2021-09-25T12:44:47Z</time>
      </trkpt>
      <trkpt lat="43.13233" lon="3.08608">
        <ele>68.885</ele>
        <time>2021-09-25T12:44:49Z</time>
      </trkpt>
      <trkpt lat="43.13232" lon="3.08606">
        <ele>69.066</ele>
        <time>2021-09-25T12:44:51Z</time>
      </trkpt>
      <trkpt lat="43.13231" lon="3.08603">
        <ele>68.934</ele>
        <time>2021-09-25T12:44:53Z</time>
      </trkpt>
      <trkpt lat="43.1323" lon="3.08601">
        <ele>68.977</ele>
        <time>2021-09-25T12:44:55Z</time>
      </trkpt>
      <trkpt lat="43.13229" lon="3.08599">
        <ele>68.3</ele>
        <time>2021-09-25T12:44:57Z</time>
      </trkpt>
      <trkpt lat="43.13228" lon="3.08598">
        <ele>67.689</ele>
        <time>2021-09-25T12:44:59Z</time>
      </trkpt>
      <trkpt lat="43.13227" lon="3.08596">
        <ele>68.328</ele>
        <time>2021-09-25T12:45:01Z</time>
      </trkpt>
      <trkpt lat="43.13227" lon="3.08595">
        <ele>67.449</ele>
        <time>2021-09-25T12:45:03Z</time>
      </trkpt>
      <trkpt lat="43.13226" lon="3.08595">
        <ele>67.831</ele>
        <time>2021-09-25T12:45:05Z</time>
      </trkpt>
      <trkpt lat="43.13226" lon="3.08593">
        <ele>67.697</ele>
        <time>2021-09-25T12:45:07Z</time>
      </trkpt>
      <trkpt lat="43.13226" lon="3.08591">
        <ele>68.035</ele>
        <time>2021-09-25T12:45:09Z</time>
      </trkpt>
      <trkpt lat="43.13225" lon="3.0859">
        <ele>68.78</ele>
        <time>2021-09-25T12:45:11Z</time>
      </trkpt>
      <trkpt lat="43.13225" lon="3.0859">
        <ele>68.607</ele>
        <time>2021-09-25T12:45:13Z</time>
      </trkpt>
      <trkpt lat="43.13227" lon="3.0859">
        <ele>67.027</ele>
        <time>2021-09-25T12:45:15Z</time>
      </trkpt>
      <trkpt lat="43.13229" lon="3.08593">
        <ele>66.357</ele>
        <time>2021-09-25T12:45:17Z</time>
      </trkpt>
      <trkpt lat="43.1323" lon="3.08594">
        <ele>65.545</ele>
        <time>2021-09-25T12:45:19Z</time>
      </trkpt>
      <trkpt lat="43.1323" lon="3.08594">
        <ele>63.883</ele>
        <time>2021-09-25T12:45:21Z</time>
      </trkpt>
      <trkpt lat="43.1323" lon="3.08595">
        <ele>63.629</ele>
        <time>2021-09-25T12:45:23Z</time>
      </trkpt>
      <trkpt lat="43.1323" lon="3.08594">
        <ele>63.691</ele>
        <time>2021-09-25T12:45:25Z</time>
      </trkpt>
      <trkpt lat="43.13229" lon="3.08594">
        <ele>63.411</ele>
        <time>2021-09-25T12:45:27Z</time>
      </trkpt>
      <trkpt lat="43.13229" lon="3.08594">
        <ele>63.411</ele>
        <time>2021-09-25T12:45:29Z</time>
      </trkpt>
      <trkpt lat="43.13229" lon="3.08594">
        <ele>63.415</ele>
        <time>2021-09-25T12:45:31Z</time>
      </trkpt>
      <trkpt lat="43.13229" lon="3.08594">
        <ele>63.412</ele>
        <time>2021-09-25T12:45:33Z</time>
      </trkpt>
      <trkpt lat="43.13229" lon="3.08594">
        <ele>63.404</ele>
        <time>2021-09-25T12:45:35Z</time>
      </trkpt>
      <trkpt lat="43.13229" lon="3.08594">
        <ele>63.406</ele>
        <time>2021-09-25T12:45:37Z</time>
      </trkpt>
      <trkpt lat="43.13229" lon="3.08594">
        <ele>63.402</ele>
        <time>2021-09-25T12:45:39Z</time>
      </trkpt>
    </trkseg>
  </trk>
</gpx>